<?xml version='1.0' encoding='UTF-8'?><gpx version="1.1" creator="JPX - https://github.com/jenetics/jpx" xmlns="http://www.topografix.com/GPX/1/1"><trk><trkseg><trkpt lat="42.71756242495067" lon="12.672470625235688"><ele>385.00000000000006</ele><time>2026-04-19T09:00:16.999Z</time></trkpt><trkpt lat="42.71748034919069" lon="12.672497561411461"><ele>385.0</ele><time>2026-04-19T09:00:18.999Z</time></trkpt><trkpt lat="42.71741223029892" lon="12.672598677743208"><ele>385.0</ele><time>2026-04-19T09:00:20.999Z</time></trkpt><trkpt lat="42.717355792651176" lon="12.672689947297778"><ele>385.0</ele><time>2026-04-19T09:00:21.999Z</time></trkpt><trkpt lat="42.71730689074934" lon="12.672793958776841"><ele>385.00000000000006</ele><time>2026-04-19T09:00:22.999Z</time></trkpt><trkpt lat="42.717286009388296" lon="12.672883730049607"><ele>385.0</ele><time>2026-04-19T09:00:23.999Z</time></trkpt><trkpt lat="42.717305565555854" lon="12.67305935331268"><ele>388.0</ele><time>2026-04-19T09:00:25.999Z</time></trkpt><trkpt lat="42.71731279010965" lon="12.673201969444417"><ele>391.0</ele><time>2026-04-19T09:00:26.999Z</time></trkpt><trkpt lat="42.7173482299" lon="12.673325146266532"><ele>394.0</ele><time>2026-04-19T09:00:27.999Z</time></trkpt><trkpt lat="42.717377800653935" lon="12.673505635745608"><ele>397.0</ele><time>2026-04-19T09:00:28.999Z</time></trkpt><trkpt lat="42.717374349662165" lon="12.673643345626273"><ele>400.0</ele><time>2026-04-19T09:00:29.999Z</time></trkpt><trkpt lat="42.717388613980184" lon="12.67381136343845"><ele>402.2</ele><time>2026-04-19T09:00:31.999Z</time></trkpt><trkpt lat="42.717354983369475" lon="12.673965032984093"><ele>404.4</ele><time>2026-04-19T09:00:33.999Z</time></trkpt><trkpt lat="42.717295329136896" lon="12.674096553341746"><ele>406.6</ele><time>2026-04-19T09:00:35.999Z</time></trkpt><trkpt lat="42.717252822847115" lon="12.674160215095625"><ele>408.8</ele><time>2026-04-19T09:00:36.999Z</time></trkpt><trkpt lat="42.71719999569046" lon="12.674234086673975"><ele>411.0</ele><time>2026-04-19T09:00:37.999Z</time></trkpt><trkpt lat="42.71710316548918" lon="12.674197683158942"><ele>411.0</ele><time>2026-04-19T09:00:40.999Z</time></trkpt><trkpt lat="42.71706676300507" lon="12.674123525817423"><ele>411.0</ele><time>2026-04-19T09:00:41.999Z</time></trkpt><trkpt lat="42.71702715968373" lon="12.674036519232635"><ele>411.0</ele><time>2026-04-19T09:00:42.999Z</time></trkpt><trkpt lat="42.717020329828166" lon="12.673947714480999"><ele>411.0</ele><time>2026-04-19T09:00:43.999Z</time></trkpt><trkpt lat="42.71692299965353" lon="12.673948165589193"><ele>411.0</ele><time>2026-04-19T09:00:47.999Z</time></trkpt><trkpt lat="42.71688601045292" lon="12.674050902991008"><ele>411.0</ele><time>2026-04-19T09:00:49.999Z</time></trkpt><trkpt lat="42.716824701349644" lon="12.674175914980975"><ele>416.6</ele><time>2026-04-19T09:00:51.999Z</time></trkpt><trkpt lat="42.71671723876573" lon="12.674307093585314"><ele>422.20000000000005</ele><time>2026-04-19T09:00:53.999Z</time></trkpt><trkpt lat="42.716671579804874" lon="12.67440206257358"><ele>427.79999999999995</ele><time>2026-04-19T09:00:54.999Z</time></trkpt><trkpt lat="42.716616184600525" lon="12.67449499693643"><ele>433.4</ele><time>2026-04-19T09:00:55.999Z</time></trkpt><trkpt lat="42.71655330572994" lon="12.674603158478426"><ele>439.0</ele><time>2026-04-19T09:00:56.999Z</time></trkpt><trkpt lat="42.71651552017079" lon="12.674678644371468"><ele>439.2</ele><time>2026-04-19T09:00:58.999Z</time></trkpt><trkpt lat="42.71644798682053" lon="12.674732406753584"><ele>439.4</ele><time>2026-04-19T09:00:59.999Z</time></trkpt><trkpt lat="42.7163079812193" lon="12.674809544345674"><ele>439.6</ele><time>2026-04-19T09:01:00.999Z</time></trkpt><trkpt lat="42.716207251489315" lon="12.674875510017761"><ele>439.8</ele><time>2026-04-19T09:01:01.999Z</time></trkpt><trkpt lat="42.716143807961835" lon="12.674873828310036"><ele>440.0</ele><time>2026-04-19T09:01:03.999Z</time></trkpt><trkpt lat="42.71609320187816" lon="12.67481090267775"><ele>439.99999999999994</ele><time>2026-04-19T09:01:04.999Z</time></trkpt><trkpt lat="42.71607204368287" lon="12.67472694843001"><ele>440.0</ele><time>2026-04-19T09:01:05.999Z</time></trkpt><trkpt lat="42.716037234131896" lon="12.674642372599155"><ele>440.0</ele><time>2026-04-19T09:01:06.999Z</time></trkpt><trkpt lat="42.71597163932615" lon="12.674531626151555"><ele>440.0</ele><time>2026-04-19T09:01:08.999Z</time></trkpt><trkpt lat="42.715981863624506" lon="12.674442282360493"><ele>439.99999999999994</ele><time>2026-04-19T09:01:09.999Z</time></trkpt><trkpt lat="42.71598729140526" lon="12.674287502213346"><ele>440.0</ele><time>2026-04-19T09:01:10.999Z</time></trkpt><trkpt lat="42.715979026992706" lon="12.67416778470685"><ele>444.16666666666663</ele><time>2026-04-19T09:01:11.999Z</time></trkpt><trkpt lat="42.71597777614022" lon="12.67406565791462"><ele>448.3333333333333</ele><time>2026-04-19T09:01:12.999Z</time></trkpt><trkpt lat="42.71591264025592" lon="12.673993354191236"><ele>452.5</ele><time>2026-04-19T09:01:13.999Z</time></trkpt><trkpt lat="42.71584798827459" lon="12.673938593885424"><ele>456.66666666666663</ele><time>2026-04-19T09:01:14.999Z</time></trkpt><trkpt lat="42.715755374816084" lon="12.673895367883722"><ele>460.8333333333333</ele><time>2026-04-19T09:01:16.999Z</time></trkpt><trkpt lat="42.715683348658686" lon="12.673996034020638"><ele>465.0</ele><time>2026-04-19T09:01:18.999Z</time></trkpt><trkpt lat="42.7155529936591" lon="12.674040335359582"><ele>465.0</ele><time>2026-04-19T09:01:20.999Z</time></trkpt><trkpt lat="42.71548927846684" lon="12.674042334706586"><ele>465.0</ele><time>2026-04-19T09:01:21.999Z</time></trkpt><trkpt lat="42.71542710030891" lon="12.67406832273767"><ele>465.0</ele><time>2026-04-19T09:01:22.999Z</time></trkpt><trkpt lat="42.715314221323034" lon="12.674185850133961"><ele>465.0</ele><time>2026-04-19T09:01:24.999Z</time></trkpt><trkpt lat="42.71522274502058" lon="12.674254805856007"><ele>465.0</ele><time>2026-04-19T09:01:25.999Z</time></trkpt><trkpt lat="42.71514269110592" lon="12.674304683701386"><ele>469.0</ele><time>2026-04-19T09:01:26.999Z</time></trkpt><trkpt lat="42.71506742660976" lon="12.674337803224264"><ele>473.0</ele><time>2026-04-19T09:01:27.999Z</time></trkpt><trkpt lat="42.714978535766235" lon="12.674341340821286"><ele>477.0</ele><time>2026-04-19T09:01:28.999Z</time></trkpt><trkpt lat="42.714890203191196" lon="12.674379807187083"><ele>481.0</ele><time>2026-04-19T09:01:29.999Z</time></trkpt><trkpt lat="42.71482382165869" lon="12.674409426593648"><ele>485.0</ele><time>2026-04-19T09:01:30.999Z</time></trkpt><trkpt lat="42.71474384115452" lon="12.674465699110538"><ele>489.0</ele><time>2026-04-19T09:01:31.999Z</time></trkpt><trkpt lat="42.71461033964434" lon="12.674572227075815"><ele>491.2</ele><time>2026-04-19T09:01:33.999Z</time></trkpt><trkpt lat="42.71455060451409" lon="12.674678215458322"><ele>493.4</ele><time>2026-04-19T09:01:34.999Z</time></trkpt><trkpt lat="42.714518750319186" lon="12.674786957428614"><ele>495.6</ele><time>2026-04-19T09:01:35.999Z</time></trkpt><trkpt lat="42.714481051119144" lon="12.674858998717568"><ele>497.8</ele><time>2026-04-19T09:01:36.999Z</time></trkpt><trkpt lat="42.714419814775354" lon="12.67496455569057"><ele>500.0</ele><time>2026-04-19T09:01:37.999Z</time></trkpt><trkpt lat="42.714314149191196" lon="12.675064903332688"><ele>502.66666666666663</ele><time>2026-04-19T09:01:38.999Z</time></trkpt><trkpt lat="42.71426969459542" lon="12.675176717995818"><ele>505.3333333333333</ele><time>2026-04-19T09:01:39.999Z</time></trkpt><trkpt lat="42.714221410262695" lon="12.675279068533113"><ele>508.0</ele><time>2026-04-19T09:01:40.999Z</time></trkpt><trkpt lat="42.71417475514204" lon="12.675382300352569"><ele>510.66666666666663</ele><time>2026-04-19T09:01:41.999Z</time></trkpt><trkpt lat="42.71413615696447" lon="12.675492972067708"><ele>513.3333333333334</ele><time>2026-04-19T09:01:42.999Z</time></trkpt><trkpt lat="42.71411581518182" lon="12.675593288463142"><ele>516.0</ele><time>2026-04-19T09:01:43.999Z</time></trkpt><trkpt lat="42.71411095812096" lon="12.675729046420605"><ele>519.2</ele><time>2026-04-19T09:01:44.999Z</time></trkpt><trkpt lat="42.71410137357796" lon="12.675815642718357"><ele>522.4000000000001</ele><time>2026-04-19T09:01:45.998Z</time></trkpt><trkpt lat="42.7140564427319" lon="12.675995300621537"><ele>525.6</ele><time>2026-04-19T09:01:47.998Z</time></trkpt><trkpt lat="42.71400793624431" lon="12.676150825685168"><ele>528.8000000000001</ele><time>2026-04-19T09:01:48.998Z</time></trkpt><trkpt lat="42.713969540285795" lon="12.676281825415716"><ele>532.0</ele><time>2026-04-19T09:01:49.998Z</time></trkpt><trkpt lat="42.713942868508326" lon="12.676391747780949"><ele>534.4</ele><time>2026-04-19T09:01:50.998Z</time></trkpt><trkpt lat="42.7138975723225" lon="12.676514751258265"><ele>536.8000000000001</ele><time>2026-04-19T09:01:51.998Z</time></trkpt><trkpt lat="42.71382686320969" lon="12.676624179068403"><ele>539.2</ele><time>2026-04-19T09:01:52.998Z</time></trkpt><trkpt lat="42.71377935293918" lon="12.676733832249628"><ele>541.6</ele><time>2026-04-19T09:01:53.998Z</time></trkpt><trkpt lat="42.7137124964505" lon="12.676849546012496"><ele>544.0</ele><time>2026-04-19T09:01:54.998Z</time></trkpt><trkpt lat="42.7136527979247" lon="12.676981031098277"><ele>545.6</ele><time>2026-04-19T09:01:55.998Z</time></trkpt><trkpt lat="42.713598652593724" lon="12.677100170777932"><ele>547.2</ele><time>2026-04-19T09:01:56.998Z</time></trkpt><trkpt lat="42.71353453947884" lon="12.677203346346841"><ele>548.8000000000001</ele><time>2026-04-19T09:01:57.998Z</time></trkpt><trkpt lat="42.71346859925338" lon="12.677287439181137"><ele>550.4</ele><time>2026-04-19T09:01:58.998Z</time></trkpt><trkpt lat="42.71342198516839" lon="12.677394686668059"><ele>552.0</ele><time>2026-04-19T09:01:59.998Z</time></trkpt><trkpt lat="42.71336314204904" lon="12.677495137653377"><ele>554.4</ele><time>2026-04-19T09:02:00.998Z</time></trkpt><trkpt lat="42.71330973823578" lon="12.677616613749926"><ele>556.8000000000001</ele><time>2026-04-19T09:02:01.998Z</time></trkpt><trkpt lat="42.71326114175392" lon="12.677735961022753"><ele>559.2</ele><time>2026-04-19T09:02:02.998Z</time></trkpt><trkpt lat="42.713200005630156" lon="12.677844273754582"><ele>561.6</ele><time>2026-04-19T09:02:03.998Z</time></trkpt><trkpt lat="42.7131308640315" lon="12.677971882469299"><ele>564.0</ele><time>2026-04-19T09:02:04.998Z</time></trkpt><trkpt lat="42.713075135034764" lon="12.67806915049944"><ele>567.8333333333334</ele><time>2026-04-19T09:02:05.999Z</time></trkpt><trkpt lat="42.71302174385739" lon="12.678171293299803"><ele>571.6666666666666</ele><time>2026-04-19T09:02:06.999Z</time></trkpt><trkpt lat="42.712969503356106" lon="12.678264703762013"><ele>575.5</ele><time>2026-04-19T09:02:07.999Z</time></trkpt><trkpt lat="42.7129119669354" lon="12.678354527651281"><ele>579.3333333333333</ele><time>2026-04-19T09:02:08.999Z</time></trkpt><trkpt lat="42.71284518594848" lon="12.678464294546195"><ele>583.1666666666666</ele><time>2026-04-19T09:02:10.999Z</time></trkpt><trkpt lat="42.71280418819637" lon="12.678532356509214"><ele>587.0</ele><time>2026-04-19T09:02:11.999Z</time></trkpt><trkpt lat="42.71270095660254" lon="12.678648205105228"><ele>593.4</ele><time>2026-04-19T09:02:13.999Z</time></trkpt><trkpt lat="42.712634468976866" lon="12.67871546783203"><ele>599.8000000000001</ele><time>2026-04-19T09:02:14.999Z</time></trkpt><trkpt lat="42.71256881528654" lon="12.678783756398463"><ele>606.2</ele><time>2026-04-19T09:02:16.999Z</time></trkpt><trkpt lat="42.712476960835225" lon="12.678837240974154"><ele>612.6</ele><time>2026-04-19T09:02:17.999Z</time></trkpt><trkpt lat="42.712390952446974" lon="12.6788786453664"><ele>619.0</ele><time>2026-04-19T09:02:18.999Z</time></trkpt><trkpt lat="42.71226282991752" lon="12.678890782510486"><ele>619.0</ele><time>2026-04-19T09:02:20.999Z</time></trkpt><trkpt lat="42.712167009046496" lon="12.678849803082741"><ele>619.0</ele><time>2026-04-19T09:02:21.999Z</time></trkpt><trkpt lat="42.71209437474663" lon="12.678809838978346"><ele>619.0</ele><time>2026-04-19T09:02:22.999Z</time></trkpt><trkpt lat="42.71194449295985" lon="12.678844382152834"><ele>619.0</ele><time>2026-04-19T09:02:24.999Z</time></trkpt><trkpt lat="42.711829939083785" lon="12.678861247379253"><ele>619.0</ele><time>2026-04-19T09:02:25.999Z</time></trkpt><trkpt lat="42.71174221448005" lon="12.67888427386768"><ele>619.0</ele><time>2026-04-19T09:02:27.999Z</time></trkpt><trkpt lat="42.711730045712365" lon="12.678979763971713"><ele>619.0</ele><time>2026-04-19T09:02:35.999Z</time></trkpt><trkpt lat="42.71178226234511" lon="12.679044617154208"><ele>619.0</ele><time>2026-04-19T09:02:37.999Z</time></trkpt><trkpt lat="42.71183407959688" lon="12.679198163224813"><ele>619.0</ele><time>2026-04-19T09:02:39.999Z</time></trkpt><trkpt lat="42.71186826258216" lon="12.679291853352575"><ele>619.0</ele><time>2026-04-19T09:02:40.999Z</time></trkpt><trkpt lat="42.7119042516878" lon="12.679392151257284"><ele>619.0</ele><time>2026-04-19T09:02:41.999Z</time></trkpt><trkpt lat="42.711962898379014" lon="12.67942777516977"><ele>622.0</ele><time>2026-04-19T09:02:42.999Z</time></trkpt><trkpt lat="42.71203875878776" lon="12.67946350700415"><ele>625.0</ele><time>2026-04-19T09:02:43.999Z</time></trkpt><trkpt lat="42.71210646457455" lon="12.679570619735728"><ele>628.0</ele><time>2026-04-19T09:02:45.999Z</time></trkpt><trkpt lat="42.71212880938827" lon="12.679680509470696"><ele>631.0</ele><time>2026-04-19T09:02:46.999Z</time></trkpt><trkpt lat="42.712144373121134" lon="12.679770397079123"><ele>634.0</ele><time>2026-04-19T09:02:47.999Z</time></trkpt><trkpt lat="42.71213018516065" lon="12.6798630819233"><ele>637.0</ele><time>2026-04-19T09:02:48.999Z</time></trkpt><trkpt lat="42.71212173600591" lon="12.67995651672833"><ele>637.0</ele><time>2026-04-19T09:02:49.999Z</time></trkpt><trkpt lat="42.712198494735354" lon="12.68009888897383"><ele>637.0</ele><time>2026-04-19T09:02:51.999Z</time></trkpt><trkpt lat="42.71225244084468" lon="12.680197049471145"><ele>637.0</ele><time>2026-04-19T09:02:52.999Z</time></trkpt><trkpt lat="42.71231186375952" lon="12.68032495695865"><ele>637.0</ele><time>2026-04-19T09:02:53.999Z</time></trkpt><trkpt lat="42.71236448497477" lon="12.680464451912135"><ele>637.0</ele><time>2026-04-19T09:02:54.999Z</time></trkpt><trkpt lat="42.712417835775966" lon="12.68059937647564"><ele>640.0</ele><time>2026-04-19T09:02:55.999Z</time></trkpt><trkpt lat="42.712451006068626" lon="12.680702385354472"><ele>643.0</ele><time>2026-04-19T09:02:56.999Z</time></trkpt><trkpt lat="42.71245652911924" lon="12.680795148247135"><ele>646.0</ele><time>2026-04-19T09:02:57.999Z</time></trkpt><trkpt lat="42.712451004887306" lon="12.680917914012674"><ele>649.0</ele><time>2026-04-19T09:02:58.999Z</time></trkpt><trkpt lat="42.712457905427776" lon="12.681022517118151"><ele>652.0</ele><time>2026-04-19T09:02:59.999Z</time></trkpt><trkpt lat="42.71249034348789" lon="12.681137263659307"><ele>655.0</ele><time>2026-04-19T09:03:00.999Z</time></trkpt><trkpt lat="42.71252470057172" lon="12.681259618374028"><ele>658.0</ele><time>2026-04-19T09:03:01.999Z</time></trkpt><trkpt lat="42.71256805881195" lon="12.681372846572152"><ele>661.0</ele><time>2026-04-19T09:03:02.999Z</time></trkpt><trkpt lat="42.712607164422835" lon="12.681453633413437"><ele>664.0</ele><time>2026-04-19T09:03:03.999Z</time></trkpt><trkpt lat="42.71264575893129" lon="12.68154952289422"><ele>667.0</ele><time>2026-04-19T09:03:04.999Z</time></trkpt><trkpt lat="42.71267661734551" lon="12.68165826024974"><ele>670.0</ele><time>2026-04-19T09:03:05.999Z</time></trkpt><trkpt lat="42.71270055015432" lon="12.681768151986285"><ele>673.0</ele><time>2026-04-19T09:03:06.999Z</time></trkpt><trkpt lat="42.71273295242913" lon="12.681875324559329"><ele>675.25</ele><time>2026-04-19T09:03:07.999Z</time></trkpt><trkpt lat="42.712735799591336" lon="12.681990481039477"><ele>677.5</ele><time>2026-04-19T09:03:08.999Z</time></trkpt><trkpt lat="42.71274961136922" lon="12.682202902379284"><ele>679.75</ele><time>2026-04-19T09:03:10.999Z</time></trkpt><trkpt lat="42.71276970332586" lon="12.682359891349288"><ele>682.0</ele><time>2026-04-19T09:03:11.999Z</time></trkpt><trkpt lat="42.71278273193883" lon="12.682498558667737"><ele>682.0</ele><time>2026-04-19T09:03:12.999Z</time></trkpt><trkpt lat="42.712796447976075" lon="12.682612074601973"><ele>682.0</ele><time>2026-04-19T09:03:13.999Z</time></trkpt><trkpt lat="42.71279354766182" lon="12.682717724038843"><ele>682.0</ele><time>2026-04-19T09:03:14.999Z</time></trkpt><trkpt lat="42.712761374724934" lon="12.682837166168822"><ele>682.0</ele><time>2026-04-19T09:03:15.999Z</time></trkpt><trkpt lat="42.712743784309055" lon="12.682932650291763"><ele>682.0</ele><time>2026-04-19T09:03:16.999Z</time></trkpt><trkpt lat="42.71272010521378" lon="12.68302601042734"><ele>682.0</ele><time>2026-04-19T09:03:17.999Z</time></trkpt><trkpt lat="42.712680751335256" lon="12.683156520433242"><ele>684.4000000000001</ele><time>2026-04-19T09:03:19.999Z</time></trkpt><trkpt lat="42.71260512211957" lon="12.683229847479469"><ele>686.8000000000001</ele><time>2026-04-19T09:03:21.999Z</time></trkpt><trkpt lat="42.712514429284774" lon="12.683339113302594"><ele>689.2</ele><time>2026-04-19T09:03:24Z</time></trkpt><trkpt lat="42.712442517375344" lon="12.68345493281909"><ele>691.6</ele><time>2026-04-19T09:03:26Z</time></trkpt><trkpt lat="42.71239819043741" lon="12.683532942283803"><ele>694.0</ele><time>2026-04-19T09:03:27Z</time></trkpt><trkpt lat="42.712350735502454" lon="12.683598481170758"><ele>694.0</ele><time>2026-04-19T09:03:28Z</time></trkpt><trkpt lat="42.71227064973566" lon="12.68370010394782"><ele>694.0</ele><time>2026-04-19T09:03:30Z</time></trkpt><trkpt lat="42.71221795284151" lon="12.683776044016735"><ele>694.0</ele><time>2026-04-19T09:03:32Z</time></trkpt><trkpt lat="42.7121946804558" lon="12.683877528559321"><ele>694.0</ele><time>2026-04-19T09:03:33Z</time></trkpt><trkpt lat="42.712146123889255" lon="12.68397823413008"><ele>694.0</ele><time>2026-04-19T09:03:34Z</time></trkpt><trkpt lat="42.71210310897276" lon="12.684084496656604"><ele>694.0</ele><time>2026-04-19T09:03:35Z</time></trkpt><trkpt lat="42.712059039965716" lon="12.684204824187038"><ele>694.0</ele><time>2026-04-19T09:03:36Z</time></trkpt><trkpt lat="42.71202459563415" lon="12.684312570841954"><ele>694.0</ele><time>2026-04-19T09:03:37Z</time></trkpt><trkpt lat="42.711969290971304" lon="12.684422848885829"><ele>694.0</ele><time>2026-04-19T09:03:39Z</time></trkpt><trkpt lat="42.711871515565434" lon="12.684452187042732"><ele>694.0</ele><time>2026-04-19T09:03:42Z</time></trkpt><trkpt lat="42.71181550898436" lon="12.684516295681222"><ele>694.0</ele><time>2026-04-19T09:03:43Z</time></trkpt><trkpt lat="42.71175767796534" lon="12.684622059046436"><ele>693.5</ele><time>2026-04-19T09:03:44Z</time></trkpt><trkpt lat="42.711725433468" lon="12.684709625446049"><ele>693.0</ele><time>2026-04-19T09:03:45Z</time></trkpt><trkpt lat="42.71169963300859" lon="12.684822746393346"><ele>692.5</ele><time>2026-04-19T09:03:46Z</time></trkpt><trkpt lat="42.7116645391894" lon="12.684905784241966"><ele>692.0</ele><time>2026-04-19T09:03:47Z</time></trkpt><trkpt lat="42.71160189567392" lon="12.684946010291606"><ele>691.5</ele><time>2026-04-19T09:03:48Z</time></trkpt><trkpt lat="42.711493266800936" lon="12.684937788779258"><ele>691.0</ele><time>2026-04-19T09:03:50Z</time></trkpt><trkpt lat="42.71140205793011" lon="12.68495474644985"><ele>691.0</ele><time>2026-04-19T09:03:51.999Z</time></trkpt><trkpt lat="42.711338305272044" lon="12.684996347584347"><ele>691.0</ele><time>2026-04-19T09:03:52.999Z</time></trkpt><trkpt lat="42.71123742682725" lon="12.685054881037043"><ele>691.0</ele><time>2026-04-19T09:03:54.999Z</time></trkpt><trkpt lat="42.711172336285244" lon="12.685095332485824"><ele>691.0</ele><time>2026-04-19T09:03:55.999Z</time></trkpt><trkpt lat="42.71110320425033" lon="12.685128582816038"><ele>691.0</ele><time>2026-04-19T09:03:56.999Z</time></trkpt><trkpt lat="42.71097600738075" lon="12.685192167508905"><ele>692.1666666666667</ele><time>2026-04-19T09:03:58.999Z</time></trkpt><trkpt lat="42.71090892554512" lon="12.685247999370125"><ele>693.3333333333334</ele><time>2026-04-19T09:03:59.999Z</time></trkpt><trkpt lat="42.710850507151434" lon="12.68531177464535"><ele>694.5</ele><time>2026-04-19T09:04:00.999Z</time></trkpt><trkpt lat="42.71078017398261" lon="12.685361320333303"><ele>695.6666666666666</ele><time>2026-04-19T09:04:01.999Z</time></trkpt><trkpt lat="42.71068517105058" lon="12.685472867060426"><ele>696.8333333333333</ele><time>2026-04-19T09:04:03.999Z</time></trkpt><trkpt lat="42.71061083133397" lon="12.685526441905749"><ele>698.0</ele><time>2026-04-19T09:04:06.999Z</time></trkpt><trkpt lat="42.71054878251539" lon="12.685583983186389"><ele>698.0</ele><time>2026-04-19T09:04:07.999Z</time></trkpt><trkpt lat="42.7104803557734" lon="12.68563967842346"><ele>698.0</ele><time>2026-04-19T09:04:08.999Z</time></trkpt><trkpt lat="42.71040805931715" lon="12.685683543896992"><ele>698.0</ele><time>2026-04-19T09:04:10Z</time></trkpt><trkpt lat="42.71035635086128" lon="12.685738265232427"><ele>698.0</ele><time>2026-04-19T09:04:11Z</time></trkpt><trkpt lat="42.71030732549463" lon="12.685813030645395"><ele>698.0</ele><time>2026-04-19T09:04:12Z</time></trkpt><trkpt lat="42.71025540061544" lon="12.685882528100942"><ele>698.0</ele><time>2026-04-19T09:04:13Z</time></trkpt><trkpt lat="42.71017130619339" lon="12.685976977733082"><ele>697.8</ele><time>2026-04-19T09:04:15Z</time></trkpt><trkpt lat="42.710107785347944" lon="12.686058523263991"><ele>697.5999999999999</ele><time>2026-04-19T09:04:17Z</time></trkpt><trkpt lat="42.710020262569394" lon="12.686144165258652"><ele>697.4000000000001</ele><time>2026-04-19T09:04:19Z</time></trkpt><trkpt lat="42.70996171938361" lon="12.686189830623698"><ele>697.2</ele><time>2026-04-19T09:04:20Z</time></trkpt><trkpt lat="42.70990980822583" lon="12.686247254676413"><ele>697.0</ele><time>2026-04-19T09:04:21Z</time></trkpt><trkpt lat="42.70981250325287" lon="12.686345701879699"><ele>697.0</ele><time>2026-04-19T09:04:23Z</time></trkpt><trkpt lat="42.70976274944497" lon="12.68640968592223"><ele>697.0</ele><time>2026-04-19T09:04:24Z</time></trkpt><trkpt lat="42.70966542896419" lon="12.686494299364954"><ele>697.0</ele><time>2026-04-19T09:04:26Z</time></trkpt><trkpt lat="42.70956169536987" lon="12.686614386275044"><ele>697.0</ele><time>2026-04-19T09:04:28Z</time></trkpt><trkpt lat="42.709508233795226" lon="12.686679003238165"><ele>697.0</ele><time>2026-04-19T09:04:29Z</time></trkpt><trkpt lat="42.70945345342399" lon="12.686739449194588"><ele>696.0</ele><time>2026-04-19T09:04:30Z</time></trkpt><trkpt lat="42.70938619115013" lon="12.686817509903285"><ele>695.0</ele><time>2026-04-19T09:04:32Z</time></trkpt><trkpt lat="42.70935663156329" lon="12.686723748420567"><ele>694.0</ele><time>2026-04-19T09:04:34Z</time></trkpt><trkpt lat="42.70931213839184" lon="12.686633341350966"><ele>693.0</ele><time>2026-04-19T09:04:35Z</time></trkpt><trkpt lat="42.70923218592263" lon="12.686504157687148"><ele>692.0</ele><time>2026-04-19T09:04:36Z</time></trkpt><trkpt lat="42.709158367122264" lon="12.686403173566823"><ele>692.0</ele><time>2026-04-19T09:04:37Z</time></trkpt><trkpt lat="42.7091028418031" lon="12.686326639340644"><ele>692.0</ele><time>2026-04-19T09:04:38Z</time></trkpt><trkpt lat="42.709038934513124" lon="12.686213417621262"><ele>692.0</ele><time>2026-04-19T09:04:39Z</time></trkpt><trkpt lat="42.708965577940155" lon="12.686100613503728"><ele>692.0</ele><time>2026-04-19T09:04:40Z</time></trkpt><trkpt lat="42.70891823412062" lon="12.686024503216489"><ele>692.0</ele><time>2026-04-19T09:04:41Z</time></trkpt><trkpt lat="42.70885007157775" lon="12.685903873177196"><ele>694.6</ele><time>2026-04-19T09:04:42Z</time></trkpt><trkpt lat="42.708783403670395" lon="12.685804441176671"><ele>697.2</ele><time>2026-04-19T09:04:43Z</time></trkpt><trkpt lat="42.70870326631839" lon="12.685680439764885"><ele>699.8</ele><time>2026-04-19T09:04:44Z</time></trkpt><trkpt lat="42.70863873934211" lon="12.685564106208508"><ele>702.4</ele><time>2026-04-19T09:04:45Z</time></trkpt><trkpt lat="42.70856807631878" lon="12.685442311124499"><ele>705.0</ele><time>2026-04-19T09:04:46Z</time></trkpt><trkpt lat="42.708501545288684" lon="12.685336974692406"><ele>702.8</ele><time>2026-04-19T09:04:47Z</time></trkpt><trkpt lat="42.70844082566226" lon="12.685239805957716"><ele>700.6</ele><time>2026-04-19T09:04:48Z</time></trkpt><trkpt lat="42.70837464264932" lon="12.685112744545561"><ele>698.4000000000001</ele><time>2026-04-19T09:04:49Z</time></trkpt><trkpt lat="42.708304121493676" lon="12.68501800272181"><ele>696.2</ele><time>2026-04-19T09:04:50Z</time></trkpt><trkpt lat="42.70822962947549" lon="12.68491202155201"><ele>694.0</ele><time>2026-04-19T09:04:52Z</time></trkpt><trkpt lat="42.70817092490148" lon="12.68486205959848"><ele>694.0</ele><time>2026-04-19T09:04:53Z</time></trkpt><trkpt lat="42.70811077200186" lon="12.684824397633164"><ele>694.0</ele><time>2026-04-19T09:04:54Z</time></trkpt><trkpt lat="42.708049873490936" lon="12.684744441218355"><ele>694.0</ele><time>2026-04-19T09:04:55Z</time></trkpt><trkpt lat="42.707972255658056" lon="12.6846197818407"><ele>694.0</ele><time>2026-04-19T09:04:56Z</time></trkpt><trkpt lat="42.707886866410895" lon="12.684495752465608"><ele>694.0</ele><time>2026-04-19T09:04:57Z</time></trkpt><trkpt lat="42.7078101482434" lon="12.68439969672542"><ele>696.8000000000001</ele><time>2026-04-19T09:04:58Z</time></trkpt><trkpt lat="42.70774035949625" lon="12.684311895106"><ele>699.6</ele><time>2026-04-19T09:04:59Z</time></trkpt><trkpt lat="42.707634702994035" lon="12.684218274474796"><ele>702.4</ele><time>2026-04-19T09:05:01Z</time></trkpt><trkpt lat="42.7076000838679" lon="12.684146604098846"><ele>705.2</ele><time>2026-04-19T09:05:02Z</time></trkpt><trkpt lat="42.707554172766095" lon="12.684045857013459"><ele>708.0</ele><time>2026-04-19T09:05:03Z</time></trkpt><trkpt lat="42.707489381104764" lon="12.683901849513765"><ele>708.0</ele><time>2026-04-19T09:05:04Z</time></trkpt><trkpt lat="42.70741231928475" lon="12.683787541432013"><ele>708.0</ele><time>2026-04-19T09:05:05Z</time></trkpt><trkpt lat="42.70734393323079" lon="12.68368951656033"><ele>708.0</ele><time>2026-04-19T09:05:06Z</time></trkpt><trkpt lat="42.70729259140803" lon="12.683631079975088"><ele>708.0</ele><time>2026-04-19T09:05:07Z</time></trkpt><trkpt lat="42.707222433450546" lon="12.683543355784707"><ele>708.0</ele><time>2026-04-19T09:05:08Z</time></trkpt><trkpt lat="42.70714852634032" lon="12.683500549925794"><ele>709.1666666666666</ele><time>2026-04-19T09:05:09Z</time></trkpt><trkpt lat="42.70705740783122" lon="12.68345018694294"><ele>710.3333333333334</ele><time>2026-04-19T09:05:10Z</time></trkpt><trkpt lat="42.70699086173827" lon="12.683470155850415"><ele>711.5</ele><time>2026-04-19T09:05:12Z</time></trkpt><trkpt lat="42.7068920053462" lon="12.683502117644505"><ele>712.6666666666667</ele><time>2026-04-19T09:05:14Z</time></trkpt><trkpt lat="42.706820123640846" lon="12.683477504638153"><ele>713.8333333333334</ele><time>2026-04-19T09:05:15Z</time></trkpt><trkpt lat="42.7067396870343" lon="12.683434897535246"><ele>715.0</ele><time>2026-04-19T09:05:17Z</time></trkpt><trkpt lat="42.70666023473239" lon="12.683528040763049"><ele>715.0</ele><time>2026-04-19T09:05:19Z</time></trkpt><trkpt lat="42.706584985951984" lon="12.683561844739696"><ele>715.0</ele><time>2026-04-19T09:05:21Z</time></trkpt><trkpt lat="42.706670372694845" lon="12.683499799138637"><ele>715.0</ele><time>2026-04-19T09:05:32Z</time></trkpt><trkpt lat="42.70673320152305" lon="12.683462950390805"><ele>715.0</ele><time>2026-04-19T09:05:33Z</time></trkpt><trkpt lat="42.70681409145084" lon="12.683420236468729"><ele>715.0</ele><time>2026-04-19T09:05:35Z</time></trkpt><trkpt lat="42.70688060109123" lon="12.683476998524798"><ele>715.0</ele><time>2026-04-19T09:05:37Z</time></trkpt><trkpt lat="42.70695713879994" lon="12.683482234916461"><ele>715.0</ele><time>2026-04-19T09:05:39Z</time></trkpt><trkpt lat="42.70701306380459" lon="12.683438864834974"><ele>715.0</ele><time>2026-04-19T09:05:41Z</time></trkpt><trkpt lat="42.70696357692365" lon="12.683313924487292"><ele>715.0</ele><time>2026-04-19T09:05:44Z</time></trkpt><trkpt lat="42.70689078311871" lon="12.683238573665701"><ele>715.0</ele><time>2026-04-19T09:05:45Z</time></trkpt><trkpt lat="42.70679929475897" lon="12.683156940627912"><ele>715.0</ele><time>2026-04-19T09:05:46Z</time></trkpt><trkpt lat="42.70674008760741" lon="12.683100549856135"><ele>715.0</ele><time>2026-04-19T09:05:47Z</time></trkpt><trkpt lat="42.70667455326193" lon="12.68312247300253"><ele>715.0</ele><time>2026-04-19T09:05:49Z</time></trkpt><trkpt lat="42.70655708651336" lon="12.683265962279796"><ele>715.0</ele><time>2026-04-19T09:05:51Z</time></trkpt><trkpt lat="42.70647954918758" lon="12.683310936935234"><ele>715.0</ele><time>2026-04-19T09:05:53Z</time></trkpt><trkpt lat="42.70639888526077" lon="12.683228504638128"><ele>715.0</ele><time>2026-04-19T09:05:57Z</time></trkpt><trkpt lat="42.70634646716548" lon="12.683071202873338"><ele>715.0</ele><time>2026-04-19T09:05:58Z</time></trkpt><trkpt lat="42.70628875400335" lon="12.682912390537345"><ele>715.0</ele><time>2026-04-19T09:05:59Z</time></trkpt><trkpt lat="42.7062210809081" lon="12.682777201169989"><ele>715.0</ele><time>2026-04-19T09:06:00Z</time></trkpt><trkpt lat="42.706151738410185" lon="12.682672029408115"><ele>715.0</ele><time>2026-04-19T09:06:01Z</time></trkpt><trkpt lat="42.706088381711446" lon="12.682586471574888"><ele>715.0</ele><time>2026-04-19T09:06:02Z</time></trkpt><trkpt lat="42.70603134962109" lon="12.682478579181838"><ele>713.8</ele><time>2026-04-19T09:06:03Z</time></trkpt><trkpt lat="42.70595812420956" lon="12.682380182255962"><ele>712.6</ele><time>2026-04-19T09:06:04Z</time></trkpt><trkpt lat="42.705879967639135" lon="12.682270850484636"><ele>711.4000000000001</ele><time>2026-04-19T09:06:05Z</time></trkpt><trkpt lat="42.70580700867012" lon="12.68216109222651"><ele>710.2</ele><time>2026-04-19T09:06:06Z</time></trkpt><trkpt lat="42.705737871443105" lon="12.682068994500998"><ele>709.0</ele><time>2026-04-19T09:06:07Z</time></trkpt><trkpt lat="42.705673452650714" lon="12.681992036414723"><ele>708.6</ele><time>2026-04-19T09:06:08Z</time></trkpt><trkpt lat="42.705602278724896" lon="12.68192240761446"><ele>708.2</ele><time>2026-04-19T09:06:09Z</time></trkpt><trkpt lat="42.70553792080652" lon="12.68184505967917"><ele>707.8000000000001</ele><time>2026-04-19T09:06:10Z</time></trkpt><trkpt lat="42.70547654955355" lon="12.681749399182108"><ele>707.4000000000001</ele><time>2026-04-19T09:06:11Z</time></trkpt><trkpt lat="42.70539775997557" lon="12.681604381701305"><ele>707.0</ele><time>2026-04-19T09:06:12Z</time></trkpt><trkpt lat="42.70531987699381" lon="12.681457573228709"><ele>705.0</ele><time>2026-04-19T09:06:13Z</time></trkpt><trkpt lat="42.70524331003711" lon="12.681332125878658"><ele>703.0</ele><time>2026-04-19T09:06:14Z</time></trkpt><trkpt lat="42.70517665324165" lon="12.681240290435962"><ele>701.0</ele><time>2026-04-19T09:06:15Z</time></trkpt><trkpt lat="42.705103837284945" lon="12.681150674018069"><ele>699.0</ele><time>2026-04-19T09:06:16Z</time></trkpt><trkpt lat="42.7050294873772" lon="12.681073414260677"><ele>697.0</ele><time>2026-04-19T09:06:17Z</time></trkpt><trkpt lat="42.704927526293815" lon="12.681014041948483"><ele>696.8</ele><time>2026-04-19T09:06:18Z</time></trkpt><trkpt lat="42.704823473482776" lon="12.680956422167403"><ele>696.6</ele><time>2026-04-19T09:06:19Z</time></trkpt><trkpt lat="42.7047278616957" lon="12.680936833064086"><ele>696.4</ele><time>2026-04-19T09:06:20Z</time></trkpt><trkpt lat="42.704639305996324" lon="12.68089699271118"><ele>696.1999999999999</ele><time>2026-04-19T09:06:21Z</time></trkpt><trkpt lat="42.70454514984791" lon="12.680850167473972"><ele>696.0</ele><time>2026-04-19T09:06:22Z</time></trkpt><trkpt lat="42.70446006527101" lon="12.680806267683469"><ele>698.1999999999999</ele><time>2026-04-19T09:06:23Z</time></trkpt><trkpt lat="42.70437016910193" lon="12.680777687990037"><ele>700.4</ele><time>2026-04-19T09:06:24Z</time></trkpt><trkpt lat="42.70427393317749" lon="12.68077177065555"><ele>702.6</ele><time>2026-04-19T09:06:25Z</time></trkpt><trkpt lat="42.704188308252554" lon="12.680777358792275"><ele>704.8</ele><time>2026-04-19T09:06:26Z</time></trkpt><trkpt lat="42.704074947994755" lon="12.680780511488758"><ele>707.0</ele><time>2026-04-19T09:06:27Z</time></trkpt><trkpt lat="42.70394329355909" lon="12.680764510433537"><ele>707.0</ele><time>2026-04-19T09:06:28Z</time></trkpt><trkpt lat="42.70380933761503" lon="12.680734545518245"><ele>707.0</ele><time>2026-04-19T09:06:29Z</time></trkpt><trkpt lat="42.70367893967219" lon="12.680705587673646"><ele>707.0</ele><time>2026-04-19T09:06:30Z</time></trkpt><trkpt lat="42.70356496309958" lon="12.680653759840135"><ele>707.0</ele><time>2026-04-19T09:06:31Z</time></trkpt><trkpt lat="42.70346248633726" lon="12.6806288090798"><ele>708.4000000000001</ele><time>2026-04-19T09:06:32Z</time></trkpt><trkpt lat="42.70337583345028" lon="12.680589926400513"><ele>709.8000000000001</ele><time>2026-04-19T09:06:33Z</time></trkpt><trkpt lat="42.70328682807602" lon="12.680541637485662"><ele>711.2</ele><time>2026-04-19T09:06:34Z</time></trkpt><trkpt lat="42.7031923616119" lon="12.680508269973677"><ele>712.6</ele><time>2026-04-19T09:06:35Z</time></trkpt><trkpt lat="42.703101793903706" lon="12.680458081509471"><ele>714.0</ele><time>2026-04-19T09:06:36Z</time></trkpt><trkpt lat="42.703017804319515" lon="12.68043818776393"><ele>714.0</ele><time>2026-04-19T09:06:37Z</time></trkpt><trkpt lat="42.70292239409802" lon="12.68042406065627"><ele>714.0</ele><time>2026-04-19T09:06:38Z</time></trkpt><trkpt lat="42.70280745308328" lon="12.68043869858038"><ele>714.0</ele><time>2026-04-19T09:06:39Z</time></trkpt><trkpt lat="42.70268745979092" lon="12.680450488940316"><ele>714.0</ele><time>2026-04-19T09:06:40Z</time></trkpt><trkpt lat="42.70259077900488" lon="12.680470501584713"><ele>714.0</ele><time>2026-04-19T09:06:41Z</time></trkpt><trkpt lat="42.70250801923906" lon="12.680475716432781"><ele>715.3333333333334</ele><time>2026-04-19T09:06:42Z</time></trkpt><trkpt lat="42.70243205669237" lon="12.68047986069391"><ele>716.6666666666666</ele><time>2026-04-19T09:06:43Z</time></trkpt><trkpt lat="42.70235750659768" lon="12.680472291242912"><ele>718.0</ele><time>2026-04-19T09:06:44Z</time></trkpt><trkpt lat="42.70227922659944" lon="12.680459227060684"><ele>719.3333333333333</ele><time>2026-04-19T09:06:45Z</time></trkpt><trkpt lat="42.70219488084419" lon="12.680442899245874"><ele>720.6666666666666</ele><time>2026-04-19T09:06:46Z</time></trkpt><trkpt lat="42.702098252006365" lon="12.680424192946031"><ele>722.0</ele><time>2026-04-19T09:06:47Z</time></trkpt><trkpt lat="42.701988336050036" lon="12.68041906858865"><ele>722.4000000000001</ele><time>2026-04-19T09:06:48Z</time></trkpt><trkpt lat="42.7018783524699" lon="12.680418307420332"><ele>722.8000000000001</ele><time>2026-04-19T09:06:49Z</time></trkpt><trkpt lat="42.70178733011556" lon="12.680413150600565"><ele>723.2</ele><time>2026-04-19T09:06:50Z</time></trkpt><trkpt lat="42.70171347229508" lon="12.680414934746425"><ele>723.6</ele><time>2026-04-19T09:06:51Z</time></trkpt><trkpt lat="42.7016224664216" lon="12.680409449433785"><ele>724.0</ele><time>2026-04-19T09:06:53Z</time></trkpt><trkpt lat="42.70149659354282" lon="12.680415572602609"><ele>724.0</ele><time>2026-04-19T09:06:55Z</time></trkpt><trkpt lat="42.70140311272304" lon="12.68042035963356"><ele>724.0</ele><time>2026-04-19T09:06:56Z</time></trkpt><trkpt lat="42.70132785165965" lon="12.68042421364813"><ele>724.0</ele><time>2026-04-19T09:06:57Z</time></trkpt><trkpt lat="42.70124167036201" lon="12.68042862688098"><ele>724.0</ele><time>2026-04-19T09:06:58Z</time></trkpt><trkpt lat="42.70115956360322" lon="12.680433743861187"><ele>724.0</ele><time>2026-04-19T09:06:59Z</time></trkpt><trkpt lat="42.70107650081686" lon="12.680439773215209"><ele>724.0</ele><time>2026-04-19T09:07:00Z</time></trkpt><trkpt lat="42.70100149323364" lon="12.68044521786287"><ele>723.2</ele><time>2026-04-19T09:07:01Z</time></trkpt><trkpt lat="42.70092686386866" lon="12.68045063509366"><ele>722.4000000000001</ele><time>2026-04-19T09:07:02Z</time></trkpt><trkpt lat="42.70083770242782" lon="12.680445963003105"><ele>721.6</ele><time>2026-04-19T09:07:03Z</time></trkpt><trkpt lat="42.70075124955114" lon="12.680450293060792"><ele>720.8</ele><time>2026-04-19T09:07:04Z</time></trkpt><trkpt lat="42.700570823203165" lon="12.680422835114555"><ele>720.0</ele><time>2026-04-19T09:07:05Z</time></trkpt><trkpt lat="42.70039477383742" lon="12.680457313684236"><ele>720.0</ele><time>2026-04-19T09:07:06Z</time></trkpt><trkpt lat="42.70029608122656" lon="12.680485527815321"><ele>720.0</ele><time>2026-04-19T09:07:07Z</time></trkpt><trkpt lat="42.70021497873368" lon="12.6805087134888"><ele>720.0</ele><time>2026-04-19T09:07:08Z</time></trkpt><trkpt lat="42.70004710286315" lon="12.68064283911824"><ele>720.0</ele><time>2026-04-19T09:07:10Z</time></trkpt><trkpt lat="42.69992190890711" lon="12.680729220328452"><ele>718.5</ele><time>2026-04-19T09:07:11Z</time></trkpt><trkpt lat="42.699834570644846" lon="12.680811946830435"><ele>717.0</ele><time>2026-04-19T09:07:12Z</time></trkpt><trkpt lat="42.700071519512726" lon="12.681757319746845"><ele>720.8</ele><time>2026-04-19T09:07:13Z</time></trkpt><trkpt lat="42.70003165753449" lon="12.681859696450715"><ele>724.6</ele><time>2026-04-19T09:07:14Z</time></trkpt><trkpt lat="42.6999929089473" lon="12.681988616229425"><ele>728.4</ele><time>2026-04-19T09:07:15Z</time></trkpt><trkpt lat="42.69995617342297" lon="12.682090449319237"><ele>732.1999999999999</ele><time>2026-04-19T09:07:16Z</time></trkpt><trkpt lat="42.699950772095036" lon="12.682215731762579"><ele>736.0</ele><time>2026-04-19T09:07:17.001Z</time></trkpt><trkpt lat="42.699918958384295" lon="12.682368223950503"><ele>737.4</ele><time>2026-04-19T09:07:19.001Z</time></trkpt><trkpt lat="42.69991057683302" lon="12.682458777940399"><ele>738.8</ele><time>2026-04-19T09:07:20.001Z</time></trkpt><trkpt lat="42.69988051941042" lon="12.682614537891949"><ele>740.1999999999999</ele><time>2026-04-19T09:07:21.001Z</time></trkpt><trkpt lat="42.69986339040494" lon="12.682728042188865"><ele>741.5999999999999</ele><time>2026-04-19T09:07:22.001Z</time></trkpt><trkpt lat="42.69980141612557" lon="12.682867694113964"><ele>743.0</ele><time>2026-04-19T09:07:24.001Z</time></trkpt><trkpt lat="42.69978199816608" lon="12.682979025108922"><ele>743.0</ele><time>2026-04-19T09:07:25.001Z</time></trkpt><trkpt lat="42.69974824426734" lon="12.683089214419033"><ele>743.0</ele><time>2026-04-19T09:07:26.001Z</time></trkpt><trkpt lat="42.69965876694141" lon="12.683170827552331"><ele>743.0</ele><time>2026-04-19T09:07:28.001Z</time></trkpt><trkpt lat="42.69957641909922" lon="12.683192627596252"><ele>743.0</ele><time>2026-04-19T09:07:29.001Z</time></trkpt><trkpt lat="42.699492287295556" lon="12.683238833314348"><ele>743.0</ele><time>2026-04-19T09:07:30.001Z</time></trkpt><trkpt lat="42.69942081053808" lon="12.683267207750466"><ele>743.0</ele><time>2026-04-19T09:07:31.001Z</time></trkpt><trkpt lat="42.69935729631834" lon="12.68330456483167"><ele>744.8</ele><time>2026-04-19T09:07:32.001Z</time></trkpt><trkpt lat="42.69928733817197" lon="12.68333494594759"><ele>746.5999999999999</ele><time>2026-04-19T09:07:33.001Z</time></trkpt><trkpt lat="42.6992000281753" lon="12.683383398434893"><ele>748.4000000000001</ele><time>2026-04-19T09:07:34.001Z</time></trkpt><trkpt lat="42.69910615561075" lon="12.68341104791339"><ele>750.2</ele><time>2026-04-19T09:07:35.001Z</time></trkpt><trkpt lat="42.69900862994717" lon="12.683445086428705"><ele>752.0</ele><time>2026-04-19T09:07:36.001Z</time></trkpt><trkpt lat="42.69892351547717" lon="12.683494064201353"><ele>752.0</ele><time>2026-04-19T09:07:37.001Z</time></trkpt><trkpt lat="42.69882032140779" lon="12.68353996659032"><ele>752.0</ele><time>2026-04-19T09:07:38.001Z</time></trkpt><trkpt lat="42.69875539910625" lon="12.68357699269367"><ele>752.0</ele><time>2026-04-19T09:07:39.001Z</time></trkpt><trkpt lat="42.698693169305194" lon="12.683636458092021"><ele>752.0</ele><time>2026-04-19T09:07:40.001Z</time></trkpt><trkpt lat="42.698627220746836" lon="12.68370053369801"><ele>752.0</ele><time>2026-04-19T09:07:41.001Z</time></trkpt><trkpt lat="42.698545684534004" lon="12.683800627205333"><ele>752.0</ele><time>2026-04-19T09:07:42.001Z</time></trkpt><trkpt lat="42.69846648721656" lon="12.683896740025418"><ele>750.8</ele><time>2026-04-19T09:07:43.001Z</time></trkpt><trkpt lat="42.69841203239719" lon="12.683970880492716"><ele>749.6</ele><time>2026-04-19T09:07:44.001Z</time></trkpt><trkpt lat="42.69834522096754" lon="12.684063767114854"><ele>748.4</ele><time>2026-04-19T09:07:45.001Z</time></trkpt><trkpt lat="42.69825806962789" lon="12.684161686021728"><ele>747.1999999999999</ele><time>2026-04-19T09:07:46.001Z</time></trkpt><trkpt lat="42.69818176107083" lon="12.684267337331933"><ele>746.0</ele><time>2026-04-19T09:07:47.001Z</time></trkpt><trkpt lat="42.69809829620886" lon="12.684402603189568"><ele>745.0</ele><time>2026-04-19T09:07:48.001Z</time></trkpt><trkpt lat="42.698027873770485" lon="12.68452820653706"><ele>744.0</ele><time>2026-04-19T09:07:49.001Z</time></trkpt><trkpt lat="42.69796182542005" lon="12.684623737935315"><ele>743.0</ele><time>2026-04-19T09:07:50.001Z</time></trkpt><trkpt lat="42.6979081753867" lon="12.684725220993998"><ele>742.0</ele><time>2026-04-19T09:07:51.001Z</time></trkpt><trkpt lat="42.6978646937145" lon="12.684816891987733"><ele>741.0</ele><time>2026-04-19T09:07:52.001Z</time></trkpt><trkpt lat="42.69781870118372" lon="12.68488774338422"><ele>743.0</ele><time>2026-04-19T09:07:53.001Z</time></trkpt><trkpt lat="42.697726413031056" lon="12.684975491236102"><ele>745.0</ele><time>2026-04-19T09:07:55.001Z</time></trkpt><trkpt lat="42.69766569900091" lon="12.685027504973569"><ele>747.0</ele><time>2026-04-19T09:07:56.001Z</time></trkpt><trkpt lat="42.69758450823612" lon="12.685096389723254"><ele>749.0</ele><time>2026-04-19T09:07:57.001Z</time></trkpt><trkpt lat="42.69749831456211" lon="12.68519512960316"><ele>751.0</ele><time>2026-04-19T09:07:58.001Z</time></trkpt><trkpt lat="42.697432322511574" lon="12.685279178642821"><ele>752.1666666666667</ele><time>2026-04-19T09:07:59.001Z</time></trkpt><trkpt lat="42.697373273674096" lon="12.685350675244951"><ele>753.3333333333334</ele><time>2026-04-19T09:08:00.001Z</time></trkpt><trkpt lat="42.69731273422211" lon="12.685409136083228"><ele>754.5</ele><time>2026-04-19T09:08:01.001Z</time></trkpt><trkpt lat="42.69724190346224" lon="12.685474333312383"><ele>755.6666666666666</ele><time>2026-04-19T09:08:02.001Z</time></trkpt><trkpt lat="42.6971892394273" lon="12.685560929141433"><ele>756.8333333333333</ele><time>2026-04-19T09:08:03.001Z</time></trkpt><trkpt lat="42.69712043851955" lon="12.68570190584007"><ele>758.0</ele><time>2026-04-19T09:08:04Z</time></trkpt><trkpt lat="42.697064152456264" lon="12.685775915227008"><ele>758.0</ele><time>2026-04-19T09:08:05Z</time></trkpt><trkpt lat="42.69699297203425" lon="12.68581969143123"><ele>758.0</ele><time>2026-04-19T09:08:06Z</time></trkpt><trkpt lat="42.696925050789474" lon="12.685832918187632"><ele>758.0</ele><time>2026-04-19T09:08:07Z</time></trkpt><trkpt lat="42.69680123256869" lon="12.68582401118051"><ele>758.0</ele><time>2026-04-19T09:08:09Z</time></trkpt><trkpt lat="42.69671636140078" lon="12.685806536228451"><ele>758.0</ele><time>2026-04-19T09:08:11Z</time></trkpt><trkpt lat="42.696607988609514" lon="12.685891506179896"><ele>759.1666666666666</ele><time>2026-04-19T09:08:13Z</time></trkpt><trkpt lat="42.696500206491386" lon="12.685940998807547"><ele>760.3333333333333</ele><time>2026-04-19T09:08:15Z</time></trkpt><trkpt lat="42.696429573013994" lon="12.685986530766295"><ele>761.5</ele><time>2026-04-19T09:08:17Z</time></trkpt><trkpt lat="42.69635429806829" lon="12.685944070378143"><ele>762.6666666666666</ele><time>2026-04-19T09:08:19Z</time></trkpt><trkpt lat="42.69627905068281" lon="12.685923446322871"><ele>763.8333333333334</ele><time>2026-04-19T09:08:21Z</time></trkpt><trkpt lat="42.69620394443517" lon="12.68594012282049"><ele>765.0</ele><time>2026-04-19T09:08:23Z</time></trkpt><trkpt lat="42.696139897106725" lon="12.68607886028711"><ele>765.2857142857143</ele><time>2026-04-19T09:08:25Z</time></trkpt><trkpt lat="42.69605666559122" lon="12.686084324231423"><ele>765.5714285714286</ele><time>2026-04-19T09:08:27Z</time></trkpt><trkpt lat="42.69598584987096" lon="12.68610565783856"><ele>765.8571428571429</ele><time>2026-04-19T09:08:29Z</time></trkpt><trkpt lat="42.695915737834966" lon="12.686144984383834"><ele>766.1428571428571</ele><time>2026-04-19T09:08:31Z</time></trkpt><trkpt lat="42.69585525545796" lon="12.686184065892128"><ele>766.4285714285714</ele><time>2026-04-19T09:08:33Z</time></trkpt><trkpt lat="42.695795357796165" lon="12.686222226647757"><ele>766.7142857142858</ele><time>2026-04-19T09:08:35Z</time></trkpt><trkpt lat="42.69574017155484" lon="12.68627037481966"><ele>767.0</ele><time>2026-04-19T09:08:38Z</time></trkpt><trkpt lat="42.69565831781201" lon="12.68625293923507"><ele>767.0</ele><time>2026-04-19T09:08:42Z</time></trkpt><trkpt lat="42.69563297136431" lon="12.68613303245436"><ele>767.0</ele><time>2026-04-19T09:08:44Z</time></trkpt><trkpt lat="42.695643427501864" lon="12.686007521589"><ele>767.0</ele><time>2026-04-19T09:08:46Z</time></trkpt><trkpt lat="42.6956802192011" lon="12.68589389964245"><ele>767.0</ele><time>2026-04-19T09:08:48Z</time></trkpt><trkpt lat="42.69558669564423" lon="12.685750073069357"><ele>767.0</ele><time>2026-04-19T09:08:50Z</time></trkpt><trkpt lat="42.695549726565034" lon="12.685549951518698"><ele>767.0</ele><time>2026-04-19T09:08:52Z</time></trkpt><trkpt lat="42.69553597039498" lon="12.685452905143734"><ele>767.0</ele><time>2026-04-19T09:08:53Z</time></trkpt><trkpt lat="42.69547765073941" lon="12.685371172227436"><ele>767.0</ele><time>2026-04-19T09:08:54Z</time></trkpt><trkpt lat="42.69542754529044" lon="12.685278168993229"><ele>767.0</ele><time>2026-04-19T09:08:55Z</time></trkpt><trkpt lat="42.69539518926255" lon="12.685189690556772"><ele>767.0</ele><time>2026-04-19T09:08:56Z</time></trkpt><trkpt lat="42.6953239581031" lon="12.685089656986035"><ele>767.0</ele><time>2026-04-19T09:08:58Z</time></trkpt><trkpt lat="42.69530113648434" lon="12.684888904057388"><ele>764.4000000000001</ele><time>2026-04-19T09:09:00Z</time></trkpt><trkpt lat="42.69526781302563" lon="12.684706798576267"><ele>761.8000000000001</ele><time>2026-04-19T09:09:02Z</time></trkpt><trkpt lat="42.6952418856753" lon="12.684563078743334"><ele>759.2</ele><time>2026-04-19T09:09:04Z</time></trkpt><trkpt lat="42.695221580172735" lon="12.684468041046882"><ele>756.6</ele><time>2026-04-19T09:09:05Z</time></trkpt><trkpt lat="42.69521276639141" lon="12.684338445053239"><ele>754.0</ele><time>2026-04-19T09:09:06Z</time></trkpt><trkpt lat="42.69519025193721" lon="12.68421097507407"><ele>753.4000000000001</ele><time>2026-04-19T09:09:07Z</time></trkpt><trkpt lat="42.6951651741487" lon="12.684107183278309"><ele>752.8</ele><time>2026-04-19T09:09:08Z</time></trkpt><trkpt lat="42.6951334060663" lon="12.683996002213602"><ele>752.2</ele><time>2026-04-19T09:09:09Z</time></trkpt><trkpt lat="42.695106918727895" lon="12.683886260065147"><ele>751.5999999999999</ele><time>2026-04-19T09:09:10Z</time></trkpt><trkpt lat="42.69498848554814" lon="12.6838186136632"><ele>751.0</ele><time>2026-04-19T09:09:14Z</time></trkpt><trkpt lat="42.694841852247166" lon="12.683725832257075"><ele>751.0</ele><time>2026-04-19T09:09:16Z</time></trkpt><trkpt lat="42.6947461659123" lon="12.683669256772662"><ele>751.0</ele><time>2026-04-19T09:09:17Z</time></trkpt><trkpt lat="42.694679615769545" lon="12.68360764690896"><ele>751.0</ele><time>2026-04-19T09:09:18Z</time></trkpt><trkpt lat="42.694637961754346" lon="12.683535436905254"><ele>751.0</ele><time>2026-04-19T09:09:19.001Z</time></trkpt><trkpt lat="42.69459626437545" lon="12.683467767169676"><ele>751.0</ele><time>2026-04-19T09:09:20.001Z</time></trkpt><trkpt lat="42.694483658197015" lon="12.683431232779508"><ele>751.0</ele><time>2026-04-19T09:09:22.001Z</time></trkpt><trkpt lat="42.69443592677801" lon="12.683373140207436"><ele>752.3333333333334</ele><time>2026-04-19T09:09:23.001Z</time></trkpt><trkpt lat="42.69437699596335" lon="12.68333135046154"><ele>753.6666666666667</ele><time>2026-04-19T09:09:24.001Z</time></trkpt><trkpt lat="42.69425220621225" lon="12.683273829457216"><ele>755.0</ele><time>2026-04-19T09:09:26.001Z</time></trkpt><trkpt lat="42.69419776973076" lon="12.683226294265381"><ele>756.3333333333334</ele><time>2026-04-19T09:09:27.001Z</time></trkpt><trkpt lat="42.6940951772003" lon="12.683211151440238"><ele>757.6666666666666</ele><time>2026-04-19T09:09:29.001Z</time></trkpt><trkpt lat="42.69403958843983" lon="12.683146400610623"><ele>759.0</ele><time>2026-04-19T09:09:30.001Z</time></trkpt><trkpt lat="42.6939769632192" lon="12.683084195167874"><ele>759.0</ele><time>2026-04-19T09:09:31.001Z</time></trkpt><trkpt lat="42.69391748234804" lon="12.683030635485348"><ele>759.0</ele><time>2026-04-19T09:09:32.001Z</time></trkpt><trkpt lat="42.693917989094246" lon="12.682899037118885"><ele>759.0</ele><time>2026-04-19T09:09:47.001Z</time></trkpt><trkpt lat="42.693869137685105" lon="12.682757030299543"><ele>759.0</ele><time>2026-04-19T09:09:49.001Z</time></trkpt><trkpt lat="42.693829999237565" lon="12.682630206330211"><ele>759.0</ele><time>2026-04-19T09:09:50.001Z</time></trkpt><trkpt lat="42.69378134130089" lon="12.682530461982653"><ele>759.1666666666666</ele><time>2026-04-19T09:09:51.001Z</time></trkpt><trkpt lat="42.69373371529826" lon="12.6824465670751"><ele>759.3333333333334</ele><time>2026-04-19T09:09:52.001Z</time></trkpt><trkpt lat="42.69367676667503" lon="12.682364206369833"><ele>759.5</ele><time>2026-04-19T09:09:53.001Z</time></trkpt><trkpt lat="42.693634221904176" lon="12.682295894912903"><ele>759.6666666666667</ele><time>2026-04-19T09:09:54.001Z</time></trkpt><trkpt lat="42.69361267778543" lon="12.682176260438466"><ele>759.8333333333334</ele><time>2026-04-19T09:09:55.001Z</time></trkpt><trkpt lat="42.69357770712563" lon="12.682054112027325"><ele>760.0</ele><time>2026-04-19T09:09:56.001Z</time></trkpt><trkpt lat="42.69348592615691" lon="12.681969581510831"><ele>763.6</ele><time>2026-04-19T09:09:58.001Z</time></trkpt><trkpt lat="42.6934266786035" lon="12.681878163631772"><ele>767.2</ele><time>2026-04-19T09:09:59.001Z</time></trkpt><trkpt lat="42.69336948594405" lon="12.68181042486171"><ele>770.8</ele><time>2026-04-19T09:10:00.001Z</time></trkpt><trkpt lat="42.693297451407425" lon="12.681744802429392"><ele>774.4</ele><time>2026-04-19T09:10:01.001Z</time></trkpt><trkpt lat="42.69317287569959" lon="12.681636523127402"><ele>778.0</ele><time>2026-04-19T09:10:03.001Z</time></trkpt><trkpt lat="42.693082244674535" lon="12.681567230299427"><ele>778.0</ele><time>2026-04-19T09:10:04.001Z</time></trkpt><trkpt lat="42.69301739795483" lon="12.681456675309388"><ele>778.0</ele><time>2026-04-19T09:10:05.001Z</time></trkpt><trkpt lat="42.69296850046821" lon="12.681399786530747"><ele>778.0</ele><time>2026-04-19T09:10:06.001Z</time></trkpt><trkpt lat="42.69290468553237" lon="12.681364358239769"><ele>778.0</ele><time>2026-04-19T09:10:07.001Z</time></trkpt><trkpt lat="42.69282803111081" lon="12.68127455757912"><ele>778.0</ele><time>2026-04-19T09:10:08.001Z</time></trkpt><trkpt lat="42.692735833629065" lon="12.681173493092313"><ele>780.4</ele><time>2026-04-19T09:10:09.001Z</time></trkpt><trkpt lat="42.692647216928684" lon="12.681080247753298"><ele>782.8</ele><time>2026-04-19T09:10:10Z</time></trkpt><trkpt lat="42.692549553238266" lon="12.681003391711263"><ele>785.2</ele><time>2026-04-19T09:10:11Z</time></trkpt><trkpt lat="42.692459512052146" lon="12.68092399782575"><ele>787.6</ele><time>2026-04-19T09:10:12Z</time></trkpt><trkpt lat="42.69238685965404" lon="12.680843753529041"><ele>790.0</ele><time>2026-04-19T09:10:13Z</time></trkpt><trkpt lat="42.69231751417843" lon="12.680721994617661"><ele>790.0</ele><time>2026-04-19T09:10:14Z</time></trkpt><trkpt lat="42.692249653057125" lon="12.680625068885362"><ele>790.0</ele><time>2026-04-19T09:10:15Z</time></trkpt><trkpt lat="42.69214422806538" lon="12.680539409713354"><ele>790.0</ele><time>2026-04-19T09:10:16Z</time></trkpt><trkpt lat="42.692033588584444" lon="12.680472626325603"><ele>790.0</ele><time>2026-04-19T09:10:17Z</time></trkpt><trkpt lat="42.691916860309384" lon="12.680416583350107"><ele>791.25</ele><time>2026-04-19T09:10:18Z</time></trkpt><trkpt lat="42.69180789547172" lon="12.68037541443493"><ele>792.5</ele><time>2026-04-19T09:10:19Z</time></trkpt><trkpt lat="42.691724722700656" lon="12.680348144263368"><ele>793.75</ele><time>2026-04-19T09:10:20Z</time></trkpt><trkpt lat="42.691553199088005" lon="12.680341501587128"><ele>795.0</ele><time>2026-04-19T09:10:22Z</time></trkpt><trkpt lat="42.691445495062375" lon="12.680350895756815"><ele>795.0</ele><time>2026-04-19T09:10:23Z</time></trkpt><trkpt lat="42.69131918863384" lon="12.680368093223297"><ele>795.0</ele><time>2026-04-19T09:10:24Z</time></trkpt><trkpt lat="42.69120913347413" lon="12.680390081650119"><ele>795.0</ele><time>2026-04-19T09:10:25Z</time></trkpt><trkpt lat="42.69111938827375" lon="12.680388067960298"><ele>795.0</ele><time>2026-04-19T09:10:26Z</time></trkpt><trkpt lat="42.6910197292854" lon="12.680431400566436"><ele>795.0</ele><time>2026-04-19T09:10:27Z</time></trkpt><trkpt lat="42.69090958634757" lon="12.680467554474438"><ele>793.75</ele><time>2026-04-19T09:10:28Z</time></trkpt><trkpt lat="42.69079812678582" lon="12.6804607934155"><ele>792.5</ele><time>2026-04-19T09:10:29Z</time></trkpt><trkpt lat="42.69067812749477" lon="12.680434858247056"><ele>791.25</ele><time>2026-04-19T09:10:30Z</time></trkpt><trkpt lat="42.69057630599271" lon="12.680392541324627"><ele>790.0</ele><time>2026-04-19T09:10:31Z</time></trkpt><trkpt lat="42.69047549722203" lon="12.680319983241171"><ele>790.0</ele><time>2026-04-19T09:10:32Z</time></trkpt><trkpt lat="42.690362429342805" lon="12.680273136010682"><ele>790.0</ele><time>2026-04-19T09:10:33Z</time></trkpt><trkpt lat="42.69022857351422" lon="12.680235978402063"><ele>790.0</ele><time>2026-04-19T09:10:34Z</time></trkpt><trkpt lat="42.69010664037938" lon="12.680189663785859"><ele>790.0</ele><time>2026-04-19T09:10:35Z</time></trkpt><trkpt lat="42.690002467048025" lon="12.680136446966142"><ele>789.6</ele><time>2026-04-19T09:10:36Z</time></trkpt><trkpt lat="42.68989429858327" lon="12.680085664648393"><ele>789.2</ele><time>2026-04-19T09:10:37Z</time></trkpt><trkpt lat="42.68981124568605" lon="12.68005769463193"><ele>788.8</ele><time>2026-04-19T09:10:38Z</time></trkpt><trkpt lat="42.68973223308165" lon="12.680003909583727"><ele>788.4</ele><time>2026-04-19T09:10:39Z</time></trkpt><trkpt lat="42.68964839059609" lon="12.679959744402316"><ele>788.0</ele><time>2026-04-19T09:10:40Z</time></trkpt><trkpt lat="42.68956798553315" lon="12.679943903294154"><ele>788.0</ele><time>2026-04-19T09:10:41Z</time></trkpt><trkpt lat="42.68949980669424" lon="12.679936541124714"><ele>788.0</ele><time>2026-04-19T09:10:42Z</time></trkpt><trkpt lat="42.68943508412057" lon="12.679954561036574"><ele>788.0</ele><time>2026-04-19T09:10:43Z</time></trkpt><trkpt lat="42.689383947924455" lon="12.680024533530343"><ele>788.0</ele><time>2026-04-19T09:10:44Z</time></trkpt><trkpt lat="42.6893176781509" lon="12.680088926468372"><ele>788.0</ele><time>2026-04-19T09:10:45Z</time></trkpt><trkpt lat="42.689250069296826" lon="12.680093381056565"><ele>788.0</ele><time>2026-04-19T09:10:46Z</time></trkpt><trkpt lat="42.689174262972834" lon="12.680068673928018"><ele>788.0</ele><time>2026-04-19T09:10:47Z</time></trkpt><trkpt lat="42.68910284691449" lon="12.680054410026749"><ele>789.5999999999999</ele><time>2026-04-19T09:10:48Z</time></trkpt><trkpt lat="42.68897524879729" lon="12.680003464616542"><ele>791.1999999999999</ele><time>2026-04-19T09:10:50Z</time></trkpt><trkpt lat="42.688894278857305" lon="12.67996505545079"><ele>792.8</ele><time>2026-04-19T09:10:51Z</time></trkpt><trkpt lat="42.68882387816242" lon="12.679980289208528"><ele>794.4</ele><time>2026-04-19T09:10:53Z</time></trkpt><trkpt lat="42.688733410145225" lon="12.68004286394085"><ele>796.0</ele><time>2026-04-19T09:10:55Z</time></trkpt><trkpt lat="42.688646608940346" lon="12.679987280969279"><ele>798.9999999999999</ele><time>2026-04-19T09:10:57Z</time></trkpt><trkpt lat="42.68857743406596" lon="12.6800200858489"><ele>802.0</ele><time>2026-04-19T09:10:59Z</time></trkpt><trkpt lat="42.688524769896425" lon="12.680146454658596"><ele>805.0</ele><time>2026-04-19T09:11:01Z</time></trkpt><trkpt lat="42.688446533822066" lon="12.680143972508422"><ele>808.0</ele><time>2026-04-19T09:11:03Z</time></trkpt><trkpt lat="42.6883628241911" lon="12.680151561971105"><ele>810.9999999999999</ele><time>2026-04-19T09:11:05Z</time></trkpt><trkpt lat="42.68827710518147" lon="12.68019074583756"><ele>814.0</ele><time>2026-04-19T09:11:07Z</time></trkpt><trkpt lat="42.68820621381735" lon="12.680208016701718"><ele>814.0000000000001</ele><time>2026-04-19T09:11:08Z</time></trkpt><trkpt lat="42.688137322208604" lon="12.680242749996031"><ele>814.0</ele><time>2026-04-19T09:11:09Z</time></trkpt><trkpt lat="42.688068534065785" lon="12.680310471805388"><ele>814.0</ele><time>2026-04-19T09:11:11Z</time></trkpt><trkpt lat="42.68801192152256" lon="12.680368686668869"><ele>814.0</ele><time>2026-04-19T09:11:13Z</time></trkpt><trkpt lat="42.687960227855235" lon="12.680455982316026"><ele>814.0</ele><time>2026-04-19T09:11:16Z</time></trkpt><trkpt lat="42.68794898359051" lon="12.6805473146546"><ele>814.0000000000001</ele><time>2026-04-19T09:11:19Z</time></trkpt><trkpt lat="42.687934643991845" lon="12.680639449449572"><ele>814.0</ele><time>2026-04-19T09:11:22Z</time></trkpt><trkpt lat="42.68786458075899" lon="12.680712122389874"><ele>816.8000000000001</ele><time>2026-04-19T09:11:24Z</time></trkpt><trkpt lat="42.68786134555042" lon="12.68080958609274"><ele>819.6</ele><time>2026-04-19T09:11:26Z</time></trkpt><trkpt lat="42.68784450334973" lon="12.680911432184612"><ele>822.4</ele><time>2026-04-19T09:11:28Z</time></trkpt><trkpt lat="42.68778205914119" lon="12.681000105976375"><ele>825.2</ele><time>2026-04-19T09:11:30Z</time></trkpt><trkpt lat="42.68768852803929" lon="12.68111701073872"><ele>828.0</ele><time>2026-04-19T09:11:32Z</time></trkpt><trkpt lat="42.68760301685974" lon="12.681187094292119"><ele>833.1666666666666</ele><time>2026-04-19T09:11:34Z</time></trkpt><trkpt lat="42.68754772942636" lon="12.681267005041184"><ele>838.3333333333333</ele><time>2026-04-19T09:11:36Z</time></trkpt><trkpt lat="42.68743815018791" lon="12.681311722847983"><ele>843.5</ele><time>2026-04-19T09:11:38Z</time></trkpt><trkpt lat="42.68733918326548" lon="12.681277541860613"><ele>848.6666666666666</ele><time>2026-04-19T09:11:40Z</time></trkpt><trkpt lat="42.68727519706917" lon="12.681313216546508"><ele>853.8333333333333</ele><time>2026-04-19T09:11:42Z</time></trkpt><trkpt lat="42.68719527202048" lon="12.681303050431238"><ele>859.0</ele><time>2026-04-19T09:11:44.001Z</time></trkpt><trkpt lat="42.687136394040756" lon="12.681260901528407"><ele>859.0</ele><time>2026-04-19T09:11:46.001Z</time></trkpt><trkpt lat="42.68702202720441" lon="12.68127599809279"><ele>859.0000000000001</ele><time>2026-04-19T09:11:48.001Z</time></trkpt><trkpt lat="42.686901011919176" lon="12.681267901846313"><ele>859.0000000000001</ele><time>2026-04-19T09:11:50.001Z</time></trkpt><trkpt lat="42.6868364434919" lon="12.681272432031822"><ele>859.0</ele><time>2026-04-19T09:11:51.001Z</time></trkpt><trkpt lat="42.686747185007725" lon="12.681242804780444"><ele>859.0</ele><time>2026-04-19T09:11:52.001Z</time></trkpt><trkpt lat="42.68664259504908" lon="12.68125382467111"><ele>862.6</ele><time>2026-04-19T09:11:54.001Z</time></trkpt><trkpt lat="42.686564016634094" lon="12.681258824077803"><ele>866.2</ele><time>2026-04-19T09:11:55.001Z</time></trkpt><trkpt lat="42.686493755936404" lon="12.68126043347874"><ele>869.8000000000001</ele><time>2026-04-19T09:11:56.001Z</time></trkpt><trkpt lat="42.68637479964464" lon="12.681285961824027"><ele>873.4000000000001</ele><time>2026-04-19T09:11:58.001Z</time></trkpt><trkpt lat="42.686262271762835" lon="12.681324458791611"><ele>877.0</ele><time>2026-04-19T09:12:00.001Z</time></trkpt><trkpt lat="42.686196749897604" lon="12.681308774219866"><ele>876.9999999999999</ele><time>2026-04-19T09:12:01.001Z</time></trkpt><trkpt lat="42.68610931694893" lon="12.681261502271802"><ele>877.0</ele><time>2026-04-19T09:12:02.001Z</time></trkpt><trkpt lat="42.68602901303092" lon="12.681221990210062"><ele>877.0</ele><time>2026-04-19T09:12:03.001Z</time></trkpt><trkpt lat="42.685935097332205" lon="12.681208484033913"><ele>877.0</ele><time>2026-04-19T09:12:05.001Z</time></trkpt><trkpt lat="42.6858606603668" lon="12.681220974513096"><ele>876.9999999999999</ele><time>2026-04-19T09:12:06.001Z</time></trkpt><trkpt lat="42.68578384030659" lon="12.681229448656916"><ele>877.0</ele><time>2026-04-19T09:12:07.001Z</time></trkpt><trkpt lat="42.685692285722816" lon="12.681228386874448"><ele>878.3333333333333</ele><time>2026-04-19T09:12:09.001Z</time></trkpt><trkpt lat="42.68562372178277" lon="12.681188793684388"><ele>879.6666666666666</ele><time>2026-04-19T09:12:10.001Z</time></trkpt><trkpt lat="42.68555839179125" lon="12.681133426029959"><ele>881.0</ele><time>2026-04-19T09:12:11.001Z</time></trkpt><trkpt lat="42.68547307481808" lon="12.681048968316253"><ele>882.3333333333333</ele><time>2026-04-19T09:12:13.001Z</time></trkpt><trkpt lat="42.68539086922879" lon="12.681015980960373"><ele>883.6666666666666</ele><time>2026-04-19T09:12:15.001Z</time></trkpt><trkpt lat="42.68530476424306" lon="12.680986701894648"><ele>885.0</ele><time>2026-04-19T09:12:17Z</time></trkpt><trkpt lat="42.685242865985536" lon="12.680894377791155"><ele>885.0</ele><time>2026-04-19T09:12:19Z</time></trkpt><trkpt lat="42.68521013108375" lon="12.68076092971663"><ele>885.0</ele><time>2026-04-19T09:12:21Z</time></trkpt><trkpt lat="42.68519779542412" lon="12.680649922113332"><ele>885.0</ele><time>2026-04-19T09:12:24Z</time></trkpt><trkpt lat="42.6851690998503" lon="12.680551151160705"><ele>885.0</ele><time>2026-04-19T09:12:26Z</time></trkpt><trkpt lat="42.68511042096489" lon="12.680434625772117"><ele>885.0</ele><time>2026-04-19T09:12:28Z</time></trkpt><trkpt lat="42.685043130870355" lon="12.680284675925094"><ele>885.4</ele><time>2026-04-19T09:12:30Z</time></trkpt><trkpt lat="42.684999818864654" lon="12.680172717652615"><ele>885.8</ele><time>2026-04-19T09:12:31Z</time></trkpt><trkpt lat="42.68494275292248" lon="12.680041416525272"><ele>886.2</ele><time>2026-04-19T09:12:32Z</time></trkpt><trkpt lat="42.68489282602781" lon="12.679929096085209"><ele>886.6</ele><time>2026-04-19T09:12:33Z</time></trkpt><trkpt lat="42.68485009948228" lon="12.679838247759708"><ele>887.0</ele><time>2026-04-19T09:12:34Z</time></trkpt><trkpt lat="42.68481511022654" lon="12.67975297478359"><ele>887.0</ele><time>2026-04-19T09:12:35Z</time></trkpt><trkpt lat="42.68479042903803" lon="12.679659799000206"><ele>887.0</ele><time>2026-04-19T09:12:36Z</time></trkpt><trkpt lat="42.68476724318324" lon="12.679553010566366"><ele>887.0</ele><time>2026-04-19T09:12:37Z</time></trkpt><trkpt lat="42.684750097002635" lon="12.679461116787538"><ele>887.0</ele><time>2026-04-19T09:12:38Z</time></trkpt><trkpt lat="42.68466039332552" lon="12.6793005319932"><ele>887.0</ele><time>2026-04-19T09:12:40Z</time></trkpt><trkpt lat="42.6845823972929" lon="12.67921499521039"><ele>886.8333333333334</ele><time>2026-04-19T09:12:41Z</time></trkpt><trkpt lat="42.68452609935671" lon="12.679132555568325"><ele>886.6666666666667</ele><time>2026-04-19T09:12:42Z</time></trkpt><trkpt lat="42.68448777520653" lon="12.67899886904972"><ele>886.5</ele><time>2026-04-19T09:12:43Z</time></trkpt><trkpt lat="42.68445263472609" lon="12.678881585850238"><ele>886.3333333333333</ele><time>2026-04-19T09:12:44Z</time></trkpt><trkpt lat="42.6844190981289" lon="12.678807008036662"><ele>886.1666666666666</ele><time>2026-04-19T09:12:45Z</time></trkpt><trkpt lat="42.68435623303541" lon="12.678743010805416"><ele>886.0</ele><time>2026-04-19T09:12:46Z</time></trkpt><trkpt lat="42.68428641334512" lon="12.678673761667305"><ele>885.9999999999999</ele><time>2026-04-19T09:12:47Z</time></trkpt><trkpt lat="42.684266159134346" lon="12.67855002968854"><ele>886.0</ele><time>2026-04-19T09:12:49Z</time></trkpt><trkpt lat="42.68431210578064" lon="12.678464630183498"><ele>886.0</ele><time>2026-04-19T09:12:50Z</time></trkpt><trkpt lat="42.68437115100469" lon="12.678377808638686"><ele>886.0</ele><time>2026-04-19T09:12:51Z</time></trkpt><trkpt lat="42.684410028289335" lon="12.678295205754743"><ele>885.9999999999999</ele><time>2026-04-19T09:12:52Z</time></trkpt><trkpt lat="42.68440467049856" lon="12.678157041881157"><ele>886.0</ele><time>2026-04-19T09:12:54Z</time></trkpt><trkpt lat="42.68439727249627" lon="12.678067116795612"><ele>884.1999999999999</ele><time>2026-04-19T09:12:55Z</time></trkpt><trkpt lat="42.684439828903244" lon="12.677906678410643"><ele>882.3999999999999</ele><time>2026-04-19T09:12:57Z</time></trkpt><trkpt lat="42.68446541095993" lon="12.677824406313848"><ele>880.6</ele><time>2026-04-19T09:12:58Z</time></trkpt><trkpt lat="42.68448350994153" lon="12.67772888139483"><ele>878.8</ele><time>2026-04-19T09:13:00Z</time></trkpt><trkpt lat="42.68448631396289" lon="12.677569180345381"><ele>877.0</ele><time>2026-04-19T09:13:03Z</time></trkpt><trkpt lat="42.68450810016538" lon="12.677445274511003"><ele>874.2</ele><time>2026-04-19T09:13:05Z</time></trkpt><trkpt lat="42.684575168277796" lon="12.677343909514072"><ele>871.4000000000001</ele><time>2026-04-19T09:13:07Z</time></trkpt><trkpt lat="42.68463055161208" lon="12.677276227689006"><ele>868.5999999999999</ele><time>2026-04-19T09:13:08Z</time></trkpt><trkpt lat="42.684679411304906" lon="12.677206187747554"><ele>865.8</ele><time>2026-04-19T09:13:09Z</time></trkpt><trkpt lat="42.68471537939556" lon="12.677124331264785"><ele>863.0</ele><time>2026-04-19T09:13:10Z</time></trkpt><trkpt lat="42.684791287175074" lon="12.676974201187523"><ele>860.1666666666667</ele><time>2026-04-19T09:13:12Z</time></trkpt><trkpt lat="42.684837271478585" lon="12.676886034750837"><ele>857.3333333333334</ele><time>2026-04-19T09:13:13Z</time></trkpt><trkpt lat="42.6848923205246" lon="12.676782278821266"><ele>854.5</ele><time>2026-04-19T09:13:14Z</time></trkpt><trkpt lat="42.68493519763875" lon="12.67669529238061"><ele>851.6666666666667</ele><time>2026-04-19T09:13:15Z</time></trkpt><trkpt lat="42.684972096617905" lon="12.676601969211006"><ele>848.8333333333334</ele><time>2026-04-19T09:13:16Z</time></trkpt><trkpt lat="42.68500619294645" lon="12.67649603470921"><ele>846.0</ele><time>2026-04-19T09:13:17Z</time></trkpt><trkpt lat="42.68504158146072" lon="12.676306428504786"><ele>846.0</ele><time>2026-04-19T09:13:19Z</time></trkpt><trkpt lat="42.68506329386741" lon="12.676179918586808"><ele>846.0</ele><time>2026-04-19T09:13:20Z</time></trkpt><trkpt lat="42.68509686085718" lon="12.676094828604265"><ele>846.0</ele><time>2026-04-19T09:13:21Z</time></trkpt><trkpt lat="42.68513600716921" lon="12.676000589115112"><ele>846.0</ele><time>2026-04-19T09:13:22Z</time></trkpt><trkpt lat="42.68514994146799" lon="12.675900373507032"><ele>846.0</ele><time>2026-04-19T09:13:23Z</time></trkpt><trkpt lat="42.685189864935765" lon="12.675721490093204"><ele>843.5714285714286</ele><time>2026-04-19T09:13:25Z</time></trkpt><trkpt lat="42.68523155168881" lon="12.675655611275122"><ele>841.1428571428572</ele><time>2026-04-19T09:13:26Z</time></trkpt><trkpt lat="42.685264225793844" lon="12.675565257364903"><ele>838.7142857142858</ele><time>2026-04-19T09:13:27Z</time></trkpt><trkpt lat="42.685288878120886" lon="12.6754782462135"><ele>836.2857142857142</ele><time>2026-04-19T09:13:28Z</time></trkpt><trkpt lat="42.68531156726534" lon="12.675393314120212"><ele>833.8571428571429</ele><time>2026-04-19T09:13:29Z</time></trkpt><trkpt lat="42.68534640831906" lon="12.67531908368686"><ele>831.4285714285714</ele><time>2026-04-19T09:13:30Z</time></trkpt><trkpt lat="42.685403115366675" lon="12.675263945864739"><ele>829.0</ele><time>2026-04-19T09:13:32Z</time></trkpt><trkpt lat="42.68553034791435" lon="12.675198361339783"><ele>825.8333333333333</ele><time>2026-04-19T09:13:34Z</time></trkpt><trkpt lat="42.6855850893851" lon="12.67511695004243"><ele>822.6666666666666</ele><time>2026-04-19T09:13:35Z</time></trkpt><trkpt lat="42.68561482637984" lon="12.675010891843373"><ele>819.5</ele><time>2026-04-19T09:13:36Z</time></trkpt><trkpt lat="42.68564340489951" lon="12.674877387354075"><ele>816.3333333333333</ele><time>2026-04-19T09:13:37Z</time></trkpt><trkpt lat="42.68567097087807" lon="12.674782299122993"><ele>813.1666666666666</ele><time>2026-04-19T09:13:38Z</time></trkpt><trkpt lat="42.68569426353279" lon="12.674682040192344"><ele>810.0</ele><time>2026-04-19T09:13:39Z</time></trkpt><trkpt lat="42.68571765287258" lon="12.674582466355968"><ele>810.0</ele><time>2026-04-19T09:13:40Z</time></trkpt><trkpt lat="42.68574857413121" lon="12.674482218602902"><ele>810.0</ele><time>2026-04-19T09:13:41Z</time></trkpt><trkpt lat="42.685798906832645" lon="12.6743861359336"><ele>810.0</ele><time>2026-04-19T09:13:42Z</time></trkpt><trkpt lat="42.68585362302638" lon="12.674283953025528"><ele>810.0</ele><time>2026-04-19T09:13:43Z</time></trkpt><trkpt lat="42.68591079632293" lon="12.67418609697032"><ele>810.0</ele><time>2026-04-19T09:13:44Z</time></trkpt><trkpt lat="42.68595512177121" lon="12.674094371382607"><ele>810.0</ele><time>2026-04-19T09:13:45Z</time></trkpt><trkpt lat="42.68599053232271" lon="12.674009967971843"><ele>808.5</ele><time>2026-04-19T09:13:46Z</time></trkpt><trkpt lat="42.68602014894651" lon="12.67391649977045"><ele>807.0</ele><time>2026-04-19T09:13:47Z</time></trkpt><trkpt lat="42.68603662823009" lon="12.673813681671787"><ele>805.5</ele><time>2026-04-19T09:13:48Z</time></trkpt><trkpt lat="42.68605787732658" lon="12.67371627091022"><ele>804.0</ele><time>2026-04-19T09:13:49Z</time></trkpt><trkpt lat="42.68608430453104" lon="12.673617879450742"><ele>802.5</ele><time>2026-04-19T09:13:50Z</time></trkpt><trkpt lat="42.68610686684988" lon="12.673464409206643"><ele>801.0</ele><time>2026-04-19T09:13:52Z</time></trkpt><trkpt lat="42.68609327542211" lon="12.673370033540577"><ele>799.5</ele><time>2026-04-19T09:13:55Z</time></trkpt><trkpt lat="42.68602344138011" lon="12.673292057544833"><ele>798.0</ele><time>2026-04-19T09:13:57Z</time></trkpt><trkpt lat="42.68596427229949" lon="12.673254330411243"><ele>796.5</ele><time>2026-04-19T09:13:58Z</time></trkpt><trkpt lat="42.685905984383126" lon="12.673212245639538"><ele>795.0</ele><time>2026-04-19T09:13:59Z</time></trkpt><trkpt lat="42.68585468216091" lon="12.673159765604066"><ele>793.5</ele><time>2026-04-19T09:14:00Z</time></trkpt><trkpt lat="42.685746752489216" lon="12.673051264889176"><ele>792.0</ele><time>2026-04-19T09:14:02Z</time></trkpt><trkpt lat="42.68568591561238" lon="12.67299609656295"><ele>792.0</ele><time>2026-04-19T09:14:03Z</time></trkpt><trkpt lat="42.685617411303156" lon="12.672942947711947"><ele>792.0</ele><time>2026-04-19T09:14:04Z</time></trkpt><trkpt lat="42.68555273582847" lon="12.672905214286017"><ele>792.0</ele><time>2026-04-19T09:14:05Z</time></trkpt><trkpt lat="42.68548023811792" lon="12.672870054636618"><ele>792.0</ele><time>2026-04-19T09:14:06Z</time></trkpt><trkpt lat="42.68540008111709" lon="12.672836827002907"><ele>792.0</ele><time>2026-04-19T09:14:07Z</time></trkpt><trkpt lat="42.68531414820754" lon="12.672791492174824"><ele>792.0</ele><time>2026-04-19T09:14:08Z</time></trkpt><trkpt lat="42.685226860081364" lon="12.6727414462429"><ele>789.0</ele><time>2026-04-19T09:14:09Z</time></trkpt><trkpt lat="42.6851546674631" lon="12.672698622143544"><ele>786.0</ele><time>2026-04-19T09:14:10Z</time></trkpt><trkpt lat="42.685069874686086" lon="12.672636040098471"><ele>783.0</ele><time>2026-04-19T09:14:11Z</time></trkpt><trkpt lat="42.68498229207779" lon="12.672571281178758"><ele>780.0</ele><time>2026-04-19T09:14:12Z</time></trkpt><trkpt lat="42.68488423820648" lon="12.672508485074676"><ele>777.0</ele><time>2026-04-19T09:14:13Z</time></trkpt><trkpt lat="42.684796835948156" lon="12.672458863213516"><ele>777.0</ele><time>2026-04-19T09:14:14Z</time></trkpt><trkpt lat="42.68471716038188" lon="12.672432652296765"><ele>777.0</ele><time>2026-04-19T09:14:15Z</time></trkpt><trkpt lat="42.684654174951824" lon="12.67240956466857"><ele>777.0</ele><time>2026-04-19T09:14:16Z</time></trkpt><trkpt lat="42.68459298167731" lon="12.67238683798681"><ele>777.0</ele><time>2026-04-19T09:14:17Z</time></trkpt><trkpt lat="42.68452983048091" lon="12.672391622338653"><ele>777.0</ele><time>2026-04-19T09:14:18Z</time></trkpt><trkpt lat="42.68444737028486" lon="12.672335097928789"><ele>777.0</ele><time>2026-04-19T09:14:20Z</time></trkpt><trkpt lat="42.68443416153666" lon="12.672240435629499"><ele>777.0</ele><time>2026-04-19T09:14:21.999Z</time></trkpt><trkpt lat="42.68448637138828" lon="12.6720993140067"><ele>777.0</ele><time>2026-04-19T09:14:23.999Z</time></trkpt><trkpt lat="42.684565212601925" lon="12.671959179831173"><ele>777.0</ele><time>2026-04-19T09:14:25.999Z</time></trkpt><trkpt lat="42.68465539597003" lon="12.6718190069075"><ele>777.0</ele><time>2026-04-19T09:14:27.999Z</time></trkpt><trkpt lat="42.68469890726359" lon="12.671745095819524"><ele>777.0</ele><time>2026-04-19T09:14:28.999Z</time></trkpt><trkpt lat="42.68478103174057" lon="12.67163785529059"><ele>775.0</ele><time>2026-04-19T09:14:30.999Z</time></trkpt><trkpt lat="42.684824492378475" lon="12.671563892212307"><ele>773.0</ele><time>2026-04-19T09:14:31.999Z</time></trkpt><trkpt lat="42.6848663826576" lon="12.671458265826056"><ele>771.0</ele><time>2026-04-19T09:14:32.999Z</time></trkpt><trkpt lat="42.68489591433451" lon="12.67136673177412"><ele>769.0</ele><time>2026-04-19T09:14:34Z</time></trkpt><trkpt lat="42.68492188853879" lon="12.671273769321278"><ele>767.0</ele><time>2026-04-19T09:14:35Z</time></trkpt><trkpt lat="42.68495078997077" lon="12.671145266911873"><ele>765.0</ele><time>2026-04-19T09:14:36Z</time></trkpt><trkpt lat="42.68498627947236" lon="12.671037550837866"><ele>762.8333333333334</ele><time>2026-04-19T09:14:37Z</time></trkpt><trkpt lat="42.68503033658319" lon="12.670923429820403"><ele>760.6666666666666</ele><time>2026-04-19T09:14:38Z</time></trkpt><trkpt lat="42.68506083781535" lon="12.670821626610005"><ele>758.5</ele><time>2026-04-19T09:14:39Z</time></trkpt><trkpt lat="42.68510062686984" lon="12.670731833073368"><ele>756.3333333333333</ele><time>2026-04-19T09:14:40Z</time></trkpt><trkpt lat="42.68514808641397" lon="12.670637089292656"><ele>754.1666666666666</ele><time>2026-04-19T09:14:41Z</time></trkpt><trkpt lat="42.685194606250526" lon="12.670551528024843"><ele>752.0</ele><time>2026-04-19T09:14:42Z</time></trkpt><trkpt lat="42.6852372206286" lon="12.670474799946282"><ele>751.3333333333333</ele><time>2026-04-19T09:14:43Z</time></trkpt><trkpt lat="42.68528393147019" lon="12.670344613955233"><ele>750.6666666666666</ele><time>2026-04-19T09:14:45Z</time></trkpt><trkpt lat="42.68532075968449" lon="12.670232211865542"><ele>750.0</ele><time>2026-04-19T09:14:46Z</time></trkpt><trkpt lat="42.68535880821488" lon="12.670159412578368"><ele>749.3333333333334</ele><time>2026-04-19T09:14:47Z</time></trkpt><trkpt lat="42.685360685389824" lon="12.670057724832272"><ele>748.6666666666667</ele><time>2026-04-19T09:14:49Z</time></trkpt><trkpt lat="42.68538637868855" lon="12.6699600152782"><ele>748.0</ele><time>2026-04-19T09:14:52Z</time></trkpt><trkpt lat="42.68534357316616" lon="12.669888576570449"><ele>748.0</ele><time>2026-04-19T09:14:55Z</time></trkpt><trkpt lat="42.685275083067836" lon="12.669906381875242"><ele>748.0</ele><time>2026-04-19T09:14:57Z</time></trkpt><trkpt lat="42.68520760271607" lon="12.669953667431118"><ele>748.0</ele><time>2026-04-19T09:14:58Z</time></trkpt><trkpt lat="42.685132736661345" lon="12.669957009072709"><ele>748.0</ele><time>2026-04-19T09:14:59Z</time></trkpt><trkpt lat="42.68502878299705" lon="12.66988108375933"><ele>748.0</ele><time>2026-04-19T09:15:01Z</time></trkpt><trkpt lat="42.684914811703976" lon="12.669822943360822"><ele>747.8</ele><time>2026-04-19T09:15:03Z</time></trkpt><trkpt lat="42.684829790772014" lon="12.669868249607877"><ele>747.5999999999999</ele><time>2026-04-19T09:15:04Z</time></trkpt><trkpt lat="42.68475259164005" lon="12.66992746670627"><ele>747.4000000000001</ele><time>2026-04-19T09:15:05Z</time></trkpt><trkpt lat="42.68468108390374" lon="12.670002927254847"><ele>747.2</ele><time>2026-04-19T09:15:06Z</time></trkpt><trkpt lat="42.684600295880514" lon="12.670060704302044"><ele>747.0</ele><time>2026-04-19T09:15:07Z</time></trkpt><trkpt lat="42.68452354977727" lon="12.670123148165302"><ele>747.0</ele><time>2026-04-19T09:15:08Z</time></trkpt><trkpt lat="42.68445996241054" lon="12.67019464728224"><ele>747.0</ele><time>2026-04-19T09:15:09Z</time></trkpt><trkpt lat="42.68438204243784" lon="12.670270289930121"><ele>747.0</ele><time>2026-04-19T09:15:10Z</time></trkpt><trkpt lat="42.68428321213575" lon="12.670340215248682"><ele>747.0</ele><time>2026-04-19T09:15:11Z</time></trkpt><trkpt lat="42.68416642533851" lon="12.670402930253454"><ele>747.0</ele><time>2026-04-19T09:15:12Z</time></trkpt><trkpt lat="42.68404287410126" lon="12.670445437040403"><ele>745.0</ele><time>2026-04-19T09:15:13Z</time></trkpt><trkpt lat="42.683928171048954" lon="12.670481550949726"><ele>743.0</ele><time>2026-04-19T09:15:14Z</time></trkpt><trkpt lat="42.68382634772995" lon="12.6705218855387"><ele>741.0</ele><time>2026-04-19T09:15:15Z</time></trkpt><trkpt lat="42.6837396274683" lon="12.670562123958645"><ele>739.0</ele><time>2026-04-19T09:15:16Z</time></trkpt><trkpt lat="42.68366426557433" lon="12.670596813818207"><ele>737.0</ele><time>2026-04-19T09:15:17Z</time></trkpt><trkpt lat="42.68358591816732" lon="12.67060811907412"><ele>735.0</ele><time>2026-04-19T09:15:18Z</time></trkpt><trkpt lat="42.68350028816672" lon="12.670590594514113"><ele>733.0</ele><time>2026-04-19T09:15:19Z</time></trkpt><trkpt lat="42.683407959776424" lon="12.670561023560598"><ele>731.0</ele><time>2026-04-19T09:15:20Z</time></trkpt><trkpt lat="42.6833244924411" lon="12.670567624157385"><ele>729.0</ele><time>2026-04-19T09:15:21Z</time></trkpt><trkpt lat="42.68321545368527" lon="12.670600178818356"><ele>727.0</ele><time>2026-04-19T09:15:22Z</time></trkpt><trkpt lat="42.683076881908455" lon="12.670657913662044"><ele>727.0</ele><time>2026-04-19T09:15:23Z</time></trkpt><trkpt lat="42.682965683238095" lon="12.670706482610315"><ele>727.0</ele><time>2026-04-19T09:15:24Z</time></trkpt><trkpt lat="42.682872523536155" lon="12.67073669361214"><ele>727.0</ele><time>2026-04-19T09:15:25Z</time></trkpt><trkpt lat="42.68279398842201" lon="12.670769459930362"><ele>727.0</ele><time>2026-04-19T09:15:26Z</time></trkpt><trkpt lat="42.68270688255977" lon="12.670832438235049"><ele>727.0</ele><time>2026-04-19T09:15:27Z</time></trkpt><trkpt lat="42.68261316919877" lon="12.670927387999741"><ele>725.75</ele><time>2026-04-19T09:15:28Z</time></trkpt><trkpt lat="42.682506503306946" lon="12.671012769356894"><ele>724.5</ele><time>2026-04-19T09:15:29Z</time></trkpt><trkpt lat="42.68240165267626" lon="12.671090769379818"><ele>723.25</ele><time>2026-04-19T09:15:30Z</time></trkpt><trkpt lat="42.682307243522" lon="12.671179154624259"><ele>722.0</ele><time>2026-04-19T09:15:31Z</time></trkpt><trkpt lat="42.68222599754892" lon="12.671277094516666"><ele>721.75</ele><time>2026-04-19T09:15:32Z</time></trkpt><trkpt lat="42.682128398851724" lon="12.671379857172695"><ele>721.5</ele><time>2026-04-19T09:15:33Z</time></trkpt><trkpt lat="42.68200828374364" lon="12.671469562180967"><ele>721.25</ele><time>2026-04-19T09:15:34Z</time></trkpt><trkpt lat="42.68190951319779" lon="12.671544668408936"><ele>721.0</ele><time>2026-04-19T09:15:35Z</time></trkpt><trkpt lat="42.68183274348491" lon="12.671610691513182"><ele>720.6666666666667</ele><time>2026-04-19T09:15:36Z</time></trkpt><trkpt lat="42.68176307881582" lon="12.671686762375408"><ele>720.3333333333334</ele><time>2026-04-19T09:15:37Z</time></trkpt><trkpt lat="42.68168761775294" lon="12.67174441869593"><ele>720.0</ele><time>2026-04-19T09:15:38Z</time></trkpt><trkpt lat="42.68159186634079" lon="12.671809132043816"><ele>719.6666666666666</ele><time>2026-04-19T09:15:39Z</time></trkpt><trkpt lat="42.68150266743827" lon="12.67183991990413"><ele>719.3333333333333</ele><time>2026-04-19T09:15:40Z</time></trkpt><trkpt lat="42.68143730448971" lon="12.67182876157814"><ele>719.0</ele><time>2026-04-19T09:15:41Z</time></trkpt><trkpt lat="42.68134153743792" lon="12.67182019546018"><ele>719.0</ele><time>2026-04-19T09:15:43Z</time></trkpt><trkpt lat="42.681215880619135" lon="12.67192639064305"><ele>719.0</ele><time>2026-04-19T09:15:45Z</time></trkpt><trkpt lat="42.681147291654355" lon="12.671998357251992"><ele>719.0</ele><time>2026-04-19T09:15:46Z</time></trkpt><trkpt lat="42.68108211060405" lon="12.672029855001917"><ele>719.0</ele><time>2026-04-19T09:15:47Z</time></trkpt><trkpt lat="42.68102078120209" lon="12.672058245530497"><ele>719.0</ele><time>2026-04-19T09:15:48Z</time></trkpt><trkpt lat="42.68093123502363" lon="12.672158245177952"><ele>717.0</ele><time>2026-04-19T09:15:50.001Z</time></trkpt><trkpt lat="42.680854465146474" lon="12.672226889223262"><ele>715.0</ele><time>2026-04-19T09:15:52.001Z</time></trkpt><trkpt lat="42.68078649636102" lon="12.672198267103163"><ele>713.0</ele><time>2026-04-19T09:15:57.001Z</time></trkpt><trkpt lat="42.68072569925776" lon="12.672154381501965"><ele>711.0</ele><time>2026-04-19T09:15:59.001Z</time></trkpt><trkpt lat="42.68058990394723" lon="12.672201044557657"><ele>709.0</ele><time>2026-04-19T09:16:01.001Z</time></trkpt><trkpt lat="42.68053692785743" lon="12.672253555782937"><ele>707.0</ele><time>2026-04-19T09:16:03.001Z</time></trkpt><trkpt lat="42.68051186033496" lon="12.672342389973625"><ele>707.0</ele><time>2026-04-19T09:16:05.001Z</time></trkpt><trkpt lat="42.6804657493604" lon="12.672409975231654"><ele>707.0</ele><time>2026-04-19T09:16:06.001Z</time></trkpt><trkpt lat="42.68037932908493" lon="12.672484548132589"><ele>707.0</ele><time>2026-04-19T09:16:08.001Z</time></trkpt><trkpt lat="42.680318061887746" lon="12.672551551536287"><ele>707.0</ele><time>2026-04-19T09:16:10.001Z</time></trkpt><trkpt lat="42.680242051697455" lon="12.672597010572012"><ele>707.0</ele><time>2026-04-19T09:16:12.001Z</time></trkpt><trkpt lat="42.68014289826591" lon="12.67263890162582"><ele>707.0</ele><time>2026-04-19T09:16:14.001Z</time></trkpt><trkpt lat="42.68007192596449" lon="12.672693906455233"><ele>707.0</ele><time>2026-04-19T09:16:15.001Z</time></trkpt><trkpt lat="42.68000469364369" lon="12.672739541642455"><ele>707.0</ele><time>2026-04-19T09:16:16.001Z</time></trkpt><trkpt lat="42.67989370995588" lon="12.672835629247308"><ele>707.0</ele><time>2026-04-19T09:16:18.001Z</time></trkpt><trkpt lat="42.67980314156361" lon="12.672907500037347"><ele>707.0</ele><time>2026-04-19T09:16:20.001Z</time></trkpt><trkpt lat="42.67973341017947" lon="12.6729761086346"><ele>707.0</ele><time>2026-04-19T09:16:23.001Z</time></trkpt><trkpt lat="42.679687583533735" lon="12.673051097112877"><ele>706.1666666666666</ele><time>2026-04-19T09:16:26.001Z</time></trkpt><trkpt lat="42.679609899007104" lon="12.673078927343301"><ele>705.3333333333333</ele><time>2026-04-19T09:16:29Z</time></trkpt><trkpt lat="42.6795451989869" lon="12.67311034902579"><ele>704.5</ele><time>2026-04-19T09:16:31Z</time></trkpt><trkpt lat="42.679472994732045" lon="12.673132954635586"><ele>703.6666666666666</ele><time>2026-04-19T09:16:33Z</time></trkpt><trkpt lat="42.67936568606234" lon="12.673144360871296"><ele>702.8333333333334</ele><time>2026-04-19T09:16:35Z</time></trkpt><trkpt lat="42.67926554996538" lon="12.673197651018889"><ele>702.0</ele><time>2026-04-19T09:16:37Z</time></trkpt><trkpt lat="42.67917365510841" lon="12.673256636638028"><ele>700.3333333333334</ele><time>2026-04-19T09:16:39Z</time></trkpt><trkpt lat="42.679109815153275" lon="12.673274928760963"><ele>698.6666666666666</ele><time>2026-04-19T09:16:40Z</time></trkpt><trkpt lat="42.678999620299045" lon="12.673314958620214"><ele>697.0</ele><time>2026-04-19T09:16:42Z</time></trkpt><trkpt lat="42.67892578164005" lon="12.673353794213913"><ele>695.3333333333333</ele><time>2026-04-19T09:16:43Z</time></trkpt><trkpt lat="42.67884417083712" lon="12.673382461241344"><ele>693.6666666666666</ele><time>2026-04-19T09:16:45Z</time></trkpt><trkpt lat="42.67876817017514" lon="12.673415320001318"><ele>692.0</ele><time>2026-04-19T09:16:46Z</time></trkpt><trkpt lat="42.678682568825685" lon="12.673447557861927"><ele>689.4000000000001</ele><time>2026-04-19T09:16:48Z</time></trkpt><trkpt lat="42.67856537858584" lon="12.67344983841635"><ele>686.8000000000001</ele><time>2026-04-19T09:16:51Z</time></trkpt><trkpt lat="42.678444060756064" lon="12.673415944568378"><ele>684.2</ele><time>2026-04-19T09:16:53Z</time></trkpt><trkpt lat="42.67835326931815" lon="12.673363350848254"><ele>681.6</ele><time>2026-04-19T09:16:55Z</time></trkpt><trkpt lat="42.678301875802845" lon="12.673301252554488"><ele>679.0</ele><time>2026-04-19T09:16:56Z</time></trkpt><trkpt lat="42.678245439680644" lon="12.673236854232103"><ele>679.0</ele><time>2026-04-19T09:16:57Z</time></trkpt><trkpt lat="42.678200117649766" lon="12.673171022572271"><ele>679.0</ele><time>2026-04-19T09:16:58Z</time></trkpt><trkpt lat="42.67816276901207" lon="12.673098212204783"><ele>679.0</ele><time>2026-04-19T09:16:59Z</time></trkpt><trkpt lat="42.678106645421174" lon="12.67300474242771"><ele>679.0</ele><time>2026-04-19T09:17:00Z</time></trkpt><trkpt lat="42.678051888099695" lon="12.672945854246807"><ele>679.0</ele><time>2026-04-19T09:17:01Z</time></trkpt><trkpt lat="42.67797501565079" lon="12.672861413525494"><ele>679.0</ele><time>2026-04-19T09:17:03Z</time></trkpt><trkpt lat="42.67789721214175" lon="12.67278806917601"><ele>678.6666666666667</ele><time>2026-04-19T09:17:05Z</time></trkpt><trkpt lat="42.67782037238971" lon="12.672689840402914"><ele>678.3333333333334</ele><time>2026-04-19T09:17:07Z</time></trkpt><trkpt lat="42.677771181645724" lon="12.672625810264815"><ele>678.0</ele><time>2026-04-19T09:17:08Z</time></trkpt><trkpt lat="42.67772220562835" lon="12.672571430702407"><ele>677.6666666666666</ele><time>2026-04-19T09:17:09Z</time></trkpt><trkpt lat="42.677665891100204" lon="12.672521570514373"><ele>677.3333333333333</ele><time>2026-04-19T09:17:10Z</time></trkpt><trkpt lat="42.67757946181643" lon="12.672453707248588"><ele>677.0</ele><time>2026-04-19T09:17:12Z</time></trkpt><trkpt lat="42.6775129527453" lon="12.672390924089271"><ele>676.9999999999999</ele><time>2026-04-19T09:17:14Z</time></trkpt><trkpt lat="42.6774604719431" lon="12.672338848076636"><ele>677.0</ele><time>2026-04-19T09:17:15Z</time></trkpt><trkpt lat="42.67740674666141" lon="12.672266435806069"><ele>677.0</ele><time>2026-04-19T09:17:18Z</time></trkpt><trkpt lat="42.67733764109356" lon="12.672284988001232"><ele>677.0</ele><time>2026-04-19T09:17:22Z</time></trkpt><trkpt lat="42.6772659240504" lon="12.672259599702729"><ele>677.0</ele><time>2026-04-19T09:17:26Z</time></trkpt><trkpt lat="42.67720156319537" lon="12.672192890840304"><ele>676.9999999999999</ele><time>2026-04-19T09:17:29Z</time></trkpt><trkpt lat="42.677135370232584" lon="12.672144638165024"><ele>677.0</ele><time>2026-04-19T09:17:32Z</time></trkpt><trkpt lat="42.67711727136449" lon="12.672259113218637"><ele>677.0</ele><time>2026-04-19T09:17:45.001Z</time></trkpt><trkpt lat="42.67714513383052" lon="12.672349651633073"><ele>677.0</ele><time>2026-04-19T09:17:49.001Z</time></trkpt><trkpt lat="42.677166086106396" lon="12.672438148981497"><ele>677.0</ele><time>2026-04-19T09:17:51.001Z</time></trkpt><trkpt lat="42.677156852608306" lon="12.672549032359258"><ele>677.0</ele><time>2026-04-19T09:17:53.001Z</time></trkpt><trkpt lat="42.67707055445373" lon="12.67266109122963"><ele>677.0</ele><time>2026-04-19T09:17:55.001Z</time></trkpt><trkpt lat="42.67700440904014" lon="12.67270514264389"><ele>677.0</ele><time>2026-04-19T09:17:58.001Z</time></trkpt><trkpt lat="42.676940334452354" lon="12.67267110367724"><ele>677.0</ele><time>2026-04-19T09:18:01.001Z</time></trkpt><trkpt lat="42.676905491337706" lon="12.672585904263629"><ele>677.0</ele><time>2026-04-19T09:18:05.001Z</time></trkpt><trkpt lat="42.676875160173836" lon="12.672505165824491"><ele>677.0</ele><time>2026-04-19T09:18:13.001Z</time></trkpt><trkpt lat="42.6768322090021" lon="12.67241005000466"><ele>677.0</ele><time>2026-04-19T09:18:15.001Z</time></trkpt><trkpt lat="42.67674989856393" lon="12.672364138265058"><ele>677.0</ele><time>2026-04-19T09:18:17.001Z</time></trkpt><trkpt lat="42.676632382064604" lon="12.672328820451433"><ele>677.0</ele><time>2026-04-19T09:18:19.001Z</time></trkpt><trkpt lat="42.676556571613744" lon="12.672308760058138"><ele>677.0</ele><time>2026-04-19T09:18:20.001Z</time></trkpt><trkpt lat="42.67649596664799" lon="12.672283656363746"><ele>677.0</ele><time>2026-04-19T09:18:21.001Z</time></trkpt><trkpt lat="42.676431922916294" lon="12.67224214226473"><ele>677.0</ele><time>2026-04-19T09:18:22.001Z</time></trkpt><trkpt lat="42.67634977374058" lon="12.672174990889202"><ele>677.0</ele><time>2026-04-19T09:18:24.001Z</time></trkpt><trkpt lat="42.67628300471023" lon="12.672136468024318"><ele>677.0</ele><time>2026-04-19T09:18:25.001Z</time></trkpt><trkpt lat="42.67620816312756" lon="12.672105075134633"><ele>677.0</ele><time>2026-04-19T09:18:26.001Z</time></trkpt><trkpt lat="42.67613555244484" lon="12.672072266358208"><ele>680.0</ele><time>2026-04-19T09:18:27.001Z</time></trkpt><trkpt lat="42.67606063820858" lon="12.672050561936757"><ele>683.0</ele><time>2026-04-19T09:18:28.001Z</time></trkpt><trkpt lat="42.67598744274309" lon="12.672025174694744"><ele>686.0</ele><time>2026-04-19T09:18:29.001Z</time></trkpt><trkpt lat="42.67590430799371" lon="12.671990064017995"><ele>689.0</ele><time>2026-04-19T09:18:30.001Z</time></trkpt><trkpt lat="42.67580741550375" lon="12.671984732930824"><ele>692.0</ele><time>2026-04-19T09:18:32.001Z</time></trkpt><trkpt lat="42.67574612873824" lon="12.67200577338703"><ele>695.0</ele><time>2026-04-19T09:18:33.001Z</time></trkpt><trkpt lat="42.675618278585254" lon="12.672054142975913"><ele>695.0</ele><time>2026-04-19T09:18:35Z</time></trkpt><trkpt lat="42.6755381244335" lon="12.672075365554958"><ele>695.0</ele><time>2026-04-19T09:18:36Z</time></trkpt><trkpt lat="42.675474891991456" lon="12.67209107207251"><ele>695.0</ele><time>2026-04-19T09:18:37Z</time></trkpt><trkpt lat="42.675409775968475" lon="12.672147041398095"><ele>695.0</ele><time>2026-04-19T09:18:38Z</time></trkpt><trkpt lat="42.67536075037924" lon="12.67223892837122"><ele>695.0</ele><time>2026-04-19T09:18:40Z</time></trkpt><trkpt lat="42.675412035809686" lon="12.672357395855151"><ele>695.0</ele><time>2026-04-19T09:18:42Z</time></trkpt><trkpt lat="42.67552252761633" lon="12.67239247769368"><ele>695.0</ele><time>2026-04-19T09:18:44Z</time></trkpt><trkpt lat="42.675618485952626" lon="12.672370859489252"><ele>695.0</ele><time>2026-04-19T09:18:45Z</time></trkpt><trkpt lat="42.675712954041494" lon="12.67237135054763"><ele>695.0</ele><time>2026-04-19T09:18:46Z</time></trkpt><trkpt lat="42.67580618187963" lon="12.672398122919551"><ele>695.0</ele><time>2026-04-19T09:18:47Z</time></trkpt><trkpt lat="42.67587033809461" lon="12.672443910441741"><ele>695.0</ele><time>2026-04-19T09:18:48Z</time></trkpt><trkpt lat="42.67593315024647" lon="12.672583414517504"><ele>695.0</ele><time>2026-04-19T09:18:50Z</time></trkpt><trkpt lat="42.675959924335714" lon="12.672679494921328"><ele>695.0</ele><time>2026-04-19T09:18:51Z</time></trkpt><trkpt lat="42.67598600374344" lon="12.672802970699445"><ele>695.0</ele><time>2026-04-19T09:18:52Z</time></trkpt><trkpt lat="42.67600660755011" lon="12.672933662756197"><ele>695.0</ele><time>2026-04-19T09:18:53Z</time></trkpt><trkpt lat="42.67601176814367" lon="12.673045646566417"><ele>695.0</ele><time>2026-04-19T09:18:54Z</time></trkpt><trkpt lat="42.67601451341772" lon="12.673156546719452"><ele>695.0</ele><time>2026-04-19T09:18:55Z</time></trkpt><trkpt lat="42.67602232720774" lon="12.673300199708196"><ele>694.0</ele><time>2026-04-19T09:18:56Z</time></trkpt><trkpt lat="42.6760403047939" lon="12.673393544511768"><ele>693.0</ele><time>2026-04-19T09:18:57Z</time></trkpt><trkpt lat="42.676084844012486" lon="12.673491105046162"><ele>692.0</ele><time>2026-04-19T09:18:58Z</time></trkpt><trkpt lat="42.676140205913256" lon="12.673592358517594"><ele>691.0</ele><time>2026-04-19T09:18:59Z</time></trkpt><trkpt lat="42.676189698794325" lon="12.673699236085648"><ele>690.0</ele><time>2026-04-19T09:19:00Z</time></trkpt><trkpt lat="42.676255153786386" lon="12.673859566529464"><ele>692.5</ele><time>2026-04-19T09:19:01Z</time></trkpt><trkpt lat="42.67631597942598" lon="12.673983385403753"><ele>695.0</ele><time>2026-04-19T09:19:02Z</time></trkpt><trkpt lat="42.6763585103472" lon="12.674068988288942"><ele>697.5</ele><time>2026-04-19T09:19:03Z</time></trkpt><trkpt lat="42.67639557000955" lon="12.67415939061229"><ele>700.0</ele><time>2026-04-19T09:19:04Z</time></trkpt><trkpt lat="42.67645902086196" lon="12.674226896993966"><ele>702.5</ele><time>2026-04-19T09:19:05Z</time></trkpt><trkpt lat="42.676517026262566" lon="12.674337919361976"><ele>705.0</ele><time>2026-04-19T09:19:06Z</time></trkpt><trkpt lat="42.676550598995384" lon="12.67445117456273"><ele>706.4</ele><time>2026-04-19T09:19:07Z</time></trkpt><trkpt lat="42.67656773707946" lon="12.674586414262837"><ele>707.8</ele><time>2026-04-19T09:19:08Z</time></trkpt><trkpt lat="42.676584019270685" lon="12.674734337957833"><ele>709.2</ele><time>2026-04-19T09:19:09Z</time></trkpt><trkpt lat="42.67661924211691" lon="12.67486664429111"><ele>710.6</ele><time>2026-04-19T09:19:10Z</time></trkpt><trkpt lat="42.6766492019738" lon="12.67497827956069"><ele>712.0</ele><time>2026-04-19T09:19:11Z</time></trkpt><trkpt lat="42.676675043503636" lon="12.67508688924759"><ele>712.0</ele><time>2026-04-19T09:19:12Z</time></trkpt><trkpt lat="42.67667567699154" lon="12.675221561334517"><ele>712.0</ele><time>2026-04-19T09:19:13Z</time></trkpt><trkpt lat="42.67667320252596" lon="12.675363563589048"><ele>712.0</ele><time>2026-04-19T09:19:14Z</time></trkpt><trkpt lat="42.676682758936096" lon="12.67545330614112"><ele>712.0</ele><time>2026-04-19T09:19:15Z</time></trkpt><trkpt lat="42.676602573724765" lon="12.675517275360852"><ele>712.0</ele><time>2026-04-19T09:19:18Z</time></trkpt><trkpt lat="42.676535221236975" lon="12.67545939761813"><ele>712.0</ele><time>2026-04-19T09:19:19Z</time></trkpt><trkpt lat="42.67646295666391" lon="12.675412332913304"><ele>712.3333333333334</ele><time>2026-04-19T09:19:20Z</time></trkpt><trkpt lat="42.67639925994333" lon="12.675409963010082"><ele>712.6666666666667</ele><time>2026-04-19T09:19:21Z</time></trkpt><trkpt lat="42.67632299058108" lon="12.675392562740393"><ele>713.0</ele><time>2026-04-19T09:19:23Z</time></trkpt><trkpt lat="42.67624249251798" lon="12.67535930761363"><ele>713.3333333333334</ele><time>2026-04-19T09:19:24Z</time></trkpt><trkpt lat="42.67617659749471" lon="12.675276142586764"><ele>713.6666666666666</ele><time>2026-04-19T09:19:25Z</time></trkpt><trkpt lat="42.67609527616951" lon="12.675192537092848"><ele>714.0</ele><time>2026-04-19T09:19:26Z</time></trkpt><trkpt lat="42.676000875188066" lon="12.675096467390558"><ele>718.0</ele><time>2026-04-19T09:19:27Z</time></trkpt><trkpt lat="42.67591958882658" lon="12.675024435146176"><ele>722.0</ele><time>2026-04-19T09:19:28Z</time></trkpt><trkpt lat="42.67583771734732" lon="12.674971640214903"><ele>726.0</ele><time>2026-04-19T09:19:29Z</time></trkpt><trkpt lat="42.67575122291853" lon="12.674956466706119"><ele>730.0</ele><time>2026-04-19T09:19:30Z</time></trkpt><trkpt lat="42.675636132064334" lon="12.674956614116866"><ele>734.0</ele><time>2026-04-19T09:19:31Z</time></trkpt><trkpt lat="42.67553621504334" lon="12.674964907530189"><ele>734.0</ele><time>2026-04-19T09:19:32Z</time></trkpt><trkpt lat="42.67543923588731" lon="12.674959608383222"><ele>734.0</ele><time>2026-04-19T09:19:33Z</time></trkpt><trkpt lat="42.67533186722228" lon="12.674913517346134"><ele>734.0</ele><time>2026-04-19T09:19:34Z</time></trkpt><trkpt lat="42.67521170103737" lon="12.674868406570221"><ele>734.0</ele><time>2026-04-19T09:19:35Z</time></trkpt><trkpt lat="42.67511526725029" lon="12.674836124578981"><ele>734.0</ele><time>2026-04-19T09:19:36Z</time></trkpt><trkpt lat="42.67503085750571" lon="12.674846747963745"><ele>737.0</ele><time>2026-04-19T09:19:37.001Z</time></trkpt><trkpt lat="42.67492167919501" lon="12.674821988060193"><ele>740.0</ele><time>2026-04-19T09:19:38.001Z</time></trkpt><trkpt lat="42.67484121664083" lon="12.674729509105825"><ele>743.0</ele><time>2026-04-19T09:19:40.001Z</time></trkpt><trkpt lat="42.67475593037023" lon="12.67472461693187"><ele>746.0</ele><time>2026-04-19T09:19:43.001Z</time></trkpt><trkpt lat="42.67473515180057" lon="12.674863276993781"><ele>749.0</ele><time>2026-04-19T09:19:45.001Z</time></trkpt><trkpt lat="42.674761570775644" lon="12.675028194661971"><ele>749.0</ele><time>2026-04-19T09:19:47.001Z</time></trkpt><trkpt lat="42.67478039560301" lon="12.675176908157999"><ele>749.0</ele><time>2026-04-19T09:19:48.001Z</time></trkpt><trkpt lat="42.674775388329685" lon="12.67533363043522"><ele>749.0</ele><time>2026-04-19T09:19:49.001Z</time></trkpt><trkpt lat="42.674771762148076" lon="12.675477114631942"><ele>749.0</ele><time>2026-04-19T09:19:50.001Z</time></trkpt><trkpt lat="42.67476144071587" lon="12.675573562229944"><ele>749.0</ele><time>2026-04-19T09:19:51.001Z</time></trkpt><trkpt lat="42.674774174287634" lon="12.675741005034231"><ele>750.2</ele><time>2026-04-19T09:19:53.001Z</time></trkpt><trkpt lat="42.67478936339916" lon="12.67592315920901"><ele>751.4000000000001</ele><time>2026-04-19T09:19:55.001Z</time></trkpt><trkpt lat="42.67478512754722" lon="12.676037817021113"><ele>752.6</ele><time>2026-04-19T09:19:56.001Z</time></trkpt><trkpt lat="42.674771120108595" lon="12.676167232551329"><ele>753.8</ele><time>2026-04-19T09:19:57.001Z</time></trkpt><trkpt lat="42.67474904949661" lon="12.676294959240147"><ele>755.0</ele><time>2026-04-19T09:19:58.001Z</time></trkpt><trkpt lat="42.67472377547274" lon="12.676426080382347"><ele>756.4</ele><time>2026-04-19T09:19:59.001Z</time></trkpt><trkpt lat="42.67469931170329" lon="12.67655952679223"><ele>757.8</ele><time>2026-04-19T09:20:00.001Z</time></trkpt><trkpt lat="42.67466717698689" lon="12.6766909564983"><ele>759.2</ele><time>2026-04-19T09:20:01.001Z</time></trkpt><trkpt lat="42.67461702394422" lon="12.676818136991193"><ele>760.6</ele><time>2026-04-19T09:20:02.001Z</time></trkpt><trkpt lat="42.674566596624814" lon="12.676963410751592"><ele>762.0</ele><time>2026-04-19T09:20:03.001Z</time></trkpt><trkpt lat="42.67450804135482" lon="12.677101816570548"><ele>762.3333333333334</ele><time>2026-04-19T09:20:04.001Z</time></trkpt><trkpt lat="42.67445132678749" lon="12.677229548360808"><ele>762.6666666666666</ele><time>2026-04-19T09:20:05.001Z</time></trkpt><trkpt lat="42.67440622680889" lon="12.677328496896838"><ele>763.0</ele><time>2026-04-19T09:20:06.001Z</time></trkpt><trkpt lat="42.674368535214256" lon="12.677406241976843"><ele>763.3333333333333</ele><time>2026-04-19T09:20:07.001Z</time></trkpt><trkpt lat="42.67431740900739" lon="12.677473115859025"><ele>763.6666666666666</ele><time>2026-04-19T09:20:08.001Z</time></trkpt><trkpt lat="42.674241193065086" lon="12.677543321224865"><ele>764.0</ele><time>2026-04-19T09:20:09.001Z</time></trkpt><trkpt lat="42.67419646683497" lon="12.677644229181151"><ele>764.0</ele><time>2026-04-19T09:20:10.001Z</time></trkpt><trkpt lat="42.67411595699224" lon="12.677720771032718"><ele>764.0</ele><time>2026-04-19T09:20:11.001Z</time></trkpt><trkpt lat="42.67402655787171" lon="12.67780705633735"><ele>764.0</ele><time>2026-04-19T09:20:12.001Z</time></trkpt><trkpt lat="42.673940622509136" lon="12.677882500975704"><ele>764.0</ele><time>2026-04-19T09:20:13.001Z</time></trkpt><trkpt lat="42.67384532511731" lon="12.677940512936429"><ele>764.0</ele><time>2026-04-19T09:20:14.001Z</time></trkpt><trkpt lat="42.673729428449384" lon="12.67798476107341"><ele>765.6666666666666</ele><time>2026-04-19T09:20:15.001Z</time></trkpt><trkpt lat="42.67362590747525" lon="12.678031418168278"><ele>767.3333333333333</ele><time>2026-04-19T09:20:16.001Z</time></trkpt><trkpt lat="42.67353897340258" lon="12.678084768436875"><ele>769.0</ele><time>2026-04-19T09:20:17.001Z</time></trkpt><trkpt lat="42.673452794292515" lon="12.678136216896368"><ele>770.6666666666666</ele><time>2026-04-19T09:20:18.001Z</time></trkpt><trkpt lat="42.67337883690949" lon="12.678165366570902"><ele>772.3333333333334</ele><time>2026-04-19T09:20:19.001Z</time></trkpt><trkpt lat="42.67331197705358" lon="12.678195318775488"><ele>774.0</ele><time>2026-04-19T09:20:20.001Z</time></trkpt><trkpt lat="42.67320170116432" lon="12.678279890678205"><ele>774.0</ele><time>2026-04-19T09:20:22.001Z</time></trkpt><trkpt lat="42.67307272497443" lon="12.678299915459126"><ele>774.0</ele><time>2026-04-19T09:20:24.001Z</time></trkpt><trkpt lat="42.67299678176596" lon="12.678302540335931"><ele>774.0</ele><time>2026-04-19T09:20:25.001Z</time></trkpt><trkpt lat="42.67290463784898" lon="12.678339057765115"><ele>774.0</ele><time>2026-04-19T09:20:26.001Z</time></trkpt><trkpt lat="42.6728224676984" lon="12.678391351696298"><ele>774.0</ele><time>2026-04-19T09:20:27.001Z</time></trkpt><trkpt lat="42.67274502976363" lon="12.678461598778183"><ele>775.3333333333334</ele><time>2026-04-19T09:20:28.001Z</time></trkpt><trkpt lat="42.6726841569477" lon="12.678534142137462"><ele>776.6666666666667</ele><time>2026-04-19T09:20:29.001Z</time></trkpt><trkpt lat="42.672633428340845" lon="12.678620340527699"><ele>778.0</ele><time>2026-04-19T09:20:30.001Z</time></trkpt><trkpt lat="42.67258462350204" lon="12.67870989025913"><ele>779.3333333333334</ele><time>2026-04-19T09:20:31.001Z</time></trkpt><trkpt lat="42.672527137095926" lon="12.678783455456445"><ele>780.6666666666667</ele><time>2026-04-19T09:20:32.001Z</time></trkpt><trkpt lat="42.67245448646733" lon="12.6788618948158"><ele>782.0</ele><time>2026-04-19T09:20:33.001Z</time></trkpt><trkpt lat="42.672379237667656" lon="12.678954668479507"><ele>782.6</ele><time>2026-04-19T09:20:34.001Z</time></trkpt><trkpt lat="42.67230187934904" lon="12.679046379078528"><ele>783.2</ele><time>2026-04-19T09:20:35.001Z</time></trkpt><trkpt lat="42.67222330417842" lon="12.679136622991576"><ele>783.8</ele><time>2026-04-19T09:20:36.001Z</time></trkpt><trkpt lat="42.67215209184484" lon="12.67923295380263"><ele>784.4</ele><time>2026-04-19T09:20:37.001Z</time></trkpt><trkpt lat="42.67208058966432" lon="12.679336480421865"><ele>785.0</ele><time>2026-04-19T09:20:38.001Z</time></trkpt><trkpt lat="42.67199118560138" lon="12.67944047767551"><ele>789.2</ele><time>2026-04-19T09:20:39.001Z</time></trkpt><trkpt lat="42.67190473212402" lon="12.679530142974302"><ele>793.4</ele><time>2026-04-19T09:20:40Z</time></trkpt><trkpt lat="42.67181584857938" lon="12.679644533829256"><ele>797.5999999999999</ele><time>2026-04-19T09:20:41Z</time></trkpt><trkpt lat="42.67174302124752" lon="12.679731795575355"><ele>801.8</ele><time>2026-04-19T09:20:42Z</time></trkpt><trkpt lat="42.67170399718868" lon="12.679821830034596"><ele>806.0</ele><time>2026-04-19T09:20:43Z</time></trkpt><trkpt lat="42.67165404060774" lon="12.679972983819702"><ele>806.0</ele><time>2026-04-19T09:20:44Z</time></trkpt><trkpt lat="42.67162496309567" lon="12.680103505502816"><ele>806.0</ele><time>2026-04-19T09:20:45Z</time></trkpt><trkpt lat="42.6716071079113" lon="12.680187267275338"><ele>806.0</ele><time>2026-04-19T09:20:46Z</time></trkpt><trkpt lat="42.67158814767507" lon="12.680273411818828"><ele>806.0</ele><time>2026-04-19T09:20:47Z</time></trkpt><trkpt lat="42.671545927232295" lon="12.68043275856595"><ele>806.0</ele><time>2026-04-19T09:20:48Z</time></trkpt><trkpt lat="42.67146803018681" lon="12.680583004753082"><ele>804.5</ele><time>2026-04-19T09:20:49Z</time></trkpt><trkpt lat="42.67137603443448" lon="12.680742996480525"><ele>803.0</ele><time>2026-04-19T09:20:50Z</time></trkpt><trkpt lat="42.67127916725751" lon="12.680896360222974"><ele>801.5</ele><time>2026-04-19T09:20:51Z</time></trkpt><trkpt lat="42.67123443252189" lon="12.681023148697914"><ele>800.0</ele><time>2026-04-19T09:20:52Z</time></trkpt><trkpt lat="42.6711782244446" lon="12.681162795467039"><ele>799.2</ele><time>2026-04-19T09:20:53Z</time></trkpt><trkpt lat="42.671127351984126" lon="12.681303770421728"><ele>798.4</ele><time>2026-04-19T09:20:54Z</time></trkpt><trkpt lat="42.6710892379661" lon="12.681421910946659"><ele>797.5999999999999</ele><time>2026-04-19T09:20:55Z</time></trkpt><trkpt lat="42.67102776695893" lon="12.681534066729236"><ele>796.8</ele><time>2026-04-19T09:20:56Z</time></trkpt><trkpt lat="42.67095961468308" lon="12.681670686924228"><ele>796.0</ele><time>2026-04-19T09:20:57Z</time></trkpt><trkpt lat="42.67092415282684" lon="12.681826205426452"><ele>802.0</ele><time>2026-04-19T09:20:58Z</time></trkpt><trkpt lat="42.6708915371875" lon="12.681989869542784"><ele>808.0</ele><time>2026-04-19T09:20:59Z</time></trkpt><trkpt lat="42.67086548626362" lon="12.6821460687248"><ele>814.0</ele><time>2026-04-19T09:21:00Z</time></trkpt><trkpt lat="42.67082771215022" lon="12.682283692171904"><ele>820.0</ele><time>2026-04-19T09:21:02Z</time></trkpt><trkpt lat="42.6707680041008" lon="12.68238442351928"><ele>826.0</ele><time>2026-04-19T09:21:03Z</time></trkpt><trkpt lat="42.67068724733563" lon="12.682515821150508"><ele>826.0</ele><time>2026-04-19T09:21:04Z</time></trkpt><trkpt lat="42.67065458115461" lon="12.682627089565738"><ele>826.0</ele><time>2026-04-19T09:21:05Z</time></trkpt><trkpt lat="42.67064459189876" lon="12.68277099411916"><ele>826.0</ele><time>2026-04-19T09:21:06Z</time></trkpt><trkpt lat="42.6706100776694" lon="12.682912335476495"><ele>826.0</ele><time>2026-04-19T09:21:07Z</time></trkpt><trkpt lat="42.670587924170505" lon="12.683030409635299"><ele>826.0</ele><time>2026-04-19T09:21:08Z</time></trkpt><trkpt lat="42.67055727189966" lon="12.683188115277595"><ele>826.0</ele><time>2026-04-19T09:21:09Z</time></trkpt><trkpt lat="42.67051578343835" lon="12.683369032625627"><ele>826.0</ele><time>2026-04-19T09:21:10Z</time></trkpt><trkpt lat="42.6704875139895" lon="12.683530229097027"><ele>826.0</ele><time>2026-04-19T09:21:11Z</time></trkpt><trkpt lat="42.670454652166214" lon="12.683638972535999"><ele>826.0</ele><time>2026-04-19T09:21:12Z</time></trkpt><trkpt lat="42.6704354952564" lon="12.683749449697515"><ele>826.0</ele><time>2026-04-19T09:21:13Z</time></trkpt><trkpt lat="42.67039077374987" lon="12.683837520480504"><ele>826.5999999999999</ele><time>2026-04-19T09:21:14Z</time></trkpt><trkpt lat="42.670317473583296" lon="12.68394373679985"><ele>827.2</ele><time>2026-04-19T09:21:15Z</time></trkpt><trkpt lat="42.67025480405459" lon="12.684071813965392"><ele>827.8</ele><time>2026-04-19T09:21:16Z</time></trkpt><trkpt lat="42.67023741365906" lon="12.68418862193125"><ele>828.4000000000001</ele><time>2026-04-19T09:21:17Z</time></trkpt><trkpt lat="42.67023554848946" lon="12.684306355723495"><ele>829.0</ele><time>2026-04-19T09:21:18Z</time></trkpt><trkpt lat="42.67026206382069" lon="12.68449478131701"><ele>831.2</ele><time>2026-04-19T09:21:19Z</time></trkpt><trkpt lat="42.67029013682521" lon="12.684669403592926"><ele>833.4000000000001</ele><time>2026-04-19T09:21:20Z</time></trkpt><trkpt lat="42.67031323321696" lon="12.684810101171783"><ele>835.6</ele><time>2026-04-19T09:21:21Z</time></trkpt><trkpt lat="42.67033943411609" lon="12.684954805430005"><ele>837.8</ele><time>2026-04-19T09:21:22Z</time></trkpt><trkpt lat="42.67036801870218" lon="12.68507704699649"><ele>840.0</ele><time>2026-04-19T09:21:23Z</time></trkpt><trkpt lat="42.670421495418786" lon="12.68516568270321"><ele>840.0</ele><time>2026-04-19T09:21:24Z</time></trkpt><trkpt lat="42.67053310411027" lon="12.685172084286393"><ele>840.0</ele><time>2026-04-19T09:21:25Z</time></trkpt><trkpt lat="42.67060969148148" lon="12.6852011933779"><ele>840.0</ele><time>2026-04-19T09:21:26Z</time></trkpt><trkpt lat="42.67070403274856" lon="12.685249185426839"><ele>840.0</ele><time>2026-04-19T09:21:28Z</time></trkpt><trkpt lat="42.67071883516839" lon="12.685332609507405"><ele>840.0</ele><time>2026-04-19T09:21:32Z</time></trkpt><trkpt lat="42.67072238736861" lon="12.68541823915072"><ele>840.0</ele><time>2026-04-19T09:21:34Z</time></trkpt><trkpt lat="42.67069740860417" lon="12.68552801879391"><ele>841.8</ele><time>2026-04-19T09:21:35Z</time></trkpt><trkpt lat="42.670643356448565" lon="12.68564627916634"><ele>843.6</ele><time>2026-04-19T09:21:36Z</time></trkpt><trkpt lat="42.67059735200359" lon="12.685772414182475"><ele>845.4000000000001</ele><time>2026-04-19T09:21:37Z</time></trkpt><trkpt lat="42.67052904923232" lon="12.685897231859636"><ele>847.2</ele><time>2026-04-19T09:21:38Z</time></trkpt><trkpt lat="42.670457246330734" lon="12.686010725410842"><ele>849.0</ele><time>2026-04-19T09:21:39Z</time></trkpt><trkpt lat="42.67038610706724" lon="12.686085058437323"><ele>849.3333333333334</ele><time>2026-04-19T09:21:40Z</time></trkpt><trkpt lat="42.67031473934362" lon="12.68615306304568"><ele>849.6666666666667</ele><time>2026-04-19T09:21:41Z</time></trkpt><trkpt lat="42.67026316974688" lon="12.686226065296912"><ele>850.0</ele><time>2026-04-19T09:21:42Z</time></trkpt><trkpt lat="42.670215009622474" lon="12.686315156628442"><ele>850.3333333333334</ele><time>2026-04-19T09:21:43Z</time></trkpt><trkpt lat="42.67017686846885" lon="12.68641056592979"><ele>850.6666666666667</ele><time>2026-04-19T09:21:44Z</time></trkpt><trkpt lat="42.6701365645431" lon="12.686489817151326"><ele>851.0</ele><time>2026-04-19T09:21:45Z</time></trkpt><trkpt lat="42.67003928974472" lon="12.686579474745912"><ele>853.1999999999999</ele><time>2026-04-19T09:22:07.001Z</time></trkpt><trkpt lat="42.66996851147231" lon="12.686655090826823"><ele>855.4</ele><time>2026-04-19T09:22:08.001Z</time></trkpt><trkpt lat="42.669889273156365" lon="12.68678363812532"><ele>857.6</ele><time>2026-04-19T09:22:10.001Z</time></trkpt><trkpt lat="42.66982428417842" lon="12.68687468699805"><ele>859.8</ele><time>2026-04-19T09:22:11.001Z</time></trkpt><trkpt lat="42.669759286115784" lon="12.686957170844687"><ele>862.0</ele><time>2026-04-19T09:22:12.001Z</time></trkpt><trkpt lat="42.66971286737627" lon="12.687019864981533"><ele>861.9999999999999</ele><time>2026-04-19T09:22:13.001Z</time></trkpt><trkpt lat="42.669662476623095" lon="12.68714651206627"><ele>862.0</ele><time>2026-04-19T09:22:15.001Z</time></trkpt><trkpt lat="42.66961886433792" lon="12.687237422747419"><ele>862.0</ele><time>2026-04-19T09:22:18.001Z</time></trkpt><trkpt lat="42.66967374999533" lon="12.687191180251094"><ele>862.0</ele><time>2026-04-19T09:22:24.001Z</time></trkpt><trkpt lat="42.6697227412504" lon="12.687098433185012"><ele>861.9999999999999</ele><time>2026-04-19T09:22:25.001Z</time></trkpt><trkpt lat="42.66977703035463" lon="12.686971729834458"><ele>862.0</ele><time>2026-04-19T09:22:26.001Z</time></trkpt><trkpt lat="42.66984249184222" lon="12.686872169832276"><ele>862.1666666666666</ele><time>2026-04-19T09:22:27.001Z</time></trkpt><trkpt lat="42.669897320765884" lon="12.6867983622088"><ele>862.3333333333333</ele><time>2026-04-19T09:22:28.001Z</time></trkpt><trkpt lat="42.66994873835755" lon="12.686722996479032"><ele>862.5</ele><time>2026-04-19T09:22:29.001Z</time></trkpt><trkpt lat="42.67000795242558" lon="12.686652446199073"><ele>862.6666666666667</ele><time>2026-04-19T09:22:30.001Z</time></trkpt><trkpt lat="42.67006125522359" lon="12.686570680108105"><ele>862.8333333333334</ele><time>2026-04-19T09:22:31.001Z</time></trkpt><trkpt lat="42.67012487480927" lon="12.686505641541059"><ele>863.0</ele><time>2026-04-19T09:22:33.001Z</time></trkpt><trkpt lat="42.67025003676948" lon="12.686576017622041"><ele>862.1666666666667</ele><time>2026-04-19T09:22:37.001Z</time></trkpt><trkpt lat="42.67027997051007" lon="12.686687641903712"><ele>861.3333333333334</ele><time>2026-04-19T09:22:39.001Z</time></trkpt><trkpt lat="42.67028383093718" lon="12.686779401082276"><ele>860.5</ele><time>2026-04-19T09:22:40.001Z</time></trkpt><trkpt lat="42.670285289646344" lon="12.686890982886464"><ele>859.6666666666667</ele><time>2026-04-19T09:22:41.001Z</time></trkpt><trkpt lat="42.670317100287306" lon="12.686989721471033"><ele>858.8333333333334</ele><time>2026-04-19T09:22:42.001Z</time></trkpt><trkpt lat="42.670369679519155" lon="12.68709463528819"><ele>858.0</ele><time>2026-04-19T09:22:43.001Z</time></trkpt><trkpt lat="42.670419450971934" lon="12.687215476880379"><ele>858.0</ele><time>2026-04-19T09:22:44.001Z</time></trkpt><trkpt lat="42.67047523401156" lon="12.68732522146283"><ele>858.0</ele><time>2026-04-19T09:22:45.001Z</time></trkpt><trkpt lat="42.6705381945262" lon="12.687424949402937"><ele>858.0</ele><time>2026-04-19T09:22:45.999Z</time></trkpt><trkpt lat="42.67059450851385" lon="12.687487375086548"><ele>858.0</ele><time>2026-04-19T09:22:46.999Z</time></trkpt><trkpt lat="42.670629321291194" lon="12.687648834905826"><ele>858.0</ele><time>2026-04-19T09:22:48.999Z</time></trkpt><trkpt lat="42.67063570214484" lon="12.687748365472606"><ele>859.4</ele><time>2026-04-19T09:22:49.999Z</time></trkpt><trkpt lat="42.67065461793534" lon="12.687868839335033"><ele>860.8</ele><time>2026-04-19T09:22:50.999Z</time></trkpt><trkpt lat="42.670683187216504" lon="12.687969074875488"><ele>862.2</ele><time>2026-04-19T09:22:51.999Z</time></trkpt><trkpt lat="42.670725837527506" lon="12.688061293739606"><ele>863.6</ele><time>2026-04-19T09:22:52.999Z</time></trkpt><trkpt lat="42.67079088038325" lon="12.6881587129567"><ele>865.0</ele><time>2026-04-19T09:22:53.999Z</time></trkpt><trkpt lat="42.67087689451106" lon="12.688268056697373"><ele>864.9999999999999</ele><time>2026-04-19T09:22:54.999Z</time></trkpt><trkpt lat="42.670949034886725" lon="12.688361627845126"><ele>865.0</ele><time>2026-04-19T09:22:55.999Z</time></trkpt><trkpt lat="42.671006153292765" lon="12.688439200861007"><ele>865.0</ele><time>2026-04-19T09:22:56.999Z</time></trkpt><trkpt lat="42.67105682004806" lon="12.68849864446348"><ele>865.0</ele><time>2026-04-19T09:22:57.999Z</time></trkpt><trkpt lat="42.67110230530228" lon="12.688573647684452"><ele>864.9999999999999</ele><time>2026-04-19T09:22:58.999Z</time></trkpt><trkpt lat="42.671148655788905" lon="12.688659161711152"><ele>865.0</ele><time>2026-04-19T09:22:59.999Z</time></trkpt><trkpt lat="42.67121056100619" lon="12.68874412653201"><ele>866.0</ele><time>2026-04-19T09:23:00.999Z</time></trkpt><trkpt lat="42.67129298634669" lon="12.688822301355941"><ele>867.0</ele><time>2026-04-19T09:23:01.999Z</time></trkpt><trkpt lat="42.671384059231734" lon="12.688901550640528"><ele>868.0</ele><time>2026-04-19T09:23:03Z</time></trkpt><trkpt lat="42.67146597982595" lon="12.68896584154295"><ele>869.0</ele><time>2026-04-19T09:23:04Z</time></trkpt><trkpt lat="42.67153160833005" lon="12.689016581993128"><ele>870.0</ele><time>2026-04-19T09:23:05Z</time></trkpt><trkpt lat="42.67159621039452" lon="12.689074290398757"><ele>870.0</ele><time>2026-04-19T09:23:06Z</time></trkpt><trkpt lat="42.67165893420127" lon="12.689128232524418"><ele>870.0</ele><time>2026-04-19T09:23:07Z</time></trkpt><trkpt lat="42.671772388886716" lon="12.689169340413162"><ele>870.0</ele><time>2026-04-19T09:23:09Z</time></trkpt><trkpt lat="42.67183555640997" lon="12.689161801292276"><ele>870.0</ele><time>2026-04-19T09:23:10Z</time></trkpt><trkpt lat="42.67191117769062" lon="12.689151876419881"><ele>870.0</ele><time>2026-04-19T09:23:11Z</time></trkpt><trkpt lat="42.67200567496086" lon="12.689135305668277"><ele>870.0</ele><time>2026-04-19T09:23:12Z</time></trkpt><trkpt lat="42.67208733492797" lon="12.68912143992849"><ele>870.5</ele><time>2026-04-19T09:23:13Z</time></trkpt><trkpt lat="42.67215155784568" lon="12.689133130914406"><ele>871.0</ele><time>2026-04-19T09:23:14Z</time></trkpt><trkpt lat="42.672215977954075" lon="12.689184134864258"><ele>871.5</ele><time>2026-04-19T09:23:16Z</time></trkpt><trkpt lat="42.672284528280485" lon="12.68909185225293"><ele>872.0</ele><time>2026-04-19T09:23:18Z</time></trkpt><trkpt lat="42.67238079574153" lon="12.689026010515802"><ele>872.5</ele><time>2026-04-19T09:23:20Z</time></trkpt><trkpt lat="42.67245136493362" lon="12.688972568826133"><ele>873.0</ele><time>2026-04-19T09:23:21Z</time></trkpt><trkpt lat="42.672523220145834" lon="12.688935786371518"><ele>873.0</ele><time>2026-04-19T09:23:22Z</time></trkpt><trkpt lat="42.672574928546666" lon="12.688876599524663"><ele>873.0</ele><time>2026-04-19T09:23:24Z</time></trkpt><trkpt lat="42.672639919315294" lon="12.688939199322371"><ele>873.0</ele><time>2026-04-19T09:23:28Z</time></trkpt><trkpt lat="42.67263044925122" lon="12.689077400667834"><ele>873.0</ele><time>2026-04-19T09:23:30Z</time></trkpt><trkpt lat="42.67257733485757" lon="12.689232006209854"><ele>873.0</ele><time>2026-04-19T09:23:32Z</time></trkpt><trkpt lat="42.67253527352864" lon="12.689332571442264"><ele>875.5</ele><time>2026-04-19T09:23:33Z</time></trkpt><trkpt lat="42.672486658963756" lon="12.689429952527542"><ele>878.0</ele><time>2026-04-19T09:23:34Z</time></trkpt><trkpt lat="42.67245206623145" lon="12.689511512088224"><ele>880.5</ele><time>2026-04-19T09:23:35Z</time></trkpt><trkpt lat="42.67244134079209" lon="12.689687657964406"><ele>883.0</ele><time>2026-04-19T09:23:37Z</time></trkpt><trkpt lat="42.672453122649586" lon="12.689796229774627"><ele>885.5</ele><time>2026-04-19T09:23:38Z</time></trkpt><trkpt lat="42.67246427928102" lon="12.689897688887145"><ele>888.0</ele><time>2026-04-19T09:23:39Z</time></trkpt><trkpt lat="42.672472196253864" lon="12.69000406027893"><ele>888.0</ele><time>2026-04-19T09:23:40Z</time></trkpt><trkpt lat="42.672481462753396" lon="12.690093629562229"><ele>888.0</ele><time>2026-04-19T09:23:41Z</time></trkpt><trkpt lat="42.67251941110746" lon="12.690217132436874"><ele>888.0</ele><time>2026-04-19T09:23:43Z</time></trkpt><trkpt lat="42.6725063606464" lon="12.690330861974292"><ele>888.0</ele><time>2026-04-19T09:23:45Z</time></trkpt><trkpt lat="42.6724819236723" lon="12.690461533916096"><ele>888.0</ele><time>2026-04-19T09:23:47Z</time></trkpt><trkpt lat="42.67246463061795" lon="12.690577306399168"><ele>888.0</ele><time>2026-04-19T09:23:49Z</time></trkpt><trkpt lat="42.67245100422995" lon="12.690664257010974"><ele>888.8333333333334</ele><time>2026-04-19T09:23:50Z</time></trkpt><trkpt lat="42.672436947371544" lon="12.690750022972457"><ele>889.6666666666667</ele><time>2026-04-19T09:23:51Z</time></trkpt><trkpt lat="42.672421794842236" lon="12.690846525552775"><ele>890.5</ele><time>2026-04-19T09:23:52Z</time></trkpt><trkpt lat="42.672406874997776" lon="12.690951707827528"><ele>891.3333333333334</ele><time>2026-04-19T09:23:53Z</time></trkpt><trkpt lat="42.67239401021481" lon="12.691061437193401"><ele>892.1666666666667</ele><time>2026-04-19T09:23:54Z</time></trkpt><trkpt lat="42.67237635723158" lon="12.691180009605642"><ele>893.0</ele><time>2026-04-19T09:23:55Z</time></trkpt><trkpt lat="42.67236089917352" lon="12.691291451662028"><ele>894.0</ele><time>2026-04-19T09:23:56Z</time></trkpt><trkpt lat="42.67234334688803" lon="12.691409839348943"><ele>895.0</ele><time>2026-04-19T09:23:57Z</time></trkpt><trkpt lat="42.67233059656962" lon="12.691532637728448"><ele>896.0</ele><time>2026-04-19T09:23:58Z</time></trkpt><trkpt lat="42.672312844913485" lon="12.691662812657203"><ele>897.0</ele><time>2026-04-19T09:23:59Z</time></trkpt><trkpt lat="42.67230557502762" lon="12.691777869677392"><ele>898.0</ele><time>2026-04-19T09:24:00Z</time></trkpt><trkpt lat="42.672285082175364" lon="12.691893872199444"><ele>900.2</ele><time>2026-04-19T09:24:01.001Z</time></trkpt><trkpt lat="42.6722762241395" lon="12.692017257803759"><ele>902.4</ele><time>2026-04-19T09:24:02.001Z</time></trkpt><trkpt lat="42.672270697133875" lon="12.692137466633563"><ele>904.6000000000001</ele><time>2026-04-19T09:24:03.001Z</time></trkpt><trkpt lat="42.67226847789505" lon="12.692262846832564"><ele>906.8000000000001</ele><time>2026-04-19T09:24:04.001Z</time></trkpt><trkpt lat="42.67228079870441" lon="12.69242066610516"><ele>909.0</ele><time>2026-04-19T09:24:06.001Z</time></trkpt><trkpt lat="42.67231074178619" lon="12.692562888169087"><ele>909.0</ele><time>2026-04-19T09:24:08.001Z</time></trkpt><trkpt lat="42.67233688788149" lon="12.69264190989354"><ele>909.0000000000001</ele><time>2026-04-19T09:24:09.001Z</time></trkpt><trkpt lat="42.67237876584489" lon="12.69274814207471"><ele>909.0000000000001</ele><time>2026-04-19T09:24:10.001Z</time></trkpt><trkpt lat="42.67244486062463" lon="12.692856783234195"><ele>909.0</ele><time>2026-04-19T09:24:11.001Z</time></trkpt><trkpt lat="42.67251521480351" lon="12.692964949412682"><ele>909.0</ele><time>2026-04-19T09:24:12.001Z</time></trkpt><trkpt lat="42.67258073384608" lon="12.693071193455733"><ele>908.2</ele><time>2026-04-19T09:24:13.001Z</time></trkpt><trkpt lat="42.67264274753498" lon="12.693181064864381"><ele>907.4000000000001</ele><time>2026-04-19T09:24:14.001Z</time></trkpt><trkpt lat="42.67268802056164" lon="12.693294932099231"><ele>906.6</ele><time>2026-04-19T09:24:15.001Z</time></trkpt><trkpt lat="42.67274343587036" lon="12.693412888669544"><ele>905.8</ele><time>2026-04-19T09:24:16.001Z</time></trkpt><trkpt lat="42.672799899880204" lon="12.693527387465066"><ele>905.0</ele><time>2026-04-19T09:24:17.001Z</time></trkpt><trkpt lat="42.67285699084482" lon="12.693639908405526"><ele>906.8</ele><time>2026-04-19T09:24:18.001Z</time></trkpt><trkpt lat="42.672918705725984" lon="12.693753377083098"><ele>908.6</ele><time>2026-04-19T09:24:19.001Z</time></trkpt><trkpt lat="42.67298884911213" lon="12.693867511703944"><ele>910.4000000000001</ele><time>2026-04-19T09:24:20.001Z</time></trkpt><trkpt lat="42.67305686201367" lon="12.693963268270245"><ele>912.2</ele><time>2026-04-19T09:24:21.001Z</time></trkpt><trkpt lat="42.67310880094267" lon="12.694076562348105"><ele>914.0</ele><time>2026-04-19T09:24:22.001Z</time></trkpt><trkpt lat="42.67315651888831" lon="12.694198692601525"><ele>914.0</ele><time>2026-04-19T09:24:23.001Z</time></trkpt><trkpt lat="42.6732054224921" lon="12.694321603945374"><ele>914.0000000000001</ele><time>2026-04-19T09:24:24.001Z</time></trkpt><trkpt lat="42.673273346338526" lon="12.694450182377826"><ele>914.0000000000001</ele><time>2026-04-19T09:24:25.001Z</time></trkpt><trkpt lat="42.67333928127282" lon="12.694566360064394"><ele>914.0</ele><time>2026-04-19T09:24:26.001Z</time></trkpt><trkpt lat="42.67339775737209" lon="12.694664714306363"><ele>914.0</ele><time>2026-04-19T09:24:27.001Z</time></trkpt><trkpt lat="42.67345766837107" lon="12.694745463773206"><ele>914.4000000000001</ele><time>2026-04-19T09:24:28.001Z</time></trkpt><trkpt lat="42.67351361069531" lon="12.694814520042465"><ele>914.8000000000001</ele><time>2026-04-19T09:24:29.001Z</time></trkpt><trkpt lat="42.67356323727078" lon="12.694897673385276"><ele>915.1999999999999</ele><time>2026-04-19T09:24:30.001Z</time></trkpt><trkpt lat="42.6736122461866" lon="12.695009678058176"><ele>915.5999999999999</ele><time>2026-04-19T09:24:31.001Z</time></trkpt><trkpt lat="42.673668405261665" lon="12.695130363766847"><ele>916.0</ele><time>2026-04-19T09:24:32.001Z</time></trkpt><trkpt lat="42.6737189042644" lon="12.695244455337782"><ele>916.1999999999999</ele><time>2026-04-19T09:24:33.001Z</time></trkpt><trkpt lat="42.673768897881146" lon="12.695348182512623"><ele>916.3999999999999</ele><time>2026-04-19T09:24:34.001Z</time></trkpt><trkpt lat="42.67382001794776" lon="12.69544809475445"><ele>916.6</ele><time>2026-04-19T09:24:35.001Z</time></trkpt><trkpt lat="42.673876115169975" lon="12.69556343091678"><ele>916.8</ele><time>2026-04-19T09:24:36.001Z</time></trkpt><trkpt lat="42.67393477142767" lon="12.695700158865122"><ele>917.0</ele><time>2026-04-19T09:24:37.001Z</time></trkpt><trkpt lat="42.67399281584006" lon="12.695847708219475"><ele>917.0</ele><time>2026-04-19T09:24:38.001Z</time></trkpt><trkpt lat="42.674048263035004" lon="12.695996437207189"><ele>917.0</ele><time>2026-04-19T09:24:39.001Z</time></trkpt><trkpt lat="42.67410230538886" lon="12.69615015672263"><ele>917.0</ele><time>2026-04-19T09:24:40.001Z</time></trkpt><trkpt lat="42.674157090554125" lon="12.696313681289372"><ele>917.0</ele><time>2026-04-19T09:24:41.001Z</time></trkpt><trkpt lat="42.67419729125909" lon="12.696453655641413"><ele>918.5</ele><time>2026-04-19T09:24:42.001Z</time></trkpt><trkpt lat="42.67423325779558" lon="12.696594713166805"><ele>920.0</ele><time>2026-04-19T09:24:43.001Z</time></trkpt><trkpt lat="42.67428782107222" lon="12.696768309904712"><ele>921.5</ele><time>2026-04-19T09:24:44.001Z</time></trkpt><trkpt lat="42.67433310406432" lon="12.696931532139178"><ele>923.0</ele><time>2026-04-19T09:24:45.001Z</time></trkpt><trkpt lat="42.67437653387947" lon="12.697082102434322"><ele>923.0</ele><time>2026-04-19T09:24:46.001Z</time></trkpt><trkpt lat="42.67440415164722" lon="12.697206452534813"><ele>923.0</ele><time>2026-04-19T09:24:47.001Z</time></trkpt><trkpt lat="42.67443311914763" lon="12.697351519258234"><ele>923.0</ele><time>2026-04-19T09:24:48.001Z</time></trkpt><trkpt lat="42.67446308255124" lon="12.697508038232211"><ele>923.0</ele><time>2026-04-19T09:24:49.001Z</time></trkpt><trkpt lat="42.67450574621943" lon="12.697672797084616"><ele>923.4</ele><time>2026-04-19T09:24:50.001Z</time></trkpt><trkpt lat="42.67453450486379" lon="12.697819974357573"><ele>923.8</ele><time>2026-04-19T09:24:51.001Z</time></trkpt><trkpt lat="42.67456615945332" lon="12.697965979548236"><ele>924.2</ele><time>2026-04-19T09:24:51.999Z</time></trkpt><trkpt lat="42.67459083836549" lon="12.698073908932644"><ele>924.6</ele><time>2026-04-19T09:24:52.999Z</time></trkpt><trkpt lat="42.674612737181924" lon="12.698172787130115"><ele>925.0</ele><time>2026-04-19T09:24:53.999Z</time></trkpt><trkpt lat="42.674634220323156" lon="12.698264527807012"><ele>924.9999999999999</ele><time>2026-04-19T09:24:54.999Z</time></trkpt><trkpt lat="42.67465946697207" lon="12.698369137932124"><ele>925.0</ele><time>2026-04-19T09:24:55.999Z</time></trkpt><trkpt lat="42.67467085434942" lon="12.698455011429779"><ele>925.0</ele><time>2026-04-19T09:24:56.999Z</time></trkpt><trkpt lat="42.67466652507477" lon="12.698610587213095"><ele>925.0</ele><time>2026-04-19T09:24:58.999Z</time></trkpt><trkpt lat="42.67465004007795" lon="12.698698217778063"><ele>924.9999999999999</ele><time>2026-04-19T09:24:59.999Z</time></trkpt><trkpt lat="42.67462528595421" lon="12.698791264128038"><ele>925.0</ele><time>2026-04-19T09:25:00.999Z</time></trkpt><trkpt lat="42.674616792282386" lon="12.698881637562009"><ele>925.0</ele><time>2026-04-19T09:25:01.999Z</time></trkpt><trkpt lat="42.67459882354862" lon="12.698968858780843"><ele>925.0</ele><time>2026-04-19T09:25:02.999Z</time></trkpt><trkpt lat="42.674548101958074" lon="12.699078288199729"><ele>925.0</ele><time>2026-04-19T09:25:04.999Z</time></trkpt><trkpt lat="42.67455217681098" lon="12.699182806769281"><ele>925.0</ele><time>2026-04-19T09:25:06.999Z</time></trkpt><trkpt lat="42.67450939715578" lon="12.69932746751748"><ele>925.0</ele><time>2026-04-19T09:25:08.999Z</time></trkpt><trkpt lat="42.674424461029815" lon="12.699418337334372"><ele>923.8333333333333</ele><time>2026-04-19T09:25:10.999Z</time></trkpt><trkpt lat="42.67434563367195" lon="12.699433794120408"><ele>922.6666666666666</ele><time>2026-04-19T09:25:12.999Z</time></trkpt><trkpt lat="42.67429707903462" lon="12.699515476445212"><ele>921.5</ele><time>2026-04-19T09:25:16Z</time></trkpt><trkpt lat="42.67433799746762" lon="12.699583716368549"><ele>920.3333333333333</ele><time>2026-04-19T09:25:18Z</time></trkpt><trkpt lat="42.67439381910078" lon="12.69966954280967"><ele>919.1666666666666</ele><time>2026-04-19T09:25:20Z</time></trkpt><trkpt lat="42.6744324029365" lon="12.699783456498489"><ele>918.0</ele><time>2026-04-19T09:25:22Z</time></trkpt><trkpt lat="42.67446074551065" lon="12.699866721630983"><ele>918.0</ele><time>2026-04-19T09:25:26Z</time></trkpt><trkpt lat="42.67452389014038" lon="12.699939623105383"><ele>918.0</ele><time>2026-04-19T09:25:31Z</time></trkpt><trkpt lat="42.67457459356261" lon="12.700035995317556"><ele>918.0</ele><time>2026-04-19T09:25:40Z</time></trkpt><trkpt lat="42.6746242148724" lon="12.700120679596706"><ele>918.0</ele><time>2026-04-19T09:25:43Z</time></trkpt><trkpt lat="42.674700611062256" lon="12.700195685709076"><ele>918.0</ele><time>2026-04-19T09:25:48Z</time></trkpt><trkpt lat="42.67476938546429" lon="12.700248392869526"><ele>918.0</ele><time>2026-04-19T09:25:53Z</time></trkpt><trkpt lat="42.67482626949834" lon="12.700319470714652"><ele>916.8571428571429</ele><time>2026-04-19T09:25:57Z</time></trkpt><trkpt lat="42.67485583003444" lon="12.70041037310607"><ele>915.7142857142857</ele><time>2026-04-19T09:26:06Z</time></trkpt><trkpt lat="42.6748767787074" lon="12.700493017245957"><ele>914.5714285714286</ele><time>2026-04-19T09:26:12.001Z</time></trkpt><trkpt lat="42.67489992499973" lon="12.700576216679154"><ele>913.4285714285714</ele><time>2026-04-19T09:26:16.001Z</time></trkpt><trkpt lat="42.67487198822159" lon="12.700499132171428"><ele>912.2857142857142</ele><time>2026-04-19T09:27:36Z</time></trkpt><trkpt lat="42.67485349705566" lon="12.700410777572413"><ele>911.1428571428571</ele><time>2026-04-19T09:27:39Z</time></trkpt><trkpt lat="42.67482019138646" lon="12.70032726497713"><ele>910.0</ele><time>2026-04-19T09:28:29.001Z</time></trkpt><trkpt lat="42.67476636447072" lon="12.700257856199874"><ele>911.3333333333333</ele><time>2026-04-19T09:28:41.001Z</time></trkpt><trkpt lat="42.674682709788634" lon="12.700198357078534"><ele>912.6666666666666</ele><time>2026-04-19T09:28:45.001Z</time></trkpt><trkpt lat="42.67461817753072" lon="12.700139072374965"><ele>914.0</ele><time>2026-04-19T09:28:50.001Z</time></trkpt><trkpt lat="42.674574043404" lon="12.70005272339267"><ele>915.3333333333333</ele><time>2026-04-19T09:28:52.001Z</time></trkpt><trkpt lat="42.67451517218916" lon="12.6999441690314"><ele>916.6666666666666</ele><time>2026-04-19T09:28:54.001Z</time></trkpt><trkpt lat="42.674457288433075" lon="12.699859855177026"><ele>918.0</ele><time>2026-04-19T09:28:56.001Z</time></trkpt><trkpt lat="42.67441163691" lon="12.699748542674358"><ele>919.1666666666666</ele><time>2026-04-19T09:28:58.001Z</time></trkpt><trkpt lat="42.674383179681264" lon="12.699655082337244"><ele>920.3333333333333</ele><time>2026-04-19T09:28:59.001Z</time></trkpt><trkpt lat="42.6743409870495" lon="12.699578465595575"><ele>921.5</ele><time>2026-04-19T09:29:01.001Z</time></trkpt><trkpt lat="42.67430672983586" lon="12.699473356845099"><ele>922.6666666666666</ele><time>2026-04-19T09:29:04.998Z</time></trkpt><trkpt lat="42.674358072264866" lon="12.69941819378695"><ele>923.8333333333333</ele><time>2026-04-19T09:29:06.998Z</time></trkpt><trkpt lat="42.67445141934355" lon="12.69939515936144"><ele>925.0</ele><time>2026-04-19T09:29:08.999Z</time></trkpt><trkpt lat="42.67451780814665" lon="12.6993147786502"><ele>924.9999999999999</ele><time>2026-04-19T09:29:11.999Z</time></trkpt><trkpt lat="42.6745440679984" lon="12.699220065353648"><ele>925.0</ele><time>2026-04-19T09:29:13.999Z</time></trkpt><trkpt lat="42.67455430976612" lon="12.699127110314118"><ele>925.0</ele><time>2026-04-19T09:29:15.999Z</time></trkpt><trkpt lat="42.67457825236199" lon="12.699016317632399"><ele>925.0</ele><time>2026-04-19T09:29:17.999Z</time></trkpt><trkpt lat="42.674630218259345" lon="12.698917860081176"><ele>924.9999999999999</ele><time>2026-04-19T09:29:19.999Z</time></trkpt><trkpt lat="42.674654881399036" lon="12.698758882377602"><ele>925.0</ele><time>2026-04-19T09:29:21.999Z</time></trkpt><trkpt lat="42.67465147459066" lon="12.698669941328511"><ele>925.0</ele><time>2026-04-19T09:29:22.999Z</time></trkpt><trkpt lat="42.67463655267801" lon="12.698516321653111"><ele>925.0</ele><time>2026-04-19T09:29:24.999Z</time></trkpt><trkpt lat="42.674644385716206" lon="12.698386983500168"><ele>925.0</ele><time>2026-04-19T09:29:26.999Z</time></trkpt><trkpt lat="42.67463543800877" lon="12.698283765360976"><ele>925.0</ele><time>2026-04-19T09:29:28.999Z</time></trkpt><trkpt lat="42.67459950691793" lon="12.69813521574905"><ele>925.0</ele><time>2026-04-19T09:29:30.999Z</time></trkpt><trkpt lat="42.67457618433311" lon="12.698034445921463"><ele>925.0</ele><time>2026-04-19T09:29:32Z</time></trkpt><trkpt lat="42.6745592923825" lon="12.697909333698359"><ele>925.0</ele><time>2026-04-19T09:29:33Z</time></trkpt><trkpt lat="42.67453443808411" lon="12.697767800176454"><ele>925.0</ele><time>2026-04-19T09:29:34Z</time></trkpt><trkpt lat="42.674504531613664" lon="12.697630035869894"><ele>925.0</ele><time>2026-04-19T09:29:35Z</time></trkpt><trkpt lat="42.67447844990032" lon="12.69751181747847"><ele>925.0</ele><time>2026-04-19T09:29:36Z</time></trkpt><trkpt lat="42.67445524177515" lon="12.697398572887959"><ele>924.6</ele><time>2026-04-19T09:29:37Z</time></trkpt><trkpt lat="42.674428994404366" lon="12.697278591878094"><ele>924.2</ele><time>2026-04-19T09:29:38Z</time></trkpt><trkpt lat="42.67439899074411" lon="12.697146308140018"><ele>923.8</ele><time>2026-04-19T09:29:39Z</time></trkpt><trkpt lat="42.674373643040454" lon="12.697032607593618"><ele>923.4</ele><time>2026-04-19T09:29:40Z</time></trkpt><trkpt lat="42.674338234192994" lon="12.696909267797716"><ele>923.0</ele><time>2026-04-19T09:29:41Z</time></trkpt><trkpt lat="42.674294652215664" lon="12.696773369352995"><ele>923.0</ele><time>2026-04-19T09:29:42Z</time></trkpt><trkpt lat="42.674250537266516" lon="12.696624850566849"><ele>923.0</ele><time>2026-04-19T09:29:43Z</time></trkpt><trkpt lat="42.674215610874555" lon="12.696512225573825"><ele>923.0</ele><time>2026-04-19T09:29:44Z</time></trkpt><trkpt lat="42.67418571709465" lon="12.69640869573141"><ele>923.0</ele><time>2026-04-19T09:29:45Z</time></trkpt><trkpt lat="42.67415170494636" lon="12.696301772172736"><ele>923.0</ele><time>2026-04-19T09:29:46Z</time></trkpt><trkpt lat="42.67411925716752" lon="12.69619220813892"><ele>921.8</ele><time>2026-04-19T09:29:47Z</time></trkpt><trkpt lat="42.674084402362375" lon="12.696084639042233"><ele>920.5999999999999</ele><time>2026-04-19T09:29:48Z</time></trkpt><trkpt lat="42.67404287782877" lon="12.6959766961065"><ele>919.4000000000001</ele><time>2026-04-19T09:29:49Z</time></trkpt><trkpt lat="42.67400294447671" lon="12.695862022623094"><ele>918.2</ele><time>2026-04-19T09:29:50Z</time></trkpt><trkpt lat="42.673952342242686" lon="12.695737064910306"><ele>917.0</ele><time>2026-04-19T09:29:51Z</time></trkpt><trkpt lat="42.67390574115567" lon="12.695618673469411"><ele>917.0</ele><time>2026-04-19T09:29:52Z</time></trkpt><trkpt lat="42.673850232708205" lon="12.695489647512945"><ele>917.0</ele><time>2026-04-19T09:29:53Z</time></trkpt><trkpt lat="42.67378504252789" lon="12.695358972632812"><ele>917.0</ele><time>2026-04-19T09:29:54Z</time></trkpt><trkpt lat="42.673712360820446" lon="12.695231571170202"><ele>917.0</ele><time>2026-04-19T09:29:55Z</time></trkpt><trkpt lat="42.67364689802628" lon="12.695095494506242"><ele>916.75</ele><time>2026-04-19T09:29:56Z</time></trkpt><trkpt lat="42.67358462349443" lon="12.6949625572696"><ele>916.5</ele><time>2026-04-19T09:29:57Z</time></trkpt><trkpt lat="42.67352152320191" lon="12.694818969403197"><ele>916.25</ele><time>2026-04-19T09:29:58Z</time></trkpt><trkpt lat="42.67345605526562" lon="12.694681528751635"><ele>916.0</ele><time>2026-04-19T09:29:59Z</time></trkpt><trkpt lat="42.673387859937" lon="12.69457395466964"><ele>916.0</ele><time>2026-04-19T09:30:00Z</time></trkpt><trkpt lat="42.673313331697784" lon="12.694487856862924"><ele>916.0</ele><time>2026-04-19T09:30:01Z</time></trkpt><trkpt lat="42.67322425784412" lon="12.694367604913595"><ele>916.0</ele><time>2026-04-19T09:30:02Z</time></trkpt><trkpt lat="42.67315120705247" lon="12.694223243184132"><ele>916.0</ele><time>2026-04-19T09:30:03Z</time></trkpt><trkpt lat="42.67309942776123" lon="12.69408502982942"><ele>915.5999999999999</ele><time>2026-04-19T09:30:04.001Z</time></trkpt><trkpt lat="42.673054385133135" lon="12.693963343967743"><ele>915.1999999999999</ele><time>2026-04-19T09:30:05.001Z</time></trkpt><trkpt lat="42.67299853924891" lon="12.693852741971808"><ele>914.8000000000001</ele><time>2026-04-19T09:30:06.001Z</time></trkpt><trkpt lat="42.672922928599945" lon="12.693756521720164"><ele>914.4000000000001</ele><time>2026-04-19T09:30:07.001Z</time></trkpt><trkpt lat="42.67284724076381" lon="12.693628457557681"><ele>914.0</ele><time>2026-04-19T09:30:08.001Z</time></trkpt><trkpt lat="42.67278608417986" lon="12.693506886882725"><ele>914.25</ele><time>2026-04-19T09:30:09.001Z</time></trkpt><trkpt lat="42.67271916075532" lon="12.693362322546978"><ele>914.5</ele><time>2026-04-19T09:30:10.001Z</time></trkpt><trkpt lat="42.67265706022804" lon="12.693225869699774"><ele>914.75</ele><time>2026-04-19T09:30:11.001Z</time></trkpt><trkpt lat="42.672595780614316" lon="12.693092989129852"><ele>915.0</ele><time>2026-04-19T09:30:12.001Z</time></trkpt><trkpt lat="42.67252796850096" lon="12.692969857661597"><ele>915.0</ele><time>2026-04-19T09:30:13.001Z</time></trkpt><trkpt lat="42.67247197661411" lon="12.692881382302096"><ele>915.0</ele><time>2026-04-19T09:30:14.001Z</time></trkpt><trkpt lat="42.672422869056064" lon="12.692795916770374"><ele>915.0</ele><time>2026-04-19T09:30:15.001Z</time></trkpt><trkpt lat="42.67237853482558" lon="12.69271933553797"><ele>915.0</ele><time>2026-04-19T09:30:16.001Z</time></trkpt><trkpt lat="42.6723386017594" lon="12.692645483627281"><ele>915.0</ele><time>2026-04-19T09:30:17.001Z</time></trkpt><trkpt lat="42.67230432168255" lon="12.692573365188846"><ele>915.0</ele><time>2026-04-19T09:30:18.001Z</time></trkpt><trkpt lat="42.67228078848371" lon="12.692466864195378"><ele>913.8</ele><time>2026-04-19T09:30:20.001Z</time></trkpt><trkpt lat="42.67227623714863" lon="12.692351161751663"><ele>912.6</ele><time>2026-04-19T09:30:22.001Z</time></trkpt><trkpt lat="42.67227358497877" lon="12.692247028008607"><ele>911.4000000000001</ele><time>2026-04-19T09:30:24.001Z</time></trkpt><trkpt lat="42.67225470386392" lon="12.692125613076941"><ele>910.2</ele><time>2026-04-19T09:30:26.001Z</time></trkpt><trkpt lat="42.67228294866339" lon="12.691993320375575"><ele>909.0</ele><time>2026-04-19T09:30:28.001Z</time></trkpt><trkpt lat="42.672301829813364" lon="12.691841768976222"><ele>907.1666666666666</ele><time>2026-04-19T09:30:30.001Z</time></trkpt><trkpt lat="42.672311473557734" lon="12.691676880025302"><ele>905.3333333333333</ele><time>2026-04-19T09:30:32.001Z</time></trkpt><trkpt lat="42.67232645548621" lon="12.691580093052751"><ele>903.5</ele><time>2026-04-19T09:30:33.001Z</time></trkpt><trkpt lat="42.672342927042784" lon="12.691474748291686"><ele>901.6666666666666</ele><time>2026-04-19T09:30:34.001Z</time></trkpt><trkpt lat="42.672354659217945" lon="12.691358542323446"><ele>899.8333333333333</ele><time>2026-04-19T09:30:35.001Z</time></trkpt><trkpt lat="42.672372661586465" lon="12.691247290752386"><ele>898.0</ele><time>2026-04-19T09:30:36.001Z</time></trkpt><trkpt lat="42.6723880984526" lon="12.691129211325471"><ele>897.1666666666666</ele><time>2026-04-19T09:30:37.001Z</time></trkpt><trkpt lat="42.67241024532346" lon="12.69098843286356"><ele>896.3333333333333</ele><time>2026-04-19T09:30:38.001Z</time></trkpt><trkpt lat="42.6724360310795" lon="12.6908628921457"><ele>895.5</ele><time>2026-04-19T09:30:39.001Z</time></trkpt><trkpt lat="42.6724490552641" lon="12.690769951225104"><ele>894.6666666666667</ele><time>2026-04-19T09:30:40.001Z</time></trkpt><trkpt lat="42.67245612689437" lon="12.69065810791881"><ele>893.8333333333334</ele><time>2026-04-19T09:30:41.001Z</time></trkpt><trkpt lat="42.67246866602341" lon="12.69054790006057"><ele>893.0</ele><time>2026-04-19T09:30:42.001Z</time></trkpt><trkpt lat="42.67249051572573" lon="12.69043588982932"><ele>893.0000000000001</ele><time>2026-04-19T09:30:43.001Z</time></trkpt><trkpt lat="42.67251120310738" lon="12.69031154984342"><ele>893.0</ele><time>2026-04-19T09:30:44.002Z</time></trkpt><trkpt lat="42.67252358266415" lon="12.690209830548076"><ele>893.0</ele><time>2026-04-19T09:30:45.002Z</time></trkpt><trkpt lat="42.67250840004463" lon="12.69009664739037"><ele>893.0</ele><time>2026-04-19T09:30:47.002Z</time></trkpt><trkpt lat="42.67246017992446" lon="12.69003312597381"><ele>893.0000000000001</ele><time>2026-04-19T09:30:49.002Z</time></trkpt><trkpt lat="42.672398034422145" lon="12.689999018048633"><ele>893.0</ele><time>2026-04-19T09:30:51.002Z</time></trkpt><trkpt lat="42.67232180372869" lon="12.689970657296637"><ele>892.2857142857143</ele><time>2026-04-19T09:30:54.002Z</time></trkpt><trkpt lat="42.67231420240686" lon="12.689878134297832"><ele>891.5714285714287</ele><time>2026-04-19T09:30:57.002Z</time></trkpt><trkpt lat="42.672353166108316" lon="12.689766776036768"><ele>890.8571428571429</ele><time>2026-04-19T09:31:00.002Z</time></trkpt><trkpt lat="42.6723746521476" lon="12.689685338785601"><ele>890.1428571428571</ele><time>2026-04-19T09:31:04.002Z</time></trkpt><trkpt lat="42.67239238091683" lon="12.689596227972123"><ele>889.4285714285714</ele><time>2026-04-19T09:31:08.002Z</time></trkpt><trkpt lat="42.672403377128944" lon="12.68948414707456"><ele>888.7142857142857</ele><time>2026-04-19T09:31:10.998Z</time></trkpt><trkpt lat="42.67241588102799" lon="12.689383790057013"><ele>888.0</ele><time>2026-04-19T09:31:15.998Z</time></trkpt><trkpt lat="42.672463158152595" lon="12.689282427011129"><ele>885.5</ele><time>2026-04-19T09:31:17.998Z</time></trkpt><trkpt lat="42.67250001443329" lon="12.689207435419084"><ele>883.0</ele><time>2026-04-19T09:31:18.999Z</time></trkpt><trkpt lat="42.672560064977084" lon="12.689082590788306"><ele>880.5</ele><time>2026-04-19T09:31:20.999Z</time></trkpt><trkpt lat="42.672584271102906" lon="12.688999926579775"><ele>878.0</ele><time>2026-04-19T09:31:21.999Z</time></trkpt><trkpt lat="42.67260098683787" lon="12.688914933779747"><ele>875.5</ele><time>2026-04-19T09:31:22.999Z</time></trkpt><trkpt lat="42.67261723277632" lon="12.68881791458684"><ele>873.0</ele><time>2026-04-19T09:31:23.999Z</time></trkpt><trkpt lat="42.67262741721943" lon="12.688720147210702"><ele>869.5999999999999</ele><time>2026-04-19T09:31:24.999Z</time></trkpt><trkpt lat="42.672663005813135" lon="12.688564764792043"><ele>866.1999999999999</ele><time>2026-04-19T09:31:26.999Z</time></trkpt><trkpt lat="42.67271774482585" lon="12.688464577182009"><ele>862.8</ele><time>2026-04-19T09:31:28.999Z</time></trkpt><trkpt lat="42.672786226527975" lon="12.688397183969359"><ele>859.4</ele><time>2026-04-19T09:31:30.999Z</time></trkpt><trkpt lat="42.67283780991864" lon="12.688331670028978"><ele>856.0</ele><time>2026-04-19T09:31:31.999Z</time></trkpt><trkpt lat="42.67289232995164" lon="12.688237044856786"><ele>853.8333333333333</ele><time>2026-04-19T09:31:32.999Z</time></trkpt><trkpt lat="42.67294951853574" lon="12.688126510872953"><ele>851.6666666666666</ele><time>2026-04-19T09:31:33.999Z</time></trkpt><trkpt lat="42.67299666200169" lon="12.688005233222247"><ele>849.5</ele><time>2026-04-19T09:31:35.999Z</time></trkpt><trkpt lat="42.67302505196863" lon="12.687910947830204"><ele>847.3333333333333</ele><time>2026-04-19T09:31:37.999Z</time></trkpt><trkpt lat="42.673053704930766" lon="12.687819260340671"><ele>845.1666666666666</ele><time>2026-04-19T09:31:41Z</time></trkpt><trkpt lat="42.67312996287311" lon="12.687871231454942"><ele>843.0</ele><time>2026-04-19T09:31:44Z</time></trkpt><trkpt lat="42.67320544703646" lon="12.687890850337656"><ele>843.0</ele><time>2026-04-19T09:31:46Z</time></trkpt><trkpt lat="42.673294533074866" lon="12.687860604858376"><ele>843.0</ele><time>2026-04-19T09:31:48Z</time></trkpt><trkpt lat="42.67334797644181" lon="12.687812451369469"><ele>843.0</ele><time>2026-04-19T09:31:49Z</time></trkpt><trkpt lat="42.67339511394714" lon="12.6877517534936"><ele>843.0</ele><time>2026-04-19T09:31:50Z</time></trkpt><trkpt lat="42.67348520451764" lon="12.687653250527694"><ele>843.0</ele><time>2026-04-19T09:31:52Z</time></trkpt><trkpt lat="42.67357270547721" lon="12.687577422084097"><ele>843.0</ele><time>2026-04-19T09:31:54Z</time></trkpt><trkpt lat="42.67362672288504" lon="12.687518920514886"><ele>839.4</ele><time>2026-04-19T09:31:55Z</time></trkpt><trkpt lat="42.6737063854935" lon="12.687408709532399"><ele>835.8</ele><time>2026-04-19T09:31:57Z</time></trkpt><trkpt lat="42.673792342762184" lon="12.687316466462926"><ele>832.2</ele><time>2026-04-19T09:31:59Z</time></trkpt><trkpt lat="42.67386478858656" lon="12.687204006740568"><ele>828.6</ele><time>2026-04-19T09:32:01Z</time></trkpt><trkpt lat="42.673945238946935" lon="12.68713245531576"><ele>825.0</ele><time>2026-04-19T09:32:03Z</time></trkpt><trkpt lat="42.674053702573374" lon="12.687138708542562"><ele>825.0</ele><time>2026-04-19T09:32:05Z</time></trkpt><trkpt lat="42.674124173118756" lon="12.687138533768044"><ele>825.0</ele><time>2026-04-19T09:32:06Z</time></trkpt><trkpt lat="42.67421610346135" lon="12.687087612594029"><ele>825.0</ele><time>2026-04-19T09:32:08.001Z</time></trkpt><trkpt lat="42.67428029404441" lon="12.68703909757107"><ele>825.0</ele><time>2026-04-19T09:32:10.001Z</time></trkpt><trkpt lat="42.67434697578028" lon="12.687032106279545"><ele>825.0</ele><time>2026-04-19T09:32:13.001Z</time></trkpt><trkpt lat="42.67440875135728" lon="12.686974749074817"><ele>825.0</ele><time>2026-04-19T09:32:18.001Z</time></trkpt><trkpt lat="42.67434736017072" lon="12.687038442656622"><ele>825.0</ele><time>2026-04-19T09:32:34.001Z</time></trkpt><trkpt lat="42.674231021495494" lon="12.68707047380853"><ele>825.0</ele><time>2026-04-19T09:32:36.001Z</time></trkpt><trkpt lat="42.67415948934737" lon="12.687101898225174"><ele>825.0</ele><time>2026-04-19T09:32:37.001Z</time></trkpt><trkpt lat="42.67409312559912" lon="12.687135999754563"><ele>825.0</ele><time>2026-04-19T09:32:38.001Z</time></trkpt><trkpt lat="42.67400936233488" lon="12.687156582051701"><ele>825.0</ele><time>2026-04-19T09:32:39.001Z</time></trkpt><trkpt lat="42.673939715022236" lon="12.687170763893054"><ele>825.0</ele><time>2026-04-19T09:32:40.002Z</time></trkpt><trkpt lat="42.67386252662714" lon="12.687221434307828"><ele>825.0</ele><time>2026-04-19T09:32:41.002Z</time></trkpt><trkpt lat="42.67379393745392" lon="12.68729596345225"><ele>825.0</ele><time>2026-04-19T09:32:42.002Z</time></trkpt><trkpt lat="42.6737177806259" lon="12.68738253767959"><ele>825.0</ele><time>2026-04-19T09:32:43.002Z</time></trkpt><trkpt lat="42.67365947536356" lon="12.687464098307794"><ele>825.0</ele><time>2026-04-19T09:32:44.002Z</time></trkpt><trkpt lat="42.67361237734789" lon="12.687546295486351"><ele>825.0</ele><time>2026-04-19T09:32:45.002Z</time></trkpt><trkpt lat="42.673556811542404" lon="12.687627255121928"><ele>825.0</ele><time>2026-04-19T09:32:46.002Z</time></trkpt><trkpt lat="42.67347906728229" lon="12.687684117105391"><ele>828.0</ele><time>2026-04-19T09:32:47.002Z</time></trkpt><trkpt lat="42.6733964096771" lon="12.68776220016795"><ele>831.0</ele><time>2026-04-19T09:32:48.002Z</time></trkpt><trkpt lat="42.67332692895445" lon="12.687827570166743"><ele>834.0</ele><time>2026-04-19T09:32:49.002Z</time></trkpt><trkpt lat="42.673253714819474" lon="12.687864567382023"><ele>837.0</ele><time>2026-04-19T09:32:50.002Z</time></trkpt><trkpt lat="42.67318426118701" lon="12.687884405757192"><ele>840.0</ele><time>2026-04-19T09:32:51.002Z</time></trkpt><trkpt lat="42.67310269165212" lon="12.687905960043452"><ele>843.0</ele><time>2026-04-19T09:32:52.002Z</time></trkpt><trkpt lat="42.673007675064056" lon="12.68794879070638"><ele>843.0</ele><time>2026-04-19T09:32:54.002Z</time></trkpt><trkpt lat="42.67294880469785" lon="12.688090396725794"><ele>843.0</ele><time>2026-04-19T09:32:56.002Z</time></trkpt><trkpt lat="42.672914704940794" lon="12.688185136997179"><ele>843.0</ele><time>2026-04-19T09:32:57.002Z</time></trkpt><trkpt lat="42.672871210835254" lon="12.688270944179237"><ele>843.0</ele><time>2026-04-19T09:32:58.002Z</time></trkpt><trkpt lat="42.672827968986965" lon="12.688340884505388"><ele>843.0</ele><time>2026-04-19T09:32:59.002Z</time></trkpt><trkpt lat="42.672765490184524" lon="12.68838948531164"><ele>843.0</ele><time>2026-04-19T09:33:02.002Z</time></trkpt><trkpt lat="42.67269966242224" lon="12.688440971343978"><ele>845.1666666666666</ele><time>2026-04-19T09:33:09.002Z</time></trkpt><trkpt lat="42.67270116214986" lon="12.68854657142638"><ele>847.3333333333333</ele><time>2026-04-19T09:33:11.002Z</time></trkpt><trkpt lat="42.672658195089795" lon="12.688652815781772"><ele>849.5</ele><time>2026-04-19T09:33:13.002Z</time></trkpt><trkpt lat="42.67263398894814" lon="12.68875262237933"><ele>851.6666666666666</ele><time>2026-04-19T09:33:14.003Z</time></trkpt><trkpt lat="42.672621283473354" lon="12.688837399177785"><ele>853.8333333333333</ele><time>2026-04-19T09:33:15.003Z</time></trkpt><trkpt lat="42.67254719898749" lon="12.688948140757766"><ele>856.0</ele><time>2026-04-19T09:33:16.999Z</time></trkpt><trkpt lat="42.67242885626858" lon="12.689006859427337"><ele>858.8333333333333</ele><time>2026-04-19T09:33:18.999Z</time></trkpt><trkpt lat="42.67236133345261" lon="12.689051310298709"><ele>861.6666666666666</ele><time>2026-04-19T09:33:19.999Z</time></trkpt><trkpt lat="42.6722885106756" lon="12.689099200117944"><ele>864.5</ele><time>2026-04-19T09:33:21Z</time></trkpt><trkpt lat="42.6721899592114" lon="12.68917345429656"><ele>867.3333333333333</ele><time>2026-04-19T09:33:23Z</time></trkpt><trkpt lat="42.6721160877469" lon="12.689148958051563"><ele>870.1666666666666</ele><time>2026-04-19T09:33:27Z</time></trkpt><trkpt lat="42.67205323972895" lon="12.689132494603495"><ele>873.0</ele><time>2026-04-19T09:33:28Z</time></trkpt><trkpt lat="42.671989277623055" lon="12.689145522826289"><ele>872.5</ele><time>2026-04-19T09:33:29Z</time></trkpt><trkpt lat="42.671921982879105" lon="12.68915718612673"><ele>872.0</ele><time>2026-04-19T09:33:30Z</time></trkpt><trkpt lat="42.671798045675125" lon="12.68916599697663"><ele>871.5</ele><time>2026-04-19T09:33:32Z</time></trkpt><trkpt lat="42.67170107743897" lon="12.689154062113863"><ele>871.0</ele><time>2026-04-19T09:33:34Z</time></trkpt><trkpt lat="42.67162654116109" lon="12.689105561699328"><ele>870.5</ele><time>2026-04-19T09:33:37Z</time></trkpt><trkpt lat="42.67156125521275" lon="12.689062900937863"><ele>870.0</ele><time>2026-04-19T09:33:39Z</time></trkpt><trkpt lat="42.671461579658605" lon="12.688949006573752"><ele>870.0</ele><time>2026-04-19T09:33:41Z</time></trkpt><trkpt lat="42.6713842554863" lon="12.688892764563006"><ele>870.0</ele><time>2026-04-19T09:33:42Z</time></trkpt><trkpt lat="42.67129723746321" lon="12.688820225901901"><ele>870.0</ele><time>2026-04-19T09:33:43Z</time></trkpt><trkpt lat="42.671211081737475" lon="12.688722139158697"><ele>870.0</ele><time>2026-04-19T09:33:44Z</time></trkpt><trkpt lat="42.67113806879278" lon="12.688637125003169"><ele>870.0</ele><time>2026-04-19T09:33:45Z</time></trkpt><trkpt lat="42.671087988531085" lon="12.688559498794952"><ele>869.0</ele><time>2026-04-19T09:33:46Z</time></trkpt><trkpt lat="42.67103884894912" lon="12.688472367305422"><ele>868.0</ele><time>2026-04-19T09:33:47Z</time></trkpt><trkpt lat="42.67097816088822" lon="12.688383619438602"><ele>867.0</ele><time>2026-04-19T09:33:48Z</time></trkpt><trkpt lat="42.67090435522702" lon="12.688301245654872"><ele>866.0</ele><time>2026-04-19T09:33:49Z</time></trkpt><trkpt lat="42.67082905570885" lon="12.688205131062203"><ele>865.0</ele><time>2026-04-19T09:33:50.001Z</time></trkpt><trkpt lat="42.67076121892222" lon="12.688102145420944"><ele>864.9999999999999</ele><time>2026-04-19T09:33:51.001Z</time></trkpt><trkpt lat="42.670705614317804" lon="12.688013737398265"><ele>865.0</ele><time>2026-04-19T09:33:52.001Z</time></trkpt><trkpt lat="42.67066723882124" lon="12.687919499273342"><ele>865.0</ele><time>2026-04-19T09:33:53.001Z</time></trkpt><trkpt lat="42.67063928202108" lon="12.687812823710539"><ele>865.0</ele><time>2026-04-19T09:33:54.001Z</time></trkpt><trkpt lat="42.67063283150945" lon="12.687709985529615"><ele>864.9999999999999</ele><time>2026-04-19T09:33:55.001Z</time></trkpt><trkpt lat="42.67063225356937" lon="12.687562708430175"><ele>865.0</ele><time>2026-04-19T09:33:57.001Z</time></trkpt><trkpt lat="42.67057523021537" lon="12.68742243988219"><ele>863.6</ele><time>2026-04-19T09:33:59.001Z</time></trkpt><trkpt lat="42.67050837172362" lon="12.68733692274631"><ele>862.2</ele><time>2026-04-19T09:34:00.001Z</time></trkpt><trkpt lat="42.67044307407687" lon="12.687248628454276"><ele>860.8</ele><time>2026-04-19T09:34:01.001Z</time></trkpt><trkpt lat="42.67039035349309" lon="12.687096991057548"><ele>859.4</ele><time>2026-04-19T09:34:03.001Z</time></trkpt><trkpt lat="42.67034713238788" lon="12.686987924345926"><ele>858.0</ele><time>2026-04-19T09:34:04.001Z</time></trkpt><trkpt lat="42.67033108966871" lon="12.686865645507202"><ele>859.0</ele><time>2026-04-19T09:34:05.001Z</time></trkpt><trkpt lat="42.670316203242294" lon="12.686742055265245"><ele>860.0</ele><time>2026-04-19T09:34:06.001Z</time></trkpt><trkpt lat="42.67029912426261" lon="12.6866297331192"><ele>861.0</ele><time>2026-04-19T09:34:08.001Z</time></trkpt><trkpt lat="42.67021571291565" lon="12.686572272527924"><ele>862.0</ele><time>2026-04-19T09:34:10.001Z</time></trkpt><trkpt lat="42.670151396596225" lon="12.68652566693842"><ele>863.0</ele><time>2026-04-19T09:34:14.001Z</time></trkpt><trkpt lat="42.67004518416684" lon="12.686592018283823"><ele>863.0000000000001</ele><time>2026-04-19T09:34:17.001Z</time></trkpt><trkpt lat="42.66998946762861" lon="12.686668977679085"><ele>863.0</ele><time>2026-04-19T09:34:18.001Z</time></trkpt><trkpt lat="42.669915996464006" lon="12.686752196459576"><ele>863.0</ele><time>2026-04-19T09:34:19.001Z</time></trkpt><trkpt lat="42.66986325436605" lon="12.686854245403307"><ele>863.0</ele><time>2026-04-19T09:34:20.001Z</time></trkpt><trkpt lat="42.66980727711175" lon="12.68694420226168"><ele>863.0000000000001</ele><time>2026-04-19T09:34:21.001Z</time></trkpt><trkpt lat="42.66975403786863" lon="12.687014154594678"><ele>863.0</ele><time>2026-04-19T09:34:22.002Z</time></trkpt><trkpt lat="42.66971397709652" lon="12.687092316241161"><ele>862.8</ele><time>2026-04-19T09:34:23.002Z</time></trkpt><trkpt lat="42.66966018545923" lon="12.68723147978563"><ele>862.5999999999999</ele><time>2026-04-19T09:34:25.002Z</time></trkpt><trkpt lat="42.669643756477186" lon="12.687346736136615"><ele>862.4000000000001</ele><time>2026-04-19T09:34:27.002Z</time></trkpt><trkpt lat="42.669604568103786" lon="12.687443528306924"><ele>862.2</ele><time>2026-04-19T09:34:46.002Z</time></trkpt><trkpt lat="42.669595989056845" lon="12.687585463676077"><ele>862.0</ele><time>2026-04-19T09:34:48.002Z</time></trkpt><trkpt lat="42.66957487527401" lon="12.687690806766737"><ele>861.9999999999999</ele><time>2026-04-19T09:34:50.002Z</time></trkpt><trkpt lat="42.669504828162" lon="12.68770936349506"><ele>862.0</ele><time>2026-04-19T09:34:52.002Z</time></trkpt><trkpt lat="42.66942577873934" lon="12.687625393176612"><ele>862.0</ele><time>2026-04-19T09:34:54.002Z</time></trkpt><trkpt lat="42.66936045169712" lon="12.687587945897327"><ele>862.0</ele><time>2026-04-19T09:34:55.003Z</time></trkpt><trkpt lat="42.669290571040676" lon="12.68758308386512"><ele>861.9999999999999</ele><time>2026-04-19T09:34:56.003Z</time></trkpt><trkpt lat="42.669225285537884" lon="12.687627677658977"><ele>862.0</ele><time>2026-04-19T09:34:57.003Z</time></trkpt><trkpt lat="42.66916250754521" lon="12.68769802403244"><ele>860.4000000000001</ele><time>2026-04-19T09:34:58.003Z</time></trkpt><trkpt lat="42.66916056389239" lon="12.687795831172936"><ele>858.8000000000001</ele><time>2026-04-19T09:34:59.003Z</time></trkpt><trkpt lat="42.669120849140796" lon="12.687948283247087"><ele>857.2</ele><time>2026-04-19T09:35:01.003Z</time></trkpt><trkpt lat="42.669084094539016" lon="12.688027394994982"><ele>855.6</ele><time>2026-04-19T09:35:02.003Z</time></trkpt><trkpt lat="42.669040863314244" lon="12.688131945668259"><ele>854.0</ele><time>2026-04-19T09:35:03.003Z</time></trkpt><trkpt lat="42.668984747614786" lon="12.688255521612652"><ele>854.0000000000001</ele><time>2026-04-19T09:35:04.003Z</time></trkpt><trkpt lat="42.66892327914335" lon="12.688377181273319"><ele>854.0</ele><time>2026-04-19T09:35:05.003Z</time></trkpt><trkpt lat="42.668872663706566" lon="12.688464582824878"><ele>854.0</ele><time>2026-04-19T09:35:06.003Z</time></trkpt><trkpt lat="42.66882410732053" lon="12.688538957867456"><ele>854.0</ele><time>2026-04-19T09:35:07.003Z</time></trkpt><trkpt lat="42.6687279075919" lon="12.688580130188587"><ele>854.0000000000001</ele><time>2026-04-19T09:35:09.003Z</time></trkpt><trkpt lat="42.66865860861119" lon="12.688615913910427"><ele>854.0</ele><time>2026-04-19T09:35:10.003Z</time></trkpt><trkpt lat="42.668590867304594" lon="12.688674356627935"><ele>855.5</ele><time>2026-04-19T09:35:11.003Z</time></trkpt><trkpt lat="42.66852737722592" lon="12.688776138913134"><ele>857.0</ele><time>2026-04-19T09:35:12.003Z</time></trkpt><trkpt lat="42.66844931306205" lon="12.688911660553067"><ele>858.5</ele><time>2026-04-19T09:35:14.003Z</time></trkpt><trkpt lat="42.66837687447697" lon="12.689019662313331"><ele>860.0</ele><time>2026-04-19T09:35:15.003Z</time></trkpt><trkpt lat="42.66829343341907" lon="12.689162769364895"><ele>860.0000000000001</ele><time>2026-04-19T09:35:16.003Z</time></trkpt><trkpt lat="42.66822038008258" lon="12.689286493524408"><ele>860.0</ele><time>2026-04-19T09:35:17.003Z</time></trkpt><trkpt lat="42.66815313114009" lon="12.689389400195529"><ele>860.0</ele><time>2026-04-19T09:35:18.003Z</time></trkpt><trkpt lat="42.66809030280566" lon="12.689448201841742"><ele>860.0</ele><time>2026-04-19T09:35:19.003Z</time></trkpt><trkpt lat="42.66803326894185" lon="12.689497566361624"><ele>860.0000000000001</ele><time>2026-04-19T09:35:20.003Z</time></trkpt><trkpt lat="42.66796999059273" lon="12.689554051559444"><ele>860.0</ele><time>2026-04-19T09:35:21.003Z</time></trkpt><trkpt lat="42.6679102754711" lon="12.689614774419635"><ele>859.5</ele><time>2026-04-19T09:35:22Z</time></trkpt><trkpt lat="42.66785008175446" lon="12.689737029248251"><ele>859.0</ele><time>2026-04-19T09:35:24Z</time></trkpt><trkpt lat="42.66780340195833" lon="12.689874985162144"><ele>858.5</ele><time>2026-04-19T09:35:26Z</time></trkpt><trkpt lat="42.667734663623264" lon="12.690011692325143"><ele>858.0</ele><time>2026-04-19T09:35:28Z</time></trkpt><trkpt lat="42.66770625558902" lon="12.690165035566979"><ele>857.1428571428571</ele><time>2026-04-19T09:35:30Z</time></trkpt><trkpt lat="42.6676702612929" lon="12.69024062168971"><ele>856.2857142857143</ele><time>2026-04-19T09:35:31Z</time></trkpt><trkpt lat="42.66764974505732" lon="12.690334889615201"><ele>855.4285714285713</ele><time>2026-04-19T09:35:32Z</time></trkpt><trkpt lat="42.66761270616047" lon="12.69040694766693"><ele>854.5714285714286</ele><time>2026-04-19T09:35:33Z</time></trkpt><trkpt lat="42.667547903987185" lon="12.690443437107994"><ele>853.7142857142857</ele><time>2026-04-19T09:35:34Z</time></trkpt><trkpt lat="42.66748186931849" lon="12.690518672203032"><ele>852.8571428571428</ele><time>2026-04-19T09:35:35Z</time></trkpt><trkpt lat="42.66740891154342" lon="12.690571888359214"><ele>852.0</ele><time>2026-04-19T09:35:36Z</time></trkpt><trkpt lat="42.66733998104241" lon="12.690632962900194"><ele>850.6666666666666</ele><time>2026-04-19T09:35:37Z</time></trkpt><trkpt lat="42.66727762763603" lon="12.690703914457686"><ele>849.3333333333333</ele><time>2026-04-19T09:35:38Z</time></trkpt><trkpt lat="42.667220616050365" lon="12.690789128420164"><ele>848.0</ele><time>2026-04-19T09:35:39Z</time></trkpt><trkpt lat="42.66718266202763" lon="12.690892100516924"><ele>846.6666666666666</ele><time>2026-04-19T09:35:40Z</time></trkpt><trkpt lat="42.667150267555215" lon="12.691009006320265"><ele>845.3333333333333</ele><time>2026-04-19T09:35:41Z</time></trkpt><trkpt lat="42.66710719518174" lon="12.691079284549646"><ele>844.0</ele><time>2026-04-19T09:35:42Z</time></trkpt><trkpt lat="42.6670435879512" lon="12.691175548483432"><ele>843.1666666666666</ele><time>2026-04-19T09:35:43Z</time></trkpt><trkpt lat="42.6669845936516" lon="12.691289311197"><ele>842.3333333333333</ele><time>2026-04-19T09:35:44Z</time></trkpt><trkpt lat="42.66695705087124" lon="12.691401663045802"><ele>841.5</ele><time>2026-04-19T09:35:45Z</time></trkpt><trkpt lat="42.6669313759403" lon="12.691497773635223"><ele>840.6666666666667</ele><time>2026-04-19T09:35:46Z</time></trkpt><trkpt lat="42.66691884469616" lon="12.691591334983611"><ele>839.8333333333334</ele><time>2026-04-19T09:35:47Z</time></trkpt><trkpt lat="42.66692996114137" lon="12.691690395995032"><ele>839.0</ele><time>2026-04-19T09:35:48Z</time></trkpt><trkpt lat="42.66695919347473" lon="12.691812452812353"><ele>838.8000000000001</ele><time>2026-04-19T09:35:49Z</time></trkpt><trkpt lat="42.66696867751108" lon="12.691943858189642"><ele>838.6</ele><time>2026-04-19T09:35:50Z</time></trkpt><trkpt lat="42.666962329674455" lon="12.692076446000712"><ele>838.4</ele><time>2026-04-19T09:35:51Z</time></trkpt><trkpt lat="42.66697251303685" lon="12.692190750879966"><ele>838.2</ele><time>2026-04-19T09:35:52Z</time></trkpt><trkpt lat="42.667003365570494" lon="12.692297093749348"><ele>838.0</ele><time>2026-04-19T09:35:53Z</time></trkpt><trkpt lat="42.6670556931244" lon="12.69239152048138"><ele>837.9999999999999</ele><time>2026-04-19T09:35:54Z</time></trkpt><trkpt lat="42.667082241852164" lon="12.692483547185056"><ele>838.0</ele><time>2026-04-19T09:35:55.001Z</time></trkpt><trkpt lat="42.66710482557722" lon="12.692664776648822"><ele>838.0</ele><time>2026-04-19T09:35:57.001Z</time></trkpt><trkpt lat="42.667120602551364" lon="12.692799994027062"><ele>838.0</ele><time>2026-04-19T09:35:58.001Z</time></trkpt><trkpt lat="42.6671555542347" lon="12.692883785200516"><ele>837.9999999999999</ele><time>2026-04-19T09:35:59.001Z</time></trkpt><trkpt lat="42.667209019754374" lon="12.692943493179515"><ele>838.0</ele><time>2026-04-19T09:36:00.001Z</time></trkpt><trkpt lat="42.667253349495695" lon="12.69300863820655"><ele>838.4</ele><time>2026-04-19T09:36:02.001Z</time></trkpt><trkpt lat="42.667267295317764" lon="12.693094778432368"><ele>838.8</ele><time>2026-04-19T09:36:03.001Z</time></trkpt><trkpt lat="42.667249353981276" lon="12.693207954866171"><ele>839.2</ele><time>2026-04-19T09:36:04.001Z</time></trkpt><trkpt lat="42.66726495273999" lon="12.693348028627277"><ele>839.6</ele><time>2026-04-19T09:36:05.001Z</time></trkpt><trkpt lat="42.667276352359714" lon="12.693501281859186"><ele>840.0</ele><time>2026-04-19T09:36:06.001Z</time></trkpt><trkpt lat="42.667304759998025" lon="12.693612551463637"><ele>839.0</ele><time>2026-04-19T09:36:07.001Z</time></trkpt><trkpt lat="42.66733346083729" lon="12.693698250088255"><ele>838.0</ele><time>2026-04-19T09:36:08.001Z</time></trkpt><trkpt lat="42.667354090968665" lon="12.693796465876133"><ele>837.0</ele><time>2026-04-19T09:36:09.001Z</time></trkpt><trkpt lat="42.66733669121535" lon="12.69391539200048"><ele>836.0</ele><time>2026-04-19T09:36:10.001Z</time></trkpt><trkpt lat="42.66733617492819" lon="12.694030326084071"><ele>835.0</ele><time>2026-04-19T09:36:11.001Z</time></trkpt><trkpt lat="42.66729487713549" lon="12.694109484124144"><ele>834.0</ele><time>2026-04-19T09:36:12.001Z</time></trkpt><trkpt lat="42.66723815168258" lon="12.694174904234563"><ele>834.0</ele><time>2026-04-19T09:36:13.001Z</time></trkpt><trkpt lat="42.66715010039772" lon="12.6942470949684"><ele>834.0</ele><time>2026-04-19T09:36:14.001Z</time></trkpt><trkpt lat="42.66705806685679" lon="12.694342786637378"><ele>834.0</ele><time>2026-04-19T09:36:15.001Z</time></trkpt><trkpt lat="42.666977142548504" lon="12.694438813479877"><ele>834.0</ele><time>2026-04-19T09:36:16.001Z</time></trkpt><trkpt lat="42.66689988046014" lon="12.694512265086079"><ele>834.0</ele><time>2026-04-19T09:36:17.001Z</time></trkpt><trkpt lat="42.66682314272506" lon="12.694569757618382"><ele>832.8000000000001</ele><time>2026-04-19T09:36:18.001Z</time></trkpt><trkpt lat="42.66672271997789" lon="12.69462521995379"><ele>831.6</ele><time>2026-04-19T09:36:19.001Z</time></trkpt><trkpt lat="42.66660566291106" lon="12.694679411563705"><ele>830.4</ele><time>2026-04-19T09:36:20.001Z</time></trkpt><trkpt lat="42.666503560564244" lon="12.694733433549239"><ele>829.2</ele><time>2026-04-19T09:36:21.001Z</time></trkpt><trkpt lat="42.666415892706596" lon="12.694775882671905"><ele>828.0</ele><time>2026-04-19T09:36:22.001Z</time></trkpt><trkpt lat="42.66631524793345" lon="12.694793015884274"><ele>828.0</ele><time>2026-04-19T09:36:23.001Z</time></trkpt><trkpt lat="42.66621529468844" lon="12.694777114200722"><ele>828.0</ele><time>2026-04-19T09:36:24.001Z</time></trkpt><trkpt lat="42.6661277055367" lon="12.694767368869426"><ele>828.0</ele><time>2026-04-19T09:36:25.001Z</time></trkpt><trkpt lat="42.666047688031135" lon="12.69478087651069"><ele>828.0</ele><time>2026-04-19T09:36:26.002Z</time></trkpt><trkpt lat="42.66597315468043" lon="12.694840749155482"><ele>828.0</ele><time>2026-04-19T09:36:27.002Z</time></trkpt><trkpt lat="42.66588787191599" lon="12.694940637824995"><ele>828.4</ele><time>2026-04-19T09:36:28.002Z</time></trkpt><trkpt lat="42.665812618821235" lon="12.695052209913412"><ele>828.8</ele><time>2026-04-19T09:36:29.002Z</time></trkpt><trkpt lat="42.66574827615659" lon="12.695174651610964"><ele>829.2</ele><time>2026-04-19T09:36:30.002Z</time></trkpt><trkpt lat="42.66568531902285" lon="12.695276260947299"><ele>829.6</ele><time>2026-04-19T09:36:31.002Z</time></trkpt><trkpt lat="42.66562153685596" lon="12.695372156217385"><ele>830.0</ele><time>2026-04-19T09:36:32.002Z</time></trkpt><trkpt lat="42.66553802959839" lon="12.695426178759224"><ele>830.8</ele><time>2026-04-19T09:36:33.002Z</time></trkpt><trkpt lat="42.665478347659345" lon="12.695480637541227"><ele>831.6</ele><time>2026-04-19T09:36:34.002Z</time></trkpt><trkpt lat="42.66538670352732" lon="12.695573229144484"><ele>832.4000000000001</ele><time>2026-04-19T09:36:36.002Z</time></trkpt><trkpt lat="42.66526394916253" lon="12.695535199761478"><ele>833.2</ele><time>2026-04-19T09:36:38.002Z</time></trkpt><trkpt lat="42.66514345384797" lon="12.695495274086454"><ele>834.0</ele><time>2026-04-19T09:36:39.002Z</time></trkpt><trkpt lat="42.66503066175236" lon="12.695454343724577"><ele>834.0</ele><time>2026-04-19T09:36:40.002Z</time></trkpt><trkpt lat="42.66494463676964" lon="12.695418380884716"><ele>834.0</ele><time>2026-04-19T09:36:41.002Z</time></trkpt><trkpt lat="42.66487089753403" lon="12.695389942568612"><ele>834.0</ele><time>2026-04-19T09:36:42.002Z</time></trkpt><trkpt lat="42.66480075900707" lon="12.695357127416646"><ele>834.0</ele><time>2026-04-19T09:36:43.002Z</time></trkpt><trkpt lat="42.664720955410324" lon="12.695338653570266"><ele>834.0</ele><time>2026-04-19T09:36:44.002Z</time></trkpt><trkpt lat="42.66464088800709" lon="12.69531997393573"><ele>834.0</ele><time>2026-04-19T09:36:45.002Z</time></trkpt><trkpt lat="42.66456506021965" lon="12.695316385358048"><ele>834.0</ele><time>2026-04-19T09:36:46.002Z</time></trkpt><trkpt lat="42.664496208028986" lon="12.69533158186036"><ele>834.0</ele><time>2026-04-19T09:36:47.002Z</time></trkpt><trkpt lat="42.66438592939665" lon="12.6953309897847"><ele>834.0</ele><time>2026-04-19T09:36:49.002Z</time></trkpt><trkpt lat="42.6643613924484" lon="12.695201288540813"><ele>834.0</ele><time>2026-04-19T09:36:52.002Z</time></trkpt><trkpt lat="42.664383966752226" lon="12.695032754719982"><ele>834.0</ele><time>2026-04-19T09:36:54.002Z</time></trkpt><trkpt lat="42.66434099675319" lon="12.694882854627155"><ele>831.3333333333334</ele><time>2026-04-19T09:36:56.002Z</time></trkpt><trkpt lat="42.66428578129589" lon="12.69482462193958"><ele>828.6666666666667</ele><time>2026-04-19T09:36:57.002Z</time></trkpt><trkpt lat="42.66421332381416" lon="12.694791278194696"><ele>826.0</ele><time>2026-04-19T09:36:58.002Z</time></trkpt><trkpt lat="42.66413516700055" lon="12.694770064778321"><ele>823.3333333333334</ele><time>2026-04-19T09:36:59.003Z</time></trkpt><trkpt lat="42.664039714026785" lon="12.694700013081302"><ele>820.6666666666667</ele><time>2026-04-19T09:37:01.003Z</time></trkpt><trkpt lat="42.66399385940798" lon="12.6946152330369"><ele>818.0</ele><time>2026-04-19T09:37:02.003Z</time></trkpt><trkpt lat="42.66396234734754" lon="12.694517681913245"><ele>818.0000000000001</ele><time>2026-04-19T09:37:03.003Z</time></trkpt><trkpt lat="42.66393910319298" lon="12.694432003430855"><ele>818.0</ele><time>2026-04-19T09:37:04.003Z</time></trkpt><trkpt lat="42.66384757559729" lon="12.694347889479365"><ele>818.0</ele><time>2026-04-19T09:37:06.003Z</time></trkpt><trkpt lat="42.66376774275699" lon="12.694375864646648"><ele>818.0</ele><time>2026-04-19T09:37:07.003Z</time></trkpt><trkpt lat="42.66368392686" lon="12.694428540271128"><ele>818.0000000000001</ele><time>2026-04-19T09:37:08.003Z</time></trkpt><trkpt lat="42.663614356319194" lon="12.69445930190044"><ele>818.0</ele><time>2026-04-19T09:37:09.003Z</time></trkpt><trkpt lat="42.663527364382496" lon="12.694448503848728"><ele>815.1666666666667</ele><time>2026-04-19T09:37:10.003Z</time></trkpt><trkpt lat="42.663444975424625" lon="12.69441735888081"><ele>812.3333333333334</ele><time>2026-04-19T09:37:11.003Z</time></trkpt><trkpt lat="42.66337508249701" lon="12.694384072002"><ele>809.5</ele><time>2026-04-19T09:37:12.003Z</time></trkpt><trkpt lat="42.663305966079626" lon="12.694332199299952"><ele>806.6666666666667</ele><time>2026-04-19T09:37:13.003Z</time></trkpt><trkpt lat="42.66323555728593" lon="12.694256866469802"><ele>803.8333333333334</ele><time>2026-04-19T09:37:14.003Z</time></trkpt><trkpt lat="42.663155686522266" lon="12.694166857223593"><ele>801.0</ele><time>2026-04-19T09:37:15.003Z</time></trkpt><trkpt lat="42.66307857473075" lon="12.694078894939993"><ele>801.0</ele><time>2026-04-19T09:37:16.003Z</time></trkpt><trkpt lat="42.66300789343758" lon="12.693993171879622"><ele>801.0</ele><time>2026-04-19T09:37:17.003Z</time></trkpt><trkpt lat="42.66295519869079" lon="12.693903235135123"><ele>801.0</ele><time>2026-04-19T09:37:18.003Z</time></trkpt><trkpt lat="42.66292322952033" lon="12.693814757264464"><ele>801.0</ele><time>2026-04-19T09:37:19.003Z</time></trkpt><trkpt lat="42.662907670393245" lon="12.693695595333594"><ele>801.0</ele><time>2026-04-19T09:37:20.003Z</time></trkpt><trkpt lat="42.662917775166285" lon="12.693580453673276"><ele>801.0</ele><time>2026-04-19T09:37:21.003Z</time></trkpt><trkpt lat="42.662946216961" lon="12.693460909294892"><ele>800.0</ele><time>2026-04-19T09:37:22.003Z</time></trkpt><trkpt lat="42.662960944202574" lon="12.693344970096277"><ele>799.0</ele><time>2026-04-19T09:37:23.003Z</time></trkpt><trkpt lat="42.662960751676295" lon="12.693248645575014"><ele>798.0</ele><time>2026-04-19T09:37:24.003Z</time></trkpt><trkpt lat="42.6629049563169" lon="12.693150719831271"><ele>797.0</ele><time>2026-04-19T09:37:25.003Z</time></trkpt><trkpt lat="42.66284324796861" lon="12.693058695846151"><ele>796.0</ele><time>2026-04-19T09:37:26.003Z</time></trkpt><trkpt lat="42.66277874823223" lon="12.69298256970237"><ele>795.0</ele><time>2026-04-19T09:37:27.003Z</time></trkpt><trkpt lat="42.66267534501185" lon="12.692910138173046"><ele>795.0</ele><time>2026-04-19T09:37:29Z</time></trkpt><trkpt lat="42.66258089051822" lon="12.693066974708284"><ele>795.0</ele><time>2026-04-19T09:37:32Z</time></trkpt><trkpt lat="42.662566960195804" lon="12.693178929269836"><ele>795.0</ele><time>2026-04-19T09:37:33Z</time></trkpt><trkpt lat="42.66255276110151" lon="12.693312354323284"><ele>795.0</ele><time>2026-04-19T09:37:34Z</time></trkpt><trkpt lat="42.662530687472206" lon="12.693425768956951"><ele>795.0</ele><time>2026-04-19T09:37:35Z</time></trkpt><trkpt lat="42.66248926193824" lon="12.693537097348793"><ele>793.2</ele><time>2026-04-19T09:37:36Z</time></trkpt><trkpt lat="42.66245605122936" lon="12.693652086614753"><ele>791.4</ele><time>2026-04-19T09:37:37Z</time></trkpt><trkpt lat="42.66242261115472" lon="12.69375437373523"><ele>789.5999999999999</ele><time>2026-04-19T09:37:38Z</time></trkpt><trkpt lat="42.662362494887404" lon="12.69386143197358"><ele>787.8</ele><time>2026-04-19T09:37:39Z</time></trkpt><trkpt lat="42.66228311417574" lon="12.693954808552371"><ele>786.0</ele><time>2026-04-19T09:37:40Z</time></trkpt><trkpt lat="42.66219984184812" lon="12.694019809991884"><ele>786.0</ele><time>2026-04-19T09:37:41Z</time></trkpt><trkpt lat="42.662114264733034" lon="12.6940481022246"><ele>786.0</ele><time>2026-04-19T09:37:42Z</time></trkpt><trkpt lat="42.662006995469746" lon="12.694047306011154"><ele>786.0</ele><time>2026-04-19T09:37:43Z</time></trkpt><trkpt lat="42.66187774043091" lon="12.694028685636736"><ele>786.0</ele><time>2026-04-19T09:37:44Z</time></trkpt><trkpt lat="42.66173027998579" lon="12.694015110664507"><ele>786.5</ele><time>2026-04-19T09:37:45Z</time></trkpt><trkpt lat="42.661580479006155" lon="12.694004118084505"><ele>787.0</ele><time>2026-04-19T09:37:46Z</time></trkpt><trkpt lat="42.6614318689826" lon="12.693991091376006"><ele>787.5</ele><time>2026-04-19T09:37:47Z</time></trkpt><trkpt lat="42.66132283001059" lon="12.693983532035432"><ele>788.0</ele><time>2026-04-19T09:37:48Z</time></trkpt><trkpt lat="42.6612465303967" lon="12.693971026829857"><ele>788.0000000000001</ele><time>2026-04-19T09:37:49Z</time></trkpt><trkpt lat="42.6611583131294" lon="12.69393301873872"><ele>788.0</ele><time>2026-04-19T09:37:50Z</time></trkpt><trkpt lat="42.661082856396476" lon="12.693896956503561"><ele>788.0</ele><time>2026-04-19T09:37:51Z</time></trkpt><trkpt lat="42.66099719664305" lon="12.693862503948651"><ele>788.0</ele><time>2026-04-19T09:37:52Z</time></trkpt><trkpt lat="42.66091264178968" lon="12.693811448104316"><ele>788.0000000000001</ele><time>2026-04-19T09:37:53Z</time></trkpt><trkpt lat="42.66084492765301" lon="12.693748394951117"><ele>788.0</ele><time>2026-04-19T09:37:54Z</time></trkpt><trkpt lat="42.66078033763049" lon="12.693663808850427"><ele>793.25</ele><time>2026-04-19T09:37:55Z</time></trkpt><trkpt lat="42.66070389275663" lon="12.693557746184927"><ele>798.5</ele><time>2026-04-19T09:37:56Z</time></trkpt><trkpt lat="42.66061384723226" lon="12.693461898824989"><ele>803.75</ele><time>2026-04-19T09:37:57Z</time></trkpt><trkpt lat="42.660498817259466" lon="12.693384154831035"><ele>809.0</ele><time>2026-04-19T09:37:58.001Z</time></trkpt><trkpt lat="42.66039906684274" lon="12.693333052424153"><ele>809.0000000000001</ele><time>2026-04-19T09:37:59.001Z</time></trkpt><trkpt lat="42.66031849994433" lon="12.693269559007815"><ele>809.0</ele><time>2026-04-19T09:38:00.001Z</time></trkpt><trkpt lat="42.6602608726515" lon="12.693193946001504"><ele>809.0</ele><time>2026-04-19T09:38:01.001Z</time></trkpt><trkpt lat="42.66016262674098" lon="12.69314813998744"><ele>809.0</ele><time>2026-04-19T09:38:03.001Z</time></trkpt><trkpt lat="42.660093154306935" lon="12.693191557969758"><ele>809.0000000000001</ele><time>2026-04-19T09:38:04.001Z</time></trkpt><trkpt lat="42.66002058646195" lon="12.693257378076545"><ele>809.0</ele><time>2026-04-19T09:38:05.001Z</time></trkpt><trkpt lat="42.65994878825306" lon="12.69337513122787"><ele>807.0</ele><time>2026-04-19T09:38:06.001Z</time></trkpt><trkpt lat="42.65987799218927" lon="12.693493993004639"><ele>805.0</ele><time>2026-04-19T09:38:07.001Z</time></trkpt><trkpt lat="42.659784557055055" lon="12.693564792120313"><ele>803.0</ele><time>2026-04-19T09:38:08.001Z</time></trkpt><trkpt lat="42.65969192191159" lon="12.693594850244855"><ele>801.0</ele><time>2026-04-19T09:38:09.001Z</time></trkpt><trkpt lat="42.65957808930231" lon="12.69362297717498"><ele>799.0</ele><time>2026-04-19T09:38:10.001Z</time></trkpt><trkpt lat="42.65945052300094" lon="12.693664021240851"><ele>799.1666666666666</ele><time>2026-04-19T09:38:11.001Z</time></trkpt><trkpt lat="42.65935333587841" lon="12.69371673120768"><ele>799.3333333333333</ele><time>2026-04-19T09:38:12.001Z</time></trkpt><trkpt lat="42.65927942636997" lon="12.69376097542995"><ele>799.5</ele><time>2026-04-19T09:38:13.001Z</time></trkpt><trkpt lat="42.65920662654999" lon="12.693736124385401"><ele>799.6666666666667</ele><time>2026-04-19T09:38:16.001Z</time></trkpt><trkpt lat="42.659144931216446" lon="12.69362118104683"><ele>799.8333333333334</ele><time>2026-04-19T09:38:18.001Z</time></trkpt><trkpt lat="42.65912841985585" lon="12.69351698219597"><ele>800.0</ele><time>2026-04-19T09:38:19.001Z</time></trkpt><trkpt lat="42.65911460158721" lon="12.693383765527171"><ele>800.0</ele><time>2026-04-19T09:38:20.001Z</time></trkpt><trkpt lat="42.6591023756408" lon="12.693236702697213"><ele>800.0</ele><time>2026-04-19T09:38:21.001Z</time></trkpt><trkpt lat="42.65910077452305" lon="12.693071945084668"><ele>800.0</ele><time>2026-04-19T09:38:22.001Z</time></trkpt><trkpt lat="42.65908759981982" lon="12.692901403243608"><ele>800.0</ele><time>2026-04-19T09:38:23.001Z</time></trkpt><trkpt lat="42.659076423070296" lon="12.692740712597404"><ele>802.5</ele><time>2026-04-19T09:38:24.001Z</time></trkpt><trkpt lat="42.65906160070494" lon="12.692580591477807"><ele>805.0</ele><time>2026-04-19T09:38:25.001Z</time></trkpt><trkpt lat="42.659055217369485" lon="12.692418537415517"><ele>807.5</ele><time>2026-04-19T09:38:26.001Z</time></trkpt><trkpt lat="42.65904103821902" lon="12.692220025846003"><ele>810.0</ele><time>2026-04-19T09:38:27.001Z</time></trkpt><trkpt lat="42.65901197552885" lon="12.692040632963172"><ele>812.5</ele><time>2026-04-19T09:38:28.001Z</time></trkpt><trkpt lat="42.658990274081155" lon="12.691871152261585"><ele>815.0</ele><time>2026-04-19T09:38:29.001Z</time></trkpt><trkpt lat="42.658971262833866" lon="12.69171354492655"><ele>817.5</ele><time>2026-04-19T09:38:30.001Z</time></trkpt><trkpt lat="42.65895236897817" lon="12.691554434504914"><ele>820.0</ele><time>2026-04-19T09:38:31.002Z</time></trkpt><trkpt lat="42.65894164006923" lon="12.69142586423793"><ele>820.0</ele><time>2026-04-19T09:38:32.002Z</time></trkpt><trkpt lat="42.658930523292604" lon="12.691294243663934"><ele>820.0</ele><time>2026-04-19T09:38:33.002Z</time></trkpt><trkpt lat="42.65893686613036" lon="12.691185024740742"><ele>820.0</ele><time>2026-04-19T09:38:34.002Z</time></trkpt><trkpt lat="42.65895470490952" lon="12.691002522909594"><ele>820.0</ele><time>2026-04-19T09:38:36.002Z</time></trkpt><trkpt lat="42.658950800064375" lon="12.690863313993846"><ele>820.0</ele><time>2026-04-19T09:38:37.002Z</time></trkpt><trkpt lat="42.658904770754155" lon="12.690759464703325"><ele>823.25</ele><time>2026-04-19T09:38:38.002Z</time></trkpt><trkpt lat="42.65885987013669" lon="12.690649999486428"><ele>826.5</ele><time>2026-04-19T09:38:39.002Z</time></trkpt><trkpt lat="42.6588555743132" lon="12.690484967027572"><ele>829.75</ele><time>2026-04-19T09:38:40.002Z</time></trkpt><trkpt lat="42.658820683844475" lon="12.690325263998933"><ele>833.0</ele><time>2026-04-19T09:38:41.002Z</time></trkpt><trkpt lat="42.65873785615534" lon="12.690163458252886"><ele>831.0</ele><time>2026-04-19T09:38:42.002Z</time></trkpt><trkpt lat="42.65865313828494" lon="12.6900106922422"><ele>829.0</ele><time>2026-04-19T09:38:43.002Z</time></trkpt><trkpt lat="42.658550892857036" lon="12.68986794163951"><ele>827.0</ele><time>2026-04-19T09:38:44.002Z</time></trkpt><trkpt lat="42.658465957445365" lon="12.689761736393239"><ele>825.0</ele><time>2026-04-19T09:38:45.002Z</time></trkpt><trkpt lat="42.65842278065148" lon="12.689651964150775"><ele>825.0</ele><time>2026-04-19T09:38:46.002Z</time></trkpt><trkpt lat="42.65840079417535" lon="12.689570225511025"><ele>825.0</ele><time>2026-04-19T09:38:48.002Z</time></trkpt><trkpt lat="42.6584354370515" lon="12.689422254990054"><ele>825.0</ele><time>2026-04-19T09:38:50.002Z</time></trkpt><trkpt lat="42.658511720625995" lon="12.689332899409889"><ele>825.0</ele><time>2026-04-19T09:38:51.002Z</time></trkpt><trkpt lat="42.65858993525748" lon="12.689212523385148"><ele>825.0</ele><time>2026-04-19T09:38:52.002Z</time></trkpt><trkpt lat="42.65866894602566" lon="12.689084435186144"><ele>830.8</ele><time>2026-04-19T09:38:53.002Z</time></trkpt><trkpt lat="42.65872578052098" lon="12.689013556814709"><ele>836.6</ele><time>2026-04-19T09:38:54.002Z</time></trkpt><trkpt lat="42.65881004090239" lon="12.688892253376416"><ele>842.4000000000001</ele><time>2026-04-19T09:38:56.002Z</time></trkpt><trkpt lat="42.658877202970494" lon="12.688797397053039"><ele>848.2</ele><time>2026-04-19T09:38:57.002Z</time></trkpt><trkpt lat="42.65894361563927" lon="12.688699439595567"><ele>854.0</ele><time>2026-04-19T09:38:58.002Z</time></trkpt><trkpt lat="42.659010960625494" lon="12.688601236884708"><ele>853.0</ele><time>2026-04-19T09:38:59.002Z</time></trkpt><trkpt lat="42.65907738102186" lon="12.688512924893091"><ele>852.0000000000001</ele><time>2026-04-19T09:39:00.002Z</time></trkpt><trkpt lat="42.659153164750784" lon="12.688429968396493"><ele>851.0</ele><time>2026-04-19T09:39:01.002Z</time></trkpt><trkpt lat="42.65923190113094" lon="12.688345168645972"><ele>850.0</ele><time>2026-04-19T09:39:02.002Z</time></trkpt><trkpt lat="42.65934927760193" lon="12.688282253591831"><ele>849.0</ele><time>2026-04-19T09:39:03.002Z</time></trkpt><trkpt lat="42.659444310139534" lon="12.688219173426493"><ele>850.4000000000001</ele><time>2026-04-19T09:39:04.003Z</time></trkpt><trkpt lat="42.659505577313" lon="12.688159581036832"><ele>851.8</ele><time>2026-04-19T09:39:05.003Z</time></trkpt><trkpt lat="42.65960257452837" lon="12.688113805660196"><ele>853.1999999999999</ele><time>2026-04-19T09:39:06.003Z</time></trkpt><trkpt lat="42.65971338665125" lon="12.68806052884551"><ele>854.5999999999999</ele><time>2026-04-19T09:39:07.003Z</time></trkpt><trkpt lat="42.65982074516042" lon="12.688012427277835"><ele>856.0</ele><time>2026-04-19T09:39:08.003Z</time></trkpt><trkpt lat="42.65991873462743" lon="12.68797290599627"><ele>855.9999999999999</ele><time>2026-04-19T09:39:09.003Z</time></trkpt><trkpt lat="42.6599888145777" lon="12.6879419593987"><ele>856.0</ele><time>2026-04-19T09:39:10.003Z</time></trkpt><trkpt lat="42.66004790362757" lon="12.68790502816028"><ele>856.0</ele><time>2026-04-19T09:39:11.003Z</time></trkpt><trkpt lat="42.66011382636079" lon="12.687863573443783"><ele>856.0</ele><time>2026-04-19T09:39:12.003Z</time></trkpt><trkpt lat="42.66014960261101" lon="12.687725232482828"><ele>855.9999999999999</ele><time>2026-04-19T09:39:13.003Z</time></trkpt><trkpt lat="42.660219374037716" lon="12.6875972856254"><ele>856.0</ele><time>2026-04-19T09:39:14.003Z</time></trkpt><trkpt lat="42.660282349677466" lon="12.687453283057858"><ele>856.0</ele><time>2026-04-19T09:39:15.003Z</time></trkpt><trkpt lat="42.66032964694766" lon="12.687337591048339"><ele>855.9999999999999</ele><time>2026-04-19T09:39:16.003Z</time></trkpt><trkpt lat="42.660377931041175" lon="12.687197430425924"><ele>855.9999999999999</ele><time>2026-04-19T09:39:17.003Z</time></trkpt><trkpt lat="42.66040990566597" lon="12.687065266143088"><ele>856.0</ele><time>2026-04-19T09:39:18.003Z</time></trkpt><trkpt lat="42.66042567452573" lon="12.686968331949794"><ele>856.0</ele><time>2026-04-19T09:39:19.003Z</time></trkpt><trkpt lat="42.6604229514711" lon="12.686875103478348"><ele>856.0</ele><time>2026-04-19T09:39:20.003Z</time></trkpt><trkpt lat="42.660365883566755" lon="12.68672156856962"><ele>855.9999999999999</ele><time>2026-04-19T09:39:22.003Z</time></trkpt><trkpt lat="42.660306416857274" lon="12.6866529308709"><ele>855.9999999999999</ele><time>2026-04-19T09:39:23.003Z</time></trkpt><trkpt lat="42.66023385670976" lon="12.686559651379222"><ele>856.0</ele><time>2026-04-19T09:39:24.003Z</time></trkpt><trkpt lat="42.66016124065368" lon="12.686460304407305"><ele>856.0</ele><time>2026-04-19T09:39:25.003Z</time></trkpt><trkpt lat="42.66012332127373" lon="12.686359873058016"><ele>857.3333333333333</ele><time>2026-04-19T09:39:26.003Z</time></trkpt><trkpt lat="42.660078711772826" lon="12.686284990467877"><ele>858.6666666666666</ele><time>2026-04-19T09:39:27.003Z</time></trkpt><trkpt lat="42.66001489625076" lon="12.686259215149443"><ele>860.0</ele><time>2026-04-19T09:39:29.003Z</time></trkpt><trkpt lat="42.65992801183928" lon="12.686321922364842"><ele>861.3333333333333</ele><time>2026-04-19T09:39:36.001Z</time></trkpt><trkpt lat="42.65982306416996" lon="12.686302349489248"><ele>862.6666666666666</ele><time>2026-04-19T09:39:38.001Z</time></trkpt><trkpt lat="42.65973270043777" lon="12.68631662893619"><ele>864.0</ele><time>2026-04-19T09:39:41Z</time></trkpt><trkpt lat="42.65977672201226" lon="12.68623739990737"><ele>864.0</ele><time>2026-04-19T09:39:56Z</time></trkpt><trkpt lat="42.65990100649216" lon="12.686339512872202"><ele>864.0</ele><time>2026-04-19T09:39:57Z</time></trkpt><trkpt lat="42.6599713985971" lon="12.68632745517155"><ele>864.0</ele><time>2026-04-19T09:39:58Z</time></trkpt><trkpt lat="42.66006177774481" lon="12.686307501806724"><ele>864.0</ele><time>2026-04-19T09:40:00Z</time></trkpt><trkpt lat="42.660102460166144" lon="12.686373780050598"><ele>864.0</ele><time>2026-04-19T09:40:04.001Z</time></trkpt><trkpt lat="42.66017041242798" lon="12.68635864098918"><ele>864.0</ele><time>2026-04-19T09:40:09.001Z</time></trkpt><trkpt lat="42.660206129199686" lon="12.686283560212422"><ele>864.0</ele><time>2026-04-19T09:40:14.001Z</time></trkpt><trkpt lat="42.66020089446667" lon="12.686153325597765"><ele>864.0</ele><time>2026-04-19T09:40:17.001Z</time></trkpt><trkpt lat="42.66024361176336" lon="12.686085936233019"><ele>864.0</ele><time>2026-04-19T09:40:19.001Z</time></trkpt><trkpt lat="42.660297689333895" lon="12.686029040876909"><ele>864.0</ele><time>2026-04-19T09:40:20.001Z</time></trkpt><trkpt lat="42.66036915796269" lon="12.685977196434736"><ele>864.0</ele><time>2026-04-19T09:40:21.001Z</time></trkpt><trkpt lat="42.66043658471484" lon="12.685937196625044"><ele>864.0</ele><time>2026-04-19T09:40:22.001Z</time></trkpt><trkpt lat="42.66051393880248" lon="12.685848516587113"><ele>864.8000000000001</ele><time>2026-04-19T09:40:24.001Z</time></trkpt><trkpt lat="42.66060201256636" lon="12.685726899494695"><ele>865.6000000000001</ele><time>2026-04-19T09:40:26.001Z</time></trkpt><trkpt lat="42.66064583013245" lon="12.685636019955174"><ele>866.4</ele><time>2026-04-19T09:40:27.001Z</time></trkpt><trkpt lat="42.66069191970007" lon="12.685523425838616"><ele>867.2</ele><time>2026-04-19T09:40:28.001Z</time></trkpt><trkpt lat="42.660743999785105" lon="12.685419326450798"><ele>868.0</ele><time>2026-04-19T09:40:29.001Z</time></trkpt><trkpt lat="42.660824866069376" lon="12.685319083469352"><ele>868.8</ele><time>2026-04-19T09:40:31.001Z</time></trkpt><trkpt lat="42.660875864704494" lon="12.685234189910538"><ele>869.5999999999999</ele><time>2026-04-19T09:40:32.001Z</time></trkpt><trkpt lat="42.66091522142718" lon="12.685122831583854"><ele>870.4000000000001</ele><time>2026-04-19T09:40:33.001Z</time></trkpt><trkpt lat="42.66095281848501" lon="12.685001041172136"><ele>871.2</ele><time>2026-04-19T09:40:34.001Z</time></trkpt><trkpt lat="42.66099491502917" lon="12.68492145990437"><ele>872.0</ele><time>2026-04-19T09:40:35.001Z</time></trkpt><trkpt lat="42.6610826765808" lon="12.684782385773934"><ele>871.8333333333334</ele><time>2026-04-19T09:40:37.001Z</time></trkpt><trkpt lat="42.66112936181644" lon="12.684690846300668"><ele>871.6666666666667</ele><time>2026-04-19T09:40:38.001Z</time></trkpt><trkpt lat="42.66117890953876" lon="12.6845911736475"><ele>871.5</ele><time>2026-04-19T09:40:39.001Z</time></trkpt><trkpt lat="42.66123613095872" lon="12.684481396711057"><ele>871.3333333333333</ele><time>2026-04-19T09:40:40.001Z</time></trkpt><trkpt lat="42.66127719331618" lon="12.68440427532826"><ele>871.1666666666666</ele><time>2026-04-19T09:40:41.001Z</time></trkpt><trkpt lat="42.661312247062774" lon="12.68432527484892"><ele>871.0</ele><time>2026-04-19T09:40:42.001Z</time></trkpt><trkpt lat="42.661359997551045" lon="12.684247269713127"><ele>870.9999999999999</ele><time>2026-04-19T09:40:43.001Z</time></trkpt><trkpt lat="42.66141578805491" lon="12.684193380249832"><ele>871.0</ele><time>2026-04-19T09:40:44.001Z</time></trkpt><trkpt lat="42.66149223011561" lon="12.684166498096573"><ele>871.0</ele><time>2026-04-19T09:40:45.001Z</time></trkpt><trkpt lat="42.6615761003023" lon="12.684120541542054"><ele>871.0</ele><time>2026-04-19T09:40:46.002Z</time></trkpt><trkpt lat="42.6616400912888" lon="12.684056289944294"><ele>870.9999999999999</ele><time>2026-04-19T09:40:47.002Z</time></trkpt><trkpt lat="42.66174225335414" lon="12.683956623470134"><ele>871.0</ele><time>2026-04-19T09:40:49.002Z</time></trkpt><trkpt lat="42.6618111841777" lon="12.683863388156976"><ele>870.9999999999999</ele><time>2026-04-19T09:40:50.002Z</time></trkpt><trkpt lat="42.66186911674806" lon="12.683756384459322"><ele>871.0</ele><time>2026-04-19T09:40:51.002Z</time></trkpt><trkpt lat="42.6619112378979" lon="12.68368131301235"><ele>871.0</ele><time>2026-04-19T09:40:52.002Z</time></trkpt><trkpt lat="42.661951470087565" lon="12.683606638486443"><ele>871.0</ele><time>2026-04-19T09:40:54.002Z</time></trkpt><trkpt lat="42.66197556304094" lon="12.683523374495305"><ele>870.9999999999999</ele><time>2026-04-19T09:40:59.002Z</time></trkpt><trkpt lat="42.66202000326851" lon="12.6834231051436"><ele>871.0</ele><time>2026-04-19T09:41:02.002Z</time></trkpt><trkpt lat="42.66205283896584" lon="12.683306664385766"><ele>869.1999999999999</ele><time>2026-04-19T09:41:04.002Z</time></trkpt><trkpt lat="42.66210802683346" lon="12.683203459780058"><ele>867.3999999999999</ele><time>2026-04-19T09:41:06.002Z</time></trkpt><trkpt lat="42.6621865031009" lon="12.68305955783996"><ele>865.6</ele><time>2026-04-19T09:41:08.002Z</time></trkpt><trkpt lat="42.66223238744162" lon="12.682961746044718"><ele>863.8</ele><time>2026-04-19T09:41:09.002Z</time></trkpt><trkpt lat="42.662287310777025" lon="12.682857408243661"><ele>862.0</ele><time>2026-04-19T09:41:10.002Z</time></trkpt><trkpt lat="42.662359356392884" lon="12.682773150230254"><ele>865.6</ele><time>2026-04-19T09:41:11.002Z</time></trkpt><trkpt lat="42.66242442678354" lon="12.682695256281434"><ele>869.2</ele><time>2026-04-19T09:41:12.002Z</time></trkpt><trkpt lat="42.66248750856893" lon="12.682634247004618"><ele>872.8</ele><time>2026-04-19T09:41:13.002Z</time></trkpt><trkpt lat="42.6625569624156" lon="12.682513288410318"><ele>876.4</ele><time>2026-04-19T09:41:15.002Z</time></trkpt><trkpt lat="42.662580670668845" lon="12.682422972071695"><ele>880.0</ele><time>2026-04-19T09:41:16.002Z</time></trkpt><trkpt lat="42.66259371627214" lon="12.682267106462966"><ele>880.0</ele><time>2026-04-19T09:41:18.002Z</time></trkpt><trkpt lat="42.66258385307896" lon="12.682161774791744"><ele>880.0</ele><time>2026-04-19T09:41:19.002Z</time></trkpt><trkpt lat="42.662577574493504" lon="12.682015162772574"><ele>880.0</ele><time>2026-04-19T09:41:20.002Z</time></trkpt><trkpt lat="42.662601545883824" lon="12.68185970143986"><ele>880.0</ele><time>2026-04-19T09:41:21.002Z</time></trkpt><trkpt lat="42.662631701946836" lon="12.681730877177461"><ele>880.0</ele><time>2026-04-19T09:41:22.002Z</time></trkpt><trkpt lat="42.6626672525861" lon="12.681601963317794"><ele>878.0</ele><time>2026-04-19T09:41:23.002Z</time></trkpt><trkpt lat="42.66269964388028" lon="12.6814761723857"><ele>876.0</ele><time>2026-04-19T09:41:24.002Z</time></trkpt><trkpt lat="42.66274126291341" lon="12.681368735144465"><ele>874.0</ele><time>2026-04-19T09:41:25.002Z</time></trkpt><trkpt lat="42.662775342278415" lon="12.681270742442408"><ele>872.0</ele><time>2026-04-19T09:41:26.002Z</time></trkpt><trkpt lat="42.66279272957585" lon="12.681101490757914"><ele>870.0</ele><time>2026-04-19T09:41:28.003Z</time></trkpt><trkpt lat="42.66277802436433" lon="12.680996441647173"><ele>876.8</ele><time>2026-04-19T09:41:29.003Z</time></trkpt><trkpt lat="42.66274866329497" lon="12.68089332447173"><ele>883.6</ele><time>2026-04-19T09:41:30.003Z</time></trkpt><trkpt lat="42.662687506599475" lon="12.680749818747964"><ele>890.4000000000001</ele><time>2026-04-19T09:41:31.003Z</time></trkpt><trkpt lat="42.66260966654764" lon="12.680584368246171"><ele>897.2</ele><time>2026-04-19T09:41:32.003Z</time></trkpt><trkpt lat="42.66257235138722" lon="12.68046891870345"><ele>904.0</ele><time>2026-04-19T09:41:33.003Z</time></trkpt><trkpt lat="42.66253474201692" lon="12.680323859469716"><ele>903.0</ele><time>2026-04-19T09:41:34.003Z</time></trkpt><trkpt lat="42.66247740007289" lon="12.680230024764118"><ele>902.0000000000001</ele><time>2026-04-19T09:41:35.003Z</time></trkpt><trkpt lat="42.662377930013406" lon="12.68013461510844"><ele>901.0000000000001</ele><time>2026-04-19T09:41:36.003Z</time></trkpt><trkpt lat="42.662270941348275" lon="12.680039332715241"><ele>900.0</ele><time>2026-04-19T09:41:37.003Z</time></trkpt><trkpt lat="42.66219483788201" lon="12.67995713551218"><ele>899.0</ele><time>2026-04-19T09:41:38.003Z</time></trkpt><trkpt lat="42.6621498420892" lon="12.679877031860933"><ele>899.0</ele><time>2026-04-19T09:41:39.003Z</time></trkpt><trkpt lat="42.662120936443074" lon="12.67978010687692"><ele>899.0000000000001</ele><time>2026-04-19T09:41:40Z</time></trkpt><trkpt lat="42.66208300969426" lon="12.6796961154314"><ele>899.0000000000001</ele><time>2026-04-19T09:41:41Z</time></trkpt><trkpt lat="42.662018529825104" lon="12.67962516574196"><ele>899.0</ele><time>2026-04-19T09:41:42Z</time></trkpt><trkpt lat="42.66192926439039" lon="12.67955973424601"><ele>899.0</ele><time>2026-04-19T09:41:43Z</time></trkpt><trkpt lat="42.661814088814516" lon="12.679495769353322"><ele>900.75</ele><time>2026-04-19T09:41:44Z</time></trkpt><trkpt lat="42.66170281536694" lon="12.679423350716654"><ele>902.5</ele><time>2026-04-19T09:41:45Z</time></trkpt><trkpt lat="42.661592583803824" lon="12.679363545773322"><ele>904.25</ele><time>2026-04-19T09:41:46Z</time></trkpt><trkpt lat="42.66148663652894" lon="12.679298109096415"><ele>906.0</ele><time>2026-04-19T09:41:47Z</time></trkpt><trkpt lat="42.66139106763137" lon="12.679202578502622"><ele>906.0</ele><time>2026-04-19T09:41:48Z</time></trkpt><trkpt lat="42.66129008751064" lon="12.67908813702538"><ele>906.0</ele><time>2026-04-19T09:41:49Z</time></trkpt><trkpt lat="42.66118951641073" lon="12.67896389771843"><ele>906.0</ele><time>2026-04-19T09:41:50Z</time></trkpt><trkpt lat="42.66112345909927" lon="12.678845862852297"><ele>906.0</ele><time>2026-04-19T09:41:51Z</time></trkpt><trkpt lat="42.661084754414816" lon="12.678748378431488"><ele>905.8</ele><time>2026-04-19T09:41:52Z</time></trkpt><trkpt lat="42.66101356947651" lon="12.678656329614373"><ele>905.5999999999999</ele><time>2026-04-19T09:41:54Z</time></trkpt><trkpt lat="42.66089018202719" lon="12.678653794129445"><ele>905.4</ele><time>2026-04-19T09:41:56Z</time></trkpt><trkpt lat="42.66080921521125" lon="12.678665565879443"><ele>905.2</ele><time>2026-04-19T09:41:57Z</time></trkpt><trkpt lat="42.66071978615164" lon="12.678656004382777"><ele>905.0</ele><time>2026-04-19T09:41:58Z</time></trkpt><trkpt lat="42.66065597040898" lon="12.678618460362065"><ele>904.5000000000001</ele><time>2026-04-19T09:41:59Z</time></trkpt><trkpt lat="42.66059803578237" lon="12.67854092425922"><ele>904.0</ele><time>2026-04-19T09:42:00Z</time></trkpt><trkpt lat="42.66055264571591" lon="12.678442751171628"><ele>903.5</ele><time>2026-04-19T09:42:01Z</time></trkpt><trkpt lat="42.660505031806665" lon="12.67835074437877"><ele>903.0</ele><time>2026-04-19T09:42:02Z</time></trkpt><trkpt lat="42.6604431816137" lon="12.678288658631397"><ele>902.5000000000001</ele><time>2026-04-19T09:42:03Z</time></trkpt><trkpt lat="42.66036130729472" lon="12.678218060865458"><ele>902.0</ele><time>2026-04-19T09:42:04Z</time></trkpt><trkpt lat="42.66030693453526" lon="12.678151599625274"><ele>901.0000000000001</ele><time>2026-04-19T09:42:05Z</time></trkpt><trkpt lat="42.66027779150402" lon="12.67799701602075"><ele>900.0</ele><time>2026-04-19T09:42:07Z</time></trkpt><trkpt lat="42.660274854255356" lon="12.67789361592122"><ele>899.0</ele><time>2026-04-19T09:42:08.001Z</time></trkpt><trkpt lat="42.66028202699089" lon="12.677786681698377"><ele>898.0</ele><time>2026-04-19T09:42:09.001Z</time></trkpt><trkpt lat="42.660288666512265" lon="12.677692483081644"><ele>897.0000000000001</ele><time>2026-04-19T09:42:10.001Z</time></trkpt><trkpt lat="42.66029332846583" lon="12.677597445465029"><ele>896.0</ele><time>2026-04-19T09:42:11.001Z</time></trkpt><trkpt lat="42.66029657250698" lon="12.6774558100931"><ele>896.0000000000001</ele><time>2026-04-19T09:42:13.001Z</time></trkpt><trkpt lat="42.660297126236266" lon="12.677361956745777"><ele>896.0</ele><time>2026-04-19T09:42:22.001Z</time></trkpt><trkpt lat="42.66029105238259" lon="12.677271898722251"><ele>896.0</ele><time>2026-04-19T09:42:24.001Z</time></trkpt><trkpt lat="42.66027966184896" lon="12.677143482710898"><ele>896.0</ele><time>2026-04-19T09:42:26.001Z</time></trkpt><trkpt lat="42.66026014180464" lon="12.676986559174065"><ele>896.0000000000001</ele><time>2026-04-19T09:42:28.001Z</time></trkpt><trkpt lat="42.66025580153072" lon="12.676899060736384"><ele>896.0</ele><time>2026-04-19T09:42:29.001Z</time></trkpt><trkpt lat="42.66024446909758" lon="12.676739173760202"><ele>895.5999999999999</ele><time>2026-04-19T09:42:31.001Z</time></trkpt><trkpt lat="42.66025278434797" lon="12.676566496274535"><ele>895.1999999999999</ele><time>2026-04-19T09:42:33.001Z</time></trkpt><trkpt lat="42.66026756806784" lon="12.676482803854281"><ele>894.8000000000001</ele><time>2026-04-19T09:42:34.001Z</time></trkpt><trkpt lat="42.66028900823771" lon="12.676320858030804"><ele>894.4000000000001</ele><time>2026-04-19T09:42:36.001Z</time></trkpt><trkpt lat="42.660320765563675" lon="12.67617435490568"><ele>894.0</ele><time>2026-04-19T09:42:38.001Z</time></trkpt><trkpt lat="42.66030855142212" lon="12.676036398821589"><ele>894.0</ele><time>2026-04-19T09:42:40.001Z</time></trkpt><trkpt lat="42.66027861782266" lon="12.675894097354641"><ele>894.0000000000001</ele><time>2026-04-19T09:42:42.001Z</time></trkpt><trkpt lat="42.66023984193842" lon="12.6757425132052"><ele>894.0000000000001</ele><time>2026-04-19T09:42:44.001Z</time></trkpt><trkpt lat="42.660207757329985" lon="12.675589402293898"><ele>894.0</ele><time>2026-04-19T09:42:46.001Z</time></trkpt><trkpt lat="42.66018886432141" lon="12.67547728182503"><ele>894.0</ele><time>2026-04-19T09:42:48.001Z</time></trkpt><trkpt lat="42.66019061583968" lon="12.675377608037392"><ele>894.0</ele><time>2026-04-19T09:42:53.002Z</time></trkpt><trkpt lat="42.66011162127691" lon="12.675308647752045"><ele>894.0000000000001</ele><time>2026-04-19T09:42:56.002Z</time></trkpt><trkpt lat="42.66001585649685" lon="12.675221492717501"><ele>894.0000000000001</ele><time>2026-04-19T09:42:58.002Z</time></trkpt><trkpt lat="42.65993993572611" lon="12.675172045245153"><ele>894.0</ele><time>2026-04-19T09:43:00.002Z</time></trkpt><trkpt lat="42.659865376511135" lon="12.675151703389032"><ele>894.0</ele><time>2026-04-19T09:43:03.002Z</time></trkpt><trkpt lat="42.65978982571552" lon="12.675091065440377"><ele>894.5</ele><time>2026-04-19T09:43:06.002Z</time></trkpt><trkpt lat="42.65971743971357" lon="12.674873834487679"><ele>895.0</ele><time>2026-04-19T09:43:10.002Z</time></trkpt><trkpt lat="42.65953270256767" lon="12.674500253063323"><ele>895.0</ele><time>2026-04-19T09:43:16.002Z</time></trkpt><trkpt lat="42.659451425910206" lon="12.674467820042514"><ele>895.0</ele><time>2026-04-19T09:43:19.002Z</time></trkpt><trkpt lat="42.6593417514133" lon="12.674504910135406"><ele>895.0</ele><time>2026-04-19T09:43:21.002Z</time></trkpt><trkpt lat="42.6592729672353" lon="12.674595989678643"><ele>895.0</ele><time>2026-04-19T09:43:22.002Z</time></trkpt><trkpt lat="42.65917198736468" lon="12.674659676861646"><ele>895.0</ele><time>2026-04-19T09:43:24.002Z</time></trkpt><trkpt lat="42.659046359745496" lon="12.674675993190089"><ele>896.0</ele><time>2026-04-19T09:43:26.002Z</time></trkpt><trkpt lat="42.65893712643781" lon="12.674587508675339"><ele>897.0</ele><time>2026-04-19T09:43:29.002Z</time></trkpt><trkpt lat="42.65888507481912" lon="12.674501007434609"><ele>898.0</ele><time>2026-04-19T09:43:31.002Z</time></trkpt><trkpt lat="42.65883342023898" lon="12.674431624152298"><ele>899.0</ele><time>2026-04-19T09:43:33.002Z</time></trkpt><trkpt lat="42.658760036130744" lon="12.674326776348495"><ele>900.0</ele><time>2026-04-19T09:43:47Z</time></trkpt><trkpt lat="42.65870590456611" lon="12.674200366686998"><ele>900.0000000000001</ele><time>2026-04-19T09:43:49Z</time></trkpt><trkpt lat="42.65866559591242" lon="12.674121425070693"><ele>900.0</ele><time>2026-04-19T09:43:50Z</time></trkpt><trkpt lat="42.65862676281924" lon="12.674049478589962"><ele>900.0000000000001</ele><time>2026-04-19T09:43:51Z</time></trkpt><trkpt lat="42.65857546863487" lon="12.673968018279938"><ele>900.0000000000001</ele><time>2026-04-19T09:43:52Z</time></trkpt><trkpt lat="42.65852913042314" lon="12.673889359451074"><ele>900.0</ele><time>2026-04-19T09:43:53Z</time></trkpt><trkpt lat="42.65848527482993" lon="12.673818156436692"><ele>900.0000000000001</ele><time>2026-04-19T09:43:54Z</time></trkpt><trkpt lat="42.658433404534456" lon="12.673745226696798"><ele>900.0000000000001</ele><time>2026-04-19T09:43:55Z</time></trkpt><trkpt lat="42.658384478139" lon="12.673668172131833"><ele>902.0</ele><time>2026-04-19T09:43:56Z</time></trkpt><trkpt lat="42.65833886613921" lon="12.673601384053807"><ele>907.0</ele><time>2026-04-19T09:43:57Z</time></trkpt><trkpt lat="42.65829287580207" lon="12.673533900190527"><ele>907.0</ele><time>2026-04-19T09:43:58Z</time></trkpt></trkseg><trkseg><trkpt lat="42.65441100197667" lon="12.704456349011366"><ele>761.0</ele><time>2026-04-19T09:56:35Z</time></trkpt><trkpt lat="42.65451157181135" lon="12.704450962439239"><ele>761.0</ele><time>2026-04-19T09:57:17.001Z</time></trkpt><trkpt lat="42.654581274299126" lon="12.704459776494597"><ele>761.0</ele><time>2026-04-19T09:57:18.001Z</time></trkpt><trkpt lat="42.65465745601575" lon="12.704478793421245"><ele>761.0</ele><time>2026-04-19T09:57:19.001Z</time></trkpt><trkpt lat="42.65474757170029" lon="12.704476509095159"><ele>761.0</ele><time>2026-04-19T09:57:20.001Z</time></trkpt><trkpt lat="42.654842526469416" lon="12.704483374891646"><ele>761.0</ele><time>2026-04-19T09:57:21.001Z</time></trkpt><trkpt lat="42.65494636661617" lon="12.704494403480961"><ele>761.0</ele><time>2026-04-19T09:57:22.001Z</time></trkpt><trkpt lat="42.65505591809826" lon="12.704499174676513"><ele>761.0</ele><time>2026-04-19T09:57:23.001Z</time></trkpt><trkpt lat="42.65517107181016" lon="12.704502027240094"><ele>761.0</ele><time>2026-04-19T09:57:24.001Z</time></trkpt><trkpt lat="42.65528565620579" lon="12.70448185304643"><ele>761.0</ele><time>2026-04-19T09:57:25.001Z</time></trkpt><trkpt lat="42.65539555546641" lon="12.704480723881739"><ele>760.1999999999999</ele><time>2026-04-19T09:57:26.001Z</time></trkpt><trkpt lat="42.65548621188667" lon="12.70448500418967"><ele>759.4</ele><time>2026-04-19T09:57:27.001Z</time></trkpt><trkpt lat="42.65556295419636" lon="12.704525787249269"><ele>758.6</ele><time>2026-04-19T09:57:28.001Z</time></trkpt><trkpt lat="42.65562532894163" lon="12.70461042383443"><ele>757.8</ele><time>2026-04-19T09:57:29.001Z</time></trkpt><trkpt lat="42.65567959263859" lon="12.704720085722792"><ele>757.0</ele><time>2026-04-19T09:57:30.001Z</time></trkpt><trkpt lat="42.65573485298883" lon="12.704852037671944"><ele>757.0</ele><time>2026-04-19T09:57:31.001Z</time></trkpt><trkpt lat="42.65580029850649" lon="12.704961396381215"><ele>757.0</ele><time>2026-04-19T09:57:32.001Z</time></trkpt><trkpt lat="42.65588396445668" lon="12.705048062051684"><ele>757.0</ele><time>2026-04-19T09:57:33.001Z</time></trkpt><trkpt lat="42.655973033805445" lon="12.705085269202998"><ele>757.0</ele><time>2026-04-19T09:57:34.001Z</time></trkpt><trkpt lat="42.65608789800857" lon="12.705093120779017"><ele>757.0</ele><time>2026-04-19T09:57:35.001Z</time></trkpt><trkpt lat="42.65620134066869" lon="12.705118171703067"><ele>757.0</ele><time>2026-04-19T09:57:36.001Z</time></trkpt><trkpt lat="42.65631957423472" lon="12.705185456619592"><ele>757.0</ele><time>2026-04-19T09:57:37.001Z</time></trkpt><trkpt lat="42.65643831942309" lon="12.705267405638125"><ele>757.0</ele><time>2026-04-19T09:57:38.001Z</time></trkpt><trkpt lat="42.65657527323577" lon="12.705365267323383"><ele>757.0</ele><time>2026-04-19T09:57:39.001Z</time></trkpt><trkpt lat="42.65668892661423" lon="12.705447725798306"><ele>760.75</ele><time>2026-04-19T09:57:40.001Z</time></trkpt><trkpt lat="42.656808787611425" lon="12.70553441185873"><ele>764.5</ele><time>2026-04-19T09:57:41.001Z</time></trkpt><trkpt lat="42.656901750944876" lon="12.70558074930107"><ele>768.25</ele><time>2026-04-19T09:57:42.001Z</time></trkpt><trkpt lat="42.65704358026907" lon="12.705657474951494"><ele>772.0</ele><time>2026-04-19T09:57:43.001Z</time></trkpt><trkpt lat="42.65707554552581" lon="12.705735703856293"><ele>773.6666666666666</ele><time>2026-04-19T09:57:44.001Z</time></trkpt><trkpt lat="42.65716240735556" lon="12.706023387999283"><ele>775.3333333333333</ele><time>2026-04-19T09:57:46.001Z</time></trkpt><trkpt lat="42.65714903152251" lon="12.706184413140047"><ele>777.0</ele><time>2026-04-19T09:57:47.001Z</time></trkpt><trkpt lat="42.657167630124164" lon="12.706345403420531"><ele>777.0</ele><time>2026-04-19T09:57:48.001Z</time></trkpt><trkpt lat="42.65718492218904" lon="12.70649723679892"><ele>777.0</ele><time>2026-04-19T09:57:49.001Z</time></trkpt><trkpt lat="42.65718011981992" lon="12.706670172152466"><ele>777.0</ele><time>2026-04-19T09:57:50.001Z</time></trkpt><trkpt lat="42.65718785142084" lon="12.706839465241156"><ele>777.0</ele><time>2026-04-19T09:57:51.001Z</time></trkpt><trkpt lat="42.65719430209064" lon="12.70704148997109"><ele>777.5</ele><time>2026-04-19T09:57:52.001Z</time></trkpt><trkpt lat="42.65721112876534" lon="12.707223967309886"><ele>778.0</ele><time>2026-04-19T09:57:53.001Z</time></trkpt><trkpt lat="42.657185018221725" lon="12.70739166947439"><ele>778.5</ele><time>2026-04-19T09:57:54.001Z</time></trkpt><trkpt lat="42.657204737985396" lon="12.70755712414853"><ele>779.0</ele><time>2026-04-19T09:57:55.001Z</time></trkpt><trkpt lat="42.65720280970817" lon="12.707695928409173"><ele>777.75</ele><time>2026-04-19T09:57:56.002Z</time></trkpt><trkpt lat="42.65724354241859" lon="12.707837300353265"><ele>776.5</ele><time>2026-04-19T09:57:57.002Z</time></trkpt><trkpt lat="42.65731322000962" lon="12.70798905410075"><ele>775.25</ele><time>2026-04-19T09:57:58.002Z</time></trkpt><trkpt lat="42.65736585104103" lon="12.708116219862164"><ele>774.0</ele><time>2026-04-19T09:57:59.002Z</time></trkpt><trkpt lat="42.657433796899724" lon="12.708251657191026"><ele>774.0</ele><time>2026-04-19T09:58:00.002Z</time></trkpt><trkpt lat="42.65750192593541" lon="12.708332374654832"><ele>774.0</ele><time>2026-04-19T09:58:01.002Z</time></trkpt><trkpt lat="42.65758835489726" lon="12.708392533801852"><ele>774.0</ele><time>2026-04-19T09:58:02.002Z</time></trkpt><trkpt lat="42.657682460163414" lon="12.708398757978582"><ele>774.0</ele><time>2026-04-19T09:58:03.002Z</time></trkpt><trkpt lat="42.65778386675576" lon="12.708407564288189"><ele>774.0</ele><time>2026-04-19T09:58:04.002Z</time></trkpt><trkpt lat="42.657884725483505" lon="12.708418961976294"><ele>776.0</ele><time>2026-04-19T09:58:05.002Z</time></trkpt><trkpt lat="42.6579716333099" lon="12.708443664640503"><ele>778.0</ele><time>2026-04-19T09:58:06.002Z</time></trkpt><trkpt lat="42.65804219147388" lon="12.708505140209489"><ele>780.0</ele><time>2026-04-19T09:58:07.002Z</time></trkpt><trkpt lat="42.658057185097995" lon="12.70864373682931"><ele>782.0</ele><time>2026-04-19T09:58:08.002Z</time></trkpt><trkpt lat="42.65805499905595" lon="12.708756325449231"><ele>784.0</ele><time>2026-04-19T09:58:09.002Z</time></trkpt><trkpt lat="42.65802336688404" lon="12.70887332933861"><ele>784.0</ele><time>2026-04-19T09:58:10.002Z</time></trkpt><trkpt lat="42.658020987612055" lon="12.709011835426606"><ele>784.0</ele><time>2026-04-19T09:58:11.002Z</time></trkpt><trkpt lat="42.65803126596726" lon="12.709155106028938"><ele>784.0</ele><time>2026-04-19T09:58:12.002Z</time></trkpt><trkpt lat="42.658077193908454" lon="12.70930473217176"><ele>784.0</ele><time>2026-04-19T09:58:13.002Z</time></trkpt><trkpt lat="42.65812299707061" lon="12.709506132680977"><ele>781.6</ele><time>2026-04-19T09:58:14.002Z</time></trkpt><trkpt lat="42.658164129919825" lon="12.709666945840382"><ele>779.2</ele><time>2026-04-19T09:58:15.002Z</time></trkpt><trkpt lat="42.65822354854861" lon="12.709791141671264"><ele>776.8000000000001</ele><time>2026-04-19T09:58:16.002Z</time></trkpt><trkpt lat="42.658285212907984" lon="12.709903646492574"><ele>774.4000000000001</ele><time>2026-04-19T09:58:17.002Z</time></trkpt><trkpt lat="42.65834492642568" lon="12.709985121604776"><ele>772.0</ele><time>2026-04-19T09:58:18.002Z</time></trkpt><trkpt lat="42.65844369168223" lon="12.710040308045997"><ele>772.0</ele><time>2026-04-19T09:58:19.002Z</time></trkpt><trkpt lat="42.65857984102194" lon="12.710047798068535"><ele>772.0</ele><time>2026-04-19T09:58:20.002Z</time></trkpt><trkpt lat="42.65870745135247" lon="12.710039348733515"><ele>772.0</ele><time>2026-04-19T09:58:21.002Z</time></trkpt><trkpt lat="42.65879863552197" lon="12.709995213634976"><ele>772.0</ele><time>2026-04-19T09:58:22.002Z</time></trkpt><trkpt lat="42.6589053624276" lon="12.709901289830512"><ele>774.2</ele><time>2026-04-19T09:58:23.002Z</time></trkpt><trkpt lat="42.65897976677083" lon="12.709811879767235"><ele>776.4000000000001</ele><time>2026-04-19T09:58:24.002Z</time></trkpt><trkpt lat="42.6590744130932" lon="12.709777975303396"><ele>778.5999999999999</ele><time>2026-04-19T09:58:25.002Z</time></trkpt><trkpt lat="42.659176603262125" lon="12.709795288930557"><ele>780.8</ele><time>2026-04-19T09:58:26.002Z</time></trkpt><trkpt lat="42.65927700559552" lon="12.709847575478925"><ele>783.0</ele><time>2026-04-19T09:58:27.002Z</time></trkpt><trkpt lat="42.659362119916935" lon="12.709880967468067"><ele>783.0</ele><time>2026-04-19T09:58:28.002Z</time></trkpt><trkpt lat="42.659430251752575" lon="12.709954495738733"><ele>783.0</ele><time>2026-04-19T09:58:29.002Z</time></trkpt><trkpt lat="42.65947426889624" lon="12.710116441984905"><ele>783.0</ele><time>2026-04-19T09:58:29.998Z</time></trkpt><trkpt lat="42.65947748267552" lon="12.710243456001935"><ele>783.0</ele><time>2026-04-19T09:58:30.998Z</time></trkpt><trkpt lat="42.659467295877036" lon="12.710346630040341"><ele>783.0</ele><time>2026-04-19T09:58:31.998Z</time></trkpt><trkpt lat="42.659479790315615" lon="12.71046550280171"><ele>782.0</ele><time>2026-04-19T09:58:32.998Z</time></trkpt><trkpt lat="42.65952077794128" lon="12.710576356138532"><ele>781.0</ele><time>2026-04-19T09:58:33.998Z</time></trkpt><trkpt lat="42.65958719305046" lon="12.71062274208791"><ele>780.0</ele><time>2026-04-19T09:58:34.998Z</time></trkpt><trkpt lat="42.6596598265876" lon="12.71066490366968"><ele>779.0</ele><time>2026-04-19T09:58:35.998Z</time></trkpt><trkpt lat="42.659775786826835" lon="12.710699819772959"><ele>778.0</ele><time>2026-04-19T09:58:36.998Z</time></trkpt><trkpt lat="42.65987778645786" lon="12.710723210140406"><ele>778.0</ele><time>2026-04-19T09:58:37.998Z</time></trkpt><trkpt lat="42.65999533837034" lon="12.71076608700205"><ele>778.0</ele><time>2026-04-19T09:58:38.998Z</time></trkpt><trkpt lat="42.660118792533915" lon="12.710832298738401"><ele>778.0</ele><time>2026-04-19T09:58:39.998Z</time></trkpt><trkpt lat="42.66027446545398" lon="12.710901422801019"><ele>778.0</ele><time>2026-04-19T09:58:40.998Z</time></trkpt><trkpt lat="42.660412058843725" lon="12.710973103979367"><ele>776.25</ele><time>2026-04-19T09:58:41.998Z</time></trkpt><trkpt lat="42.66055417641657" lon="12.711023658011662"><ele>774.5</ele><time>2026-04-19T09:58:42.998Z</time></trkpt><trkpt lat="42.66068585552752" lon="12.711057930254452"><ele>772.75</ele><time>2026-04-19T09:58:43.998Z</time></trkpt><trkpt lat="42.66079297004302" lon="12.711104021409104"><ele>771.0</ele><time>2026-04-19T09:58:44.998Z</time></trkpt><trkpt lat="42.660891511884934" lon="12.71119132463939"><ele>771.0</ele><time>2026-04-19T09:58:45.998Z</time></trkpt><trkpt lat="42.66101255942041" lon="12.711251852646855"><ele>771.0</ele><time>2026-04-19T09:58:46.999Z</time></trkpt><trkpt lat="42.6611051334129" lon="12.71134164808021"><ele>771.0</ele><time>2026-04-19T09:58:47.999Z</time></trkpt><trkpt lat="42.66117687433413" lon="12.71142794433994"><ele>771.0</ele><time>2026-04-19T09:58:48.999Z</time></trkpt><trkpt lat="42.661270653742584" lon="12.711525524353092"><ele>774.8333333333334</ele><time>2026-04-19T09:58:49.999Z</time></trkpt><trkpt lat="42.66132942588188" lon="12.71159064368441"><ele>778.6666666666667</ele><time>2026-04-19T09:58:50.999Z</time></trkpt><trkpt lat="42.66140356603665" lon="12.711669985401501"><ele>782.5</ele><time>2026-04-19T09:58:51.999Z</time></trkpt><trkpt lat="42.66146486787318" lon="12.711748362956735"><ele>786.3333333333334</ele><time>2026-04-19T09:58:52.999Z</time></trkpt><trkpt lat="42.66152479709447" lon="12.711805915552585"><ele>790.1666666666667</ele><time>2026-04-19T09:58:53.999Z</time></trkpt><trkpt lat="42.66160478741024" lon="12.711896461781553"><ele>794.0</ele><time>2026-04-19T09:58:54.999Z</time></trkpt><trkpt lat="42.66167177186119" lon="12.712038470813289"><ele>794.0</ele><time>2026-04-19T09:58:55.999Z</time></trkpt><trkpt lat="42.66171727855317" lon="12.712124450174635"><ele>794.0</ele><time>2026-04-19T09:58:56.999Z</time></trkpt><trkpt lat="42.66177222874447" lon="12.712235023046892"><ele>794.0</ele><time>2026-04-19T09:58:57.999Z</time></trkpt><trkpt lat="42.66181965031281" lon="12.712398334691155"><ele>794.0</ele><time>2026-04-19T09:58:58.999Z</time></trkpt><trkpt lat="42.66184870926426" lon="12.712509822926775"><ele>794.0</ele><time>2026-04-19T09:58:59.999Z</time></trkpt><trkpt lat="42.661767856923866" lon="12.712509082248918"><ele>794.0</ele><time>2026-04-19T09:59:00.999Z</time></trkpt><trkpt lat="42.66160939214305" lon="12.712603065387471"><ele>794.0</ele><time>2026-04-19T09:59:03.999Z</time></trkpt><trkpt lat="42.66149444321735" lon="12.712691835894532"><ele>794.0</ele><time>2026-04-19T09:59:04.999Z</time></trkpt><trkpt lat="42.66138926109892" lon="12.712810639262074"><ele>794.0</ele><time>2026-04-19T09:59:05.999Z</time></trkpt><trkpt lat="42.66134205777491" lon="12.71291898844362"><ele>794.1666666666667</ele><time>2026-04-19T09:59:06.999Z</time></trkpt><trkpt lat="42.6613045051406" lon="12.713053713131227"><ele>794.3333333333334</ele><time>2026-04-19T09:59:07.999Z</time></trkpt><trkpt lat="42.66126918539691" lon="12.713159461623318"><ele>794.5</ele><time>2026-04-19T09:59:08.999Z</time></trkpt><trkpt lat="42.66124250817235" lon="12.713301996285981"><ele>794.6666666666667</ele><time>2026-04-19T09:59:09.999Z</time></trkpt><trkpt lat="42.661191593891665" lon="12.713380820174116"><ele>794.8333333333334</ele><time>2026-04-19T09:59:10.999Z</time></trkpt><trkpt lat="42.66114361058821" lon="12.713452201823758"><ele>795.0</ele><time>2026-04-19T09:59:11.999Z</time></trkpt><trkpt lat="42.661018098059" lon="12.713562438906807"><ele>797.6</ele><time>2026-04-19T09:59:12.999Z</time></trkpt><trkpt lat="42.660932820359335" lon="12.713662912231404"><ele>800.2</ele><time>2026-04-19T09:59:14Z</time></trkpt><trkpt lat="42.6608477393462" lon="12.713734037452122"><ele>802.8</ele><time>2026-04-19T09:59:15Z</time></trkpt><trkpt lat="42.66079915705358" lon="12.71384418174127"><ele>805.4</ele><time>2026-04-19T09:59:16Z</time></trkpt><trkpt lat="42.6607454797727" lon="12.713933562264346"><ele>808.0</ele><time>2026-04-19T09:59:17Z</time></trkpt><trkpt lat="42.6606950957408" lon="12.714099039907385"><ele>808.0</ele><time>2026-04-19T09:59:18Z</time></trkpt><trkpt lat="42.66065194733104" lon="12.714317470039973"><ele>808.0</ele><time>2026-04-19T09:59:19Z</time></trkpt><trkpt lat="42.66064577888896" lon="12.714515494611415"><ele>808.0</ele><time>2026-04-19T09:59:20Z</time></trkpt><trkpt lat="42.66063224835349" lon="12.71468499478809"><ele>808.0</ele><time>2026-04-19T09:59:21Z</time></trkpt><trkpt lat="42.660607486832276" lon="12.714842426082427"><ele>808.5</ele><time>2026-04-19T09:59:22Z</time></trkpt><trkpt lat="42.660607406584305" lon="12.714993917661529"><ele>809.0</ele><time>2026-04-19T09:59:23Z</time></trkpt><trkpt lat="42.66059880345382" lon="12.71515149866061"><ele>809.5</ele><time>2026-04-19T09:59:24Z</time></trkpt><trkpt lat="42.66058354103197" lon="12.715304576316314"><ele>810.0</ele><time>2026-04-19T09:59:25Z</time></trkpt><trkpt lat="42.660550891475765" lon="12.715475113885912"><ele>810.0</ele><time>2026-04-19T09:59:26Z</time></trkpt><trkpt lat="42.66047341395684" lon="12.715590957323835"><ele>810.0</ele><time>2026-04-19T09:59:27Z</time></trkpt><trkpt lat="42.660411592668794" lon="12.715737902387056"><ele>810.0</ele><time>2026-04-19T09:59:28Z</time></trkpt><trkpt lat="42.660393699747914" lon="12.715848679398599"><ele>810.0</ele><time>2026-04-19T09:59:29Z</time></trkpt><trkpt lat="42.66038823872978" lon="12.715958242266355"><ele>810.0</ele><time>2026-04-19T09:59:30Z</time></trkpt><trkpt lat="42.660412766321976" lon="12.716091432249792"><ele>809.5</ele><time>2026-04-19T09:59:31Z</time></trkpt><trkpt lat="42.660447955473174" lon="12.716220593815283"><ele>809.0</ele><time>2026-04-19T09:59:32Z</time></trkpt><trkpt lat="42.6605057890131" lon="12.716304344672318"><ele>808.5</ele><time>2026-04-19T09:59:33Z</time></trkpt><trkpt lat="42.66059330170415" lon="12.716453511602602"><ele>808.0</ele><time>2026-04-19T09:59:34Z</time></trkpt><trkpt lat="42.660645858818555" lon="12.716670016337888"><ele>808.0</ele><time>2026-04-19T09:59:35Z</time></trkpt><trkpt lat="42.66064336197324" lon="12.71683752938593"><ele>808.0</ele><time>2026-04-19T09:59:36Z</time></trkpt><trkpt lat="42.660637509993634" lon="12.716989821731126"><ele>808.0</ele><time>2026-04-19T09:59:37Z</time></trkpt><trkpt lat="42.66063657075402" lon="12.717151384756502"><ele>808.0</ele><time>2026-04-19T09:59:38Z</time></trkpt><trkpt lat="42.660665984800666" lon="12.71729175281951"><ele>807.25</ele><time>2026-04-19T09:59:39Z</time></trkpt><trkpt lat="42.66071673701994" lon="12.717443145305738"><ele>806.5</ele><time>2026-04-19T09:59:40Z</time></trkpt><trkpt lat="42.66078104391959" lon="12.717652228703912"><ele>805.75</ele><time>2026-04-19T09:59:41Z</time></trkpt><trkpt lat="42.66084682995238" lon="12.717775286561535"><ele>805.0</ele><time>2026-04-19T09:59:42Z</time></trkpt><trkpt lat="42.660911848976404" lon="12.717850318975053"><ele>804.8</ele><time>2026-04-19T09:59:43Z</time></trkpt><trkpt lat="42.66094200357495" lon="12.71799555489691"><ele>804.6</ele><time>2026-04-19T09:59:44Z</time></trkpt><trkpt lat="42.66096228353986" lon="12.71812418068823"><ele>804.4000000000001</ele><time>2026-04-19T09:59:45Z</time></trkpt><trkpt lat="42.66094888759927" lon="12.7182789097908"><ele>804.2</ele><time>2026-04-19T09:59:46Z</time></trkpt><trkpt lat="42.66098947824195" lon="12.718436902542765"><ele>804.0</ele><time>2026-04-19T09:59:47Z</time></trkpt><trkpt lat="42.66104172275991" lon="12.718563921469743"><ele>800.25</ele><time>2026-04-19T09:59:48Z</time></trkpt><trkpt lat="42.66120005344912" lon="12.718627751676115"><ele>796.5</ele><time>2026-04-19T09:59:49Z</time></trkpt><trkpt lat="42.66126021903974" lon="12.71871739600525"><ele>792.75</ele><time>2026-04-19T09:59:50Z</time></trkpt><trkpt lat="42.66133037314538" lon="12.718728758838644"><ele>789.0</ele><time>2026-04-19T09:59:51Z</time></trkpt><trkpt lat="42.66146775610344" lon="12.718798734728212"><ele>789.0</ele><time>2026-04-19T09:59:52.001Z</time></trkpt><trkpt lat="42.661575950917246" lon="12.718831245926449"><ele>789.0</ele><time>2026-04-19T09:59:53.001Z</time></trkpt><trkpt lat="42.66164076823812" lon="12.718926002882526"><ele>789.0</ele><time>2026-04-19T09:59:54.001Z</time></trkpt><trkpt lat="42.661742243297155" lon="12.719076693274381"><ele>789.0</ele><time>2026-04-19T09:59:55.001Z</time></trkpt><trkpt lat="42.66179604785419" lon="12.719300895029335"><ele>788.0</ele><time>2026-04-19T09:59:56.001Z</time></trkpt><trkpt lat="42.66183597572884" lon="12.719454835965129"><ele>787.0</ele><time>2026-04-19T09:59:57.001Z</time></trkpt><trkpt lat="42.66187139464038" lon="12.719601897096583"><ele>786.0</ele><time>2026-04-19T09:59:58.001Z</time></trkpt><trkpt lat="42.66189514884976" lon="12.719732695792205"><ele>785.0</ele><time>2026-04-19T09:59:59.001Z</time></trkpt><trkpt lat="42.661882425702885" lon="12.719854023771724"><ele>784.0</ele><time>2026-04-19T10:00:00.001Z</time></trkpt><trkpt lat="42.661847547849746" lon="12.719993376698316"><ele>784.0</ele><time>2026-04-19T10:00:01.001Z</time></trkpt><trkpt lat="42.6618013891955" lon="12.720140364262846"><ele>784.0</ele><time>2026-04-19T10:00:02.001Z</time></trkpt><trkpt lat="42.661758969615725" lon="12.720264146026569"><ele>784.0</ele><time>2026-04-19T10:00:03.001Z</time></trkpt><trkpt lat="42.66172752093744" lon="12.72036758618932"><ele>784.0</ele><time>2026-04-19T10:00:04.001Z</time></trkpt><trkpt lat="42.66169995406439" lon="12.720500565745777"><ele>784.0</ele><time>2026-04-19T10:00:05.001Z</time></trkpt><trkpt lat="42.66174078586084" lon="12.720686138867162"><ele>779.25</ele><time>2026-04-19T10:00:06.001Z</time></trkpt><trkpt lat="42.661847189890004" lon="12.720791806662495"><ele>774.5</ele><time>2026-04-19T10:00:07.001Z</time></trkpt><trkpt lat="42.66192732339252" lon="12.720908324966805"><ele>769.75</ele><time>2026-04-19T10:00:08.001Z</time></trkpt><trkpt lat="42.662028077429156" lon="12.721028506161653"><ele>765.0</ele><time>2026-04-19T10:00:09.001Z</time></trkpt><trkpt lat="42.662118716785145" lon="12.721174787497954"><ele>763.75</ele><time>2026-04-19T10:00:10.001Z</time></trkpt><trkpt lat="42.662198549728174" lon="12.721314118405012"><ele>762.5</ele><time>2026-04-19T10:00:11.001Z</time></trkpt><trkpt lat="42.66226575788353" lon="12.721489837087343"><ele>761.25</ele><time>2026-04-19T10:00:12.001Z</time></trkpt><trkpt lat="42.66229840855821" lon="12.721700041257431"><ele>760.0</ele><time>2026-04-19T10:00:13.001Z</time></trkpt><trkpt lat="42.66233381333706" lon="12.721930232872673"><ele>758.0</ele><time>2026-04-19T10:00:14.001Z</time></trkpt><trkpt lat="42.662370410436075" lon="12.72212321326918"><ele>756.0</ele><time>2026-04-19T10:00:15.001Z</time></trkpt><trkpt lat="42.66240141149594" lon="12.722353703563847"><ele>754.0</ele><time>2026-04-19T10:00:16.001Z</time></trkpt><trkpt lat="42.6624159777222" lon="12.722494162179926"><ele>752.0</ele><time>2026-04-19T10:00:17.001Z</time></trkpt><trkpt lat="42.66245116258276" lon="12.72265584958506"><ele>747.25</ele><time>2026-04-19T10:00:18.001Z</time></trkpt><trkpt lat="42.66251372550647" lon="12.722812257707695"><ele>742.5</ele><time>2026-04-19T10:00:19.001Z</time></trkpt><trkpt lat="42.66259475924674" lon="12.722956872377706"><ele>737.75</ele><time>2026-04-19T10:00:20.001Z</time></trkpt><trkpt lat="42.662692655658105" lon="12.723080190307922"><ele>733.0</ele><time>2026-04-19T10:00:21.001Z</time></trkpt><trkpt lat="42.662792416126095" lon="12.723183845650857"><ele>733.0</ele><time>2026-04-19T10:00:22.001Z</time></trkpt><trkpt lat="42.662899009552966" lon="12.723260618355612"><ele>733.0</ele><time>2026-04-19T10:00:23.001Z</time></trkpt><trkpt lat="42.662978303317786" lon="12.72330421889358"><ele>733.0</ele><time>2026-04-19T10:00:24.001Z</time></trkpt><trkpt lat="42.663047141111555" lon="12.723275424129918"><ele>733.0</ele><time>2026-04-19T10:00:25.001Z</time></trkpt><trkpt lat="42.66310307460561" lon="12.723217040406972"><ele>733.0</ele><time>2026-04-19T10:00:26.001Z</time></trkpt><trkpt lat="42.663181005938874" lon="12.72312737089405"><ele>733.0</ele><time>2026-04-19T10:00:27.001Z</time></trkpt><trkpt lat="42.663254696165026" lon="12.723061877512732"><ele>733.0</ele><time>2026-04-19T10:00:28.001Z</time></trkpt><trkpt lat="42.66333491094595" lon="12.722979641417444"><ele>733.0</ele><time>2026-04-19T10:00:29.001Z</time></trkpt><trkpt lat="42.66339816943971" lon="12.722899153232394"><ele>733.0</ele><time>2026-04-19T10:00:30.001Z</time></trkpt><trkpt lat="42.663478918437015" lon="12.722842921691278"><ele>733.0</ele><time>2026-04-19T10:00:31.001Z</time></trkpt><trkpt lat="42.66360983327447" lon="12.722828164107066"><ele>730.0</ele><time>2026-04-19T10:00:32.002Z</time></trkpt><trkpt lat="42.663721932572216" lon="12.722860237062918"><ele>727.0</ele><time>2026-04-19T10:00:33.002Z</time></trkpt><trkpt lat="42.66384624834141" lon="12.722940445924907"><ele>724.0</ele><time>2026-04-19T10:00:34.002Z</time></trkpt><trkpt lat="42.663983971798" lon="12.723039432532634"><ele>721.0</ele><time>2026-04-19T10:00:35.002Z</time></trkpt><trkpt lat="42.6640993337372" lon="12.7231506680402"><ele>721.0</ele><time>2026-04-19T10:00:35.996Z</time></trkpt><trkpt lat="42.66421582957989" lon="12.723277487611012"><ele>721.0</ele><time>2026-04-19T10:00:36.996Z</time></trkpt><trkpt lat="42.66433147903675" lon="12.72340525351544"><ele>721.0</ele><time>2026-04-19T10:00:37.996Z</time></trkpt><trkpt lat="42.66443772914704" lon="12.723551990905653"><ele>720.5999999999999</ele><time>2026-04-19T10:00:38.996Z</time></trkpt><trkpt lat="42.66451837599141" lon="12.723682252904624"><ele>720.2</ele><time>2026-04-19T10:00:39.996Z</time></trkpt><trkpt lat="42.664567526344285" lon="12.723843027869254"><ele>719.8</ele><time>2026-04-19T10:00:40.996Z</time></trkpt><trkpt lat="42.66459864211279" lon="12.723927058428348"><ele>719.4000000000001</ele><time>2026-04-19T10:00:41.996Z</time></trkpt><trkpt lat="42.664654686154975" lon="12.72405259944107"><ele>719.0</ele><time>2026-04-19T10:00:42.996Z</time></trkpt><trkpt lat="42.66468214429157" lon="12.724208102866633"><ele>719.0</ele><time>2026-04-19T10:00:43.996Z</time></trkpt><trkpt lat="42.664708126601454" lon="12.724356818395842"><ele>719.0</ele><time>2026-04-19T10:00:44.996Z</time></trkpt><trkpt lat="42.66473604483875" lon="12.724516407585"><ele>719.0</ele><time>2026-04-19T10:00:45.996Z</time></trkpt><trkpt lat="42.66476070932367" lon="12.724657397195266"><ele>719.0</ele><time>2026-04-19T10:00:46.996Z</time></trkpt><trkpt lat="42.66478777680581" lon="12.724797034723576"><ele>719.0</ele><time>2026-04-19T10:00:47.997Z</time></trkpt><trkpt lat="42.66481964898403" lon="12.724916738209027"><ele>717.6</ele><time>2026-04-19T10:00:48.997Z</time></trkpt><trkpt lat="42.66487615257392" lon="12.725034609483906"><ele>716.2</ele><time>2026-04-19T10:00:49.997Z</time></trkpt><trkpt lat="42.664980389170665" lon="12.725120880096098"><ele>714.8000000000001</ele><time>2026-04-19T10:00:50.997Z</time></trkpt><trkpt lat="42.66507118598956" lon="12.725192388608635"><ele>713.4000000000001</ele><time>2026-04-19T10:00:51.997Z</time></trkpt><trkpt lat="42.665148961742595" lon="12.725263063720138"><ele>712.0</ele><time>2026-04-19T10:00:52.997Z</time></trkpt><trkpt lat="42.66517362296746" lon="12.725364103553522"><ele>709.6</ele><time>2026-04-19T10:00:53.997Z</time></trkpt><trkpt lat="42.6651885221525" lon="12.725472035530393"><ele>707.2</ele><time>2026-04-19T10:00:54.997Z</time></trkpt><trkpt lat="42.66520762487232" lon="12.725598777738238"><ele>704.8</ele><time>2026-04-19T10:00:55.998Z</time></trkpt><trkpt lat="42.665187604586414" lon="12.72574916928451"><ele>702.4</ele><time>2026-04-19T10:00:56.998Z</time></trkpt><trkpt lat="42.66515752794729" lon="12.725902225525392"><ele>700.0</ele><time>2026-04-19T10:00:57.998Z</time></trkpt><trkpt lat="42.665170306628546" lon="12.726064159361993"><ele>696.75</ele><time>2026-04-19T10:00:58.998Z</time></trkpt><trkpt lat="42.66517064461899" lon="12.726273513671556"><ele>693.5</ele><time>2026-04-19T10:00:59.998Z</time></trkpt><trkpt lat="42.665193320962274" lon="12.726473200323118"><ele>690.25</ele><time>2026-04-19T10:01:00.998Z</time></trkpt><trkpt lat="42.66521636837639" lon="12.726617134295495"><ele>687.0</ele><time>2026-04-19T10:01:01.998Z</time></trkpt><trkpt lat="42.665225869096375" lon="12.72674648472715"><ele>685.25</ele><time>2026-04-19T10:01:02.998Z</time></trkpt><trkpt lat="42.665195541126884" lon="12.726897678596071"><ele>683.5</ele><time>2026-04-19T10:01:03.998Z</time></trkpt><trkpt lat="42.66514301316561" lon="12.727016240327261"><ele>681.75</ele><time>2026-04-19T10:01:04.998Z</time></trkpt><trkpt lat="42.66506074666105" lon="12.727142262652364"><ele>680.0</ele><time>2026-04-19T10:01:05.998Z</time></trkpt><trkpt lat="42.66498089806048" lon="12.72725656522546"><ele>680.0</ele><time>2026-04-19T10:01:06.998Z</time></trkpt><trkpt lat="42.664929533680116" lon="12.727341152243323"><ele>680.0</ele><time>2026-04-19T10:01:07.999Z</time></trkpt><trkpt lat="42.66490773672301" lon="12.727470857305473"><ele>680.0</ele><time>2026-04-19T10:01:09.999Z</time></trkpt><trkpt lat="42.6649514905827" lon="12.72760277664913"><ele>680.0</ele><time>2026-04-19T10:01:10.999Z</time></trkpt><trkpt lat="42.66501585781693" lon="12.72770376159616"><ele>680.0</ele><time>2026-04-19T10:01:11.999Z</time></trkpt><trkpt lat="42.66508814587113" lon="12.727793326831266"><ele>679.25</ele><time>2026-04-19T10:01:12.999Z</time></trkpt><trkpt lat="42.66521077855005" lon="12.727847329825098"><ele>678.5</ele><time>2026-04-19T10:01:13.999Z</time></trkpt><trkpt lat="42.66535892992699" lon="12.727848767985726"><ele>677.75</ele><time>2026-04-19T10:01:14.999Z</time></trkpt><trkpt lat="42.66548744588611" lon="12.727819012530293"><ele>677.0</ele><time>2026-04-19T10:01:15.999Z</time></trkpt><trkpt lat="42.66563399133117" lon="12.727765607696085"><ele>677.2</ele><time>2026-04-19T10:01:16.999Z</time></trkpt><trkpt lat="42.665716315897804" lon="12.72767469491904"><ele>677.4000000000001</ele><time>2026-04-19T10:01:17.999Z</time></trkpt><trkpt lat="42.66576455250295" lon="12.727583238627425"><ele>677.5999999999999</ele><time>2026-04-19T10:01:18.999Z</time></trkpt><trkpt lat="42.665815153859484" lon="12.727474854652113"><ele>677.8</ele><time>2026-04-19T10:01:19.999Z</time></trkpt><trkpt lat="42.66586286629156" lon="12.727349493829776"><ele>678.0</ele><time>2026-04-19T10:01:20.999Z</time></trkpt><trkpt lat="42.66591605132241" lon="12.727257095383363"><ele>678.0</ele><time>2026-04-19T10:01:21.999Z</time></trkpt><trkpt lat="42.666009255932956" lon="12.727161308016745"><ele>678.0</ele><time>2026-04-19T10:01:22.999Z</time></trkpt><trkpt lat="42.66610338576388" lon="12.72706486883111"><ele>678.0</ele><time>2026-04-19T10:01:23.999Z</time></trkpt><trkpt lat="42.66620050001121" lon="12.726968834912745"><ele>678.0</ele><time>2026-04-19T10:01:24.999Z</time></trkpt><trkpt lat="42.66629695760997" lon="12.726852717925572"><ele>674.0</ele><time>2026-04-19T10:01:25.999Z</time></trkpt><trkpt lat="42.66634731355102" lon="12.72673420196125"><ele>670.0</ele><time>2026-04-19T10:01:27Z</time></trkpt><trkpt lat="42.66638920080733" lon="12.726639841897107"><ele>666.0</ele><time>2026-04-19T10:01:28Z</time></trkpt><trkpt lat="42.66637812320918" lon="12.726499775881534"><ele>662.0</ele><time>2026-04-19T10:01:29Z</time></trkpt><trkpt lat="42.66634516866508" lon="12.72638362622664"><ele>658.0</ele><time>2026-04-19T10:01:30Z</time></trkpt><trkpt lat="42.66628003326102" lon="12.726278388029852"><ele>658.0</ele><time>2026-04-19T10:01:31Z</time></trkpt><trkpt lat="42.66622082038537" lon="12.726167596238986"><ele>658.0</ele><time>2026-04-19T10:01:32Z</time></trkpt><trkpt lat="42.66616617650749" lon="12.726070759698878"><ele>658.0</ele><time>2026-04-19T10:01:33Z</time></trkpt><trkpt lat="42.66616556052197" lon="12.72597043595781"><ele>658.0</ele><time>2026-04-19T10:01:34Z</time></trkpt><trkpt lat="42.66620009184571" lon="12.72585584688988"><ele>658.0</ele><time>2026-04-19T10:01:35Z</time></trkpt><trkpt lat="42.66628813992256" lon="12.72579913690367"><ele>658.2</ele><time>2026-04-19T10:01:36Z</time></trkpt><trkpt lat="42.66636599825763" lon="12.725797365789006"><ele>658.4</ele><time>2026-04-19T10:01:37Z</time></trkpt><trkpt lat="42.666491004763444" lon="12.72579537789594"><ele>658.6</ele><time>2026-04-19T10:01:38Z</time></trkpt><trkpt lat="42.6666046739338" lon="12.725724788993947"><ele>658.8000000000001</ele><time>2026-04-19T10:01:39Z</time></trkpt><trkpt lat="42.666702036162235" lon="12.72565447505263"><ele>659.0</ele><time>2026-04-19T10:01:40Z</time></trkpt><trkpt lat="42.66680758399598" lon="12.725561500083"><ele>659.0</ele><time>2026-04-19T10:01:41Z</time></trkpt><trkpt lat="42.666899457651866" lon="12.725466507763212"><ele>659.0</ele><time>2026-04-19T10:01:42Z</time></trkpt><trkpt lat="42.66698712987981" lon="12.725364825430805"><ele>659.0</ele><time>2026-04-19T10:01:43Z</time></trkpt><trkpt lat="42.66702615144552" lon="12.725243400183798"><ele>659.0</ele><time>2026-04-19T10:01:44Z</time></trkpt><trkpt lat="42.66705117852494" lon="12.725070497358542"><ele>653.25</ele><time>2026-04-19T10:01:45Z</time></trkpt><trkpt lat="42.66705415382585" lon="12.724899143688505"><ele>647.5</ele><time>2026-04-19T10:01:46Z</time></trkpt><trkpt lat="42.66703791333523" lon="12.724717828801545"><ele>641.75</ele><time>2026-04-19T10:01:47Z</time></trkpt><trkpt lat="42.667011054568135" lon="12.72453320934339"><ele>636.0</ele><time>2026-04-19T10:01:48Z</time></trkpt><trkpt lat="42.66696863112207" lon="12.72434780224154"><ele>643.3333333333334</ele><time>2026-04-19T10:01:49Z</time></trkpt><trkpt lat="42.66690448746701" lon="12.724130256090064"><ele>650.6666666666667</ele><time>2026-04-19T10:01:50Z</time></trkpt><trkpt lat="42.666819717100566" lon="12.723920864949012"><ele>658.0</ele><time>2026-04-19T10:01:51Z</time></trkpt><trkpt lat="42.66673232010093" lon="12.723794651217837"><ele>658.0</ele><time>2026-04-19T10:01:52Z</time></trkpt><trkpt lat="42.666657109897244" lon="12.72370218215279"><ele>658.0</ele><time>2026-04-19T10:01:53Z</time></trkpt><trkpt lat="42.66658425735554" lon="12.723597520901658"><ele>658.0</ele><time>2026-04-19T10:01:54Z</time></trkpt><trkpt lat="42.66655151967911" lon="12.723508628274903"><ele>658.0</ele><time>2026-04-19T10:01:55.001Z</time></trkpt><trkpt lat="42.66655360111274" lon="12.723293628637034"><ele>658.0</ele><time>2026-04-19T10:01:57.001Z</time></trkpt><trkpt lat="42.66660916457027" lon="12.723198320211125"><ele>656.5999999999999</ele><time>2026-04-19T10:01:58.001Z</time></trkpt><trkpt lat="42.6666802456319" lon="12.723170206567042"><ele>655.1999999999999</ele><time>2026-04-19T10:01:59.001Z</time></trkpt><trkpt lat="42.666768074591786" lon="12.723207516064651"><ele>653.8</ele><time>2026-04-19T10:02:00.001Z</time></trkpt><trkpt lat="42.66682697902043" lon="12.72326651276827"><ele>652.4</ele><time>2026-04-19T10:02:01.001Z</time></trkpt><trkpt lat="42.66692344553053" lon="12.723353396215456"><ele>651.0</ele><time>2026-04-19T10:02:02.001Z</time></trkpt><trkpt lat="42.66703814105466" lon="12.723469414982818"><ele>644.3333333333334</ele><time>2026-04-19T10:02:03.001Z</time></trkpt><trkpt lat="42.667173268231046" lon="12.723580420719452"><ele>637.6666666666667</ele><time>2026-04-19T10:02:04.001Z</time></trkpt><trkpt lat="42.6673150266794" lon="12.723719331775905"><ele>631.0</ele><time>2026-04-19T10:02:05.001Z</time></trkpt><trkpt lat="42.667486995434224" lon="12.723823510879416"><ele>631.0</ele><time>2026-04-19T10:02:06.001Z</time></trkpt><trkpt lat="42.66761954566229" lon="12.724010522036679"><ele>631.0</ele><time>2026-04-19T10:02:07.001Z</time></trkpt><trkpt lat="42.667754139810874" lon="12.724206665826035"><ele>631.0</ele><time>2026-04-19T10:02:08.001Z</time></trkpt><trkpt lat="42.66787271847984" lon="12.724381800642512"><ele>627.6666666666667</ele><time>2026-04-19T10:02:09.001Z</time></trkpt><trkpt lat="42.667995820196246" lon="12.724554763539489"><ele>624.3333333333334</ele><time>2026-04-19T10:02:10.001Z</time></trkpt><trkpt lat="42.66810752422212" lon="12.724717031139416"><ele>621.0</ele><time>2026-04-19T10:02:11.001Z</time></trkpt><trkpt lat="42.66821649492796" lon="12.724869426426546"><ele>621.0</ele><time>2026-04-19T10:02:12.001Z</time></trkpt><trkpt lat="42.668341187222715" lon="12.725002786771714"><ele>621.0</ele><time>2026-04-19T10:02:13.001Z</time></trkpt><trkpt lat="42.66845775696214" lon="12.725082510963524"><ele>621.0</ele><time>2026-04-19T10:02:14.001Z</time></trkpt><trkpt lat="42.66857755337363" lon="12.725173804397192"><ele>621.0</ele><time>2026-04-19T10:02:15.001Z</time></trkpt><trkpt lat="42.66870366900599" lon="12.725283332186736"><ele>616.6666666666666</ele><time>2026-04-19T10:02:16.001Z</time></trkpt><trkpt lat="42.66884526127127" lon="12.725351262754353"><ele>612.3333333333333</ele><time>2026-04-19T10:02:17.001Z</time></trkpt><trkpt lat="42.66896987493257" lon="12.725452436673832"><ele>608.0</ele><time>2026-04-19T10:02:18.001Z</time></trkpt><trkpt lat="42.66912402952139" lon="12.725544423892943"><ele>608.0</ele><time>2026-04-19T10:02:19.001Z</time></trkpt><trkpt lat="42.669252961397" lon="12.725680877081736"><ele>608.0</ele><time>2026-04-19T10:02:20.001Z</time></trkpt><trkpt lat="42.669346542805755" lon="12.72582186865982"><ele>608.0</ele><time>2026-04-19T10:02:21.001Z</time></trkpt><trkpt lat="42.66944709493179" lon="12.725999406757195"><ele>606.3333333333333</ele><time>2026-04-19T10:02:22.001Z</time></trkpt><trkpt lat="42.66953374470837" lon="12.72621410259153"><ele>604.6666666666666</ele><time>2026-04-19T10:02:23.001Z</time></trkpt><trkpt lat="42.6696561696221" lon="12.726413488317064"><ele>603.0</ele><time>2026-04-19T10:02:24.001Z</time></trkpt><trkpt lat="42.669779353918805" lon="12.726614110524391"><ele>603.0</ele><time>2026-04-19T10:02:25.001Z</time></trkpt><trkpt lat="42.669890341534355" lon="12.726795889125714"><ele>603.0</ele><time>2026-04-19T10:02:26.001Z</time></trkpt><trkpt lat="42.67000985505746" lon="12.726993620462608"><ele>603.0</ele><time>2026-04-19T10:02:27.001Z</time></trkpt><trkpt lat="42.6701088186257" lon="12.727152708179744"><ele>598.0</ele><time>2026-04-19T10:02:28.002Z</time></trkpt><trkpt lat="42.67020301596185" lon="12.727292689960509"><ele>593.0</ele><time>2026-04-19T10:02:29.002Z</time></trkpt><trkpt lat="42.67031998498083" lon="12.727456393132735"><ele>588.0</ele><time>2026-04-19T10:02:30.002Z</time></trkpt><trkpt lat="42.67042041923236" lon="12.727594563911774"><ele>588.0</ele><time>2026-04-19T10:02:31.002Z</time></trkpt><trkpt lat="42.670510738538226" lon="12.727717151353549"><ele>588.0</ele><time>2026-04-19T10:02:32.002Z</time></trkpt><trkpt lat="42.670596892768444" lon="12.727820274059457"><ele>588.0</ele><time>2026-04-19T10:02:33.002Z</time></trkpt><trkpt lat="42.670689783881045" lon="12.72790669538655"><ele>588.0</ele><time>2026-04-19T10:02:34.002Z</time></trkpt><trkpt lat="42.67079551156632" lon="12.727965446790847"><ele>585.3333333333334</ele><time>2026-04-19T10:02:35.002Z</time></trkpt><trkpt lat="42.67094370562125" lon="12.728013457726654"><ele>582.6666666666667</ele><time>2026-04-19T10:02:36.002Z</time></trkpt><trkpt lat="42.67110505678975" lon="12.728051226588345"><ele>580.0</ele><time>2026-04-19T10:02:37.002Z</time></trkpt><trkpt lat="42.671251627183" lon="12.728077625036967"><ele>578.25</ele><time>2026-04-19T10:02:38.002Z</time></trkpt><trkpt lat="42.67139742312218" lon="12.728108428359263"><ele>576.5</ele><time>2026-04-19T10:02:39.002Z</time></trkpt><trkpt lat="42.67150719080319" lon="12.728150848499828"><ele>574.75</ele><time>2026-04-19T10:02:40.002Z</time></trkpt><trkpt lat="42.67166424233587" lon="12.728205439395051"><ele>573.0</ele><time>2026-04-19T10:02:41.002Z</time></trkpt><trkpt lat="42.67178669506901" lon="12.72819483661851"><ele>573.0</ele><time>2026-04-19T10:02:41.996Z</time></trkpt><trkpt lat="42.67189959321214" lon="12.728127740067912"><ele>573.0</ele><time>2026-04-19T10:02:42.996Z</time></trkpt><trkpt lat="42.67201193531949" lon="12.728021755531506"><ele>573.0</ele><time>2026-04-19T10:02:43.996Z</time></trkpt><trkpt lat="42.672120553146314" lon="12.727934487266023"><ele>573.0</ele><time>2026-04-19T10:02:44.997Z</time></trkpt><trkpt lat="42.672236329711616" lon="12.727845735342525"><ele>572.0</ele><time>2026-04-19T10:02:45.997Z</time></trkpt><trkpt lat="42.67232419354377" lon="12.72775732790945"><ele>571.0</ele><time>2026-04-19T10:02:46.997Z</time></trkpt><trkpt lat="42.67242888022299" lon="12.72765916097335"><ele>570.0</ele><time>2026-04-19T10:02:47.997Z</time></trkpt><trkpt lat="42.67254844856713" lon="12.727545476639543"><ele>569.0</ele><time>2026-04-19T10:02:48.997Z</time></trkpt><trkpt lat="42.67267403185522" lon="12.727430955886188"><ele>574.6666666666666</ele><time>2026-04-19T10:02:49.998Z</time></trkpt><trkpt lat="42.67282643704722" lon="12.72729476022985"><ele>580.3333333333334</ele><time>2026-04-19T10:02:50.998Z</time></trkpt><trkpt lat="42.67298014876776" lon="12.727182350441222"><ele>586.0</ele><time>2026-04-19T10:02:51.998Z</time></trkpt><trkpt lat="42.67312819310347" lon="12.727051423592101"><ele>586.0</ele><time>2026-04-19T10:02:52.998Z</time></trkpt><trkpt lat="42.67327671636157" lon="12.726940032057918"><ele>586.0</ele><time>2026-04-19T10:02:53.998Z</time></trkpt><trkpt lat="42.67345741392686" lon="12.726809850233053"><ele>586.0</ele><time>2026-04-19T10:02:54.998Z</time></trkpt><trkpt lat="42.673642433621254" lon="12.72671808246872"><ele>581.5</ele><time>2026-04-19T10:02:55.998Z</time></trkpt><trkpt lat="42.67399260938248" lon="12.726536314147474"><ele>577.0</ele><time>2026-04-19T10:02:57.999Z</time></trkpt><trkpt lat="42.674159101961486" lon="12.726454357188684"><ele>577.0</ele><time>2026-04-19T10:02:59.999Z</time></trkpt><trkpt lat="42.67427274886615" lon="12.726435417623554"><ele>577.0</ele><time>2026-04-19T10:03:00.999Z</time></trkpt><trkpt lat="42.674340366253595" lon="12.726451123684852"><ele>577.0</ele><time>2026-04-19T10:03:01.999Z</time></trkpt><trkpt lat="42.67432537928033" lon="12.726359421625654"><ele>577.0</ele><time>2026-04-19T10:03:02.999Z</time></trkpt><trkpt lat="42.674366241889686" lon="12.726461375970674"><ele>577.0</ele><time>2026-04-19T10:03:05.999Z</time></trkpt><trkpt lat="42.67428903856873" lon="12.726502515261881"><ele>577.0</ele><time>2026-04-19T10:03:08Z</time></trkpt><trkpt lat="42.67421852461919" lon="12.726540089105475"><ele>577.0</ele><time>2026-04-19T10:03:09Z</time></trkpt><trkpt lat="42.674107220154994" lon="12.72655118152121"><ele>577.0</ele><time>2026-04-19T10:03:10Z</time></trkpt><trkpt lat="42.67394864319505" lon="12.726635937534546"><ele>577.0</ele><time>2026-04-19T10:03:11Z</time></trkpt><trkpt lat="42.67386351265467" lon="12.726681438863569"><ele>577.0</ele><time>2026-04-19T10:03:12Z</time></trkpt><trkpt lat="42.67374427302088" lon="12.7267488875946"><ele>577.0</ele><time>2026-04-19T10:03:13Z</time></trkpt><trkpt lat="42.67361732726159" lon="12.7268208072694"><ele>577.0</ele><time>2026-04-19T10:03:14Z</time></trkpt><trkpt lat="42.67353002916144" lon="12.726871042149176"><ele>577.0</ele><time>2026-04-19T10:03:15Z</time></trkpt><trkpt lat="42.673450874521166" lon="12.726919455956095"><ele>577.0</ele><time>2026-04-19T10:03:16Z</time></trkpt><trkpt lat="42.67335064015016" lon="12.726983811486772"><ele>577.0</ele><time>2026-04-19T10:03:17Z</time></trkpt><trkpt lat="42.6732622769252" lon="12.727046725104366"><ele>580.0</ele><time>2026-04-19T10:03:18Z</time></trkpt><trkpt lat="42.67316640223387" lon="12.727123316490118"><ele>583.0</ele><time>2026-04-19T10:03:19Z</time></trkpt><trkpt lat="42.67295787088717" lon="12.727320227021039"><ele>586.0</ele><time>2026-04-19T10:03:21Z</time></trkpt><trkpt lat="42.672861575477995" lon="12.727426470646213"><ele>585.0</ele><time>2026-04-19T10:03:22.001Z</time></trkpt><trkpt lat="42.67276827352156" lon="12.72754297877321"><ele>584.0</ele><time>2026-04-19T10:03:23.001Z</time></trkpt><trkpt lat="42.67267424969453" lon="12.727665099842772"><ele>583.0</ele><time>2026-04-19T10:03:24.001Z</time></trkpt><trkpt lat="42.67258330704654" lon="12.727791915382495"><ele>582.0</ele><time>2026-04-19T10:03:25.001Z</time></trkpt><trkpt lat="42.67250160075636" lon="12.727905255836223"><ele>582.0</ele><time>2026-04-19T10:03:26.001Z</time></trkpt><trkpt lat="42.67241260495702" lon="12.728026950611547"><ele>582.0</ele><time>2026-04-19T10:03:27.001Z</time></trkpt><trkpt lat="42.67231877484889" lon="12.728146308537244"><ele>582.0</ele><time>2026-04-19T10:03:28.001Z</time></trkpt><trkpt lat="42.672222731128215" lon="12.728271140087017"><ele>582.0</ele><time>2026-04-19T10:03:29.001Z</time></trkpt><trkpt lat="42.672061422691904" lon="12.72841017516058"><ele>583.3333333333334</ele><time>2026-04-19T10:03:30.001Z</time></trkpt><trkpt lat="42.67193803041536" lon="12.728483385817531"><ele>584.6666666666667</ele><time>2026-04-19T10:03:31.001Z</time></trkpt><trkpt lat="42.671786916310175" lon="12.728556445092703"><ele>586.0</ele><time>2026-04-19T10:03:32.001Z</time></trkpt><trkpt lat="42.67162065298077" lon="12.728585091217683"><ele>586.0</ele><time>2026-04-19T10:03:33.001Z</time></trkpt><trkpt lat="42.6714774483104" lon="12.728594028956001"><ele>586.0</ele><time>2026-04-19T10:03:34.001Z</time></trkpt><trkpt lat="42.67133403062768" lon="12.728632187282736"><ele>586.0</ele><time>2026-04-19T10:03:35.001Z</time></trkpt><trkpt lat="42.67121522457157" lon="12.728649873959723"><ele>586.0</ele><time>2026-04-19T10:03:36.001Z</time></trkpt><trkpt lat="42.671098261172666" lon="12.728652238169301"><ele>589.2</ele><time>2026-04-19T10:03:37.001Z</time></trkpt><trkpt lat="42.6709821348561" lon="12.72865001123311"><ele>592.4000000000001</ele><time>2026-04-19T10:03:38.001Z</time></trkpt><trkpt lat="42.67089861577909" lon="12.728678271557666"><ele>595.6</ele><time>2026-04-19T10:03:39.001Z</time></trkpt><trkpt lat="42.6708159505617" lon="12.728730182176873"><ele>598.8000000000001</ele><time>2026-04-19T10:03:40.001Z</time></trkpt><trkpt lat="42.67073398414878" lon="12.72879268938499"><ele>602.0</ele><time>2026-04-19T10:03:41.001Z</time></trkpt><trkpt lat="42.67065023318295" lon="12.728827358781949"><ele>602.0</ele><time>2026-04-19T10:03:42.001Z</time></trkpt><trkpt lat="42.670510740067705" lon="12.728911008522335"><ele>602.0</ele><time>2026-04-19T10:03:43.001Z</time></trkpt><trkpt lat="42.67039067556152" lon="12.729001147107338"><ele>602.0</ele><time>2026-04-19T10:03:44.001Z</time></trkpt><trkpt lat="42.67026497029071" lon="12.72912708552313"><ele>602.0</ele><time>2026-04-19T10:03:45.001Z</time></trkpt><trkpt lat="42.67013133232459" lon="12.729298728704592"><ele>604.0</ele><time>2026-04-19T10:03:46.002Z</time></trkpt><trkpt lat="42.669933650108085" lon="12.729687032260676"><ele>606.0</ele><time>2026-04-19T10:03:47.002Z</time></trkpt><trkpt lat="42.66983418528674" lon="12.729976101587045"><ele>611.3333333333334</ele><time>2026-04-19T10:03:48.002Z</time></trkpt><trkpt lat="42.669756019976454" lon="12.730225293259322"><ele>616.6666666666667</ele><time>2026-04-19T10:03:49.002Z</time></trkpt><trkpt lat="42.66967964320367" lon="12.730470081255511"><ele>622.0</ele><time>2026-04-19T10:03:50.002Z</time></trkpt><trkpt lat="42.66960539661015" lon="12.730708043394209"><ele>622.0</ele><time>2026-04-19T10:03:51.002Z</time></trkpt><trkpt lat="42.669532934489304" lon="12.730940762053015"><ele>622.0</ele><time>2026-04-19T10:03:52.002Z</time></trkpt><trkpt lat="42.66945407096316" lon="12.731197830363456"><ele>622.0</ele><time>2026-04-19T10:03:53.002Z</time></trkpt><trkpt lat="42.66938305306714" lon="12.731429325257961"><ele>620.0</ele><time>2026-04-19T10:03:54.002Z</time></trkpt><trkpt lat="42.66931313043916" lon="12.73165724967646"><ele>618.0</ele><time>2026-04-19T10:03:55.002Z</time></trkpt><trkpt lat="42.669250194026645" lon="12.731862401528879"><ele>616.0</ele><time>2026-04-19T10:03:56.002Z</time></trkpt><trkpt lat="42.66918050532944" lon="12.732089563440812"><ele>616.0</ele><time>2026-04-19T10:03:57.002Z</time></trkpt><trkpt lat="42.669116567621444" lon="12.732297979145075"><ele>616.0</ele><time>2026-04-19T10:03:58.002Z</time></trkpt><trkpt lat="42.6690338775893" lon="12.732546319207005"><ele>616.0</ele><time>2026-04-19T10:03:59.002Z</time></trkpt><trkpt lat="42.66894303803725" lon="12.732760611853788"><ele>617.25</ele><time>2026-04-19T10:04:00.002Z</time></trkpt><trkpt lat="42.668871040984214" lon="12.73291914499886"><ele>618.5</ele><time>2026-04-19T10:04:01.002Z</time></trkpt><trkpt lat="42.66878395381843" lon="12.733073843918838"><ele>619.75</ele><time>2026-04-19T10:04:02.002Z</time></trkpt><trkpt lat="42.66868760671669" lon="12.73322554924677"><ele>621.0</ele><time>2026-04-19T10:04:03.002Z</time></trkpt><trkpt lat="42.66859906194873" lon="12.733358261866245"><ele>621.5</ele><time>2026-04-19T10:04:04.002Z</time></trkpt><trkpt lat="42.66849427480256" lon="12.733515017060382"><ele>622.0</ele><time>2026-04-19T10:04:05.002Z</time></trkpt><trkpt lat="42.66840431887538" lon="12.73364966261547"><ele>622.5</ele><time>2026-04-19T10:04:06.002Z</time></trkpt><trkpt lat="42.668320368612406" lon="12.733775318955214"><ele>623.0</ele><time>2026-04-19T10:04:07.002Z</time></trkpt><trkpt lat="42.66825363937576" lon="12.73387519893905"><ele>623.0</ele><time>2026-04-19T10:04:08.002Z</time></trkpt><trkpt lat="42.6681940752306" lon="12.733964354882763"><ele>623.0</ele><time>2026-04-19T10:04:09.002Z</time></trkpt><trkpt lat="42.66848986154821" lon="12.734197289838841"><ele>623.0</ele><time>2026-04-19T10:04:14.002Z</time></trkpt><trkpt lat="42.668550763477334" lon="12.734236800718223"><ele>625.0</ele><time>2026-04-19T10:04:16.002Z</time></trkpt><trkpt lat="42.66864200349952" lon="12.734260297162683"><ele>627.0</ele><time>2026-04-19T10:04:17.002Z</time></trkpt><trkpt lat="42.66877241763276" lon="12.734263265263573"><ele>629.0</ele><time>2026-04-19T10:04:18.003Z</time></trkpt><trkpt lat="42.66889215956372" lon="12.734141910917167"><ele>631.0</ele><time>2026-04-19T10:04:19.003Z</time></trkpt><trkpt lat="42.66899989523697" lon="12.734018355612728"><ele>631.0</ele><time>2026-04-19T10:04:20.003Z</time></trkpt><trkpt lat="42.669111767018286" lon="12.733942373144727"><ele>631.0</ele><time>2026-04-19T10:04:21.003Z</time></trkpt><trkpt lat="42.66920552052424" lon="12.733820509597358"><ele>631.0</ele><time>2026-04-19T10:04:22.003Z</time></trkpt><trkpt lat="42.66929526408636" lon="12.733907292003357"><ele>631.0</ele><time>2026-04-19T10:04:23.003Z</time></trkpt><trkpt lat="42.66927712439188" lon="12.734099200969467"><ele>631.0</ele><time>2026-04-19T10:04:24.003Z</time></trkpt><trkpt lat="42.669190507848846" lon="12.734074955943035"><ele>631.0</ele><time>2026-04-19T10:04:25.003Z</time></trkpt><trkpt lat="42.669087763767315" lon="12.734098550139516"><ele>631.0</ele><time>2026-04-19T10:04:27.003Z</time></trkpt><trkpt lat="42.668998232007006" lon="12.734185151356604"><ele>631.0</ele><time>2026-04-19T10:04:28.003Z</time></trkpt><trkpt lat="42.668899226122846" lon="12.734315845085643"><ele>631.0</ele><time>2026-04-19T10:04:29.003Z</time></trkpt><trkpt lat="42.668809218728626" lon="12.734448973581369"><ele>630.75</ele><time>2026-04-19T10:04:30.003Z</time></trkpt><trkpt lat="42.66872469450455" lon="12.734581766770555"><ele>630.5</ele><time>2026-04-19T10:04:31.003Z</time></trkpt><trkpt lat="42.66864465577212" lon="12.734739657974316"><ele>630.25</ele><time>2026-04-19T10:04:32.003Z</time></trkpt><trkpt lat="42.66860672025697" lon="12.734923851130128"><ele>630.0</ele><time>2026-04-19T10:04:33.003Z</time></trkpt><trkpt lat="42.66857367489442" lon="12.735074670313459"><ele>633.0</ele><time>2026-04-19T10:04:34.003Z</time></trkpt><trkpt lat="42.66854870503275" lon="12.735286063145525"><ele>636.0</ele><time>2026-04-19T10:04:35.003Z</time></trkpt><trkpt lat="42.66854191403668" lon="12.735516081696836"><ele>639.0</ele><time>2026-04-19T10:04:36.003Z</time></trkpt><trkpt lat="42.668551937276035" lon="12.735698732172036"><ele>639.0</ele><time>2026-04-19T10:04:37.003Z</time></trkpt><trkpt lat="42.66856545300955" lon="12.735951536790097"><ele>639.0</ele><time>2026-04-19T10:04:38.003Z</time></trkpt><trkpt lat="42.668566002833884" lon="12.736144887689768"><ele>639.0</ele><time>2026-04-19T10:04:39.003Z</time></trkpt><trkpt lat="42.668600749375884" lon="12.736324367590358"><ele>643.6</ele><time>2026-04-19T10:04:40.003Z</time></trkpt><trkpt lat="42.66865159071209" lon="12.736472069153567"><ele>648.2</ele><time>2026-04-19T10:04:41.003Z</time></trkpt><trkpt lat="42.66871033234862" lon="12.736600155975491"><ele>652.8000000000001</ele><time>2026-04-19T10:04:42.003Z</time></trkpt><trkpt lat="42.668779585226254" lon="12.7367136474007"><ele>657.4</ele><time>2026-04-19T10:04:43.003Z</time></trkpt><trkpt lat="42.66880580672203" lon="12.736805302222578"><ele>662.0</ele><time>2026-04-19T10:04:44.003Z</time></trkpt><trkpt lat="42.66878246666389" lon="12.736909747634238"><ele>662.0</ele><time>2026-04-19T10:04:45.003Z</time></trkpt><trkpt lat="42.66868879894534" lon="12.736957951735883"><ele>662.0</ele><time>2026-04-19T10:04:46.003Z</time></trkpt><trkpt lat="42.66860133821225" lon="12.736982427088433"><ele>662.0</ele><time>2026-04-19T10:04:47.999Z</time></trkpt><trkpt lat="42.668524628717265" lon="12.736834192146707"><ele>662.0</ele><time>2026-04-19T10:04:49.999Z</time></trkpt><trkpt lat="42.66847813989798" lon="12.73673856468618"><ele>662.0</ele><time>2026-04-19T10:04:50.999Z</time></trkpt><trkpt lat="42.66841963893412" lon="12.73663190500462"><ele>660.5</ele><time>2026-04-19T10:04:51.999Z</time></trkpt><trkpt lat="42.66836275180094" lon="12.736498416698657"><ele>659.0</ele><time>2026-04-19T10:04:52.999Z</time></trkpt><trkpt lat="42.668245520591114" lon="12.736337846331852"><ele>657.5</ele><time>2026-04-19T10:04:53.999Z</time></trkpt><trkpt lat="42.66817932109161" lon="12.736217853744352"><ele>656.0</ele><time>2026-04-19T10:04:54.999Z</time></trkpt><trkpt lat="42.66808403088315" lon="12.736073718109594"><ele>653.5</ele><time>2026-04-19T10:04:55.999Z</time></trkpt><trkpt lat="42.66799541188165" lon="12.735985515452853"><ele>651.0</ele><time>2026-04-19T10:04:56.999Z</time></trkpt><trkpt lat="42.66789374985166" lon="12.735938459909853"><ele>648.5</ele><time>2026-04-19T10:04:57.999Z</time></trkpt><trkpt lat="42.66778979958649" lon="12.735926566407874"><ele>646.0</ele><time>2026-04-19T10:04:59Z</time></trkpt><trkpt lat="42.667645521763305" lon="12.735940501739357"><ele>646.0</ele><time>2026-04-19T10:05:00Z</time></trkpt><trkpt lat="42.66751653314673" lon="12.735977236074904"><ele>646.0</ele><time>2026-04-19T10:05:01Z</time></trkpt><trkpt lat="42.66737841355225" lon="12.736042009687528"><ele>646.0</ele><time>2026-04-19T10:05:02Z</time></trkpt><trkpt lat="42.667256367174446" lon="12.73612895759416"><ele>646.0</ele><time>2026-04-19T10:05:03Z</time></trkpt><trkpt lat="42.667141070665096" lon="12.736234224888127"><ele>651.3333333333334</ele><time>2026-04-19T10:05:04Z</time></trkpt><trkpt lat="42.66702278314974" lon="12.736355036708412"><ele>656.6666666666666</ele><time>2026-04-19T10:05:05Z</time></trkpt><trkpt lat="42.666893114935" lon="12.73648070940924"><ele>662.0</ele><time>2026-04-19T10:05:06Z</time></trkpt><trkpt lat="42.66675890872345" lon="12.736582097847371"><ele>662.0</ele><time>2026-04-19T10:05:07Z</time></trkpt><trkpt lat="42.66661123028476" lon="12.736633394532426"><ele>662.0</ele><time>2026-04-19T10:05:08Z</time></trkpt><trkpt lat="42.666438848556304" lon="12.736655127635593"><ele>662.0</ele><time>2026-04-19T10:05:09Z</time></trkpt><trkpt lat="42.66626372674967" lon="12.736682476331207"><ele>661.0</ele><time>2026-04-19T10:05:10Z</time></trkpt><trkpt lat="42.66610679917382" lon="12.73672047933641"><ele>660.0</ele><time>2026-04-19T10:05:11Z</time></trkpt><trkpt lat="42.665982023635216" lon="12.736783061237047"><ele>659.0</ele><time>2026-04-19T10:05:12Z</time></trkpt><trkpt lat="42.6658405979768" lon="12.736829050187561"><ele>658.0</ele><time>2026-04-19T10:05:13Z</time></trkpt><trkpt lat="42.665734709128884" lon="12.73695157086662"><ele>665.0</ele><time>2026-04-19T10:05:14Z</time></trkpt><trkpt lat="42.66556968403491" lon="12.737059547817465"><ele>672.0</ele><time>2026-04-19T10:05:15Z</time></trkpt><trkpt lat="42.665424514260145" lon="12.737110454365228"><ele>679.0</ele><time>2026-04-19T10:05:16Z</time></trkpt><trkpt lat="42.66526627067383" lon="12.737123058757923"><ele>679.0</ele><time>2026-04-19T10:05:17Z</time></trkpt><trkpt lat="42.665100856549515" lon="12.737099796597613"><ele>679.0</ele><time>2026-04-19T10:05:18Z</time></trkpt><trkpt lat="42.664908984773966" lon="12.737050954975196"><ele>679.0</ele><time>2026-04-19T10:05:19Z</time></trkpt><trkpt lat="42.66475518949609" lon="12.737019806906996"><ele>679.0</ele><time>2026-04-19T10:05:20Z</time></trkpt><trkpt lat="42.66468019543113" lon="12.736999117529725"><ele>679.0</ele><time>2026-04-19T10:05:21Z</time></trkpt><trkpt lat="42.664664436272616" lon="12.736860686781364"><ele>679.0</ele><time>2026-04-19T10:05:24.001Z</time></trkpt><trkpt lat="42.66460440144143" lon="12.736737265297835"><ele>679.0</ele><time>2026-04-19T10:05:25.001Z</time></trkpt><trkpt lat="42.66455111974038" lon="12.736627527440909"><ele>679.0</ele><time>2026-04-19T10:05:26.001Z</time></trkpt><trkpt lat="42.66451282326868" lon="12.736496647214391"><ele>678.25</ele><time>2026-04-19T10:05:27.001Z</time></trkpt><trkpt lat="42.664486610751545" lon="12.736349852676101"><ele>677.5</ele><time>2026-04-19T10:05:28.001Z</time></trkpt><trkpt lat="42.66447195858772" lon="12.736205458436846"><ele>676.75</ele><time>2026-04-19T10:05:29.001Z</time></trkpt><trkpt lat="42.66444973874394" lon="12.73604659197926"><ele>676.0</ele><time>2026-04-19T10:05:30.001Z</time></trkpt><trkpt lat="42.66441975979538" lon="12.735899117669684"><ele>676.0</ele><time>2026-04-19T10:05:31.001Z</time></trkpt><trkpt lat="42.66435859435006" lon="12.7357420847606"><ele>676.0</ele><time>2026-04-19T10:05:32.001Z</time></trkpt><trkpt lat="42.66432301081358" lon="12.735627375965098"><ele>676.0</ele><time>2026-04-19T10:05:33.001Z</time></trkpt><trkpt lat="42.66430087939025" lon="12.735505749752752"><ele>676.0</ele><time>2026-04-19T10:05:34.001Z</time></trkpt><trkpt lat="42.6643628581154" lon="12.735433618915375"><ele>676.0</ele><time>2026-04-19T10:05:37.001Z</time></trkpt><trkpt lat="42.66449574726132" lon="12.735430452603492"><ele>674.8333333333334</ele><time>2026-04-19T10:05:38.001Z</time></trkpt><trkpt lat="42.664536198008186" lon="12.7353621457242"><ele>673.6666666666667</ele><time>2026-04-19T10:05:39.001Z</time></trkpt><trkpt lat="42.664570429355216" lon="12.735259986783428"><ele>672.5</ele><time>2026-04-19T10:05:40.001Z</time></trkpt><trkpt lat="42.6646102703973" lon="12.735131592224532"><ele>671.3333333333334</ele><time>2026-04-19T10:05:41.001Z</time></trkpt><trkpt lat="42.66463818985765" lon="12.735050123420677"><ele>670.1666666666666</ele><time>2026-04-19T10:05:42.001Z</time></trkpt><trkpt lat="42.66467651595729" lon="12.734973923897142"><ele>669.0</ele><time>2026-04-19T10:05:43.001Z</time></trkpt><trkpt lat="42.6646949139258" lon="12.7348210993307"><ele>669.0</ele><time>2026-04-19T10:05:45.001Z</time></trkpt><trkpt lat="42.66470965483431" lon="12.734675121652055"><ele>669.0</ele><time>2026-04-19T10:05:47.001Z</time></trkpt><trkpt lat="42.66466832972722" lon="12.734529600761292"><ele>669.0</ele><time>2026-04-19T10:05:49.001Z</time></trkpt><trkpt lat="42.66465109148178" lon="12.73439507132306"><ele>669.0</ele><time>2026-04-19T10:05:51.001Z</time></trkpt><trkpt lat="42.664688194302606" lon="12.73428820991037"><ele>669.0</ele><time>2026-04-19T10:05:53.002Z</time></trkpt><trkpt lat="42.66471603134144" lon="12.73416133812754"><ele>669.6666666666666</ele><time>2026-04-19T10:05:55.002Z</time></trkpt><trkpt lat="42.664757145681726" lon="12.734038867885506"><ele>670.3333333333334</ele><time>2026-04-19T10:05:56.002Z</time></trkpt><trkpt lat="42.66475424234126" lon="12.733924565742143"><ele>671.0</ele><time>2026-04-19T10:05:57.002Z</time></trkpt><trkpt lat="42.66475727443113" lon="12.733812469120414"><ele>671.6666666666667</ele><time>2026-04-19T10:05:58.002Z</time></trkpt><trkpt lat="42.66477938562737" lon="12.73372949438243"><ele>672.3333333333334</ele><time>2026-04-19T10:05:59.002Z</time></trkpt><trkpt lat="42.66480465990535" lon="12.733601084233484"><ele>673.0</ele><time>2026-04-19T10:06:01.002Z</time></trkpt><trkpt lat="42.664830502308085" lon="12.733483171486784"><ele>673.0</ele><time>2026-04-19T10:06:03.002Z</time></trkpt><trkpt lat="42.664841034809605" lon="12.733392872697214"><ele>673.0</ele><time>2026-04-19T10:06:04.002Z</time></trkpt><trkpt lat="42.664896347289755" lon="12.733301601712238"><ele>673.0</ele><time>2026-04-19T10:06:05.002Z</time></trkpt><trkpt lat="42.66493394281843" lon="12.733228657532406"><ele>673.0</ele><time>2026-04-19T10:06:06.002Z</time></trkpt><trkpt lat="42.664964304767814" lon="12.733121233853232"><ele>673.0</ele><time>2026-04-19T10:06:07.002Z</time></trkpt><trkpt lat="42.665021768140505" lon="12.733034341418378"><ele>673.0</ele><time>2026-04-19T10:06:08.002Z</time></trkpt><trkpt lat="42.6650820652917" lon="12.732967584580635"><ele>673.0</ele><time>2026-04-19T10:06:09.002Z</time></trkpt><trkpt lat="42.665111180174115" lon="12.732866345177655"><ele>673.0</ele><time>2026-04-19T10:06:10.002Z</time></trkpt><trkpt lat="42.66518083945161" lon="12.732747933604008"><ele>673.0</ele><time>2026-04-19T10:06:12.002Z</time></trkpt><trkpt lat="42.665236221908714" lon="12.732669461756208"><ele>673.0</ele><time>2026-04-19T10:06:16.002Z</time></trkpt><trkpt lat="42.66527155604098" lon="12.732548171564002"><ele>673.0</ele><time>2026-04-19T10:06:18.002Z</time></trkpt><trkpt lat="42.665307018887304" lon="12.732404647218454"><ele>672.1666666666667</ele><time>2026-04-19T10:06:20.002Z</time></trkpt><trkpt lat="42.66533800027613" lon="12.73225600217683"><ele>671.3333333333334</ele><time>2026-04-19T10:06:22.002Z</time></trkpt><trkpt lat="42.66536861810476" lon="12.73217362651162"><ele>670.5</ele><time>2026-04-19T10:06:23.002Z</time></trkpt><trkpt lat="42.66540149711198" lon="12.732096254288534"><ele>669.6666666666666</ele><time>2026-04-19T10:06:24.002Z</time></trkpt><trkpt lat="42.66543475639242" lon="12.732003707702486"><ele>668.8333333333333</ele><time>2026-04-19T10:06:26.003Z</time></trkpt><trkpt lat="42.665438960397964" lon="12.731911066324415"><ele>668.0</ele><time>2026-04-19T10:06:28.003Z</time></trkpt><trkpt lat="42.66546550246853" lon="12.731731265516954"><ele>670.2</ele><time>2026-04-19T10:06:30.003Z</time></trkpt><trkpt lat="42.665480622298894" lon="12.731640791425281"><ele>672.4</ele><time>2026-04-19T10:06:31.003Z</time></trkpt><trkpt lat="42.66549435939661" lon="12.731529727719586"><ele>674.6</ele><time>2026-04-19T10:06:32.003Z</time></trkpt><trkpt lat="42.6655039724628" lon="12.731382911320592"><ele>676.8000000000001</ele><time>2026-04-19T10:06:33.003Z</time></trkpt><trkpt lat="42.66553038661161" lon="12.731195751326059"><ele>679.0</ele><time>2026-04-19T10:06:34.003Z</time></trkpt><trkpt lat="42.66553256664797" lon="12.731067418067521"><ele>682.2</ele><time>2026-04-19T10:06:35.003Z</time></trkpt><trkpt lat="42.66555404744843" lon="12.730936527545671"><ele>685.4000000000001</ele><time>2026-04-19T10:06:36.003Z</time></trkpt><trkpt lat="42.665551108590705" lon="12.73081838406728"><ele>688.6</ele><time>2026-04-19T10:06:37.003Z</time></trkpt><trkpt lat="42.665543613438885" lon="12.730682300028267"><ele>691.8</ele><time>2026-04-19T10:06:38.003Z</time></trkpt><trkpt lat="42.665582203967034" lon="12.730562541113306"><ele>695.0</ele><time>2026-04-19T10:06:39.003Z</time></trkpt><trkpt lat="42.66560572798337" lon="12.730449421625082"><ele>695.0</ele><time>2026-04-19T10:06:40.003Z</time></trkpt><trkpt lat="42.66566133138247" lon="12.730309610221317"><ele>695.0</ele><time>2026-04-19T10:06:42.003Z</time></trkpt><trkpt lat="42.66570445880005" lon="12.73012773354993"><ele>695.0</ele><time>2026-04-19T10:06:44.003Z</time></trkpt><trkpt lat="42.66569975135788" lon="12.73001213353094"><ele>695.0</ele><time>2026-04-19T10:06:45.003Z</time></trkpt><trkpt lat="42.66573494631693" lon="12.729918762339038"><ele>695.0</ele><time>2026-04-19T10:06:47.003Z</time></trkpt><trkpt lat="42.6657742267886" lon="12.729737105700055"><ele>694.6666666666666</ele><time>2026-04-19T10:06:50.003Z</time></trkpt><trkpt lat="42.665773568774924" lon="12.729643870776176"><ele>694.3333333333333</ele><time>2026-04-19T10:06:51.003Z</time></trkpt><trkpt lat="42.66581140151409" lon="12.72956214826414"><ele>694.0</ele><time>2026-04-19T10:06:52.003Z</time></trkpt><trkpt lat="42.665833829775615" lon="12.729477952972992"><ele>693.6666666666666</ele><time>2026-04-19T10:06:53.003Z</time></trkpt><trkpt lat="42.66589050403638" lon="12.72942253023701"><ele>693.3333333333334</ele><time>2026-04-19T10:06:55Z</time></trkpt><trkpt lat="42.665934548753" lon="12.729278504860336"><ele>693.0</ele><time>2026-04-19T10:06:58Z</time></trkpt><trkpt lat="42.66598891303059" lon="12.729177977749712"><ele>691.4</ele><time>2026-04-19T10:07:01Z</time></trkpt><trkpt lat="42.66611122626657" lon="12.72903635156707"><ele>689.8</ele><time>2026-04-19T10:07:03Z</time></trkpt><trkpt lat="42.666149223529224" lon="12.72894021955293"><ele>688.2</ele><time>2026-04-19T10:07:04Z</time></trkpt><trkpt lat="42.66617620307139" lon="12.728847824834036"><ele>686.6</ele><time>2026-04-19T10:07:05Z</time></trkpt><trkpt lat="42.666218871212656" lon="12.728699385976453"><ele>685.0</ele><time>2026-04-19T10:07:07Z</time></trkpt><trkpt lat="42.66623828093087" lon="12.728587076705498"><ele>682.3333333333334</ele><time>2026-04-19T10:07:09Z</time></trkpt><trkpt lat="42.66626616606006" lon="12.7284665965625"><ele>679.6666666666667</ele><time>2026-04-19T10:07:11Z</time></trkpt><trkpt lat="42.666291651967605" lon="12.72835648238111"><ele>677.0</ele><time>2026-04-19T10:07:14Z</time></trkpt><trkpt lat="42.666312304104196" lon="12.728262283552773"><ele>674.3333333333334</ele><time>2026-04-19T10:07:16Z</time></trkpt><trkpt lat="42.66632811476095" lon="12.728158998743677"><ele>671.6666666666666</ele><time>2026-04-19T10:07:18Z</time></trkpt><trkpt lat="42.66635392176055" lon="12.728033758728678"><ele>669.0</ele><time>2026-04-19T10:07:20Z</time></trkpt><trkpt lat="42.66637098700147" lon="12.727948390338062"><ele>669.0</ele><time>2026-04-19T10:07:21.001Z</time></trkpt><trkpt lat="42.66635090842672" lon="12.727801154595916"><ele>669.0</ele><time>2026-04-19T10:07:25.001Z</time></trkpt><trkpt lat="42.666345043595456" lon="12.727691150052562"><ele>669.0</ele><time>2026-04-19T10:07:28.001Z</time></trkpt><trkpt lat="42.66630406522436" lon="12.727621444913673"><ele>669.0</ele><time>2026-04-19T10:07:29.001Z</time></trkpt><trkpt lat="42.66627471876485" lon="12.727537241746983"><ele>669.0</ele><time>2026-04-19T10:07:30.001Z</time></trkpt><trkpt lat="42.66619407661656" lon="12.727430583119062"><ele>669.0</ele><time>2026-04-19T10:07:33.001Z</time></trkpt><trkpt lat="42.6661302518139" lon="12.72736131416606"><ele>667.8333333333334</ele><time>2026-04-19T10:07:35.001Z</time></trkpt><trkpt lat="42.66606173067043" lon="12.72729948794522"><ele>666.6666666666666</ele><time>2026-04-19T10:07:37.001Z</time></trkpt><trkpt lat="42.66600718258563" lon="12.727236940344406"><ele>665.5</ele><time>2026-04-19T10:07:39.001Z</time></trkpt><trkpt lat="42.6659332997442" lon="12.727203459523269"><ele>664.3333333333333</ele><time>2026-04-19T10:07:42.001Z</time></trkpt><trkpt lat="42.666011467130964" lon="12.72725344823484"><ele>663.1666666666666</ele><time>2026-04-19T10:07:57.002Z</time></trkpt><trkpt lat="42.666082434731216" lon="12.727299991296956"><ele>662.0</ele><time>2026-04-19T10:08:00.002Z</time></trkpt><trkpt lat="42.66613234550978" lon="12.727360467116556"><ele>662.0</ele><time>2026-04-19T10:08:01.002Z</time></trkpt><trkpt lat="42.66629183111091" lon="12.727547315918327"><ele>662.0</ele><time>2026-04-19T10:08:04.002Z</time></trkpt><trkpt lat="42.66633862163899" lon="12.727628337661303"><ele>662.0</ele><time>2026-04-19T10:08:05.002Z</time></trkpt><trkpt lat="42.666401420878564" lon="12.727786430529227"><ele>662.0</ele><time>2026-04-19T10:08:07.002Z</time></trkpt><trkpt lat="42.66640128019353" lon="12.727950380119559"><ele>663.1666666666666</ele><time>2026-04-19T10:08:09.002Z</time></trkpt><trkpt lat="42.66637031734437" lon="12.728034260300738"><ele>664.3333333333333</ele><time>2026-04-19T10:08:10.002Z</time></trkpt><trkpt lat="42.66636353247375" lon="12.728142340338398"><ele>665.5</ele><time>2026-04-19T10:08:11.002Z</time></trkpt><trkpt lat="42.666325006080335" lon="12.728310614553994"><ele>666.6666666666666</ele><time>2026-04-19T10:08:13.002Z</time></trkpt><trkpt lat="42.666301949210634" lon="12.72841081604146"><ele>667.8333333333334</ele><time>2026-04-19T10:08:14.002Z</time></trkpt><trkpt lat="42.666273365783006" lon="12.728513241321156"><ele>669.0</ele><time>2026-04-19T10:08:15.002Z</time></trkpt><trkpt lat="42.666241155683764" lon="12.728651796734468"><ele>670.25</ele><time>2026-04-19T10:08:17.002Z</time></trkpt><trkpt lat="42.66614953738076" lon="12.728735242201775"><ele>671.5</ele><time>2026-04-19T10:08:18.002Z</time></trkpt><trkpt lat="42.66607608702603" lon="12.728884190551973"><ele>672.75</ele><time>2026-04-19T10:08:19.002Z</time></trkpt><trkpt lat="42.66602441569455" lon="12.728983793034475"><ele>674.0</ele><time>2026-04-19T10:08:20.002Z</time></trkpt><trkpt lat="42.665968354542436" lon="12.72913364211127"><ele>675.8333333333333</ele><time>2026-04-19T10:08:22.003Z</time></trkpt><trkpt lat="42.66590322622489" lon="12.729289190362932"><ele>677.6666666666666</ele><time>2026-04-19T10:08:24.003Z</time></trkpt><trkpt lat="42.66583433108424" lon="12.729412462805959"><ele>679.5</ele><time>2026-04-19T10:08:26.003Z</time></trkpt><trkpt lat="42.66578941391953" lon="12.729486644368508"><ele>681.3333333333334</ele><time>2026-04-19T10:08:27.003Z</time></trkpt><trkpt lat="42.66580094842756" lon="12.729573163527645"><ele>683.1666666666667</ele><time>2026-04-19T10:08:30.003Z</time></trkpt><trkpt lat="42.665767118012376" lon="12.729648928408853"><ele>685.0</ele><time>2026-04-19T10:08:32.003Z</time></trkpt><trkpt lat="42.665776248552696" lon="12.729784000358237"><ele>686.6</ele><time>2026-04-19T10:08:35.003Z</time></trkpt><trkpt lat="42.66574030102941" lon="12.729924355119815"><ele>688.2</ele><time>2026-04-19T10:08:37.003Z</time></trkpt><trkpt lat="42.66571322677825" lon="12.730096607063466"><ele>689.8</ele><time>2026-04-19T10:08:39.003Z</time></trkpt><trkpt lat="42.665684127693545" lon="12.730207381721483"><ele>691.4</ele><time>2026-04-19T10:08:40.003Z</time></trkpt><trkpt lat="42.665662776647906" lon="12.730294127840388"><ele>693.0</ele><time>2026-04-19T10:08:41.003Z</time></trkpt><trkpt lat="42.665648230673845" lon="12.730419563076524"><ele>693.4</ele><time>2026-04-19T10:08:42.003Z</time></trkpt><trkpt lat="42.66562286775257" lon="12.730502425167725"><ele>693.8</ele><time>2026-04-19T10:08:43.003Z</time></trkpt><trkpt lat="42.66559730808728" lon="12.730639427447166"><ele>694.2</ele><time>2026-04-19T10:08:45.003Z</time></trkpt><trkpt lat="42.66556657436834" lon="12.730781726932767"><ele>694.6</ele><time>2026-04-19T10:08:47.003Z</time></trkpt><trkpt lat="42.665545294798925" lon="12.730948426086206"><ele>695.0</ele><time>2026-04-19T10:08:49.003Z</time></trkpt><trkpt lat="42.66553751924516" lon="12.731119701126035"><ele>691.8</ele><time>2026-04-19T10:08:51.003Z</time></trkpt><trkpt lat="42.66552592871616" lon="12.731209565594213"><ele>688.6</ele><time>2026-04-19T10:08:52.003Z</time></trkpt><trkpt lat="42.66551002780415" lon="12.731301800120445"><ele>685.4000000000001</ele><time>2026-04-19T10:08:53.003Z</time></trkpt><trkpt lat="42.66546591934193" lon="12.73145045112703"><ele>682.2</ele><time>2026-04-19T10:08:55.004Z</time></trkpt><trkpt lat="42.665447159691574" lon="12.731544456904095"><ele>679.0</ele><time>2026-04-19T10:08:56.004Z</time></trkpt><trkpt lat="42.665419004594526" lon="12.73172292956173"><ele>676.8000000000001</ele><time>2026-04-19T10:08:58.004Z</time></trkpt><trkpt lat="42.665401028669294" lon="12.731919238868281"><ele>674.6</ele><time>2026-04-19T10:09:00Z</time></trkpt><trkpt lat="42.6654059828469" lon="12.73200555050343"><ele>672.4</ele><time>2026-04-19T10:09:01Z</time></trkpt><trkpt lat="42.6653836092624" lon="12.73213342746251"><ele>670.2</ele><time>2026-04-19T10:09:03Z</time></trkpt><trkpt lat="42.66535954072767" lon="12.732214366032833"><ele>668.0</ele><time>2026-04-19T10:09:04Z</time></trkpt><trkpt lat="42.66532282130339" lon="12.73234775295382"><ele>668.3333333333333</ele><time>2026-04-19T10:09:06Z</time></trkpt><trkpt lat="42.66527341345761" lon="12.732447281413497"><ele>668.6666666666666</ele><time>2026-04-19T10:09:07Z</time></trkpt><trkpt lat="42.665242095717105" lon="12.732543634623836"><ele>669.0</ele><time>2026-04-19T10:09:08Z</time></trkpt><trkpt lat="42.66521502386621" lon="12.732638423267128"><ele>669.3333333333334</ele><time>2026-04-19T10:09:09Z</time></trkpt><trkpt lat="42.665172477269685" lon="12.732723703838223"><ele>669.6666666666667</ele><time>2026-04-19T10:09:10Z</time></trkpt><trkpt lat="42.66513585885421" lon="12.732857583780076"><ele>670.0</ele><time>2026-04-19T10:09:12Z</time></trkpt><trkpt lat="42.6650841640228" lon="12.733007117242641"><ele>670.5</ele><time>2026-04-19T10:09:14Z</time></trkpt><trkpt lat="42.66501026058472" lon="12.733073520200936"><ele>671.0</ele><time>2026-04-19T10:09:15Z</time></trkpt><trkpt lat="42.66494730734028" lon="12.733136129537264"><ele>671.5</ele><time>2026-04-19T10:09:16Z</time></trkpt><trkpt lat="42.6648964104298" lon="12.733214715614105"><ele>672.0</ele><time>2026-04-19T10:09:17Z</time></trkpt><trkpt lat="42.66485534383905" lon="12.733357571855931"><ele>672.5</ele><time>2026-04-19T10:09:18Z</time></trkpt><trkpt lat="42.66481603189599" lon="12.733442075577075"><ele>673.0</ele><time>2026-04-19T10:09:19Z</time></trkpt><trkpt lat="42.66478543443189" lon="12.733571378201711"><ele>673.5999999999999</ele><time>2026-04-19T10:09:20Z</time></trkpt><trkpt lat="42.66480759885" lon="12.733672841849422"><ele>674.1999999999999</ele><time>2026-04-19T10:09:21Z</time></trkpt><trkpt lat="42.66477902039084" lon="12.7338452061838"><ele>674.8</ele><time>2026-04-19T10:09:22Z</time></trkpt><trkpt lat="42.66470381081044" lon="12.733968012269408"><ele>675.4</ele><time>2026-04-19T10:09:24Z</time></trkpt><trkpt lat="42.66469298505429" lon="12.73409309120811"><ele>676.0</ele><time>2026-04-19T10:09:25Z</time></trkpt><trkpt lat="42.66466215653043" lon="12.734171232214742"><ele>676.0</ele><time>2026-04-19T10:09:26Z</time></trkpt><trkpt lat="42.66464278738306" lon="12.734274859239106"><ele>676.0</ele><time>2026-04-19T10:09:27Z</time></trkpt><trkpt lat="42.664631451597884" lon="12.734414545455406"><ele>676.0</ele><time>2026-04-19T10:09:28Z</time></trkpt><trkpt lat="42.664637323979484" lon="12.734506951885145"><ele>676.0</ele><time>2026-04-19T10:09:30.001Z</time></trkpt><trkpt lat="42.66465708118886" lon="12.734633484337657"><ele>676.0</ele><time>2026-04-19T10:09:32.001Z</time></trkpt><trkpt lat="42.66463706671683" lon="12.734768778673377"><ele>676.0</ele><time>2026-04-19T10:09:34.001Z</time></trkpt><trkpt lat="42.66464531705188" lon="12.734864085984615"><ele>674.5999999999999</ele><time>2026-04-19T10:09:35.001Z</time></trkpt><trkpt lat="42.66461544103929" lon="12.73496218810123"><ele>673.2</ele><time>2026-04-19T10:09:36.001Z</time></trkpt><trkpt lat="42.6645768257517" lon="12.735115554298812"><ele>671.8</ele><time>2026-04-19T10:09:38.001Z</time></trkpt><trkpt lat="42.66452890076456" lon="12.735276573897504"><ele>670.4000000000001</ele><time>2026-04-19T10:09:40.001Z</time></trkpt><trkpt lat="42.664496750591645" lon="12.735361346268583"><ele>669.0</ele><time>2026-04-19T10:09:41.001Z</time></trkpt><trkpt lat="42.66445110431105" lon="12.735455822390588"><ele>670.1666666666666</ele><time>2026-04-19T10:09:42.001Z</time></trkpt><trkpt lat="42.664322959345526" lon="12.735547192138199"><ele>671.3333333333334</ele><time>2026-04-19T10:09:44.001Z</time></trkpt><trkpt lat="42.664281539275976" lon="12.735622776448839"><ele>672.5</ele><time>2026-04-19T10:09:45.001Z</time></trkpt><trkpt lat="42.664264271649714" lon="12.735708754244868"><ele>673.6666666666667</ele><time>2026-04-19T10:09:46.001Z</time></trkpt><trkpt lat="42.664320027430335" lon="12.735819249040981"><ele>674.8333333333334</ele><time>2026-04-19T10:09:47.001Z</time></trkpt><trkpt lat="42.66436160751505" lon="12.735891972191945"><ele>676.0</ele><time>2026-04-19T10:09:48.001Z</time></trkpt><trkpt lat="42.664390809701565" lon="12.736009623815182"><ele>677.25</ele><time>2026-04-19T10:09:49.001Z</time></trkpt><trkpt lat="42.66441327597075" lon="12.7361494221986"><ele>678.5</ele><time>2026-04-19T10:09:50.001Z</time></trkpt><trkpt lat="42.6644333928014" lon="12.736317465257077"><ele>679.75</ele><time>2026-04-19T10:09:51.001Z</time></trkpt><trkpt lat="42.664447891160364" lon="12.73649548644785"><ele>681.0</ele><time>2026-04-19T10:09:52.001Z</time></trkpt><trkpt lat="42.66449345317522" lon="12.736640909937597"><ele>680.5999999999999</ele><time>2026-04-19T10:09:53.001Z</time></trkpt><trkpt lat="42.66453329399864" lon="12.73674310856497"><ele>680.2</ele><time>2026-04-19T10:09:54.001Z</time></trkpt><trkpt lat="42.66455827987287" lon="12.736841755717453"><ele>679.8</ele><time>2026-04-19T10:09:55.001Z</time></trkpt><trkpt lat="42.6645993801834" lon="12.736972407305949"><ele>679.4000000000001</ele><time>2026-04-19T10:09:57.001Z</time></trkpt><trkpt lat="42.664666168057664" lon="12.737016055132155"><ele>679.0</ele><time>2026-04-19T10:09:59.001Z</time></trkpt><trkpt lat="42.664782595744946" lon="12.73711064687666"><ele>679.0</ele><time>2026-04-19T10:10:01.001Z</time></trkpt><trkpt lat="42.664885634863076" lon="12.737125876555455"><ele>679.0</ele><time>2026-04-19T10:10:02.002Z</time></trkpt><trkpt lat="42.664960146942555" lon="12.737130266374175"><ele>679.0</ele><time>2026-04-19T10:10:03.002Z</time></trkpt><trkpt lat="42.66507397147355" lon="12.737193279700795"><ele>679.0</ele><time>2026-04-19T10:10:05.002Z</time></trkpt><trkpt lat="42.66516497950377" lon="12.737199291749505"><ele>679.0</ele><time>2026-04-19T10:10:07.002Z</time></trkpt><trkpt lat="42.66523285362702" lon="12.73720465318338"><ele>676.0</ele><time>2026-04-19T10:10:13.002Z</time></trkpt><trkpt lat="42.665277415933346" lon="12.73772616403984"><ele>673.0</ele><time>2026-04-19T10:10:26.002Z</time></trkpt><trkpt lat="42.665187845722535" lon="12.737783348468753"><ele>673.0</ele><time>2026-04-19T10:10:30.002Z</time></trkpt><trkpt lat="42.66514792960731" lon="12.737865742058517"><ele>673.0</ele><time>2026-04-19T10:10:32.002Z</time></trkpt><trkpt lat="42.66522291502732" lon="12.737918918320343"><ele>673.0</ele><time>2026-04-19T10:10:35.002Z</time></trkpt><trkpt lat="42.665333139999156" lon="12.737936517869976"><ele>673.0</ele><time>2026-04-19T10:10:37.003Z</time></trkpt><trkpt lat="42.665406101938956" lon="12.7379055177376"><ele>673.0</ele><time>2026-04-19T10:10:38.003Z</time></trkpt><trkpt lat="42.6654903362101" lon="12.737897386052294"><ele>673.0</ele><time>2026-04-19T10:10:39.003Z</time></trkpt><trkpt lat="42.66564997564753" lon="12.737904547856994"><ele>679.0</ele><time>2026-04-19T10:10:40.003Z</time></trkpt><trkpt lat="42.66574168439947" lon="12.737908571875352"><ele>685.0</ele><time>2026-04-19T10:10:41.003Z</time></trkpt><trkpt lat="42.665830645151175" lon="12.73793752884754"><ele>691.0</ele><time>2026-04-19T10:10:42.003Z</time></trkpt><trkpt lat="42.665941087032685" lon="12.737955410077518"><ele>697.0</ele><time>2026-04-19T10:10:43.003Z</time></trkpt><trkpt lat="42.666062843193856" lon="12.737952397588446"><ele>703.0</ele><time>2026-04-19T10:10:44.003Z</time></trkpt><trkpt lat="42.66614036334689" lon="12.737973738789844"><ele>704.4</ele><time>2026-04-19T10:10:45.003Z</time></trkpt><trkpt lat="42.666295689310736" lon="12.738005497060637"><ele>705.8</ele><time>2026-04-19T10:10:46.003Z</time></trkpt><trkpt lat="42.66639812000953" lon="12.738041856344172"><ele>707.2</ele><time>2026-04-19T10:10:47.003Z</time></trkpt><trkpt lat="42.66648392034754" lon="12.738066769973619"><ele>708.6</ele><time>2026-04-19T10:10:48.003Z</time></trkpt><trkpt lat="42.66656217562384" lon="12.738071600429866"><ele>710.0</ele><time>2026-04-19T10:10:49.003Z</time></trkpt><trkpt lat="42.666647311110275" lon="12.738112853794684"><ele>710.0</ele><time>2026-04-19T10:10:50.003Z</time></trkpt><trkpt lat="42.66671393086326" lon="12.73818830555132"><ele>710.0</ele><time>2026-04-19T10:10:51.003Z</time></trkpt><trkpt lat="42.666798351192426" lon="12.738197341131647"><ele>710.0</ele><time>2026-04-19T10:10:52.003Z</time></trkpt><trkpt lat="42.66687979302791" lon="12.738200085432519"><ele>710.0</ele><time>2026-04-19T10:10:53.003Z</time></trkpt><trkpt lat="42.66697296732643" lon="12.738165436418713"><ele>710.0</ele><time>2026-04-19T10:10:54.003Z</time></trkpt><trkpt lat="42.667048044891274" lon="12.738121521252928"><ele>710.0</ele><time>2026-04-19T10:10:55.003Z</time></trkpt><trkpt lat="42.66713339356576" lon="12.738047276361993"><ele>710.0</ele><time>2026-04-19T10:10:56.003Z</time></trkpt><trkpt lat="42.66720326050797" lon="12.737962028365496"><ele>710.0</ele><time>2026-04-19T10:10:57.003Z</time></trkpt><trkpt lat="42.66726761650766" lon="12.737956051658097"><ele>710.0</ele><time>2026-04-19T10:10:58.003Z</time></trkpt><trkpt lat="42.667361812117825" lon="12.737968357207441"><ele>710.0</ele><time>2026-04-19T10:11:00.003Z</time></trkpt><trkpt lat="42.66740005311118" lon="12.738044662439734"><ele>710.0</ele><time>2026-04-19T10:11:02.003Z</time></trkpt><trkpt lat="42.66746309824689" lon="12.73817629996194"><ele>710.0</ele><time>2026-04-19T10:11:04.003Z</time></trkpt><trkpt lat="42.667433718803814" lon="12.738275741798978"><ele>710.0</ele><time>2026-04-19T10:11:06Z</time></trkpt><trkpt lat="42.66740679014751" lon="12.7383531778928"><ele>710.0</ele><time>2026-04-19T10:11:08Z</time></trkpt><trkpt lat="42.66738778285595" lon="12.738512882080594"><ele>710.0</ele><time>2026-04-19T10:11:10Z</time></trkpt><trkpt lat="42.6673815625167" lon="12.73861221614857"><ele>710.0</ele><time>2026-04-19T10:11:11Z</time></trkpt><trkpt lat="42.6673715421345" lon="12.7387291009829"><ele>710.0</ele><time>2026-04-19T10:11:12Z</time></trkpt><trkpt lat="42.667365364444144" lon="12.738862089270599"><ele>710.0</ele><time>2026-04-19T10:11:13Z</time></trkpt><trkpt lat="42.66735981611456" lon="12.73899124095717"><ele>711.6</ele><time>2026-04-19T10:11:14Z</time></trkpt><trkpt lat="42.667328924106805" lon="12.739148891084032"><ele>713.2</ele><time>2026-04-19T10:11:15Z</time></trkpt><trkpt lat="42.667288050130225" lon="12.739281590079791"><ele>714.8</ele><time>2026-04-19T10:11:16Z</time></trkpt><trkpt lat="42.66734322191312" lon="12.739457589947692"><ele>716.4</ele><time>2026-04-19T10:11:18Z</time></trkpt><trkpt lat="42.66735547542622" lon="12.739545536652043"><ele>718.0</ele><time>2026-04-19T10:11:19Z</time></trkpt><trkpt lat="42.66739366977313" lon="12.739636182137222"><ele>718.8</ele><time>2026-04-19T10:11:20Z</time></trkpt><trkpt lat="42.6675041708308" lon="12.73971871410667"><ele>719.5999999999999</ele><time>2026-04-19T10:11:21Z</time></trkpt><trkpt lat="42.66757835501138" lon="12.739766981717045"><ele>720.4000000000001</ele><time>2026-04-19T10:11:23Z</time></trkpt><trkpt lat="42.667638558749374" lon="12.73985855476828"><ele>721.2</ele><time>2026-04-19T10:11:26Z</time></trkpt><trkpt lat="42.66773086614486" lon="12.739910250529746"><ele>722.0</ele><time>2026-04-19T10:11:28Z</time></trkpt><trkpt lat="42.66780115897283" lon="12.73994415175121"><ele>722.0</ele><time>2026-04-19T10:11:30Z</time></trkpt><trkpt lat="42.6678984258459" lon="12.739953541266747"><ele>722.0</ele><time>2026-04-19T10:11:32Z</time></trkpt><trkpt lat="42.66798324057246" lon="12.739993231120812"><ele>722.0</ele><time>2026-04-19T10:11:34Z</time></trkpt><trkpt lat="42.66812137397155" lon="12.7401039069223"><ele>722.0</ele><time>2026-04-19T10:11:36Z</time></trkpt><trkpt lat="42.668185853482626" lon="12.740189519970896"><ele>722.0</ele><time>2026-04-19T10:11:37.001Z</time></trkpt><trkpt lat="42.66824035691394" lon="12.74026868354629"><ele>723.6666666666666</ele><time>2026-04-19T10:11:38.001Z</time></trkpt><trkpt lat="42.66828522568004" lon="12.740343299880458"><ele>725.3333333333333</ele><time>2026-04-19T10:11:39.001Z</time></trkpt><trkpt lat="42.66832950974602" lon="12.740424225043707"><ele>727.0</ele><time>2026-04-19T10:11:40.001Z</time></trkpt><trkpt lat="42.668383940284755" lon="12.740495283666801"><ele>728.6666666666666</ele><time>2026-04-19T10:11:41.001Z</time></trkpt><trkpt lat="42.66844988679722" lon="12.740535268299807"><ele>730.3333333333334</ele><time>2026-04-19T10:11:42.001Z</time></trkpt><trkpt lat="42.66851398955042" lon="12.740566645395555"><ele>732.0</ele><time>2026-04-19T10:11:43.001Z</time></trkpt><trkpt lat="42.66860607121979" lon="12.740561909901693"><ele>732.5</ele><time>2026-04-19T10:11:45.001Z</time></trkpt><trkpt lat="42.668675560362615" lon="12.740623632738487"><ele>733.0</ele><time>2026-04-19T10:11:46.001Z</time></trkpt><trkpt lat="42.66873727424935" lon="12.740676642260986"><ele>733.5</ele><time>2026-04-19T10:11:47.001Z</time></trkpt><trkpt lat="42.66879101486575" lon="12.74074717539556"><ele>734.0</ele><time>2026-04-19T10:11:48.001Z</time></trkpt><trkpt lat="42.668840710944046" lon="12.740806878193562"><ele>734.5</ele><time>2026-04-19T10:11:49.001Z</time></trkpt><trkpt lat="42.66888532818885" lon="12.74088466270005"><ele>735.0</ele><time>2026-04-19T10:11:50.001Z</time></trkpt><trkpt lat="42.66894563636349" lon="12.74100953617779"><ele>739.0</ele><time>2026-04-19T10:11:52.001Z</time></trkpt><trkpt lat="42.66898502237868" lon="12.741133037573405"><ele>743.0</ele><time>2026-04-19T10:11:54.001Z</time></trkpt><trkpt lat="42.66897264453719" lon="12.741288859112135"><ele>747.0</ele><time>2026-04-19T10:11:56.001Z</time></trkpt><trkpt lat="42.66898542219919" lon="12.741412102361606"><ele>751.0</ele><time>2026-04-19T10:11:57.001Z</time></trkpt><trkpt lat="42.66899800545721" lon="12.741520694468074"><ele>755.0</ele><time>2026-04-19T10:11:58.001Z</time></trkpt><trkpt lat="42.66906834858289" lon="12.741645208773518"><ele>755.0</ele><time>2026-04-19T10:11:59.001Z</time></trkpt><trkpt lat="42.669063706022015" lon="12.741778709584304"><ele>755.0</ele><time>2026-04-19T10:12:00.001Z</time></trkpt><trkpt lat="42.66905237961095" lon="12.741881163795716"><ele>755.0</ele><time>2026-04-19T10:12:01.001Z</time></trkpt><trkpt lat="42.66912082839045" lon="12.742077371281024"><ele>755.0</ele><time>2026-04-19T10:12:03.001Z</time></trkpt><trkpt lat="42.66911671519448" lon="12.742193532045432"><ele>755.0</ele><time>2026-04-19T10:12:04.001Z</time></trkpt><trkpt lat="42.66914092832444" lon="12.742332746927541"><ele>756.0</ele><time>2026-04-19T10:12:05.001Z</time></trkpt><trkpt lat="42.66918027253906" lon="12.742445022462029"><ele>757.0</ele><time>2026-04-19T10:12:06.001Z</time></trkpt><trkpt lat="42.66925312979526" lon="12.74258116331141"><ele>758.0</ele><time>2026-04-19T10:12:07.001Z</time></trkpt><trkpt lat="42.66926005006632" lon="12.742696280695592"><ele>759.0</ele><time>2026-04-19T10:12:08.001Z</time></trkpt><trkpt lat="42.66925925004642" lon="12.74282081679173"><ele>760.0</ele><time>2026-04-19T10:12:09.002Z</time></trkpt><trkpt lat="42.66928904184836" lon="12.742914784216929"><ele>761.0</ele><time>2026-04-19T10:12:10.002Z</time></trkpt><trkpt lat="42.66932329406447" lon="12.743063645851002"><ele>762.0</ele><time>2026-04-19T10:12:11.002Z</time></trkpt><trkpt lat="42.669359263347694" lon="12.743199532919885"><ele>763.0</ele><time>2026-04-19T10:12:12.002Z</time></trkpt><trkpt lat="42.66935235823095" lon="12.743314242669507"><ele>764.0</ele><time>2026-04-19T10:12:13.002Z</time></trkpt><trkpt lat="42.66937702491096" lon="12.743397074178372"><ele>765.0</ele><time>2026-04-19T10:12:14.002Z</time></trkpt><trkpt lat="42.66946187402123" lon="12.7435239288345"><ele>770.2</ele><time>2026-04-19T10:12:16.002Z</time></trkpt><trkpt lat="42.669508364982775" lon="12.743627903361189"><ele>775.4</ele><time>2026-04-19T10:12:17.002Z</time></trkpt><trkpt lat="42.66958434967772" lon="12.743765290351954"><ele>780.5999999999999</ele><time>2026-04-19T10:12:18.002Z</time></trkpt><trkpt lat="42.66963497247396" lon="12.743843735204091"><ele>785.8</ele><time>2026-04-19T10:12:19.002Z</time></trkpt><trkpt lat="42.66968533578665" lon="12.743925971681477"><ele>791.0</ele><time>2026-04-19T10:12:20.002Z</time></trkpt><trkpt lat="42.66977360869292" lon="12.74396633757319"><ele>791.0000000000001</ele><time>2026-04-19T10:12:22.002Z</time></trkpt><trkpt lat="42.66983493373871" lon="12.743924472951718"><ele>791.0</ele><time>2026-04-19T10:12:24.002Z</time></trkpt><trkpt lat="42.66987407686183" lon="12.74385009328278"><ele>791.0</ele><time>2026-04-19T10:12:25.002Z</time></trkpt><trkpt lat="42.669933931880905" lon="12.743785560593109"><ele>791.0</ele><time>2026-04-19T10:12:26.002Z</time></trkpt><trkpt lat="42.66999385376835" lon="12.74369236254894"><ele>791.0000000000001</ele><time>2026-04-19T10:12:28.002Z</time></trkpt><trkpt lat="42.670115898118524" lon="12.743603794492506"><ele>791.0</ele><time>2026-04-19T10:12:30.002Z</time></trkpt><trkpt lat="42.67019848385654" lon="12.743529735730608"><ele>787.5000000000001</ele><time>2026-04-19T10:12:31.002Z</time></trkpt><trkpt lat="42.67026710610892" lon="12.743478957167648"><ele>784.0</ele><time>2026-04-19T10:12:32.002Z</time></trkpt><trkpt lat="42.67033137425421" lon="12.743445076466754"><ele>780.5</ele><time>2026-04-19T10:12:33.002Z</time></trkpt><trkpt lat="42.670389509719065" lon="12.743406680698314"><ele>777.0</ele><time>2026-04-19T10:12:34.002Z</time></trkpt><trkpt lat="42.670515209999316" lon="12.743423554319417"><ele>773.5000000000001</ele><time>2026-04-19T10:12:36.002Z</time></trkpt><trkpt lat="42.67058438261193" lon="12.743456179863767"><ele>770.0</ele><time>2026-04-19T10:12:37.002Z</time></trkpt><trkpt lat="42.67064692595309" lon="12.743479733158866"><ele>774.0</ele><time>2026-04-19T10:12:38.002Z</time></trkpt><trkpt lat="42.67076348659307" lon="12.743594518906292"><ele>778.0</ele><time>2026-04-19T10:12:40.002Z</time></trkpt><trkpt lat="42.67082311211046" lon="12.743686948963607"><ele>782.0</ele><time>2026-04-19T10:12:41.002Z</time></trkpt><trkpt lat="42.67089425292273" lon="12.74379578251203"><ele>786.0</ele><time>2026-04-19T10:12:42.002Z</time></trkpt><trkpt lat="42.67094085968775" lon="12.743913997099357"><ele>790.0</ele><time>2026-04-19T10:12:43.003Z</time></trkpt><trkpt lat="42.67093183535872" lon="12.744011165437872"><ele>789.9999999999999</ele><time>2026-04-19T10:12:44.003Z</time></trkpt><trkpt lat="42.67092826198019" lon="12.744123264084557"><ele>790.0</ele><time>2026-04-19T10:12:45.003Z</time></trkpt><trkpt lat="42.670887807251574" lon="12.744227041648468"><ele>790.0</ele><time>2026-04-19T10:12:46.003Z</time></trkpt><trkpt lat="42.67088036929033" lon="12.744313570501673"><ele>790.0</ele><time>2026-04-19T10:12:47.003Z</time></trkpt><trkpt lat="42.67083814244077" lon="12.74443609200901"><ele>789.9999999999999</ele><time>2026-04-19T10:12:49.003Z</time></trkpt><trkpt lat="42.67080894477985" lon="12.744553136919743"><ele>790.0</ele><time>2026-04-19T10:12:50.003Z</time></trkpt><trkpt lat="42.67076949692908" lon="12.744629759889008"><ele>789.9999999999999</ele><time>2026-04-19T10:12:51.003Z</time></trkpt><trkpt lat="42.6707201711148" lon="12.744718781684712"><ele>790.0</ele><time>2026-04-19T10:12:53.003Z</time></trkpt><trkpt lat="42.670655512078945" lon="12.744728926165097"><ele>790.0</ele><time>2026-04-19T10:12:55.003Z</time></trkpt><trkpt lat="42.670590764208335" lon="12.744612576214701"><ele>790.0</ele><time>2026-04-19T10:12:58.003Z</time></trkpt><trkpt lat="42.670577416141136" lon="12.744477616031407"><ele>789.9999999999999</ele><time>2026-04-19T10:13:00.003Z</time></trkpt><trkpt lat="42.670574644819396" lon="12.74439153168585"><ele>790.0</ele><time>2026-04-19T10:13:01.003Z</time></trkpt><trkpt lat="42.67050043493294" lon="12.744362501992013"><ele>792.2</ele><time>2026-04-19T10:13:03.003Z</time></trkpt><trkpt lat="42.670517925700125" lon="12.744559297724907"><ele>794.4</ele><time>2026-04-19T10:13:06.003Z</time></trkpt><trkpt lat="42.670481541689725" lon="12.744679304089452"><ele>796.5999999999999</ele><time>2026-04-19T10:13:08.003Z</time></trkpt><trkpt lat="42.670400076112195" lon="12.744794611746807"><ele>798.8</ele><time>2026-04-19T10:13:09.003Z</time></trkpt><trkpt lat="42.670373864846106" lon="12.744874741656451"><ele>801.0</ele><time>2026-04-19T10:13:10.003Z</time></trkpt><trkpt lat="42.67034636750493" lon="12.745003553342135"><ele>801.0</ele><time>2026-04-19T10:13:12Z</time></trkpt><trkpt lat="42.670320048562516" lon="12.745180428306307"><ele>801.0</ele><time>2026-04-19T10:13:14Z</time></trkpt><trkpt lat="42.67036400515763" lon="12.74526544938586"><ele>801.0</ele><time>2026-04-19T10:13:16Z</time></trkpt><trkpt lat="42.67029979780879" lon="12.745294114808416"><ele>801.0</ele><time>2026-04-19T10:13:18Z</time></trkpt><trkpt lat="42.67031269689597" lon="12.745415273133911"><ele>801.0</ele><time>2026-04-19T10:13:20Z</time></trkpt><trkpt lat="42.67036415704821" lon="12.74546879201042"><ele>801.0</ele><time>2026-04-19T10:13:22Z</time></trkpt><trkpt lat="42.670415932915525" lon="12.745544181613015"><ele>805.1666666666666</ele><time>2026-04-19T10:13:24Z</time></trkpt><trkpt lat="42.67047275946165" lon="12.745619652031468"><ele>809.3333333333333</ele><time>2026-04-19T10:13:26Z</time></trkpt><trkpt lat="42.670518125679266" lon="12.745687868906895"><ele>813.5</ele><time>2026-04-19T10:13:27Z</time></trkpt><trkpt lat="42.670597067614466" lon="12.745752871814942"><ele>817.6666666666666</ele><time>2026-04-19T10:13:28Z</time></trkpt><trkpt lat="42.67066405955809" lon="12.745846792755946"><ele>821.8333333333333</ele><time>2026-04-19T10:13:29Z</time></trkpt><trkpt lat="42.670708461856265" lon="12.745917618042819"><ele>826.0</ele><time>2026-04-19T10:13:30.001Z</time></trkpt><trkpt lat="42.67075950856453" lon="12.74597894022821"><ele>825.9999999999999</ele><time>2026-04-19T10:13:31.001Z</time></trkpt><trkpt lat="42.67083394246463" lon="12.746023123882898"><ele>826.0</ele><time>2026-04-19T10:13:32.001Z</time></trkpt><trkpt lat="42.670902672559635" lon="12.746072603208088"><ele>826.0</ele><time>2026-04-19T10:13:33.001Z</time></trkpt><trkpt lat="42.670960293311715" lon="12.74617134419695"><ele>826.0</ele><time>2026-04-19T10:13:35.001Z</time></trkpt><trkpt lat="42.67105493655621" lon="12.746239661700452"><ele>825.9999999999999</ele><time>2026-04-19T10:13:37.001Z</time></trkpt><trkpt lat="42.671127078566975" lon="12.746295283086472"><ele>826.0</ele><time>2026-04-19T10:13:39.001Z</time></trkpt><trkpt lat="42.671194992299306" lon="12.746351258094963"><ele>833.1999999999999</ele><time>2026-04-19T10:13:42.001Z</time></trkpt><trkpt lat="42.67130229355301" lon="12.746332296588509"><ele>840.4</ele><time>2026-04-19T10:13:44.001Z</time></trkpt><trkpt lat="42.67137253856847" lon="12.746358179044321"><ele>847.6</ele><time>2026-04-19T10:13:45.001Z</time></trkpt><trkpt lat="42.671491764545785" lon="12.746401572160071"><ele>854.8</ele><time>2026-04-19T10:13:47.001Z</time></trkpt><trkpt lat="42.67156092858798" lon="12.746388885757282"><ele>862.0</ele><time>2026-04-19T10:13:50.002Z</time></trkpt><trkpt lat="42.67164790343226" lon="12.746415938822508"><ele>861.9999999999999</ele><time>2026-04-19T10:13:52.002Z</time></trkpt><trkpt lat="42.671717855993116" lon="12.74646072899311"><ele>862.0</ele><time>2026-04-19T10:13:54.002Z</time></trkpt><trkpt lat="42.671732105502144" lon="12.746547289758203"><ele>862.0</ele><time>2026-04-19T10:14:49.003Z</time></trkpt><trkpt lat="42.67168917782949" lon="12.746452670722805"><ele>862.0</ele><time>2026-04-19T10:15:23Z</time></trkpt><trkpt lat="42.67162513220213" lon="12.746422641812982"><ele>861.9999999999999</ele><time>2026-04-19T10:15:25Z</time></trkpt><trkpt lat="42.671552769332784" lon="12.746368018278659"><ele>862.0</ele><time>2026-04-19T10:15:28Z</time></trkpt><trkpt lat="42.6714781109478" lon="12.746350296869759"><ele>861.9999999999999</ele><time>2026-04-19T10:15:32Z</time></trkpt><trkpt lat="42.67140216466541" lon="12.746327884218271"><ele>862.0</ele><time>2026-04-19T10:15:35Z</time></trkpt><trkpt lat="42.671300089664044" lon="12.746343481271673"><ele>862.0</ele><time>2026-04-19T10:15:38Z</time></trkpt><trkpt lat="42.67119877969237" lon="12.746335769094516"><ele>862.0</ele><time>2026-04-19T10:15:41Z</time></trkpt><trkpt lat="42.67114226305466" lon="12.746276584257036"><ele>861.9999999999999</ele><time>2026-04-19T10:15:45Z</time></trkpt><trkpt lat="42.67107398914841" lon="12.746218916727829"><ele>862.0</ele><time>2026-04-19T10:15:49Z</time></trkpt><trkpt lat="42.670992336370965" lon="12.746167830408586"><ele>857.6666666666666</ele><time>2026-04-19T10:15:52.001Z</time></trkpt><trkpt lat="42.67092104217634" lon="12.746093008377526"><ele>853.3333333333333</ele><time>2026-04-19T10:15:54.001Z</time></trkpt><trkpt lat="42.670999814324524" lon="12.74604714669353"><ele>849.0</ele><time>2026-04-19T10:15:59.001Z</time></trkpt><trkpt lat="42.67105689265705" lon="12.745962002928795"><ele>844.6666666666667</ele><time>2026-04-19T10:16:01.001Z</time></trkpt><trkpt lat="42.67112000686441" lon="12.7459602383234"><ele>840.3333333333334</ele><time>2026-04-19T10:16:02.001Z</time></trkpt><trkpt lat="42.67121811076803" lon="12.745907248807347"><ele>836.0</ele><time>2026-04-19T10:16:03.001Z</time></trkpt><trkpt lat="42.67132266446332" lon="12.745918786735873"><ele>833.8</ele><time>2026-04-19T10:16:04.001Z</time></trkpt><trkpt lat="42.671426370520564" lon="12.745902982363244"><ele>831.5999999999999</ele><time>2026-04-19T10:16:05.001Z</time></trkpt><trkpt lat="42.67151061912461" lon="12.745884351315517"><ele>829.4</ele><time>2026-04-19T10:16:06.001Z</time></trkpt><trkpt lat="42.67158821748255" lon="12.745896907349552"><ele>827.2</ele><time>2026-04-19T10:16:07.001Z</time></trkpt><trkpt lat="42.671657846142004" lon="12.745913222664162"><ele>825.0</ele><time>2026-04-19T10:16:09.001Z</time></trkpt><trkpt lat="42.67177398182191" lon="12.74592196584149"><ele>825.0</ele><time>2026-04-19T10:16:11.001Z</time></trkpt><trkpt lat="42.67184257947095" lon="12.745955862618365"><ele>825.0</ele><time>2026-04-19T10:16:12.001Z</time></trkpt><trkpt lat="42.67195725815754" lon="12.745922607868524"><ele>825.0</ele><time>2026-04-19T10:16:13.001Z</time></trkpt><trkpt lat="42.67203918992116" lon="12.745941460250032"><ele>825.0</ele><time>2026-04-19T10:16:14.001Z</time></trkpt><trkpt lat="42.67213688754692" lon="12.745934201035574"><ele>825.0</ele><time>2026-04-19T10:16:15.001Z</time></trkpt><trkpt lat="42.6722008475405" lon="12.745905724301934"><ele>825.0</ele><time>2026-04-19T10:16:16.001Z</time></trkpt><trkpt lat="42.6723238352909" lon="12.745848771271907"><ele>825.7142857142857</ele><time>2026-04-19T10:16:18.001Z</time></trkpt><trkpt lat="42.67239302989537" lon="12.74587171666155"><ele>826.4285714285714</ele><time>2026-04-19T10:16:19.001Z</time></trkpt><trkpt lat="42.672459001683144" lon="12.745862104048557"><ele>827.1428571428571</ele><time>2026-04-19T10:16:20.001Z</time></trkpt><trkpt lat="42.67255280996789" lon="12.745818259490665"><ele>827.8571428571429</ele><time>2026-04-19T10:16:22.001Z</time></trkpt><trkpt lat="42.67261976769807" lon="12.745825540259643"><ele>828.5714285714287</ele><time>2026-04-19T10:16:24.001Z</time></trkpt><trkpt lat="42.67269004336484" lon="12.745842625771312"><ele>829.2857142857143</ele><time>2026-04-19T10:16:26.001Z</time></trkpt><trkpt lat="42.67274495129724" lon="12.745800569774255"><ele>830.0</ele><time>2026-04-19T10:16:27.001Z</time></trkpt><trkpt lat="42.672842055632984" lon="12.745687456714968"><ele>829.6</ele><time>2026-04-19T10:16:29.001Z</time></trkpt><trkpt lat="42.672878359669994" lon="12.745610272005194"><ele>829.2</ele><time>2026-04-19T10:16:30.001Z</time></trkpt><trkpt lat="42.67290305800332" lon="12.745460894846225"><ele>828.8</ele><time>2026-04-19T10:16:32.001Z</time></trkpt><trkpt lat="42.67290083515623" lon="12.745349759248107"><ele>828.4</ele><time>2026-04-19T10:16:33.001Z</time></trkpt><trkpt lat="42.67295103789601" lon="12.745233435331508"><ele>828.0</ele><time>2026-04-19T10:16:35.001Z</time></trkpt><trkpt lat="42.67300565771027" lon="12.745119918126255"><ele>828.0</ele><time>2026-04-19T10:16:36.002Z</time></trkpt><trkpt lat="42.67305312795098" lon="12.745009239311957"><ele>828.0</ele><time>2026-04-19T10:16:38.002Z</time></trkpt><trkpt lat="42.6731631790249" lon="12.744941099840045"><ele>828.0</ele><time>2026-04-19T10:16:40.002Z</time></trkpt><trkpt lat="42.67323183544987" lon="12.744954907057437"><ele>828.0</ele><time>2026-04-19T10:16:41.002Z</time></trkpt><trkpt lat="42.67329023206431" lon="12.744895332685534"><ele>828.0</ele><time>2026-04-19T10:16:43.002Z</time></trkpt><trkpt lat="42.6733949319344" lon="12.744897687239066"><ele>828.0</ele><time>2026-04-19T10:16:45.002Z</time></trkpt><trkpt lat="42.67350958842038" lon="12.744881017215818"><ele>828.0</ele><time>2026-04-19T10:16:47.002Z</time></trkpt><trkpt lat="42.67360514905935" lon="12.74475546388829"><ele>828.0</ele><time>2026-04-19T10:16:49.002Z</time></trkpt><trkpt lat="42.67363642588827" lon="12.744624834545473"><ele>828.0</ele><time>2026-04-19T10:16:50.002Z</time></trkpt><trkpt lat="42.67364733739033" lon="12.744513674647619"><ele>828.0</ele><time>2026-04-19T10:16:51.002Z</time></trkpt><trkpt lat="42.67369928422735" lon="12.744376322424598"><ele>827.0</ele><time>2026-04-19T10:16:53.002Z</time></trkpt><trkpt lat="42.67374269688235" lon="12.744303607476125"><ele>826.0</ele><time>2026-04-19T10:16:55.002Z</time></trkpt><trkpt lat="42.673859669156144" lon="12.744233596021704"><ele>825.0</ele><time>2026-04-19T10:16:57.002Z</time></trkpt><trkpt lat="42.67395013821349" lon="12.74419194275399"><ele>824.0</ele><time>2026-04-19T10:16:59.002Z</time></trkpt><trkpt lat="42.67402582736214" lon="12.744190646389047"><ele>823.0</ele><time>2026-04-19T10:17:02.002Z</time></trkpt><trkpt lat="42.67408199520373" lon="12.744237501963212"><ele>822.0</ele><time>2026-04-19T10:17:04.002Z</time></trkpt><trkpt lat="42.67418167439424" lon="12.744383489932527"><ele>825.5</ele><time>2026-04-19T10:17:06.002Z</time></trkpt><trkpt lat="42.674239481535984" lon="12.74444527413643"><ele>829.0</ele><time>2026-04-19T10:17:07.002Z</time></trkpt><trkpt lat="42.67431385526551" lon="12.74451508989725"><ele>832.5</ele><time>2026-04-19T10:17:08.002Z</time></trkpt><trkpt lat="42.674402716530174" lon="12.74455891495205"><ele>836.0</ele><time>2026-04-19T10:17:09.002Z</time></trkpt><trkpt lat="42.674499654379474" lon="12.744566763000135"><ele>839.5</ele><time>2026-04-19T10:17:10.002Z</time></trkpt><trkpt lat="42.674591176696396" lon="12.744579770237792"><ele>843.0</ele><time>2026-04-19T10:17:11.002Z</time></trkpt><trkpt lat="42.674686887302705" lon="12.744600253780158"><ele>844.6666666666666</ele><time>2026-04-19T10:17:12.002Z</time></trkpt><trkpt lat="42.674752063822496" lon="12.744614916681089"><ele>846.3333333333333</ele><time>2026-04-19T10:17:13.002Z</time></trkpt><trkpt lat="42.674815057326526" lon="12.744659233847928"><ele>848.0</ele><time>2026-04-19T10:17:14.002Z</time></trkpt><trkpt lat="42.67490566057795" lon="12.744707414633085"><ele>849.6666666666666</ele><time>2026-04-19T10:17:15.002Z</time></trkpt><trkpt lat="42.675005554097716" lon="12.744733739392586"><ele>851.3333333333333</ele><time>2026-04-19T10:17:16.002Z</time></trkpt><trkpt lat="42.67508976821592" lon="12.744757548660354"><ele>853.0</ele><time>2026-04-19T10:17:17.002Z</time></trkpt><trkpt lat="42.675170162941576" lon="12.744777174387512"><ele>852.9999999999999</ele><time>2026-04-19T10:17:18.002Z</time></trkpt><trkpt lat="42.67525468905594" lon="12.744796140405095"><ele>853.0</ele><time>2026-04-19T10:17:19.003Z</time></trkpt><trkpt lat="42.67533201291673" lon="12.744797909683925"><ele>853.0</ele><time>2026-04-19T10:17:20.003Z</time></trkpt><trkpt lat="42.67541043136428" lon="12.744761963361823"><ele>853.0</ele><time>2026-04-19T10:17:21.003Z</time></trkpt><trkpt lat="42.67548395324845" lon="12.744761072246163"><ele>852.9999999999999</ele><time>2026-04-19T10:17:22.003Z</time></trkpt><trkpt lat="42.675545281475586" lon="12.744807583673486"><ele>853.0</ele><time>2026-04-19T10:17:23.999Z</time></trkpt><trkpt lat="42.675564866182" lon="12.744892587830993"><ele>850.6666666666666</ele><time>2026-04-19T10:17:24.999Z</time></trkpt><trkpt lat="42.67559487940219" lon="12.745003084152003"><ele>848.3333333333333</ele><time>2026-04-19T10:17:25.999Z</time></trkpt><trkpt lat="42.67562189838202" lon="12.745124527978525"><ele>846.0</ele><time>2026-04-19T10:17:26.999Z</time></trkpt><trkpt lat="42.67564652028109" lon="12.745230900624875"><ele>843.6666666666667</ele><time>2026-04-19T10:17:27.999Z</time></trkpt><trkpt lat="42.67569436149472" lon="12.745339307166022"><ele>841.3333333333334</ele><time>2026-04-19T10:17:28.999Z</time></trkpt><trkpt lat="42.675732690217764" lon="12.745425563801625"><ele>839.0</ele><time>2026-04-19T10:17:29.999Z</time></trkpt><trkpt lat="42.67580791712181" lon="12.74556036875499"><ele>839.2</ele><time>2026-04-19T10:17:30.999Z</time></trkpt><trkpt lat="42.67588835345709" lon="12.745674732749723"><ele>839.4000000000001</ele><time>2026-04-19T10:17:31.999Z</time></trkpt><trkpt lat="42.675952797463914" lon="12.745796978945648"><ele>839.6</ele><time>2026-04-19T10:17:32.999Z</time></trkpt><trkpt lat="42.67600800366524" lon="12.74589108369714"><ele>839.8</ele><time>2026-04-19T10:17:34Z</time></trkpt><trkpt lat="42.67607824342977" lon="12.745952295288612"><ele>840.0</ele><time>2026-04-19T10:17:35Z</time></trkpt><trkpt lat="42.67612990652134" lon="12.746018852968449"><ele>846.0</ele><time>2026-04-19T10:17:36Z</time></trkpt><trkpt lat="42.67616403276824" lon="12.746099719131937"><ele>852.0</ele><time>2026-04-19T10:17:37Z</time></trkpt><trkpt lat="42.67623707964795" lon="12.746167198789978"><ele>858.0</ele><time>2026-04-19T10:17:38Z</time></trkpt><trkpt lat="42.67628984861564" lon="12.746286290826825"><ele>864.0</ele><time>2026-04-19T10:17:39Z</time></trkpt><trkpt lat="42.676350563973024" lon="12.746416808804687"><ele>870.0</ele><time>2026-04-19T10:17:40Z</time></trkpt><trkpt lat="42.67642774226458" lon="12.746532934198399"><ele>870.0</ele><time>2026-04-19T10:17:41Z</time></trkpt><trkpt lat="42.676504504204104" lon="12.746625907638238"><ele>870.0</ele><time>2026-04-19T10:17:42Z</time></trkpt><trkpt lat="42.67657486826468" lon="12.746715302361242"><ele>870.0</ele><time>2026-04-19T10:17:43Z</time></trkpt><trkpt lat="42.67667954393129" lon="12.746809872383187"><ele>870.0</ele><time>2026-04-19T10:17:44Z</time></trkpt><trkpt lat="42.676763492390016" lon="12.746978856647765"><ele>872.1666666666666</ele><time>2026-04-19T10:17:45Z</time></trkpt><trkpt lat="42.676795893385105" lon="12.747078983969935"><ele>874.3333333333333</ele><time>2026-04-19T10:17:46Z</time></trkpt><trkpt lat="42.676843446915186" lon="12.747165874387061"><ele>876.5</ele><time>2026-04-19T10:17:47.001Z</time></trkpt><trkpt lat="42.67693593838275" lon="12.74730427888312"><ele>878.6666666666666</ele><time>2026-04-19T10:17:49.001Z</time></trkpt><trkpt lat="42.67696125524646" lon="12.747384998253468"><ele>880.8333333333333</ele><time>2026-04-19T10:17:50.001Z</time></trkpt><trkpt lat="42.67699766342811" lon="12.747474432928621"><ele>883.0</ele><time>2026-04-19T10:17:51.001Z</time></trkpt><trkpt lat="42.67699542744224" lon="12.747604456525748"><ele>886.5999999999999</ele><time>2026-04-19T10:17:53.001Z</time></trkpt><trkpt lat="42.67699266443647" lon="12.747754027757251"><ele>890.1999999999999</ele><time>2026-04-19T10:17:55.001Z</time></trkpt><trkpt lat="42.67693257992686" lon="12.747858650225256"><ele>893.8</ele><time>2026-04-19T10:17:57.001Z</time></trkpt><trkpt lat="42.67695661858878" lon="12.747995737083412"><ele>897.4</ele><time>2026-04-19T10:17:59.001Z</time></trkpt><trkpt lat="42.67688379970361" lon="12.74813147774801"><ele>901.0</ele><time>2026-04-19T10:18:01.001Z</time></trkpt><trkpt lat="42.676860716763876" lon="12.74822641533286"><ele>902.5</ele><time>2026-04-19T10:18:03.001Z</time></trkpt><trkpt lat="42.676847707676565" lon="12.748392173445112"><ele>904.0</ele><time>2026-04-19T10:18:05.001Z</time></trkpt><trkpt lat="42.676873799805996" lon="12.748507955560468"><ele>905.5</ele><time>2026-04-19T10:18:06.001Z</time></trkpt><trkpt lat="42.67694731620818" lon="12.748682506114509"><ele>907.0</ele><time>2026-04-19T10:18:08.002Z</time></trkpt><trkpt lat="42.67701469246247" lon="12.748769889345203"><ele>909.25</ele><time>2026-04-19T10:18:10.002Z</time></trkpt><trkpt lat="42.67712606219437" lon="12.748833001473184"><ele>911.5</ele><time>2026-04-19T10:18:12.002Z</time></trkpt><trkpt lat="42.67722905643689" lon="12.748917884723026"><ele>913.75</ele><time>2026-04-19T10:18:14.002Z</time></trkpt><trkpt lat="42.67729175772711" lon="12.749091868242227"><ele>916.0</ele><time>2026-04-19T10:18:16.002Z</time></trkpt><trkpt lat="42.677318379431135" lon="12.749218102456418"><ele>915.9999999999999</ele><time>2026-04-19T10:18:17.002Z</time></trkpt><trkpt lat="42.6773447511838" lon="12.749332153326426"><ele>916.0</ele><time>2026-04-19T10:18:18.002Z</time></trkpt><trkpt lat="42.6773738727325" lon="12.749421094656256"><ele>916.0</ele><time>2026-04-19T10:18:19.002Z</time></trkpt><trkpt lat="42.67741240859848" lon="12.749512654952284"><ele>916.0</ele><time>2026-04-19T10:18:20.002Z</time></trkpt><trkpt lat="42.67745010480013" lon="12.749603028356995"><ele>915.9999999999999</ele><time>2026-04-19T10:18:21.002Z</time></trkpt><trkpt lat="42.677442595453805" lon="12.749694538257165"><ele>916.0</ele><time>2026-04-19T10:18:22.002Z</time></trkpt><trkpt lat="42.677437253292545" lon="12.749808983072393"><ele>917.0</ele><time>2026-04-19T10:18:23.002Z</time></trkpt><trkpt lat="42.67744598906725" lon="12.749907383820048"><ele>917.9999999999999</ele><time>2026-04-19T10:18:24.002Z</time></trkpt><trkpt lat="42.677478049025844" lon="12.75003375060013"><ele>918.9999999999999</ele><time>2026-04-19T10:18:27.002Z</time></trkpt><trkpt lat="42.67744648976999" lon="12.7501483988938"><ele>920.0</ele><time>2026-04-19T10:18:30.002Z</time></trkpt><trkpt lat="42.677396938229585" lon="12.750268166047462"><ele>921.0</ele><time>2026-04-19T10:18:32.002Z</time></trkpt><trkpt lat="42.67725719168563" lon="12.750427920094571"><ele>921.3333333333334</ele><time>2026-04-19T10:18:34.002Z</time></trkpt><trkpt lat="42.67721438669139" lon="12.750515149321647"><ele>921.6666666666667</ele><time>2026-04-19T10:18:36.002Z</time></trkpt><trkpt lat="42.67719212124502" lon="12.75060007516617"><ele>922.0</ele><time>2026-04-19T10:18:38.002Z</time></trkpt><trkpt lat="42.67721160688069" lon="12.750479020787454"><ele>922.3333333333334</ele><time>2026-04-19T10:18:44.003Z</time></trkpt><trkpt lat="42.67727686293254" lon="12.750423066090976"><ele>922.6666666666667</ele><time>2026-04-19T10:18:45.003Z</time></trkpt><trkpt lat="42.67734739652062" lon="12.750346946282564"><ele>923.0</ele><time>2026-04-19T10:18:46.003Z</time></trkpt><trkpt lat="42.67740590040448" lon="12.750260335944091"><ele>922.5999999999999</ele><time>2026-04-19T10:18:47.003Z</time></trkpt><trkpt lat="42.67745006759472" lon="12.750172477179984"><ele>922.1999999999999</ele><time>2026-04-19T10:18:48.003Z</time></trkpt><trkpt lat="42.67749362279399" lon="12.750083061373118"><ele>921.8</ele><time>2026-04-19T10:18:49.003Z</time></trkpt><trkpt lat="42.67752682197501" lon="12.749991793328135"><ele>921.4</ele><time>2026-04-19T10:18:50.003Z</time></trkpt><trkpt lat="42.67755000282128" lon="12.749887866561766"><ele>921.0</ele><time>2026-04-19T10:18:52.003Z</time></trkpt><trkpt lat="42.67743029025753" lon="12.749754683137049"><ele>921.0</ele><time>2026-04-19T10:18:54.003Z</time></trkpt><trkpt lat="42.677393929138375" lon="12.749605331373383"><ele>921.0</ele><time>2026-04-19T10:18:56.003Z</time></trkpt><trkpt lat="42.677356885047175" lon="12.749475038461501"><ele>921.0</ele><time>2026-04-19T10:18:58.003Z</time></trkpt><trkpt lat="42.67729217474408" lon="12.749305797382469"><ele>921.0</ele><time>2026-04-19T10:19:00.003Z</time></trkpt><trkpt lat="42.67725962726872" lon="12.749157728850017"><ele>920.1666666666666</ele><time>2026-04-19T10:19:02.003Z</time></trkpt><trkpt lat="42.67722938016777" lon="12.749026628645906"><ele>919.3333333333333</ele><time>2026-04-19T10:19:03.003Z</time></trkpt><trkpt lat="42.677212050717095" lon="12.74894270342208"><ele>918.5</ele><time>2026-04-19T10:19:04.003Z</time></trkpt><trkpt lat="42.67717723255079" lon="12.748848987185456"><ele>917.6666666666666</ele><time>2026-04-19T10:19:05.003Z</time></trkpt><trkpt lat="42.67710000350739" lon="12.74874061901387"><ele>916.8333333333333</ele><time>2026-04-19T10:19:07.003Z</time></trkpt><trkpt lat="42.67705539977253" lon="12.748667734640325"><ele>916.0</ele><time>2026-04-19T10:19:08.003Z</time></trkpt><trkpt lat="42.67698807862889" lon="12.748588506710444"><ele>917.4</ele><time>2026-04-19T10:19:09.003Z</time></trkpt><trkpt lat="42.676925838486405" lon="12.748546912140862"><ele>918.8</ele><time>2026-04-19T10:19:10.003Z</time></trkpt><trkpt lat="42.67686228063269" lon="12.74841908188429"><ele>920.1999999999999</ele><time>2026-04-19T10:19:12.003Z</time></trkpt><trkpt lat="42.67681052061331" lon="12.74826595072232"><ele>921.5999999999999</ele><time>2026-04-19T10:19:14.003Z</time></trkpt><trkpt lat="42.67681173519905" lon="12.748156683648814"><ele>923.0</ele><time>2026-04-19T10:19:15.003Z</time></trkpt><trkpt lat="42.67680209050681" lon="12.74800030406991"><ele>920.3333333333334</ele><time>2026-04-19T10:19:17.003Z</time></trkpt><trkpt lat="42.67685460949153" lon="12.747896210831414"><ele>917.6666666666667</ele><time>2026-04-19T10:19:19.003Z</time></trkpt><trkpt lat="42.676875566859216" lon="12.747813437199449"><ele>915.0</ele><time>2026-04-19T10:19:20.004Z</time></trkpt><trkpt lat="42.67689849255532" lon="12.747722578864416"><ele>912.3333333333333</ele><time>2026-04-19T10:19:21.004Z</time></trkpt><trkpt lat="42.67691944597102" lon="12.747621192539786"><ele>909.6666666666666</ele><time>2026-04-19T10:19:22.004Z</time></trkpt><trkpt lat="42.67695764275561" lon="12.747542869962773"><ele>907.0</ele><time>2026-04-19T10:19:23.004Z</time></trkpt><trkpt lat="42.67691442705125" lon="12.747390071024416"><ele>904.4000000000001</ele><time>2026-04-19T10:19:25.004Z</time></trkpt><trkpt lat="42.6769337038565" lon="12.74726455286262"><ele>901.8000000000001</ele><time>2026-04-19T10:19:27.004Z</time></trkpt><trkpt lat="42.676893077174434" lon="12.747144794833662"><ele>899.2</ele><time>2026-04-19T10:19:28.004Z</time></trkpt><trkpt lat="42.67685891297618" lon="12.747058928579317"><ele>896.6</ele><time>2026-04-19T10:19:29.004Z</time></trkpt><trkpt lat="42.676797662551074" lon="12.746922079210213"><ele>894.0</ele><time>2026-04-19T10:19:31Z</time></trkpt><trkpt lat="42.67678159169243" lon="12.746829782109517"><ele>888.0</ele><time>2026-04-19T10:19:32Z</time></trkpt><trkpt lat="42.67674084142828" lon="12.74671449631979"><ele>882.0</ele><time>2026-04-19T10:19:34Z</time></trkpt><trkpt lat="42.6766815310808" lon="12.746616376971184"><ele>876.0</ele><time>2026-04-19T10:19:35Z</time></trkpt><trkpt lat="42.67654870586394" lon="12.746424738068376"><ele>870.0</ele><time>2026-04-19T10:19:36Z</time></trkpt><trkpt lat="42.67646708071" lon="12.746338531370121"><ele>870.0</ele><time>2026-04-19T10:19:37Z</time></trkpt><trkpt lat="42.67639976971443" lon="12.746264688300041"><ele>870.0</ele><time>2026-04-19T10:19:38Z</time></trkpt><trkpt lat="42.67635803938603" lon="12.74618035043627"><ele>870.0</ele><time>2026-04-19T10:19:39Z</time></trkpt><trkpt lat="42.676313458790965" lon="12.74609844390468"><ele>870.0</ele><time>2026-04-19T10:19:40Z</time></trkpt><trkpt lat="42.676251096210045" lon="12.746011503012975"><ele>870.0</ele><time>2026-04-19T10:19:41Z</time></trkpt><trkpt lat="42.676185920155994" lon="12.74592081349376"><ele>870.0</ele><time>2026-04-19T10:19:42Z</time></trkpt><trkpt lat="42.67607514880217" lon="12.745814101523916"><ele>870.25</ele><time>2026-04-19T10:19:43Z</time></trkpt><trkpt lat="42.67596543236502" lon="12.745700196348862"><ele>870.5</ele><time>2026-04-19T10:19:44Z</time></trkpt><trkpt lat="42.67588363009552" lon="12.74555748371898"><ele>870.75</ele><time>2026-04-19T10:19:45Z</time></trkpt><trkpt lat="42.67583196180201" lon="12.745463044006657"><ele>871.0</ele><time>2026-04-19T10:19:46Z</time></trkpt><trkpt lat="42.67575351446203" lon="12.745274863562964"><ele>865.6666666666666</ele><time>2026-04-19T10:19:48Z</time></trkpt><trkpt lat="42.67567477246071" lon="12.745156609384152"><ele>860.3333333333333</ele><time>2026-04-19T10:19:49Z</time></trkpt><trkpt lat="42.67564546057506" lon="12.745077681829766"><ele>855.0</ele><time>2026-04-19T10:19:50Z</time></trkpt><trkpt lat="42.67560126578559" lon="12.7449968888146"><ele>849.6666666666667</ele><time>2026-04-19T10:19:51Z</time></trkpt><trkpt lat="42.675590433043844" lon="12.744871449506254"><ele>844.3333333333334</ele><time>2026-04-19T10:19:52Z</time></trkpt><trkpt lat="42.67556784270731" lon="12.744770146338945"><ele>839.0</ele><time>2026-04-19T10:19:53Z</time></trkpt><trkpt lat="42.675491592400085" lon="12.744689129931484"><ele>839.0</ele><time>2026-04-19T10:19:56Z</time></trkpt><trkpt lat="42.67535781519687" lon="12.74475072231472"><ele>839.0</ele><time>2026-04-19T10:19:58Z</time></trkpt><trkpt lat="42.67522797887636" lon="12.744797929332597"><ele>839.0</ele><time>2026-04-19T10:20:00Z</time></trkpt><trkpt lat="42.67507923004034" lon="12.744790892179184"><ele>839.0</ele><time>2026-04-19T10:20:02Z</time></trkpt><trkpt lat="42.67500241843975" lon="12.744753524457346"><ele>841.8000000000001</ele><time>2026-04-19T10:20:03.001Z</time></trkpt><trkpt lat="42.67493943160628" lon="12.744724210976077"><ele>844.6</ele><time>2026-04-19T10:20:04.001Z</time></trkpt><trkpt lat="42.67482260955564" lon="12.744692269547173"><ele>847.4</ele><time>2026-04-19T10:20:06.001Z</time></trkpt><trkpt lat="42.674738820032736" lon="12.744612896012876"><ele>850.2</ele><time>2026-04-19T10:20:08.001Z</time></trkpt><trkpt lat="42.67459397966464" lon="12.744545428156828"><ele>853.0</ele><time>2026-04-19T10:20:10.001Z</time></trkpt><trkpt lat="42.67451601982432" lon="12.744541486682822"><ele>851.3333333333333</ele><time>2026-04-19T10:20:11.001Z</time></trkpt><trkpt lat="42.67441906710344" lon="12.744527321259309"><ele>849.6666666666666</ele><time>2026-04-19T10:20:12.001Z</time></trkpt><trkpt lat="42.67435118287202" lon="12.744505903254352"><ele>848.0</ele><time>2026-04-19T10:20:13.001Z</time></trkpt><trkpt lat="42.67428927343312" lon="12.744444219082666"><ele>846.3333333333333</ele><time>2026-04-19T10:20:14.001Z</time></trkpt><trkpt lat="42.67422193030872" lon="12.744382584019451"><ele>844.6666666666666</ele><time>2026-04-19T10:20:15.001Z</time></trkpt><trkpt lat="42.67415163764657" lon="12.74432830120482"><ele>843.0</ele><time>2026-04-19T10:20:16.001Z</time></trkpt><trkpt lat="42.6741160444261" lon="12.744255870388539"><ele>838.8</ele><time>2026-04-19T10:20:17.001Z</time></trkpt><trkpt lat="42.67406988406265" lon="12.744175609516553"><ele>834.5999999999999</ele><time>2026-04-19T10:20:19.001Z</time></trkpt><trkpt lat="42.67399522510455" lon="12.744175623807998"><ele>830.4000000000001</ele><time>2026-04-19T10:20:21.001Z</time></trkpt><trkpt lat="42.67393057360462" lon="12.74421341225457"><ele>826.2</ele><time>2026-04-19T10:20:23.001Z</time></trkpt><trkpt lat="42.67383133386034" lon="12.74426933418498"><ele>822.0</ele><time>2026-04-19T10:20:25.001Z</time></trkpt><trkpt lat="42.6737367683878" lon="12.744375208116601"><ele>823.2</ele><time>2026-04-19T10:20:27.001Z</time></trkpt><trkpt lat="42.67367251942436" lon="12.744458679838214"><ele>824.4000000000001</ele><time>2026-04-19T10:20:30.001Z</time></trkpt><trkpt lat="42.67367761609755" lon="12.744592501247828"><ele>825.5999999999999</ele><time>2026-04-19T10:20:32.001Z</time></trkpt><trkpt lat="42.67363589921288" lon="12.744707399201696"><ele>826.8</ele><time>2026-04-19T10:20:34.001Z</time></trkpt><trkpt lat="42.67356065061506" lon="12.744844154363635"><ele>828.0</ele><time>2026-04-19T10:20:36.001Z</time></trkpt><trkpt lat="42.67350998152057" lon="12.74489590092892"><ele>828.0</ele><time>2026-04-19T10:20:37.001Z</time></trkpt><trkpt lat="42.67343360610887" lon="12.74491400153179"><ele>828.0</ele><time>2026-04-19T10:20:39.001Z</time></trkpt><trkpt lat="42.673368596854" lon="12.74490558055053"><ele>828.0</ele><time>2026-04-19T10:20:40.001Z</time></trkpt><trkpt lat="42.673291511275366" lon="12.744915133118067"><ele>828.0</ele><time>2026-04-19T10:20:41.001Z</time></trkpt><trkpt lat="42.67322696242318" lon="12.745001155473114"><ele>828.0</ele><time>2026-04-19T10:20:43.001Z</time></trkpt><trkpt lat="42.67312750317428" lon="12.745045023008249"><ele>828.0</ele><time>2026-04-19T10:20:45.001Z</time></trkpt><trkpt lat="42.67304507066991" lon="12.745132151262148"><ele>828.0</ele><time>2026-04-19T10:20:47.001Z</time></trkpt><trkpt lat="42.67300037371916" lon="12.745206833466334"><ele>828.0</ele><time>2026-04-19T10:20:48.002Z</time></trkpt><trkpt lat="42.67294746570236" lon="12.745323759156866"><ele>828.0</ele><time>2026-04-19T10:20:50.002Z</time></trkpt><trkpt lat="42.672886165608" lon="12.745468682939565"><ele>828.0</ele><time>2026-04-19T10:20:52.002Z</time></trkpt><trkpt lat="42.67287346167625" lon="12.745581653716426"><ele>828.0</ele><time>2026-04-19T10:20:53.002Z</time></trkpt><trkpt lat="42.67284153566236" lon="12.745693192689624"><ele>828.4</ele><time>2026-04-19T10:20:55.002Z</time></trkpt><trkpt lat="42.67274710374181" lon="12.745813212863476"><ele>828.8</ele><time>2026-04-19T10:20:57.002Z</time></trkpt><trkpt lat="42.67263759048638" lon="12.74586766275322"><ele>829.2</ele><time>2026-04-19T10:21:01.002Z</time></trkpt><trkpt lat="42.67254189087533" lon="12.745877224425197"><ele>829.6</ele><time>2026-04-19T10:21:03.002Z</time></trkpt><trkpt lat="42.672459863371095" lon="12.745915791025876"><ele>830.0</ele><time>2026-04-19T10:21:05.002Z</time></trkpt><trkpt lat="42.67231007976003" lon="12.745962187918733"><ele>830.0000000000001</ele><time>2026-04-19T10:21:07.002Z</time></trkpt><trkpt lat="42.67223167965759" lon="12.745970229143097"><ele>830.0</ele><time>2026-04-19T10:21:08.002Z</time></trkpt><trkpt lat="42.672136647839686" lon="12.745958224428165"><ele>830.0</ele><time>2026-04-19T10:21:09.002Z</time></trkpt><trkpt lat="42.6720318935668" lon="12.745962063193815"><ele>830.0</ele><time>2026-04-19T10:21:10.002Z</time></trkpt><trkpt lat="42.67194121715452" lon="12.746006809042655"><ele>830.0000000000001</ele><time>2026-04-19T10:21:11.002Z</time></trkpt><trkpt lat="42.67187528558554" lon="12.74601260560604"><ele>830.0</ele><time>2026-04-19T10:21:12.002Z</time></trkpt><trkpt lat="42.67176942427419" lon="12.746009824713038"><ele>829.1666666666667</ele><time>2026-04-19T10:21:14.002Z</time></trkpt><trkpt lat="42.67169762789996" lon="12.74596779880681"><ele>828.3333333333334</ele><time>2026-04-19T10:21:16.002Z</time></trkpt><trkpt lat="42.671622080457155" lon="12.745964172428616"><ele>827.5</ele><time>2026-04-19T10:21:17.002Z</time></trkpt><trkpt lat="42.67155290668182" lon="12.745983461834383"><ele>826.6666666666667</ele><time>2026-04-19T10:21:18.002Z</time></trkpt><trkpt lat="42.671465739972604" lon="12.745988776323593"><ele>825.8333333333334</ele><time>2026-04-19T10:21:19.002Z</time></trkpt><trkpt lat="42.67136930229884" lon="12.746006772389526"><ele>825.0</ele><time>2026-04-19T10:21:20.002Z</time></trkpt><trkpt lat="42.67130361279724" lon="12.746027991080663"><ele>825.0</ele><time>2026-04-19T10:21:21.002Z</time></trkpt><trkpt lat="42.67122711939743" lon="12.746029674736954"><ele>825.0</ele><time>2026-04-19T10:21:22.002Z</time></trkpt><trkpt lat="42.67109417675519" lon="12.746065395229637"><ele>825.0</ele><time>2026-04-19T10:21:23.002Z</time></trkpt><trkpt lat="42.67102183726556" lon="12.746101418063105"><ele>825.0</ele><time>2026-04-19T10:21:24.002Z</time></trkpt><trkpt lat="42.67092992170146" lon="12.746070362796068"><ele>825.0</ele><time>2026-04-19T10:21:26.002Z</time></trkpt><trkpt lat="42.67081418211803" lon="12.745968315688017"><ele>825.1666666666666</ele><time>2026-04-19T10:21:28.002Z</time></trkpt><trkpt lat="42.6707438958288" lon="12.745915911500733"><ele>825.3333333333333</ele><time>2026-04-19T10:21:29.002Z</time></trkpt><trkpt lat="42.67067847668911" lon="12.745871344318223"><ele>825.5</ele><time>2026-04-19T10:21:30.002Z</time></trkpt><trkpt lat="42.67062566936763" lon="12.745821028132603"><ele>825.6666666666666</ele><time>2026-04-19T10:21:31.003Z</time></trkpt><trkpt lat="42.67058960946167" lon="12.745731783270651"><ele>825.8333333333333</ele><time>2026-04-19T10:21:32.003Z</time></trkpt><trkpt lat="42.67049720529975" lon="12.74563268223314"><ele>826.0</ele><time>2026-04-19T10:21:34.003Z</time></trkpt><trkpt lat="42.670428888111005" lon="12.745550281554376"><ele>825.9999999999999</ele><time>2026-04-19T10:21:35.999Z</time></trkpt><trkpt lat="42.670374737132924" lon="12.745455877853805"><ele>826.0</ele><time>2026-04-19T10:21:38.999Z</time></trkpt><trkpt lat="42.670310704497204" lon="12.745334903274147"><ele>826.0</ele><time>2026-04-19T10:21:42Z</time></trkpt><trkpt lat="42.670345119395506" lon="12.745224033607226"><ele>826.0</ele><time>2026-04-19T10:21:44Z</time></trkpt><trkpt lat="42.670384270126505" lon="12.745137143464719"><ele>825.9999999999999</ele><time>2026-04-19T10:21:46.999Z</time></trkpt><trkpt lat="42.67037832669506" lon="12.74504441030293"><ele>826.0</ele><time>2026-04-19T10:21:48.999Z</time></trkpt><trkpt lat="42.670358750291896" lon="12.744960596838322"><ele>821.8333333333333</ele><time>2026-04-19T10:21:50.999Z</time></trkpt><trkpt lat="42.67038419867927" lon="12.744857256989754"><ele>817.6666666666666</ele><time>2026-04-19T10:21:52.999Z</time></trkpt><trkpt lat="42.67042082378588" lon="12.744765537694207"><ele>813.5</ele><time>2026-04-19T10:21:53.999Z</time></trkpt><trkpt lat="42.67045898325622" lon="12.744646218764096"><ele>809.3333333333333</ele><time>2026-04-19T10:21:54.999Z</time></trkpt><trkpt lat="42.67049096962909" lon="12.744525203628369"><ele>805.1666666666666</ele><time>2026-04-19T10:21:55.999Z</time></trkpt><trkpt lat="42.67054082312213" lon="12.744423227836581"><ele>801.0</ele><time>2026-04-19T10:21:56.999Z</time></trkpt><trkpt lat="42.670567873786204" lon="12.744333811448149"><ele>801.0</ele><time>2026-04-19T10:21:59Z</time></trkpt><trkpt lat="42.67063077286975" lon="12.744396979679781"><ele>801.0</ele><time>2026-04-19T10:22:01Z</time></trkpt><trkpt lat="42.67061425869072" lon="12.744519740474038"><ele>801.0</ele><time>2026-04-19T10:22:03Z</time></trkpt><trkpt lat="42.67063737290221" lon="12.744626892960595"><ele>801.0</ele><time>2026-04-19T10:22:05Z</time></trkpt><trkpt lat="42.67066022878471" lon="12.744762967389558"><ele>801.0</ele><time>2026-04-19T10:22:07Z</time></trkpt><trkpt lat="42.67070652445538" lon="12.744701594339322"><ele>801.0</ele><time>2026-04-19T10:22:11Z</time></trkpt><trkpt lat="42.67075902823156" lon="12.744582201661668"><ele>801.0</ele><time>2026-04-19T10:22:14Z</time></trkpt><trkpt lat="42.67079899082021" lon="12.744469293147851"><ele>801.0</ele><time>2026-04-19T10:22:16Z</time></trkpt><trkpt lat="42.67082129512925" lon="12.744380895620084"><ele>801.0</ele><time>2026-04-19T10:22:17Z</time></trkpt><trkpt lat="42.67085463479827" lon="12.744206882855204"><ele>801.0</ele><time>2026-04-19T10:22:19.001Z</time></trkpt><trkpt lat="42.67086537055547" lon="12.744091617159558"><ele>801.0</ele><time>2026-04-19T10:22:20.001Z</time></trkpt><trkpt lat="42.67086160108746" lon="12.743944753845833"><ele>799.1666666666666</ele><time>2026-04-19T10:22:22.001Z</time></trkpt><trkpt lat="42.67084739069906" lon="12.743850965549784"><ele>797.3333333333333</ele><time>2026-04-19T10:22:23.001Z</time></trkpt><trkpt lat="42.6708138902535" lon="12.743686396209027"><ele>795.5</ele><time>2026-04-19T10:22:25.001Z</time></trkpt><trkpt lat="42.67076040536005" lon="12.743615673766488"><ele>793.6666666666666</ele><time>2026-04-19T10:22:26.001Z</time></trkpt><trkpt lat="42.67070698538971" lon="12.743561325058087"><ele>791.8333333333333</ele><time>2026-04-19T10:22:27.001Z</time></trkpt><trkpt lat="42.67065248187132" lon="12.743508848011452"><ele>790.0</ele><time>2026-04-19T10:22:28.001Z</time></trkpt><trkpt lat="42.67057324930628" lon="12.743464719265884"><ele>790.1666666666666</ele><time>2026-04-19T10:22:30.001Z</time></trkpt><trkpt lat="42.67048945560629" lon="12.743421030850996"><ele>790.3333333333333</ele><time>2026-04-19T10:22:32.001Z</time></trkpt><trkpt lat="42.67039281699771" lon="12.743395847296513"><ele>790.5</ele><time>2026-04-19T10:22:34.001Z</time></trkpt><trkpt lat="42.67033051290544" lon="12.743413789811921"><ele>790.6666666666667</ele><time>2026-04-19T10:22:35.001Z</time></trkpt><trkpt lat="42.67025649892952" lon="12.743453217714425"><ele>790.8333333333334</ele><time>2026-04-19T10:22:36.001Z</time></trkpt><trkpt lat="42.6701740636531" lon="12.743515646580013"><ele>791.0</ele><time>2026-04-19T10:22:37.001Z</time></trkpt><trkpt lat="42.67009566841926" lon="12.743602489418127"><ele>791.0</ele><time>2026-04-19T10:22:39.001Z</time></trkpt><trkpt lat="42.67002268716286" lon="12.743666344183762"><ele>791.0</ele><time>2026-04-19T10:22:41.001Z</time></trkpt><trkpt lat="42.669964754886855" lon="12.743730122910925"><ele>791.0</ele><time>2026-04-19T10:22:43.001Z</time></trkpt><trkpt lat="42.6698930371424" lon="12.743800865557242"><ele>791.0</ele><time>2026-04-19T10:22:45.001Z</time></trkpt><trkpt lat="42.6698084082143" lon="12.74384811878478"><ele>791.0</ele><time>2026-04-19T10:22:47.001Z</time></trkpt><trkpt lat="42.669723711487144" lon="12.743720166280047"><ele>791.0</ele><time>2026-04-19T10:22:49.001Z</time></trkpt><trkpt lat="42.669643928572796" lon="12.743604072344846"><ele>791.0</ele><time>2026-04-19T10:22:50.001Z</time></trkpt><trkpt lat="42.66959300038851" lon="12.743543375627128"><ele>791.0</ele><time>2026-04-19T10:22:51.002Z</time></trkpt><trkpt lat="42.66952348608119" lon="12.74345457789214"><ele>791.0</ele><time>2026-04-19T10:22:52.002Z</time></trkpt><trkpt lat="42.669444323207216" lon="12.743378069979546"><ele>791.0</ele><time>2026-04-19T10:22:53.002Z</time></trkpt><trkpt lat="42.66938009844867" lon="12.74324462678429"><ele>785.8</ele><time>2026-04-19T10:22:55.002Z</time></trkpt><trkpt lat="42.66935205682689" lon="12.743128060068564"><ele>780.5999999999999</ele><time>2026-04-19T10:22:56.002Z</time></trkpt><trkpt lat="42.669329057648845" lon="12.743010476325152"><ele>775.4</ele><time>2026-04-19T10:22:57.002Z</time></trkpt><trkpt lat="42.66930750352232" lon="12.74286132471392"><ele>770.2</ele><time>2026-04-19T10:22:58.002Z</time></trkpt><trkpt lat="42.669288125725224" lon="12.742750889331015"><ele>765.0</ele><time>2026-04-19T10:22:59.002Z</time></trkpt><trkpt lat="42.66924031848739" lon="12.742652285328864"><ele>764.1666666666666</ele><time>2026-04-19T10:23:00.002Z</time></trkpt><trkpt lat="42.66918932852537" lon="12.742577686097718"><ele>763.3333333333334</ele><time>2026-04-19T10:23:01.002Z</time></trkpt><trkpt lat="42.66915922510138" lon="12.74249113579024"><ele>762.5</ele><time>2026-04-19T10:23:02.002Z</time></trkpt><trkpt lat="42.66912855688698" lon="12.742382970255965"><ele>761.6666666666667</ele><time>2026-04-19T10:23:03.002Z</time></trkpt><trkpt lat="42.66910933687764" lon="12.742300978934745"><ele>760.8333333333334</ele><time>2026-04-19T10:23:04.002Z</time></trkpt><trkpt lat="42.66907533944156" lon="12.742190042704879"><ele>760.0</ele><time>2026-04-19T10:23:05.002Z</time></trkpt><trkpt lat="42.66904786826286" lon="12.742030046402125"><ele>760.0</ele><time>2026-04-19T10:23:07.002Z</time></trkpt><trkpt lat="42.66902858745498" lon="12.741890062303398"><ele>760.0</ele><time>2026-04-19T10:23:09.002Z</time></trkpt><trkpt lat="42.669015768652024" lon="12.741741016824076"><ele>760.0</ele><time>2026-04-19T10:23:11.002Z</time></trkpt><trkpt lat="42.66900159747047" lon="12.741655212216676"><ele>760.0</ele><time>2026-04-19T10:23:12.002Z</time></trkpt><trkpt lat="42.668953245248936" lon="12.741513037198366"><ele>760.0</ele><time>2026-04-19T10:23:14.002Z</time></trkpt><trkpt lat="42.66890192646365" lon="12.741398136740715"><ele>759.0</ele><time>2026-04-19T10:23:15.002Z</time></trkpt><trkpt lat="42.66889672083998" lon="12.74123744290648"><ele>758.0</ele><time>2026-04-19T10:23:17.002Z</time></trkpt><trkpt lat="42.668866231620406" lon="12.741093068172356"><ele>757.0</ele><time>2026-04-19T10:23:19.002Z</time></trkpt><trkpt lat="42.66888521958543" lon="12.74099237282211"><ele>756.0</ele><time>2026-04-19T10:23:21.002Z</time></trkpt><trkpt lat="42.66885307321294" lon="12.740918123335694"><ele>755.0</ele><time>2026-04-19T10:23:22.002Z</time></trkpt><trkpt lat="42.66880424311805" lon="12.740786869549725"><ele>751.6666666666666</ele><time>2026-04-19T10:23:25.002Z</time></trkpt><trkpt lat="42.66873952301892" lon="12.74068699874656"><ele>748.3333333333333</ele><time>2026-04-19T10:23:27.002Z</time></trkpt><trkpt lat="42.66868960743119" lon="12.74061252123393"><ele>745.0</ele><time>2026-04-19T10:23:29.003Z</time></trkpt><trkpt lat="42.66863788989056" lon="12.740551132990985"><ele>741.6666666666666</ele><time>2026-04-19T10:23:31.003Z</time></trkpt><trkpt lat="42.668546583854784" lon="12.740503058788633"><ele>738.3333333333334</ele><time>2026-04-19T10:23:33.003Z</time></trkpt><trkpt lat="42.668445183911565" lon="12.740468526543346"><ele>735.0</ele><time>2026-04-19T10:23:35.003Z</time></trkpt><trkpt lat="42.6683810306124" lon="12.740434926144816"><ele>734.4</ele><time>2026-04-19T10:23:37.003Z</time></trkpt><trkpt lat="42.66829656850224" lon="12.740375210964038"><ele>733.8</ele><time>2026-04-19T10:23:39.003Z</time></trkpt><trkpt lat="42.66821481298077" lon="12.740256428409944"><ele>733.2</ele><time>2026-04-19T10:23:41.003Z</time></trkpt><trkpt lat="42.66813237246997" lon="12.740127013628092"><ele>732.6</ele><time>2026-04-19T10:23:43Z</time></trkpt><trkpt lat="42.66808176959414" lon="12.740062220612574"><ele>732.0</ele><time>2026-04-19T10:23:44Z</time></trkpt><trkpt lat="42.6680237448191" lon="12.739979735067127"><ele>730.5</ele><time>2026-04-19T10:23:45Z</time></trkpt><trkpt lat="42.66792045926329" lon="12.7399332152672"><ele>729.0</ele><time>2026-04-19T10:23:47Z</time></trkpt><trkpt lat="42.66783247342382" lon="12.7399543353731"><ele>727.5</ele><time>2026-04-19T10:23:50Z</time></trkpt><trkpt lat="42.6677560423818" lon="12.73989611537085"><ele>726.0</ele><time>2026-04-19T10:23:53Z</time></trkpt><trkpt lat="42.66769829023911" lon="12.739857777253421"><ele>724.5</ele><time>2026-04-19T10:23:55Z</time></trkpt><trkpt lat="42.667625957828804" lon="12.73979455072752"><ele>723.0</ele><time>2026-04-19T10:23:57Z</time></trkpt><trkpt lat="42.66757852007594" lon="12.739724133575347"><ele>723.0</ele><time>2026-04-19T10:23:59Z</time></trkpt><trkpt lat="42.66753436744936" lon="12.739629195777178"><ele>723.0</ele><time>2026-04-19T10:24:01Z</time></trkpt><trkpt lat="42.66747023867152" lon="12.73955086900726"><ele>723.0</ele><time>2026-04-19T10:24:03Z</time></trkpt><trkpt lat="42.667402624754054" lon="12.739440423640112"><ele>723.0</ele><time>2026-04-19T10:24:05Z</time></trkpt><trkpt lat="42.66732969362801" lon="12.739305640984785"><ele>723.0</ele><time>2026-04-19T10:24:07Z</time></trkpt><trkpt lat="42.6672881518893" lon="12.739152138239588"><ele>722.0</ele><time>2026-04-19T10:24:09Z</time></trkpt><trkpt lat="42.667349053326944" lon="12.738945505309546"><ele>721.0</ele><time>2026-04-19T10:24:11Z</time></trkpt><trkpt lat="42.667359645163536" lon="12.738821291279695"><ele>720.0</ele><time>2026-04-19T10:24:13.001Z</time></trkpt><trkpt lat="42.66736911900909" lon="12.738734439549093"><ele>719.0</ele><time>2026-04-19T10:24:14.001Z</time></trkpt><trkpt lat="42.667357959893344" lon="12.738614060675918"><ele>718.0</ele><time>2026-04-19T10:24:15.001Z</time></trkpt><trkpt lat="42.667378118617755" lon="12.73852868391598"><ele>716.6666666666667</ele><time>2026-04-19T10:24:16.001Z</time></trkpt><trkpt lat="42.667403384658954" lon="12.738390652260264"><ele>715.3333333333334</ele><time>2026-04-19T10:24:18.001Z</time></trkpt><trkpt lat="42.66742388454413" lon="12.738276266401622"><ele>714.0</ele><time>2026-04-19T10:24:20.001Z</time></trkpt><trkpt lat="42.667449256259864" lon="12.738185350631767"><ele>712.6666666666666</ele><time>2026-04-19T10:24:22.001Z</time></trkpt><trkpt lat="42.667455620697325" lon="12.738083974930888"><ele>711.3333333333333</ele><time>2026-04-19T10:24:24.001Z</time></trkpt><trkpt lat="42.66738157736805" lon="12.738002169906673"><ele>710.0</ele><time>2026-04-19T10:24:27.001Z</time></trkpt><trkpt lat="42.667320777594774" lon="12.737954585967294"><ele>710.0</ele><time>2026-04-19T10:24:29.001Z</time></trkpt><trkpt lat="42.66723830915146" lon="12.737955307159757"><ele>710.0</ele><time>2026-04-19T10:24:31.001Z</time></trkpt><trkpt lat="42.66715534340406" lon="12.737997949330465"><ele>710.0</ele><time>2026-04-19T10:24:33.001Z</time></trkpt><trkpt lat="42.667089832119466" lon="12.738035301314646"><ele>710.0</ele><time>2026-04-19T10:24:34.001Z</time></trkpt><trkpt lat="42.66702891457033" lon="12.738068075428687"><ele>710.0</ele><time>2026-04-19T10:24:35.001Z</time></trkpt><trkpt lat="42.66696959993575" lon="12.738097810701717"><ele>710.0</ele><time>2026-04-19T10:24:36.001Z</time></trkpt><trkpt lat="42.66688745502042" lon="12.738147440628046"><ele>710.0</ele><time>2026-04-19T10:24:37.001Z</time></trkpt><trkpt lat="42.666748944603945" lon="12.738184754430947"><ele>710.0</ele><time>2026-04-19T10:24:39.001Z</time></trkpt><trkpt lat="42.666659784707136" lon="12.738164267951133"><ele>710.0</ele><time>2026-04-19T10:24:40.001Z</time></trkpt><trkpt lat="42.66659166472346" lon="12.738120724437366"><ele>710.0</ele><time>2026-04-19T10:24:41.001Z</time></trkpt><trkpt lat="42.66653971545235" lon="12.738067917415506"><ele>710.0</ele><time>2026-04-19T10:24:42.001Z</time></trkpt><trkpt lat="42.66642636583238" lon="12.738048467378679"><ele>710.0</ele><time>2026-04-19T10:24:44.001Z</time></trkpt><trkpt lat="42.666353869982565" lon="12.738003675340732"><ele>710.0</ele><time>2026-04-19T10:24:45.001Z</time></trkpt><trkpt lat="42.66628083949568" lon="12.737992478603001"><ele>710.0</ele><time>2026-04-19T10:24:46.001Z</time></trkpt><trkpt lat="42.66619523858531" lon="12.737933956444195"><ele>710.0</ele><time>2026-04-19T10:24:47.001Z</time></trkpt><trkpt lat="42.666110087313314" lon="12.73790633838111"><ele>710.0</ele><time>2026-04-19T10:24:48.001Z</time></trkpt><trkpt lat="42.66602849630181" lon="12.737894399495909"><ele>710.0</ele><time>2026-04-19T10:24:49.001Z</time></trkpt><trkpt lat="42.66594196306201" lon="12.737896160585679"><ele>708.6</ele><time>2026-04-19T10:24:50.002Z</time></trkpt><trkpt lat="42.665830654422905" lon="12.737895164778756"><ele>707.2</ele><time>2026-04-19T10:24:51.002Z</time></trkpt><trkpt lat="42.66573098345625" lon="12.737879699108499"><ele>705.8</ele><time>2026-04-19T10:24:52.002Z</time></trkpt><trkpt lat="42.66564965621466" lon="12.737873672785465"><ele>704.4</ele><time>2026-04-19T10:24:53.002Z</time></trkpt><trkpt lat="42.66552965027781" lon="12.737891281219976"><ele>703.0</ele><time>2026-04-19T10:24:55.002Z</time></trkpt><trkpt lat="42.66494750000001" lon="12.734681120000001"><ele>673.0</ele><time>2026-04-19T10:24:57.122Z</time></trkpt><trkpt lat="42.665259969216294" lon="12.737923690604815"><ele>673.0</ele><time>2026-04-19T10:24:59.002Z</time></trkpt><trkpt lat="42.66516664986457" lon="12.737899981057845"><ele>673.0</ele><time>2026-04-19T10:25:01.002Z</time></trkpt><trkpt lat="42.665047800520966" lon="12.737779334185953"><ele>673.0</ele><time>2026-04-19T10:25:08.002Z</time></trkpt><trkpt lat="42.66497423597521" lon="12.737655481760125"><ele>673.0</ele><time>2026-04-19T10:25:10.002Z</time></trkpt><trkpt lat="42.664830256590896" lon="12.7377089540337"><ele>674.5</ele><time>2026-04-19T10:25:11.002Z</time></trkpt><trkpt lat="42.66469938836698" lon="12.737475590432746"><ele>676.0</ele><time>2026-04-19T10:25:20.002Z</time></trkpt><trkpt lat="42.664630437859635" lon="12.737391855208726"><ele>677.5</ele><time>2026-04-19T10:25:22.002Z</time></trkpt><trkpt lat="42.66456449206456" lon="12.737316582856097"><ele>679.0</ele><time>2026-04-19T10:25:24.002Z</time></trkpt><trkpt lat="42.66468862991777" lon="12.737087351916498"><ele>679.0</ele><time>2026-04-19T10:25:28.003Z</time></trkpt><trkpt lat="42.66472223068471" lon="12.737011906039081"><ele>679.0</ele><time>2026-04-19T10:25:29.003Z</time></trkpt><trkpt lat="42.66485963225674" lon="12.737122212846613"><ele>679.0</ele><time>2026-04-19T10:25:30.003Z</time></trkpt><trkpt lat="42.66497116387801" lon="12.737140824913185"><ele>679.0</ele><time>2026-04-19T10:25:31.003Z</time></trkpt><trkpt lat="42.66510155787283" lon="12.737167678040645"><ele>679.0</ele><time>2026-04-19T10:25:32.003Z</time></trkpt><trkpt lat="42.66525021124695" lon="12.737186582285723"><ele>679.0</ele><time>2026-04-19T10:25:33.003Z</time></trkpt><trkpt lat="42.665368380144166" lon="12.737182559968582"><ele>679.0</ele><time>2026-04-19T10:25:34.003Z</time></trkpt><trkpt lat="42.66547575148352" lon="12.737161982110289"><ele>679.0</ele><time>2026-04-19T10:25:35.003Z</time></trkpt><trkpt lat="42.66557550580315" lon="12.737121172392563"><ele>680.2</ele><time>2026-04-19T10:25:36.003Z</time></trkpt><trkpt lat="42.66567114633212" lon="12.73704879290942"><ele>681.4000000000001</ele><time>2026-04-19T10:25:37.003Z</time></trkpt><trkpt lat="42.6657620375936" lon="12.736963197933918"><ele>682.6</ele><time>2026-04-19T10:25:38.003Z</time></trkpt><trkpt lat="42.66585389088738" lon="12.736887240867825"><ele>683.8</ele><time>2026-04-19T10:25:39.003Z</time></trkpt><trkpt lat="42.66595319670878" lon="12.736828493257725"><ele>685.0</ele><time>2026-04-19T10:25:40.003Z</time></trkpt><trkpt lat="42.666046680243724" lon="12.736782928237972"><ele>679.25</ele><time>2026-04-19T10:25:41.003Z</time></trkpt><trkpt lat="42.66613727659163" lon="12.736747480079606"><ele>673.5</ele><time>2026-04-19T10:25:42.003Z</time></trkpt><trkpt lat="42.6662628183354" lon="12.7367157392908"><ele>667.75</ele><time>2026-04-19T10:25:43.003Z</time></trkpt><trkpt lat="42.66638137984686" lon="12.736694792551415"><ele>662.0</ele><time>2026-04-19T10:25:44.003Z</time></trkpt><trkpt lat="42.66652820177131" lon="12.736687292536196"><ele>662.0</ele><time>2026-04-19T10:25:45.003Z</time></trkpt><trkpt lat="42.666682557167846" lon="12.736659471457353"><ele>662.0</ele><time>2026-04-19T10:25:46.003Z</time></trkpt><trkpt lat="42.66683854052572" lon="12.736561880434992"><ele>662.0</ele><time>2026-04-19T10:25:47.003Z</time></trkpt><trkpt lat="42.66698322880665" lon="12.736466126068668"><ele>664.75</ele><time>2026-04-19T10:25:48Z</time></trkpt><trkpt lat="42.66708317626856" lon="12.736353219005789"><ele>667.5</ele><time>2026-04-19T10:25:49Z</time></trkpt><trkpt lat="42.66719991850626" lon="12.736241066803894"><ele>670.25</ele><time>2026-04-19T10:25:50Z</time></trkpt><trkpt lat="42.66733616610025" lon="12.736142339023871"><ele>673.0</ele><time>2026-04-19T10:25:51Z</time></trkpt><trkpt lat="42.667445869507674" lon="12.73606495797368"><ele>666.25</ele><time>2026-04-19T10:25:52Z</time></trkpt><trkpt lat="42.66756127824943" lon="12.735992995244843"><ele>659.5</ele><time>2026-04-19T10:25:53Z</time></trkpt><trkpt lat="42.6676975187757" lon="12.735977461609332"><ele>652.75</ele><time>2026-04-19T10:25:54Z</time></trkpt><trkpt lat="42.66782969759611" lon="12.735973444204019"><ele>646.0</ele><time>2026-04-19T10:25:55Z</time></trkpt><trkpt lat="42.66794474371239" lon="12.736003353046017"><ele>648.0</ele><time>2026-04-19T10:25:56Z</time></trkpt><trkpt lat="42.668046904025026" lon="12.736066538007364"><ele>650.0</ele><time>2026-04-19T10:25:57Z</time></trkpt><trkpt lat="42.668106399967066" lon="12.736173759847182"><ele>652.0</ele><time>2026-04-19T10:25:58Z</time></trkpt><trkpt lat="42.66817693752549" lon="12.736281892542571"><ele>654.0</ele><time>2026-04-19T10:25:59Z</time></trkpt><trkpt lat="42.66825622295617" lon="12.736405437099599"><ele>656.0</ele><time>2026-04-19T10:26:00Z</time></trkpt><trkpt lat="42.66833148152233" lon="12.736526540238748"><ele>656.0</ele><time>2026-04-19T10:26:01Z</time></trkpt><trkpt lat="42.66839808368197" lon="12.736622143153626"><ele>656.0</ele><time>2026-04-19T10:26:02Z</time></trkpt><trkpt lat="42.66846317864369" lon="12.736754696938688"><ele>656.0</ele><time>2026-04-19T10:26:03Z</time></trkpt><trkpt lat="42.6685212911279" lon="12.736877965571194"><ele>656.0</ele><time>2026-04-19T10:26:04Z</time></trkpt><trkpt lat="42.66856834248513" lon="12.736956193350407"><ele>656.0</ele><time>2026-04-19T10:26:05Z</time></trkpt><trkpt lat="42.66865247382703" lon="12.73702001040341"><ele>657.1999999999999</ele><time>2026-04-19T10:26:06Z</time></trkpt><trkpt lat="42.66875874038952" lon="12.737009072124906"><ele>658.4</ele><time>2026-04-19T10:26:07Z</time></trkpt><trkpt lat="42.66884180640167" lon="12.736918805268484"><ele>659.6</ele><time>2026-04-19T10:26:08Z</time></trkpt><trkpt lat="42.66885882485463" lon="12.736781156957562"><ele>660.8</ele><time>2026-04-19T10:26:09Z</time></trkpt><trkpt lat="42.66885381965564" lon="12.736680814580543"><ele>662.0</ele><time>2026-04-19T10:26:10Z</time></trkpt><trkpt lat="42.66879459542154" lon="12.73657480862374"><ele>662.5</ele><time>2026-04-19T10:26:11Z</time></trkpt><trkpt lat="42.668740580902046" lon="12.736475968486944"><ele>663.0</ele><time>2026-04-19T10:26:12Z</time></trkpt><trkpt lat="42.66869090540193" lon="12.736347212757542"><ele>663.5</ele><time>2026-04-19T10:26:13Z</time></trkpt><trkpt lat="42.668626540435866" lon="12.736140876002386"><ele>664.0</ele><time>2026-04-19T10:26:14Z</time></trkpt><trkpt lat="42.66862679351684" lon="12.735948132531497"><ele>664.75</ele><time>2026-04-19T10:26:15Z</time></trkpt><trkpt lat="42.668618953703294" lon="12.73577648076359"><ele>665.5</ele><time>2026-04-19T10:26:16.001Z</time></trkpt><trkpt lat="42.668605215460886" lon="12.735608367922087"><ele>666.25</ele><time>2026-04-19T10:26:17.001Z</time></trkpt><trkpt lat="42.668590293024714" lon="12.735455279699789"><ele>667.0</ele><time>2026-04-19T10:26:18.001Z</time></trkpt><trkpt lat="42.66859946614778" lon="12.735282720023969"><ele>664.4000000000001</ele><time>2026-04-19T10:26:19.001Z</time></trkpt><trkpt lat="42.668613499413716" lon="12.73515720502197"><ele>661.8000000000001</ele><time>2026-04-19T10:26:20.001Z</time></trkpt><trkpt lat="42.668640040400916" lon="12.734957653286498"><ele>659.2</ele><time>2026-04-19T10:26:22.001Z</time></trkpt><trkpt lat="42.668665420861714" lon="12.734848682171387"><ele>656.6</ele><time>2026-04-19T10:26:23.001Z</time></trkpt><trkpt lat="42.668710747044116" lon="12.734716897394373"><ele>654.0</ele><time>2026-04-19T10:26:24.001Z</time></trkpt><trkpt lat="42.668787112776045" lon="12.734584719877693"><ele>654.0</ele><time>2026-04-19T10:26:25.001Z</time></trkpt><trkpt lat="42.66886861782436" lon="12.734461175813987"><ele>654.0</ele><time>2026-04-19T10:26:26.001Z</time></trkpt><trkpt lat="42.66896119593106" lon="12.73432674128984"><ele>654.0</ele><time>2026-04-19T10:26:27.001Z</time></trkpt><trkpt lat="42.669041433664745" lon="12.734192347730492"><ele>654.0</ele><time>2026-04-19T10:26:28.001Z</time></trkpt><trkpt lat="42.66913189575759" lon="12.734096928809006"><ele>649.4000000000001</ele><time>2026-04-19T10:26:29.001Z</time></trkpt><trkpt lat="42.66922817022187" lon="12.734051755262668"><ele>644.8000000000001</ele><time>2026-04-19T10:26:30.001Z</time></trkpt><trkpt lat="42.66931344610732" lon="12.734019093876956"><ele>640.2</ele><time>2026-04-19T10:26:31.001Z</time></trkpt><trkpt lat="42.66935585303598" lon="12.733911719155907"><ele>635.6</ele><time>2026-04-19T10:26:33.001Z</time></trkpt><trkpt lat="42.66931056609275" lon="12.733811498882911"><ele>631.0</ele><time>2026-04-19T10:26:35.001Z</time></trkpt><trkpt lat="42.66916187940374" lon="12.733777982706172"><ele>631.0</ele><time>2026-04-19T10:26:36.001Z</time></trkpt><trkpt lat="42.66907521002719" lon="12.733874184609554"><ele>631.0</ele><time>2026-04-19T10:26:37.001Z</time></trkpt><trkpt lat="42.669004755277776" lon="12.733951594341127"><ele>631.0</ele><time>2026-04-19T10:26:38.001Z</time></trkpt><trkpt lat="42.66892051024217" lon="12.734044738486764"><ele>631.0</ele><time>2026-04-19T10:26:39.001Z</time></trkpt><trkpt lat="42.66883894411222" lon="12.734125115991795"><ele>631.0</ele><time>2026-04-19T10:26:40.001Z</time></trkpt><trkpt lat="42.668748408494174" lon="12.734197952865161"><ele>631.0</ele><time>2026-04-19T10:26:41.001Z</time></trkpt><trkpt lat="42.66866810380155" lon="12.73425161385781"><ele>631.0</ele><time>2026-04-19T10:26:42.001Z</time></trkpt><trkpt lat="42.668578301291205" lon="12.734258726885104"><ele>631.0</ele><time>2026-04-19T10:26:43.001Z</time></trkpt><trkpt lat="42.66847898167473" lon="12.734224642563523"><ele>631.0</ele><time>2026-04-19T10:26:44.001Z</time></trkpt><trkpt lat="42.668409382420904" lon="12.73414317445825"><ele>631.0</ele><time>2026-04-19T10:26:45.001Z</time></trkpt><trkpt lat="42.66838043130057" lon="12.734024629418363"><ele>629.4</ele><time>2026-04-19T10:26:46.001Z</time></trkpt><trkpt lat="42.668342530555414" lon="12.733947019286212"><ele>627.8</ele><time>2026-04-19T10:26:49.001Z</time></trkpt><trkpt lat="42.66844740829175" lon="12.733694056025078"><ele>626.1999999999999</ele><time>2026-04-19T10:27:08.002Z</time></trkpt><trkpt lat="42.668504401077676" lon="12.733649702882477"><ele>624.6</ele><time>2026-04-19T10:27:09.002Z</time></trkpt><trkpt lat="42.66856238076015" lon="12.733577554455143"><ele>623.0</ele><time>2026-04-19T10:27:10.002Z</time></trkpt><trkpt lat="42.66861329314435" lon="12.733472153334318"><ele>622.5</ele><time>2026-04-19T10:27:11.002Z</time></trkpt><trkpt lat="42.668681269066454" lon="12.733347792400068"><ele>622.0</ele><time>2026-04-19T10:27:12.002Z</time></trkpt><trkpt lat="42.668756712857366" lon="12.733225850456671"><ele>621.5</ele><time>2026-04-19T10:27:13.002Z</time></trkpt><trkpt lat="42.668833022194654" lon="12.733105885002008"><ele>621.0</ele><time>2026-04-19T10:27:14.002Z</time></trkpt><trkpt lat="42.66891256758753" lon="12.73297151044604"><ele>621.0</ele><time>2026-04-19T10:27:15.002Z</time></trkpt><trkpt lat="42.6689902633322" lon="12.732824166088568"><ele>621.0</ele><time>2026-04-19T10:27:16.002Z</time></trkpt><trkpt lat="42.66905915282621" lon="12.73265858039685"><ele>621.0</ele><time>2026-04-19T10:27:17.002Z</time></trkpt><trkpt lat="42.66911909568848" lon="12.732492232133238"><ele>621.0</ele><time>2026-04-19T10:27:18.002Z</time></trkpt><trkpt lat="42.669179885712076" lon="12.732311925665046"><ele>619.75</ele><time>2026-04-19T10:27:19.002Z</time></trkpt><trkpt lat="42.6692402201861" lon="12.732132936233313"><ele>618.5</ele><time>2026-04-19T10:27:20.002Z</time></trkpt><trkpt lat="42.66930240865115" lon="12.731953108771412"><ele>617.25</ele><time>2026-04-19T10:27:21.002Z</time></trkpt><trkpt lat="42.66936455031587" lon="12.7317634240917"><ele>616.0</ele><time>2026-04-19T10:27:22.002Z</time></trkpt><trkpt lat="42.66942403721368" lon="12.7315729121911"><ele>618.0</ele><time>2026-04-19T10:27:23.002Z</time></trkpt><trkpt lat="42.66949821682241" lon="12.731361094592692"><ele>620.0</ele><time>2026-04-19T10:27:24.002Z</time></trkpt><trkpt lat="42.6695701317858" lon="12.731145947563324"><ele>622.0</ele><time>2026-04-19T10:27:25.002Z</time></trkpt><trkpt lat="42.669640138080275" lon="12.730931873358472"><ele>622.0</ele><time>2026-04-19T10:27:26.002Z</time></trkpt><trkpt lat="42.6697040481835" lon="12.73072901073247"><ele>622.0</ele><time>2026-04-19T10:27:27.002Z</time></trkpt><trkpt lat="42.669758480898906" lon="12.73053064816195"><ele>622.0</ele><time>2026-04-19T10:27:28.002Z</time></trkpt><trkpt lat="42.66981688320599" lon="12.730347604826909"><ele>616.6666666666667</ele><time>2026-04-19T10:27:29.002Z</time></trkpt><trkpt lat="42.669873865804526" lon="12.730160590101548"><ele>611.3333333333334</ele><time>2026-04-19T10:27:30.002Z</time></trkpt><trkpt lat="42.66993570573495" lon="12.729963371059185"><ele>606.0</ele><time>2026-04-19T10:27:31.002Z</time></trkpt><trkpt lat="42.669991096712906" lon="12.72975000998993"><ele>606.0</ele><time>2026-04-19T10:27:32.002Z</time></trkpt><trkpt lat="42.6700715335518" lon="12.729535760813825"><ele>606.0</ele><time>2026-04-19T10:27:33.002Z</time></trkpt><trkpt lat="42.670176162325355" lon="12.729329666633854"><ele>606.0</ele><time>2026-04-19T10:27:34.003Z</time></trkpt><trkpt lat="42.670308675387986" lon="12.729153902037524"><ele>604.6666666666666</ele><time>2026-04-19T10:27:35.003Z</time></trkpt><trkpt lat="42.670471476794596" lon="12.729029896733957"><ele>603.3333333333333</ele><time>2026-04-19T10:27:36.003Z</time></trkpt><trkpt lat="42.6706207591412" lon="12.728887893246077"><ele>602.0</ele><time>2026-04-19T10:27:37.003Z</time></trkpt><trkpt lat="42.67079530962458" lon="12.728814652910893"><ele>602.0</ele><time>2026-04-19T10:27:38.003Z</time></trkpt><trkpt lat="42.670974857188014" lon="12.728744588881074"><ele>602.0</ele><time>2026-04-19T10:27:39.003Z</time></trkpt><trkpt lat="42.671167706341755" lon="12.728726774538647"><ele>602.0</ele><time>2026-04-19T10:27:40.003Z</time></trkpt><trkpt lat="42.671361529989326" lon="12.728708399346145"><ele>596.6666666666666</ele><time>2026-04-19T10:27:41.003Z</time></trkpt><trkpt lat="42.67155667690631" lon="12.728695612018774"><ele>591.3333333333334</ele><time>2026-04-19T10:27:42.003Z</time></trkpt><trkpt lat="42.671740191240715" lon="12.728654066858033"><ele>586.0</ele><time>2026-04-19T10:27:43.003Z</time></trkpt><trkpt lat="42.67191329354816" lon="12.728607542302475"><ele>584.6666666666667</ele><time>2026-04-19T10:27:44.003Z</time></trkpt><trkpt lat="42.672062824178425" lon="12.728515201386895"><ele>583.3333333333334</ele><time>2026-04-19T10:27:45.003Z</time></trkpt><trkpt lat="42.6722069661673" lon="12.72839356265684"><ele>582.0</ele><time>2026-04-19T10:27:46.003Z</time></trkpt><trkpt lat="42.672349711977944" lon="12.728253495292686"><ele>582.0</ele><time>2026-04-19T10:27:47.003Z</time></trkpt><trkpt lat="42.67249296702649" lon="12.728090782429122"><ele>582.0</ele><time>2026-04-19T10:27:48.003Z</time></trkpt><trkpt lat="42.67263516211724" lon="12.72788642149905"><ele>582.0</ele><time>2026-04-19T10:27:49.003Z</time></trkpt><trkpt lat="42.67274101907068" lon="12.727701323479604"><ele>583.3333333333334</ele><time>2026-04-19T10:27:50.003Z</time></trkpt><trkpt lat="42.67287044976161" lon="12.727516864163988"><ele>584.6666666666667</ele><time>2026-04-19T10:27:51.003Z</time></trkpt><trkpt lat="42.67299616736224" lon="12.7273582512921"><ele>586.0</ele><time>2026-04-19T10:27:52.003Z</time></trkpt><trkpt lat="42.67313779880965" lon="12.7272171244787"><ele>586.0</ele><time>2026-04-19T10:27:53.003Z</time></trkpt><trkpt lat="42.673292891048746" lon="12.72706873364705"><ele>586.0</ele><time>2026-04-19T10:27:54Z</time></trkpt><trkpt lat="42.673460033699925" lon="12.726963369688441"><ele>586.0</ele><time>2026-04-19T10:27:55Z</time></trkpt><trkpt lat="42.673626571251134" lon="12.726857364050405"><ele>583.0</ele><time>2026-04-19T10:27:56Z</time></trkpt><trkpt lat="42.67378464230535" lon="12.726771170471281"><ele>580.0</ele><time>2026-04-19T10:27:57Z</time></trkpt><trkpt lat="42.673950907253605" lon="12.726692937900129"><ele>577.0</ele><time>2026-04-19T10:27:58Z</time></trkpt><trkpt lat="42.67410548195209" lon="12.726616624225061"><ele>577.0</ele><time>2026-04-19T10:27:59Z</time></trkpt><trkpt lat="42.67425966898591" lon="12.726531460716599"><ele>577.0</ele><time>2026-04-19T10:28:00Z</time></trkpt><trkpt lat="42.67439896104061" lon="12.726453625020858"><ele>577.0</ele><time>2026-04-19T10:28:01Z</time></trkpt><trkpt lat="42.674533572767594" lon="12.726395027377363"><ele>578.5</ele><time>2026-04-19T10:28:01.999Z</time></trkpt><trkpt lat="42.67466393353732" lon="12.726331419713729"><ele>580.0</ele><time>2026-04-19T10:28:02.999Z</time></trkpt><trkpt lat="42.674786422897775" lon="12.726264488437156"><ele>581.5</ele><time>2026-04-19T10:28:03.999Z</time></trkpt><trkpt lat="42.67490549029494" lon="12.726228211142734"><ele>583.0</ele><time>2026-04-19T10:28:05Z</time></trkpt><trkpt lat="42.67501222541489" lon="12.726195423759018"><ele>583.0</ele><time>2026-04-19T10:28:06Z</time></trkpt><trkpt lat="42.67512729578722" lon="12.726151202511591"><ele>583.0</ele><time>2026-04-19T10:28:06.999Z</time></trkpt><trkpt lat="42.675244940697034" lon="12.726092085802732"><ele>583.0</ele><time>2026-04-19T10:28:07.999Z</time></trkpt><trkpt lat="42.67535456316532" lon="12.726039509139552"><ele>583.0</ele><time>2026-04-19T10:28:08.999Z</time></trkpt><trkpt lat="42.67543691761914" lon="12.726022509055431"><ele>583.0</ele><time>2026-04-19T10:28:09.999Z</time></trkpt><trkpt lat="42.675521039070475" lon="12.726010892010327"><ele>575.75</ele><time>2026-04-19T10:28:10.999Z</time></trkpt><trkpt lat="42.67562111760293" lon="12.725996801524557"><ele>568.5</ele><time>2026-04-19T10:28:11.999Z</time></trkpt><trkpt lat="42.675736456601705" lon="12.726000457099463"><ele>561.25</ele><time>2026-04-19T10:28:12.999Z</time></trkpt><trkpt lat="42.67585253930437" lon="12.725978859520271"><ele>554.0</ele><time>2026-04-19T10:28:13.999Z</time></trkpt><trkpt lat="42.67597311814419" lon="12.72596533247026"><ele>554.0</ele><time>2026-04-19T10:28:14.999Z</time></trkpt><trkpt lat="42.67610299733797" lon="12.725957616061615"><ele>554.0</ele><time>2026-04-19T10:28:15.999Z</time></trkpt><trkpt lat="42.676224034238395" lon="12.72596035313231"><ele>554.0</ele><time>2026-04-19T10:28:16.999Z</time></trkpt><trkpt lat="42.676337216175895" lon="12.72597729203129"><ele>554.0</ele><time>2026-04-19T10:28:17.999Z</time></trkpt><trkpt lat="42.67644496140682" lon="12.72601562858577"><ele>552.2</ele><time>2026-04-19T10:28:18.999Z</time></trkpt><trkpt lat="42.676547208126664" lon="12.726059535523703"><ele>550.4</ele><time>2026-04-19T10:28:19.999Z</time></trkpt><trkpt lat="42.67664187527615" lon="12.726110957102165"><ele>548.6</ele><time>2026-04-19T10:28:20.999Z</time></trkpt><trkpt lat="42.67672952004909" lon="12.72616006292244"><ele>546.8</ele><time>2026-04-19T10:28:21.999Z</time></trkpt><trkpt lat="42.676827831362125" lon="12.726227002800213"><ele>545.0</ele><time>2026-04-19T10:28:22.999Z</time></trkpt><trkpt lat="42.67691817227729" lon="12.726303682687773"><ele>546.3333333333333</ele><time>2026-04-19T10:28:23.999Z</time></trkpt><trkpt lat="42.67705196070347" lon="12.726403072576144"><ele>547.6666666666666</ele><time>2026-04-19T10:28:24.999Z</time></trkpt><trkpt lat="42.67721832746959" lon="12.726478191964278"><ele>549.0</ele><time>2026-04-19T10:28:25.999Z</time></trkpt><trkpt lat="42.67735219653119" lon="12.72650736197808"><ele>549.0</ele><time>2026-04-19T10:28:26.999Z</time></trkpt><trkpt lat="42.67748398027504" lon="12.726551376782256"><ele>549.0</ele><time>2026-04-19T10:28:28Z</time></trkpt><trkpt lat="42.6776315696438" lon="12.726587611638434"><ele>549.0</ele><time>2026-04-19T10:28:29Z</time></trkpt><trkpt lat="42.67777722126025" lon="12.726640787897823"><ele>549.0</ele><time>2026-04-19T10:28:30Z</time></trkpt><trkpt lat="42.67790036482828" lon="12.726665096963732"><ele>546.0</ele><time>2026-04-19T10:28:31Z</time></trkpt><trkpt lat="42.678036232841386" lon="12.726690363461714"><ele>543.0</ele><time>2026-04-19T10:28:32Z</time></trkpt><trkpt lat="42.67816280210506" lon="12.726709293452613"><ele>540.0</ele><time>2026-04-19T10:28:33Z</time></trkpt><trkpt lat="42.678309909446796" lon="12.72673227208724"><ele>537.0</ele><time>2026-04-19T10:28:34Z</time></trkpt><trkpt lat="42.67842806515208" lon="12.726758161739019"><ele>537.0</ele><time>2026-04-19T10:28:35Z</time></trkpt><trkpt lat="42.67853022944972" lon="12.726786286666131"><ele>537.0</ele><time>2026-04-19T10:28:36Z</time></trkpt><trkpt lat="42.67862853861461" lon="12.726818237777998"><ele>537.0</ele><time>2026-04-19T10:28:37Z</time></trkpt><trkpt lat="42.678737951038514" lon="12.726858907032373"><ele>537.0</ele><time>2026-04-19T10:28:38Z</time></trkpt><trkpt lat="42.67886853684336" lon="12.726909707844655"><ele>539.25</ele><time>2026-04-19T10:28:39Z</time></trkpt><trkpt lat="42.67897331582344" lon="12.726943252723277"><ele>541.5</ele><time>2026-04-19T10:28:40Z</time></trkpt><trkpt lat="42.679093570344364" lon="12.727000665106553"><ele>543.75</ele><time>2026-04-19T10:28:41Z</time></trkpt><trkpt lat="42.67922359165372" lon="12.727048643576277"><ele>546.0</ele><time>2026-04-19T10:28:42Z</time></trkpt><trkpt lat="42.6793508130927" lon="12.727100794155373"><ele>543.0</ele><time>2026-04-19T10:28:43Z</time></trkpt><trkpt lat="42.67946164062233" lon="12.727158585844574"><ele>540.0</ele><time>2026-04-19T10:28:44Z</time></trkpt><trkpt lat="42.67957217863047" lon="12.727228154266616"><ele>537.0</ele><time>2026-04-19T10:28:45Z</time></trkpt><trkpt lat="42.6796792022593" lon="12.72728719498977"><ele>534.0</ele><time>2026-04-19T10:28:46Z</time></trkpt><trkpt lat="42.679765472543636" lon="12.727336382177455"><ele>534.0</ele><time>2026-04-19T10:28:47Z</time></trkpt><trkpt lat="42.67985750342708" lon="12.7274048076519"><ele>534.0</ele><time>2026-04-19T10:28:48Z</time></trkpt><trkpt lat="42.679927068755646" lon="12.727459020204167"><ele>534.0</ele><time>2026-04-19T10:28:49Z</time></trkpt><trkpt lat="42.68001036270707" lon="12.727531781217522"><ele>534.0</ele><time>2026-04-19T10:28:50Z</time></trkpt><trkpt lat="42.68009260902496" lon="12.727561509518043"><ele>534.0</ele><time>2026-04-19T10:28:51Z</time></trkpt><trkpt lat="42.68020185989841" lon="12.727604758871855"><ele>532.4</ele><time>2026-04-19T10:28:52Z</time></trkpt><trkpt lat="42.6803014571048" lon="12.727675566768367"><ele>530.8</ele><time>2026-04-19T10:28:53Z</time></trkpt><trkpt lat="42.68039629116445" lon="12.727713243713008"><ele>529.2</ele><time>2026-04-19T10:28:54Z</time></trkpt><trkpt lat="42.680492794464236" lon="12.727751019034159"><ele>527.6</ele><time>2026-04-19T10:28:55Z</time></trkpt><trkpt lat="42.6806068701903" lon="12.727782898361923"><ele>526.0</ele><time>2026-04-19T10:28:56Z</time></trkpt><trkpt lat="42.680720506062684" lon="12.727817441340525"><ele>525.8</ele><time>2026-04-19T10:28:57Z</time></trkpt><trkpt lat="42.68082548422464" lon="12.727854724044239"><ele>525.6</ele><time>2026-04-19T10:28:58Z</time></trkpt><trkpt lat="42.68093349598896" lon="12.727895604899759"><ele>525.4</ele><time>2026-04-19T10:28:59Z</time></trkpt><trkpt lat="42.681036788120046" lon="12.727918397677588"><ele>525.2</ele><time>2026-04-19T10:29:00.001Z</time></trkpt><trkpt lat="42.68115066394198" lon="12.727920117101311"><ele>525.0</ele><time>2026-04-19T10:29:01.001Z</time></trkpt><trkpt lat="42.68126665940836" lon="12.72792614389421"><ele>525.0</ele><time>2026-04-19T10:29:02.001Z</time></trkpt><trkpt lat="42.681392035236605" lon="12.727951059750298"><ele>525.0</ele><time>2026-04-19T10:29:03.001Z</time></trkpt><trkpt lat="42.68150914507477" lon="12.727964511063515"><ele>525.0</ele><time>2026-04-19T10:29:04.001Z</time></trkpt><trkpt lat="42.6816300397203" lon="12.72797440715643"><ele>525.0</ele><time>2026-04-19T10:29:05.001Z</time></trkpt><trkpt lat="42.681765467123846" lon="12.72796732352652"><ele>525.0</ele><time>2026-04-19T10:29:06.001Z</time></trkpt><trkpt lat="42.68192600994112" lon="12.728020271592602"><ele>525.0</ele><time>2026-04-19T10:29:07.001Z</time></trkpt><trkpt lat="42.682051367548524" lon="12.728036689393944"><ele>525.0</ele><time>2026-04-19T10:29:08.001Z</time></trkpt><trkpt lat="42.682185387761" lon="12.728060755275697"><ele>525.0</ele><time>2026-04-19T10:29:09.001Z</time></trkpt><trkpt lat="42.68231094528975" lon="12.72806856614319"><ele>521.8</ele><time>2026-04-19T10:29:10.001Z</time></trkpt><trkpt lat="42.682415386320265" lon="12.728078552965657"><ele>518.6</ele><time>2026-04-19T10:29:11.001Z</time></trkpt><trkpt lat="42.68254008185337" lon="12.72807740767885"><ele>515.4</ele><time>2026-04-19T10:29:12.001Z</time></trkpt><trkpt lat="42.68263483383592" lon="12.728057184538779"><ele>512.2</ele><time>2026-04-19T10:29:13.001Z</time></trkpt><trkpt lat="42.68272130923507" lon="12.728054933299981"><ele>509.0</ele><time>2026-04-19T10:29:14.001Z</time></trkpt><trkpt lat="42.68279100256551" lon="12.728015693491802"><ele>508.3333333333333</ele><time>2026-04-19T10:29:17.001Z</time></trkpt><trkpt lat="42.68288028370942" lon="12.727976830524208"><ele>507.66666666666663</ele><time>2026-04-19T10:29:19.001Z</time></trkpt><trkpt lat="42.682954376227094" lon="12.727935298657638"><ele>507.0</ele><time>2026-04-19T10:29:21.001Z</time></trkpt><trkpt lat="42.68301260767097" lon="12.727901592228314"><ele>506.33333333333337</ele><time>2026-04-19T10:29:22.001Z</time></trkpt><trkpt lat="42.68307481646964" lon="12.727866308972722"><ele>505.6666666666667</ele><time>2026-04-19T10:29:23.001Z</time></trkpt><trkpt lat="42.68314665338187" lon="12.727825564601428"><ele>505.0</ele><time>2026-04-19T10:29:24.001Z</time></trkpt><trkpt lat="42.6832121536102" lon="12.727789698763274"><ele>505.0</ele><time>2026-04-19T10:29:25.001Z</time></trkpt><trkpt lat="42.68327196295136" lon="12.727759417807988"><ele>505.0</ele><time>2026-04-19T10:29:28.001Z</time></trkpt><trkpt lat="42.68247957820125" lon="12.729346869079965"><ele>508.0</ele><time>2026-04-19T10:29:29.001Z</time></trkpt><trkpt lat="42.68242093944832" lon="12.729448109292179"><ele>511.0</ele><time>2026-04-19T10:29:30.001Z</time></trkpt><trkpt lat="42.68237910272034" lon="12.729562662394617"><ele>514.0</ele><time>2026-04-19T10:29:31.001Z</time></trkpt><trkpt lat="42.682347186159944" lon="12.729694682224093"><ele>517.0</ele><time>2026-04-19T10:29:32.001Z</time></trkpt><trkpt lat="42.682307585163855" lon="12.729827260842814"><ele>520.0</ele><time>2026-04-19T10:29:33.001Z</time></trkpt><trkpt lat="42.68228262527141" lon="12.729980789707534"><ele>520.0</ele><time>2026-04-19T10:29:34.001Z</time></trkpt><trkpt lat="42.682217266395135" lon="12.730133658877588"><ele>520.0</ele><time>2026-04-19T10:29:35.001Z</time></trkpt><trkpt lat="42.68220193455517" lon="12.730231283421753"><ele>520.0</ele><time>2026-04-19T10:29:36.001Z</time></trkpt><trkpt lat="42.68216805839277" lon="12.730359338606002"><ele>520.0</ele><time>2026-04-19T10:29:37.002Z</time></trkpt><trkpt lat="42.682169674063594" lon="12.730528925807784"><ele>520.0</ele><time>2026-04-19T10:29:38.002Z</time></trkpt><trkpt lat="42.68216004151903" lon="12.730673868609546"><ele>522.5</ele><time>2026-04-19T10:29:39.002Z</time></trkpt><trkpt lat="42.6821390726033" lon="12.73082702783127"><ele>525.0</ele><time>2026-04-19T10:29:40.002Z</time></trkpt><trkpt lat="42.68215625774957" lon="12.730957739009241"><ele>527.5</ele><time>2026-04-19T10:29:41.002Z</time></trkpt><trkpt lat="42.68212631457593" lon="12.731149507852626"><ele>530.0</ele><time>2026-04-19T10:29:42.002Z</time></trkpt><trkpt lat="42.682153991582595" lon="12.731272688751394"><ele>531.5</ele><time>2026-04-19T10:29:43.002Z</time></trkpt><trkpt lat="42.682188784257626" lon="12.731390520672942"><ele>533.0</ele><time>2026-04-19T10:29:44.002Z</time></trkpt><trkpt lat="42.68223611521265" lon="12.731545830020735"><ele>534.5</ele><time>2026-04-19T10:29:45.002Z</time></trkpt><trkpt lat="42.68225087083009" lon="12.73166218820541"><ele>536.0</ele><time>2026-04-19T10:29:46.002Z</time></trkpt><trkpt lat="42.68228348555768" lon="12.731751999681455"><ele>537.5</ele><time>2026-04-19T10:29:47.002Z</time></trkpt><trkpt lat="42.68231315352585" lon="12.73184093772076"><ele>539.0</ele><time>2026-04-19T10:29:48.002Z</time></trkpt><trkpt lat="42.68233332314522" lon="12.731925402021792"><ele>540.75</ele><time>2026-04-19T10:29:49.002Z</time></trkpt><trkpt lat="42.682307291691814" lon="12.732121303663318"><ele>542.5</ele><time>2026-04-19T10:29:51.002Z</time></trkpt><trkpt lat="42.68234253778597" lon="12.732274457501846"><ele>544.25</ele><time>2026-04-19T10:29:52.002Z</time></trkpt><trkpt lat="42.68233837953642" lon="12.73242331234681"><ele>546.0</ele><time>2026-04-19T10:29:53.002Z</time></trkpt><trkpt lat="42.68234454411924" lon="12.732529987418049"><ele>546.0</ele><time>2026-04-19T10:29:54.002Z</time></trkpt><trkpt lat="42.68234227650412" lon="12.732638386059076"><ele>546.0</ele><time>2026-04-19T10:29:55.002Z</time></trkpt><trkpt lat="42.682442312744776" lon="12.732768458686445"><ele>546.0</ele><time>2026-04-19T10:29:57.002Z</time></trkpt><trkpt lat="42.682492825368584" lon="12.732847584017296"><ele>546.0</ele><time>2026-04-19T10:29:58.002Z</time></trkpt><trkpt lat="42.682530317584074" lon="12.73299200904253"><ele>546.0</ele><time>2026-04-19T10:29:59.998Z</time></trkpt><trkpt lat="42.68255012039349" lon="12.733101166820324"><ele>547.6666666666666</ele><time>2026-04-19T10:30:00.998Z</time></trkpt><trkpt lat="42.682632132969026" lon="12.733214731394128"><ele>549.3333333333334</ele><time>2026-04-19T10:30:02.999Z</time></trkpt><trkpt lat="42.6826762300392" lon="12.733290898727503"><ele>551.0</ele><time>2026-04-19T10:30:03.999Z</time></trkpt><trkpt lat="42.68275448746766" lon="12.733393546823994"><ele>552.6666666666667</ele><time>2026-04-19T10:30:05.999Z</time></trkpt><trkpt lat="42.68276445477995" lon="12.733497265615492"><ele>554.3333333333334</ele><time>2026-04-19T10:30:25.999Z</time></trkpt><trkpt lat="42.68275162219753" lon="12.733588261421167"><ele>556.0</ele><time>2026-04-19T10:30:26.999Z</time></trkpt><trkpt lat="42.68274559786474" lon="12.733721447041107"><ele>558.4</ele><time>2026-04-19T10:30:28.999Z</time></trkpt><trkpt lat="42.68273335251255" lon="12.733855362495367"><ele>560.8</ele><time>2026-04-19T10:30:29.999Z</time></trkpt><trkpt lat="42.68270912796345" lon="12.733999786090875"><ele>563.1999999999999</ele><time>2026-04-19T10:30:30.999Z</time></trkpt><trkpt lat="42.682675004077765" lon="12.734099870102797"><ele>565.6</ele><time>2026-04-19T10:30:31.999Z</time></trkpt><trkpt lat="42.68269957987963" lon="12.73417933035123"><ele>568.0</ele><time>2026-04-19T10:30:33Z</time></trkpt><trkpt lat="42.682698385405146" lon="12.734358031945826"><ele>568.5714285714286</ele><time>2026-04-19T10:30:35Z</time></trkpt><trkpt lat="42.682713021977854" lon="12.734444876574537"><ele>569.1428571428571</ele><time>2026-04-19T10:30:36Z</time></trkpt><trkpt lat="42.6827422965909" lon="12.734538292980258"><ele>569.7142857142857</ele><time>2026-04-19T10:30:37Z</time></trkpt><trkpt lat="42.682704358519" lon="12.7346668417453"><ele>570.2857142857142</ele><time>2026-04-19T10:30:40Z</time></trkpt><trkpt lat="42.682683083221235" lon="12.734759569931622"><ele>570.8571428571429</ele><time>2026-04-19T10:30:41Z</time></trkpt><trkpt lat="42.68264574478033" lon="12.734833349002386"><ele>571.4285714285713</ele><time>2026-04-19T10:30:42Z</time></trkpt><trkpt lat="42.68261688086209" lon="12.734918350319726"><ele>572.0</ele><time>2026-04-19T10:30:43Z</time></trkpt><trkpt lat="42.682622877086914" lon="12.735098556481713"><ele>572.0</ele><time>2026-04-19T10:30:45Z</time></trkpt><trkpt lat="42.68258850936935" lon="12.735209553266355"><ele>572.0</ele><time>2026-04-19T10:30:46Z</time></trkpt><trkpt lat="42.68257346438061" lon="12.735380710073667"><ele>572.0</ele><time>2026-04-19T10:30:48Z</time></trkpt><trkpt lat="42.68256828998027" lon="12.735466948665115"><ele>572.0</ele><time>2026-04-19T10:30:49Z</time></trkpt><trkpt lat="42.682555881852444" lon="12.735559867459916"><ele>572.0</ele><time>2026-04-19T10:30:50Z</time></trkpt><trkpt lat="42.682526915489774" lon="12.73570110000424"><ele>574.8000000000001</ele><time>2026-04-19T10:30:51Z</time></trkpt><trkpt lat="42.68249539100956" lon="12.735856689772493"><ele>577.6</ele><time>2026-04-19T10:30:52Z</time></trkpt><trkpt lat="42.682447582851005" lon="12.735989028852078"><ele>580.4000000000001</ele><time>2026-04-19T10:30:53Z</time></trkpt><trkpt lat="42.68238315706594" lon="12.736053897220602"><ele>583.2</ele><time>2026-04-19T10:30:54Z</time></trkpt><trkpt lat="42.68232088142029" lon="12.736121799478116"><ele>586.0</ele><time>2026-04-19T10:30:55Z</time></trkpt><trkpt lat="42.682297610019" lon="12.736262035374436"><ele>589.8</ele><time>2026-04-19T10:30:58Z</time></trkpt><trkpt lat="42.68227889733769" lon="12.73640267615505"><ele>593.6</ele><time>2026-04-19T10:31:00Z</time></trkpt><trkpt lat="42.68221719251448" lon="12.736503808650808"><ele>597.4</ele><time>2026-04-19T10:31:02Z</time></trkpt><trkpt lat="42.682161611522744" lon="12.736618355585964"><ele>601.2</ele><time>2026-04-19T10:31:04Z</time></trkpt><trkpt lat="42.68207884840612" lon="12.736753674384858"><ele>605.0</ele><time>2026-04-19T10:31:06Z</time></trkpt><trkpt lat="42.682040508243155" lon="12.736822122638594"><ele>605.0</ele><time>2026-04-19T10:31:07Z</time></trkpt><trkpt lat="42.682113777783265" lon="12.736858110911186"><ele>605.0</ele><time>2026-04-19T10:31:10.001Z</time></trkpt><trkpt lat="42.68218974992527" lon="12.736891677087387"><ele>605.0</ele><time>2026-04-19T10:31:12.001Z</time></trkpt><trkpt lat="42.682299327824616" lon="12.73688627437326"><ele>605.0</ele><time>2026-04-19T10:31:14.001Z</time></trkpt><trkpt lat="42.682378759836325" lon="12.73688930976585"><ele>605.0</ele><time>2026-04-19T10:31:16.001Z</time></trkpt><trkpt lat="42.68243465255917" lon="12.736801698755485"><ele>605.0</ele><time>2026-04-19T10:31:18.001Z</time></trkpt><trkpt lat="42.68249312734275" lon="12.736713545021592"><ele>605.0</ele><time>2026-04-19T10:31:21.001Z</time></trkpt><trkpt lat="42.68250067220471" lon="12.736627353638662"><ele>605.0</ele><time>2026-04-19T10:31:35.001Z</time></trkpt><trkpt lat="42.682547420756734" lon="12.7365458792463"><ele>605.0</ele><time>2026-04-19T10:31:40.001Z</time></trkpt><trkpt lat="42.68261214012809" lon="12.73650938129338"><ele>605.0</ele><time>2026-04-19T10:31:46.002Z</time></trkpt><trkpt lat="42.682676070420776" lon="12.736467715216522"><ele>605.0</ele><time>2026-04-19T10:31:49.002Z</time></trkpt><trkpt lat="42.68272359725074" lon="12.736403636097918"><ele>605.0</ele><time>2026-04-19T10:31:51.002Z</time></trkpt><trkpt lat="42.68279392499834" lon="12.736313537113018"><ele>605.0</ele><time>2026-04-19T10:31:53.002Z</time></trkpt><trkpt lat="42.68286980061354" lon="12.73623996517559"><ele>607.8</ele><time>2026-04-19T10:31:55.002Z</time></trkpt><trkpt lat="42.682954507742885" lon="12.736168317559535"><ele>610.6</ele><time>2026-04-19T10:31:57.002Z</time></trkpt><trkpt lat="42.683034471039186" lon="12.736069395756305"><ele>613.4</ele><time>2026-04-19T10:31:59.002Z</time></trkpt><trkpt lat="42.68310498000244" lon="12.736011188509112"><ele>616.2</ele><time>2026-04-19T10:32:01.002Z</time></trkpt><trkpt lat="42.683149615628224" lon="12.735895205653078"><ele>619.0</ele><time>2026-04-19T10:32:03.002Z</time></trkpt><trkpt lat="42.68321113876639" lon="12.735806753840338"><ele>619.0</ele><time>2026-04-19T10:32:05.002Z</time></trkpt><trkpt lat="42.68327422307315" lon="12.73581629619946"><ele>619.0</ele><time>2026-04-19T10:32:08.999Z</time></trkpt><trkpt lat="42.6832983554392" lon="12.735938172561756"><ele>619.0</ele><time>2026-04-19T10:32:13.999Z</time></trkpt><trkpt lat="42.683290414524016" lon="12.736049818309226"><ele>619.0</ele><time>2026-04-19T10:32:15.999Z</time></trkpt><trkpt lat="42.683346020187706" lon="12.736190352172065"><ele>619.0</ele><time>2026-04-19T10:32:18.999Z</time></trkpt><trkpt lat="42.68341635432833" lon="12.736211649892377"><ele>619.0</ele><time>2026-04-19T10:32:21Z</time></trkpt><trkpt lat="42.683478316436954" lon="12.736279326812037"><ele>618.8</ele><time>2026-04-19T10:32:24Z</time></trkpt><trkpt lat="42.68355022269643" lon="12.736239647715873"><ele>618.5999999999999</ele><time>2026-04-19T10:32:29Z</time></trkpt><trkpt lat="42.68362218560132" lon="12.736173320329117"><ele>618.4</ele><time>2026-04-19T10:32:31Z</time></trkpt><trkpt lat="42.68374502541102" lon="12.736072878258996"><ele>618.1999999999999</ele><time>2026-04-19T10:32:34Z</time></trkpt><trkpt lat="42.68383813155272" lon="12.736060370671773"><ele>618.0</ele><time>2026-04-19T10:32:36.001Z</time></trkpt><trkpt lat="42.68391526164594" lon="12.736044377396773"><ele>618.0</ele><time>2026-04-19T10:32:37.001Z</time></trkpt><trkpt lat="42.68399634658477" lon="12.736011323728091"><ele>618.0</ele><time>2026-04-19T10:32:38.001Z</time></trkpt><trkpt lat="42.684067705538" lon="12.735994051193936"><ele>618.0</ele><time>2026-04-19T10:32:39.001Z</time></trkpt><trkpt lat="42.68416874677114" lon="12.73596128019469"><ele>618.0</ele><time>2026-04-19T10:32:41.001Z</time></trkpt><trkpt lat="42.68424730914177" lon="12.73598552747842"><ele>618.0</ele><time>2026-04-19T10:32:44.001Z</time></trkpt><trkpt lat="42.68432954055688" lon="12.73593363171792"><ele>618.0</ele><time>2026-04-19T10:32:45.001Z</time></trkpt><trkpt lat="42.684425513782074" lon="12.735875887712513"><ele>611.25</ele><time>2026-04-19T10:32:47.001Z</time></trkpt><trkpt lat="42.68454689436083" lon="12.73585436988312"><ele>604.5</ele><time>2026-04-19T10:32:49.001Z</time></trkpt><trkpt lat="42.68465609607666" lon="12.735860542479907"><ele>597.75</ele><time>2026-04-19T10:32:51.001Z</time></trkpt><trkpt lat="42.684800166037654" lon="12.735824972832287"><ele>591.0</ele><time>2026-04-19T10:32:53.001Z</time></trkpt><trkpt lat="42.684921143231776" lon="12.735799679095253"><ele>591.0</ele><time>2026-04-19T10:32:55.001Z</time></trkpt><trkpt lat="42.685044793490114" lon="12.73576700449403"><ele>591.0</ele><time>2026-04-19T10:32:57.001Z</time></trkpt><trkpt lat="42.68511459294503" lon="12.735721199276513"><ele>591.0</ele><time>2026-04-19T10:32:58.001Z</time></trkpt><trkpt lat="42.68517396129419" lon="12.735690692367386"><ele>591.0</ele><time>2026-04-19T10:32:59.001Z</time></trkpt><trkpt lat="42.685269288052204" lon="12.7356714518967"><ele>591.0</ele><time>2026-04-19T10:33:01.001Z</time></trkpt><trkpt lat="42.68537012042991" lon="12.735653925382353"><ele>585.3333333333334</ele><time>2026-04-19T10:33:03.002Z</time></trkpt><trkpt lat="42.68548143937239" lon="12.735598892843852"><ele>579.6666666666666</ele><time>2026-04-19T10:33:05.002Z</time></trkpt><trkpt lat="42.6855562076138" lon="12.735559280174174"><ele>574.0</ele><time>2026-04-19T10:33:06.002Z</time></trkpt><trkpt lat="42.685623289679064" lon="12.735518046366785"><ele>568.3333333333333</ele><time>2026-04-19T10:33:07.002Z</time></trkpt><trkpt lat="42.68567364319699" lon="12.735464340674763"><ele>562.6666666666666</ele><time>2026-04-19T10:33:08.002Z</time></trkpt><trkpt lat="42.685731732709385" lon="12.735407684363286"><ele>557.0</ele><time>2026-04-19T10:33:09.002Z</time></trkpt><trkpt lat="42.685836048241995" lon="12.735375991528084"><ele>557.0</ele><time>2026-04-19T10:33:11.002Z</time></trkpt><trkpt lat="42.68593830874972" lon="12.73535191096966"><ele>557.0</ele><time>2026-04-19T10:33:13.002Z</time></trkpt><trkpt lat="42.68600803666186" lon="12.735341755681418"><ele>557.0</ele><time>2026-04-19T10:33:14.002Z</time></trkpt><trkpt lat="42.68612652835864" lon="12.735328584023918"><ele>557.0</ele><time>2026-04-19T10:33:16.002Z</time></trkpt><trkpt lat="42.6862494892523" lon="12.735271060628012"><ele>557.0</ele><time>2026-04-19T10:33:18.002Z</time></trkpt><trkpt lat="42.686348536012844" lon="12.735202011578128"><ele>557.8000000000001</ele><time>2026-04-19T10:33:20.002Z</time></trkpt><trkpt lat="42.68641383998086" lon="12.73515399000442"><ele>558.6</ele><time>2026-04-19T10:33:21.002Z</time></trkpt><trkpt lat="42.68652428194149" lon="12.735200341979793"><ele>559.4000000000001</ele><time>2026-04-19T10:33:23.002Z</time></trkpt><trkpt lat="42.686624569857315" lon="12.735192153949153"><ele>560.2</ele><time>2026-04-19T10:33:25.002Z</time></trkpt><trkpt lat="42.6867193853295" lon="12.735125674551067"><ele>561.0</ele><time>2026-04-19T10:33:27.002Z</time></trkpt><trkpt lat="42.68684524860621" lon="12.735102927871038"><ele>555.4</ele><time>2026-04-19T10:33:29.002Z</time></trkpt><trkpt lat="42.686952919571354" lon="12.735088009870571"><ele>549.8</ele><time>2026-04-19T10:33:31.002Z</time></trkpt><trkpt lat="42.68704927147809" lon="12.735041763012232"><ele>544.1999999999999</ele><time>2026-04-19T10:33:33.002Z</time></trkpt><trkpt lat="42.68716273792975" lon="12.735008463912685"><ele>538.6</ele><time>2026-04-19T10:33:35.002Z</time></trkpt><trkpt lat="42.68725904226204" lon="12.73503006552822"><ele>533.0</ele><time>2026-04-19T10:33:36.002Z</time></trkpt><trkpt lat="42.687348889091616" lon="12.735039581522923"><ele>533.0</ele><time>2026-04-19T10:33:37.002Z</time></trkpt><trkpt lat="42.687435180518555" lon="12.735038008151914"><ele>533.0</ele><time>2026-04-19T10:33:38.002Z</time></trkpt><trkpt lat="42.68750792756369" lon="12.735047324956616"><ele>533.0</ele><time>2026-04-19T10:33:39.003Z</time></trkpt><trkpt lat="42.68758651437089" lon="12.735054570808098"><ele>533.0</ele><time>2026-04-19T10:33:40.003Z</time></trkpt><trkpt lat="42.6876652767278" lon="12.73505791680095"><ele>533.0</ele><time>2026-04-19T10:33:41.003Z</time></trkpt><trkpt lat="42.68777598742853" lon="12.735036437244807"><ele>533.0</ele><time>2026-04-19T10:33:43.003Z</time></trkpt><trkpt lat="42.68785668173283" lon="12.734958311422655"><ele>530.8333333333333</ele><time>2026-04-19T10:33:45.003Z</time></trkpt><trkpt lat="42.6879314741473" lon="12.734914947469385"><ele>528.6666666666666</ele><time>2026-04-19T10:33:46.003Z</time></trkpt><trkpt lat="42.68799194496723" lon="12.734873104528102"><ele>526.5</ele><time>2026-04-19T10:33:48.003Z</time></trkpt><trkpt lat="42.68809610373062" lon="12.734864622168613"><ele>524.3333333333334</ele><time>2026-04-19T10:33:50.003Z</time></trkpt><trkpt lat="42.688203851764584" lon="12.734851289241082"><ele>522.1666666666667</ele><time>2026-04-19T10:33:52.003Z</time></trkpt><trkpt lat="42.68828293976816" lon="12.734844918173135"><ele>520.0</ele><time>2026-04-19T10:33:53.003Z</time></trkpt><trkpt lat="42.688406362787994" lon="12.734833972928087"><ele>520.0</ele><time>2026-04-19T10:33:55.003Z</time></trkpt><trkpt lat="42.68848650124894" lon="12.734842704624196"><ele>520.0</ele><time>2026-04-19T10:33:56.003Z</time></trkpt><trkpt lat="42.68855923536371" lon="12.734852005092616"><ele>520.0</ele><time>2026-04-19T10:33:57.003Z</time></trkpt><trkpt lat="42.68862523030132" lon="12.73486360630521"><ele>520.0</ele><time>2026-04-19T10:33:58.003Z</time></trkpt><trkpt lat="42.68869788304223" lon="12.734871498466163"><ele>520.0</ele><time>2026-04-19T10:33:59.003Z</time></trkpt><trkpt lat="42.68877571802875" lon="12.73487465212296"><ele>520.0</ele><time>2026-04-19T10:34:00.003Z</time></trkpt><trkpt lat="42.68885939584639" lon="12.734886551749854"><ele>518.5714285714287</ele><time>2026-04-19T10:34:01.003Z</time></trkpt><trkpt lat="42.68895050083865" lon="12.734903972725915"><ele>517.1428571428571</ele><time>2026-04-19T10:34:02.003Z</time></trkpt><trkpt lat="42.689011228712644" lon="12.73493151365023"><ele>515.7142857142858</ele><time>2026-04-19T10:34:03.003Z</time></trkpt><trkpt lat="42.689080428197194" lon="12.734944654247803"><ele>514.2857142857143</ele><time>2026-04-19T10:34:04.003Z</time></trkpt><trkpt lat="42.68914860024617" lon="12.73495397490497"><ele>512.8571428571429</ele><time>2026-04-19T10:34:05.003Z</time></trkpt><trkpt lat="42.689215919166614" lon="12.734921316706982"><ele>511.42857142857144</ele><time>2026-04-19T10:34:06.003Z</time></trkpt><trkpt lat="42.6892875964684" lon="12.734868782917191"><ele>510.0</ele><time>2026-04-19T10:34:07.003Z</time></trkpt><trkpt lat="42.68935943340405" lon="12.734818778759049"><ele>508.0</ele><time>2026-04-19T10:34:08.003Z</time></trkpt><trkpt lat="42.689437301348015" lon="12.734793197445924"><ele>506.0</ele><time>2026-04-19T10:34:09.003Z</time></trkpt><trkpt lat="42.68951858978227" lon="12.734773388818983"><ele>504.0</ele><time>2026-04-19T10:34:10.003Z</time></trkpt><trkpt lat="42.68962253798612" lon="12.734725099653165"><ele>502.0</ele><time>2026-04-19T10:34:11.999Z</time></trkpt><trkpt lat="42.68965551506967" lon="12.734633925867332"><ele>500.0</ele><time>2026-04-19T10:34:13.999Z</time></trkpt><trkpt lat="42.68964785839297" lon="12.734533527566194"><ele>498.0</ele><time>2026-04-19T10:34:16Z</time></trkpt><trkpt lat="42.689698477380844" lon="12.734394684139508"><ele>498.2</ele><time>2026-04-19T10:34:18Z</time></trkpt><trkpt lat="42.689732088855585" lon="12.734298167529857"><ele>498.4</ele><time>2026-04-19T10:34:19Z</time></trkpt><trkpt lat="42.68980391669913" lon="12.73422585856592"><ele>498.59999999999997</ele><time>2026-04-19T10:34:20Z</time></trkpt><trkpt lat="42.689846449764964" lon="12.734159565767312"><ele>498.79999999999995</ele><time>2026-04-19T10:34:21Z</time></trkpt><trkpt lat="42.689949806677824" lon="12.734125875596739"><ele>499.0</ele><time>2026-04-19T10:34:23Z</time></trkpt><trkpt lat="42.69006966926299" lon="12.734103932689578"><ele>499.0</ele><time>2026-04-19T10:34:25Z</time></trkpt><trkpt lat="42.69016447767752" lon="12.73398898197443"><ele>499.0</ele><time>2026-04-19T10:34:27Z</time></trkpt><trkpt lat="42.69023820754435" lon="12.733912033623081"><ele>499.0</ele><time>2026-04-19T10:34:28Z</time></trkpt><trkpt lat="42.69031492966456" lon="12.733853501922873"><ele>499.0</ele><time>2026-04-19T10:34:29Z</time></trkpt><trkpt lat="42.690385242704146" lon="12.7337964277443"><ele>499.0</ele><time>2026-04-19T10:34:30Z</time></trkpt><trkpt lat="42.69051334781872" lon="12.733738438425272"><ele>498.33333333333337</ele><time>2026-04-19T10:34:32Z</time></trkpt><trkpt lat="42.69057276502537" lon="12.733698094357411"><ele>497.6666666666667</ele><time>2026-04-19T10:34:33Z</time></trkpt><trkpt lat="42.69066082105896" lon="12.733595208592785"><ele>497.0</ele><time>2026-04-19T10:34:35Z</time></trkpt><trkpt lat="42.69070800534141" lon="12.733534328014864"><ele>496.33333333333337</ele><time>2026-04-19T10:34:36Z</time></trkpt><trkpt lat="42.69077982919111" lon="12.733493072943372"><ele>495.6666666666667</ele><time>2026-04-19T10:34:38Z</time></trkpt><trkpt lat="42.6908460909139" lon="12.733468269324119"><ele>495.0</ele><time>2026-04-19T10:34:40Z</time></trkpt><trkpt lat="42.69090575409965" lon="12.733406695686059"><ele>493.6</ele><time>2026-04-19T10:34:41Z</time></trkpt><trkpt lat="42.690956174755605" lon="12.733343898331555"><ele>492.2</ele><time>2026-04-19T10:34:42.001Z</time></trkpt><trkpt lat="42.691015588929766" lon="12.733306848176646"><ele>490.79999999999995</ele><time>2026-04-19T10:34:43.001Z</time></trkpt><trkpt lat="42.691145293642286" lon="12.733265198548674"><ele>489.4</ele><time>2026-04-19T10:34:45.001Z</time></trkpt><trkpt lat="42.69123761677039" lon="12.733243579973333"><ele>488.0</ele><time>2026-04-19T10:34:46.001Z</time></trkpt><trkpt lat="42.69133452981377" lon="12.73322450121965"><ele>487.79999999999995</ele><time>2026-04-19T10:34:47.001Z</time></trkpt><trkpt lat="42.691422271035265" lon="12.73320223095026"><ele>487.59999999999997</ele><time>2026-04-19T10:34:48.001Z</time></trkpt><trkpt lat="42.69150940866893" lon="12.733167630071055"><ele>487.40000000000003</ele><time>2026-04-19T10:34:49.001Z</time></trkpt><trkpt lat="42.69158625808337" lon="12.73311650827268"><ele>487.20000000000005</ele><time>2026-04-19T10:34:50.001Z</time></trkpt><trkpt lat="42.69168134131317" lon="12.733054903601067"><ele>487.0</ele><time>2026-04-19T10:34:51.001Z</time></trkpt><trkpt lat="42.69178644191827" lon="12.733010794361284"><ele>487.0</ele><time>2026-04-19T10:34:52.001Z</time></trkpt><trkpt lat="42.69189311587621" lon="12.732966963525204"><ele>487.00000000000006</ele><time>2026-04-19T10:34:53.001Z</time></trkpt><trkpt lat="42.69201525396129" lon="12.732915845758981"><ele>487.00000000000006</ele><time>2026-04-19T10:34:54.001Z</time></trkpt><trkpt lat="42.69212210486088" lon="12.732870399136162"><ele>487.0</ele><time>2026-04-19T10:34:55.001Z</time></trkpt><trkpt lat="42.69221329731336" lon="12.732831688213993"><ele>487.0</ele><time>2026-04-19T10:34:56.001Z</time></trkpt><trkpt lat="42.692283375331655" lon="12.732810124601958"><ele>485.8</ele><time>2026-04-19T10:34:57.001Z</time></trkpt><trkpt lat="42.69240858812976" lon="12.732807035525505"><ele>484.6</ele><time>2026-04-19T10:34:59.001Z</time></trkpt><trkpt lat="42.69254692727975" lon="12.73276513337191"><ele>483.40000000000003</ele><time>2026-04-19T10:35:01.001Z</time></trkpt><trkpt lat="42.69262428628683" lon="12.732699456053835"><ele>482.20000000000005</ele><time>2026-04-19T10:35:02.001Z</time></trkpt><trkpt lat="42.69269562783282" lon="12.73264030321354"><ele>481.0</ele><time>2026-04-19T10:35:03.001Z</time></trkpt><trkpt lat="42.692799671864435" lon="12.732579890212076"><ele>481.0</ele><time>2026-04-19T10:35:04.001Z</time></trkpt><trkpt lat="42.69290760882581" lon="12.732520595572502"><ele>481.0</ele><time>2026-04-19T10:35:05.001Z</time></trkpt><trkpt lat="42.693004144177344" lon="12.732462038564218"><ele>481.0</ele><time>2026-04-19T10:35:06.001Z</time></trkpt><trkpt lat="42.69308847319418" lon="12.732411542178177"><ele>481.0</ele><time>2026-04-19T10:35:07.001Z</time></trkpt><trkpt lat="42.69317672974864" lon="12.73236424860006"><ele>481.0</ele><time>2026-04-19T10:35:08.001Z</time></trkpt><trkpt lat="42.69327668674452" lon="12.732348430060643"><ele>481.00000000000006</ele><time>2026-04-19T10:35:09.001Z</time></trkpt><trkpt lat="42.69337540087253" lon="12.732340509842397"><ele>481.0</ele><time>2026-04-19T10:35:10.001Z</time></trkpt><trkpt lat="42.69347601749846" lon="12.732317216272744"><ele>481.0</ele><time>2026-04-19T10:35:11.001Z</time></trkpt><trkpt lat="42.693565058789716" lon="12.73229618185981"><ele>481.0</ele><time>2026-04-19T10:35:12.001Z</time></trkpt><trkpt lat="42.693637311711555" lon="12.732259530730456"><ele>481.00000000000006</ele><time>2026-04-19T10:35:13.001Z</time></trkpt><trkpt lat="42.69370886002655" lon="12.732211370854198"><ele>481.0</ele><time>2026-04-19T10:35:14.001Z</time></trkpt><trkpt lat="42.69377350526608" lon="12.732162885552517"><ele>481.5</ele><time>2026-04-19T10:35:15.001Z</time></trkpt><trkpt lat="42.6938681780077" lon="12.732136551911262"><ele>482.0</ele><time>2026-04-19T10:35:16.001Z</time></trkpt><trkpt lat="42.69398026889764" lon="12.732129587176514"><ele>482.5</ele><time>2026-04-19T10:35:17.001Z</time></trkpt><trkpt lat="42.69411482461037" lon="12.73215123316316"><ele>483.0</ele><time>2026-04-19T10:35:18.001Z</time></trkpt><trkpt lat="42.69423382411963" lon="12.732157695343671"><ele>483.0</ele><time>2026-04-19T10:35:19.001Z</time></trkpt><trkpt lat="42.69432362698129" lon="12.732169052364192"><ele>482.99999999999994</ele><time>2026-04-19T10:35:20.001Z</time></trkpt><trkpt lat="42.69440525786344" lon="12.732170488353283"><ele>482.99999999999994</ele><time>2026-04-19T10:35:21.001Z</time></trkpt><trkpt lat="42.69447146598297" lon="12.732160370725177"><ele>483.0</ele><time>2026-04-19T10:35:22.001Z</time></trkpt><trkpt lat="42.69458277409152" lon="12.732083178274697"><ele>483.0</ele><time>2026-04-19T10:35:24.001Z</time></trkpt><trkpt lat="42.69463279813206" lon="12.731987249674118"><ele>481.2</ele><time>2026-04-19T10:35:25.001Z</time></trkpt><trkpt lat="42.694694210965764" lon="12.731868755350021"><ele>479.4</ele><time>2026-04-19T10:35:26.001Z</time></trkpt><trkpt lat="42.69476944796582" lon="12.731760730806416"><ele>477.59999999999997</ele><time>2026-04-19T10:35:27.001Z</time></trkpt><trkpt lat="42.6948475935865" lon="12.731666528132216"><ele>475.79999999999995</ele><time>2026-04-19T10:35:28.001Z</time></trkpt><trkpt lat="42.69492118413532" lon="12.731587128860573"><ele>474.0</ele><time>2026-04-19T10:35:29.001Z</time></trkpt><trkpt lat="42.69500574651721" lon="12.73150886612509"><ele>474.0</ele><time>2026-04-19T10:35:30.001Z</time></trkpt><trkpt lat="42.69509984889695" lon="12.731442105788695"><ele>474.0</ele><time>2026-04-19T10:35:31.001Z</time></trkpt><trkpt lat="42.695196264975955" lon="12.731374804557607"><ele>474.0</ele><time>2026-04-19T10:35:32.001Z</time></trkpt><trkpt lat="42.69527211308326" lon="12.731299717780617"><ele>474.0</ele><time>2026-04-19T10:35:33.001Z</time></trkpt><trkpt lat="42.69533894449368" lon="12.73119155816215"><ele>474.0</ele><time>2026-04-19T10:35:34.001Z</time></trkpt><trkpt lat="42.69540117379431" lon="12.731090023901315"><ele>473.8333333333333</ele><time>2026-04-19T10:35:35.001Z</time></trkpt><trkpt lat="42.69547284663688" lon="12.731014195256316"><ele>473.66666666666663</ele><time>2026-04-19T10:35:36.001Z</time></trkpt><trkpt lat="42.69555148646535" lon="12.730946491804549"><ele>473.5</ele><time>2026-04-19T10:35:37.001Z</time></trkpt><trkpt lat="42.695642873765905" lon="12.730896097121393"><ele>473.3333333333333</ele><time>2026-04-19T10:35:38.001Z</time></trkpt><trkpt lat="42.695709849372975" lon="12.730849712894267"><ele>473.16666666666663</ele><time>2026-04-19T10:35:39.002Z</time></trkpt><trkpt lat="42.69576062187387" lon="12.730779633143937"><ele>473.0</ele><time>2026-04-19T10:35:40.002Z</time></trkpt><trkpt lat="42.6957978294682" lon="12.730699083837848"><ele>473.0</ele><time>2026-04-19T10:35:41.002Z</time></trkpt><trkpt lat="42.69585497273551" lon="12.7305755547735"><ele>472.99999999999994</ele><time>2026-04-19T10:35:42.002Z</time></trkpt><trkpt lat="42.695911763736916" lon="12.73045123208833"><ele>472.99999999999994</ele><time>2026-04-19T10:35:43.002Z</time></trkpt><trkpt lat="42.69596345981408" lon="12.730311428878414"><ele>473.0</ele><time>2026-04-19T10:35:44.002Z</time></trkpt><trkpt lat="42.69599453918758" lon="12.730171422009574"><ele>473.0</ele><time>2026-04-19T10:35:45.002Z</time></trkpt><trkpt lat="42.69601157082344" lon="12.73002108241246"><ele>473.0</ele><time>2026-04-19T10:35:46.002Z</time></trkpt><trkpt lat="42.69604577147815" lon="12.729890793914977"><ele>472.99999999999994</ele><time>2026-04-19T10:35:47.002Z</time></trkpt><trkpt lat="42.69609091407796" lon="12.72977248855999"><ele>472.99999999999994</ele><time>2026-04-19T10:35:48.002Z</time></trkpt><trkpt lat="42.696148007480936" lon="12.729660776288785"><ele>473.0</ele><time>2026-04-19T10:35:49.002Z</time></trkpt><trkpt lat="42.69621288725948" lon="12.729546574572014"><ele>473.0</ele><time>2026-04-19T10:35:50.002Z</time></trkpt><trkpt lat="42.696277403322355" lon="12.729453400660802"><ele>470.49999999999994</ele><time>2026-04-19T10:35:51.002Z</time></trkpt><trkpt lat="42.69634994230224" lon="12.729387023436267"><ele>468.0</ele><time>2026-04-19T10:35:52.002Z</time></trkpt><trkpt lat="42.69642475077468" lon="12.729331734946472"><ele>465.5</ele><time>2026-04-19T10:35:53.002Z</time></trkpt><trkpt lat="42.69648762133677" lon="12.72927130873446"><ele>463.0</ele><time>2026-04-19T10:35:54.002Z</time></trkpt><trkpt lat="42.696542947008744" lon="12.729193687449744"><ele>460.49999999999994</ele><time>2026-04-19T10:35:55.002Z</time></trkpt><trkpt lat="42.696576430323" lon="12.729103665380554"><ele>458.0</ele><time>2026-04-19T10:35:56.002Z</time></trkpt><trkpt lat="42.696599675145556" lon="12.728935369599073"><ele>458.0</ele><time>2026-04-19T10:35:57.002Z</time></trkpt><trkpt lat="42.696574103757506" lon="12.728768807461863"><ele>458.0</ele><time>2026-04-19T10:35:58.002Z</time></trkpt><trkpt lat="42.69661728879838" lon="12.72863335727262"><ele>458.0</ele><time>2026-04-19T10:35:59.002Z</time></trkpt><trkpt lat="42.69666157337298" lon="12.728511078331302"><ele>458.0</ele><time>2026-04-19T10:36:00.002Z</time></trkpt><trkpt lat="42.696711499473466" lon="12.728349380752714"><ele>456.79999999999995</ele><time>2026-04-19T10:36:01.002Z</time></trkpt><trkpt lat="42.69675788568885" lon="12.728203632289045"><ele>455.59999999999997</ele><time>2026-04-19T10:36:02.002Z</time></trkpt><trkpt lat="42.69679948405847" lon="12.7280845411421"><ele>454.40000000000003</ele><time>2026-04-19T10:36:03.002Z</time></trkpt><trkpt lat="42.69682502370562" lon="12.72795895461134"><ele>453.20000000000005</ele><time>2026-04-19T10:36:04.002Z</time></trkpt><trkpt lat="42.69688492444697" lon="12.727826780059917"><ele>452.0</ele><time>2026-04-19T10:36:05.002Z</time></trkpt><trkpt lat="42.696961300497414" lon="12.727689950777485"><ele>451.25</ele><time>2026-04-19T10:36:06.002Z</time></trkpt><trkpt lat="42.69704245391385" lon="12.727567449513982"><ele>450.5</ele><time>2026-04-19T10:36:07.002Z</time></trkpt><trkpt lat="42.697129614027105" lon="12.727465995961339"><ele>449.75</ele><time>2026-04-19T10:36:08.002Z</time></trkpt><trkpt lat="42.69721967500507" lon="12.727352520398709"><ele>449.0</ele><time>2026-04-19T10:36:09.002Z</time></trkpt><trkpt lat="42.69730302806338" lon="12.727236153206979"><ele>449.0</ele><time>2026-04-19T10:36:10.002Z</time></trkpt><trkpt lat="42.69738117075998" lon="12.727129548164084"><ele>449.0</ele><time>2026-04-19T10:36:11.002Z</time></trkpt><trkpt lat="42.6974376487349" lon="12.72702562513407"><ele>449.0</ele><time>2026-04-19T10:36:12.002Z</time></trkpt><trkpt lat="42.697495701277745" lon="12.726937890288278"><ele>449.0</ele><time>2026-04-19T10:36:13.002Z</time></trkpt><trkpt lat="42.69755367939978" lon="12.726856398112407"><ele>449.0</ele><time>2026-04-19T10:36:14.002Z</time></trkpt><trkpt lat="42.69761963565539" lon="12.7268019698376"><ele>449.0</ele><time>2026-04-19T10:36:15.002Z</time></trkpt><trkpt lat="42.69768406724795" lon="12.726723223886856"><ele>449.0</ele><time>2026-04-19T10:36:16.002Z</time></trkpt><trkpt lat="42.69775347842107" lon="12.726630473812245"><ele>449.0</ele><time>2026-04-19T10:36:17.002Z</time></trkpt><trkpt lat="42.69781444102415" lon="12.72653368017195"><ele>449.0</ele><time>2026-04-19T10:36:17.998Z</time></trkpt><trkpt lat="42.697894754403556" lon="12.726437033409857"><ele>449.0</ele><time>2026-04-19T10:36:18.998Z</time></trkpt><trkpt lat="42.69797681265782" lon="12.726347441275601"><ele>448.4</ele><time>2026-04-19T10:36:19.998Z</time></trkpt><trkpt lat="42.69804469826606" lon="12.72627075177878"><ele>447.79999999999995</ele><time>2026-04-19T10:36:20.998Z</time></trkpt><trkpt lat="42.69812664013058" lon="12.726184686917321"><ele>447.20000000000005</ele><time>2026-04-19T10:36:21.998Z</time></trkpt><trkpt lat="42.69820828810404" lon="12.726104662362344"><ele>446.6</ele><time>2026-04-19T10:36:22.999Z</time></trkpt><trkpt lat="42.69827271871171" lon="12.72602464697703"><ele>446.0</ele><time>2026-04-19T10:36:23.999Z</time></trkpt><trkpt lat="42.698330197619136" lon="12.725962554712702"><ele>445.75</ele><time>2026-04-19T10:36:24.999Z</time></trkpt><trkpt lat="42.69841130695218" lon="12.725938354756153"><ele>445.5</ele><time>2026-04-19T10:36:25.999Z</time></trkpt><trkpt lat="42.69861412367036" lon="12.725868830171994"><ele>445.25</ele><time>2026-04-19T10:36:27.999Z</time></trkpt><trkpt lat="42.698690297523704" lon="12.725815705554803"><ele>445.0</ele><time>2026-04-19T10:36:28.999Z</time></trkpt><trkpt lat="42.69878131803743" lon="12.725775925939535"><ele>444.6</ele><time>2026-04-19T10:36:29.999Z</time></trkpt><trkpt lat="42.698877787136404" lon="12.725713752354883"><ele>444.2</ele><time>2026-04-19T10:36:30.999Z</time></trkpt><trkpt lat="42.69897962159044" lon="12.72562791538961"><ele>443.79999999999995</ele><time>2026-04-19T10:36:31.999Z</time></trkpt><trkpt lat="42.69905847554441" lon="12.725543552150205"><ele>443.4</ele><time>2026-04-19T10:36:33Z</time></trkpt><trkpt lat="42.699133351029126" lon="12.725447057279462"><ele>443.0</ele><time>2026-04-19T10:36:34Z</time></trkpt><trkpt lat="42.69920075658326" lon="12.72534440284409"><ele>443.0</ele><time>2026-04-19T10:36:35Z</time></trkpt><trkpt lat="42.69925369321533" lon="12.725242443963179"><ele>442.99999999999994</ele><time>2026-04-19T10:36:36Z</time></trkpt><trkpt lat="42.69929310818944" lon="12.725140905473046"><ele>442.99999999999994</ele><time>2026-04-19T10:36:37Z</time></trkpt><trkpt lat="42.69932668318068" lon="12.72503865061942"><ele>443.0</ele><time>2026-04-19T10:36:38Z</time></trkpt><trkpt lat="42.69937332028053" lon="12.724976422164135"><ele>443.0</ele><time>2026-04-19T10:36:39Z</time></trkpt><trkpt lat="42.69949607954553" lon="12.72483017738677"><ele>443.16666666666663</ele><time>2026-04-19T10:36:41Z</time></trkpt><trkpt lat="42.699557619225956" lon="12.724781400262286"><ele>443.3333333333333</ele><time>2026-04-19T10:36:42Z</time></trkpt><trkpt lat="42.69966986240284" lon="12.724625929835195"><ele>443.5</ele><time>2026-04-19T10:36:44.001Z</time></trkpt><trkpt lat="42.69970539370303" lon="12.72454415642457"><ele>443.66666666666663</ele><time>2026-04-19T10:36:45.001Z</time></trkpt><trkpt lat="42.6997313384401" lon="12.724454363420906"><ele>443.8333333333333</ele><time>2026-04-19T10:36:46.001Z</time></trkpt><trkpt lat="42.69973569927396" lon="12.724354647160913"><ele>444.0</ele><time>2026-04-19T10:36:47.001Z</time></trkpt><trkpt lat="42.699691736869696" lon="12.724244439319952"><ele>443.2</ele><time>2026-04-19T10:36:48.001Z</time></trkpt><trkpt lat="42.699638762368416" lon="12.724166091053943"><ele>442.4</ele><time>2026-04-19T10:36:49.001Z</time></trkpt><trkpt lat="42.69956731823013" lon="12.724108895950659"><ele>441.6</ele><time>2026-04-19T10:36:50.001Z</time></trkpt><trkpt lat="42.69949439346562" lon="12.72404621728056"><ele>440.8</ele><time>2026-04-19T10:36:51.001Z</time></trkpt><trkpt lat="42.699386044036125" lon="12.723947799954942"><ele>440.0</ele><time>2026-04-19T10:36:52.001Z</time></trkpt><trkpt lat="42.69929894560995" lon="12.72386180853651"><ele>440.0</ele><time>2026-04-19T10:36:53.001Z</time></trkpt><trkpt lat="42.69922782434819" lon="12.723801546001638"><ele>440.0</ele><time>2026-04-19T10:36:55.001Z</time></trkpt><trkpt lat="42.69908250501141" lon="12.723741905479743"><ele>440.0</ele><time>2026-04-19T10:36:57.001Z</time></trkpt><trkpt lat="42.69908125114428" lon="12.723627854125377"><ele>440.0</ele><time>2026-04-19T10:36:58.001Z</time></trkpt><trkpt lat="42.699391455256794" lon="12.723750112421511"><ele>439.16666666666663</ele><time>2026-04-19T10:36:59.001Z</time></trkpt><trkpt lat="42.69945396550526" lon="12.723795289888464"><ele>438.3333333333333</ele><time>2026-04-19T10:37:00.001Z</time></trkpt><trkpt lat="42.699541494050244" lon="12.723822680183035"><ele>437.5</ele><time>2026-04-19T10:37:02.001Z</time></trkpt><trkpt lat="42.699617607704894" lon="12.72387492462383"><ele>436.66666666666663</ele><time>2026-04-19T10:37:05.001Z</time></trkpt><trkpt lat="42.69968973233037" lon="12.7239078977659"><ele>435.8333333333333</ele><time>2026-04-19T10:37:07.002Z</time></trkpt><trkpt lat="42.69976907680158" lon="12.723924667931845"><ele>435.0</ele><time>2026-04-19T10:37:10.002Z</time></trkpt><trkpt lat="42.699819377761116" lon="12.72386991487386"><ele>435.0</ele><time>2026-04-19T10:37:15.002Z</time></trkpt><trkpt lat="42.699869128230866" lon="12.723781011331397"><ele>435.0</ele><time>2026-04-19T10:37:17.002Z</time></trkpt><trkpt lat="42.69991544953453" lon="12.723703614305508"><ele>435.0</ele><time>2026-04-19T10:37:19.002Z</time></trkpt><trkpt lat="42.699983929472936" lon="12.723697458135458"><ele>435.0</ele><time>2026-04-19T10:37:22.002Z</time></trkpt><trkpt lat="42.70008080232813" lon="12.723760732888175"><ele>435.0</ele><time>2026-04-19T10:37:24.002Z</time></trkpt><trkpt lat="42.70016205647323" lon="12.72378121359864"><ele>435.0</ele><time>2026-04-19T10:37:26.002Z</time></trkpt><trkpt lat="42.700256083988336" lon="12.72378517611985"><ele>436.0</ele><time>2026-04-19T10:37:31.002Z</time></trkpt><trkpt lat="42.7003312333618" lon="12.723787362474228"><ele>437.0</ele><time>2026-04-19T10:37:34.002Z</time></trkpt><trkpt lat="42.70043563402616" lon="12.723810369031234"><ele>438.0</ele><time>2026-04-19T10:37:36.002Z</time></trkpt><trkpt lat="42.70053428121676" lon="12.723821996260558"><ele>439.0</ele><time>2026-04-19T10:37:38.002Z</time></trkpt><trkpt lat="42.70064447650369" lon="12.723839742252872"><ele>440.0</ele><time>2026-04-19T10:37:40.002Z</time></trkpt><trkpt lat="42.70072633987981" lon="12.723849921424168"><ele>439.99999999999994</ele><time>2026-04-19T10:37:41.002Z</time></trkpt><trkpt lat="42.70079186416601" lon="12.72385562128303"><ele>440.0</ele><time>2026-04-19T10:37:42.002Z</time></trkpt><trkpt lat="42.700890813609604" lon="12.723834341778684"><ele>440.0</ele><time>2026-04-19T10:37:44.003Z</time></trkpt><trkpt lat="42.70099061706469" lon="12.723770107750196"><ele>440.0</ele><time>2026-04-19T10:37:46.003Z</time></trkpt><trkpt lat="42.70105212103593" lon="12.723733282281017"><ele>439.99999999999994</ele><time>2026-04-19T10:37:47.003Z</time></trkpt><trkpt lat="42.70114274031211" lon="12.723688361663099"><ele>440.0</ele><time>2026-04-19T10:37:49.003Z</time></trkpt><trkpt lat="42.701225920827774" lon="12.723611928068054"><ele>438.0</ele><time>2026-04-19T10:37:52.003Z</time></trkpt><trkpt lat="42.70131330208039" lon="12.723522999816513"><ele>436.0</ele><time>2026-04-19T10:37:54.003Z</time></trkpt><trkpt lat="42.7013973472529" lon="12.723504859501325"><ele>434.0</ele><time>2026-04-19T10:37:58.003Z</time></trkpt><trkpt lat="42.70146834530424" lon="12.723457268382992"><ele>432.0</ele><time>2026-04-19T10:38:00.003Z</time></trkpt><trkpt lat="42.70154590859605" lon="12.723415448793553"><ele>430.0</ele><time>2026-04-19T10:38:03.003Z</time></trkpt><trkpt lat="42.70162964534098" lon="12.72335679356545"><ele>430.00000000000006</ele><time>2026-04-19T10:38:06.003Z</time></trkpt><trkpt lat="42.701713117002505" lon="12.723421106426992"><ele>430.0</ele><time>2026-04-19T10:38:09.003Z</time></trkpt><trkpt lat="42.70171002557632" lon="12.723540376531952"><ele>430.0</ele><time>2026-04-19T10:38:13.003Z</time></trkpt><trkpt lat="42.70165790646155" lon="12.723591013578055"><ele>430.0</ele><time>2026-04-19T10:38:16.003Z</time></trkpt><trkpt lat="42.701608963682624" lon="12.723524434304037"><ele>430.00000000000006</ele><time>2026-04-19T10:38:18.003Z</time></trkpt><trkpt lat="42.7015582981846" lon="12.723449981618245"><ele>430.0</ele><time>2026-04-19T10:38:20.003Z</time></trkpt><trkpt lat="42.701623227669884" lon="12.723516613351165"><ele>433.1666666666667</ele><time>2026-04-19T10:38:32.999Z</time></trkpt><trkpt lat="42.7016795151791" lon="12.72359590762779"><ele>436.33333333333337</ele><time>2026-04-19T10:38:39.999Z</time></trkpt><trkpt lat="42.701743599734286" lon="12.72368436942232"><ele>439.5</ele><time>2026-04-19T10:38:44.999Z</time></trkpt><trkpt lat="42.70180546467562" lon="12.723770785456196"><ele>442.66666666666663</ele><time>2026-04-19T10:38:46.999Z</time></trkpt><trkpt lat="42.70187654729751" lon="12.723751728716874"><ele>445.8333333333333</ele><time>2026-04-19T10:38:49.999Z</time></trkpt><trkpt lat="42.7019259805681" lon="12.723670201302937"><ele>449.0</ele><time>2026-04-19T10:38:53.999Z</time></trkpt><trkpt lat="42.70195855862532" lon="12.723591867765053"><ele>445.4</ele><time>2026-04-19T10:38:55.999Z</time></trkpt><trkpt lat="42.70201652192567" lon="12.723521463125262"><ele>441.79999999999995</ele><time>2026-04-19T10:38:58Z</time></trkpt><trkpt lat="42.70209660183438" lon="12.723483219834451"><ele>438.20000000000005</ele><time>2026-04-19T10:39:00Z</time></trkpt><trkpt lat="42.70216118958038" lon="12.72344602833045"><ele>434.6</ele><time>2026-04-19T10:39:03Z</time></trkpt><trkpt lat="42.702256559057545" lon="12.723521313453096"><ele>431.0</ele><time>2026-04-19T10:39:06Z</time></trkpt><trkpt lat="42.70236976956959" lon="12.723492700675113"><ele>431.0</ele><time>2026-04-19T10:39:08Z</time></trkpt><trkpt lat="42.70247442457428" lon="12.723443090266532"><ele>431.0</ele><time>2026-04-19T10:39:10Z</time></trkpt><trkpt lat="42.702534692379004" lon="12.723409600037868"><ele>431.0</ele><time>2026-04-19T10:39:11Z</time></trkpt><trkpt lat="42.70260552394563" lon="12.723377738127775"><ele>431.0</ele><time>2026-04-19T10:39:12Z</time></trkpt><trkpt lat="42.702717134160935" lon="12.723331647226866"><ele>431.0</ele><time>2026-04-19T10:39:14Z</time></trkpt><trkpt lat="42.70280613014854" lon="12.723293968553403"><ele>432.6</ele><time>2026-04-19T10:39:16Z</time></trkpt><trkpt lat="42.70291299641222" lon="12.723302983754923"><ele>434.20000000000005</ele><time>2026-04-19T10:39:18Z</time></trkpt><trkpt lat="42.70301633899797" lon="12.723380620641851"><ele>435.79999999999995</ele><time>2026-04-19T10:39:20Z</time></trkpt><trkpt lat="42.7031065269195" lon="12.723325200624213"><ele>437.4</ele><time>2026-04-19T10:39:23Z</time></trkpt><trkpt lat="42.703165043062995" lon="12.723372607259428"><ele>439.0</ele><time>2026-04-19T10:39:25Z</time></trkpt><trkpt lat="42.70321935881947" lon="12.723419110722345"><ele>439.00000000000006</ele><time>2026-04-19T10:39:27Z</time></trkpt><trkpt lat="42.70331782369678" lon="12.723407225584248"><ele>439.0</ele><time>2026-04-19T10:39:29Z</time></trkpt><trkpt lat="42.70338084871604" lon="12.72338567539238"><ele>439.0</ele><time>2026-04-19T10:39:30Z</time></trkpt><trkpt lat="42.70342186007183" lon="12.723283297332454"><ele>439.0</ele><time>2026-04-19T10:39:32Z</time></trkpt><trkpt lat="42.70347754781933" lon="12.723233638855964"><ele>439.00000000000006</ele><time>2026-04-19T10:39:33Z</time></trkpt><trkpt lat="42.703527729695935" lon="12.723169120067023"><ele>439.0</ele><time>2026-04-19T10:39:34Z</time></trkpt><trkpt lat="42.7036398073177" lon="12.723026668425566"><ele>436.6</ele><time>2026-04-19T10:39:36.001Z</time></trkpt><trkpt lat="42.7036910001621" lon="12.722966993154262"><ele>434.2</ele><time>2026-04-19T10:39:37.001Z</time></trkpt><trkpt lat="42.70374108816314" lon="12.72284968722694"><ele>431.80000000000007</ele><time>2026-04-19T10:39:39.001Z</time></trkpt><trkpt lat="42.70383052743829" lon="12.722691027120318"><ele>429.40000000000003</ele><time>2026-04-19T10:39:42.001Z</time></trkpt><trkpt lat="42.70393753471434" lon="12.72261526885861"><ele>427.0</ele><time>2026-04-19T10:39:44.001Z</time></trkpt><trkpt lat="42.70401294261286" lon="12.722531581846308"><ele>427.00000000000006</ele><time>2026-04-19T10:39:46.001Z</time></trkpt><trkpt lat="42.704087975950955" lon="12.722490551282336"><ele>427.0</ele><time>2026-04-19T10:39:47.001Z</time></trkpt><trkpt lat="42.7041664044634" lon="12.722448148524798"><ele>427.0</ele><time>2026-04-19T10:39:49.001Z</time></trkpt><trkpt lat="42.704231562720025" lon="12.722417480800422"><ele>427.0</ele><time>2026-04-19T10:39:50.001Z</time></trkpt><trkpt lat="42.704289344034216" lon="12.72237608976886"><ele>427.00000000000006</ele><time>2026-04-19T10:39:51.001Z</time></trkpt><trkpt lat="42.70432869992508" lon="12.722299431818948"><ele>427.0</ele><time>2026-04-19T10:39:53.001Z</time></trkpt><trkpt lat="42.70442860606076" lon="12.7222531455243"><ele>429.1666666666667</ele><time>2026-04-19T10:39:55.001Z</time></trkpt><trkpt lat="42.70451380991074" lon="12.722204248773156"><ele>431.33333333333337</ele><time>2026-04-19T10:39:57.001Z</time></trkpt><trkpt lat="42.70461203023081" lon="12.722155913771337"><ele>433.5</ele><time>2026-04-19T10:39:59.001Z</time></trkpt><trkpt lat="42.7046791581488" lon="12.722136551483766"><ele>435.66666666666663</ele><time>2026-04-19T10:40:01.001Z</time></trkpt><trkpt lat="42.70474894560789" lon="12.722116091533064"><ele>437.8333333333333</ele><time>2026-04-19T10:40:03.001Z</time></trkpt><trkpt lat="42.70480690106598" lon="12.722079377880132"><ele>440.0</ele><time>2026-04-19T10:40:04.001Z</time></trkpt><trkpt lat="42.70487133671583" lon="12.72203865459376"><ele>439.99999999999994</ele><time>2026-04-19T10:40:05.001Z</time></trkpt><trkpt lat="42.7049361833108" lon="12.721986300606824"><ele>440.0</ele><time>2026-04-19T10:40:07.001Z</time></trkpt><trkpt lat="42.705014136315896" lon="12.72200679118075"><ele>440.0</ele><time>2026-04-19T10:40:11.002Z</time></trkpt><trkpt lat="42.70507906516058" lon="12.72200453116004"><ele>440.0</ele><time>2026-04-19T10:40:13.002Z</time></trkpt><trkpt lat="42.705151519167934" lon="12.721988937394302"><ele>439.99999999999994</ele><time>2026-04-19T10:40:15.002Z</time></trkpt><trkpt lat="42.70523274361161" lon="12.721966849750407"><ele>440.0</ele><time>2026-04-19T10:40:18.002Z</time></trkpt><trkpt lat="42.70533875403781" lon="12.721925516358507"><ele>436.4</ele><time>2026-04-19T10:40:21.002Z</time></trkpt><trkpt lat="42.70544607868443" lon="12.72187235851319"><ele>432.8</ele><time>2026-04-19T10:40:23.002Z</time></trkpt><trkpt lat="42.705549491275626" lon="12.721850955435267"><ele>429.20000000000005</ele><time>2026-04-19T10:40:25.002Z</time></trkpt><trkpt lat="42.70564713560701" lon="12.721838193214069"><ele>425.6</ele><time>2026-04-19T10:40:26.002Z</time></trkpt><trkpt lat="42.705722903934856" lon="12.721826549863296"><ele>422.0</ele><time>2026-04-19T10:40:27.002Z</time></trkpt><trkpt lat="42.7058119809316" lon="12.721749533814776"><ele>421.99999999999994</ele><time>2026-04-19T10:40:29.002Z</time></trkpt><trkpt lat="42.70591072933019" lon="12.72164766190287"><ele>422.0</ele><time>2026-04-19T10:40:30.998Z</time></trkpt><trkpt lat="42.705985121252006" lon="12.721577679425327"><ele>422.0</ele><time>2026-04-19T10:40:32.998Z</time></trkpt><trkpt lat="42.70602209908083" lon="12.721499484496201"><ele>422.0</ele><time>2026-04-19T10:40:38.999Z</time></trkpt><trkpt lat="42.70603908240735" lon="12.721383508558095"><ele>421.99999999999994</ele><time>2026-04-19T10:40:42.999Z</time></trkpt><trkpt lat="42.706047389011104" lon="12.721277621515352"><ele>422.0</ele><time>2026-04-19T10:40:44.999Z</time></trkpt><trkpt lat="42.706124245837316" lon="12.721213304004976"><ele>421.3333333333333</ele><time>2026-04-19T10:40:46.999Z</time></trkpt><trkpt lat="42.70614689461883" lon="12.721068320164044"><ele>420.66666666666663</ele><time>2026-04-19T10:40:48.999Z</time></trkpt><trkpt lat="42.706125862828465" lon="12.720964763718554"><ele>420.0</ele><time>2026-04-19T10:40:50Z</time></trkpt><trkpt lat="42.706115529638026" lon="12.720871391634736"><ele>419.33333333333337</ele><time>2026-04-19T10:40:51Z</time></trkpt><trkpt lat="42.706094415787746" lon="12.720772874980492"><ele>418.6666666666667</ele><time>2026-04-19T10:40:52Z</time></trkpt><trkpt lat="42.70606111573095" lon="12.720692421407172"><ele>418.0</ele><time>2026-04-19T10:40:53Z</time></trkpt><trkpt lat="42.706012773671695" lon="12.720615409787495"><ele>418.0</ele><time>2026-04-19T10:40:54Z</time></trkpt><trkpt lat="42.705970893887056" lon="12.720522713599662"><ele>418.0</ele><time>2026-04-19T10:40:56Z</time></trkpt><trkpt lat="42.70605053962556" lon="12.720487195331168"><ele>418.0</ele><time>2026-04-19T10:40:58Z</time></trkpt><trkpt lat="42.706138884632296" lon="12.720582447229589"><ele>418.0</ele><time>2026-04-19T10:41:00Z</time></trkpt><trkpt lat="42.70616585717567" lon="12.720668467646231"><ele>418.0</ele><time>2026-04-19T10:41:01Z</time></trkpt><trkpt lat="42.70624587198393" lon="12.720780959684008"><ele>417.33333333333337</ele><time>2026-04-19T10:41:03Z</time></trkpt><trkpt lat="42.70631375344024" lon="12.720780300489704"><ele>416.6666666666667</ele><time>2026-04-19T10:41:04Z</time></trkpt><trkpt lat="42.706382471415985" lon="12.720756550054684"><ele>416.0</ele><time>2026-04-19T10:41:05Z</time></trkpt><trkpt lat="42.70643482902122" lon="12.720705882890247"><ele>415.33333333333337</ele><time>2026-04-19T10:41:06.001Z</time></trkpt><trkpt lat="42.70651468497308" lon="12.720622178698935"><ele>414.6666666666667</ele><time>2026-04-19T10:41:07.001Z</time></trkpt><trkpt lat="42.706595123063835" lon="12.720528773652326"><ele>414.0</ele><time>2026-04-19T10:41:08.001Z</time></trkpt><trkpt lat="42.70666298280745" lon="12.72045374199288"><ele>414.00000000000006</ele><time>2026-04-19T10:41:09.001Z</time></trkpt><trkpt lat="42.706721832888825" lon="12.720397422378708"><ele>414.0</ele><time>2026-04-19T10:41:10.001Z</time></trkpt><trkpt lat="42.706782439459474" lon="12.720371514180329"><ele>414.0</ele><time>2026-04-19T10:41:11.001Z</time></trkpt><trkpt lat="42.70686245246586" lon="12.720366288986938"><ele>414.0</ele><time>2026-04-19T10:41:12.001Z</time></trkpt><trkpt lat="42.706939839390806" lon="12.720345404995319"><ele>414.0</ele><time>2026-04-19T10:41:13.001Z</time></trkpt><trkpt lat="42.70700955261632" lon="12.720294514166278"><ele>414.00000000000006</ele><time>2026-04-19T10:41:14.001Z</time></trkpt><trkpt lat="42.70707785845045" lon="12.720267515642847"><ele>414.0</ele><time>2026-04-19T10:41:15.001Z</time></trkpt><trkpt lat="42.707152569760524" lon="12.72027166696163"><ele>415.2</ele><time>2026-04-19T10:41:16.001Z</time></trkpt><trkpt lat="42.707241259057724" lon="12.720281364408795"><ele>416.4</ele><time>2026-04-19T10:41:17.001Z</time></trkpt><trkpt lat="42.70733164422133" lon="12.720287681274936"><ele>417.6</ele><time>2026-04-19T10:41:18.001Z</time></trkpt><trkpt lat="42.707427972304" lon="12.720300641558294"><ele>418.8</ele><time>2026-04-19T10:41:19.001Z</time></trkpt><trkpt lat="42.70752841962412" lon="12.720313311566777"><ele>420.0</ele><time>2026-04-19T10:41:20.001Z</time></trkpt><trkpt lat="42.70762824665166" lon="12.720323104476188"><ele>420.0</ele><time>2026-04-19T10:41:21.001Z</time></trkpt><trkpt lat="42.70771523069921" lon="12.720339432213896"><ele>420.0</ele><time>2026-04-19T10:41:22.001Z</time></trkpt><trkpt lat="42.707786872086366" lon="12.72033801649902"><ele>420.0</ele><time>2026-04-19T10:41:23.001Z</time></trkpt><trkpt lat="42.707907433779496" lon="12.720288829899062"><ele>420.0</ele><time>2026-04-19T10:41:25.001Z</time></trkpt><trkpt lat="42.70800315379061" lon="12.720216658645736"><ele>420.0</ele><time>2026-04-19T10:41:27.001Z</time></trkpt><trkpt lat="42.70803447916435" lon="12.720115892191874"><ele>418.4</ele><time>2026-04-19T10:41:32.001Z</time></trkpt><trkpt lat="42.70801634257094" lon="12.72001582438944"><ele>416.8</ele><time>2026-04-19T10:41:35.002Z</time></trkpt><trkpt lat="42.707965326565926" lon="12.719920690195897"><ele>415.20000000000005</ele><time>2026-04-19T10:41:37.002Z</time></trkpt><trkpt lat="42.70793288447468" lon="12.719806686794232"><ele>413.6</ele><time>2026-04-19T10:41:40.002Z</time></trkpt><trkpt lat="42.70789284730777" lon="12.719669268123088"><ele>412.0</ele><time>2026-04-19T10:41:42.002Z</time></trkpt><trkpt lat="42.7078766217084" lon="12.719531246180514"><ele>412.0</ele><time>2026-04-19T10:41:44.002Z</time></trkpt><trkpt lat="42.70786267258167" lon="12.719433928739313"><ele>412.0</ele><time>2026-04-19T10:41:46.002Z</time></trkpt><trkpt lat="42.707839874576464" lon="12.71933912582533"><ele>412.0</ele><time>2026-04-19T10:41:49.002Z</time></trkpt><trkpt lat="42.7078218689396" lon="12.719223143219184"><ele>412.0</ele><time>2026-04-19T10:41:52.002Z</time></trkpt><trkpt lat="42.70775307905181" lon="12.718960717332287"><ele>412.0</ele><time>2026-04-19T10:42:00.002Z</time></trkpt><trkpt lat="42.70781512180607" lon="12.718987605185136"><ele>412.33333333333337</ele><time>2026-04-19T10:42:03.002Z</time></trkpt><trkpt lat="42.707818576227375" lon="12.719077710254362"><ele>412.6666666666667</ele><time>2026-04-19T10:42:40.999Z</time></trkpt><trkpt lat="42.70776618147033" lon="12.719141933502994"><ele>413.0</ele><time>2026-04-19T10:42:59Z</time></trkpt><trkpt lat="42.70775625296799" lon="12.719045549397917"><ele>413.33333333333337</ele><time>2026-04-19T10:43:20.001Z</time></trkpt><trkpt lat="42.707695813906625" lon="12.718959500410024"><ele>413.6666666666667</ele><time>2026-04-19T10:43:22.001Z</time></trkpt><trkpt lat="42.70765573619612" lon="12.718887770279347"><ele>414.0</ele><time>2026-04-19T10:43:24.001Z</time></trkpt><trkpt lat="42.70776274962189" lon="12.718674826869607"><ele>414.5</ele><time>2026-04-19T10:43:25.001Z</time></trkpt><trkpt lat="42.70771116860226" lon="12.71860287795118"><ele>415.0</ele><time>2026-04-19T10:43:27.001Z</time></trkpt><trkpt lat="42.70764626312133" lon="12.718524556008148"><ele>415.5</ele><time>2026-04-19T10:43:30.001Z</time></trkpt><trkpt lat="42.70760008463706" lon="12.718465402022991"><ele>416.0</ele><time>2026-04-19T10:43:34.002Z</time></trkpt><trkpt lat="42.707544838873254" lon="12.718394632942127"><ele>416.5</ele><time>2026-04-19T10:43:37.002Z</time></trkpt><trkpt lat="42.707488175565516" lon="12.718319694714213"><ele>417.0</ele><time>2026-04-19T10:43:39.002Z</time></trkpt><trkpt lat="42.707427162713394" lon="12.718236693546583"><ele>417.2857142857143</ele><time>2026-04-19T10:43:41.002Z</time></trkpt><trkpt lat="42.70737804721133" lon="12.718169877743744"><ele>417.57142857142856</ele><time>2026-04-19T10:43:43.002Z</time></trkpt><trkpt lat="42.70733282329979" lon="12.718108355930202"><ele>417.85714285714283</ele><time>2026-04-19T10:43:45.002Z</time></trkpt><trkpt lat="42.70728392292814" lon="12.718041828574941"><ele>418.1428571428571</ele><time>2026-04-19T10:43:47.002Z</time></trkpt><trkpt lat="42.70723386607833" lon="12.71798498409121"><ele>418.42857142857144</ele><time>2026-04-19T10:43:49.002Z</time></trkpt><trkpt lat="42.70717639769988" lon="12.71791531457728"><ele>418.71428571428567</ele><time>2026-04-19T10:43:52.002Z</time></trkpt><trkpt lat="42.707115108416495" lon="12.717841250999173"><ele>419.0</ele><time>2026-04-19T10:43:54.002Z</time></trkpt><trkpt lat="42.707048762842525" lon="12.717761077400178"><ele>418.8333333333333</ele><time>2026-04-19T10:43:56.002Z</time></trkpt><trkpt lat="42.70698365162676" lon="12.717682395427177"><ele>418.66666666666663</ele><time>2026-04-19T10:43:58.002Z</time></trkpt><trkpt lat="42.70692164960259" lon="12.717608245708613"><ele>418.5</ele><time>2026-04-19T10:44:01.002Z</time></trkpt><trkpt lat="42.706866581911406" lon="12.717543003178912"><ele>418.33333333333337</ele><time>2026-04-19T10:44:03.002Z</time></trkpt><trkpt lat="42.70681634164803" lon="12.717486632756403"><ele>418.1666666666667</ele><time>2026-04-19T10:44:05.003Z</time></trkpt><trkpt lat="42.70676024905867" lon="12.717424693684228"><ele>418.0</ele><time>2026-04-19T10:44:08.003Z</time></trkpt><trkpt lat="42.70668487413662" lon="12.717387717563698"><ele>419.0</ele><time>2026-04-19T10:44:10.003Z</time></trkpt><trkpt lat="42.70660962038362" lon="12.717314968475147"><ele>420.0</ele><time>2026-04-19T10:44:12.003Z</time></trkpt><trkpt lat="42.70640645760165" lon="12.717654132707557"><ele>421.0</ele><time>2026-04-19T10:44:13.003Z</time></trkpt><trkpt lat="42.70632273279225" lon="12.717675849145948"><ele>421.0</ele><time>2026-04-19T10:44:16.003Z</time></trkpt><trkpt lat="42.7062592652931" lon="12.717654022950951"><ele>421.0</ele><time>2026-04-19T10:44:23.003Z</time></trkpt><trkpt lat="42.70620140648369" lon="12.717524152799728"><ele>421.0</ele><time>2026-04-19T10:44:28.003Z</time></trkpt><trkpt lat="42.7062345485692" lon="12.717437510144531"><ele>421.0</ele><time>2026-04-19T10:44:42Z</time></trkpt><trkpt lat="42.70634373287131" lon="12.717500831610424"><ele>421.0</ele><time>2026-04-19T10:44:50Z</time></trkpt><trkpt lat="42.70647367280914" lon="12.717452214932889"><ele>421.00000000000006</ele><time>2026-04-19T10:44:52Z</time></trkpt><trkpt lat="42.70656429871247" lon="12.717430795895831"><ele>421.0</ele><time>2026-04-19T10:44:54Z</time></trkpt><trkpt lat="42.706610538827874" lon="12.717371973569568"><ele>421.0</ele><time>2026-04-19T10:44:59Z</time></trkpt><trkpt lat="42.70654963227366" lon="12.717242268030871"><ele>421.0</ele><time>2026-04-19T10:45:01Z</time></trkpt><trkpt lat="42.706479472836065" lon="12.717202251610534"><ele>421.00000000000006</ele><time>2026-04-19T10:45:02Z</time></trkpt><trkpt lat="42.706409683863235" lon="12.717140675078726"><ele>421.0</ele><time>2026-04-19T10:45:03Z</time></trkpt><trkpt lat="42.706333630909434" lon="12.717046760570378"><ele>421.0</ele><time>2026-04-19T10:45:04Z</time></trkpt><trkpt lat="42.706269579595926" lon="12.716945974172354"><ele>421.0</ele><time>2026-04-19T10:45:05Z</time></trkpt><trkpt lat="42.706248781168725" lon="12.716796762218056"><ele>421.0</ele><time>2026-04-19T10:45:06Z</time></trkpt><trkpt lat="42.706167753508005" lon="12.7166738938506"><ele>421.0</ele><time>2026-04-19T10:45:07Z</time></trkpt><trkpt lat="42.70607306346407" lon="12.71658598504195"><ele>421.0</ele><time>2026-04-19T10:45:08Z</time></trkpt><trkpt lat="42.70597189732146" lon="12.716513935489541"><ele>421.75</ele><time>2026-04-19T10:45:09Z</time></trkpt><trkpt lat="42.70584944260469" lon="12.716452925296657"><ele>422.5</ele><time>2026-04-19T10:45:10Z</time></trkpt><trkpt lat="42.70572807572199" lon="12.716376983947994"><ele>423.25</ele><time>2026-04-19T10:45:11Z</time></trkpt><trkpt lat="42.70559696665285" lon="12.716312822112592"><ele>424.0</ele><time>2026-04-19T10:45:12Z</time></trkpt><trkpt lat="42.705480061683524" lon="12.716241789287286"><ele>424.0</ele><time>2026-04-19T10:45:13Z</time></trkpt><trkpt lat="42.70537355957398" lon="12.716165713495274"><ele>424.0</ele><time>2026-04-19T10:45:14Z</time></trkpt><trkpt lat="42.705315692590034" lon="12.716106416844077"><ele>424.0</ele><time>2026-04-19T10:45:15Z</time></trkpt><trkpt lat="42.70541237396982" lon="12.715981038306627"><ele>424.0</ele><time>2026-04-19T10:45:18.001Z</time></trkpt><trkpt lat="42.70544801051091" lon="12.715861534460062"><ele>424.0</ele><time>2026-04-19T10:45:19.001Z</time></trkpt><trkpt lat="42.70552354178067" lon="12.71569572518816"><ele>425.25</ele><time>2026-04-19T10:45:20.001Z</time></trkpt><trkpt lat="42.70562457008662" lon="12.715532636137352"><ele>426.5</ele><time>2026-04-19T10:45:21.001Z</time></trkpt><trkpt lat="42.70571570219074" lon="12.715382310943085"><ele>427.75</ele><time>2026-04-19T10:45:22.001Z</time></trkpt><trkpt lat="42.70580099191129" lon="12.715232364832843"><ele>429.0</ele><time>2026-04-19T10:45:23.001Z</time></trkpt><trkpt lat="42.705871818899105" lon="12.715074465459287"><ele>432.0</ele><time>2026-04-19T10:45:24.001Z</time></trkpt><trkpt lat="42.70595858003046" lon="12.714922757641592"><ele>435.0</ele><time>2026-04-19T10:45:25.001Z</time></trkpt><trkpt lat="42.70601532116959" lon="12.714758062035031"><ele>438.0</ele><time>2026-04-19T10:45:26.001Z</time></trkpt><trkpt lat="42.706078790988414" lon="12.714620871176379"><ele>441.0</ele><time>2026-04-19T10:45:27.001Z</time></trkpt><trkpt lat="42.706163056056944" lon="12.714475930443594"><ele>443.33333333333337</ele><time>2026-04-19T10:45:28.001Z</time></trkpt><trkpt lat="42.70624947006395" lon="12.714324822796117"><ele>445.6666666666667</ele><time>2026-04-19T10:45:29.001Z</time></trkpt><trkpt lat="42.70636103032268" lon="12.714109149253417"><ele>448.0</ele><time>2026-04-19T10:45:30.001Z</time></trkpt><trkpt lat="42.70645165829465" lon="12.713897029478636"><ele>448.0</ele><time>2026-04-19T10:45:31.001Z</time></trkpt><trkpt lat="42.70653970786999" lon="12.713702430940891"><ele>448.0</ele><time>2026-04-19T10:45:32.001Z</time></trkpt><trkpt lat="42.706625204368336" lon="12.713528859683713"><ele>448.0</ele><time>2026-04-19T10:45:33.001Z</time></trkpt><trkpt lat="42.706713543690924" lon="12.713400107352426"><ele>450.33333333333337</ele><time>2026-04-19T10:45:34.001Z</time></trkpt><trkpt lat="42.70675456402429" lon="12.71333018559527"><ele>452.6666666666667</ele><time>2026-04-19T10:45:35.001Z</time></trkpt><trkpt lat="42.706801665201894" lon="12.71325372617058"><ele>455.0</ele><time>2026-04-19T10:45:36.001Z</time></trkpt><trkpt lat="42.70686006680577" lon="12.713161346551525"><ele>457.33333333333337</ele><time>2026-04-19T10:45:37.001Z</time></trkpt><trkpt lat="42.70691669799046" lon="12.713096899788951"><ele>459.6666666666667</ele><time>2026-04-19T10:45:38.001Z</time></trkpt><trkpt lat="42.70699467282465" lon="12.713085799090413"><ele>462.0</ele><time>2026-04-19T10:45:40.001Z</time></trkpt><trkpt lat="42.707041344243564" lon="12.712940116477501"><ele>465.0</ele><time>2026-04-19T10:45:42.001Z</time></trkpt><trkpt lat="42.707078419531925" lon="12.71304356118632"><ele>468.0</ele><time>2026-04-19T10:45:44.001Z</time></trkpt><trkpt lat="42.70704170448573" lon="12.713122785381731"><ele>471.0</ele><time>2026-04-19T10:45:47.001Z</time></trkpt><trkpt lat="42.70698562531912" lon="12.713082500170222"><ele>474.0</ele><time>2026-04-19T10:45:48.002Z</time></trkpt><trkpt lat="42.707337818945696" lon="12.713063440782411"><ele>474.0</ele><time>2026-04-19T10:45:54.002Z</time></trkpt><trkpt lat="42.70739635814965" lon="12.713115987949791"><ele>474.0</ele><time>2026-04-19T10:45:55.002Z</time></trkpt><trkpt lat="42.70750083532422" lon="12.713150778252466"><ele>474.0</ele><time>2026-04-19T10:45:57.002Z</time></trkpt><trkpt lat="42.707626126934066" lon="12.713144857664792"><ele>474.0</ele><time>2026-04-19T10:45:59.002Z</time></trkpt><trkpt lat="42.707711297944094" lon="12.713153500196604"><ele>474.0</ele><time>2026-04-19T10:46:01.002Z</time></trkpt><trkpt lat="42.707818433944276" lon="12.71317701472303"><ele>478.5</ele><time>2026-04-19T10:46:03.002Z</time></trkpt><trkpt lat="42.70788265492846" lon="12.713303117767758"><ele>483.0</ele><time>2026-04-19T10:46:05.002Z</time></trkpt><trkpt lat="42.70795951447338" lon="12.713371063401388"><ele>487.5</ele><time>2026-04-19T10:46:07.002Z</time></trkpt><trkpt lat="42.708037923422836" lon="12.71341442435767"><ele>492.0</ele><time>2026-04-19T10:46:09.002Z</time></trkpt><trkpt lat="42.70810523951643" lon="12.713443645154396"><ele>496.5</ele><time>2026-04-19T10:46:11.002Z</time></trkpt><trkpt lat="42.70817607150824" lon="12.713492503362328"><ele>501.0</ele><time>2026-04-19T10:46:13.002Z</time></trkpt><trkpt lat="42.70824992534984" lon="12.713482572416174"><ele>501.0</ele><time>2026-04-19T10:46:15.002Z</time></trkpt><trkpt lat="42.70836226269461" lon="12.713467449298813"><ele>501.0</ele><time>2026-04-19T10:46:17.002Z</time></trkpt><trkpt lat="42.708449233647706" lon="12.713434914711305"><ele>501.0</ele><time>2026-04-19T10:46:19.002Z</time></trkpt><trkpt lat="42.708563504313794" lon="12.71341394447314"><ele>501.0</ele><time>2026-04-19T10:46:21.003Z</time></trkpt><trkpt lat="42.70862958211652" lon="12.713386389897328"><ele>501.0</ele><time>2026-04-19T10:46:25.003Z</time></trkpt><trkpt lat="42.7085993940623" lon="12.713300519897944"><ele>501.0</ele><time>2026-04-19T10:46:29.003Z</time></trkpt><trkpt lat="42.70853104762662" lon="12.713252779901024"><ele>501.0</ele><time>2026-04-19T10:46:31.003Z</time></trkpt><trkpt lat="42.708441442427706" lon="12.713136584064841"><ele>501.0</ele><time>2026-04-19T10:46:33.003Z</time></trkpt><trkpt lat="42.70837624202088" lon="12.713055546708754"><ele>501.0</ele><time>2026-04-19T10:46:34.003Z</time></trkpt><trkpt lat="42.708319801560165" lon="12.71298777294814"><ele>501.0</ele><time>2026-04-19T10:46:35.003Z</time></trkpt><trkpt lat="42.708280624966875" lon="12.712913818907705"><ele>501.0</ele><time>2026-04-19T10:46:36.003Z</time></trkpt><trkpt lat="42.70823954582806" lon="12.712846894621126"><ele>501.0</ele><time>2026-04-19T10:46:37.003Z</time></trkpt><trkpt lat="42.708197626480086" lon="12.712755263072323"><ele>501.0</ele><time>2026-04-19T10:46:38.003Z</time></trkpt><trkpt lat="42.70815834845473" lon="12.712679085152704"><ele>501.0</ele><time>2026-04-19T10:46:39.003Z</time></trkpt><trkpt lat="42.708072503749236" lon="12.712574182952308"><ele>501.0</ele><time>2026-04-19T10:46:41.003Z</time></trkpt><trkpt lat="42.70800775540207" lon="12.712478044096327"><ele>501.0</ele><time>2026-04-19T10:46:42.003Z</time></trkpt><trkpt lat="42.70797008680156" lon="12.712372437779509"><ele>501.0</ele><time>2026-04-19T10:46:43.003Z</time></trkpt><trkpt lat="42.70793310602628" lon="12.712260726436115"><ele>506.0</ele><time>2026-04-19T10:46:45.003Z</time></trkpt><trkpt lat="42.70786257924416" lon="12.712172574165121"><ele>511.0</ele><time>2026-04-19T10:46:47.999Z</time></trkpt><trkpt lat="42.707878215653764" lon="12.712066406924627"><ele>516.0</ele><time>2026-04-19T10:46:52Z</time></trkpt><trkpt lat="42.70787503167776" lon="12.71195217307063"><ele>521.0</ele><time>2026-04-19T10:46:55Z</time></trkpt><trkpt lat="42.70786027552494" lon="12.71186284675491"><ele>526.0</ele><time>2026-04-19T10:46:56Z</time></trkpt><trkpt lat="42.707875492154166" lon="12.711737767971046"><ele>531.0</ele><time>2026-04-19T10:46:58Z</time></trkpt><trkpt lat="42.70784475470597" lon="12.711621942615459"><ele>535.6666666666666</ele><time>2026-04-19T10:46:59Z</time></trkpt><trkpt lat="42.707831648645694" lon="12.711533355108964"><ele>540.3333333333334</ele><time>2026-04-19T10:47:00Z</time></trkpt><trkpt lat="42.70784156927431" lon="12.711439700246684"><ele>545.0</ele><time>2026-04-19T10:47:01Z</time></trkpt><trkpt lat="42.70784197186226" lon="12.711262183042331"><ele>549.6666666666667</ele><time>2026-04-19T10:47:03Z</time></trkpt><trkpt lat="42.70783474034283" lon="12.711175830159997"><ele>554.3333333333334</ele><time>2026-04-19T10:47:04Z</time></trkpt><trkpt lat="42.70781113564709" lon="12.711063487335233"><ele>559.0</ele><time>2026-04-19T10:47:06Z</time></trkpt><trkpt lat="42.707835643293414" lon="12.710945793877528"><ele>561.1666666666667</ele><time>2026-04-19T10:47:08Z</time></trkpt><trkpt lat="42.70787225842786" lon="12.710825227284731"><ele>563.3333333333334</ele><time>2026-04-19T10:47:11Z</time></trkpt><trkpt lat="42.707897592511564" lon="12.710720761130752"><ele>565.5</ele><time>2026-04-19T10:47:16Z</time></trkpt><trkpt lat="42.707922743881845" lon="12.710629576322882"><ele>567.6666666666666</ele><time>2026-04-19T10:47:18Z</time></trkpt><trkpt lat="42.70788861617496" lon="12.710549588200646"><ele>569.8333333333333</ele><time>2026-04-19T10:47:19Z</time></trkpt><trkpt lat="42.707881651772844" lon="12.710404620633522"><ele>572.0</ele><time>2026-04-19T10:47:21.001Z</time></trkpt><trkpt lat="42.70787007693017" lon="12.7102483744435"><ele>573.4285714285713</ele><time>2026-04-19T10:47:23.001Z</time></trkpt><trkpt lat="42.70785916011462" lon="12.710156561311338"><ele>574.8571428571429</ele><time>2026-04-19T10:47:24.001Z</time></trkpt><trkpt lat="42.70785820155603" lon="12.710070303428918"><ele>576.2857142857142</ele><time>2026-04-19T10:47:25.001Z</time></trkpt><trkpt lat="42.70789016612493" lon="12.709965137087359"><ele>577.7142857142857</ele><time>2026-04-19T10:47:26.001Z</time></trkpt><trkpt lat="42.70790541965298" lon="12.709863328972657"><ele>579.1428571428571</ele><time>2026-04-19T10:47:27.001Z</time></trkpt><trkpt lat="42.707920697981336" lon="12.709755809557024"><ele>580.5714285714286</ele><time>2026-04-19T10:47:28.001Z</time></trkpt><trkpt lat="42.707921342638635" lon="12.709668674759646"><ele>582.0</ele><time>2026-04-19T10:47:29.001Z</time></trkpt><trkpt lat="42.707929315006076" lon="12.709520428381737"><ele>582.0</ele><time>2026-04-19T10:47:31.001Z</time></trkpt><trkpt lat="42.70792492611843" lon="12.709414586522376"><ele>582.0</ele><time>2026-04-19T10:47:33.001Z</time></trkpt><trkpt lat="42.707899738012465" lon="12.709279882586413"><ele>582.0</ele><time>2026-04-19T10:47:35.001Z</time></trkpt><trkpt lat="42.70786984008083" lon="12.709161434795625"><ele>582.0</ele><time>2026-04-19T10:47:36.001Z</time></trkpt><trkpt lat="42.70784464050488" lon="12.709058841813793"><ele>582.0</ele><time>2026-04-19T10:47:37.001Z</time></trkpt><trkpt lat="42.707831324171885" lon="12.708965530862253"><ele>582.0</ele><time>2026-04-19T10:47:38.001Z</time></trkpt><trkpt lat="42.70779934068848" lon="12.708826253629645"><ele>581.1428571428571</ele><time>2026-04-19T10:47:40.001Z</time></trkpt><trkpt lat="42.707777590056224" lon="12.708713547945637"><ele>580.2857142857142</ele><time>2026-04-19T10:47:41.001Z</time></trkpt><trkpt lat="42.70775422726191" lon="12.708618861971733"><ele>579.4285714285714</ele><time>2026-04-19T10:47:42.001Z</time></trkpt><trkpt lat="42.7077324429977" lon="12.708529548486732"><ele>578.5714285714286</ele><time>2026-04-19T10:47:43.001Z</time></trkpt><trkpt lat="42.707732069960954" lon="12.708432022527788"><ele>577.7142857142858</ele><time>2026-04-19T10:47:44.001Z</time></trkpt><trkpt lat="42.70772410126062" lon="12.708339476751485"><ele>576.8571428571429</ele><time>2026-04-19T10:47:45.001Z</time></trkpt><trkpt lat="42.70773888178757" lon="12.708249806584417"><ele>576.0</ele><time>2026-04-19T10:47:46.001Z</time></trkpt><trkpt lat="42.70773732039788" lon="12.70814422151965"><ele>579.4</ele><time>2026-04-19T10:47:48.001Z</time></trkpt><trkpt lat="42.70774732094939" lon="12.707998341212267"><ele>582.8</ele><time>2026-04-19T10:47:50.001Z</time></trkpt><trkpt lat="42.70774630411154" lon="12.707842111278866"><ele>586.1999999999999</ele><time>2026-04-19T10:47:52.002Z</time></trkpt><trkpt lat="42.70775159482709" lon="12.707746455464205"><ele>589.6</ele><time>2026-04-19T10:47:53.002Z</time></trkpt><trkpt lat="42.707763031445765" lon="12.707603363899498"><ele>593.0</ele><time>2026-04-19T10:47:54.002Z</time></trkpt><trkpt lat="42.707775424713674" lon="12.707493025579293"><ele>593.0</ele><time>2026-04-19T10:47:55.002Z</time></trkpt><trkpt lat="42.70780287820537" lon="12.707413009923746"><ele>593.0</ele><time>2026-04-19T10:47:56.002Z</time></trkpt><trkpt lat="42.70782312288387" lon="12.707266156511324"><ele>593.0</ele><time>2026-04-19T10:47:58.002Z</time></trkpt><trkpt lat="42.70781252603542" lon="12.70708260572796"><ele>593.0</ele><time>2026-04-19T10:48:00.002Z</time></trkpt><trkpt lat="42.70779846452549" lon="12.706961648635378"><ele>593.0</ele><time>2026-04-19T10:48:02.002Z</time></trkpt><trkpt lat="42.70781710547118" lon="12.706842383319302"><ele>594.1666666666666</ele><time>2026-04-19T10:48:04.002Z</time></trkpt><trkpt lat="42.70777920752615" lon="12.706717029965287"><ele>595.3333333333333</ele><time>2026-04-19T10:48:07.002Z</time></trkpt><trkpt lat="42.707756889665575" lon="12.706619054731018"><ele>596.5</ele><time>2026-04-19T10:48:09.002Z</time></trkpt><trkpt lat="42.70775458610854" lon="12.706523944451204"><ele>597.6666666666666</ele><time>2026-04-19T10:48:10.002Z</time></trkpt><trkpt lat="42.70769848544546" lon="12.70638115936983"><ele>598.8333333333334</ele><time>2026-04-19T10:48:12.002Z</time></trkpt><trkpt lat="42.70766825460492" lon="12.706274486001446"><ele>600.0</ele><time>2026-04-19T10:48:14.002Z</time></trkpt><trkpt lat="42.707666786421655" lon="12.70618703104584"><ele>600.5</ele><time>2026-04-19T10:48:17.002Z</time></trkpt><trkpt lat="42.70764787653807" lon="12.706072350248451"><ele>601.0</ele><time>2026-04-19T10:48:19.002Z</time></trkpt><trkpt lat="42.70760991759031" lon="12.705966242172407"><ele>601.5</ele><time>2026-04-19T10:48:20.002Z</time></trkpt><trkpt lat="42.70758304687706" lon="12.705883357715297"><ele>602.0</ele><time>2026-04-19T10:48:21.002Z</time></trkpt><trkpt lat="42.70754920450496" lon="12.705790351428409"><ele>602.5</ele><time>2026-04-19T10:48:23.002Z</time></trkpt><trkpt lat="42.70750992913536" lon="12.705678106135977"><ele>603.0</ele><time>2026-04-19T10:48:25.003Z</time></trkpt><trkpt lat="42.70751136821224" lon="12.705568052298498"><ele>603.0</ele><time>2026-04-19T10:48:27.003Z</time></trkpt><trkpt lat="42.70749873000942" lon="12.705443002347272"><ele>603.0</ele><time>2026-04-19T10:48:29.003Z</time></trkpt><trkpt lat="42.707474767097146" lon="12.705299179057645"><ele>603.0</ele><time>2026-04-19T10:48:31.003Z</time></trkpt><trkpt lat="42.70749473272594" lon="12.705175510360181"><ele>603.0</ele><time>2026-04-19T10:48:33.003Z</time></trkpt><trkpt lat="42.70746505060707" lon="12.70508769747569"><ele>603.0</ele><time>2026-04-19T10:48:35.003Z</time></trkpt><trkpt lat="42.70744064726017" lon="12.70500837102966"><ele>603.0</ele><time>2026-04-19T10:48:37.003Z</time></trkpt><trkpt lat="42.70740300364307" lon="12.704891311937368"><ele>603.8</ele><time>2026-04-19T10:48:40.003Z</time></trkpt><trkpt lat="42.70738704008331" lon="12.704763134631278"><ele>604.5999999999999</ele><time>2026-04-19T10:48:42.003Z</time></trkpt><trkpt lat="42.70742435132215" lon="12.70464000820915"><ele>605.4000000000001</ele><time>2026-04-19T10:48:45.003Z</time></trkpt><trkpt lat="42.70743028769347" lon="12.70449458110698"><ele>606.2</ele><time>2026-04-19T10:48:48.003Z</time></trkpt><trkpt lat="42.70740473186733" lon="12.704364898018946"><ele>607.0</ele><time>2026-04-19T10:48:50.003Z</time></trkpt><trkpt lat="42.7074359721428" lon="12.70427109553237"><ele>608.6666666666667</ele><time>2026-04-19T10:48:51.003Z</time></trkpt><trkpt lat="42.70736779150993" lon="12.704184064280106"><ele>610.3333333333334</ele><time>2026-04-19T10:48:53.003Z</time></trkpt><trkpt lat="42.707285671331675" lon="12.704083112853203"><ele>612.0</ele><time>2026-04-19T10:48:54.999Z</time></trkpt><trkpt lat="42.70727887200928" lon="12.703995677991326"><ele>613.6666666666666</ele><time>2026-04-19T10:48:55.999Z</time></trkpt><trkpt lat="42.70724902889109" lon="12.70389859490841"><ele>615.3333333333333</ele><time>2026-04-19T10:48:57.999Z</time></trkpt><trkpt lat="42.70722131880027" lon="12.703809061878868"><ele>617.0</ele><time>2026-04-19T10:48:59.999Z</time></trkpt><trkpt lat="42.70714866691154" lon="12.703655362621305"><ele>619.3333333333333</ele><time>2026-04-19T10:49:02Z</time></trkpt><trkpt lat="42.70710548278595" lon="12.703519310137574"><ele>621.6666666666666</ele><time>2026-04-19T10:49:04Z</time></trkpt><trkpt lat="42.70703900024332" lon="12.703450530543853"><ele>624.0</ele><time>2026-04-19T10:49:05Z</time></trkpt><trkpt lat="42.70698330052325" lon="12.70332606574213"><ele>626.3333333333334</ele><time>2026-04-19T10:49:07Z</time></trkpt><trkpt lat="42.70696625592876" lon="12.703240683257826"><ele>628.6666666666667</ele><time>2026-04-19T10:49:09Z</time></trkpt><trkpt lat="42.70696010384295" lon="12.703125779571039"><ele>631.0</ele><time>2026-04-19T10:49:12Z</time></trkpt><trkpt lat="42.706899518128765" lon="12.702965689473249"><ele>631.6</ele><time>2026-04-19T10:49:14Z</time></trkpt><trkpt lat="42.70687355090138" lon="12.70285169867041"><ele>632.2</ele><time>2026-04-19T10:49:16Z</time></trkpt><trkpt lat="42.70685419757324" lon="12.702742736517077"><ele>632.8</ele><time>2026-04-19T10:49:18Z</time></trkpt><trkpt lat="42.706858319518396" lon="12.702598014452429"><ele>633.4</ele><time>2026-04-19T10:49:20Z</time></trkpt><trkpt lat="42.70677985124834" lon="12.702483612872879"><ele>634.0</ele><time>2026-04-19T10:49:22Z</time></trkpt><trkpt lat="42.70673537639457" lon="12.70241722567118"><ele>634.4</ele><time>2026-04-19T10:49:23Z</time></trkpt><trkpt lat="42.706654569035614" lon="12.702364909974515"><ele>634.8</ele><time>2026-04-19T10:49:24Z</time></trkpt><trkpt lat="42.70659344676381" lon="12.702305740717437"><ele>635.2</ele><time>2026-04-19T10:49:25Z</time></trkpt><trkpt lat="42.70657949168918" lon="12.702188384744886"><ele>635.6</ele><time>2026-04-19T10:49:27Z</time></trkpt><trkpt lat="42.706638044719064" lon="12.702140924545036"><ele>636.0</ele><time>2026-04-19T10:49:28.001Z</time></trkpt><trkpt lat="42.70678634252623" lon="12.702085951455649"><ele>636.0</ele><time>2026-04-19T10:49:30.001Z</time></trkpt><trkpt lat="42.70688220498626" lon="12.702074365371134"><ele>636.0</ele><time>2026-04-19T10:49:31.001Z</time></trkpt><trkpt lat="42.706964956066436" lon="12.702021385210505"><ele>636.0</ele><time>2026-04-19T10:49:32.001Z</time></trkpt><trkpt lat="42.7070435075498" lon="12.70197272594347"><ele>636.0</ele><time>2026-04-19T10:49:33.001Z</time></trkpt><trkpt lat="42.70710469723056" lon="12.701937666309814"><ele>636.0</ele><time>2026-04-19T10:49:34.001Z</time></trkpt><trkpt lat="42.7072049245094" lon="12.701881776623113"><ele>636.0</ele><time>2026-04-19T10:49:36.001Z</time></trkpt><trkpt lat="42.707184397906325" lon="12.701784122515544"><ele>637.6</ele><time>2026-04-19T10:49:38.001Z</time></trkpt><trkpt lat="42.70710340381546" lon="12.701692960137738"><ele>639.2</ele><time>2026-04-19T10:49:43.001Z</time></trkpt><trkpt lat="42.70704504320308" lon="12.701562095818113"><ele>640.8000000000001</ele><time>2026-04-19T10:49:45.001Z</time></trkpt><trkpt lat="42.70695184698229" lon="12.701497840550012"><ele>642.4000000000001</ele><time>2026-04-19T10:49:47.001Z</time></trkpt><trkpt lat="42.70684063310745" lon="12.701508364686589"><ele>644.0</ele><time>2026-04-19T10:49:49.001Z</time></trkpt><trkpt lat="42.70677847264836" lon="12.701468197073932"><ele>645.0</ele><time>2026-04-19T10:49:51.001Z</time></trkpt><trkpt lat="42.70668909870095" lon="12.701457950324134"><ele>646.0</ele><time>2026-04-19T10:49:53.001Z</time></trkpt><trkpt lat="42.706630806116344" lon="12.701424581121827"><ele>647.0</ele><time>2026-04-19T10:49:55.001Z</time></trkpt><trkpt lat="42.706522949534765" lon="12.701386545202274"><ele>648.0</ele><time>2026-04-19T10:49:57.001Z</time></trkpt><trkpt lat="42.70643084054072" lon="12.70134673020496"><ele>649.0</ele><time>2026-04-19T10:49:59.002Z</time></trkpt><trkpt lat="42.706315664493374" lon="12.701268500423433"><ele>649.0</ele><time>2026-04-19T10:50:01.002Z</time></trkpt><trkpt lat="42.70620069979451" lon="12.701245842401375"><ele>649.0</ele><time>2026-04-19T10:50:03.002Z</time></trkpt><trkpt lat="42.70612764212642" lon="12.701223085791083"><ele>649.0</ele><time>2026-04-19T10:50:05.002Z</time></trkpt><trkpt lat="42.70604206179866" lon="12.701133822022442"><ele>649.0</ele><time>2026-04-19T10:50:07.002Z</time></trkpt><trkpt lat="42.70596704484763" lon="12.701124152901928"><ele>649.0</ele><time>2026-04-19T10:50:09.002Z</time></trkpt><trkpt lat="42.705899693033544" lon="12.701114055555061"><ele>649.0</ele><time>2026-04-19T10:50:10.002Z</time></trkpt><trkpt lat="42.70579288933733" lon="12.701069327446223"><ele>656.4000000000001</ele><time>2026-04-19T10:50:11.002Z</time></trkpt><trkpt lat="42.70570305094913" lon="12.700995382156755"><ele>663.8</ele><time>2026-04-19T10:50:12.002Z</time></trkpt><trkpt lat="42.70563793890141" lon="12.700969627762415"><ele>671.2</ele><time>2026-04-19T10:50:13.002Z</time></trkpt><trkpt lat="42.70555703332347" lon="12.70090336006373"><ele>678.5999999999999</ele><time>2026-04-19T10:50:15.002Z</time></trkpt><trkpt lat="42.7054864574417" lon="12.700887232037884"><ele>686.0</ele><time>2026-04-19T10:50:16.002Z</time></trkpt><trkpt lat="42.705372935552546" lon="12.700915747053338"><ele>686.0</ele><time>2026-04-19T10:50:18.002Z</time></trkpt><trkpt lat="42.70527625980766" lon="12.700922639226546"><ele>686.0</ele><time>2026-04-19T10:50:21.002Z</time></trkpt><trkpt lat="42.70519801597885" lon="12.700885700827465"><ele>686.0</ele><time>2026-04-19T10:50:24.002Z</time></trkpt><trkpt lat="42.70512826045119" lon="12.700872360070807"><ele>686.0</ele><time>2026-04-19T10:50:26.002Z</time></trkpt><trkpt lat="42.705061234319814" lon="12.70081578925414"><ele>686.0</ele><time>2026-04-19T10:50:29.002Z</time></trkpt><trkpt lat="42.7050350165908" lon="12.700666995193595"><ele>686.0</ele><time>2026-04-19T10:50:33.003Z</time></trkpt><trkpt lat="42.70501116941116" lon="12.700577286268803"><ele>688.3333333333333</ele><time>2026-04-19T10:50:34.003Z</time></trkpt><trkpt lat="42.70492982449059" lon="12.700571299983233"><ele>690.6666666666666</ele><time>2026-04-19T10:50:36.003Z</time></trkpt><trkpt lat="42.70486371100833" lon="12.700563642378448"><ele>693.0</ele><time>2026-04-19T10:50:39.003Z</time></trkpt><trkpt lat="42.70475510658072" lon="12.700541498619236"><ele>695.3333333333334</ele><time>2026-04-19T10:50:43.003Z</time></trkpt><trkpt lat="42.7046775300684" lon="12.700579885635669"><ele>697.6666666666667</ele><time>2026-04-19T10:51:01Z</time></trkpt><trkpt lat="42.70459539114667" lon="12.700491951702281"><ele>700.0</ele><time>2026-04-19T10:51:04Z</time></trkpt><trkpt lat="42.704469396118625" lon="12.70042060556427"><ele>700.0</ele><time>2026-04-19T10:51:06Z</time></trkpt><trkpt lat="42.7044165472488" lon="12.700371539798315"><ele>700.0</ele><time>2026-04-19T10:51:07Z</time></trkpt><trkpt lat="42.70436632171022" lon="12.700293528083025"><ele>700.0</ele><time>2026-04-19T10:51:09Z</time></trkpt><trkpt lat="42.704368517369154" lon="12.700167788867098"><ele>700.0</ele><time>2026-04-19T10:51:11Z</time></trkpt><trkpt lat="42.70441030220024" lon="12.700079521350167"><ele>700.0</ele><time>2026-04-19T10:51:12Z</time></trkpt><trkpt lat="42.704508578941294" lon="12.700001711241262"><ele>700.0</ele><time>2026-04-19T10:51:14Z</time></trkpt><trkpt lat="42.704611468434244" lon="12.69989485850709"><ele>703.5</ele><time>2026-04-19T10:51:16Z</time></trkpt><trkpt lat="42.704634207196946" lon="12.699787579112403"><ele>707.0</ele><time>2026-04-19T10:51:18Z</time></trkpt><trkpt lat="42.70465051051015" lon="12.699649285424458"><ele>710.5</ele><time>2026-04-19T10:51:20Z</time></trkpt><trkpt lat="42.70460125825285" lon="12.699448328436477"><ele>714.0</ele><time>2026-04-19T10:51:22Z</time></trkpt><trkpt lat="42.70458234836511" lon="12.69926922087911"><ele>715.8333333333334</ele><time>2026-04-19T10:51:24Z</time></trkpt><trkpt lat="42.70458146118544" lon="12.699154646822265"><ele>717.6666666666666</ele><time>2026-04-19T10:51:25Z</time></trkpt><trkpt lat="42.704570213162484" lon="12.699070065998319"><ele>719.5</ele><time>2026-04-19T10:51:26Z</time></trkpt><trkpt lat="42.70458476005672" lon="12.698940255440027"><ele>721.3333333333333</ele><time>2026-04-19T10:51:28Z</time></trkpt><trkpt lat="42.704600154204094" lon="12.69883108417991"><ele>723.1666666666666</ele><time>2026-04-19T10:51:29Z</time></trkpt><trkpt lat="42.70459693610961" lon="12.698712672722502"><ele>725.0</ele><time>2026-04-19T10:51:30Z</time></trkpt><trkpt lat="42.70459968101741" lon="12.69856518392872"><ele>725.6666666666666</ele><time>2026-04-19T10:51:32.001Z</time></trkpt><trkpt lat="42.7046378759473" lon="12.698467220070397"><ele>726.3333333333333</ele><time>2026-04-19T10:51:34.001Z</time></trkpt><trkpt lat="42.70463301344344" lon="12.698320804174116"><ele>727.0</ele><time>2026-04-19T10:51:36.001Z</time></trkpt><trkpt lat="42.704604593397875" lon="12.69823606704787"><ele>727.6666666666666</ele><time>2026-04-19T10:51:37.001Z</time></trkpt><trkpt lat="42.70458859558943" lon="12.698153058911814"><ele>728.3333333333334</ele><time>2026-04-19T10:51:38.001Z</time></trkpt><trkpt lat="42.70455974023174" lon="12.698033525253722"><ele>729.0</ele><time>2026-04-19T10:51:39.001Z</time></trkpt><trkpt lat="42.70453388207644" lon="12.697912527493616"><ele>729.0</ele><time>2026-04-19T10:51:40.001Z</time></trkpt><trkpt lat="42.704484863601444" lon="12.6978045412648"><ele>729.0</ele><time>2026-04-19T10:51:41.001Z</time></trkpt><trkpt lat="42.704459177623285" lon="12.697693229030861"><ele>729.0</ele><time>2026-04-19T10:51:42.001Z</time></trkpt><trkpt lat="42.70443612836529" lon="12.697599750812207"><ele>729.0</ele><time>2026-04-19T10:51:43.001Z</time></trkpt><trkpt lat="42.70443053946234" lon="12.69750833467148"><ele>729.0</ele><time>2026-04-19T10:51:44.001Z</time></trkpt><trkpt lat="42.704376556506375" lon="12.69742377555603"><ele>729.0</ele><time>2026-04-19T10:51:46.001Z</time></trkpt><trkpt lat="42.70426527558509" lon="12.697375895420215"><ele>727.5</ele><time>2026-04-19T10:51:55.001Z</time></trkpt><trkpt lat="42.70415965447142" lon="12.697352601101622"><ele>726.0</ele><time>2026-04-19T10:51:57.001Z</time></trkpt><trkpt lat="42.70404149417694" lon="12.69734471916883"><ele>724.5</ele><time>2026-04-19T10:51:59.001Z</time></trkpt><trkpt lat="42.703972288154205" lon="12.697337504515259"><ele>723.0</ele><time>2026-04-19T10:52:00.001Z</time></trkpt><trkpt lat="42.70390679782101" lon="12.697336838283183"><ele>721.5</ele><time>2026-04-19T10:52:01.001Z</time></trkpt><trkpt lat="42.70382777696465" lon="12.697335657719936"><ele>720.0</ele><time>2026-04-19T10:52:03.002Z</time></trkpt><trkpt lat="42.70372083994033" lon="12.697267078024801"><ele>720.0</ele><time>2026-04-19T10:52:05.002Z</time></trkpt><trkpt lat="42.70361658569312" lon="12.697167257716108"><ele>720.0</ele><time>2026-04-19T10:52:07.002Z</time></trkpt><trkpt lat="42.70354973752114" lon="12.697128075926821"><ele>720.0</ele><time>2026-04-19T10:52:08.002Z</time></trkpt><trkpt lat="42.70348464551433" lon="12.697071569418044"><ele>720.0</ele><time>2026-04-19T10:52:09.002Z</time></trkpt><trkpt lat="42.7034395100337" lon="12.697000543243401"><ele>720.0</ele><time>2026-04-19T10:52:10.002Z</time></trkpt><trkpt lat="42.70338574949089" lon="12.696939821543847"><ele>720.0</ele><time>2026-04-19T10:52:11.002Z</time></trkpt><trkpt lat="42.703298749776344" lon="12.69680861970408"><ele>718.6666666666666</ele><time>2026-04-19T10:52:13.002Z</time></trkpt><trkpt lat="42.703279366470795" lon="12.696718963690438"><ele>717.3333333333334</ele><time>2026-04-19T10:52:14.002Z</time></trkpt><trkpt lat="42.70324541684589" lon="12.696602694778715"><ele>716.0</ele><time>2026-04-19T10:52:15.002Z</time></trkpt><trkpt lat="42.703220916952226" lon="12.696520980548136"><ele>714.6666666666667</ele><time>2026-04-19T10:52:16.002Z</time></trkpt><trkpt lat="42.70320394218025" lon="12.696432499242226"><ele>713.3333333333334</ele><time>2026-04-19T10:52:17.002Z</time></trkpt><trkpt lat="42.70319648785878" lon="12.696261152662649"><ele>712.0</ele><time>2026-04-19T10:52:19.002Z</time></trkpt><trkpt lat="42.70320779357857" lon="12.696166103616044"><ele>711.3333333333334</ele><time>2026-04-19T10:52:20.002Z</time></trkpt><trkpt lat="42.70323446939596" lon="12.69607149421719"><ele>710.6666666666667</ele><time>2026-04-19T10:52:21.002Z</time></trkpt><trkpt lat="42.70324247698125" lon="12.695982586766869"><ele>710.0</ele><time>2026-04-19T10:52:22.002Z</time></trkpt><trkpt lat="42.703259894025855" lon="12.695886807844524"><ele>709.3333333333334</ele><time>2026-04-19T10:52:23.002Z</time></trkpt><trkpt lat="42.70327511217963" lon="12.695793216913733"><ele>708.6666666666666</ele><time>2026-04-19T10:52:24.002Z</time></trkpt><trkpt lat="42.703242765023084" lon="12.695602924057212"><ele>708.0</ele><time>2026-04-19T10:52:26.002Z</time></trkpt><trkpt lat="42.70324841107204" lon="12.69550117390336"><ele>708.0</ele><time>2026-04-19T10:52:27.002Z</time></trkpt><trkpt lat="42.70326703390399" lon="12.695362275884776"><ele>708.0</ele><time>2026-04-19T10:52:29.002Z</time></trkpt><trkpt lat="42.70328309461746" lon="12.695260097058163"><ele>708.0</ele><time>2026-04-19T10:52:30.002Z</time></trkpt><trkpt lat="42.70330749715989" lon="12.695167028708978"><ele>708.0</ele><time>2026-04-19T10:52:31.002Z</time></trkpt><trkpt lat="42.70330479738025" lon="12.69505682942662"><ele>708.0</ele><time>2026-04-19T10:52:32.002Z</time></trkpt><trkpt lat="42.70331171164891" lon="12.694950235139313"><ele>708.0</ele><time>2026-04-19T10:52:33.002Z</time></trkpt><trkpt lat="42.70330456086279" lon="12.694778211855393"><ele>707.2</ele><time>2026-04-19T10:52:35.002Z</time></trkpt><trkpt lat="42.70336581625684" lon="12.6946565249404"><ele>706.4</ele><time>2026-04-19T10:52:36.003Z</time></trkpt><trkpt lat="42.70341694537409" lon="12.694555589739785"><ele>705.6</ele><time>2026-04-19T10:52:37.003Z</time></trkpt><trkpt lat="42.7034922319676" lon="12.694437125208346"><ele>704.8000000000001</ele><time>2026-04-19T10:52:38.003Z</time></trkpt><trkpt lat="42.70356692028769" lon="12.694302058344864"><ele>704.0</ele><time>2026-04-19T10:52:39.003Z</time></trkpt><trkpt lat="42.703662078939125" lon="12.694150106400427"><ele>704.0</ele><time>2026-04-19T10:52:40.003Z</time></trkpt><trkpt lat="42.703753357701316" lon="12.694014941765682"><ele>704.0</ele><time>2026-04-19T10:52:41.003Z</time></trkpt><trkpt lat="42.70384562086955" lon="12.693879251274273"><ele>704.0</ele><time>2026-04-19T10:52:42.003Z</time></trkpt><trkpt lat="42.7039230920591" lon="12.693770235048799"><ele>704.0</ele><time>2026-04-19T10:52:43.003Z</time></trkpt><trkpt lat="42.704026341190065" lon="12.693556356487862"><ele>704.6</ele><time>2026-04-19T10:52:45.003Z</time></trkpt><trkpt lat="42.70404044572205" lon="12.693392027812465"><ele>705.2</ele><time>2026-04-19T10:52:47.003Z</time></trkpt><trkpt lat="42.704025167366815" lon="12.693285868008871"><ele>705.8000000000001</ele><time>2026-04-19T10:52:48.003Z</time></trkpt><trkpt lat="42.70401558477703" lon="12.693189982024311"><ele>706.4000000000001</ele><time>2026-04-19T10:52:49.003Z</time></trkpt><trkpt lat="42.70401950093211" lon="12.693072057626583"><ele>707.0</ele><time>2026-04-19T10:52:50.003Z</time></trkpt><trkpt lat="42.704019513917714" lon="12.69290652289581"><ele>706.75</ele><time>2026-04-19T10:52:51.003Z</time></trkpt><trkpt lat="42.704039480787536" lon="12.692734204280747"><ele>706.5</ele><time>2026-04-19T10:52:52.003Z</time></trkpt><trkpt lat="42.70407907982538" lon="12.692556505625879"><ele>706.25</ele><time>2026-04-19T10:52:53.003Z</time></trkpt><trkpt lat="42.70411315438036" lon="12.692380455213142"><ele>706.0</ele><time>2026-04-19T10:52:54.003Z</time></trkpt><trkpt lat="42.70414360174604" lon="12.6922288957511"><ele>706.0</ele><time>2026-04-19T10:52:55.003Z</time></trkpt><trkpt lat="42.70417993734708" lon="12.69209676050552"><ele>706.0</ele><time>2026-04-19T10:52:56.003Z</time></trkpt><trkpt lat="42.704215196646324" lon="12.692004175044369"><ele>706.0</ele><time>2026-04-19T10:52:57.003Z</time></trkpt><trkpt lat="42.704247993963435" lon="12.691884263383402"><ele>706.0</ele><time>2026-04-19T10:52:58.003Z</time></trkpt><trkpt lat="42.704262857098755" lon="12.691780343481717"><ele>706.0</ele><time>2026-04-19T10:52:59.003Z</time></trkpt><trkpt lat="42.704262232232054" lon="12.691667142344366"><ele>706.0</ele><time>2026-04-19T10:53:00.003Z</time></trkpt><trkpt lat="42.7042781581032" lon="12.691547280082027"><ele>705.4</ele><time>2026-04-19T10:53:01.003Z</time></trkpt><trkpt lat="42.70430469210627" lon="12.691431629420112"><ele>704.8</ele><time>2026-04-19T10:53:02.003Z</time></trkpt><trkpt lat="42.70434669221131" lon="12.691312286126461"><ele>704.1999999999999</ele><time>2026-04-19T10:53:03.003Z</time></trkpt><trkpt lat="42.70437448816631" lon="12.691198241393762"><ele>703.5999999999999</ele><time>2026-04-19T10:53:04.003Z</time></trkpt><trkpt lat="42.704428977416605" lon="12.691067213523038"><ele>703.0</ele><time>2026-04-19T10:53:05.003Z</time></trkpt><trkpt lat="42.704477198968604" lon="12.690953066677384"><ele>707.0</ele><time>2026-04-19T10:53:06Z</time></trkpt><trkpt lat="42.70454163683833" lon="12.690845368843062"><ele>711.0</ele><time>2026-04-19T10:53:07Z</time></trkpt><trkpt lat="42.70459408174975" lon="12.690750187583259"><ele>715.0</ele><time>2026-04-19T10:53:08Z</time></trkpt><trkpt lat="42.70465515630193" lon="12.690674929934422"><ele>719.0</ele><time>2026-04-19T10:53:09Z</time></trkpt><trkpt lat="42.70470016125285" lon="12.690558656056197"><ele>723.0</ele><time>2026-04-19T10:53:10Z</time></trkpt><trkpt lat="42.70473304098539" lon="12.690432992770113"><ele>723.0</ele><time>2026-04-19T10:53:11Z</time></trkpt><trkpt lat="42.70476631868981" lon="12.690331522056281"><ele>723.0</ele><time>2026-04-19T10:53:12Z</time></trkpt><trkpt lat="42.70480063849743" lon="12.6902286685538"><ele>723.0</ele><time>2026-04-19T10:53:13Z</time></trkpt><trkpt lat="42.70483357478556" lon="12.690116704042275"><ele>723.0</ele><time>2026-04-19T10:53:14Z</time></trkpt><trkpt lat="42.70486351203915" lon="12.68999139476758"><ele>723.0</ele><time>2026-04-19T10:53:15Z</time></trkpt><trkpt lat="42.7049198140666" lon="12.689887175806053"><ele>723.0</ele><time>2026-04-19T10:53:16Z</time></trkpt><trkpt lat="42.70494727718456" lon="12.689732534516393"><ele>721.0</ele><time>2026-04-19T10:53:17Z</time></trkpt><trkpt lat="42.70498928820829" lon="12.689590895300103"><ele>719.0</ele><time>2026-04-19T10:53:18Z</time></trkpt><trkpt lat="42.705011779309885" lon="12.689399959167655"><ele>717.0</ele><time>2026-04-19T10:53:19Z</time></trkpt><trkpt lat="42.70502981227935" lon="12.689227249653467"><ele>715.0</ele><time>2026-04-19T10:53:20Z</time></trkpt><trkpt lat="42.705066965058776" lon="12.689086935786765"><ele>712.8</ele><time>2026-04-19T10:53:21Z</time></trkpt><trkpt lat="42.70509478447757" lon="12.688951937315428"><ele>710.6</ele><time>2026-04-19T10:53:22Z</time></trkpt><trkpt lat="42.70512040919385" lon="12.68881798830233"><ele>708.4000000000001</ele><time>2026-04-19T10:53:23Z</time></trkpt><trkpt lat="42.70514134200376" lon="12.68869891534692"><ele>706.2</ele><time>2026-04-19T10:53:24Z</time></trkpt><trkpt lat="42.70513988264758" lon="12.688569859657916"><ele>704.0</ele><time>2026-04-19T10:53:25Z</time></trkpt><trkpt lat="42.705180124344764" lon="12.688438777433792"><ele>706.6</ele><time>2026-04-19T10:53:26Z</time></trkpt><trkpt lat="42.705250653450754" lon="12.688302916611121"><ele>709.2</ele><time>2026-04-19T10:53:27Z</time></trkpt><trkpt lat="42.70531240047924" lon="12.688192817682474"><ele>711.8000000000001</ele><time>2026-04-19T10:53:28Z</time></trkpt><trkpt lat="42.705375758771815" lon="12.688089336116109"><ele>714.4000000000001</ele><time>2026-04-19T10:53:29Z</time></trkpt><trkpt lat="42.705435875140516" lon="12.688004434374903"><ele>717.0</ele><time>2026-04-19T10:53:30Z</time></trkpt><trkpt lat="42.70550317666856" lon="12.68792565788716"><ele>717.0</ele><time>2026-04-19T10:53:31Z</time></trkpt><trkpt lat="42.70557222574704" lon="12.687857802550399"><ele>717.0</ele><time>2026-04-19T10:53:32.001Z</time></trkpt><trkpt lat="42.705655167193086" lon="12.687793380422873"><ele>717.0</ele><time>2026-04-19T10:53:33.001Z</time></trkpt><trkpt lat="42.70576005757342" lon="12.687746586236587"><ele>717.0</ele><time>2026-04-19T10:53:34.001Z</time></trkpt><trkpt lat="42.705837515034744" lon="12.687709779852685"><ele>717.0</ele><time>2026-04-19T10:53:35.001Z</time></trkpt><trkpt lat="42.70590811886797" lon="12.68769787074535"><ele>717.0</ele><time>2026-04-19T10:53:36.001Z</time></trkpt><trkpt lat="42.705972169689566" lon="12.687691935727766"><ele>718.8</ele><time>2026-04-19T10:53:37.001Z</time></trkpt><trkpt lat="42.70607865813752" lon="12.687725542126532"><ele>720.6</ele><time>2026-04-19T10:53:39.001Z</time></trkpt><trkpt lat="42.70616026569465" lon="12.687675032207398"><ele>722.4</ele><time>2026-04-19T10:53:41.001Z</time></trkpt><trkpt lat="42.70613226536894" lon="12.687576106693035"><ele>724.1999999999999</ele><time>2026-04-19T10:53:43.001Z</time></trkpt><trkpt lat="42.7060719358351" lon="12.687434430722059"><ele>726.0</ele><time>2026-04-19T10:53:44.001Z</time></trkpt><trkpt lat="42.706055872578624" lon="12.687316712840156"><ele>719.6666666666666</ele><time>2026-04-19T10:53:45.001Z</time></trkpt><trkpt lat="42.705986216520486" lon="12.687140392301226"><ele>713.3333333333333</ele><time>2026-04-19T10:53:46.001Z</time></trkpt><trkpt lat="42.70588036439105" lon="12.686905116940338"><ele>707.0</ele><time>2026-04-19T10:53:47.001Z</time></trkpt><trkpt lat="42.705818985889586" lon="12.68676225628262"><ele>707.0</ele><time>2026-04-19T10:53:48.001Z</time></trkpt><trkpt lat="42.70575983898288" lon="12.686655838493882"><ele>707.0</ele><time>2026-04-19T10:53:49.001Z</time></trkpt><trkpt lat="42.705716323301026" lon="12.68654996534432"><ele>707.0</ele><time>2026-04-19T10:53:50.001Z</time></trkpt><trkpt lat="42.70568731809354" lon="12.68642581506013"><ele>707.0</ele><time>2026-04-19T10:53:51.001Z</time></trkpt><trkpt lat="42.70565405003797" lon="12.686295523337868"><ele>707.0</ele><time>2026-04-19T10:53:52.001Z</time></trkpt><trkpt lat="42.70563044744976" lon="12.686078372084033"><ele>708.3333333333333</ele><time>2026-04-19T10:53:54.001Z</time></trkpt><trkpt lat="42.7056343464745" lon="12.685946159446024"><ele>709.6666666666666</ele><time>2026-04-19T10:53:55.001Z</time></trkpt><trkpt lat="42.70564484550977" lon="12.68581341208977"><ele>711.0</ele><time>2026-04-19T10:53:56.001Z</time></trkpt><trkpt lat="42.70565051112777" lon="12.685686555604242"><ele>712.3333333333334</ele><time>2026-04-19T10:53:57.001Z</time></trkpt><trkpt lat="42.705638113391856" lon="12.685591034918438"><ele>713.6666666666667</ele><time>2026-04-19T10:53:58.001Z</time></trkpt><trkpt lat="42.70562408881195" lon="12.685486170816974"><ele>715.0</ele><time>2026-04-19T10:53:59.001Z</time></trkpt><trkpt lat="42.70565176078032" lon="12.685367737990676"><ele>714.2</ele><time>2026-04-19T10:54:00.001Z</time></trkpt><trkpt lat="42.705678254940786" lon="12.68522685185923"><ele>713.4</ele><time>2026-04-19T10:54:01.001Z</time></trkpt><trkpt lat="42.70569855187588" lon="12.685100043353838"><ele>712.5999999999999</ele><time>2026-04-19T10:54:02.001Z</time></trkpt><trkpt lat="42.70569695414085" lon="12.68497609781355"><ele>711.8</ele><time>2026-04-19T10:54:03.001Z</time></trkpt><trkpt lat="42.705700536531396" lon="12.684814118985525"><ele>711.0</ele><time>2026-04-19T10:54:04.001Z</time></trkpt><trkpt lat="42.70571141148486" lon="12.684702670126379"><ele>711.0</ele><time>2026-04-19T10:54:05.002Z</time></trkpt><trkpt lat="42.705704752546545" lon="12.684584468408259"><ele>711.0</ele><time>2026-04-19T10:54:06.002Z</time></trkpt><trkpt lat="42.705704652188466" lon="12.68442697330601"><ele>711.0</ele><time>2026-04-19T10:54:07.002Z</time></trkpt><trkpt lat="42.70569515372134" lon="12.684242834005035"><ele>711.0</ele><time>2026-04-19T10:54:08.002Z</time></trkpt><trkpt lat="42.70568946951716" lon="12.684118751363947"><ele>711.0</ele><time>2026-04-19T10:54:09.002Z</time></trkpt><trkpt lat="42.705692888339094" lon="12.684006604732781"><ele>710.1999999999999</ele><time>2026-04-19T10:54:10.002Z</time></trkpt><trkpt lat="42.705675658070504" lon="12.683856455037585"><ele>709.4</ele><time>2026-04-19T10:54:11.002Z</time></trkpt><trkpt lat="42.70564553646598" lon="12.683725341130822"><ele>708.6</ele><time>2026-04-19T10:54:12.002Z</time></trkpt><trkpt lat="42.70562760190273" lon="12.683580595931515"><ele>707.8</ele><time>2026-04-19T10:54:13.002Z</time></trkpt><trkpt lat="42.70560519051519" lon="12.683438806763547"><ele>707.0</ele><time>2026-04-19T10:54:14.002Z</time></trkpt><trkpt lat="42.70557362319749" lon="12.683307876823514"><ele>707.0</ele><time>2026-04-19T10:54:15.002Z</time></trkpt><trkpt lat="42.70553028537794" lon="12.68317808035317"><ele>707.0</ele><time>2026-04-19T10:54:16.002Z</time></trkpt><trkpt lat="42.70549282212583" lon="12.683055152791932"><ele>707.0</ele><time>2026-04-19T10:54:17.002Z</time></trkpt><trkpt lat="42.70545883333255" lon="12.682935290378138"><ele>707.0</ele><time>2026-04-19T10:54:18.002Z</time></trkpt><trkpt lat="42.705409902780545" lon="12.682817910118507"><ele>707.0</ele><time>2026-04-19T10:54:19.002Z</time></trkpt><trkpt lat="42.705356743703895" lon="12.682719229753612"><ele>707.4000000000001</ele><time>2026-04-19T10:54:20.002Z</time></trkpt><trkpt lat="42.70532486677745" lon="12.68259714092532"><ele>707.8000000000001</ele><time>2026-04-19T10:54:21.002Z</time></trkpt><trkpt lat="42.70530910034411" lon="12.682491578983132"><ele>708.2</ele><time>2026-04-19T10:54:22.002Z</time></trkpt><trkpt lat="42.70530007654137" lon="12.682365881954384"><ele>708.6</ele><time>2026-04-19T10:54:23.002Z</time></trkpt><trkpt lat="42.70528487657146" lon="12.682211466045247"><ele>709.0</ele><time>2026-04-19T10:54:24.002Z</time></trkpt><trkpt lat="42.70527090835399" lon="12.682014071038042"><ele>708.6</ele><time>2026-04-19T10:54:25.002Z</time></trkpt><trkpt lat="42.70525121073464" lon="12.681842182669726"><ele>708.2</ele><time>2026-04-19T10:54:26.002Z</time></trkpt><trkpt lat="42.705228222803036" lon="12.681703585467508"><ele>707.8000000000001</ele><time>2026-04-19T10:54:27.002Z</time></trkpt><trkpt lat="42.70520489189727" lon="12.68158848100391"><ele>707.4000000000001</ele><time>2026-04-19T10:54:28.002Z</time></trkpt><trkpt lat="42.70519228285062" lon="12.681500409572047"><ele>707.0</ele><time>2026-04-19T10:54:29.002Z</time></trkpt><trkpt lat="42.705174156881036" lon="12.681381760859697"><ele>704.5</ele><time>2026-04-19T10:54:31.002Z</time></trkpt><trkpt lat="42.705119812809045" lon="12.681247856807923"><ele>702.0</ele><time>2026-04-19T10:54:33.002Z</time></trkpt><trkpt lat="42.705037104603655" lon="12.68106271750434"><ele>699.5</ele><time>2026-04-19T10:54:36.002Z</time></trkpt><trkpt lat="42.7049360004032" lon="12.68102949338977"><ele>697.0</ele><time>2026-04-19T10:54:37.002Z</time></trkpt><trkpt lat="42.7048201936355" lon="12.680989415459653"><ele>696.75</ele><time>2026-04-19T10:54:38.002Z</time></trkpt><trkpt lat="42.704698011470654" lon="12.680910786435136"><ele>696.5</ele><time>2026-04-19T10:54:39.002Z</time></trkpt><trkpt lat="42.704571350943496" lon="12.680847703609404"><ele>696.25</ele><time>2026-04-19T10:54:40.002Z</time></trkpt><trkpt lat="42.70447853042987" lon="12.680805556944335"><ele>696.0</ele><time>2026-04-19T10:54:41.002Z</time></trkpt><trkpt lat="42.70435608863017" lon="12.680770539141117"><ele>698.1999999999999</ele><time>2026-04-19T10:54:43.002Z</time></trkpt><trkpt lat="42.704269421653706" lon="12.680774920070059"><ele>700.4</ele><time>2026-04-19T10:54:44.002Z</time></trkpt><trkpt lat="42.70417840358552" lon="12.680781689154443"><ele>702.6</ele><time>2026-04-19T10:54:45.002Z</time></trkpt><trkpt lat="42.704059287910816" lon="12.680777470245415"><ele>704.8</ele><time>2026-04-19T10:54:46.002Z</time></trkpt><trkpt lat="42.70392211772346" lon="12.68076022572718"><ele>707.0</ele><time>2026-04-19T10:54:47.002Z</time></trkpt><trkpt lat="42.70380302732718" lon="12.680738570506595"><ele>707.0</ele><time>2026-04-19T10:54:48.003Z</time></trkpt><trkpt lat="42.70371669799638" lon="12.680699693717946"><ele>707.0</ele><time>2026-04-19T10:54:49.003Z</time></trkpt><trkpt lat="42.70362408825002" lon="12.680674954904873"><ele>707.0</ele><time>2026-04-19T10:54:50.003Z</time></trkpt><trkpt lat="42.703526012713" lon="12.680640367782487"><ele>707.0</ele><time>2026-04-19T10:54:51.003Z</time></trkpt><trkpt lat="42.7034170394887" lon="12.68058855882369"><ele>707.0</ele><time>2026-04-19T10:54:52.003Z</time></trkpt><trkpt lat="42.703290670228085" lon="12.680530043731041"><ele>708.4000000000001</ele><time>2026-04-19T10:54:53.003Z</time></trkpt><trkpt lat="42.70316875829856" lon="12.68047800030635"><ele>709.8000000000001</ele><time>2026-04-19T10:54:54.003Z</time></trkpt><trkpt lat="42.703062686316365" lon="12.680466255500928"><ele>711.2</ele><time>2026-04-19T10:54:55.003Z</time></trkpt><trkpt lat="42.70297869542628" lon="12.680424376760977"><ele>712.6</ele><time>2026-04-19T10:54:56.003Z</time></trkpt><trkpt lat="42.70287128359972" lon="12.680436428268964"><ele>714.0</ele><time>2026-04-19T10:54:57.003Z</time></trkpt><trkpt lat="42.70273274927616" lon="12.680438774848307"><ele>716.0</ele><time>2026-04-19T10:54:58.003Z</time></trkpt><trkpt lat="42.70258813192041" lon="12.68045329428965"><ele>718.0</ele><time>2026-04-19T10:54:59.003Z</time></trkpt><trkpt lat="42.70246747072103" lon="12.680472709884041"><ele>720.0</ele><time>2026-04-19T10:55:00.003Z</time></trkpt><trkpt lat="42.70236541021735" lon="12.680475498839794"><ele>722.0</ele><time>2026-04-19T10:55:01.003Z</time></trkpt><trkpt lat="42.702257420514066" lon="12.680457282108973"><ele>722.0</ele><time>2026-04-19T10:55:02.003Z</time></trkpt><trkpt lat="42.70214175663978" lon="12.680432547121608"><ele>722.0</ele><time>2026-04-19T10:55:03.003Z</time></trkpt><trkpt lat="42.70201948599193" lon="12.680410605190605"><ele>722.0</ele><time>2026-04-19T10:55:04.003Z</time></trkpt><trkpt lat="42.70190416109152" lon="12.680394607387061"><ele>722.0</ele><time>2026-04-19T10:55:05.003Z</time></trkpt><trkpt lat="42.70179575799426" lon="12.680393701129566"><ele>722.5</ele><time>2026-04-19T10:55:06.003Z</time></trkpt><trkpt lat="42.70169286096731" lon="12.680399954761846"><ele>723.0</ele><time>2026-04-19T10:55:07.003Z</time></trkpt><trkpt lat="42.70157886528401" lon="12.680410596662695"><ele>723.5</ele><time>2026-04-19T10:55:08.003Z</time></trkpt><trkpt lat="42.701435321502856" lon="12.680421801665005"><ele>724.0</ele><time>2026-04-19T10:55:09.003Z</time></trkpt><trkpt lat="42.70129162704255" lon="12.680421111673054"><ele>724.0</ele><time>2026-04-19T10:55:10.003Z</time></trkpt><trkpt lat="42.701166025119306" lon="12.68042626264499"><ele>724.0</ele><time>2026-04-19T10:55:11.003Z</time></trkpt><trkpt lat="42.70103375189509" lon="12.680426891780357"><ele>724.0</ele><time>2026-04-19T10:55:11.999Z</time></trkpt><trkpt lat="42.700915282515034" lon="12.680438212932767"><ele>724.0</ele><time>2026-04-19T10:55:12.999Z</time></trkpt><trkpt lat="42.70080203611136" lon="12.680441182158571"><ele>723.2</ele><time>2026-04-19T10:55:14Z</time></trkpt><trkpt lat="42.70069820915563" lon="12.680436515920947"><ele>722.4000000000001</ele><time>2026-04-19T10:55:15Z</time></trkpt><trkpt lat="42.70060023038838" lon="12.680431365168953"><ele>721.6</ele><time>2026-04-19T10:55:16Z</time></trkpt><trkpt lat="42.70050009200142" lon="12.680426748878586"><ele>720.8</ele><time>2026-04-19T10:55:17Z</time></trkpt><trkpt lat="42.70040121941062" lon="12.680443278664056"><ele>720.0</ele><time>2026-04-19T10:55:18Z</time></trkpt><trkpt lat="42.700291716958446" lon="12.680474343449792"><ele>719.25</ele><time>2026-04-19T10:55:19Z</time></trkpt><trkpt lat="42.70017748205413" lon="12.68051720522544"><ele>718.5</ele><time>2026-04-19T10:55:20Z</time></trkpt><trkpt lat="42.70005685223587" lon="12.680554572932545"><ele>717.75</ele><time>2026-04-19T10:55:21Z</time></trkpt><trkpt lat="42.69994160287285" lon="12.680595773847692"><ele>717.0</ele><time>2026-04-19T10:55:22Z</time></trkpt><trkpt lat="42.69982978045489" lon="12.680643831709531"><ele>717.0</ele><time>2026-04-19T10:55:23Z</time></trkpt><trkpt lat="42.699722882394155" lon="12.680700576406297"><ele>717.0</ele><time>2026-04-19T10:55:24Z</time></trkpt><trkpt lat="42.69961808604194" lon="12.680762097338643"><ele>717.0</ele><time>2026-04-19T10:55:25Z</time></trkpt><trkpt lat="42.69950786736437" lon="12.68083052546906"><ele>717.0</ele><time>2026-04-19T10:55:26.001Z</time></trkpt><trkpt lat="42.69939961199207" lon="12.68090530316088"><ele>719.6</ele><time>2026-04-19T10:55:27.001Z</time></trkpt><trkpt lat="42.69929137806435" lon="12.68097354037606"><ele>722.2</ele><time>2026-04-19T10:55:28.001Z</time></trkpt><trkpt lat="42.699187437590865" lon="12.681019785215979"><ele>724.8</ele><time>2026-04-19T10:55:29.001Z</time></trkpt><trkpt lat="42.69908227126959" lon="12.68105763096802"><ele>727.4</ele><time>2026-04-19T10:55:30.001Z</time></trkpt><trkpt lat="42.698976283946145" lon="12.681094672946703"><ele>730.0</ele><time>2026-04-19T10:55:31.001Z</time></trkpt><trkpt lat="42.69887383553531" lon="12.681126764616023"><ele>730.0</ele><time>2026-04-19T10:55:32.001Z</time></trkpt><trkpt lat="42.698778361517185" lon="12.681147017446547"><ele>730.0</ele><time>2026-04-19T10:55:33.001Z</time></trkpt><trkpt lat="42.69868799748675" lon="12.681189512158587"><ele>730.0</ele><time>2026-04-19T10:55:34.001Z</time></trkpt><trkpt lat="42.69860491849662" lon="12.681234910896405"><ele>730.0</ele><time>2026-04-19T10:55:35.001Z</time></trkpt><trkpt lat="42.698522936437065" lon="12.68129007748287"><ele>730.0</ele><time>2026-04-19T10:55:36.001Z</time></trkpt><trkpt lat="42.69844106670893" lon="12.681344972281675"><ele>725.3333333333334</ele><time>2026-04-19T10:55:37.001Z</time></trkpt><trkpt lat="42.69835823042775" lon="12.681393000386418"><ele>720.6666666666667</ele><time>2026-04-19T10:55:38.001Z</time></trkpt><trkpt lat="42.69829134219522" lon="12.68142878021592"><ele>716.0</ele><time>2026-04-19T10:55:39.001Z</time></trkpt><trkpt lat="42.698176193108026" lon="12.681458773204161"><ele>711.3333333333334</ele><time>2026-04-19T10:55:41.001Z</time></trkpt><trkpt lat="42.69810594933313" lon="12.681443167238385"><ele>706.6666666666666</ele><time>2026-04-19T10:55:42.001Z</time></trkpt><trkpt lat="42.69804426893484" lon="12.681418271763299"><ele>702.0</ele><time>2026-04-19T10:55:43.001Z</time></trkpt><trkpt lat="42.69798282095435" lon="12.681395218719048"><ele>702.0</ele><time>2026-04-19T10:55:44.001Z</time></trkpt><trkpt lat="42.69787409387837" lon="12.681367860618517"><ele>702.0</ele><time>2026-04-19T10:55:46.001Z</time></trkpt><trkpt lat="42.697779473985534" lon="12.68134411096852"><ele>702.0</ele><time>2026-04-19T10:55:48.001Z</time></trkpt><trkpt lat="42.69765287106138" lon="12.681358638310224"><ele>702.0</ele><time>2026-04-19T10:55:50.001Z</time></trkpt><trkpt lat="42.69758198643085" lon="12.681357447211184"><ele>702.0</ele><time>2026-04-19T10:55:51.001Z</time></trkpt><trkpt lat="42.6975132365745" lon="12.681340237547031"><ele>699.0</ele><time>2026-04-19T10:55:52.001Z</time></trkpt><trkpt lat="42.69744912122542" lon="12.681332910666042"><ele>696.0</ele><time>2026-04-19T10:55:53.001Z</time></trkpt><trkpt lat="42.697373614679385" lon="12.68126920586276"><ele>693.0</ele><time>2026-04-19T10:55:55.002Z</time></trkpt><trkpt lat="42.69736559096228" lon="12.68110542587483"><ele>690.0</ele><time>2026-04-19T10:55:57.002Z</time></trkpt><trkpt lat="42.69733933004478" lon="12.68102291848441"><ele>687.0</ele><time>2026-04-19T10:55:58.002Z</time></trkpt><trkpt lat="42.697287352848996" lon="12.680898437334434"><ele>684.0</ele><time>2026-04-19T10:56:00.002Z</time></trkpt><trkpt lat="42.69721888936709" lon="12.680896070294928"><ele>682.5</ele><time>2026-04-19T10:56:02.002Z</time></trkpt><trkpt lat="42.697106394730305" lon="12.680947602123235"><ele>681.0</ele><time>2026-04-19T10:56:04.002Z</time></trkpt><trkpt lat="42.69703096446972" lon="12.680965462399598"><ele>679.5</ele><time>2026-04-19T10:56:06.002Z</time></trkpt><trkpt lat="42.69695491077653" lon="12.6809834896172"><ele>678.0</ele><time>2026-04-19T10:56:08.002Z</time></trkpt><trkpt lat="42.69693417517892" lon="12.681071811786259"><ele>676.5</ele><time>2026-04-19T10:56:09.002Z</time></trkpt><trkpt lat="42.6968395142279" lon="12.681096377879967"><ele>675.0</ele><time>2026-04-19T10:56:11.002Z</time></trkpt><trkpt lat="42.696782881139875" lon="12.680951899008441"><ele>675.0</ele><time>2026-04-19T10:56:13.002Z</time></trkpt><trkpt lat="42.696804008903165" lon="12.680850567119037"><ele>675.0</ele><time>2026-04-19T10:56:14.002Z</time></trkpt><trkpt lat="42.696790948024194" lon="12.680730261402045"><ele>675.0</ele><time>2026-04-19T10:56:15.002Z</time></trkpt><trkpt lat="42.696772226361695" lon="12.680616471915597"><ele>675.0</ele><time>2026-04-19T10:56:16.002Z</time></trkpt><trkpt lat="42.69674431685854" lon="12.68050136445401"><ele>675.0</ele><time>2026-04-19T10:56:17.002Z</time></trkpt><trkpt lat="42.69672228112285" lon="12.680403564034544"><ele>675.0</ele><time>2026-04-19T10:56:18.002Z</time></trkpt><trkpt lat="42.69669680394907" lon="12.680324656376834"><ele>672.8333333333334</ele><time>2026-04-19T10:56:19.002Z</time></trkpt><trkpt lat="42.696682154018575" lon="12.680229812023946"><ele>670.6666666666666</ele><time>2026-04-19T10:56:20.002Z</time></trkpt><trkpt lat="42.696670642735285" lon="12.680125353384735"><ele>668.5</ele><time>2026-04-19T10:56:21.002Z</time></trkpt><trkpt lat="42.6966509732505" lon="12.680026187412063"><ele>666.3333333333333</ele><time>2026-04-19T10:56:22.002Z</time></trkpt><trkpt lat="42.696621420536935" lon="12.679926145787892"><ele>664.1666666666666</ele><time>2026-04-19T10:56:23.002Z</time></trkpt><trkpt lat="42.696593024717785" lon="12.679840305264326"><ele>662.0</ele><time>2026-04-19T10:56:24.002Z</time></trkpt><trkpt lat="42.69653309805891" lon="12.679708674803845"><ele>662.0</ele><time>2026-04-19T10:56:26.002Z</time></trkpt><trkpt lat="42.69640656714114" lon="12.67967243214922"><ele>662.0</ele><time>2026-04-19T10:56:28.002Z</time></trkpt><trkpt lat="42.69631707432889" lon="12.67959755764778"><ele>662.0</ele><time>2026-04-19T10:56:29.002Z</time></trkpt><trkpt lat="42.696215500363614" lon="12.67953921212901"><ele>662.0</ele><time>2026-04-19T10:56:30.002Z</time></trkpt><trkpt lat="42.6961111124548" lon="12.679484678845894"><ele>661.0</ele><time>2026-04-19T10:56:31.002Z</time></trkpt><trkpt lat="42.69602568181986" lon="12.679437324539988"><ele>660.0</ele><time>2026-04-19T10:56:32.002Z</time></trkpt><trkpt lat="42.69595018858989" lon="12.679408980467917"><ele>659.0</ele><time>2026-04-19T10:56:34.002Z</time></trkpt><trkpt lat="42.696012951916686" lon="12.67929072858128"><ele>658.0</ele><time>2026-04-19T10:56:37.002Z</time></trkpt><trkpt lat="42.696000657847456" lon="12.679190603819793"><ele>657.0</ele><time>2026-04-19T10:56:39.002Z</time></trkpt><trkpt lat="42.69599651825509" lon="12.679080491064347"><ele>656.0</ele><time>2026-04-19T10:56:41.002Z</time></trkpt><trkpt lat="42.695923669648984" lon="12.679011047420753"><ele>656.0</ele><time>2026-04-19T10:56:43.002Z</time></trkpt><trkpt lat="42.6958302798826" lon="12.67901478070966"><ele>656.0</ele><time>2026-04-19T10:56:44.002Z</time></trkpt><trkpt lat="42.695758840933486" lon="12.67896056501077"><ele>656.0</ele><time>2026-04-19T10:56:45.002Z</time></trkpt><trkpt lat="42.69568893225256" lon="12.678923620158846"><ele>656.0</ele><time>2026-04-19T10:56:46.002Z</time></trkpt><trkpt lat="42.69562933069201" lon="12.678879955040161"><ele>656.0</ele><time>2026-04-19T10:56:47.002Z</time></trkpt><trkpt lat="42.69557930146546" lon="12.678744942947638"><ele>656.0</ele><time>2026-04-19T10:56:49.002Z</time></trkpt><trkpt lat="42.695548165263304" lon="12.678650031681562"><ele>653.0</ele><time>2026-04-19T10:56:50.002Z</time></trkpt><trkpt lat="42.69551607344511" lon="12.678548683747543"><ele>650.0</ele><time>2026-04-19T10:56:51.002Z</time></trkpt><trkpt lat="42.69547736217062" lon="12.678439864029164"><ele>647.0</ele><time>2026-04-19T10:56:52.002Z</time></trkpt><trkpt lat="42.695463856171855" lon="12.678303861617776"><ele>644.0</ele><time>2026-04-19T10:56:53.002Z</time></trkpt><trkpt lat="42.69543098336375" lon="12.678154496761206"><ele>641.0</ele><time>2026-04-19T10:56:54.002Z</time></trkpt><trkpt lat="42.695394386259636" lon="12.678031488245031"><ele>641.0</ele><time>2026-04-19T10:56:55.002Z</time></trkpt><trkpt lat="42.69534776322721" lon="12.677953358261888"><ele>641.0</ele><time>2026-04-19T10:56:56.002Z</time></trkpt><trkpt lat="42.695309945240176" lon="12.677856360183469"><ele>641.0</ele><time>2026-04-19T10:56:57.002Z</time></trkpt><trkpt lat="42.69527056188477" lon="12.677758113643963"><ele>641.0</ele><time>2026-04-19T10:56:58.002Z</time></trkpt><trkpt lat="42.6952464795308" lon="12.677658465235735"><ele>641.0</ele><time>2026-04-19T10:56:59.002Z</time></trkpt><trkpt lat="42.69523051344286" lon="12.677556377957824"><ele>641.0</ele><time>2026-04-19T10:57:00.002Z</time></trkpt><trkpt lat="42.69523725018993" lon="12.677448802242987"><ele>641.5</ele><time>2026-04-19T10:57:01.002Z</time></trkpt><trkpt lat="42.695222603434395" lon="12.677303318176032"><ele>642.0</ele><time>2026-04-19T10:57:02.002Z</time></trkpt><trkpt lat="42.695189232369536" lon="12.677172122213491"><ele>642.5</ele><time>2026-04-19T10:57:03.002Z</time></trkpt><trkpt lat="42.695148835735964" lon="12.677023256208278"><ele>643.0</ele><time>2026-04-19T10:57:04.002Z</time></trkpt><trkpt lat="42.695121195873405" lon="12.676844354848791"><ele>643.0</ele><time>2026-04-19T10:57:05.002Z</time></trkpt><trkpt lat="42.69508167849907" lon="12.676710950426926"><ele>643.0</ele><time>2026-04-19T10:57:06.002Z</time></trkpt><trkpt lat="42.69505042730468" lon="12.676586854261082"><ele>643.0</ele><time>2026-04-19T10:57:07.002Z</time></trkpt><trkpt lat="42.695019629659626" lon="12.676486374583114"><ele>643.0</ele><time>2026-04-19T10:57:08.002Z</time></trkpt><trkpt lat="42.69496957098664" lon="12.676367418355511"><ele>643.0</ele><time>2026-04-19T10:57:09.002Z</time></trkpt><trkpt lat="42.69493182773821" lon="12.676225911666494"><ele>643.0</ele><time>2026-04-19T10:57:10.002Z</time></trkpt><trkpt lat="42.69487544356896" lon="12.676106832447996"><ele>643.0</ele><time>2026-04-19T10:57:11.002Z</time></trkpt><trkpt lat="42.694841555162824" lon="12.676013449582502"><ele>643.0</ele><time>2026-04-19T10:57:12.002Z</time></trkpt><trkpt lat="42.69476946631388" lon="12.675932271815906"><ele>643.0</ele><time>2026-04-19T10:57:14.003Z</time></trkpt><trkpt lat="42.694718148720966" lon="12.675877891572755"><ele>643.0</ele><time>2026-04-19T10:57:15.003Z</time></trkpt><trkpt lat="42.69466399901804" lon="12.67580557813839"><ele>643.0</ele><time>2026-04-19T10:57:16.003Z</time></trkpt><trkpt lat="42.69459553661866" lon="12.675749699772156"><ele>641.6666666666667</ele><time>2026-04-19T10:57:17.003Z</time></trkpt><trkpt lat="42.694513581110606" lon="12.675710519356356"><ele>640.3333333333334</ele><time>2026-04-19T10:57:17.998Z</time></trkpt><trkpt lat="42.69444488096655" lon="12.675669655486805"><ele>639.0</ele><time>2026-04-19T10:57:18.998Z</time></trkpt><trkpt lat="42.69438592870886" lon="12.67560821687267"><ele>637.6666666666666</ele><time>2026-04-19T10:57:19.998Z</time></trkpt><trkpt lat="42.694319483330766" lon="12.675565292967153"><ele>636.3333333333333</ele><time>2026-04-19T10:57:20.999Z</time></trkpt><trkpt lat="42.69425725148637" lon="12.675524048014642"><ele>635.0</ele><time>2026-04-19T10:57:21.999Z</time></trkpt><trkpt lat="42.69409371709295" lon="12.675433623511445"><ele>635.0</ele><time>2026-04-19T10:57:24.999Z</time></trkpt><trkpt lat="42.69398037917806" lon="12.675359029721617"><ele>635.0</ele><time>2026-04-19T10:57:26.999Z</time></trkpt><trkpt lat="42.69392086599535" lon="12.67531536655024"><ele>635.0</ele><time>2026-04-19T10:57:27.999Z</time></trkpt><trkpt lat="42.693849148906665" lon="12.675244666848414"><ele>635.0</ele><time>2026-04-19T10:57:28.999Z</time></trkpt><trkpt lat="42.693770465171944" lon="12.6751832679029"><ele>635.0</ele><time>2026-04-19T10:57:29.999Z</time></trkpt><trkpt lat="42.69371461449001" lon="12.675136904123326"><ele>635.0</ele><time>2026-04-19T10:57:30.999Z</time></trkpt><trkpt lat="42.693625926081324" lon="12.67503154001389"><ele>632.4</ele><time>2026-04-19T10:57:32.999Z</time></trkpt><trkpt lat="42.693567538158256" lon="12.674973224158979"><ele>629.8</ele><time>2026-04-19T10:57:34Z</time></trkpt><trkpt lat="42.69351163560405" lon="12.67491834550656"><ele>627.2</ele><time>2026-04-19T10:57:35Z</time></trkpt><trkpt lat="42.693463894440825" lon="12.67484938071311"><ele>624.6</ele><time>2026-04-19T10:57:36Z</time></trkpt><trkpt lat="42.69339276532001" lon="12.674648084895896"><ele>622.0</ele><time>2026-04-19T10:57:38Z</time></trkpt><trkpt lat="42.69336952930211" lon="12.67450136420046"><ele>621.0</ele><time>2026-04-19T10:57:39Z</time></trkpt><trkpt lat="42.69335667201878" lon="12.674382238241057"><ele>620.0</ele><time>2026-04-19T10:57:40Z</time></trkpt><trkpt lat="42.69337556647516" lon="12.674299790774828"><ele>619.0</ele><time>2026-04-19T10:57:41Z</time></trkpt><trkpt lat="42.69337728128332" lon="12.67418026464356"><ele>618.0</ele><time>2026-04-19T10:57:43Z</time></trkpt><trkpt lat="42.69308292149749" lon="12.67406937417124"><ele>618.0</ele><time>2026-04-19T10:57:46Z</time></trkpt><trkpt lat="42.69300709455568" lon="12.674033104645895"><ele>618.0</ele><time>2026-04-19T10:57:47Z</time></trkpt><trkpt lat="42.69293089099061" lon="12.67399749654573"><ele>618.0</ele><time>2026-04-19T10:57:48.001Z</time></trkpt><trkpt lat="42.69286757402839" lon="12.673977096555102"><ele>618.0</ele><time>2026-04-19T10:57:49.001Z</time></trkpt><trkpt lat="42.69281500020993" lon="12.673889275184214"><ele>618.0</ele><time>2026-04-19T10:57:51.001Z</time></trkpt><trkpt lat="42.692851378627836" lon="12.673776214556417"><ele>618.0</ele><time>2026-04-19T10:57:52.001Z</time></trkpt><trkpt lat="42.69289196217106" lon="12.673673921795489"><ele>616.0</ele><time>2026-04-19T10:57:53.001Z</time></trkpt><trkpt lat="42.69290899277293" lon="12.673530123656628"><ele>614.0</ele><time>2026-04-19T10:57:54.001Z</time></trkpt><trkpt lat="42.69293563154186" lon="12.673416659984365"><ele>612.0</ele><time>2026-04-19T10:57:55.001Z</time></trkpt><trkpt lat="42.69295573503474" lon="12.67325385295559"><ele>610.0</ele><time>2026-04-19T10:57:56.001Z</time></trkpt><trkpt lat="42.69297611560365" lon="12.673141623008938"><ele>608.0</ele><time>2026-04-19T10:57:57.001Z</time></trkpt><trkpt lat="42.69300945996167" lon="12.673034693397504"><ele>608.0</ele><time>2026-04-19T10:57:58.001Z</time></trkpt><trkpt lat="42.69302295611842" lon="12.672927157828184"><ele>608.0</ele><time>2026-04-19T10:58:00.001Z</time></trkpt><trkpt lat="42.69300348924548" lon="12.672822838121034"><ele>608.0</ele><time>2026-04-19T10:58:03.001Z</time></trkpt><trkpt lat="42.69300594548388" lon="12.672736281427698"><ele>608.0</ele><time>2026-04-19T10:58:05.001Z</time></trkpt><trkpt lat="42.693018138966224" lon="12.672597318771581"><ele>608.0</ele><time>2026-04-19T10:58:07.001Z</time></trkpt><trkpt lat="42.693080329142795" lon="12.672518563894696"><ele>608.0</ele><time>2026-04-19T10:58:09.001Z</time></trkpt><trkpt lat="42.69309830922293" lon="12.67239710535192"><ele>604.8333333333333</ele><time>2026-04-19T10:58:11.001Z</time></trkpt><trkpt lat="42.69318051402845" lon="12.672345650217233"><ele>601.6666666666666</ele><time>2026-04-19T10:58:13.002Z</time></trkpt><trkpt lat="42.693206254395754" lon="12.672236410962155"><ele>598.5</ele><time>2026-04-19T10:58:15.002Z</time></trkpt><trkpt lat="42.69320054053776" lon="12.672102040309838"><ele>595.3333333333334</ele><time>2026-04-19T10:58:17.002Z</time></trkpt><trkpt lat="42.69327857364062" lon="12.672063156642396"><ele>592.1666666666667</ele><time>2026-04-19T10:58:19.002Z</time></trkpt><trkpt lat="42.69334769626041" lon="12.67199376463109"><ele>589.0</ele><time>2026-04-19T10:58:21.002Z</time></trkpt><trkpt lat="42.69335034623424" lon="12.671873940107373"><ele>586.1666666666667</ele><time>2026-04-19T10:58:23.002Z</time></trkpt><trkpt lat="42.69337024335291" lon="12.671755132166037"><ele>583.3333333333334</ele><time>2026-04-19T10:58:25.002Z</time></trkpt><trkpt lat="42.693324276266694" lon="12.671680676296141"><ele>580.5</ele><time>2026-04-19T10:58:27.002Z</time></trkpt><trkpt lat="42.69323286064674" lon="12.671643029582647"><ele>577.6666666666666</ele><time>2026-04-19T10:58:29.002Z</time></trkpt><trkpt lat="42.69319746227014" lon="12.671570389503396"><ele>574.8333333333333</ele><time>2026-04-19T10:58:31.002Z</time></trkpt><trkpt lat="42.693157714854785" lon="12.67145203828689"><ele>572.0</ele><time>2026-04-19T10:58:33.002Z</time></trkpt><trkpt lat="42.693137387458954" lon="12.671369145941917"><ele>572.0</ele><time>2026-04-19T10:58:35.002Z</time></trkpt><trkpt lat="42.69308949791588" lon="12.671293406433612"><ele>572.0</ele><time>2026-04-19T10:58:38.002Z</time></trkpt><trkpt lat="42.69305567974198" lon="12.671208378116168"><ele>572.0</ele><time>2026-04-19T10:58:40.002Z</time></trkpt><trkpt lat="42.692997020812236" lon="12.671074539697782"><ele>572.0</ele><time>2026-04-19T10:58:42.002Z</time></trkpt><trkpt lat="42.69293204812892" lon="12.670977412331617"><ele>572.0</ele><time>2026-04-19T10:58:44.002Z</time></trkpt><trkpt lat="42.69289500513094" lon="12.670891927961856"><ele>572.0</ele><time>2026-04-19T10:58:46.003Z</time></trkpt><trkpt lat="42.69279320615428" lon="12.670815348873589"><ele>568.0</ele><time>2026-04-19T10:58:48.003Z</time></trkpt><trkpt lat="42.6926801138639" lon="12.670738001273223"><ele>564.0</ele><time>2026-04-19T10:58:51.003Z</time></trkpt><trkpt lat="42.69262250567935" lon="12.670668898066067"><ele>560.0</ele><time>2026-04-19T10:58:52.003Z</time></trkpt><trkpt lat="42.69254956053539" lon="12.670610361408102"><ele>556.0</ele><time>2026-04-19T10:58:54.003Z</time></trkpt><trkpt lat="42.692448097448" lon="12.670602845817939"><ele>552.0</ele><time>2026-04-19T10:58:56.003Z</time></trkpt><trkpt lat="42.69235712818706" lon="12.670611519705849"><ele>552.0</ele><time>2026-04-19T10:58:58.003Z</time></trkpt><trkpt lat="42.6922518072777" lon="12.67063967648689"><ele>552.0</ele><time>2026-04-19T10:59:00.003Z</time></trkpt><trkpt lat="42.692155102155894" lon="12.67063623728214"><ele>552.0</ele><time>2026-04-19T10:59:02.003Z</time></trkpt><trkpt lat="42.692164754296584" lon="12.670513473654648"><ele>552.0</ele><time>2026-04-19T10:59:08.003Z</time></trkpt><trkpt lat="42.692203359058496" lon="12.670388790188854"><ele>552.0</ele><time>2026-04-19T10:59:10.003Z</time></trkpt><trkpt lat="42.692258879677865" lon="12.670345767263482"><ele>548.4</ele><time>2026-04-19T10:59:11.003Z</time></trkpt><trkpt lat="42.69235684354332" lon="12.670270871824576"><ele>544.8000000000001</ele><time>2026-04-19T10:59:13.003Z</time></trkpt><trkpt lat="42.692446600088" lon="12.670167389520701"><ele>541.2</ele><time>2026-04-19T10:59:15.003Z</time></trkpt><trkpt lat="42.69251299650611" lon="12.670129428897479"><ele>537.6</ele><time>2026-04-19T10:59:16.003Z</time></trkpt><trkpt lat="42.6925934483716" lon="12.670092468999734"><ele>534.0</ele><time>2026-04-19T10:59:17.003Z</time></trkpt><trkpt lat="42.69267229102225" lon="12.670066418921472"><ele>534.0</ele><time>2026-04-19T10:59:18.003Z</time></trkpt><trkpt lat="42.69273992992301" lon="12.670038064622586"><ele>534.0</ele><time>2026-04-19T10:59:19.003Z</time></trkpt><trkpt lat="42.69280151030124" lon="12.670012686161355"><ele>534.0</ele><time>2026-04-19T10:59:20.003Z</time></trkpt><trkpt lat="42.69290910235802" lon="12.670019566930899"><ele>534.0</ele><time>2026-04-19T10:59:22.004Z</time></trkpt><trkpt lat="42.693050171356646" lon="12.67005830786161"><ele>534.0</ele><time>2026-04-19T10:59:23.999Z</time></trkpt><trkpt lat="42.69315222544765" lon="12.670106273672168"><ele>532.4</ele><time>2026-04-19T10:59:25.999Z</time></trkpt><trkpt lat="42.69320310833469" lon="12.670017776729964"><ele>530.8</ele><time>2026-04-19T10:59:27.999Z</time></trkpt><trkpt lat="42.69324301230593" lon="12.66989487977363"><ele>529.2</ele><time>2026-04-19T10:59:30Z</time></trkpt><trkpt lat="42.69332210074034" lon="12.669779159904914"><ele>527.6</ele><time>2026-04-19T10:59:32Z</time></trkpt><trkpt lat="42.69337022822239" lon="12.669657858429517"><ele>526.0</ele><time>2026-04-19T10:59:34Z</time></trkpt><trkpt lat="42.69346301583331" lon="12.669595115050239"><ele>526.0</ele><time>2026-04-19T10:59:36Z</time></trkpt><trkpt lat="42.693545758198745" lon="12.669568779157656"><ele>526.0</ele><time>2026-04-19T10:59:37Z</time></trkpt><trkpt lat="42.693636973857174" lon="12.669568959807807"><ele>526.0</ele><time>2026-04-19T10:59:38Z</time></trkpt><trkpt lat="42.69371394092274" lon="12.66954806510384"><ele>526.0</ele><time>2026-04-19T10:59:39Z</time></trkpt><trkpt lat="42.69378437880015" lon="12.669522887392787"><ele>526.0</ele><time>2026-04-19T10:59:40Z</time></trkpt><trkpt lat="42.69384665052975" lon="12.669490012011636"><ele>526.0</ele><time>2026-04-19T10:59:41Z</time></trkpt><trkpt lat="42.69391762650557" lon="12.669407408467835"><ele>521.0</ele><time>2026-04-19T10:59:43Z</time></trkpt><trkpt lat="42.69399856211968" lon="12.669386381158555"><ele>516.0</ele><time>2026-04-19T10:59:44Z</time></trkpt><trkpt lat="42.69406720604741" lon="12.669371093389843"><ele>511.0</ele><time>2026-04-19T10:59:45Z</time></trkpt><trkpt lat="42.69412895957377" lon="12.669343904126055"><ele>506.0</ele><time>2026-04-19T10:59:46Z</time></trkpt><trkpt lat="42.694211777765844" lon="12.669303461213396"><ele>501.00000000000006</ele><time>2026-04-19T10:59:48Z</time></trkpt><trkpt lat="42.69428359100263" lon="12.669313969009627"><ele>496.0</ele><time>2026-04-19T10:59:51Z</time></trkpt><trkpt lat="42.69427780947213" lon="12.669165458468617"><ele>496.0</ele><time>2026-04-19T10:59:55Z</time></trkpt><trkpt lat="42.69428898858246" lon="12.669041208808155"><ele>496.0</ele><time>2026-04-19T10:59:56Z</time></trkpt><trkpt lat="42.69430063850717" lon="12.66893548092636"><ele>496.0</ele><time>2026-04-19T10:59:57Z</time></trkpt><trkpt lat="42.69439602676703" lon="12.668829866960497"><ele>496.0</ele><time>2026-04-19T10:59:59.001Z</time></trkpt><trkpt lat="42.69447065049209" lon="12.668812554539988"><ele>496.0</ele><time>2026-04-19T11:00:00.001Z</time></trkpt><trkpt lat="42.69451304311165" lon="12.668678634956052"><ele>494.83333333333337</ele><time>2026-04-19T11:00:02.001Z</time></trkpt><trkpt lat="42.69451779889493" lon="12.668591064052636"><ele>493.6666666666667</ele><time>2026-04-19T11:00:03.001Z</time></trkpt><trkpt lat="42.6945790563275" lon="12.668443029892478"><ele>492.5</ele><time>2026-04-19T11:00:05.001Z</time></trkpt><trkpt lat="42.69463322815332" lon="12.66836645507289"><ele>491.33333333333337</ele><time>2026-04-19T11:00:06.001Z</time></trkpt><trkpt lat="42.69469915402744" lon="12.668303187434411"><ele>490.1666666666667</ele><time>2026-04-19T11:00:07.001Z</time></trkpt><trkpt lat="42.694722921490204" lon="12.668210701919381"><ele>489.0</ele><time>2026-04-19T11:00:08.001Z</time></trkpt><trkpt lat="42.69477147044551" lon="12.668116913863374"><ele>489.0</ele><time>2026-04-19T11:00:09.001Z</time></trkpt><trkpt lat="42.69485451435726" lon="12.668050733377724"><ele>489.0</ele><time>2026-04-19T11:00:10.001Z</time></trkpt><trkpt lat="42.694923679084674" lon="12.66799377418499"><ele>489.0</ele><time>2026-04-19T11:00:11.001Z</time></trkpt><trkpt lat="42.69497693282026" lon="12.667927440360378"><ele>489.0</ele><time>2026-04-19T11:00:12.001Z</time></trkpt><trkpt lat="42.69501975935481" lon="12.66784303196354"><ele>489.0</ele><time>2026-04-19T11:00:13.001Z</time></trkpt><trkpt lat="42.69505398231389" lon="12.667747987487417"><ele>489.0</ele><time>2026-04-19T11:00:14.001Z</time></trkpt><trkpt lat="42.695108068111956" lon="12.66763260696479"><ele>488.6666666666667</ele><time>2026-04-19T11:00:15.001Z</time></trkpt><trkpt lat="42.69515529553582" lon="12.66750793067944"><ele>488.33333333333337</ele><time>2026-04-19T11:00:16.001Z</time></trkpt><trkpt lat="42.69520515377037" lon="12.66741861327419"><ele>488.0</ele><time>2026-04-19T11:00:17.001Z</time></trkpt><trkpt lat="42.69524552551599" lon="12.667342081041168"><ele>487.6666666666667</ele><time>2026-04-19T11:00:18.001Z</time></trkpt><trkpt lat="42.695300057056166" lon="12.667247334520136"><ele>487.33333333333337</ele><time>2026-04-19T11:00:19.001Z</time></trkpt><trkpt lat="42.6953676950373" lon="12.667154958432867"><ele>487.0</ele><time>2026-04-19T11:00:20.001Z</time></trkpt><trkpt lat="42.695428772349615" lon="12.667053618036663"><ele>487.00000000000006</ele><time>2026-04-19T11:00:21.001Z</time></trkpt><trkpt lat="42.69548483653486" lon="12.666962685949702"><ele>487.0</ele><time>2026-04-19T11:00:22.001Z</time></trkpt><trkpt lat="42.69554719141339" lon="12.666871860226216"><ele>487.0</ele><time>2026-04-19T11:00:23.001Z</time></trkpt><trkpt lat="42.69558836825014" lon="12.666801501688173"><ele>487.0</ele><time>2026-04-19T11:00:24.001Z</time></trkpt><trkpt lat="42.695618863298186" lon="12.666717461882813"><ele>487.00000000000006</ele><time>2026-04-19T11:00:25.001Z</time></trkpt><trkpt lat="42.69561065622916" lon="12.666626005140918"><ele>487.0</ele><time>2026-04-19T11:00:26.001Z</time></trkpt><trkpt lat="42.69561192100843" lon="12.666510095863359"><ele>483.00000000000006</ele><time>2026-04-19T11:00:27.001Z</time></trkpt><trkpt lat="42.69561708265379" lon="12.666406317823"><ele>479.0</ele><time>2026-04-19T11:00:28.001Z</time></trkpt><trkpt lat="42.69562694079548" lon="12.666310248005844"><ele>475.0</ele><time>2026-04-19T11:00:29.002Z</time></trkpt><trkpt lat="42.69567575311416" lon="12.666143787899072"><ele>471.0</ele><time>2026-04-19T11:00:31.002Z</time></trkpt><trkpt lat="42.69573823662422" lon="12.666089224820674"><ele>467.00000000000006</ele><time>2026-04-19T11:00:32.002Z</time></trkpt><trkpt lat="42.69582654662191" lon="12.666039129166512"><ele>463.0</ele><time>2026-04-19T11:00:33.002Z</time></trkpt><trkpt lat="42.69589478376532" lon="12.665990286064"><ele>462.59999999999997</ele><time>2026-04-19T11:00:34.002Z</time></trkpt><trkpt lat="42.69597212605734" lon="12.665904412293308"><ele>462.19999999999993</ele><time>2026-04-19T11:00:35.002Z</time></trkpt><trkpt lat="42.69603642098399" lon="12.665808925070023"><ele>461.8</ele><time>2026-04-19T11:00:36.002Z</time></trkpt><trkpt lat="42.696103103533325" lon="12.665695484726433"><ele>461.4</ele><time>2026-04-19T11:00:37.002Z</time></trkpt><trkpt lat="42.6961671010003" lon="12.665590235651367"><ele>461.0</ele><time>2026-04-19T11:00:38.002Z</time></trkpt><trkpt lat="42.696220566286485" lon="12.665460526658853"><ele>461.0</ele><time>2026-04-19T11:00:39.002Z</time></trkpt><trkpt lat="42.69625196028482" lon="12.665375506112413"><ele>461.0</ele><time>2026-04-19T11:00:40.002Z</time></trkpt><trkpt lat="42.69626733895344" lon="12.665270079734256"><ele>461.0</ele><time>2026-04-19T11:00:42.002Z</time></trkpt><trkpt lat="42.696249981875084" lon="12.665161539439879"><ele>461.0</ele><time>2026-04-19T11:00:45.002Z</time></trkpt><trkpt lat="42.69634117164935" lon="12.665021580723394"><ele>461.0</ele><time>2026-04-19T11:00:47.002Z</time></trkpt><trkpt lat="42.69644766974662" lon="12.664857861089338"><ele>458.8333333333333</ele><time>2026-04-19T11:00:49.002Z</time></trkpt><trkpt lat="42.69648925196844" lon="12.664766021378938"><ele>456.66666666666663</ele><time>2026-04-19T11:00:50.002Z</time></trkpt><trkpt lat="42.696564606700136" lon="12.664655921225656"><ele>454.5</ele><time>2026-04-19T11:00:51.002Z</time></trkpt><trkpt lat="42.69662844411404" lon="12.664555020464698"><ele>452.33333333333337</ele><time>2026-04-19T11:00:52.002Z</time></trkpt><trkpt lat="42.696682976821194" lon="12.664489170485552"><ele>450.1666666666667</ele><time>2026-04-19T11:00:53.002Z</time></trkpt><trkpt lat="42.6967484293829" lon="12.664430993926704"><ele>448.0</ele><time>2026-04-19T11:00:54.002Z</time></trkpt><trkpt lat="42.696820391190876" lon="12.664376894401492"><ele>448.00000000000006</ele><time>2026-04-19T11:00:55.002Z</time></trkpt><trkpt lat="42.69689436012682" lon="12.6643447934923"><ele>448.0</ele><time>2026-04-19T11:00:56.002Z</time></trkpt><trkpt lat="42.69694873324348" lon="12.664294041830349"><ele>448.0</ele><time>2026-04-19T11:00:57.002Z</time></trkpt><trkpt lat="42.69700552997026" lon="12.664233285613031"><ele>448.0</ele><time>2026-04-19T11:00:58.002Z</time></trkpt><trkpt lat="42.6970715177691" lon="12.664171519804293"><ele>448.00000000000006</ele><time>2026-04-19T11:00:59.002Z</time></trkpt><trkpt lat="42.697153515008694" lon="12.664144021343532"><ele>448.0</ele><time>2026-04-19T11:01:00.002Z</time></trkpt><trkpt lat="42.69723182630462" lon="12.664129314125123"><ele>447.0</ele><time>2026-04-19T11:01:01.002Z</time></trkpt><trkpt lat="42.69729503685841" lon="12.664142376399207"><ele>445.99999999999994</ele><time>2026-04-19T11:01:02.003Z</time></trkpt><trkpt lat="42.69738547333865" lon="12.664117924470508"><ele>444.99999999999994</ele><time>2026-04-19T11:01:04.003Z</time></trkpt><trkpt lat="42.697501332769605" lon="12.664011944398764"><ele>444.0</ele><time>2026-04-19T11:01:06.003Z</time></trkpt><trkpt lat="42.69757678063168" lon="12.663990549661069"><ele>443.0</ele><time>2026-04-19T11:01:07.003Z</time></trkpt><trkpt lat="42.697657648527716" lon="12.663988497589267"><ele>443.16666666666663</ele><time>2026-04-19T11:01:08.003Z</time></trkpt><trkpt lat="42.69775748679509" lon="12.664002934024126"><ele>443.3333333333333</ele><time>2026-04-19T11:01:09.003Z</time></trkpt><trkpt lat="42.69785035511944" lon="12.663997862553874"><ele>443.5</ele><time>2026-04-19T11:01:10.003Z</time></trkpt><trkpt lat="42.697931738658376" lon="12.663971408680169"><ele>443.66666666666663</ele><time>2026-04-19T11:01:11.003Z</time></trkpt><trkpt lat="42.69799438828401" lon="12.663941685344888"><ele>443.8333333333333</ele><time>2026-04-19T11:01:12.003Z</time></trkpt><trkpt lat="42.69805306935524" lon="12.663889147074315"><ele>444.0</ele><time>2026-04-19T11:01:13.003Z</time></trkpt><trkpt lat="42.69811334418821" lon="12.663816487457229"><ele>444.0</ele><time>2026-04-19T11:01:14.003Z</time></trkpt><trkpt lat="42.69819889767876" lon="12.66371070678444"><ele>444.0</ele><time>2026-04-19T11:01:15.003Z</time></trkpt><trkpt lat="42.69827753398123" lon="12.663616926994035"><ele>444.0</ele><time>2026-04-19T11:01:16.003Z</time></trkpt><trkpt lat="42.69834787702236" lon="12.663539822914663"><ele>444.0</ele><time>2026-04-19T11:01:17.003Z</time></trkpt><trkpt lat="42.698413560671895" lon="12.663481054492427"><ele>444.0</ele><time>2026-04-19T11:01:18.003Z</time></trkpt><trkpt lat="42.698505209823615" lon="12.66342299936709"><ele>441.8333333333333</ele><time>2026-04-19T11:01:19.003Z</time></trkpt><trkpt lat="42.69859016990563" lon="12.663385983417726"><ele>439.66666666666663</ele><time>2026-04-19T11:01:20.003Z</time></trkpt><trkpt lat="42.6986859468266" lon="12.663369194352718"><ele>437.5</ele><time>2026-04-19T11:01:21.003Z</time></trkpt><trkpt lat="42.69876404995255" lon="12.66335853861094"><ele>435.3333333333333</ele><time>2026-04-19T11:01:22.003Z</time></trkpt><trkpt lat="42.6988451581215" lon="12.663324193648057"><ele>433.16666666666663</ele><time>2026-04-19T11:01:23.003Z</time></trkpt><trkpt lat="42.69893853354731" lon="12.663283120368053"><ele>431.0</ele><time>2026-04-19T11:01:24.003Z</time></trkpt><trkpt lat="42.699015512022186" lon="12.663241967200507"><ele>431.0</ele><time>2026-04-19T11:01:25.003Z</time></trkpt><trkpt lat="42.69908127937299" lon="12.663156705019178"><ele>431.0</ele><time>2026-04-19T11:01:26.003Z</time></trkpt><trkpt lat="42.69916999401777" lon="12.663052858126909"><ele>431.0</ele><time>2026-04-19T11:01:27.003Z</time></trkpt><trkpt lat="42.699258526612454" lon="12.662979647911929"><ele>431.0</ele><time>2026-04-19T11:01:28.003Z</time></trkpt><trkpt lat="42.69934805226674" lon="12.6629234920098"><ele>431.0</ele><time>2026-04-19T11:01:29.003Z</time></trkpt><trkpt lat="42.6994506454425" lon="12.662878998403967"><ele>432.20000000000005</ele><time>2026-04-19T11:01:29.999Z</time></trkpt><trkpt lat="42.69955771843243" lon="12.66283333031589"><ele>433.40000000000003</ele><time>2026-04-19T11:01:30.999Z</time></trkpt><trkpt lat="42.69966762383512" lon="12.66277228604223"><ele>434.6</ele><time>2026-04-19T11:01:31.999Z</time></trkpt><trkpt lat="42.69975383741395" lon="12.662719957677178"><ele>435.8</ele><time>2026-04-19T11:01:32.999Z</time></trkpt><trkpt lat="42.699864076427865" lon="12.662680411790872"><ele>437.0</ele><time>2026-04-19T11:01:33.999Z</time></trkpt><trkpt lat="42.699987485440445" lon="12.66265852869365"><ele>434.8333333333333</ele><time>2026-04-19T11:01:34.999Z</time></trkpt><trkpt lat="42.70009029797098" lon="12.662627672092944"><ele>432.66666666666663</ele><time>2026-04-19T11:01:35.999Z</time></trkpt><trkpt lat="42.70016941078426" lon="12.662591225692957"><ele>430.5</ele><time>2026-04-19T11:01:36.999Z</time></trkpt><trkpt lat="42.70025108061301" lon="12.662545159608392"><ele>428.33333333333337</ele><time>2026-04-19T11:01:38Z</time></trkpt><trkpt lat="42.7003158035553" lon="12.662515078048678"><ele>426.1666666666667</ele><time>2026-04-19T11:01:39Z</time></trkpt><trkpt lat="42.70039088146704" lon="12.66246474336097"><ele>424.0</ele><time>2026-04-19T11:01:40Z</time></trkpt><trkpt lat="42.70047996405501" lon="12.662406919707946"><ele>423.42857142857144</ele><time>2026-04-19T11:01:41Z</time></trkpt><trkpt lat="42.7005424414907" lon="12.66234127985686"><ele>422.85714285714283</ele><time>2026-04-19T11:01:42Z</time></trkpt><trkpt lat="42.70060416985346" lon="12.662262110805774"><ele>422.2857142857143</ele><time>2026-04-19T11:01:43Z</time></trkpt><trkpt lat="42.70064493665566" lon="12.662172076086382"><ele>421.7142857142857</ele><time>2026-04-19T11:01:44Z</time></trkpt><trkpt lat="42.700689763826446" lon="12.662088795488518"><ele>421.1428571428571</ele><time>2026-04-19T11:01:45Z</time></trkpt><trkpt lat="42.700722702466834" lon="12.662015088862969"><ele>420.57142857142856</ele><time>2026-04-19T11:01:46Z</time></trkpt><trkpt lat="42.70076251810292" lon="12.661939288726986"><ele>420.0</ele><time>2026-04-19T11:01:47Z</time></trkpt><trkpt lat="42.700837295147004" lon="12.661876107281335"><ele>420.0</ele><time>2026-04-19T11:01:48Z</time></trkpt><trkpt lat="42.70091299827617" lon="12.661819721506559"><ele>420.0</ele><time>2026-04-19T11:01:49Z</time></trkpt><trkpt lat="42.70099844712509" lon="12.661767424247143"><ele>420.0</ele><time>2026-04-19T11:01:50Z</time></trkpt><trkpt lat="42.70105998472936" lon="12.661743318685673"><ele>420.0</ele><time>2026-04-19T11:01:51Z</time></trkpt><trkpt lat="42.701124985234856" lon="12.661711641056351"><ele>420.0</ele><time>2026-04-19T11:01:52Z</time></trkpt><trkpt lat="42.70119235283694" lon="12.661632092209786"><ele>420.0</ele><time>2026-04-19T11:01:53Z</time></trkpt><trkpt lat="42.701274662555804" lon="12.661510929732907"><ele>419.0</ele><time>2026-04-19T11:01:54Z</time></trkpt><trkpt lat="42.701395231108265" lon="12.661351079090565"><ele>418.0</ele><time>2026-04-19T11:01:55Z</time></trkpt><trkpt lat="42.70149450535364" lon="12.661219379620249"><ele>417.0</ele><time>2026-04-19T11:01:56Z</time></trkpt><trkpt lat="42.70154919475032" lon="12.66113326248372"><ele>416.0</ele><time>2026-04-19T11:01:57Z</time></trkpt><trkpt lat="42.701583388088174" lon="12.661036955579021"><ele>414.6</ele><time>2026-04-19T11:01:58Z</time></trkpt><trkpt lat="42.70160755891217" lon="12.66090011800369"><ele>413.20000000000005</ele><time>2026-04-19T11:01:59Z</time></trkpt><trkpt lat="42.70162297404109" lon="12.660763515139665"><ele>411.79999999999995</ele><time>2026-04-19T11:02:00Z</time></trkpt><trkpt lat="42.701659918351716" lon="12.660651876458234"><ele>410.4</ele><time>2026-04-19T11:02:01Z</time></trkpt><trkpt lat="42.70172784156572" lon="12.660539432699814"><ele>409.0</ele><time>2026-04-19T11:02:02Z</time></trkpt><trkpt lat="42.70181004391074" lon="12.660374232458514"><ele>409.79999999999995</ele><time>2026-04-19T11:02:03.001Z</time></trkpt><trkpt lat="42.701880935854085" lon="12.660201785883359"><ele>410.59999999999997</ele><time>2026-04-19T11:02:04.001Z</time></trkpt><trkpt lat="42.70194204725899" lon="12.660072309134492"><ele>411.4</ele><time>2026-04-19T11:02:05.001Z</time></trkpt><trkpt lat="42.70198772885181" lon="12.659974867408984"><ele>412.2</ele><time>2026-04-19T11:02:06.001Z</time></trkpt><trkpt lat="42.70203642273488" lon="12.659906856760307"><ele>413.0</ele><time>2026-04-19T11:02:07.001Z</time></trkpt><trkpt lat="42.70210821793172" lon="12.65984166414636"><ele>412.49999999999994</ele><time>2026-04-19T11:02:08.001Z</time></trkpt><trkpt lat="42.70220602662027" lon="12.659778212680065"><ele>412.0</ele><time>2026-04-19T11:02:09.001Z</time></trkpt><trkpt lat="42.702288633557565" lon="12.659720788502389"><ele>411.5</ele><time>2026-04-19T11:02:10.001Z</time></trkpt><trkpt lat="42.70236005192477" lon="12.65964569966402"><ele>411.0</ele><time>2026-04-19T11:02:11.001Z</time></trkpt><trkpt lat="42.70240986212477" lon="12.659572953353733"><ele>410.49999999999994</ele><time>2026-04-19T11:02:12.001Z</time></trkpt><trkpt lat="42.70244593779682" lon="12.659501937510235"><ele>410.0</ele><time>2026-04-19T11:02:13.001Z</time></trkpt><trkpt lat="42.70249800277217" lon="12.659417532621774"><ele>410.0</ele><time>2026-04-19T11:02:14.001Z</time></trkpt><trkpt lat="42.70256524147194" lon="12.659312095308767"><ele>410.0</ele><time>2026-04-19T11:02:15.001Z</time></trkpt><trkpt lat="42.70264579554362" lon="12.65919272224109"><ele>410.0</ele><time>2026-04-19T11:02:16.001Z</time></trkpt><trkpt lat="42.70273509435894" lon="12.65905240659854"><ele>410.0</ele><time>2026-04-19T11:02:17.001Z</time></trkpt><trkpt lat="42.70281619213242" lon="12.658909379500102"><ele>410.2</ele><time>2026-04-19T11:02:18.001Z</time></trkpt><trkpt lat="42.70287527141354" lon="12.658777992044662"><ele>410.4</ele><time>2026-04-19T11:02:19.001Z</time></trkpt><trkpt lat="42.70293453056033" lon="12.658665480587029"><ele>410.6</ele><time>2026-04-19T11:02:20.001Z</time></trkpt><trkpt lat="42.70300834883092" lon="12.65856676257431"><ele>410.8</ele><time>2026-04-19T11:02:21.001Z</time></trkpt><trkpt lat="42.70307291638577" lon="12.658455901761942"><ele>411.0</ele><time>2026-04-19T11:02:22.001Z</time></trkpt><trkpt lat="42.70312508045379" lon="12.658319477300276"><ele>409.0</ele><time>2026-04-19T11:02:23.001Z</time></trkpt><trkpt lat="42.703167556896986" lon="12.658170927388843"><ele>407.0</ele><time>2026-04-19T11:02:24.001Z</time></trkpt><trkpt lat="42.703201213448494" lon="12.65803082168201"><ele>405.0</ele><time>2026-04-19T11:02:25.001Z</time></trkpt><trkpt lat="42.703227663655916" lon="12.657900520719943"><ele>403.0</ele><time>2026-04-19T11:02:26.001Z</time></trkpt><trkpt lat="42.7032415996831" lon="12.657750217700778"><ele>401.0</ele><time>2026-04-19T11:02:27.001Z</time></trkpt><trkpt lat="42.703259590038336" lon="12.65758321835118"><ele>400.4</ele><time>2026-04-19T11:02:28.001Z</time></trkpt><trkpt lat="42.70328037473065" lon="12.657442284099467"><ele>399.8</ele><time>2026-04-19T11:02:29.001Z</time></trkpt><trkpt lat="42.7032834729344" lon="12.657315963971406"><ele>399.2</ele><time>2026-04-19T11:02:30.001Z</time></trkpt><trkpt lat="42.70327484558116" lon="12.65718069113237"><ele>398.59999999999997</ele><time>2026-04-19T11:02:31.001Z</time></trkpt><trkpt lat="42.703259286194516" lon="12.657042020608209"><ele>398.0</ele><time>2026-04-19T11:02:32.001Z</time></trkpt><trkpt lat="42.70325072519266" lon="12.656896650343985"><ele>397.79999999999995</ele><time>2026-04-19T11:02:33.002Z</time></trkpt><trkpt lat="42.70325307737792" lon="12.65673988943311"><ele>397.6</ele><time>2026-04-19T11:02:34.002Z</time></trkpt><trkpt lat="42.70326859929974" lon="12.656595596437633"><ele>397.4</ele><time>2026-04-19T11:02:35.002Z</time></trkpt><trkpt lat="42.70330532308502" lon="12.656482666823056"><ele>397.20000000000005</ele><time>2026-04-19T11:02:36.002Z</time></trkpt><trkpt lat="42.70334118822427" lon="12.656367166859988"><ele>397.0</ele><time>2026-04-19T11:02:37.002Z</time></trkpt><trkpt lat="42.703364953331835" lon="12.656263542402462"><ele>397.00000000000006</ele><time>2026-04-19T11:02:38.002Z</time></trkpt><trkpt lat="42.70336648639133" lon="12.65615984299166"><ele>397.0</ele><time>2026-04-19T11:02:39.002Z</time></trkpt><trkpt lat="42.703342965892496" lon="12.65604675229169"><ele>397.0</ele><time>2026-04-19T11:02:40.002Z</time></trkpt><trkpt lat="42.70332256444115" lon="12.655941339825214"><ele>397.0</ele><time>2026-04-19T11:02:41.002Z</time></trkpt><trkpt lat="42.70330743178674" lon="12.655847746650737"><ele>397.00000000000006</ele><time>2026-04-19T11:02:42.002Z</time></trkpt><trkpt lat="42.70329218081738" lon="12.655707052021825"><ele>397.0</ele><time>2026-04-19T11:02:44.002Z</time></trkpt><trkpt lat="42.70322713217565" lon="12.655584271956176"><ele>396.6</ele><time>2026-04-19T11:02:47.002Z</time></trkpt><trkpt lat="42.703180390789306" lon="12.655447252628976"><ele>396.20000000000005</ele><time>2026-04-19T11:02:49.002Z</time></trkpt><trkpt lat="42.703177437515315" lon="12.655361656199508"><ele>395.8</ele><time>2026-04-19T11:02:50.002Z</time></trkpt><trkpt lat="42.70318981084554" lon="12.65520211820817"><ele>395.4</ele><time>2026-04-19T11:02:51.002Z</time></trkpt><trkpt lat="42.70319321906891" lon="12.655056508076084"><ele>395.0</ele><time>2026-04-19T11:02:52.002Z</time></trkpt><trkpt lat="42.70318733778333" lon="12.65494589418987"><ele>394.0</ele><time>2026-04-19T11:02:53.002Z</time></trkpt><trkpt lat="42.703111439817896" lon="12.65482298765303"><ele>393.0</ele><time>2026-04-19T11:02:55.002Z</time></trkpt><trkpt lat="42.703043904327245" lon="12.654732015234176"><ele>392.0</ele><time>2026-04-19T11:02:56.002Z</time></trkpt><trkpt lat="42.70298376744348" lon="12.654642502567732"><ele>391.0</ele><time>2026-04-19T11:02:57.002Z</time></trkpt><trkpt lat="42.70295367556252" lon="12.654532076935915"><ele>390.0</ele><time>2026-04-19T11:02:58.002Z</time></trkpt><trkpt lat="42.70293824550354" lon="12.65439407998159"><ele>390.0</ele><time>2026-04-19T11:02:59.002Z</time></trkpt><trkpt lat="42.702927325096496" lon="12.65422924537618"><ele>390.0</ele><time>2026-04-19T11:03:00.002Z</time></trkpt><trkpt lat="42.70293151922571" lon="12.654111876375506"><ele>390.0</ele><time>2026-04-19T11:03:01.002Z</time></trkpt><trkpt lat="42.70295626525902" lon="12.654018787267194"><ele>390.0</ele><time>2026-04-19T11:03:02.002Z</time></trkpt><trkpt lat="42.70303247633915" lon="12.6538972059061"><ele>390.0</ele><time>2026-04-19T11:03:04.002Z</time></trkpt><trkpt lat="42.702983666546544" lon="12.65380815496116"><ele>390.0</ele><time>2026-04-19T11:03:07.003Z</time></trkpt><trkpt lat="42.702875672954285" lon="12.653823660026957"><ele>390.0</ele><time>2026-04-19T11:03:09.003Z</time></trkpt><trkpt lat="42.70279273736639" lon="12.653885069432333"><ele>390.0</ele><time>2026-04-19T11:03:11.003Z</time></trkpt><trkpt lat="42.7027069019094" lon="12.653964169896357"><ele>390.0</ele><time>2026-04-19T11:03:13.003Z</time></trkpt><trkpt lat="42.702651467951306" lon="12.654035890345622"><ele>390.0</ele><time>2026-04-19T11:03:15.003Z</time></trkpt><trkpt lat="42.70250949680408" lon="12.65403840074412"><ele>394.2</ele><time>2026-04-19T11:03:17.003Z</time></trkpt><trkpt lat="42.702404353664775" lon="12.654038557616484"><ele>398.4</ele><time>2026-04-19T11:03:18.003Z</time></trkpt><trkpt lat="42.702290596205664" lon="12.654027653590587"><ele>402.6</ele><time>2026-04-19T11:03:19.003Z</time></trkpt><trkpt lat="42.70216237209594" lon="12.65405524651068"><ele>406.8</ele><time>2026-04-19T11:03:20.003Z</time></trkpt><trkpt lat="42.70207156940436" lon="12.65408261842058"><ele>411.0</ele><time>2026-04-19T11:03:21.003Z</time></trkpt><trkpt lat="42.70199094040137" lon="12.6541362711185"><ele>411.0</ele><time>2026-04-19T11:03:22.003Z</time></trkpt><trkpt lat="42.70191618784414" lon="12.65421529760303"><ele>411.0</ele><time>2026-04-19T11:03:23.003Z</time></trkpt><trkpt lat="42.701831238355005" lon="12.654286267333738"><ele>411.0</ele><time>2026-04-19T11:03:24.003Z</time></trkpt><trkpt lat="42.70174452886512" lon="12.654366545310886"><ele>411.0</ele><time>2026-04-19T11:03:25.003Z</time></trkpt><trkpt lat="42.701646288964966" lon="12.654430028277833"><ele>411.0</ele><time>2026-04-19T11:03:26.003Z</time></trkpt><trkpt lat="42.70156080488363" lon="12.654463066896364"><ele>414.4</ele><time>2026-04-19T11:03:27.003Z</time></trkpt><trkpt lat="42.701469820133504" lon="12.654467993802736"><ele>417.8</ele><time>2026-04-19T11:03:28.003Z</time></trkpt><trkpt lat="42.70135905184777" lon="12.65444787361058"><ele>421.19999999999993</ele><time>2026-04-19T11:03:29.003Z</time></trkpt><trkpt lat="42.701236824015545" lon="12.654407795185346"><ele>424.59999999999997</ele><time>2026-04-19T11:03:30.003Z</time></trkpt><trkpt lat="42.701149248001265" lon="12.654366976340759"><ele>428.0</ele><time>2026-04-19T11:03:31.003Z</time></trkpt><trkpt lat="42.70107587175191" lon="12.654340995261268"><ele>430.49999999999994</ele><time>2026-04-19T11:03:32.003Z</time></trkpt><trkpt lat="42.70100910745604" lon="12.654338755642925"><ele>433.0</ele><time>2026-04-19T11:03:33.003Z</time></trkpt><trkpt lat="42.700886546132615" lon="12.654338894955975"><ele>435.5</ele><time>2026-04-19T11:03:35.003Z</time></trkpt><trkpt lat="42.70081449680206" lon="12.654344122703233"><ele>438.0</ele><time>2026-04-19T11:03:35.999Z</time></trkpt><trkpt lat="42.70072321789213" lon="12.654368353032998"><ele>440.49999999999994</ele><time>2026-04-19T11:03:36.999Z</time></trkpt><trkpt lat="42.70065251814856" lon="12.654378964973596"><ele>443.0</ele><time>2026-04-19T11:03:37.999Z</time></trkpt><trkpt lat="42.700575884907934" lon="12.654407392397278"><ele>442.99999999999994</ele><time>2026-04-19T11:03:38.999Z</time></trkpt><trkpt lat="42.7004899461613" lon="12.65445055786946"><ele>443.0</ele><time>2026-04-19T11:03:39.999Z</time></trkpt><trkpt lat="42.70042601066094" lon="12.654462161629523"><ele>443.0</ele><time>2026-04-19T11:03:40.999Z</time></trkpt><trkpt lat="42.700328332467016" lon="12.654566006615608"><ele>443.0</ele><time>2026-04-19T11:03:42.999Z</time></trkpt><trkpt lat="42.70028897969163" lon="12.6546398717483"><ele>442.99999999999994</ele><time>2026-04-19T11:03:43.999Z</time></trkpt><trkpt lat="42.70026552788068" lon="12.654734848111826"><ele>443.0</ele><time>2026-04-19T11:03:45.999Z</time></trkpt><trkpt lat="42.70034069505083" lon="12.654813164805466"><ele>446.49999999999994</ele><time>2026-04-19T11:03:48Z</time></trkpt><trkpt lat="42.7004080687658" lon="12.6549377509118"><ele>450.0</ele><time>2026-04-19T11:03:50Z</time></trkpt><trkpt lat="42.70047503744505" lon="12.655048532963628"><ele>453.5</ele><time>2026-04-19T11:03:52Z</time></trkpt><trkpt lat="42.70044279831142" lon="12.655125879889441"><ele>457.0</ele><time>2026-04-19T11:03:55Z</time></trkpt><trkpt lat="42.700416218775445" lon="12.655213244946637"><ele>460.49999999999994</ele><time>2026-04-19T11:03:57Z</time></trkpt><trkpt lat="42.70039387749914" lon="12.655306458342737"><ele>464.0</ele><time>2026-04-19T11:03:59Z</time></trkpt><trkpt lat="42.70036176425638" lon="12.655384359311384"><ele>468.0</ele><time>2026-04-19T11:04:02Z</time></trkpt><trkpt lat="42.700284589479786" lon="12.655472872173327"><ele>472.0</ele><time>2026-04-19T11:04:04Z</time></trkpt><trkpt lat="42.70018608209789" lon="12.655549295160485"><ele>476.0</ele><time>2026-04-19T11:04:06Z</time></trkpt><trkpt lat="42.70013602181826" lon="12.655602372521574"><ele>480.0</ele><time>2026-04-19T11:04:07Z</time></trkpt><trkpt lat="42.70003987338003" lon="12.655678301300709"><ele>484.0</ele><time>2026-04-19T11:04:09Z</time></trkpt><trkpt lat="42.699966420586" lon="12.65572444937765"><ele>485.2</ele><time>2026-04-19T11:04:10.001Z</time></trkpt><trkpt lat="42.699889270317364" lon="12.655765858568417"><ele>486.4</ele><time>2026-04-19T11:04:11.001Z</time></trkpt><trkpt lat="42.69975981899524" lon="12.655839208956515"><ele>487.6</ele><time>2026-04-19T11:04:13.001Z</time></trkpt><trkpt lat="42.699658971037145" lon="12.655923175966135"><ele>488.8</ele><time>2026-04-19T11:04:15.001Z</time></trkpt><trkpt lat="42.69959568330607" lon="12.655958038332347"><ele>490.0</ele><time>2026-04-19T11:04:16.001Z</time></trkpt><trkpt lat="42.69955120169939" lon="12.656023058760544"><ele>490.0</ele><time>2026-04-19T11:04:18.001Z</time></trkpt><trkpt lat="42.69949946695671" lon="12.656118620650739"><ele>490.0</ele><time>2026-04-19T11:04:20.001Z</time></trkpt><trkpt lat="42.69944137655177" lon="12.656172353451813"><ele>490.0</ele><time>2026-04-19T11:04:22.001Z</time></trkpt><trkpt lat="42.69933789306175" lon="12.656174348859974"><ele>490.0</ele><time>2026-04-19T11:04:23.001Z</time></trkpt><trkpt lat="42.699239208912225" lon="12.656182601472402"><ele>490.0</ele><time>2026-04-19T11:04:31.001Z</time></trkpt><trkpt lat="42.699132057909196" lon="12.656162226976845"><ele>490.00000000000006</ele><time>2026-04-19T11:04:33.001Z</time></trkpt><trkpt lat="42.699046203272204" lon="12.65613891537225"><ele>490.0</ele><time>2026-04-19T11:04:34.001Z</time></trkpt><trkpt lat="42.698955887014144" lon="12.656131310405057"><ele>490.0</ele><time>2026-04-19T11:04:35.001Z</time></trkpt><trkpt lat="42.698885424719236" lon="12.656114380237597"><ele>490.0</ele><time>2026-04-19T11:04:36.001Z</time></trkpt><trkpt lat="42.69881771895528" lon="12.656105553308572"><ele>490.00000000000006</ele><time>2026-04-19T11:04:37.001Z</time></trkpt><trkpt lat="42.69874157736979" lon="12.656104177190482"><ele>490.0</ele><time>2026-04-19T11:04:38.001Z</time></trkpt><trkpt lat="42.69865665125157" lon="12.65609780664382"><ele>492.1666666666667</ele><time>2026-04-19T11:04:39.002Z</time></trkpt><trkpt lat="42.69857326063553" lon="12.656095180557427"><ele>494.33333333333337</ele><time>2026-04-19T11:04:40.002Z</time></trkpt><trkpt lat="42.698476698283756" lon="12.656085732590352"><ele>496.5</ele><time>2026-04-19T11:04:41.002Z</time></trkpt><trkpt lat="42.69838780838325" lon="12.65606050326535"><ele>498.66666666666663</ele><time>2026-04-19T11:04:42.002Z</time></trkpt><trkpt lat="42.69829231306584" lon="12.656023742567431"><ele>500.8333333333333</ele><time>2026-04-19T11:04:43.002Z</time></trkpt><trkpt lat="42.698216477830805" lon="12.6560330473659"><ele>503.0</ele><time>2026-04-19T11:04:44.002Z</time></trkpt><trkpt lat="42.69809405851304" lon="12.656088621073538"><ele>501.8333333333333</ele><time>2026-04-19T11:04:46.002Z</time></trkpt><trkpt lat="42.69803190877787" lon="12.656140343014375"><ele>500.66666666666663</ele><time>2026-04-19T11:04:47.002Z</time></trkpt><trkpt lat="42.69792351750328" lon="12.656136343071264"><ele>499.5</ele><time>2026-04-19T11:04:49.002Z</time></trkpt><trkpt lat="42.69785845309272" lon="12.656129720275464"><ele>498.33333333333337</ele><time>2026-04-19T11:04:50.002Z</time></trkpt><trkpt lat="42.69778773572295" lon="12.656145215831703"><ele>497.1666666666667</ele><time>2026-04-19T11:04:51.002Z</time></trkpt><trkpt lat="42.697695063974976" lon="12.656192690045325"><ele>496.0</ele><time>2026-04-19T11:04:52.002Z</time></trkpt><trkpt lat="42.69758518079506" lon="12.65624566607023"><ele>499.20000000000005</ele><time>2026-04-19T11:04:53.002Z</time></trkpt><trkpt lat="42.697498773047855" lon="12.656277083047096"><ele>502.40000000000003</ele><time>2026-04-19T11:04:54.002Z</time></trkpt><trkpt lat="42.69738369989687" lon="12.656274117942855"><ele>505.6</ele><time>2026-04-19T11:04:55.002Z</time></trkpt><trkpt lat="42.69728355027318" lon="12.656252779525861"><ele>508.8</ele><time>2026-04-19T11:04:57.002Z</time></trkpt><trkpt lat="42.6972101529956" lon="12.656240228247924"><ele>512.0</ele><time>2026-04-19T11:04:58.002Z</time></trkpt><trkpt lat="42.697130911375766" lon="12.656235393432938"><ele>511.99999999999994</ele><time>2026-04-19T11:04:59.002Z</time></trkpt><trkpt lat="42.697052088883" lon="12.656227942613894"><ele>512.0</ele><time>2026-04-19T11:05:00.002Z</time></trkpt><trkpt lat="42.696982313195285" lon="12.656235942115218"><ele>512.0</ele><time>2026-04-19T11:05:01.002Z</time></trkpt><trkpt lat="42.69689632986745" lon="12.656264115840816"><ele>512.0</ele><time>2026-04-19T11:05:02.002Z</time></trkpt><trkpt lat="42.69680072242628" lon="12.656276022717535"><ele>511.99999999999994</ele><time>2026-04-19T11:05:03.002Z</time></trkpt><trkpt lat="42.69670280104035" lon="12.656246753024709"><ele>512.0</ele><time>2026-04-19T11:05:04.002Z</time></trkpt><trkpt lat="42.696588584134346" lon="12.656265951613403"><ele>512.8000000000001</ele><time>2026-04-19T11:05:06.002Z</time></trkpt><trkpt lat="42.69647874457005" lon="12.656272821076882"><ele>513.6</ele><time>2026-04-19T11:05:08.002Z</time></trkpt><trkpt lat="42.69640365118399" lon="12.656255514365835"><ele>514.4000000000001</ele><time>2026-04-19T11:05:09.002Z</time></trkpt><trkpt lat="42.696311562084276" lon="12.656258853436706"><ele>515.2</ele><time>2026-04-19T11:05:11.002Z</time></trkpt><trkpt lat="42.696196922646834" lon="12.656311488463093"><ele>516.0</ele><time>2026-04-19T11:05:13.003Z</time></trkpt><trkpt lat="42.69608031075948" lon="12.656410101265703"><ele>516.6</ele><time>2026-04-19T11:05:15.003Z</time></trkpt><trkpt lat="42.69593667504455" lon="12.65643522032062"><ele>517.2</ele><time>2026-04-19T11:05:17.003Z</time></trkpt><trkpt lat="42.695870672009654" lon="12.656410637670044"><ele>517.8</ele><time>2026-04-19T11:05:18.003Z</time></trkpt><trkpt lat="42.69578339293287" lon="12.656436592357336"><ele>518.4</ele><time>2026-04-19T11:05:20.003Z</time></trkpt><trkpt lat="42.695684675486774" lon="12.656544728219187"><ele>519.0</ele><time>2026-04-19T11:05:22.003Z</time></trkpt><trkpt lat="42.695592878985515" lon="12.656564117670548"><ele>519.0</ele><time>2026-04-19T11:05:23.003Z</time></trkpt><trkpt lat="42.69549601265428" lon="12.656596281110208"><ele>519.0</ele><time>2026-04-19T11:05:24.003Z</time></trkpt><trkpt lat="42.6953898136641" lon="12.656654636475828"><ele>519.0</ele><time>2026-04-19T11:05:25.003Z</time></trkpt><trkpt lat="42.69527692005569" lon="12.656714237651553"><ele>519.0</ele><time>2026-04-19T11:05:26.003Z</time></trkpt><trkpt lat="42.6951810135539" lon="12.656764799670967"><ele>519.0</ele><time>2026-04-19T11:05:27.003Z</time></trkpt><trkpt lat="42.6950954320663" lon="12.656814110654706"><ele>520.0</ele><time>2026-04-19T11:05:28.003Z</time></trkpt><trkpt lat="42.69499786962468" lon="12.656864598831424"><ele>521.0</ele><time>2026-04-19T11:05:29.003Z</time></trkpt><trkpt lat="42.694905231080064" lon="12.65689478869448"><ele>522.0</ele><time>2026-04-19T11:05:30.003Z</time></trkpt><trkpt lat="42.69483532618488" lon="12.656887468871577"><ele>523.0</ele><time>2026-04-19T11:05:31.003Z</time></trkpt><trkpt lat="42.694734508040575" lon="12.656875262219428"><ele>524.0</ele><time>2026-04-19T11:05:33.003Z</time></trkpt><trkpt lat="42.6946695527584" lon="12.656873172456041"><ele>525.0</ele><time>2026-04-19T11:05:34.003Z</time></trkpt><trkpt lat="42.69457618587986" lon="12.656872821952582"><ele>525.0</ele><time>2026-04-19T11:05:35.003Z</time></trkpt><trkpt lat="42.69447485315061" lon="12.656856341921497"><ele>525.0</ele><time>2026-04-19T11:05:36.003Z</time></trkpt><trkpt lat="42.6944060598896" lon="12.656839931986845"><ele>525.0</ele><time>2026-04-19T11:05:37.003Z</time></trkpt><trkpt lat="42.69434029386541" lon="12.656796769034807"><ele>525.0</ele><time>2026-04-19T11:05:38.003Z</time></trkpt><trkpt lat="42.69426702490611" lon="12.656745390265288"><ele>525.0</ele><time>2026-04-19T11:05:39.003Z</time></trkpt><trkpt lat="42.69420306221968" lon="12.656662035405914"><ele>525.0</ele><time>2026-04-19T11:05:40.003Z</time></trkpt><trkpt lat="42.69410823423253" lon="12.656568151453309"><ele>527.4</ele><time>2026-04-19T11:05:41.003Z</time></trkpt><trkpt lat="42.6940041502951" lon="12.656475273380252"><ele>529.8</ele><time>2026-04-19T11:05:42Z</time></trkpt><trkpt lat="42.693929778685884" lon="12.656358401089811"><ele>532.2</ele><time>2026-04-19T11:05:43Z</time></trkpt><trkpt lat="42.69387445369953" lon="12.656272020637624"><ele>534.6</ele><time>2026-04-19T11:05:44Z</time></trkpt><trkpt lat="42.69381355194409" lon="12.656198338502593"><ele>537.0</ele><time>2026-04-19T11:05:45Z</time></trkpt><trkpt lat="42.6937349611648" lon="12.65613335613623"><ele>538.0</ele><time>2026-04-19T11:05:45.998Z</time></trkpt><trkpt lat="42.69364788889538" lon="12.656083280483815"><ele>539.0</ele><time>2026-04-19T11:05:46.997Z</time></trkpt><trkpt lat="42.69355470880787" lon="12.656023153582485"><ele>540.0</ele><time>2026-04-19T11:05:47.997Z</time></trkpt><trkpt lat="42.693458922122396" lon="12.655941416505204"><ele>541.0</ele><time>2026-04-19T11:05:48.997Z</time></trkpt><trkpt lat="42.693368425461884" lon="12.655874250442178"><ele>542.0</ele><time>2026-04-19T11:05:49.998Z</time></trkpt><trkpt lat="42.693258902033975" lon="12.655812867392793"><ele>542.0</ele><time>2026-04-19T11:05:50.998Z</time></trkpt><trkpt lat="42.69314993202415" lon="12.655762098231632"><ele>542.0</ele><time>2026-04-19T11:05:51.998Z</time></trkpt><trkpt lat="42.693037953874494" lon="12.655704317484204"><ele>542.0</ele><time>2026-04-19T11:05:52.998Z</time></trkpt><trkpt lat="42.69294834926429" lon="12.65563719722079"><ele>542.0</ele><time>2026-04-19T11:05:53.998Z</time></trkpt><trkpt lat="42.69284553974709" lon="12.655541230303156"><ele>542.0</ele><time>2026-04-19T11:05:55.998Z</time></trkpt><trkpt lat="42.69275649866493" lon="12.655449898157672"><ele>542.0</ele><time>2026-04-19T11:05:57.999Z</time></trkpt><trkpt lat="42.692701925332265" lon="12.655339817055772"><ele>542.0</ele><time>2026-04-19T11:05:59.999Z</time></trkpt><trkpt lat="42.69259698720065" lon="12.65523034677435"><ele>542.0</ele><time>2026-04-19T11:06:01.999Z</time></trkpt><trkpt lat="42.69252607847306" lon="12.655185925868789"><ele>542.0</ele><time>2026-04-19T11:06:02.999Z</time></trkpt><trkpt lat="42.69246142744365" lon="12.65514795002733"><ele>540.0</ele><time>2026-04-19T11:06:03.999Z</time></trkpt><trkpt lat="42.692355126640024" lon="12.655127805495114"><ele>538.0</ele><time>2026-04-19T11:06:06Z</time></trkpt><trkpt lat="42.69228538110833" lon="12.655113245404218"><ele>536.0</ele><time>2026-04-19T11:06:07Z</time></trkpt><trkpt lat="42.692205335966186" lon="12.655111562792078"><ele>534.0</ele><time>2026-04-19T11:06:08Z</time></trkpt><trkpt lat="42.69212087771871" lon="12.655102618681315"><ele>532.0</ele><time>2026-04-19T11:06:09Z</time></trkpt><trkpt lat="42.692044545070054" lon="12.655092166506162"><ele>530.0</ele><time>2026-04-19T11:06:10Z</time></trkpt><trkpt lat="42.69196367663532" lon="12.655082703109748"><ele>530.5</ele><time>2026-04-19T11:06:11Z</time></trkpt><trkpt lat="42.691896877112356" lon="12.655078657191432"><ele>531.0</ele><time>2026-04-19T11:06:12Z</time></trkpt><trkpt lat="42.69183311819088" lon="12.655052437439098"><ele>531.5</ele><time>2026-04-19T11:06:13Z</time></trkpt><trkpt lat="42.691756993594694" lon="12.654988913741729"><ele>532.0</ele><time>2026-04-19T11:06:14Z</time></trkpt><trkpt lat="42.691675019260934" lon="12.654932919105748"><ele>532.5</ele><time>2026-04-19T11:06:15Z</time></trkpt><trkpt lat="42.69160221606532" lon="12.654893021065929"><ele>533.0</ele><time>2026-04-19T11:06:16Z</time></trkpt><trkpt lat="42.69152563204115" lon="12.654858651947512"><ele>533.0</ele><time>2026-04-19T11:06:17Z</time></trkpt><trkpt lat="42.69145530701711" lon="12.654818355299993"><ele>533.0</ele><time>2026-04-19T11:06:18Z</time></trkpt><trkpt lat="42.69135319639892" lon="12.6547279105685"><ele>533.0</ele><time>2026-04-19T11:06:20Z</time></trkpt><trkpt lat="42.691288934729975" lon="12.654593257197723"><ele>533.0</ele><time>2026-04-19T11:06:22.001Z</time></trkpt><trkpt lat="42.69126549868194" lon="12.65450555000675"><ele>533.0</ele><time>2026-04-19T11:06:23.001Z</time></trkpt><trkpt lat="42.691281006054126" lon="12.654372206532258"><ele>530.4</ele><time>2026-04-19T11:06:25.001Z</time></trkpt><trkpt lat="42.69129118360095" lon="12.654243070391713"><ele>527.8</ele><time>2026-04-19T11:06:27.001Z</time></trkpt><trkpt lat="42.69122860403482" lon="12.654104554970084"><ele>525.2</ele><time>2026-04-19T11:06:29.001Z</time></trkpt><trkpt lat="42.69113663979789" lon="12.653984575204937"><ele>522.6</ele><time>2026-04-19T11:06:31.001Z</time></trkpt><trkpt lat="42.6910666158944" lon="12.653914086457032"><ele>520.0</ele><time>2026-04-19T11:06:32.001Z</time></trkpt><trkpt lat="42.69100250794525" lon="12.653851284862013"><ele>520.0</ele><time>2026-04-19T11:06:33.001Z</time></trkpt><trkpt lat="42.69094441421429" lon="12.653793406787207"><ele>520.0</ele><time>2026-04-19T11:06:34.001Z</time></trkpt><trkpt lat="42.69083506266804" lon="12.653698308982532"><ele>520.0</ele><time>2026-04-19T11:06:36.001Z</time></trkpt><trkpt lat="42.690764126136585" lon="12.653643774534334"><ele>520.0</ele><time>2026-04-19T11:06:37.001Z</time></trkpt><trkpt lat="42.690683207131244" lon="12.65357341459922"><ele>520.0</ele><time>2026-04-19T11:06:38.001Z</time></trkpt><trkpt lat="42.6906074344335" lon="12.653513870777243"><ele>513.0</ele><time>2026-04-19T11:06:39.001Z</time></trkpt><trkpt lat="42.69053476107869" lon="12.65347151234976"><ele>506.0</ele><time>2026-04-19T11:06:40.001Z</time></trkpt><trkpt lat="42.69045933970271" lon="12.653435901335746"><ele>499.0</ele><time>2026-04-19T11:06:41.001Z</time></trkpt><trkpt lat="42.69038480584659" lon="12.65341891366478"><ele>492.0</ele><time>2026-04-19T11:06:42.001Z</time></trkpt><trkpt lat="42.69027858279796" lon="12.653405474620236"><ele>485.0</ele><time>2026-04-19T11:06:43.001Z</time></trkpt><trkpt lat="42.6901705273497" lon="12.65343054430896"><ele>484.4</ele><time>2026-04-19T11:06:44.001Z</time></trkpt><trkpt lat="42.69008977822955" lon="12.653451485425151"><ele>483.8</ele><time>2026-04-19T11:06:45.002Z</time></trkpt><trkpt lat="42.69000285918807" lon="12.653561334260926"><ele>483.20000000000005</ele><time>2026-04-19T11:06:47.002Z</time></trkpt><trkpt lat="42.68995693529121" lon="12.653680545422556"><ele>482.6</ele><time>2026-04-19T11:06:48.002Z</time></trkpt><trkpt lat="42.68990150892507" lon="12.653804522239671"><ele>482.0</ele><time>2026-04-19T11:06:49.002Z</time></trkpt><trkpt lat="42.689813989875354" lon="12.65390073470667"><ele>487.8</ele><time>2026-04-19T11:06:50.002Z</time></trkpt><trkpt lat="42.689716878081875" lon="12.65399187861367"><ele>493.6</ele><time>2026-04-19T11:06:51.002Z</time></trkpt><trkpt lat="42.68964444172015" lon="12.654067367779714"><ele>499.40000000000003</ele><time>2026-04-19T11:06:52.002Z</time></trkpt><trkpt lat="42.6895869954656" lon="12.654137483477712"><ele>505.20000000000005</ele><time>2026-04-19T11:06:53.002Z</time></trkpt><trkpt lat="42.68953606462086" lon="12.654204585132248"><ele>511.0</ele><time>2026-04-19T11:06:54.002Z</time></trkpt><trkpt lat="42.68942791959571" lon="12.654201592064384"><ele>510.0</ele><time>2026-04-19T11:06:56.002Z</time></trkpt><trkpt lat="42.68938152161272" lon="12.654092095056013"><ele>509.0</ele><time>2026-04-19T11:06:58.002Z</time></trkpt><trkpt lat="42.68935461079036" lon="12.653949146859446"><ele>508.0</ele><time>2026-04-19T11:07:00.002Z</time></trkpt><trkpt lat="42.68928358923028" lon="12.653874412501398"><ele>507.0</ele><time>2026-04-19T11:07:02.002Z</time></trkpt><trkpt lat="42.68915575019801" lon="12.653815312879118"><ele>506.0</ele><time>2026-04-19T11:07:04.002Z</time></trkpt><trkpt lat="42.689078774432176" lon="12.653784312155496"><ele>505.99999999999994</ele><time>2026-04-19T11:07:06.002Z</time></trkpt><trkpt lat="42.68910082302986" lon="12.65365966132308"><ele>506.0</ele><time>2026-04-19T11:07:08.002Z</time></trkpt><trkpt lat="42.68917247864476" lon="12.65357888305869"><ele>506.0</ele><time>2026-04-19T11:07:10.002Z</time></trkpt><trkpt lat="42.68923583924103" lon="12.65355686777059"><ele>506.0</ele><time>2026-04-19T11:07:12.002Z</time></trkpt><trkpt lat="42.689337054838624" lon="12.65356984643347"><ele>505.99999999999994</ele><time>2026-04-19T11:07:14.002Z</time></trkpt><trkpt lat="42.689389962288054" lon="12.653494418578026"><ele>506.0</ele><time>2026-04-19T11:07:16.003Z</time></trkpt><trkpt lat="42.6894361156485" lon="12.653423659935696"><ele>502.20000000000005</ele><time>2026-04-19T11:07:17.003Z</time></trkpt><trkpt lat="42.68944828233837" lon="12.65329734355971"><ele>498.40000000000003</ele><time>2026-04-19T11:07:19.003Z</time></trkpt><trkpt lat="42.68940275122572" lon="12.653229953839784"><ele>494.6</ele><time>2026-04-19T11:07:21.003Z</time></trkpt><trkpt lat="42.689370667119" lon="12.653115615930586"><ele>490.8</ele><time>2026-04-19T11:07:23.003Z</time></trkpt><trkpt lat="42.68941186368154" lon="12.652932762286838"><ele>487.0</ele><time>2026-04-19T11:07:25.003Z</time></trkpt><trkpt lat="42.689439533278126" lon="12.652819287785476"><ele>480.8</ele><time>2026-04-19T11:07:26.003Z</time></trkpt><trkpt lat="42.68950990381395" lon="12.65266261539239"><ele>474.6</ele><time>2026-04-19T11:07:28.003Z</time></trkpt><trkpt lat="42.68956611717733" lon="12.65255993757944"><ele>468.40000000000003</ele><time>2026-04-19T11:07:29.003Z</time></trkpt><trkpt lat="42.68961470604151" lon="12.652485586866185"><ele>462.20000000000005</ele><time>2026-04-19T11:07:30.003Z</time></trkpt><trkpt lat="42.68964143747609" lon="12.652388707403826"><ele>456.0</ele><time>2026-04-19T11:07:31.003Z</time></trkpt><trkpt lat="42.68965900671192" lon="12.652280350175122"><ele>456.0</ele><time>2026-04-19T11:07:32.003Z</time></trkpt><trkpt lat="42.68967279612336" lon="12.652179801414507"><ele>456.0</ele><time>2026-04-19T11:07:33.003Z</time></trkpt><trkpt lat="42.68968204782158" lon="12.652053683029784"><ele>456.0</ele><time>2026-04-19T11:07:34.003Z</time></trkpt><trkpt lat="42.6896902692468" lon="12.651921729780446"><ele>456.0</ele><time>2026-04-19T11:07:36.003Z</time></trkpt><trkpt lat="42.68962608799295" lon="12.651819841104603"><ele>456.0</ele><time>2026-04-19T11:07:38.003Z</time></trkpt><trkpt lat="42.689561167890325" lon="12.651773747787184"><ele>456.0</ele><time>2026-04-19T11:07:39.003Z</time></trkpt><trkpt lat="42.689483825715634" lon="12.651711054749653"><ele>456.0</ele><time>2026-04-19T11:07:40.003Z</time></trkpt><trkpt lat="42.68939047058231" lon="12.651618213573077"><ele>456.0</ele><time>2026-04-19T11:07:41.003Z</time></trkpt><trkpt lat="42.689311570460575" lon="12.651498647213915"><ele>456.0</ele><time>2026-04-19T11:07:42.003Z</time></trkpt><trkpt lat="42.68924662083045" lon="12.651408786076843"><ele>456.0</ele><time>2026-04-19T11:07:43.003Z</time></trkpt><trkpt lat="42.68919588374941" lon="12.65130703759773"><ele>456.0</ele><time>2026-04-19T11:07:44.003Z</time></trkpt><trkpt lat="42.68913640848052" lon="12.651176072914021"><ele>452.4</ele><time>2026-04-19T11:07:45.003Z</time></trkpt><trkpt lat="42.68908106542064" lon="12.651029998122196"><ele>448.8</ele><time>2026-04-19T11:07:46.003Z</time></trkpt><trkpt lat="42.68901872285374" lon="12.650885697688429"><ele>445.19999999999993</ele><time>2026-04-19T11:07:47.003Z</time></trkpt><trkpt lat="42.688972717615236" lon="12.650754991981549"><ele>441.59999999999997</ele><time>2026-04-19T11:07:47.999Z</time></trkpt><trkpt lat="42.68894180854657" lon="12.650630021159595"><ele>438.0</ele><time>2026-04-19T11:07:48.999Z</time></trkpt><trkpt lat="42.688874541775995" lon="12.650478616981635"><ele>438.0</ele><time>2026-04-19T11:07:49.999Z</time></trkpt><trkpt lat="42.68881427341574" lon="12.650379921790856"><ele>437.99999999999994</ele><time>2026-04-19T11:07:50.999Z</time></trkpt><trkpt lat="42.688745547797886" lon="12.6502804767674"><ele>437.99999999999994</ele><time>2026-04-19T11:07:52Z</time></trkpt><trkpt lat="42.688658029840084" lon="12.650193404363087"><ele>438.0</ele><time>2026-04-19T11:07:53Z</time></trkpt><trkpt lat="42.68853869602902" lon="12.650086591640843"><ele>438.0</ele><time>2026-04-19T11:07:54Z</time></trkpt><trkpt lat="42.688410293756355" lon="12.649978516901914"><ele>439.2</ele><time>2026-04-19T11:07:55Z</time></trkpt><trkpt lat="42.68832507303109" lon="12.649858154843825"><ele>440.4</ele><time>2026-04-19T11:07:56Z</time></trkpt><trkpt lat="42.688251078099796" lon="12.649764135871864"><ele>441.59999999999997</ele><time>2026-04-19T11:07:57Z</time></trkpt><trkpt lat="42.688174902873676" lon="12.649680589181111"><ele>442.79999999999995</ele><time>2026-04-19T11:07:58Z</time></trkpt><trkpt lat="42.68809346294092" lon="12.64961360098623"><ele>444.0</ele><time>2026-04-19T11:07:59Z</time></trkpt><trkpt lat="42.688023191422616" lon="12.649558872703992"><ele>444.0</ele><time>2026-04-19T11:08:00.001Z</time></trkpt><trkpt lat="42.6879143939194" lon="12.649508203179895"><ele>444.0</ele><time>2026-04-19T11:08:01.001Z</time></trkpt><trkpt lat="42.68781073208244" lon="12.649420787542933"><ele>444.0</ele><time>2026-04-19T11:08:02.001Z</time></trkpt><trkpt lat="42.68771096046148" lon="12.649359272572381"><ele>444.0</ele><time>2026-04-19T11:08:03.001Z</time></trkpt><trkpt lat="42.6876082432105" lon="12.649290613082133"><ele>446.0</ele><time>2026-04-19T11:08:04.001Z</time></trkpt><trkpt lat="42.687520686382584" lon="12.649233837301365"><ele>448.0</ele><time>2026-04-19T11:08:05.001Z</time></trkpt><trkpt lat="42.687455774012875" lon="12.649175221701219"><ele>450.0</ele><time>2026-04-19T11:08:06.001Z</time></trkpt><trkpt lat="42.68738461910383" lon="12.649010925768795"><ele>452.0</ele><time>2026-04-19T11:08:08.001Z</time></trkpt><trkpt lat="42.68734250963347" lon="12.648915859232478"><ele>454.0</ele><time>2026-04-19T11:08:09.002Z</time></trkpt><trkpt lat="42.68722817215037" lon="12.648798555259177"><ele>454.0</ele><time>2026-04-19T11:08:11.002Z</time></trkpt><trkpt lat="42.68713428114321" lon="12.648767650677705"><ele>454.0</ele><time>2026-04-19T11:08:12.002Z</time></trkpt><trkpt lat="42.68703378904459" lon="12.648755135315689"><ele>454.0</ele><time>2026-04-19T11:08:13.002Z</time></trkpt><trkpt lat="42.68693866900656" lon="12.648744772567659"><ele>454.0</ele><time>2026-04-19T11:08:14.002Z</time></trkpt><trkpt lat="42.6868674214261" lon="12.648725814838716"><ele>454.0</ele><time>2026-04-19T11:08:15.002Z</time></trkpt><trkpt lat="42.686755911585266" lon="12.648671917557522"><ele>455.1666666666667</ele><time>2026-04-19T11:08:17.002Z</time></trkpt><trkpt lat="42.686716156340886" lon="12.648573091919207"><ele>456.33333333333337</ele><time>2026-04-19T11:08:19.002Z</time></trkpt><trkpt lat="42.68667139334452" lon="12.648508295287112"><ele>457.5</ele><time>2026-04-19T11:08:21.002Z</time></trkpt><trkpt lat="42.68659290101606" lon="12.64851688998004"><ele>458.66666666666663</ele><time>2026-04-19T11:08:25.002Z</time></trkpt><trkpt lat="42.686523493032816" lon="12.648497677855218"><ele>459.8333333333333</ele><time>2026-04-19T11:08:28.002Z</time></trkpt><trkpt lat="42.68644107448385" lon="12.648421881510528"><ele>461.0</ele><time>2026-04-19T11:08:32.003Z</time></trkpt><trkpt lat="42.686377465334594" lon="12.648384442730427"><ele>460.99999999999994</ele><time>2026-04-19T11:08:34.003Z</time></trkpt><trkpt lat="42.68631712237774" lon="12.648322138488492"><ele>461.0</ele><time>2026-04-19T11:08:39.003Z</time></trkpt><trkpt lat="42.686288686041166" lon="12.648236882648972"><ele>461.0</ele><time>2026-04-19T11:08:41.003Z</time></trkpt><trkpt lat="42.686247498580904" lon="12.648132486288988"><ele>461.0</ele><time>2026-04-19T11:08:44.003Z</time></trkpt><trkpt lat="42.68620585481058" lon="12.648023016073207"><ele>460.99999999999994</ele><time>2026-04-19T11:08:47.003Z</time></trkpt><trkpt lat="42.68613038921525" lon="12.647963673113663"><ele>461.0</ele><time>2026-04-19T11:08:50.003Z</time></trkpt><trkpt lat="42.68607511309884" lon="12.647887155672159"><ele>462.3333333333333</ele><time>2026-04-19T11:08:54.003Z</time></trkpt><trkpt lat="42.68607213410515" lon="12.647777702339805"><ele>463.66666666666663</ele><time>2026-04-19T11:08:56.003Z</time></trkpt><trkpt lat="42.68601243651313" lon="12.647806868641476"><ele>465.0</ele><time>2026-04-19T11:09:08.003Z</time></trkpt><trkpt lat="42.68601792795069" lon="12.647909482144584"><ele>466.33333333333337</ele><time>2026-04-19T11:09:16.003Z</time></trkpt><trkpt lat="42.6859515417898" lon="12.64787634001358"><ele>467.6666666666667</ele><time>2026-04-19T11:09:22.003Z</time></trkpt><trkpt lat="42.68595694340206" lon="12.647790694352368"><ele>469.0</ele><time>2026-04-19T11:09:25.004Z</time></trkpt><trkpt lat="42.68597796406266" lon="12.647660717636974"><ele>469.1666666666667</ele><time>2026-04-19T11:09:28.004Z</time></trkpt><trkpt lat="42.68596373972863" lon="12.647525072290984"><ele>469.33333333333337</ele><time>2026-04-19T11:09:31.004Z</time></trkpt><trkpt lat="42.68593908731751" lon="12.64744116169576"><ele>469.5</ele><time>2026-04-19T11:09:34.004Z</time></trkpt><trkpt lat="42.6859305585252" lon="12.647339846420294"><ele>469.66666666666663</ele><time>2026-04-19T11:09:37.004Z</time></trkpt><trkpt lat="42.68595295388556" lon="12.64721044121205"><ele>469.8333333333333</ele><time>2026-04-19T11:09:40.004Z</time></trkpt><trkpt lat="42.68596541480226" lon="12.647086082707574"><ele>470.0</ele><time>2026-04-19T11:09:43.004Z</time></trkpt><trkpt lat="42.685990864699306" lon="12.647003345393998"><ele>470.99999999999994</ele><time>2026-04-19T11:09:45.004Z</time></trkpt><trkpt lat="42.68602279377927" lon="12.646862522862271"><ele>472.0</ele><time>2026-04-19T11:09:48.004Z</time></trkpt><trkpt lat="42.686039267826594" lon="12.646777756298425"><ele>473.0</ele><time>2026-04-19T11:09:50.004Z</time></trkpt><trkpt lat="42.68608898259001" lon="12.646714430018706"><ele>474.0</ele><time>2026-04-19T11:09:52.004Z</time></trkpt><trkpt lat="42.686122386625804" lon="12.646621506002163"><ele>474.99999999999994</ele><time>2026-04-19T11:09:53.999Z</time></trkpt><trkpt lat="42.686157718939796" lon="12.64647356541122"><ele>476.0</ele><time>2026-04-19T11:09:55.999Z</time></trkpt><trkpt lat="42.68615824124" lon="12.646376063596023"><ele>476.0</ele><time>2026-04-19T11:09:57.999Z</time></trkpt><trkpt lat="42.68616318573025" lon="12.646269662301934"><ele>476.0</ele><time>2026-04-19T11:09:59.999Z</time></trkpt><trkpt lat="42.68612053942614" lon="12.646108985462247"><ele>476.0</ele><time>2026-04-19T11:10:01.999Z</time></trkpt><trkpt lat="42.686081753915495" lon="12.645991966147747"><ele>476.0</ele><time>2026-04-19T11:10:02.999Z</time></trkpt><trkpt lat="42.686039951598794" lon="12.645851706024171"><ele>476.0</ele><time>2026-04-19T11:10:03.999Z</time></trkpt><trkpt lat="42.68600162767141" lon="12.645698630981357"><ele>478.8</ele><time>2026-04-19T11:10:05Z</time></trkpt><trkpt lat="42.68597438093393" lon="12.645607382973793"><ele>481.6</ele><time>2026-04-19T11:10:05.999Z</time></trkpt><trkpt lat="42.68591620997549" lon="12.645493905525184"><ele>484.4</ele><time>2026-04-19T11:10:07.999Z</time></trkpt><trkpt lat="42.6858520971774" lon="12.645420230894082"><ele>487.2</ele><time>2026-04-19T11:10:09Z</time></trkpt><trkpt lat="42.685772811320454" lon="12.645332031869426"><ele>490.0</ele><time>2026-04-19T11:10:10Z</time></trkpt><trkpt lat="42.68567372970805" lon="12.64521465673238"><ele>491.75</ele><time>2026-04-19T11:10:11Z</time></trkpt><trkpt lat="42.68557194316563" lon="12.645106311883774"><ele>493.5</ele><time>2026-04-19T11:10:12Z</time></trkpt><trkpt lat="42.68547256085501" lon="12.64501117073081"><ele>495.25</ele><time>2026-04-19T11:10:13Z</time></trkpt><trkpt lat="42.68537318690965" lon="12.644910012394837"><ele>497.0</ele><time>2026-04-19T11:10:14Z</time></trkpt><trkpt lat="42.685264919669685" lon="12.644803458041457"><ele>499.66666666666663</ele><time>2026-04-19T11:10:15Z</time></trkpt><trkpt lat="42.685163298234464" lon="12.644698747957914"><ele>502.3333333333333</ele><time>2026-04-19T11:10:16Z</time></trkpt><trkpt lat="42.685107550685885" lon="12.64463253563427"><ele>505.0</ele><time>2026-04-19T11:10:17Z</time></trkpt><trkpt lat="42.68505532010193" lon="12.644551539437453"><ele>507.66666666666663</ele><time>2026-04-19T11:10:18Z</time></trkpt><trkpt lat="42.685019071241726" lon="12.644452839011496"><ele>510.3333333333333</ele><time>2026-04-19T11:10:19Z</time></trkpt><trkpt lat="42.68499213671137" lon="12.644347594290027"><ele>513.0</ele><time>2026-04-19T11:10:20Z</time></trkpt><trkpt lat="42.68498942597468" lon="12.64424352925025"><ele>513.8</ele><time>2026-04-19T11:10:21Z</time></trkpt><trkpt lat="42.684997609513694" lon="12.644149478569126"><ele>514.5999999999999</ele><time>2026-04-19T11:10:22Z</time></trkpt><trkpt lat="42.68500930185912" lon="12.644058196971647"><ele>515.4000000000001</ele><time>2026-04-19T11:10:23Z</time></trkpt><trkpt lat="42.68508045386461" lon="12.643909818595164"><ele>516.2</ele><time>2026-04-19T11:10:25Z</time></trkpt><trkpt lat="42.685130524903066" lon="12.643798414501639"><ele>517.0</ele><time>2026-04-19T11:10:26Z</time></trkpt><trkpt lat="42.68526540299226" lon="12.643704733833998"><ele>517.0</ele><time>2026-04-19T11:10:28Z</time></trkpt><trkpt lat="42.68534641053334" lon="12.643644253472722"><ele>517.0</ele><time>2026-04-19T11:10:29Z</time></trkpt><trkpt lat="42.68538305139267" lon="12.643565582986787"><ele>517.0</ele><time>2026-04-19T11:10:30Z</time></trkpt><trkpt lat="42.685408814898516" lon="12.643475845787844"><ele>517.0</ele><time>2026-04-19T11:10:31Z</time></trkpt><trkpt lat="42.685426738310696" lon="12.643385368410675"><ele>517.0</ele><time>2026-04-19T11:10:32Z</time></trkpt><trkpt lat="42.685435501164456" lon="12.643233352122577"><ele>517.0</ele><time>2026-04-19T11:10:34Z</time></trkpt><trkpt lat="42.68546957255218" lon="12.64308383449879"><ele>517.0</ele><time>2026-04-19T11:10:36Z</time></trkpt><trkpt lat="42.68544505147498" lon="12.64300168758822"><ele>517.0</ele><time>2026-04-19T11:10:37Z</time></trkpt><trkpt lat="42.6854646137164" lon="12.642897159377453"><ele>517.0</ele><time>2026-04-19T11:10:41.001Z</time></trkpt><trkpt lat="42.6854704702504" lon="12.64277315413671"><ele>517.0</ele><time>2026-04-19T11:10:43.001Z</time></trkpt><trkpt lat="42.685545783022256" lon="12.642691245755422"><ele>517.0</ele><time>2026-04-19T11:10:44.001Z</time></trkpt><trkpt lat="42.68557397843628" lon="12.64260434156151"><ele>517.0</ele><time>2026-04-19T11:10:45.001Z</time></trkpt><trkpt lat="42.68558237683267" lon="12.642508626953855"><ele>519.2</ele><time>2026-04-19T11:10:46.001Z</time></trkpt><trkpt lat="42.68555747495186" lon="12.64239420046021"><ele>521.4000000000001</ele><time>2026-04-19T11:10:47.001Z</time></trkpt><trkpt lat="42.685521667299504" lon="12.642267604412096"><ele>523.5999999999999</ele><time>2026-04-19T11:10:48.001Z</time></trkpt><trkpt lat="42.68548336931439" lon="12.642127848763462"><ele>525.8</ele><time>2026-04-19T11:10:49.001Z</time></trkpt><trkpt lat="42.685445400898026" lon="12.641984353971019"><ele>528.0</ele><time>2026-04-19T11:10:50.001Z</time></trkpt><trkpt lat="42.68541466083936" lon="12.641840163410775"><ele>531.75</ele><time>2026-04-19T11:10:51.001Z</time></trkpt><trkpt lat="42.68539391199085" lon="12.64169469709338"><ele>535.5</ele><time>2026-04-19T11:10:52.001Z</time></trkpt><trkpt lat="42.68537456670786" lon="12.641537643795022"><ele>539.25</ele><time>2026-04-19T11:10:53.001Z</time></trkpt><trkpt lat="42.68534073661079" lon="12.641400324820847"><ele>543.0</ele><time>2026-04-19T11:10:54.001Z</time></trkpt><trkpt lat="42.68528608796303" lon="12.641254218247665"><ele>542.0</ele><time>2026-04-19T11:10:55.001Z</time></trkpt><trkpt lat="42.68525174730014" lon="12.64114840818267"><ele>541.0</ele><time>2026-04-19T11:10:56.001Z</time></trkpt><trkpt lat="42.68519774093316" lon="12.64107146226145"><ele>540.0</ele><time>2026-04-19T11:10:57.001Z</time></trkpt><trkpt lat="42.68513169748047" lon="12.64105449967037"><ele>539.0</ele><time>2026-04-19T11:10:58.001Z</time></trkpt><trkpt lat="42.685059411490975" lon="12.641079342004508"><ele>538.0</ele><time>2026-04-19T11:10:59.001Z</time></trkpt><trkpt lat="42.68499532018898" lon="12.641066660821572"><ele>537.0</ele><time>2026-04-19T11:11:00.001Z</time></trkpt><trkpt lat="42.684946719856214" lon="12.641011174007787"><ele>536.0</ele><time>2026-04-19T11:11:01.001Z</time></trkpt><trkpt lat="42.68491528266019" lon="12.640872434103219"><ele>536.0</ele><time>2026-04-19T11:11:03.001Z</time></trkpt><trkpt lat="42.684939701075976" lon="12.640681749315698"><ele>536.0</ele><time>2026-04-19T11:11:05.001Z</time></trkpt><trkpt lat="42.6850009235031" lon="12.640575249352926"><ele>536.0</ele><time>2026-04-19T11:11:06.001Z</time></trkpt><trkpt lat="42.68504738713353" lon="12.640446540002594"><ele>536.0</ele><time>2026-04-19T11:11:07.001Z</time></trkpt><trkpt lat="42.68507107658479" lon="12.640321593327752"><ele>536.0</ele><time>2026-04-19T11:11:08.001Z</time></trkpt><trkpt lat="42.68506632763369" lon="12.640186564873423"><ele>537.4</ele><time>2026-04-19T11:11:09.001Z</time></trkpt><trkpt lat="42.68507602482634" lon="12.640061930405492"><ele>538.8</ele><time>2026-04-19T11:11:10.001Z</time></trkpt><trkpt lat="42.68512316866731" lon="12.639941390249211"><ele>540.1999999999999</ele><time>2026-04-19T11:11:11.001Z</time></trkpt><trkpt lat="42.68517542026041" lon="12.639838126491911"><ele>541.6</ele><time>2026-04-19T11:11:12.001Z</time></trkpt><trkpt lat="42.68520449329784" lon="12.63974645085958"><ele>543.0</ele><time>2026-04-19T11:11:13.001Z</time></trkpt><trkpt lat="42.6852050053245" lon="12.639618000657983"><ele>543.0</ele><time>2026-04-19T11:11:14.001Z</time></trkpt><trkpt lat="42.68523191530452" lon="12.639469701765163"><ele>543.0</ele><time>2026-04-19T11:11:15.001Z</time></trkpt><trkpt lat="42.68522620310037" lon="12.639309119910825"><ele>543.0</ele><time>2026-04-19T11:11:16.001Z</time></trkpt><trkpt lat="42.68522710462902" lon="12.63917906064213"><ele>543.0</ele><time>2026-04-19T11:11:17.001Z</time></trkpt><trkpt lat="42.68522092367221" lon="12.639062968613155"><ele>543.0</ele><time>2026-04-19T11:11:18.001Z</time></trkpt><trkpt lat="42.6852277618773" lon="12.638961290558985"><ele>543.4</ele><time>2026-04-19T11:11:19.001Z</time></trkpt><trkpt lat="42.685244016762105" lon="12.638824396521208"><ele>543.8</ele><time>2026-04-19T11:11:20.001Z</time></trkpt><trkpt lat="42.685271494042524" lon="12.638671965776911"><ele>544.2</ele><time>2026-04-19T11:11:21.001Z</time></trkpt><trkpt lat="42.685307270108694" lon="12.638509003433064"><ele>544.6</ele><time>2026-04-19T11:11:22.001Z</time></trkpt><trkpt lat="42.685318515338174" lon="12.638366015814194"><ele>545.0</ele><time>2026-04-19T11:11:23.002Z</time></trkpt><trkpt lat="42.68535550756172" lon="12.63827756987913"><ele>548.0</ele><time>2026-04-19T11:11:24.002Z</time></trkpt><trkpt lat="42.68538037496258" lon="12.638195507478784"><ele>551.0</ele><time>2026-04-19T11:11:25.002Z</time></trkpt><trkpt lat="42.685497749941675" lon="12.638089542829192"><ele>554.0</ele><time>2026-04-19T11:11:28.002Z</time></trkpt><trkpt lat="42.68557201645842" lon="12.6381050461126"><ele>557.0</ele><time>2026-04-19T11:11:29.002Z</time></trkpt><trkpt lat="42.685640567215984" lon="12.638108057005141"><ele>560.0</ele><time>2026-04-19T11:11:30.002Z</time></trkpt><trkpt lat="42.68573592142577" lon="12.638086731276234"><ele>563.0</ele><time>2026-04-19T11:11:31.002Z</time></trkpt><trkpt lat="42.68580745026128" lon="12.638060650117477"><ele>563.0</ele><time>2026-04-19T11:11:32.002Z</time></trkpt><trkpt lat="42.68591272875273" lon="12.638004537304658"><ele>563.0</ele><time>2026-04-19T11:11:34.002Z</time></trkpt><trkpt lat="42.685894993411104" lon="12.637448983672895"><ele>559.4</ele><time>2026-04-19T11:11:35.002Z</time></trkpt><trkpt lat="42.685979968844975" lon="12.637362859847752"><ele>555.8</ele><time>2026-04-19T11:11:37.002Z</time></trkpt><trkpt lat="42.68611057885838" lon="12.637326466187833"><ele>552.2</ele><time>2026-04-19T11:11:39.002Z</time></trkpt><trkpt lat="42.68617502309674" lon="12.637342169494493"><ele>548.6</ele><time>2026-04-19T11:11:40.002Z</time></trkpt><trkpt lat="42.686245219558835" lon="12.637376700411385"><ele>545.0</ele><time>2026-04-19T11:11:41.002Z</time></trkpt><trkpt lat="42.686315552202124" lon="12.637411557664954"><ele>545.0</ele><time>2026-04-19T11:11:42.002Z</time></trkpt><trkpt lat="42.68639145652194" lon="12.637439441076333"><ele>545.0</ele><time>2026-04-19T11:11:43.002Z</time></trkpt><trkpt lat="42.68646403358633" lon="12.637446790096666"><ele>545.0</ele><time>2026-04-19T11:11:44.002Z</time></trkpt><trkpt lat="42.68654890196005" lon="12.637404976168925"><ele>545.0</ele><time>2026-04-19T11:11:45.002Z</time></trkpt><trkpt lat="42.68661547128225" lon="12.63735768643236"><ele>545.0</ele><time>2026-04-19T11:11:46.002Z</time></trkpt><trkpt lat="42.686694146110035" lon="12.637292322030106"><ele>545.0</ele><time>2026-04-19T11:11:47.002Z</time></trkpt><trkpt lat="42.68676444162593" lon="12.63722872721467"><ele>545.0</ele><time>2026-04-19T11:11:48.002Z</time></trkpt><trkpt lat="42.68683737450341" lon="12.637171155666282"><ele>545.0</ele><time>2026-04-19T11:11:49.002Z</time></trkpt><trkpt lat="42.68689232209554" lon="12.637098993740095"><ele>545.0</ele><time>2026-04-19T11:11:50.002Z</time></trkpt><trkpt lat="42.68690389259721" lon="12.636948406947889"><ele>545.0</ele><time>2026-04-19T11:11:52.002Z</time></trkpt><trkpt lat="42.68682078343028" lon="12.636869895169655"><ele>545.0</ele><time>2026-04-19T11:11:55.002Z</time></trkpt><trkpt lat="42.68675414326911" lon="12.636873944977232"><ele>545.0</ele><time>2026-04-19T11:11:56.002Z</time></trkpt><trkpt lat="42.68668735119004" lon="12.636859143521761"><ele>541.0</ele><time>2026-04-19T11:11:57.002Z</time></trkpt><trkpt lat="42.68663423251294" lon="12.636715732443262"><ele>537.0</ele><time>2026-04-19T11:11:59.002Z</time></trkpt><trkpt lat="42.68661453729005" lon="12.636630122467226"><ele>533.0</ele><time>2026-04-19T11:11:59.997Z</time></trkpt><trkpt lat="42.686527302882816" lon="12.636535023573245"><ele>529.0</ele><time>2026-04-19T11:12:01.997Z</time></trkpt><trkpt lat="42.68644907401588" lon="12.636494662778798"><ele>525.0</ele><time>2026-04-19T11:12:02.997Z</time></trkpt><trkpt lat="42.68637575366296" lon="12.636468998581835"><ele>525.0</ele><time>2026-04-19T11:12:03.997Z</time></trkpt><trkpt lat="42.68634831084093" lon="12.63632694509444"><ele>525.0</ele><time>2026-04-19T11:12:05.997Z</time></trkpt><trkpt lat="42.68638376318784" lon="12.636211107779742"><ele>525.0</ele><time>2026-04-19T11:12:06.997Z</time></trkpt><trkpt lat="42.68643753883333" lon="12.636149595612334"><ele>525.0</ele><time>2026-04-19T11:12:07.998Z</time></trkpt><trkpt lat="42.68653916981288" lon="12.636087434863622"><ele>525.0</ele><time>2026-04-19T11:12:08.998Z</time></trkpt><trkpt lat="42.68664113465878" lon="12.63603801920346"><ele>525.0</ele><time>2026-04-19T11:12:09.998Z</time></trkpt><trkpt lat="42.68671678839058" lon="12.635998289745713"><ele>525.0</ele><time>2026-04-19T11:12:10.998Z</time></trkpt><trkpt lat="42.686782369790706" lon="12.63599424501623"><ele>525.0</ele><time>2026-04-19T11:12:11.998Z</time></trkpt><trkpt lat="42.68686652687814" lon="12.635979250005917"><ele>525.0</ele><time>2026-04-19T11:12:12.998Z</time></trkpt><trkpt lat="42.686935360303444" lon="12.635963434525438"><ele>525.0</ele><time>2026-04-19T11:12:14.998Z</time></trkpt><trkpt lat="42.68688389623174" lon="12.635816591878843"><ele>525.0</ele><time>2026-04-19T11:12:17.999Z</time></trkpt><trkpt lat="42.68686171484154" lon="12.63570427676039"><ele>525.0</ele><time>2026-04-19T11:12:18.999Z</time></trkpt><trkpt lat="42.68683062854261" lon="12.635548726823346"><ele>525.0</ele><time>2026-04-19T11:12:20.999Z</time></trkpt><trkpt lat="42.686839889874406" lon="12.635445953621653"><ele>525.0</ele><time>2026-04-19T11:12:22.999Z</time></trkpt><trkpt lat="42.686904796377526" lon="12.635396431487575"><ele>525.0</ele><time>2026-04-19T11:12:23.999Z</time></trkpt><trkpt lat="42.68696514763619" lon="12.635350462714788"><ele>525.0</ele><time>2026-04-19T11:12:24.999Z</time></trkpt><trkpt lat="42.68702343998618" lon="12.635285173811853"><ele>525.0</ele><time>2026-04-19T11:12:25.999Z</time></trkpt><trkpt lat="42.687071992860616" lon="12.635211530518623"><ele>525.4</ele><time>2026-04-19T11:12:26.999Z</time></trkpt><trkpt lat="42.687128956547085" lon="12.635134427015865"><ele>525.8</ele><time>2026-04-19T11:12:27.999Z</time></trkpt><trkpt lat="42.68720190840128" lon="12.635086143057775"><ele>526.2</ele><time>2026-04-19T11:12:28.999Z</time></trkpt><trkpt lat="42.687286474151136" lon="12.635028176930637"><ele>526.6</ele><time>2026-04-19T11:12:30Z</time></trkpt><trkpt lat="42.687354176534114" lon="12.634927977479727"><ele>527.0</ele><time>2026-04-19T11:12:31Z</time></trkpt><trkpt lat="42.68741744016529" lon="12.634814625423543"><ele>527.0</ele><time>2026-04-19T11:12:32Z</time></trkpt><trkpt lat="42.68744942143631" lon="12.63472566257865"><ele>527.0</ele><time>2026-04-19T11:12:33Z</time></trkpt><trkpt lat="42.68753960559315" lon="12.634649820633733"><ele>527.0</ele><time>2026-04-19T11:12:35Z</time></trkpt><trkpt lat="42.68761821292359" lon="12.634594118857882"><ele>527.0</ele><time>2026-04-19T11:12:38Z</time></trkpt><trkpt lat="42.687669935205086" lon="12.634520764867482"><ele>527.0</ele><time>2026-04-19T11:12:39Z</time></trkpt><trkpt lat="42.687740421104465" lon="12.634458766080908"><ele>527.0</ele><time>2026-04-19T11:12:40Z</time></trkpt><trkpt lat="42.687811091960505" lon="12.634451979058873"><ele>528.3333333333333</ele><time>2026-04-19T11:12:43Z</time></trkpt><trkpt lat="42.68787360424978" lon="12.634406627313572"><ele>529.6666666666666</ele><time>2026-04-19T11:12:46Z</time></trkpt><trkpt lat="42.68795997023124" lon="12.63443094676885"><ele>531.0</ele><time>2026-04-19T11:12:48Z</time></trkpt><trkpt lat="42.68805825477605" lon="12.634402148730606"><ele>532.3333333333334</ele><time>2026-04-19T11:12:50Z</time></trkpt><trkpt lat="42.6881335924223" lon="12.634339263923028"><ele>533.6666666666667</ele><time>2026-04-19T11:12:52.001Z</time></trkpt><trkpt lat="42.688214685893996" lon="12.634257846384253"><ele>535.0</ele><time>2026-04-19T11:12:54.001Z</time></trkpt><trkpt lat="42.68827451568079" lon="12.634173527560941"><ele>535.0</ele><time>2026-04-19T11:12:55.001Z</time></trkpt><trkpt lat="42.68832817162395" lon="12.634097710045971"><ele>535.0</ele><time>2026-04-19T11:12:56.001Z</time></trkpt><trkpt lat="42.688406297277616" lon="12.63398215514346"><ele>535.0</ele><time>2026-04-19T11:12:58.001Z</time></trkpt><trkpt lat="42.688487972224166" lon="12.633889208135397"><ele>535.0</ele><time>2026-04-19T11:13:00.001Z</time></trkpt><trkpt lat="42.68850196483066" lon="12.633757918772325"><ele>535.0</ele><time>2026-04-19T11:13:02.001Z</time></trkpt><trkpt lat="42.688506074971535" lon="12.63365103471248"><ele>534.3333333333334</ele><time>2026-04-19T11:13:03.001Z</time></trkpt><trkpt lat="42.68851791415749" lon="12.633561946355012"><ele>533.6666666666667</ele><time>2026-04-19T11:13:04.001Z</time></trkpt><trkpt lat="42.688539354766576" lon="12.633394140397426"><ele>533.0</ele><time>2026-04-19T11:13:06.001Z</time></trkpt><trkpt lat="42.68857869549589" lon="12.633245735377024"><ele>532.3333333333334</ele><time>2026-04-19T11:13:08.001Z</time></trkpt><trkpt lat="42.68861171752871" lon="12.633170059105016"><ele>531.6666666666666</ele><time>2026-04-19T11:13:09.001Z</time></trkpt><trkpt lat="42.68865235321659" lon="12.63308402931477"><ele>531.0</ele><time>2026-04-19T11:13:10.001Z</time></trkpt><trkpt lat="42.68865696060457" lon="12.632952216909635"><ele>539.0</ele><time>2026-04-19T11:13:12.001Z</time></trkpt><trkpt lat="42.68887370541266" lon="12.632689626265378"><ele>547.0</ele><time>2026-04-19T11:13:19.001Z</time></trkpt><trkpt lat="42.68893298908484" lon="12.632617446711714"><ele>555.0</ele><time>2026-04-19T11:13:20.002Z</time></trkpt><trkpt lat="42.68898028641967" lon="12.632467904451593"><ele>555.0</ele><time>2026-04-19T11:13:22.002Z</time></trkpt><trkpt lat="42.68898309459466" lon="12.63228847687603"><ele>555.0</ele><time>2026-04-19T11:13:24.002Z</time></trkpt><trkpt lat="42.68898358054849" lon="12.632201760801872"><ele>555.0</ele><time>2026-04-19T11:13:25.002Z</time></trkpt><trkpt lat="42.68904552836627" lon="12.632123012040047"><ele>555.0</ele><time>2026-04-19T11:13:28.002Z</time></trkpt><trkpt lat="42.689131110360165" lon="12.632147784021749"><ele>555.0</ele><time>2026-04-19T11:13:31.002Z</time></trkpt><trkpt lat="42.68920568247006" lon="12.632112586682252"><ele>555.0</ele><time>2026-04-19T11:13:43.002Z</time></trkpt><trkpt lat="42.68929175744644" lon="12.632046957168697"><ele>557.8333333333334</ele><time>2026-04-19T11:13:45.002Z</time></trkpt><trkpt lat="42.68933568968041" lon="12.631944815506793"><ele>560.6666666666666</ele><time>2026-04-19T11:13:48.002Z</time></trkpt><trkpt lat="42.68935933825956" lon="12.631841737865184"><ele>563.5</ele><time>2026-04-19T11:13:50.002Z</time></trkpt><trkpt lat="42.689391904777594" lon="12.631709473242624"><ele>566.3333333333333</ele><time>2026-04-19T11:13:53.003Z</time></trkpt><trkpt lat="42.68940184795081" lon="12.631610952004893"><ele>569.1666666666666</ele><time>2026-04-19T11:13:55.003Z</time></trkpt><trkpt lat="42.68939991773644" lon="12.631517866385929"><ele>572.0</ele><time>2026-04-19T11:13:57.003Z</time></trkpt><trkpt lat="42.68940741740974" lon="12.631388524319814"><ele>570.8000000000001</ele><time>2026-04-19T11:13:59.003Z</time></trkpt><trkpt lat="42.689432768877644" lon="12.631263400429065"><ele>569.6</ele><time>2026-04-19T11:14:01.003Z</time></trkpt><trkpt lat="42.689451131750566" lon="12.631145105909411"><ele>568.4000000000001</ele><time>2026-04-19T11:14:03.003Z</time></trkpt><trkpt lat="42.68948110872533" lon="12.631029767856543"><ele>567.2</ele><time>2026-04-19T11:14:05.003Z</time></trkpt><trkpt lat="42.68950722537919" lon="12.630903486032404"><ele>566.0</ele><time>2026-04-19T11:14:06.998Z</time></trkpt><trkpt lat="42.68957192615325" lon="12.630826113241419"><ele>569.0</ele><time>2026-04-19T11:14:08.998Z</time></trkpt><trkpt lat="42.68963550447657" lon="12.630802726412684"><ele>572.0</ele><time>2026-04-19T11:14:09.998Z</time></trkpt><trkpt lat="42.68966060248081" lon="12.630591794086254"><ele>575.0</ele><time>2026-04-19T11:14:16.999Z</time></trkpt><trkpt lat="42.68957803513343" lon="12.630512497464139"><ele>578.0</ele><time>2026-04-19T11:14:18.999Z</time></trkpt><trkpt lat="42.68951094757468" lon="12.630405402852471"><ele>581.0</ele><time>2026-04-19T11:14:21Z</time></trkpt><trkpt lat="42.68941676006518" lon="12.630462020174651"><ele>582.5</ele><time>2026-04-19T11:14:23Z</time></trkpt><trkpt lat="42.68936215728082" lon="12.630392241387094"><ele>584.0</ele><time>2026-04-19T11:14:24Z</time></trkpt><trkpt lat="42.68925464602502" lon="12.630344074940638"><ele>585.5</ele><time>2026-04-19T11:14:26Z</time></trkpt><trkpt lat="42.689205016240116" lon="12.630273684455519"><ele>587.0</ele><time>2026-04-19T11:14:28Z</time></trkpt><trkpt lat="42.6892253188408" lon="12.6301398145609"><ele>588.5</ele><time>2026-04-19T11:14:30.001Z</time></trkpt><trkpt lat="42.68924357637219" lon="12.630056212905737"><ele>590.0</ele><time>2026-04-19T11:14:32.001Z</time></trkpt><trkpt lat="42.689303355643446" lon="12.629988363003696"><ele>591.0</ele><time>2026-04-19T11:14:34.001Z</time></trkpt><trkpt lat="42.68937088509909" lon="12.629930197427223"><ele>592.0</ele><time>2026-04-19T11:14:36.001Z</time></trkpt><trkpt lat="42.68947139301371" lon="12.629926592424841"><ele>593.0</ele><time>2026-04-19T11:14:38.001Z</time></trkpt><trkpt lat="42.689564399363164" lon="12.629920304254158"><ele>594.0</ele><time>2026-04-19T11:14:40.001Z</time></trkpt><trkpt lat="42.68962343992889" lon="12.629882085972927"><ele>595.0</ele><time>2026-04-19T11:14:41.001Z</time></trkpt><trkpt lat="42.689716312663315" lon="12.629848394037117"><ele>596.0</ele><time>2026-04-19T11:14:44.001Z</time></trkpt><trkpt lat="42.68979992220344" lon="12.629782659709996"><ele>596.0</ele><time>2026-04-19T11:14:46.001Z</time></trkpt><trkpt lat="42.68988755801321" lon="12.629832326036755"><ele>596.0</ele><time>2026-04-19T11:14:48.001Z</time></trkpt><trkpt lat="42.68999731364642" lon="12.629811662517488"><ele>596.0</ele><time>2026-04-19T11:14:50.002Z</time></trkpt><trkpt lat="42.69007169593031" lon="12.62974708380368"><ele>596.0</ele><time>2026-04-19T11:14:51.002Z</time></trkpt><trkpt lat="42.69017100866739" lon="12.629641752861831"><ele>596.0</ele><time>2026-04-19T11:14:53.002Z</time></trkpt><trkpt lat="42.69020763900561" lon="12.629496495523885"><ele>598.3333333333333</ele><time>2026-04-19T11:14:55.002Z</time></trkpt><trkpt lat="42.690279918458735" lon="12.629434759917025"><ele>600.6666666666666</ele><time>2026-04-19T11:14:57.002Z</time></trkpt><trkpt lat="42.690359994207384" lon="12.629417317426366"><ele>603.0</ele><time>2026-04-19T11:14:59.002Z</time></trkpt><trkpt lat="42.69040948272369" lon="12.629359428644003"><ele>605.3333333333334</ele><time>2026-04-19T11:15:00.002Z</time></trkpt><trkpt lat="42.69045643243893" lon="12.629242422992197"><ele>607.6666666666667</ele><time>2026-04-19T11:15:03.002Z</time></trkpt><trkpt lat="42.690534955143825" lon="12.629253219481877"><ele>610.0</ele><time>2026-04-19T11:15:05.002Z</time></trkpt><trkpt lat="42.69061963352489" lon="12.629243959346132"><ele>610.0</ele><time>2026-04-19T11:15:07.002Z</time></trkpt><trkpt lat="42.69070385145827" lon="12.629096993882262"><ele>610.0</ele><time>2026-04-19T11:15:09.002Z</time></trkpt><trkpt lat="42.69077496811873" lon="12.62896236721448"><ele>610.0</ele><time>2026-04-19T11:15:11.002Z</time></trkpt><trkpt lat="42.69080959049971" lon="12.62889080570566"><ele>610.0</ele><time>2026-04-19T11:15:12.002Z</time></trkpt><trkpt lat="42.690853405212096" lon="12.628747719430931"><ele>610.0</ele><time>2026-04-19T11:15:14.002Z</time></trkpt><trkpt lat="42.69088973351302" lon="12.628642851890056"><ele>610.8333333333334</ele><time>2026-04-19T11:15:15.002Z</time></trkpt><trkpt lat="42.69093416215534" lon="12.628552161477227"><ele>611.6666666666667</ele><time>2026-04-19T11:15:16.002Z</time></trkpt><trkpt lat="42.69097113764321" lon="12.628463687786292"><ele>612.5</ele><time>2026-04-19T11:15:17.002Z</time></trkpt><trkpt lat="42.69099912300969" lon="12.628383792727876"><ele>613.3333333333334</ele><time>2026-04-19T11:15:18.002Z</time></trkpt><trkpt lat="42.69100320294506" lon="12.628292981128858"><ele>614.1666666666666</ele><time>2026-04-19T11:15:19.002Z</time></trkpt><trkpt lat="42.69105529578433" lon="12.628178482215901"><ele>615.0</ele><time>2026-04-19T11:15:21.002Z</time></trkpt><trkpt lat="42.69112437512378" lon="12.628038134200724"><ele>611.25</ele><time>2026-04-19T11:15:23.002Z</time></trkpt><trkpt lat="42.691181378960316" lon="12.62796028357326"><ele>607.5</ele><time>2026-04-19T11:15:24.002Z</time></trkpt><trkpt lat="42.691259973064746" lon="12.627873588065015"><ele>603.75</ele><time>2026-04-19T11:15:26.002Z</time></trkpt><trkpt lat="42.69124520780807" lon="12.627735527538425"><ele>600.0</ele><time>2026-04-19T11:15:28.002Z</time></trkpt><trkpt lat="42.69138495917436" lon="12.627578875916848"><ele>596.6</ele><time>2026-04-19T11:15:29.002Z</time></trkpt><trkpt lat="42.691361590234635" lon="12.627491005270551"><ele>593.2</ele><time>2026-04-19T11:15:30.002Z</time></trkpt><trkpt lat="42.69133633003079" lon="12.627364906040768"><ele>589.8</ele><time>2026-04-19T11:15:32.002Z</time></trkpt><trkpt lat="42.69129946815815" lon="12.627189209209163"><ele>586.4</ele><time>2026-04-19T11:15:34.002Z</time></trkpt><trkpt lat="42.69126581289508" lon="12.627051856680685"><ele>583.0</ele><time>2026-04-19T11:15:36.002Z</time></trkpt><trkpt lat="42.691230732379886" lon="12.626908683211246"><ele>581.1999999999999</ele><time>2026-04-19T11:15:38.002Z</time></trkpt><trkpt lat="42.69119390493145" lon="12.62675748428667"><ele>579.4</ele><time>2026-04-19T11:15:40.002Z</time></trkpt><trkpt lat="42.69117364776319" lon="12.626674316178429"><ele>577.5999999999999</ele><time>2026-04-19T11:15:41.002Z</time></trkpt><trkpt lat="42.691121024791634" lon="12.626503557609505"><ele>575.8</ele><time>2026-04-19T11:15:43.003Z</time></trkpt><trkpt lat="42.69112356358537" lon="12.6263582830418"><ele>574.0</ele><time>2026-04-19T11:15:44.003Z</time></trkpt><trkpt lat="42.69113379228466" lon="12.626203198942592"><ele>575.25</ele><time>2026-04-19T11:15:45.003Z</time></trkpt><trkpt lat="42.69115915471622" lon="12.626025139644788"><ele>576.5</ele><time>2026-04-19T11:15:46.003Z</time></trkpt><trkpt lat="42.691153627294156" lon="12.62586696297108"><ele>577.75</ele><time>2026-04-19T11:15:47.003Z</time></trkpt><trkpt lat="42.69116785160527" lon="12.625748600316303"><ele>579.0</ele><time>2026-04-19T11:15:48.003Z</time></trkpt><trkpt lat="42.691284864695994" lon="12.62566657716691"><ele>579.0</ele><time>2026-04-19T11:15:49.003Z</time></trkpt><trkpt lat="42.691380747899586" lon="12.625612876714186"><ele>579.0</ele><time>2026-04-19T11:15:50.003Z</time></trkpt><trkpt lat="42.69149438553547" lon="12.62556937313957"><ele>579.0</ele><time>2026-04-19T11:15:51.003Z</time></trkpt><trkpt lat="42.69161218238981" lon="12.625554613033916"><ele>579.0</ele><time>2026-04-19T11:15:52.003Z</time></trkpt><trkpt lat="42.69171602501307" lon="12.625562233278744"><ele>579.0</ele><time>2026-04-19T11:15:53.003Z</time></trkpt><trkpt lat="42.69180291126892" lon="12.625554837304895"><ele>579.0</ele><time>2026-04-19T11:15:54.003Z</time></trkpt><trkpt lat="42.691873418914234" lon="12.625527419964957"><ele>579.0</ele><time>2026-04-19T11:15:55.003Z</time></trkpt><trkpt lat="42.691945444485654" lon="12.625481689738834"><ele>579.0</ele><time>2026-04-19T11:15:56.003Z</time></trkpt><trkpt lat="42.692020815769496" lon="12.625408893474994"><ele>579.0</ele><time>2026-04-19T11:15:57.003Z</time></trkpt><trkpt lat="42.69210943548141" lon="12.625326337133957"><ele>579.0</ele><time>2026-04-19T11:15:58.003Z</time></trkpt><trkpt lat="42.692198012696636" lon="12.625269136671468"><ele>580.3333333333334</ele><time>2026-04-19T11:15:59.003Z</time></trkpt><trkpt lat="42.692283320892635" lon="12.62525845709152"><ele>581.6666666666666</ele><time>2026-04-19T11:16:00.003Z</time></trkpt><trkpt lat="42.692357489554375" lon="12.625258292000067"><ele>583.0</ele><time>2026-04-19T11:16:01.003Z</time></trkpt><trkpt lat="42.69242474299847" lon="12.625252370795184"><ele>584.3333333333333</ele><time>2026-04-19T11:16:02.003Z</time></trkpt><trkpt lat="42.69251477464335" lon="12.62512072359417"><ele>585.6666666666666</ele><time>2026-04-19T11:16:04.003Z</time></trkpt><trkpt lat="42.69252869777875" lon="12.625015390718698"><ele>587.0</ele><time>2026-04-19T11:16:05.003Z</time></trkpt><trkpt lat="42.69253422679583" lon="12.62491697463562"><ele>587.0</ele><time>2026-04-19T11:16:06.003Z</time></trkpt><trkpt lat="42.69256137693146" lon="12.624816610150859"><ele>587.0</ele><time>2026-04-19T11:16:07.003Z</time></trkpt><trkpt lat="42.692576153437116" lon="12.624722370483545"><ele>587.0</ele><time>2026-04-19T11:16:08.003Z</time></trkpt><trkpt lat="42.692490064274764" lon="12.624581260568634"><ele>587.0</ele><time>2026-04-19T11:16:09.003Z</time></trkpt><trkpt lat="42.69243586623927" lon="12.624425844591002"><ele>587.0</ele><time>2026-04-19T11:16:10.003Z</time></trkpt><trkpt lat="42.69240341545518" lon="12.624273612583314"><ele>588.4</ele><time>2026-04-19T11:16:11.003Z</time></trkpt><trkpt lat="42.692363887716155" lon="12.624144310044633"><ele>589.8000000000001</ele><time>2026-04-19T11:16:11.998Z</time></trkpt><trkpt lat="42.69233654002873" lon="12.624022561707498"><ele>591.2</ele><time>2026-04-19T11:16:12.998Z</time></trkpt><trkpt lat="42.692315955336205" lon="12.623907901615581"><ele>592.6</ele><time>2026-04-19T11:16:13.998Z</time></trkpt><trkpt lat="42.69229980092782" lon="12.623783979693545"><ele>594.0</ele><time>2026-04-19T11:16:14.998Z</time></trkpt><trkpt lat="42.692292427632914" lon="12.623651386457203"><ele>593.2</ele><time>2026-04-19T11:16:15.998Z</time></trkpt><trkpt lat="42.692296621040214" lon="12.623521176454025"><ele>592.4</ele><time>2026-04-19T11:16:16.999Z</time></trkpt><trkpt lat="42.69232676526628" lon="12.623385404634865"><ele>591.6</ele><time>2026-04-19T11:16:17.999Z</time></trkpt><trkpt lat="42.692359785311496" lon="12.62324596065514"><ele>590.8</ele><time>2026-04-19T11:16:18.999Z</time></trkpt><trkpt lat="42.69240536386552" lon="12.62312992206948"><ele>590.0</ele><time>2026-04-19T11:16:19.999Z</time></trkpt><trkpt lat="42.69245556191764" lon="12.62300430951352"><ele>590.0</ele><time>2026-04-19T11:16:20.999Z</time></trkpt><trkpt lat="42.69251368749107" lon="12.62289932780701"><ele>590.0</ele><time>2026-04-19T11:16:21.999Z</time></trkpt><trkpt lat="42.69256082726476" lon="12.622787662986493"><ele>590.0</ele><time>2026-04-19T11:16:22.999Z</time></trkpt><trkpt lat="42.692610831095855" lon="12.622672158288701"><ele>590.0</ele><time>2026-04-19T11:16:23.999Z</time></trkpt><trkpt lat="42.69266536357241" lon="12.622578128619"><ele>590.0</ele><time>2026-04-19T11:16:24.999Z</time></trkpt><trkpt lat="42.69271080626224" lon="12.622494539393815"><ele>585.4</ele><time>2026-04-19T11:16:25.999Z</time></trkpt><trkpt lat="42.69272215643263" lon="12.622401006042105"><ele>580.8</ele><time>2026-04-19T11:16:26.999Z</time></trkpt><trkpt lat="42.69271009486952" lon="12.622303477736615"><ele>576.2</ele><time>2026-04-19T11:16:27.999Z</time></trkpt><trkpt lat="42.69267790276777" lon="12.622204635889851"><ele>571.6</ele><time>2026-04-19T11:16:28.999Z</time></trkpt><trkpt lat="42.692649789455075" lon="12.622092066579665"><ele>567.0</ele><time>2026-04-19T11:16:31Z</time></trkpt><trkpt lat="42.69250641423107" lon="12.622114181454226"><ele>567.0</ele><time>2026-04-19T11:16:34Z</time></trkpt><trkpt lat="42.69243063482203" lon="12.622138994622446"><ele>567.0</ele><time>2026-04-19T11:16:35Z</time></trkpt><trkpt lat="42.692317879789094" lon="12.622136399668571"><ele>567.0</ele><time>2026-04-19T11:16:37Z</time></trkpt><trkpt lat="42.69218317220885" lon="12.6220481808925"><ele>567.0</ele><time>2026-04-19T11:16:39Z</time></trkpt><trkpt lat="42.69208902792387" lon="12.621959783522199"><ele>564.8000000000001</ele><time>2026-04-19T11:16:40Z</time></trkpt><trkpt lat="42.69201786661508" lon="12.621861976596117"><ele>562.6</ele><time>2026-04-19T11:16:41Z</time></trkpt><trkpt lat="42.691945533381634" lon="12.621788760533594"><ele>560.4000000000001</ele><time>2026-04-19T11:16:42Z</time></trkpt><trkpt lat="42.69182795655655" lon="12.62169972919092"><ele>558.2</ele><time>2026-04-19T11:16:44Z</time></trkpt><trkpt lat="42.69171501985469" lon="12.621766046843685"><ele>556.0</ele><time>2026-04-19T11:16:45Z</time></trkpt><trkpt lat="42.691622618965326" lon="12.621754023970372"><ele>552.5</ele><time>2026-04-19T11:16:46Z</time></trkpt><trkpt lat="42.69146131569419" lon="12.621707745515888"><ele>549.0</ele><time>2026-04-19T11:16:48Z</time></trkpt><trkpt lat="42.6913748942563" lon="12.621670384024892"><ele>545.5</ele><time>2026-04-19T11:16:49.001Z</time></trkpt><trkpt lat="42.691272547674565" lon="12.621640229121798"><ele>542.0</ele><time>2026-04-19T11:16:50.001Z</time></trkpt><trkpt lat="42.69116568227166" lon="12.621586381181269"><ele>539.6</ele><time>2026-04-19T11:16:51.001Z</time></trkpt><trkpt lat="42.691080710146814" lon="12.621545638290119"><ele>537.2</ele><time>2026-04-19T11:16:52.001Z</time></trkpt><trkpt lat="42.69101552214266" lon="12.621515449295202"><ele>534.8</ele><time>2026-04-19T11:16:53.001Z</time></trkpt><trkpt lat="42.69095842984572" lon="12.621458241157992"><ele>532.4</ele><time>2026-04-19T11:16:54.001Z</time></trkpt><trkpt lat="42.69087114192021" lon="12.621400862880797"><ele>530.0</ele><time>2026-04-19T11:16:56.001Z</time></trkpt><trkpt lat="42.690752461316436" lon="12.621615046127628"><ele>530.0</ele><time>2026-04-19T11:16:57.001Z</time></trkpt><trkpt lat="42.69069394689636" lon="12.621673709540618"><ele>530.0</ele><time>2026-04-19T11:16:58.001Z</time></trkpt><trkpt lat="42.690630103534396" lon="12.621734958637633"><ele>530.0</ele><time>2026-04-19T11:16:59.001Z</time></trkpt><trkpt lat="42.69056787714635" lon="12.621751213421877"><ele>530.0</ele><time>2026-04-19T11:17:00.001Z</time></trkpt><trkpt lat="42.69049825052157" lon="12.621720470796962"><ele>530.0</ele><time>2026-04-19T11:17:01.001Z</time></trkpt><trkpt lat="42.69042002013918" lon="12.62165290554904"><ele>530.0</ele><time>2026-04-19T11:17:02.001Z</time></trkpt><trkpt lat="42.69033590777331" lon="12.621617203798158"><ele>528.3333333333333</ele><time>2026-04-19T11:17:03.001Z</time></trkpt><trkpt lat="42.690252669777884" lon="12.621605161492683"><ele>526.6666666666666</ele><time>2026-04-19T11:17:04.001Z</time></trkpt><trkpt lat="42.6901714927906" lon="12.621582160508476"><ele>525.0</ele><time>2026-04-19T11:17:05.001Z</time></trkpt><trkpt lat="42.69009450462012" lon="12.621550616645166"><ele>523.3333333333334</ele><time>2026-04-19T11:17:06.001Z</time></trkpt><trkpt lat="42.69000783506682" lon="12.621511424187176"><ele>521.6666666666667</ele><time>2026-04-19T11:17:07.001Z</time></trkpt><trkpt lat="42.689938526970785" lon="12.621484950615944"><ele>520.0</ele><time>2026-04-19T11:17:08.001Z</time></trkpt><trkpt lat="42.68987271175173" lon="12.621396502594935"><ele>520.0</ele><time>2026-04-19T11:17:09.001Z</time></trkpt><trkpt lat="42.68975646076542" lon="12.621302699123103"><ele>520.0</ele><time>2026-04-19T11:17:11.001Z</time></trkpt><trkpt lat="42.68967969939349" lon="12.621240442918594"><ele>520.0</ele><time>2026-04-19T11:17:12.001Z</time></trkpt><trkpt lat="42.68962939452767" lon="12.62116288519148"><ele>520.0</ele><time>2026-04-19T11:17:13.001Z</time></trkpt><trkpt lat="42.689527813465126" lon="12.621092496649055"><ele>520.0</ele><time>2026-04-19T11:17:15.001Z</time></trkpt><trkpt lat="42.689405920383024" lon="12.620986214603205"><ele>517.6</ele><time>2026-04-19T11:17:17.002Z</time></trkpt><trkpt lat="42.68930824521959" lon="12.620915976716706"><ele>515.2</ele><time>2026-04-19T11:17:18.002Z</time></trkpt><trkpt lat="42.6892378759267" lon="12.620840495879117"><ele>512.8</ele><time>2026-04-19T11:17:19.002Z</time></trkpt><trkpt lat="42.68917386474995" lon="12.620760350071517"><ele>510.4</ele><time>2026-04-19T11:17:20.002Z</time></trkpt><trkpt lat="42.689152085892594" lon="12.620661181330197"><ele>508.0</ele><time>2026-04-19T11:17:21.002Z</time></trkpt><trkpt lat="42.68915912327436" lon="12.620529305874843"><ele>508.0</ele><time>2026-04-19T11:17:23.002Z</time></trkpt><trkpt lat="42.68910920570954" lon="12.620338312918838"><ele>508.0</ele><time>2026-04-19T11:17:25.002Z</time></trkpt><trkpt lat="42.689033188191615" lon="12.620192795984277"><ele>508.0</ele><time>2026-04-19T11:17:26.002Z</time></trkpt><trkpt lat="42.68899559365006" lon="12.620112162082377"><ele>508.0</ele><time>2026-04-19T11:17:27.002Z</time></trkpt><trkpt lat="42.68890520478581" lon="12.619987813555944"><ele>506.79999999999995</ele><time>2026-04-19T11:17:29.002Z</time></trkpt><trkpt lat="42.68884613455186" lon="12.619934114905913"><ele>505.59999999999997</ele><time>2026-04-19T11:17:30.002Z</time></trkpt><trkpt lat="42.68875164084396" lon="12.61983242090688"><ele>504.40000000000003</ele><time>2026-04-19T11:17:32.002Z</time></trkpt><trkpt lat="42.688729541101445" lon="12.619686259044627"><ele>503.20000000000005</ele><time>2026-04-19T11:17:34.002Z</time></trkpt><trkpt lat="42.6887241607428" lon="12.619575975622258"><ele>502.0</ele><time>2026-04-19T11:17:35.002Z</time></trkpt><trkpt lat="42.68871624227832" lon="12.61946565783684"><ele>499.6666666666667</ele><time>2026-04-19T11:17:36.002Z</time></trkpt><trkpt lat="42.6886797865733" lon="12.619395422474138"><ele>497.33333333333337</ele><time>2026-04-19T11:17:37.002Z</time></trkpt><trkpt lat="42.68864332025994" lon="12.619316350491049"><ele>495.0</ele><time>2026-04-19T11:17:38.002Z</time></trkpt><trkpt lat="42.68860281838764" lon="12.619209402816269"><ele>492.66666666666663</ele><time>2026-04-19T11:17:39.002Z</time></trkpt><trkpt lat="42.688546607321555" lon="12.619143596551488"><ele>490.3333333333333</ele><time>2026-04-19T11:17:40.002Z</time></trkpt><trkpt lat="42.68847638481956" lon="12.619096167183374"><ele>488.0</ele><time>2026-04-19T11:17:41.002Z</time></trkpt><trkpt lat="42.68842288545417" lon="12.618978572860248"><ele>487.0</ele><time>2026-04-19T11:17:43.002Z</time></trkpt><trkpt lat="42.68840050814134" lon="12.618826489607146"><ele>486.0</ele><time>2026-04-19T11:17:45.002Z</time></trkpt><trkpt lat="42.68832806777002" lon="12.618727005023787"><ele>485.0</ele><time>2026-04-19T11:17:47.002Z</time></trkpt><trkpt lat="42.6882004681969" lon="12.618669230489816"><ele>484.0</ele><time>2026-04-19T11:17:49.002Z</time></trkpt><trkpt lat="42.68807426964735" lon="12.618607115839717"><ele>482.6666666666667</ele><time>2026-04-19T11:17:51.003Z</time></trkpt><trkpt lat="42.688010670459796" lon="12.618576833218787"><ele>481.33333333333337</ele><time>2026-04-19T11:17:52.003Z</time></trkpt><trkpt lat="42.68795112432336" lon="12.61853048536053"><ele>480.0</ele><time>2026-04-19T11:17:53.003Z</time></trkpt><trkpt lat="42.68789192124483" lon="12.61846366538625"><ele>478.66666666666663</ele><time>2026-04-19T11:17:54.003Z</time></trkpt><trkpt lat="42.68777063179007" lon="12.618398837939186"><ele>477.3333333333333</ele><time>2026-04-19T11:17:56.003Z</time></trkpt><trkpt lat="42.68771184395615" lon="12.618366905138979"><ele>476.0</ele><time>2026-04-19T11:17:57.003Z</time></trkpt><trkpt lat="42.68767124381462" lon="12.618261619879934"><ele>474.49999999999994</ele><time>2026-04-19T11:17:59.003Z</time></trkpt><trkpt lat="42.68757465867351" lon="12.618176853452992"><ele>473.0</ele><time>2026-04-19T11:18:01.003Z</time></trkpt><trkpt lat="42.68750784918323" lon="12.618143785196157"><ele>471.5</ele><time>2026-04-19T11:18:02.003Z</time></trkpt><trkpt lat="42.68744408502413" lon="12.618117061527927"><ele>470.0</ele><time>2026-04-19T11:18:03.003Z</time></trkpt><trkpt lat="42.6873743648107" lon="12.618119911246493"><ele>468.49999999999994</ele><time>2026-04-19T11:18:04.003Z</time></trkpt><trkpt lat="42.68728048012964" lon="12.618060544528477"><ele>467.0</ele><time>2026-04-19T11:18:06.003Z</time></trkpt><trkpt lat="42.687197885176936" lon="12.618006246703528"><ele>466.99999999999994</ele><time>2026-04-19T11:18:08.003Z</time></trkpt><trkpt lat="42.68713118811647" lon="12.617991624212998"><ele>467.0</ele><time>2026-04-19T11:18:10.003Z</time></trkpt><trkpt lat="42.68714605934553" lon="12.617903452566585"><ele>467.0</ele><time>2026-04-19T11:18:12.003Z</time></trkpt><trkpt lat="42.68718267721605" lon="12.617785026434516"><ele>467.0</ele><time>2026-04-19T11:18:15.003Z</time></trkpt><trkpt lat="42.687162584306414" lon="12.617636536979077"><ele>466.99999999999994</ele><time>2026-04-19T11:18:17.003Z</time></trkpt><trkpt lat="42.68716802952315" lon="12.617518699972939"><ele>467.0</ele><time>2026-04-19T11:18:17.999Z</time></trkpt><trkpt lat="42.68714958227617" lon="12.617428542269291"><ele>465.40000000000003</ele><time>2026-04-19T11:18:18.999Z</time></trkpt><trkpt lat="42.6871611224618" lon="12.617301628431862"><ele>463.80000000000007</ele><time>2026-04-19T11:18:20.999Z</time></trkpt><trkpt lat="42.687215163414294" lon="12.617153169923084"><ele>462.2</ele><time>2026-04-19T11:18:22.999Z</time></trkpt><trkpt lat="42.68726282425177" lon="12.617075826500443"><ele>460.6</ele><time>2026-04-19T11:18:23.999Z</time></trkpt><trkpt lat="42.687293484063446" lon="12.616994142937383"><ele>459.0</ele><time>2026-04-19T11:18:25Z</time></trkpt><trkpt lat="42.68732339839586" lon="12.616866070102368"><ele>457.7142857142857</ele><time>2026-04-19T11:18:27Z</time></trkpt><trkpt lat="42.68732914380912" lon="12.61676441911748"><ele>456.42857142857144</ele><time>2026-04-19T11:18:28Z</time></trkpt><trkpt lat="42.687354945535574" lon="12.616654206076223"><ele>455.14285714285717</ele><time>2026-04-19T11:18:29Z</time></trkpt><trkpt lat="42.68737076167039" lon="12.616557133442283"><ele>453.8571428571429</ele><time>2026-04-19T11:18:30Z</time></trkpt><trkpt lat="42.68736896869599" lon="12.616467533119362"><ele>452.57142857142856</ele><time>2026-04-19T11:18:31Z</time></trkpt><trkpt lat="42.687356293614855" lon="12.616375099852416"><ele>451.28571428571433</ele><time>2026-04-19T11:18:32Z</time></trkpt><trkpt lat="42.68733097717533" lon="12.616292258882115"><ele>450.00000000000006</ele><time>2026-04-19T11:18:33Z</time></trkpt><trkpt lat="42.68730483728261" lon="12.616213520669028"><ele>451.0</ele><time>2026-04-19T11:18:36Z</time></trkpt><trkpt lat="42.687258044639194" lon="12.616097370697972"><ele>452.0</ele><time>2026-04-19T11:18:40Z</time></trkpt><trkpt lat="42.68717855742196" lon="12.616082056719828"><ele>453.0</ele><time>2026-04-19T11:18:42Z</time></trkpt><trkpt lat="42.68711898256965" lon="12.61598432185191"><ele>454.0</ele><time>2026-04-19T11:18:45Z</time></trkpt><trkpt lat="42.687054430978336" lon="12.615926318364286"><ele>455.0</ele><time>2026-04-19T11:18:47Z</time></trkpt><trkpt lat="42.68696156744848" lon="12.61585887684112"><ele>455.66666666666663</ele><time>2026-04-19T11:18:49Z</time></trkpt><trkpt lat="42.686855099809385" lon="12.615755143036308"><ele>456.3333333333333</ele><time>2026-04-19T11:18:51.001Z</time></trkpt><trkpt lat="42.6867869879059" lon="12.615712256783986"><ele>457.0</ele><time>2026-04-19T11:18:52.001Z</time></trkpt><trkpt lat="42.686721288238104" lon="12.615668974958105"><ele>457.66666666666663</ele><time>2026-04-19T11:18:53.001Z</time></trkpt><trkpt lat="42.68665534392908" lon="12.615617727500018"><ele>458.3333333333333</ele><time>2026-04-19T11:18:54.001Z</time></trkpt><trkpt lat="42.68659469521328" lon="12.615548213618068"><ele>459.0</ele><time>2026-04-19T11:18:55.001Z</time></trkpt><trkpt lat="42.686541237335476" lon="12.615490381600269"><ele>459.0</ele><time>2026-04-19T11:18:56.001Z</time></trkpt><trkpt lat="42.68650284977935" lon="12.615407528905711"><ele>459.0</ele><time>2026-04-19T11:18:57.001Z</time></trkpt><trkpt lat="42.686398996264785" lon="12.615306597131031"><ele>459.0</ele><time>2026-04-19T11:18:59.001Z</time></trkpt><trkpt lat="42.68632185534512" lon="12.615305715983238"><ele>459.0</ele><time>2026-04-19T11:19:00.001Z</time></trkpt><trkpt lat="42.68624664424237" lon="12.615422647152535"><ele>459.0</ele><time>2026-04-19T11:19:02.001Z</time></trkpt><trkpt lat="42.68619498745911" lon="12.61551548160165"><ele>459.0</ele><time>2026-04-19T11:19:04.001Z</time></trkpt><trkpt lat="42.686124557876944" lon="12.615482254407635"><ele>459.0</ele><time>2026-04-19T11:19:07.001Z</time></trkpt><trkpt lat="42.686020244445345" lon="12.615436416421856"><ele>459.0</ele><time>2026-04-19T11:19:09.001Z</time></trkpt><trkpt lat="42.68593432189928" lon="12.615381382974777"><ele>459.0</ele><time>2026-04-19T11:19:11.001Z</time></trkpt><trkpt lat="42.68589478148929" lon="12.61523664718029"><ele>459.0</ele><time>2026-04-19T11:19:13.001Z</time></trkpt><trkpt lat="42.685789581006645" lon="12.615140057464453"><ele>462.0</ele><time>2026-04-19T11:19:15.001Z</time></trkpt><trkpt lat="42.68574888516" lon="12.615012531198536"><ele>465.0</ele><time>2026-04-19T11:19:17.001Z</time></trkpt><trkpt lat="42.685740422823265" lon="12.614914520331071"><ele>468.0</ele><time>2026-04-19T11:19:18.001Z</time></trkpt><trkpt lat="42.6857164054246" lon="12.614787905284294"><ele>471.0</ele><time>2026-04-19T11:19:19.001Z</time></trkpt><trkpt lat="42.685691211915476" lon="12.614685026420485"><ele>474.0</ele><time>2026-04-19T11:19:20.001Z</time></trkpt><trkpt lat="42.68565991575939" lon="12.61458445260535"><ele>477.0</ele><time>2026-04-19T11:19:21.001Z</time></trkpt><trkpt lat="42.6856232190709" lon="12.614456304287216"><ele>479.40000000000003</ele><time>2026-04-19T11:19:23.002Z</time></trkpt><trkpt lat="42.68562285686458" lon="12.614341697707617"><ele>481.80000000000007</ele><time>2026-04-19T11:19:24.002Z</time></trkpt><trkpt lat="42.6856338257896" lon="12.614250670531982"><ele>484.2</ele><time>2026-04-19T11:19:25.002Z</time></trkpt><trkpt lat="42.685593264645334" lon="12.61410688044838"><ele>486.6</ele><time>2026-04-19T11:19:27.002Z</time></trkpt><trkpt lat="42.68561499209125" lon="12.613952914896437"><ele>489.0</ele><time>2026-04-19T11:19:29.002Z</time></trkpt><trkpt lat="42.685624250571536" lon="12.613764015633057"><ele>490.8571428571429</ele><time>2026-04-19T11:19:31.002Z</time></trkpt><trkpt lat="42.68565044710955" lon="12.613652377800298"><ele>492.7142857142858</ele><time>2026-04-19T11:19:32.002Z</time></trkpt><trkpt lat="42.68568703039531" lon="12.613573518870206"><ele>494.57142857142856</ele><time>2026-04-19T11:19:34.002Z</time></trkpt><trkpt lat="42.68569787487847" lon="12.613486524230904"><ele>496.42857142857144</ele><time>2026-04-19T11:19:37.002Z</time></trkpt><trkpt lat="42.685646771295374" lon="12.613415863676579"><ele>498.2857142857143</ele><time>2026-04-19T11:19:41.002Z</time></trkpt><trkpt lat="42.685676287497536" lon="12.613305990072828"><ele>500.1428571428571</ele><time>2026-04-19T11:19:44.002Z</time></trkpt><trkpt lat="42.685706666955014" lon="12.613229925414318"><ele>501.99999999999994</ele><time>2026-04-19T11:19:45.002Z</time></trkpt><trkpt lat="42.68572544446886" lon="12.61310658189366"><ele>502.00000000000006</ele><time>2026-04-19T11:19:47.002Z</time></trkpt><trkpt lat="42.68575691761488" lon="12.61301196605002"><ele>502.0</ele><time>2026-04-19T11:19:49.002Z</time></trkpt><trkpt lat="42.685824869652045" lon="12.612907558697268"><ele>502.0</ele><time>2026-04-19T11:19:51.002Z</time></trkpt><trkpt lat="42.68586917008637" lon="12.612784966347977"><ele>502.0</ele><time>2026-04-19T11:19:53.002Z</time></trkpt><trkpt lat="42.6858742295219" lon="12.612671794145694"><ele>502.00000000000006</ele><time>2026-04-19T11:19:55.002Z</time></trkpt><trkpt lat="42.685913901069036" lon="12.612584466893686"><ele>502.0</ele><time>2026-04-19T11:19:57.002Z</time></trkpt><trkpt lat="42.68593069089061" lon="12.612500206656078"><ele>504.6</ele><time>2026-04-19T11:19:58.002Z</time></trkpt><trkpt lat="42.68594166353506" lon="12.612346007482854"><ele>507.20000000000005</ele><time>2026-04-19T11:20:00.003Z</time></trkpt><trkpt lat="42.68590441475676" lon="12.612207381099152"><ele>509.8</ele><time>2026-04-19T11:20:02.003Z</time></trkpt><trkpt lat="42.68586400045529" lon="12.612061208185864"><ele>512.4</ele><time>2026-04-19T11:20:04.003Z</time></trkpt><trkpt lat="42.68583860658834" lon="12.611926122316671"><ele>515.0</ele><time>2026-04-19T11:20:06.003Z</time></trkpt><trkpt lat="42.68585948577204" lon="12.611817881167573"><ele>517.6</ele><time>2026-04-19T11:20:08.003Z</time></trkpt><trkpt lat="42.68582792243407" lon="12.611713243847932"><ele>520.2</ele><time>2026-04-19T11:20:10.003Z</time></trkpt><trkpt lat="42.6857989222872" lon="12.611593647486943"><ele>522.8</ele><time>2026-04-19T11:20:12.003Z</time></trkpt><trkpt lat="42.68576714104811" lon="12.61146342026746"><ele>525.4</ele><time>2026-04-19T11:20:14.003Z</time></trkpt><trkpt lat="42.685794773941375" lon="12.611335266265334"><ele>528.0</ele><time>2026-04-19T11:20:18.003Z</time></trkpt><trkpt lat="42.68573759372344" lon="12.611206883675912"><ele>531.0</ele><time>2026-04-19T11:20:20.003Z</time></trkpt><trkpt lat="42.685708784909586" lon="12.611098967420409"><ele>534.0</ele><time>2026-04-19T11:20:22.003Z</time></trkpt><trkpt lat="42.68565869975725" lon="12.611023156334864"><ele>537.0</ele><time>2026-04-19T11:20:25Z</time></trkpt><trkpt lat="42.68567831035689" lon="12.610938079876462"><ele>540.0</ele><time>2026-04-19T11:20:28Z</time></trkpt><trkpt lat="42.68575303170829" lon="12.610894069929495"><ele>543.0</ele><time>2026-04-19T11:20:29Z</time></trkpt><trkpt lat="42.685814424231346" lon="12.610848544860731"><ele>546.0</ele><time>2026-04-19T11:20:30Z</time></trkpt><trkpt lat="42.685907489412166" lon="12.610819901948089"><ele>546.0</ele><time>2026-04-19T11:20:32Z</time></trkpt><trkpt lat="42.68603713474668" lon="12.61080148418957"><ele>546.0</ele><time>2026-04-19T11:20:34Z</time></trkpt><trkpt lat="42.68612186039241" lon="12.610776037161504"><ele>546.0</ele><time>2026-04-19T11:20:35Z</time></trkpt><trkpt lat="42.68619488597437" lon="12.610712812174691"><ele>546.0</ele><time>2026-04-19T11:20:36Z</time></trkpt><trkpt lat="42.68626234305234" lon="12.610605397404429"><ele>546.0</ele><time>2026-04-19T11:20:37Z</time></trkpt><trkpt lat="42.686330739811986" lon="12.61057409635894"><ele>545.2</ele><time>2026-04-19T11:20:38Z</time></trkpt><trkpt lat="42.686417383658835" lon="12.610507235776264"><ele>544.4000000000001</ele><time>2026-04-19T11:20:40Z</time></trkpt><trkpt lat="42.68645120449597" lon="12.610424386742014"><ele>543.6</ele><time>2026-04-19T11:20:41Z</time></trkpt><trkpt lat="42.68653266928042" lon="12.610266023023726"><ele>542.8000000000001</ele><time>2026-04-19T11:20:43Z</time></trkpt><trkpt lat="42.686592582485915" lon="12.610170121250162"><ele>542.0</ele><time>2026-04-19T11:20:44Z</time></trkpt><trkpt lat="42.686670769839324" lon="12.610075801442862"><ele>544.1666666666666</ele><time>2026-04-19T11:20:45Z</time></trkpt><trkpt lat="42.68675300006273" lon="12.609993225357666"><ele>546.3333333333333</ele><time>2026-04-19T11:20:47Z</time></trkpt><trkpt lat="42.68685815997151" lon="12.609965932226995"><ele>548.5</ele><time>2026-04-19T11:20:50Z</time></trkpt><trkpt lat="42.68693073897503" lon="12.60992631337581"><ele>550.6666666666666</ele><time>2026-04-19T11:20:52Z</time></trkpt><trkpt lat="42.686982838662715" lon="12.609856400358149"><ele>552.8333333333334</ele><time>2026-04-19T11:20:55Z</time></trkpt><trkpt lat="42.687019860538676" lon="12.609772385075852"><ele>555.0</ele><time>2026-04-19T11:20:56.001Z</time></trkpt><trkpt lat="42.68707579603305" lon="12.609691260354866"><ele>555.0</ele><time>2026-04-19T11:20:57.001Z</time></trkpt><trkpt lat="42.687108084270214" lon="12.609607889203849"><ele>555.0</ele><time>2026-04-19T11:20:59.001Z</time></trkpt><trkpt lat="42.687112435068386" lon="12.609512979309343"><ele>555.0</ele><time>2026-04-19T11:21:01.001Z</time></trkpt><trkpt lat="42.68708194173871" lon="12.60937222988924"><ele>555.0</ele><time>2026-04-19T11:21:03.001Z</time></trkpt><trkpt lat="42.68706888920184" lon="12.60926071533327"><ele>555.0</ele><time>2026-04-19T11:21:04.001Z</time></trkpt><trkpt lat="42.68700758536745" lon="12.609180053644003"><ele>555.0</ele><time>2026-04-19T11:21:05.001Z</time></trkpt><trkpt lat="42.686930369363424" lon="12.609093014362905"><ele>555.4</ele><time>2026-04-19T11:21:06.001Z</time></trkpt><trkpt lat="42.68685149006845" lon="12.609000771518645"><ele>555.8</ele><time>2026-04-19T11:21:07.001Z</time></trkpt><trkpt lat="42.686790566131684" lon="12.608894745597592"><ele>556.2</ele><time>2026-04-19T11:21:08.001Z</time></trkpt><trkpt lat="42.68675346293409" lon="12.608773863151688"><ele>556.6</ele><time>2026-04-19T11:21:09.001Z</time></trkpt><trkpt lat="42.686720236515974" lon="12.608638455041133"><ele>557.0</ele><time>2026-04-19T11:21:10.001Z</time></trkpt><trkpt lat="42.68669350060376" lon="12.6085246101643"><ele>557.0</ele><time>2026-04-19T11:21:11.001Z</time></trkpt><trkpt lat="42.68666611271505" lon="12.608416869091842"><ele>557.0</ele><time>2026-04-19T11:21:12.001Z</time></trkpt><trkpt lat="42.68663226948739" lon="12.608304986964601"><ele>557.0</ele><time>2026-04-19T11:21:13.001Z</time></trkpt><trkpt lat="42.68658701398841" lon="12.608190478874462"><ele>557.0</ele><time>2026-04-19T11:21:14.001Z</time></trkpt><trkpt lat="42.68652702907018" lon="12.608083276106765"><ele>557.0</ele><time>2026-04-19T11:21:15.001Z</time></trkpt><trkpt lat="42.68648998149351" lon="12.607979183184428"><ele>557.0</ele><time>2026-04-19T11:21:16.001Z</time></trkpt><trkpt lat="42.686465486781266" lon="12.607844511409798"><ele>557.0</ele><time>2026-04-19T11:21:18.001Z</time></trkpt><trkpt lat="42.686358109615284" lon="12.607835828567666"><ele>557.0</ele><time>2026-04-19T11:21:20.001Z</time></trkpt><trkpt lat="42.68624304838178" lon="12.60776019338691"><ele>557.0</ele><time>2026-04-19T11:21:22.001Z</time></trkpt><trkpt lat="42.6861646158311" lon="12.607700209075077"><ele>557.0</ele><time>2026-04-19T11:21:23.001Z</time></trkpt><trkpt lat="42.686066371764184" lon="12.6076427238086"><ele>557.75</ele><time>2026-04-19T11:21:24.001Z</time></trkpt><trkpt lat="42.68595529511504" lon="12.607577729955059"><ele>558.5</ele><time>2026-04-19T11:21:25.001Z</time></trkpt><trkpt lat="42.68584311261743" lon="12.607525422572552"><ele>559.25</ele><time>2026-04-19T11:21:26.002Z</time></trkpt><trkpt lat="42.68572750720422" lon="12.607465392893111"><ele>560.0</ele><time>2026-04-19T11:21:27.002Z</time></trkpt><trkpt lat="42.685610635857365" lon="12.607395213364162"><ele>560.0</ele><time>2026-04-19T11:21:28.002Z</time></trkpt><trkpt lat="42.68549006841726" lon="12.607333649622806"><ele>560.0</ele><time>2026-04-19T11:21:29.002Z</time></trkpt><trkpt lat="42.685369971641336" lon="12.607273648296706"><ele>560.0</ele><time>2026-04-19T11:21:30.002Z</time></trkpt><trkpt lat="42.68525577640325" lon="12.60720880396576"><ele>560.0</ele><time>2026-04-19T11:21:31.002Z</time></trkpt><trkpt lat="42.685146836286584" lon="12.607133465976707"><ele>557.8333333333333</ele><time>2026-04-19T11:21:32.002Z</time></trkpt><trkpt lat="42.685054976380854" lon="12.607076311444702"><ele>555.6666666666666</ele><time>2026-04-19T11:21:33.002Z</time></trkpt><trkpt lat="42.684972242698265" lon="12.607013629258955"><ele>553.5</ele><time>2026-04-19T11:21:34.002Z</time></trkpt><trkpt lat="42.68491398301011" lon="12.606934189514991"><ele>551.3333333333334</ele><time>2026-04-19T11:21:35.002Z</time></trkpt><trkpt lat="42.684852049510745" lon="12.606855679123237"><ele>549.1666666666667</ele><time>2026-04-19T11:21:36.002Z</time></trkpt><trkpt lat="42.68477876528286" lon="12.60679918052386"><ele>547.0</ele><time>2026-04-19T11:21:37.002Z</time></trkpt><trkpt lat="42.68471048925104" lon="12.60674437820724"><ele>547.0</ele><time>2026-04-19T11:21:38.002Z</time></trkpt><trkpt lat="42.68461880611317" lon="12.606711169810527"><ele>547.0</ele><time>2026-04-19T11:21:39.002Z</time></trkpt><trkpt lat="42.68450527449759" lon="12.606677176704231"><ele>547.0</ele><time>2026-04-19T11:21:40.002Z</time></trkpt><trkpt lat="42.68438131579825" lon="12.6066020854358"><ele>547.0</ele><time>2026-04-19T11:21:41.002Z</time></trkpt><trkpt lat="42.68424107643294" lon="12.606534649952822"><ele>550.5</ele><time>2026-04-19T11:21:42.002Z</time></trkpt><trkpt lat="42.684092037458164" lon="12.60647395979331"><ele>554.0</ele><time>2026-04-19T11:21:43.002Z</time></trkpt><trkpt lat="42.683976948814276" lon="12.606391792642874"><ele>557.5</ele><time>2026-04-19T11:21:44.002Z</time></trkpt><trkpt lat="42.68388778701304" lon="12.606311964963476"><ele>561.0</ele><time>2026-04-19T11:21:45.002Z</time></trkpt><trkpt lat="42.68384290722287" lon="12.606206739598655"><ele>560.2</ele><time>2026-04-19T11:21:46.002Z</time></trkpt><trkpt lat="42.68378711093661" lon="12.606146199170283"><ele>559.4000000000001</ele><time>2026-04-19T11:21:47.002Z</time></trkpt><trkpt lat="42.68369978779867" lon="12.606141567416731"><ele>558.6</ele><time>2026-04-19T11:21:48.002Z</time></trkpt><trkpt lat="42.683596659523836" lon="12.60612399339645"><ele>557.8000000000001</ele><time>2026-04-19T11:21:49.002Z</time></trkpt><trkpt lat="42.68345872769628" lon="12.606100295564971"><ele>557.0</ele><time>2026-04-19T11:21:50.002Z</time></trkpt><trkpt lat="42.683320766008336" lon="12.606062195755026"><ele>557.0</ele><time>2026-04-19T11:21:51.002Z</time></trkpt><trkpt lat="42.683198006114154" lon="12.606033995250991"><ele>557.0</ele><time>2026-04-19T11:21:52.002Z</time></trkpt><trkpt lat="42.68310027211224" lon="12.605983337464183"><ele>557.0</ele><time>2026-04-19T11:21:53.002Z</time></trkpt><trkpt lat="42.683018676227206" lon="12.605937170108211"><ele>557.0</ele><time>2026-04-19T11:21:54.002Z</time></trkpt><trkpt lat="42.68293249298428" lon="12.605892620081644"><ele>557.0</ele><time>2026-04-19T11:21:56.002Z</time></trkpt><trkpt lat="42.68295692505682" lon="12.605648344232295"><ele>557.0</ele><time>2026-04-19T11:21:59.003Z</time></trkpt><trkpt lat="42.68299622652788" lon="12.60553000460315"><ele>557.0</ele><time>2026-04-19T11:22:00.003Z</time></trkpt><trkpt lat="42.68302809737752" lon="12.605412544901826"><ele>557.0</ele><time>2026-04-19T11:22:01.003Z</time></trkpt><trkpt lat="42.683051347947455" lon="12.605286361398504"><ele>557.0</ele><time>2026-04-19T11:22:02.003Z</time></trkpt><trkpt lat="42.68306347845143" lon="12.605161695719827"><ele>557.0</ele><time>2026-04-19T11:22:03.003Z</time></trkpt><trkpt lat="42.68306606799919" lon="12.605033198398575"><ele>555.8333333333333</ele><time>2026-04-19T11:22:04.003Z</time></trkpt><trkpt lat="42.68305923277862" lon="12.604914418594593"><ele>554.6666666666666</ele><time>2026-04-19T11:22:05.003Z</time></trkpt><trkpt lat="42.68303334602693" lon="12.604801998947067"><ele>553.5</ele><time>2026-04-19T11:22:06.003Z</time></trkpt><trkpt lat="42.68299375769246" lon="12.604703249188322"><ele>552.3333333333334</ele><time>2026-04-19T11:22:07.003Z</time></trkpt><trkpt lat="42.682946921729844" lon="12.604619859805437"><ele>551.1666666666667</ele><time>2026-04-19T11:22:08.003Z</time></trkpt><trkpt lat="42.68289801052551" lon="12.604533878363458"><ele>550.0</ele><time>2026-04-19T11:22:09.003Z</time></trkpt><trkpt lat="42.68284105484059" lon="12.604438974719052"><ele>549.5</ele><time>2026-04-19T11:22:10.003Z</time></trkpt><trkpt lat="42.682784982416536" lon="12.604354832404095"><ele>549.0</ele><time>2026-04-19T11:22:11.003Z</time></trkpt><trkpt lat="42.6827486343452" lon="12.604267310901264"><ele>548.5</ele><time>2026-04-19T11:22:12.003Z</time></trkpt><trkpt lat="42.68272931153" lon="12.604167817923814"><ele>548.0</ele><time>2026-04-19T11:22:13.003Z</time></trkpt><trkpt lat="42.68272453700811" lon="12.604041363231811"><ele>547.5</ele><time>2026-04-19T11:22:14.003Z</time></trkpt><trkpt lat="42.68273223435767" lon="12.603903012807034"><ele>547.0</ele><time>2026-04-19T11:22:15.003Z</time></trkpt><trkpt lat="42.682736840540585" lon="12.60375693213231"><ele>544.8333333333334</ele><time>2026-04-19T11:22:16.003Z</time></trkpt><trkpt lat="42.68273977018817" lon="12.60362350944877"><ele>542.6666666666667</ele><time>2026-04-19T11:22:17.003Z</time></trkpt><trkpt lat="42.68274734293917" lon="12.603506299213683"><ele>540.5</ele><time>2026-04-19T11:22:18.003Z</time></trkpt><trkpt lat="42.682767982086595" lon="12.603416200557355"><ele>538.3333333333334</ele><time>2026-04-19T11:22:19.003Z</time></trkpt><trkpt lat="42.68281609957537" lon="12.603335917435016"><ele>536.1666666666666</ele><time>2026-04-19T11:22:20.003Z</time></trkpt><trkpt lat="42.68290367251236" lon="12.603250550171284"><ele>534.0</ele><time>2026-04-19T11:22:21.003Z</time></trkpt><trkpt lat="42.68300418566407" lon="12.603158895356973"><ele>534.0</ele><time>2026-04-19T11:22:22.003Z</time></trkpt><trkpt lat="42.68310594022442" lon="12.603051144655076"><ele>534.0</ele><time>2026-04-19T11:22:23.003Z</time></trkpt><trkpt lat="42.68319981588663" lon="12.602944178353832"><ele>534.0</ele><time>2026-04-19T11:22:24.003Z</time></trkpt><trkpt lat="42.683289124107475" lon="12.602823357543897"><ele>534.0</ele><time>2026-04-19T11:22:25.003Z</time></trkpt><trkpt lat="42.68336854316405" lon="12.60269675092107"><ele>531.2</ele><time>2026-04-19T11:22:26.003Z</time></trkpt><trkpt lat="42.683438291132724" lon="12.60257390575009"><ele>528.4</ele><time>2026-04-19T11:22:27.003Z</time></trkpt><trkpt lat="42.68350567171442" lon="12.602468177953332"><ele>525.6</ele><time>2026-04-19T11:22:28.003Z</time></trkpt><trkpt lat="42.683574984591885" lon="12.60237004353328"><ele>522.8</ele><time>2026-04-19T11:22:29.003Z</time></trkpt><trkpt lat="42.683639241344395" lon="12.602275141575516"><ele>520.0</ele><time>2026-04-19T11:22:29.999Z</time></trkpt><trkpt lat="42.68371385527485" lon="12.602183671356121"><ele>520.0</ele><time>2026-04-19T11:22:30.999Z</time></trkpt><trkpt lat="42.68380118952071" lon="12.602107301692302"><ele>520.0</ele><time>2026-04-19T11:22:32Z</time></trkpt><trkpt lat="42.683895667326816" lon="12.60204324066735"><ele>520.0</ele><time>2026-04-19T11:22:33Z</time></trkpt><trkpt lat="42.68399580641486" lon="12.601976472435721"><ele>520.0</ele><time>2026-04-19T11:22:34Z</time></trkpt><trkpt lat="42.6841011555457" lon="12.601910898353983"><ele>520.0</ele><time>2026-04-19T11:22:35Z</time></trkpt><trkpt lat="42.68421256452405" lon="12.601852889033422"><ele>514.25</ele><time>2026-04-19T11:22:36Z</time></trkpt><trkpt lat="42.68431871859129" lon="12.601809332985246"><ele>508.5</ele><time>2026-04-19T11:22:37Z</time></trkpt><trkpt lat="42.68442272391064" lon="12.601782767465139"><ele>502.75</ele><time>2026-04-19T11:22:38Z</time></trkpt><trkpt lat="42.684542426204864" lon="12.601777552297975"><ele>497.0</ele><time>2026-04-19T11:22:39Z</time></trkpt><trkpt lat="42.68465694195184" lon="12.601763299253982"><ele>495.0</ele><time>2026-04-19T11:22:40Z</time></trkpt><trkpt lat="42.68477074902481" lon="12.601747010079945"><ele>493.0</ele><time>2026-04-19T11:22:41Z</time></trkpt><trkpt lat="42.68489022451496" lon="12.601727714874949"><ele>491.0</ele><time>2026-04-19T11:22:42Z</time></trkpt><trkpt lat="42.685005135390334" lon="12.601701910469224"><ele>489.0</ele><time>2026-04-19T11:22:43Z</time></trkpt><trkpt lat="42.68512590033904" lon="12.60166769492696"><ele>489.0</ele><time>2026-04-19T11:22:44Z</time></trkpt><trkpt lat="42.68524070875759" lon="12.60162267683022"><ele>489.0</ele><time>2026-04-19T11:22:45Z</time></trkpt><trkpt lat="42.68534619319422" lon="12.601585377810775"><ele>489.0</ele><time>2026-04-19T11:22:46Z</time></trkpt><trkpt lat="42.68545502623168" lon="12.601574885188088"><ele>489.0</ele><time>2026-04-19T11:22:47Z</time></trkpt><trkpt lat="42.68555772349261" lon="12.601591345723396"><ele>489.0</ele><time>2026-04-19T11:22:48Z</time></trkpt><trkpt lat="42.68567933725539" lon="12.6016223085243"><ele>486.75</ele><time>2026-04-19T11:22:49Z</time></trkpt><trkpt lat="42.685795252502714" lon="12.601674471793137"><ele>484.5</ele><time>2026-04-19T11:22:50Z</time></trkpt><trkpt lat="42.68591593183215" lon="12.601718216372834"><ele>482.25</ele><time>2026-04-19T11:22:51Z</time></trkpt><trkpt lat="42.68600983453077" lon="12.601765462100849"><ele>480.0</ele><time>2026-04-19T11:22:52Z</time></trkpt><trkpt lat="42.686090477858734" lon="12.601859042613047"><ele>480.1666666666667</ele><time>2026-04-19T11:22:53Z</time></trkpt><trkpt lat="42.686160492289716" lon="12.60193078283399"><ele>480.33333333333337</ele><time>2026-04-19T11:22:54Z</time></trkpt><trkpt lat="42.68622787268915" lon="12.601986527917996"><ele>480.5</ele><time>2026-04-19T11:22:55Z</time></trkpt><trkpt lat="42.68630573871669" lon="12.602019414209884"><ele>480.6666666666667</ele><time>2026-04-19T11:22:56Z</time></trkpt><trkpt lat="42.6863951634334" lon="12.602005800993549"><ele>480.83333333333337</ele><time>2026-04-19T11:22:57Z</time></trkpt><trkpt lat="42.686485192716795" lon="12.601962723129473"><ele>481.0</ele><time>2026-04-19T11:22:58Z</time></trkpt><trkpt lat="42.68656603108429" lon="12.601882142517224"><ele>479.25</ele><time>2026-04-19T11:22:59Z</time></trkpt><trkpt lat="42.68664600800022" lon="12.601778212867282"><ele>477.5</ele><time>2026-04-19T11:23:00Z</time></trkpt><trkpt lat="42.68672136369689" lon="12.601637581675702"><ele>475.75</ele><time>2026-04-19T11:23:01Z</time></trkpt><trkpt lat="42.68682386816182" lon="12.601498728754066"><ele>474.0</ele><time>2026-04-19T11:23:02Z</time></trkpt><trkpt lat="42.68694804441515" lon="12.601371378643806"><ele>473.0</ele><time>2026-04-19T11:23:03.001Z</time></trkpt><trkpt lat="42.68708902329106" lon="12.601242446566403"><ele>472.0</ele><time>2026-04-19T11:23:04.001Z</time></trkpt><trkpt lat="42.687249839669036" lon="12.60110066275968"><ele>471.0</ele><time>2026-04-19T11:23:05.001Z</time></trkpt><trkpt lat="42.6874189305254" lon="12.600956535574038"><ele>470.33333333333337</ele><time>2026-04-19T11:23:06.001Z</time></trkpt><trkpt lat="42.687600870948096" lon="12.600805862635704"><ele>469.6666666666667</ele><time>2026-04-19T11:23:07.001Z</time></trkpt><trkpt lat="42.68776959275665" lon="12.60067844268953"><ele>469.0</ele><time>2026-04-19T11:23:08.001Z</time></trkpt><trkpt lat="42.68790594354239" lon="12.600568776442618"><ele>469.0</ele><time>2026-04-19T11:23:09.001Z</time></trkpt><trkpt lat="42.68804679256937" lon="12.600483003227213"><ele>469.0</ele><time>2026-04-19T11:23:10.001Z</time></trkpt><trkpt lat="42.68818240711759" lon="12.600412202742307"><ele>469.0</ele><time>2026-04-19T11:23:11.001Z</time></trkpt><trkpt lat="42.68831958569363" lon="12.600356911503942"><ele>469.0</ele><time>2026-04-19T11:23:12.001Z</time></trkpt><trkpt lat="42.688450567375895" lon="12.60031539573552"><ele>473.75</ele><time>2026-04-19T11:23:13.001Z</time></trkpt><trkpt lat="42.68857669210714" lon="12.600282049455778"><ele>478.5</ele><time>2026-04-19T11:23:14.001Z</time></trkpt><trkpt lat="42.688705895761224" lon="12.600273293508721"><ele>483.25</ele><time>2026-04-19T11:23:15.001Z</time></trkpt><trkpt lat="42.68885368795907" lon="12.600292556066483"><ele>488.0</ele><time>2026-04-19T11:23:16.001Z</time></trkpt><trkpt lat="42.6890170170981" lon="12.600324685479247"><ele>482.66666666666663</ele><time>2026-04-19T11:23:17.001Z</time></trkpt><trkpt lat="42.689205343070725" lon="12.60037795768788"><ele>477.33333333333337</ele><time>2026-04-19T11:23:18.001Z</time></trkpt><trkpt lat="42.68938904093464" lon="12.600433209336003"><ele>472.0</ele><time>2026-04-19T11:23:19.001Z</time></trkpt><trkpt lat="42.689548021855465" lon="12.600506820366158"><ele>472.0</ele><time>2026-04-19T11:23:20.001Z</time></trkpt><trkpt lat="42.689681032325396" lon="12.600575303475587"><ele>472.0</ele><time>2026-04-19T11:23:21.001Z</time></trkpt><trkpt lat="42.68980928760626" lon="12.600623084189735"><ele>472.0</ele><time>2026-04-19T11:23:22.001Z</time></trkpt><trkpt lat="42.68994212886646" lon="12.600661843768677"><ele>472.0</ele><time>2026-04-19T11:23:23.001Z</time></trkpt><trkpt lat="42.69007644966797" lon="12.600708281555825"><ele>472.0</ele><time>2026-04-19T11:23:24.001Z</time></trkpt><trkpt lat="42.69020872058571" lon="12.600780823493514"><ele>472.0</ele><time>2026-04-19T11:23:25.001Z</time></trkpt><trkpt lat="42.690332929348834" lon="12.600884812893106"><ele>472.0</ele><time>2026-04-19T11:23:26.001Z</time></trkpt><trkpt lat="42.69043703867806" lon="12.601011343672841"><ele>472.0</ele><time>2026-04-19T11:23:27.001Z</time></trkpt><trkpt lat="42.69054050257441" lon="12.60114672316886"><ele>470.0</ele><time>2026-04-19T11:23:28.001Z</time></trkpt><trkpt lat="42.69064671619805" lon="12.601286164968108"><ele>468.0</ele><time>2026-04-19T11:23:29.001Z</time></trkpt><trkpt lat="42.69075664626012" lon="12.601431402886455"><ele>466.0</ele><time>2026-04-19T11:23:30.001Z</time></trkpt><trkpt lat="42.69086561449905" lon="12.601561019402824"><ele>464.0</ele><time>2026-04-19T11:23:31.001Z</time></trkpt><trkpt lat="42.690967487453506" lon="12.601683539132875"><ele>464.0</ele><time>2026-04-19T11:23:32.001Z</time></trkpt><trkpt lat="42.69106962359532" lon="12.60180165210928"><ele>464.0</ele><time>2026-04-19T11:23:33.001Z</time></trkpt><trkpt lat="42.69116967371812" lon="12.601897835635551"><ele>464.0</ele><time>2026-04-19T11:23:34.001Z</time></trkpt><trkpt lat="42.691270525176655" lon="12.601967400682335"><ele>464.0</ele><time>2026-04-19T11:23:35.001Z</time></trkpt><trkpt lat="42.69138357582524" lon="12.602019790027533"><ele>462.75</ele><time>2026-04-19T11:23:36.001Z</time></trkpt><trkpt lat="42.69150228483102" lon="12.602058798964991"><ele>461.5</ele><time>2026-04-19T11:23:37.002Z</time></trkpt><trkpt lat="42.69160358742347" lon="12.602114495321175"><ele>460.25</ele><time>2026-04-19T11:23:38.002Z</time></trkpt><trkpt lat="42.6916928625921" lon="12.602226376059058"><ele>459.0</ele><time>2026-04-19T11:23:39.002Z</time></trkpt><trkpt lat="42.69174053379734" lon="12.602383131813255"><ele>459.0</ele><time>2026-04-19T11:23:40.002Z</time></trkpt><trkpt lat="42.69179733188854" lon="12.602534794250017"><ele>459.0</ele><time>2026-04-19T11:23:41.002Z</time></trkpt><trkpt lat="42.69185807385212" lon="12.602693095022278"><ele>459.0</ele><time>2026-04-19T11:23:42.002Z</time></trkpt><trkpt lat="42.691916196189275" lon="12.602841771387464"><ele>459.0</ele><time>2026-04-19T11:23:43.002Z</time></trkpt><trkpt lat="42.691970569652874" lon="12.60298203132092"><ele>458.75</ele><time>2026-04-19T11:23:44.002Z</time></trkpt><trkpt lat="42.6920290856608" lon="12.603113991095103"><ele>458.5</ele><time>2026-04-19T11:23:45.002Z</time></trkpt><trkpt lat="42.69209474864402" lon="12.603236196379465"><ele>458.25</ele><time>2026-04-19T11:23:46.002Z</time></trkpt><trkpt lat="42.69217918255084" lon="12.603346980489269"><ele>458.0</ele><time>2026-04-19T11:23:47.002Z</time></trkpt><trkpt lat="42.69227476474753" lon="12.603448028247612"><ele>458.0</ele><time>2026-04-19T11:23:48.002Z</time></trkpt><trkpt lat="42.69237866674756" lon="12.603557452161771"><ele>458.0</ele><time>2026-04-19T11:23:49.002Z</time></trkpt><trkpt lat="42.69246359674719" lon="12.603677577806607"><ele>458.0</ele><time>2026-04-19T11:23:50.002Z</time></trkpt><trkpt lat="42.69253432539573" lon="12.603792602483942"><ele>458.0</ele><time>2026-04-19T11:23:51.002Z</time></trkpt><trkpt lat="42.69260748678908" lon="12.603891479358307"><ele>459.0</ele><time>2026-04-19T11:23:52.002Z</time></trkpt><trkpt lat="42.69270869880815" lon="12.603968889936473"><ele>460.0</ele><time>2026-04-19T11:23:53.002Z</time></trkpt><trkpt lat="42.69283417766139" lon="12.60404727331923"><ele>461.0</ele><time>2026-04-19T11:23:54.002Z</time></trkpt><trkpt lat="42.69296222967246" lon="12.604140144980931"><ele>462.0</ele><time>2026-04-19T11:23:55.002Z</time></trkpt><trkpt lat="42.693072545939756" lon="12.60427104293212"><ele>462.0</ele><time>2026-04-19T11:23:56.002Z</time></trkpt><trkpt lat="42.69317406123542" lon="12.604427081932897"><ele>462.0</ele><time>2026-04-19T11:23:57.002Z</time></trkpt><trkpt lat="42.693274048167346" lon="12.604614834941422"><ele>462.0</ele><time>2026-04-19T11:23:58.002Z</time></trkpt><trkpt lat="42.693368285549276" lon="12.604791432257311"><ele>462.75</ele><time>2026-04-19T11:23:59.002Z</time></trkpt><trkpt lat="42.69346175817047" lon="12.604958367115916"><ele>463.5</ele><time>2026-04-19T11:24:00.002Z</time></trkpt><trkpt lat="42.693556200905945" lon="12.605105818806924"><ele>464.25</ele><time>2026-04-19T11:24:01.002Z</time></trkpt><trkpt lat="42.69365235234385" lon="12.605240364466987"><ele>465.0</ele><time>2026-04-19T11:24:02.002Z</time></trkpt><trkpt lat="42.69374539063818" lon="12.605366511122469"><ele>460.25</ele><time>2026-04-19T11:24:03.002Z</time></trkpt><trkpt lat="42.693839460434155" lon="12.60548870538102"><ele>455.5</ele><time>2026-04-19T11:24:04.002Z</time></trkpt><trkpt lat="42.693941760439095" lon="12.605615779114487"><ele>450.75</ele><time>2026-04-19T11:24:05.002Z</time></trkpt><trkpt lat="42.69405081652936" lon="12.605744979079299"><ele>446.0</ele><time>2026-04-19T11:24:06.002Z</time></trkpt><trkpt lat="42.69417154521891" lon="12.605874452263603"><ele>446.0</ele><time>2026-04-19T11:24:07.002Z</time></trkpt><trkpt lat="42.69428977948007" lon="12.606026698445502"><ele>446.0</ele><time>2026-04-19T11:24:08.002Z</time></trkpt><trkpt lat="42.694437483763984" lon="12.606163616633985"><ele>446.0</ele><time>2026-04-19T11:24:09.002Z</time></trkpt><trkpt lat="42.69458888375563" lon="12.606291929227895"><ele>446.0</ele><time>2026-04-19T11:24:10.002Z</time></trkpt><trkpt lat="42.69473009791105" lon="12.606407034674607"><ele>446.0</ele><time>2026-04-19T11:24:11.002Z</time></trkpt><trkpt lat="42.69485995968512" lon="12.60652612328415"><ele>446.0</ele><time>2026-04-19T11:24:12.002Z</time></trkpt><trkpt lat="42.69497852800958" lon="12.606662842051213"><ele>446.0</ele><time>2026-04-19T11:24:13.002Z</time></trkpt><trkpt lat="42.69509940414708" lon="12.606822232984374"><ele>446.0</ele><time>2026-04-19T11:24:14.003Z</time></trkpt><trkpt lat="42.695208726415004" lon="12.606985402378571"><ele>446.0</ele><time>2026-04-19T11:24:15.003Z</time></trkpt><trkpt lat="42.69532176037436" lon="12.607166411523822"><ele>448.3333333333333</ele><time>2026-04-19T11:24:16.003Z</time></trkpt><trkpt lat="42.69545866439195" lon="12.60736373370474"><ele>450.66666666666663</ele><time>2026-04-19T11:24:17.003Z</time></trkpt><trkpt lat="42.695578824966795" lon="12.607537706270268"><ele>453.0</ele><time>2026-04-19T11:24:18.003Z</time></trkpt><trkpt lat="42.69567894613046" lon="12.607694731676713"><ele>449.25</ele><time>2026-04-19T11:24:19.003Z</time></trkpt><trkpt lat="42.69576017863825" lon="12.607852070424546"><ele>445.5</ele><time>2026-04-19T11:24:20.003Z</time></trkpt><trkpt lat="42.69584166276823" lon="12.607997414938014"><ele>441.75</ele><time>2026-04-19T11:24:21.003Z</time></trkpt><trkpt lat="42.69593382031501" lon="12.608122940056235"><ele>438.0</ele><time>2026-04-19T11:24:22.003Z</time></trkpt><trkpt lat="42.696034921557796" lon="12.608243422778045"><ele>440.25</ele><time>2026-04-19T11:24:23.003Z</time></trkpt><trkpt lat="42.69614584430736" lon="12.608356360467214"><ele>442.5</ele><time>2026-04-19T11:24:24.003Z</time></trkpt><trkpt lat="42.6962696501551" lon="12.608403316154948"><ele>444.75</ele><time>2026-04-19T11:24:25.003Z</time></trkpt><trkpt lat="42.69640168345354" lon="12.608442701438456"><ele>447.0</ele><time>2026-04-19T11:24:26.003Z</time></trkpt><trkpt lat="42.69654577722947" lon="12.608483860828603"><ele>447.0</ele><time>2026-04-19T11:24:27.003Z</time></trkpt><trkpt lat="42.69671863034312" lon="12.608529950216125"><ele>447.0</ele><time>2026-04-19T11:24:28.003Z</time></trkpt><trkpt lat="42.69687709038187" lon="12.608567724426521"><ele>447.0</ele><time>2026-04-19T11:24:29.003Z</time></trkpt><trkpt lat="42.69700071533989" lon="12.608605526282085"><ele>446.20000000000005</ele><time>2026-04-19T11:24:30.003Z</time></trkpt><trkpt lat="42.69707243767218" lon="12.60858894880883"><ele>445.40000000000003</ele><time>2026-04-19T11:24:31.003Z</time></trkpt><trkpt lat="42.69713726949191" lon="12.6085889488093"><ele>444.59999999999997</ele><time>2026-04-19T11:24:33.003Z</time></trkpt><trkpt lat="42.69718671722128" lon="12.60876018644532"><ele>443.79999999999995</ele><time>2026-04-19T11:24:34.003Z</time></trkpt><trkpt lat="42.697265148032365" lon="12.608812364220501"><ele>443.0</ele><time>2026-04-19T11:24:35.003Z</time></trkpt><trkpt lat="42.697387015268134" lon="12.608849227135911"><ele>442.99999999999994</ele><time>2026-04-19T11:24:35.999Z</time></trkpt><trkpt lat="42.69749108392238" lon="12.608913684896164"><ele>443.0</ele><time>2026-04-19T11:24:36.999Z</time></trkpt><trkpt lat="42.697569572405406" lon="12.608982768333162"><ele>443.0</ele><time>2026-04-19T11:24:37.999Z</time></trkpt><trkpt lat="42.69763852521404" lon="12.609028291831228"><ele>443.0</ele><time>2026-04-19T11:24:38.999Z</time></trkpt><trkpt lat="42.6976908080378" lon="12.60909408320066"><ele>442.99999999999994</ele><time>2026-04-19T11:24:39.999Z</time></trkpt><trkpt lat="42.69774509988632" lon="12.609163380451767"><ele>443.0</ele><time>2026-04-19T11:24:40.999Z</time></trkpt><trkpt lat="42.69781626158869" lon="12.609240091817504"><ele>441.66666666666663</ele><time>2026-04-19T11:24:41.999Z</time></trkpt><trkpt lat="42.697880846454375" lon="12.609323200880256"><ele>440.3333333333333</ele><time>2026-04-19T11:24:42.999Z</time></trkpt><trkpt lat="42.69795080817789" lon="12.609367756690917"><ele>439.0</ele><time>2026-04-19T11:24:43.999Z</time></trkpt><trkpt lat="42.698005622550696" lon="12.609410340835854"><ele>437.66666666666663</ele><time>2026-04-19T11:24:44.999Z</time></trkpt><trkpt lat="42.69806351839055" lon="12.6094618499963"><ele>436.3333333333333</ele><time>2026-04-19T11:24:45.999Z</time></trkpt><trkpt lat="42.69812720051856" lon="12.609520727635202"><ele>435.0</ele><time>2026-04-19T11:24:46.999Z</time></trkpt><trkpt lat="42.69818981731867" lon="12.609611386455828"><ele>434.6666666666667</ele><time>2026-04-19T11:24:47.999Z</time></trkpt><trkpt lat="42.698243275279424" lon="12.60968351962715"><ele>434.33333333333337</ele><time>2026-04-19T11:24:48.999Z</time></trkpt><trkpt lat="42.69831597889023" lon="12.609763549016375"><ele>434.0</ele><time>2026-04-19T11:24:50.999Z</time></trkpt><trkpt lat="42.69835845729778" lon="12.609858009929958"><ele>433.6666666666667</ele><time>2026-04-19T11:24:51.999Z</time></trkpt><trkpt lat="42.69840981633177" lon="12.609962701010646"><ele>433.33333333333337</ele><time>2026-04-19T11:24:53Z</time></trkpt><trkpt lat="42.69845253282651" lon="12.610041099977563"><ele>433.0</ele><time>2026-04-19T11:24:54Z</time></trkpt><trkpt lat="42.69847924255381" lon="12.61013303998762"><ele>433.00000000000006</ele><time>2026-04-19T11:24:55Z</time></trkpt><trkpt lat="42.69851124931049" lon="12.61021747799802"><ele>433.0</ele><time>2026-04-19T11:24:56Z</time></trkpt><trkpt lat="42.69854694270109" lon="12.610293124489903"><ele>433.0</ele><time>2026-04-19T11:24:57Z</time></trkpt><trkpt lat="42.698604490888606" lon="12.610372388909509"><ele>433.0</ele><time>2026-04-19T11:24:58Z</time></trkpt><trkpt lat="42.69866670506833" lon="12.610445031637546"><ele>433.00000000000006</ele><time>2026-04-19T11:24:59Z</time></trkpt><trkpt lat="42.698732014899775" lon="12.61051327676075"><ele>433.0</ele><time>2026-04-19T11:25:00Z</time></trkpt><trkpt lat="42.698774431593755" lon="12.61061355037044"><ele>429.6666666666667</ele><time>2026-04-19T11:25:01Z</time></trkpt><trkpt lat="42.69882095366156" lon="12.610706521905504"><ele>426.33333333333337</ele><time>2026-04-19T11:25:02Z</time></trkpt><trkpt lat="42.698860756271905" lon="12.61078534399799"><ele>423.0</ele><time>2026-04-19T11:25:03Z</time></trkpt><trkpt lat="42.69887631457605" lon="12.6108784131625"><ele>419.66666666666663</ele><time>2026-04-19T11:25:04Z</time></trkpt><trkpt lat="42.69887881001737" lon="12.610992758594007"><ele>416.3333333333333</ele><time>2026-04-19T11:25:05Z</time></trkpt><trkpt lat="42.69887204627518" lon="12.611094453408192"><ele>413.0</ele><time>2026-04-19T11:25:06Z</time></trkpt><trkpt lat="42.69889252039185" lon="12.611181928579025"><ele>411.79999999999995</ele><time>2026-04-19T11:25:07Z</time></trkpt><trkpt lat="42.69897149344992" lon="12.611328757264351"><ele>410.6</ele><time>2026-04-19T11:25:09Z</time></trkpt><trkpt lat="42.69905785300352" lon="12.611427729603603"><ele>409.4</ele><time>2026-04-19T11:25:11Z</time></trkpt><trkpt lat="42.69912672596817" lon="12.611416674285964"><ele>408.20000000000005</ele><time>2026-04-19T11:25:12.001Z</time></trkpt><trkpt lat="42.69922223744287" lon="12.611406660153156"><ele>407.0</ele><time>2026-04-19T11:25:14.001Z</time></trkpt><trkpt lat="42.69931314042873" lon="12.611330831855103"><ele>407.0</ele><time>2026-04-19T11:25:16.001Z</time></trkpt><trkpt lat="42.699307669428286" lon="12.611234004583844"><ele>407.0</ele><time>2026-04-19T11:25:17.001Z</time></trkpt><trkpt lat="42.69931872442032" lon="12.611082713491449"><ele>407.0</ele><time>2026-04-19T11:25:19.001Z</time></trkpt><trkpt lat="42.69928559729814" lon="12.610955143325613"><ele>407.0</ele><time>2026-04-19T11:25:21.001Z</time></trkpt><trkpt lat="42.69923739992928" lon="12.610827683850424"><ele>407.0</ele><time>2026-04-19T11:25:23.001Z</time></trkpt><trkpt lat="42.69919973332593" lon="12.610746345897699"><ele>408.20000000000005</ele><time>2026-04-19T11:25:24.001Z</time></trkpt><trkpt lat="42.699166723832946" lon="12.61066467515279"><ele>409.4</ele><time>2026-04-19T11:25:25.001Z</time></trkpt><trkpt lat="42.69915236605842" lon="12.610481866913583"><ele>410.6</ele><time>2026-04-19T11:25:27.001Z</time></trkpt><trkpt lat="42.69916077610016" lon="12.610335612021455"><ele>411.79999999999995</ele><time>2026-04-19T11:25:29.001Z</time></trkpt><trkpt lat="42.69923091216387" lon="12.61034503947255"><ele>413.0</ele><time>2026-04-19T11:25:33.001Z</time></trkpt><trkpt lat="42.69938376673152" lon="12.610425458338861"><ele>415.5</ele><time>2026-04-19T11:25:35.001Z</time></trkpt><trkpt lat="42.69947725403162" lon="12.610536702675052"><ele>418.0</ele><time>2026-04-19T11:25:36.001Z</time></trkpt><trkpt lat="42.699559243509725" lon="12.610656509729528"><ele>420.5</ele><time>2026-04-19T11:25:37.001Z</time></trkpt><trkpt lat="42.69958842489149" lon="12.610804921354395"><ele>423.0</ele><time>2026-04-19T11:25:38.001Z</time></trkpt><trkpt lat="42.699633552353205" lon="12.610933536297548"><ele>423.0</ele><time>2026-04-19T11:25:39.001Z</time></trkpt><trkpt lat="42.699665060533164" lon="12.611038899141912"><ele>423.0</ele><time>2026-04-19T11:25:40.001Z</time></trkpt><trkpt lat="42.69970977462584" lon="12.611150889244431"><ele>423.0</ele><time>2026-04-19T11:25:41.002Z</time></trkpt><trkpt lat="42.69975939920233" lon="12.611281385739886"><ele>423.0</ele><time>2026-04-19T11:25:42.002Z</time></trkpt><trkpt lat="42.69979431677696" lon="12.61141401727723"><ele>423.0</ele><time>2026-04-19T11:25:43.002Z</time></trkpt><trkpt lat="42.699802670526495" lon="12.611500034880672"><ele>421.57142857142856</ele><time>2026-04-19T11:25:44.002Z</time></trkpt><trkpt lat="42.69982472245319" lon="12.611583491373024"><ele>420.14285714285717</ele><time>2026-04-19T11:25:46.002Z</time></trkpt><trkpt lat="42.69986308256299" lon="12.611673982593695"><ele>418.7142857142857</ele><time>2026-04-19T11:25:48.002Z</time></trkpt><trkpt lat="42.699895482628854" lon="12.611763648938117"><ele>417.2857142857143</ele><time>2026-04-19T11:25:49.002Z</time></trkpt><trkpt lat="42.69993437024896" lon="12.61184865791692"><ele>415.8571428571429</ele><time>2026-04-19T11:25:50.002Z</time></trkpt><trkpt lat="42.69998737329721" lon="12.611907604475483"><ele>414.42857142857144</ele><time>2026-04-19T11:25:51.002Z</time></trkpt><trkpt lat="42.70005379170897" lon="12.611944323032176"><ele>413.0</ele><time>2026-04-19T11:25:52.002Z</time></trkpt><trkpt lat="42.70013403031694" lon="12.612005787192656"><ele>411.2</ele><time>2026-04-19T11:25:53.002Z</time></trkpt><trkpt lat="42.70020224459092" lon="12.612057014600257"><ele>409.4</ele><time>2026-04-19T11:25:54.002Z</time></trkpt><trkpt lat="42.70027676854266" lon="12.612070108528162"><ele>407.59999999999997</ele><time>2026-04-19T11:25:55.002Z</time></trkpt><trkpt lat="42.70034940158751" lon="12.612093433434982"><ele>405.79999999999995</ele><time>2026-04-19T11:25:56.002Z</time></trkpt><trkpt lat="42.700459341664555" lon="12.612147853287135"><ele>404.0</ele><time>2026-04-19T11:25:58.002Z</time></trkpt><trkpt lat="42.700579788261635" lon="12.61222172061674"><ele>403.99999999999994</ele><time>2026-04-19T11:26:00.002Z</time></trkpt><trkpt lat="42.700669845279364" lon="12.612259951330332"><ele>404.0</ele><time>2026-04-19T11:26:01.002Z</time></trkpt><trkpt lat="42.70075610111302" lon="12.612295145609885"><ele>404.0</ele><time>2026-04-19T11:26:02.002Z</time></trkpt><trkpt lat="42.70083066227272" lon="12.612325568221044"><ele>404.0</ele><time>2026-04-19T11:26:03.002Z</time></trkpt><trkpt lat="42.70089725607845" lon="12.612335098416978"><ele>403.99999999999994</ele><time>2026-04-19T11:26:04.002Z</time></trkpt><trkpt lat="42.700994554420895" lon="12.61240719744907"><ele>404.0</ele><time>2026-04-19T11:26:06.002Z</time></trkpt><trkpt lat="42.70109243888237" lon="12.612495825804043"><ele>407.5</ele><time>2026-04-19T11:26:08.002Z</time></trkpt><trkpt lat="42.70121936677261" lon="12.613041234318707"><ele>411.0</ele><time>2026-04-19T11:29:13Z</time></trkpt><trkpt lat="42.70120432608982" lon="12.613158698336305"><ele>411.0</ele><time>2026-04-19T11:29:14Z</time></trkpt><trkpt lat="42.70118343857809" lon="12.613248185193271"><ele>411.0</ele><time>2026-04-19T11:29:15Z</time></trkpt><trkpt lat="42.7011840892965" lon="12.61341606907412"><ele>411.0</ele><time>2026-04-19T11:29:17Z</time></trkpt><trkpt lat="42.70122341571636" lon="12.613507788960861"><ele>411.0</ele><time>2026-04-19T11:29:18Z</time></trkpt><trkpt lat="42.70130204896105" lon="12.613585156610204"><ele>411.0</ele><time>2026-04-19T11:29:19Z</time></trkpt><trkpt lat="42.70137420522094" lon="12.61368205335383"><ele>409.8</ele><time>2026-04-19T11:29:20Z</time></trkpt><trkpt lat="42.70147814135347" lon="12.613758078258774"><ele>408.6</ele><time>2026-04-19T11:29:21Z</time></trkpt><trkpt lat="42.70157103890729" lon="12.613851825433644"><ele>407.4</ele><time>2026-04-19T11:29:22Z</time></trkpt><trkpt lat="42.70166132043471" lon="12.61395930317576"><ele>406.2</ele><time>2026-04-19T11:29:23.001Z</time></trkpt><trkpt lat="42.70172705045167" lon="12.614024865489778"><ele>405.0</ele><time>2026-04-19T11:29:24.001Z</time></trkpt><trkpt lat="42.70176385498963" lon="12.614126842395528"><ele>405.0</ele><time>2026-04-19T11:29:25.001Z</time></trkpt><trkpt lat="42.70182717964275" lon="12.614202661133666"><ele>405.0</ele><time>2026-04-19T11:29:27.001Z</time></trkpt><trkpt lat="42.701922227630305" lon="12.614289522769885"><ele>405.0</ele><time>2026-04-19T11:29:29.001Z</time></trkpt><trkpt lat="42.70200112575583" lon="12.614286189983028"><ele>405.0</ele><time>2026-04-19T11:29:30.001Z</time></trkpt><trkpt lat="42.70209314612514" lon="12.614284447431146"><ele>405.0</ele><time>2026-04-19T11:29:31.001Z</time></trkpt><trkpt lat="42.702186054409644" lon="12.614259893703023"><ele>405.3333333333333</ele><time>2026-04-19T11:29:32.001Z</time></trkpt><trkpt lat="42.702265512802846" lon="12.614226868193814"><ele>405.66666666666663</ele><time>2026-04-19T11:29:33.001Z</time></trkpt><trkpt lat="42.702341136980245" lon="12.614171617332243"><ele>406.0</ele><time>2026-04-19T11:29:34.001Z</time></trkpt><trkpt lat="42.702397618334096" lon="12.614131861462589"><ele>406.3333333333333</ele><time>2026-04-19T11:29:35.001Z</time></trkpt><trkpt lat="42.70250597018751" lon="12.614122962653877"><ele>406.66666666666663</ele><time>2026-04-19T11:29:39.001Z</time></trkpt><trkpt lat="42.702574714933235" lon="12.614155258159688"><ele>407.0</ele><time>2026-04-19T11:29:40.001Z</time></trkpt><trkpt lat="42.70264281253281" lon="12.614171549141364"><ele>406.99999999999994</ele><time>2026-04-19T11:29:41.001Z</time></trkpt><trkpt lat="42.70272434452643" lon="12.614173617395279"><ele>407.0</ele><time>2026-04-19T11:29:43.001Z</time></trkpt><trkpt lat="42.70281722050415" lon="12.614151851564253"><ele>407.0</ele><time>2026-04-19T11:29:45.001Z</time></trkpt><trkpt lat="42.70290467743249" lon="12.614128646104563"><ele>407.0</ele><time>2026-04-19T11:29:47.001Z</time></trkpt><trkpt lat="42.70295412867446" lon="12.614072897172935"><ele>406.99999999999994</ele><time>2026-04-19T11:29:48.001Z</time></trkpt><trkpt lat="42.70299229779858" lon="12.613999218984295"><ele>407.0</ele><time>2026-04-19T11:29:49.001Z</time></trkpt><trkpt lat="42.70301784704032" lon="12.613869838376946"><ele>407.3333333333333</ele><time>2026-04-19T11:29:50.001Z</time></trkpt><trkpt lat="42.7030130557316" lon="12.613747491808775"><ele>407.66666666666663</ele><time>2026-04-19T11:29:51.002Z</time></trkpt><trkpt lat="42.70301434210428" lon="12.613631744959301"><ele>408.0</ele><time>2026-04-19T11:29:52.002Z</time></trkpt><trkpt lat="42.703013299892646" lon="12.61354221881412"><ele>408.33333333333337</ele><time>2026-04-19T11:29:53.002Z</time></trkpt><trkpt lat="42.70307455469983" lon="12.613645154855226"><ele>408.6666666666667</ele><time>2026-04-19T11:29:58.002Z</time></trkpt><trkpt lat="42.70311643543071" lon="12.613733850054528"><ele>409.0</ele><time>2026-04-19T11:29:59.002Z</time></trkpt><trkpt lat="42.70316443313581" lon="12.613801264971848"><ele>409.00000000000006</ele><time>2026-04-19T11:30:00.002Z</time></trkpt><trkpt lat="42.703240102602514" lon="12.613866624705578"><ele>409.0</ele><time>2026-04-19T11:30:01.002Z</time></trkpt><trkpt lat="42.7033126032672" lon="12.613934076196381"><ele>409.0</ele><time>2026-04-19T11:30:02.002Z</time></trkpt><trkpt lat="42.703370563021075" lon="12.613999381299774"><ele>409.0</ele><time>2026-04-19T11:30:04.002Z</time></trkpt><trkpt lat="42.703439716129395" lon="12.614080033595801"><ele>409.00000000000006</ele><time>2026-04-19T11:30:08.002Z</time></trkpt><trkpt lat="42.70349820767429" lon="12.614189951913216"><ele>409.0</ele><time>2026-04-19T11:30:09.002Z</time></trkpt><trkpt lat="42.70355885218079" lon="12.614285269629324"><ele>409.00000000000006</ele><time>2026-04-19T11:30:10.002Z</time></trkpt><trkpt lat="42.703622394764636" lon="12.614372445323069"><ele>409.0</ele><time>2026-04-19T11:30:11.002Z</time></trkpt><trkpt lat="42.70367024169658" lon="12.614454703140666"><ele>409.0</ele><time>2026-04-19T11:30:12.002Z</time></trkpt><trkpt lat="42.70372404594632" lon="12.614538043537081"><ele>409.0</ele><time>2026-04-19T11:30:13.002Z</time></trkpt><trkpt lat="42.703767958571056" lon="12.614604348109742"><ele>409.00000000000006</ele><time>2026-04-19T11:30:14.002Z</time></trkpt><trkpt lat="42.70384839001891" lon="12.61468013344399"><ele>409.0</ele><time>2026-04-19T11:30:16.002Z</time></trkpt><trkpt lat="42.7039312886186" lon="12.614670617806437"><ele>409.0</ele><time>2026-04-19T11:30:19.002Z</time></trkpt><trkpt lat="42.7040090205645" lon="12.614717775915917"><ele>409.0</ele><time>2026-04-19T11:30:23.002Z</time></trkpt><trkpt lat="42.70407658505781" lon="12.614784472688626"><ele>409.0</ele><time>2026-04-19T11:30:25.003Z</time></trkpt><trkpt lat="42.704131073253585" lon="12.614832644711178"><ele>409.0</ele><time>2026-04-19T11:30:27.003Z</time></trkpt><trkpt lat="42.70428494312419" lon="12.61486829491534"><ele>409.0</ele><time>2026-04-19T11:30:29.003Z</time></trkpt><trkpt lat="42.70436338091623" lon="12.614879703998094"><ele>409.33333333333337</ele><time>2026-04-19T11:30:30.003Z</time></trkpt><trkpt lat="42.70444594016751" lon="12.614898976834496"><ele>409.6666666666667</ele><time>2026-04-19T11:30:31.003Z</time></trkpt><trkpt lat="42.70451891432932" lon="12.614923644077766"><ele>410.0</ele><time>2026-04-19T11:30:32.003Z</time></trkpt><trkpt lat="42.70462352356976" lon="12.61495628158502"><ele>410.33333333333337</ele><time>2026-04-19T11:30:34.003Z</time></trkpt><trkpt lat="42.70465945684178" lon="12.61503811326306"><ele>410.6666666666667</ele><time>2026-04-19T11:30:36.003Z</time></trkpt><trkpt lat="42.70460098664263" lon="12.614979428539998"><ele>411.0</ele><time>2026-04-19T11:31:08Z</time></trkpt><trkpt lat="42.70447820260753" lon="12.614937487559558"><ele>410.6</ele><time>2026-04-19T11:31:10Z</time></trkpt><trkpt lat="42.704339859666774" lon="12.614885920059493"><ele>410.20000000000005</ele><time>2026-04-19T11:31:12Z</time></trkpt><trkpt lat="42.704232271063425" lon="12.614867633427897"><ele>409.79999999999995</ele><time>2026-04-19T11:31:13Z</time></trkpt><trkpt lat="42.70415044347972" lon="12.614830439897922"><ele>409.4</ele><time>2026-04-19T11:31:15Z</time></trkpt><trkpt lat="42.70408141599755" lon="12.614771962280875"><ele>409.0</ele><time>2026-04-19T11:31:18Z</time></trkpt><trkpt lat="42.70402478496499" lon="12.614722206263265"><ele>409.0</ele><time>2026-04-19T11:31:20Z</time></trkpt><trkpt lat="42.70407887588276" lon="12.614652647523265"><ele>409.0</ele><time>2026-04-19T11:31:26Z</time></trkpt><trkpt lat="42.70415974684856" lon="12.61462136484886"><ele>409.0</ele><time>2026-04-19T11:31:29.001Z</time></trkpt><trkpt lat="42.704257075031634" lon="12.614572254000802"><ele>409.0</ele><time>2026-04-19T11:31:32.001Z</time></trkpt><trkpt lat="42.70431347860364" lon="12.614484076583079"><ele>409.0</ele><time>2026-04-19T11:31:34.001Z</time></trkpt><trkpt lat="42.704369687545906" lon="12.61436882925775"><ele>411.83333333333337</ele><time>2026-04-19T11:31:36.001Z</time></trkpt><trkpt lat="42.70444870294061" lon="12.61425004439039"><ele>414.6666666666667</ele><time>2026-04-19T11:31:38.001Z</time></trkpt><trkpt lat="42.704498576467024" lon="12.614140548618844"><ele>417.5</ele><time>2026-04-19T11:31:39.001Z</time></trkpt><trkpt lat="42.70454160207138" lon="12.61402897006897"><ele>420.33333333333337</ele><time>2026-04-19T11:31:40.001Z</time></trkpt><trkpt lat="42.704563766813905" lon="12.613938819655601"><ele>423.1666666666667</ele><time>2026-04-19T11:31:41.001Z</time></trkpt><trkpt lat="42.70457155301243" lon="12.613837836128145"><ele>426.0</ele><time>2026-04-19T11:31:42.001Z</time></trkpt><trkpt lat="42.70457480595467" lon="12.613730322246429"><ele>429.4</ele><time>2026-04-19T11:31:43.001Z</time></trkpt><trkpt lat="42.70457523044481" lon="12.613610344457603"><ele>432.8</ele><time>2026-04-19T11:31:44.001Z</time></trkpt><trkpt lat="42.70457890770683" lon="12.613489714901316"><ele>436.19999999999993</ele><time>2026-04-19T11:31:45.001Z</time></trkpt><trkpt lat="42.70460599393427" lon="12.613309186963082"><ele>439.59999999999997</ele><time>2026-04-19T11:31:47.001Z</time></trkpt><trkpt lat="42.70462293942384" lon="12.613225740909282"><ele>443.0</ele><time>2026-04-19T11:31:48.001Z</time></trkpt><trkpt lat="42.70455316775742" lon="12.613123403772182"><ele>443.0</ele><time>2026-04-19T11:31:50.001Z</time></trkpt><trkpt lat="42.70452660852912" lon="12.61301743897925"><ele>442.99999999999994</ele><time>2026-04-19T11:31:52.001Z</time></trkpt><trkpt lat="42.70456310421833" lon="12.612939446157622"><ele>442.99999999999994</ele><time>2026-04-19T11:31:53.001Z</time></trkpt><trkpt lat="42.704614341761854" lon="12.612834103533013"><ele>443.0</ele><time>2026-04-19T11:31:54.001Z</time></trkpt><trkpt lat="42.70466672830715" lon="12.612698664335808"><ele>443.0</ele><time>2026-04-19T11:31:55.001Z</time></trkpt><trkpt lat="42.704706160937825" lon="12.612576866131459"><ele>447.0</ele><time>2026-04-19T11:31:56.001Z</time></trkpt><trkpt lat="42.70473637448284" lon="12.612444408700457"><ele>451.0</ele><time>2026-04-19T11:31:57.001Z</time></trkpt><trkpt lat="42.704768756191235" lon="12.612267358292817"><ele>455.0</ele><time>2026-04-19T11:31:58.001Z</time></trkpt><trkpt lat="42.704817249644975" lon="12.612067494436547"><ele>459.0</ele><time>2026-04-19T11:31:59.001Z</time></trkpt><trkpt lat="42.704858314839015" lon="12.611872197593039"><ele>462.6</ele><time>2026-04-19T11:32:00.001Z</time></trkpt><trkpt lat="42.70489569242708" lon="12.611709021778708"><ele>466.2</ele><time>2026-04-19T11:32:01.001Z</time></trkpt><trkpt lat="42.70492933197965" lon="12.611593330608773"><ele>469.80000000000007</ele><time>2026-04-19T11:32:02.001Z</time></trkpt><trkpt lat="42.704958974745566" lon="12.611487432224624"><ele>473.40000000000003</ele><time>2026-04-19T11:32:03.001Z</time></trkpt><trkpt lat="42.704976439509885" lon="12.611368877125924"><ele>477.0</ele><time>2026-04-19T11:32:04.001Z</time></trkpt><trkpt lat="42.704981244806156" lon="12.611232363752263"><ele>480.0</ele><time>2026-04-19T11:32:05.001Z</time></trkpt><trkpt lat="42.70501972779893" lon="12.611113337844126"><ele>483.0</ele><time>2026-04-19T11:32:07.001Z</time></trkpt><trkpt lat="42.70507889388297" lon="12.611082186108423"><ele>486.0</ele><time>2026-04-19T11:32:08.001Z</time></trkpt><trkpt lat="42.705157175729326" lon="12.611045860856057"><ele>489.0</ele><time>2026-04-19T11:32:09.001Z</time></trkpt><trkpt lat="42.7052328738027" lon="12.611011242081144"><ele>492.0</ele><time>2026-04-19T11:32:10.001Z</time></trkpt><trkpt lat="42.705318976428515" lon="12.610952038825944"><ele>495.0</ele><time>2026-04-19T11:32:11.001Z</time></trkpt><trkpt lat="42.70537071526024" lon="12.61086851147635"><ele>496.2</ele><time>2026-04-19T11:32:13.001Z</time></trkpt><trkpt lat="42.70533876960823" lon="12.610769861254964"><ele>497.4</ele><time>2026-04-19T11:32:15.002Z</time></trkpt><trkpt lat="42.7052786214508" lon="12.61063283976637"><ele>498.6</ele><time>2026-04-19T11:32:17.002Z</time></trkpt><trkpt lat="42.70525996400873" lon="12.610521925771108"><ele>499.8</ele><time>2026-04-19T11:32:19.002Z</time></trkpt><trkpt lat="42.70527759849936" lon="12.610426276018808"><ele>501.0</ele><time>2026-04-19T11:32:20.002Z</time></trkpt><trkpt lat="42.705335180748335" lon="12.61029472452688"><ele>502.5</ele><time>2026-04-19T11:32:21.002Z</time></trkpt><trkpt lat="42.70535476353653" lon="12.61013379224245"><ele>504.0</ele><time>2026-04-19T11:32:22.002Z</time></trkpt><trkpt lat="42.70537412491197" lon="12.60995719358492"><ele>505.5</ele><time>2026-04-19T11:32:23.002Z</time></trkpt><trkpt lat="42.70539169237498" lon="12.609766316277222"><ele>507.0</ele><time>2026-04-19T11:32:24.002Z</time></trkpt><trkpt lat="42.70539216924693" lon="12.609541160093562"><ele>507.66666666666663</ele><time>2026-04-19T11:32:25.002Z</time></trkpt><trkpt lat="42.705427192276325" lon="12.60930674144572"><ele>508.3333333333333</ele><time>2026-04-19T11:32:26.002Z</time></trkpt><trkpt lat="42.70544021102333" lon="12.609088158799883"><ele>509.0</ele><time>2026-04-19T11:32:27.002Z</time></trkpt><trkpt lat="42.70544390615591" lon="12.608917923992767"><ele>508.99999999999994</ele><time>2026-04-19T11:32:28.002Z</time></trkpt><trkpt lat="42.70544534500517" lon="12.608772847979784"><ele>509.0</ele><time>2026-04-19T11:32:29.002Z</time></trkpt><trkpt lat="42.705446580427015" lon="12.608648283629993"><ele>509.0</ele><time>2026-04-19T11:32:30.002Z</time></trkpt><trkpt lat="42.70543701636233" lon="12.6085198185194"><ele>509.0</ele><time>2026-04-19T11:32:31.002Z</time></trkpt><trkpt lat="42.70544876206833" lon="12.608401664214623"><ele>508.99999999999994</ele><time>2026-04-19T11:32:32.002Z</time></trkpt><trkpt lat="42.70547094033988" lon="12.608313332049867"><ele>509.0</ele><time>2026-04-19T11:32:33.002Z</time></trkpt><trkpt lat="42.70548881954718" lon="12.608203407324682"><ele>510.0</ele><time>2026-04-19T11:32:35.002Z</time></trkpt><trkpt lat="42.70559532915921" lon="12.608222597579957"><ele>511.0</ele><time>2026-04-19T11:32:37.002Z</time></trkpt><trkpt lat="42.70568003445868" lon="12.608262194150699"><ele>512.0</ele><time>2026-04-19T11:32:38.002Z</time></trkpt><trkpt lat="42.70579005407808" lon="12.60830084138861"><ele>513.0</ele><time>2026-04-19T11:32:39.002Z</time></trkpt><trkpt lat="42.705907045309495" lon="12.60835027355907"><ele>514.0</ele><time>2026-04-19T11:32:40.002Z</time></trkpt><trkpt lat="42.70602969340676" lon="12.608427261837404"><ele>514.6666666666667</ele><time>2026-04-19T11:32:41.002Z</time></trkpt><trkpt lat="42.706155179587086" lon="12.608539520508712"><ele>515.3333333333334</ele><time>2026-04-19T11:32:42.002Z</time></trkpt><trkpt lat="42.70628646200291" lon="12.608679601590035"><ele>516.0</ele><time>2026-04-19T11:32:43.002Z</time></trkpt><trkpt lat="42.70642042427287" lon="12.608812281463187"><ele>516.0</ele><time>2026-04-19T11:32:44.002Z</time></trkpt><trkpt lat="42.706569195248115" lon="12.608936933537198"><ele>516.0</ele><time>2026-04-19T11:32:45.002Z</time></trkpt><trkpt lat="42.70671092093006" lon="12.609054410445415"><ele>516.0</ele><time>2026-04-19T11:32:46.002Z</time></trkpt><trkpt lat="42.70683405616799" lon="12.609152478913385"><ele>517.2</ele><time>2026-04-19T11:32:47.002Z</time></trkpt><trkpt lat="42.70694319410943" lon="12.609226094586983"><ele>518.4000000000001</ele><time>2026-04-19T11:32:48.002Z</time></trkpt><trkpt lat="42.70703935657092" lon="12.609270181838111"><ele>519.6</ele><time>2026-04-19T11:32:49.002Z</time></trkpt><trkpt lat="42.70713580673653" lon="12.60931278868299"><ele>520.8000000000001</ele><time>2026-04-19T11:32:50.002Z</time></trkpt><trkpt lat="42.70723456186603" lon="12.60936494038057"><ele>522.0</ele><time>2026-04-19T11:32:51.002Z</time></trkpt><trkpt lat="42.707321622022874" lon="12.609423760240926"><ele>522.0</ele><time>2026-04-19T11:32:52.002Z</time></trkpt><trkpt lat="42.70740062550556" lon="12.609447417595463"><ele>522.0</ele><time>2026-04-19T11:32:53.002Z</time></trkpt><trkpt lat="42.70746363549265" lon="12.609473116984127"><ele>522.0</ele><time>2026-04-19T11:32:54.002Z</time></trkpt><trkpt lat="42.70755297401339" lon="12.609522495711772"><ele>522.0</ele><time>2026-04-19T11:32:56.002Z</time></trkpt><trkpt lat="42.70760388957759" lon="12.609579150394593"><ele>522.0</ele><time>2026-04-19T11:32:57.002Z</time></trkpt><trkpt lat="42.707670133169216" lon="12.60963480071429"><ele>522.0</ele><time>2026-04-19T11:32:58.002Z</time></trkpt><trkpt lat="42.70773934453527" lon="12.609683940588836"><ele>520.0</ele><time>2026-04-19T11:32:59.002Z</time></trkpt><trkpt lat="42.70783883437757" lon="12.609754187071626"><ele>518.0</ele><time>2026-04-19T11:32:59.998Z</time></trkpt><trkpt lat="42.7079383663218" lon="12.609850370487601"><ele>516.0</ele><time>2026-04-19T11:33:00.998Z</time></trkpt><trkpt lat="42.70803083745748" lon="12.60996059306848"><ele>514.0</ele><time>2026-04-19T11:33:01.998Z</time></trkpt><trkpt lat="42.70812171838975" lon="12.610082033737273"><ele>514.0</ele><time>2026-04-19T11:33:02.998Z</time></trkpt><trkpt lat="42.708205253516226" lon="12.61019673394546"><ele>514.0</ele><time>2026-04-19T11:33:03.999Z</time></trkpt><trkpt lat="42.70831510906257" lon="12.610325985078255"><ele>514.0</ele><time>2026-04-19T11:33:04.999Z</time></trkpt><trkpt lat="42.708425083108914" lon="12.610449094268027"><ele>514.0</ele><time>2026-04-19T11:33:05.999Z</time></trkpt><trkpt lat="42.70867813911483" lon="12.61065791404734"><ele>511.0</ele><time>2026-04-19T11:33:07.999Z</time></trkpt><trkpt lat="42.708832650147144" lon="12.610756521331078"><ele>508.0</ele><time>2026-04-19T11:33:08.999Z</time></trkpt><trkpt lat="42.70899411577348" lon="12.61082417795994"><ele>505.0</ele><time>2026-04-19T11:33:09.999Z</time></trkpt><trkpt lat="42.70917847112158" lon="12.610872289743485"><ele>505.0</ele><time>2026-04-19T11:33:10.999Z</time></trkpt><trkpt lat="42.709349429252825" lon="12.610907582259149"><ele>505.0</ele><time>2026-04-19T11:33:11.999Z</time></trkpt><trkpt lat="42.709522560953" lon="12.61095865915232"><ele>505.0</ele><time>2026-04-19T11:33:12.999Z</time></trkpt><trkpt lat="42.70969805777325" lon="12.611014796432677"><ele>499.0</ele><time>2026-04-19T11:33:13.999Z</time></trkpt><trkpt lat="42.70987747241064" lon="12.61107556523067"><ele>493.0</ele><time>2026-04-19T11:33:15Z</time></trkpt><trkpt lat="42.710404526482066" lon="12.611331883829656"><ele>487.0</ele><time>2026-04-19T11:33:18Z</time></trkpt><trkpt lat="42.71095024053773" lon="12.61167045060914"><ele>487.6666666666667</ele><time>2026-04-19T11:33:22Z</time></trkpt><trkpt lat="42.71113186406222" lon="12.611975163510838"><ele>488.33333333333337</ele><time>2026-04-19T11:33:25Z</time></trkpt><trkpt lat="42.711160921149606" lon="12.612147388612055"><ele>489.0</ele><time>2026-04-19T11:33:26Z</time></trkpt><trkpt lat="42.71119446719427" lon="12.61228691328846"><ele>486.75</ele><time>2026-04-19T11:33:27Z</time></trkpt><trkpt lat="42.711251761332164" lon="12.612421212392839"><ele>484.5</ele><time>2026-04-19T11:33:28Z</time></trkpt><trkpt lat="42.71135841925405" lon="12.612539613786842"><ele>482.25</ele><time>2026-04-19T11:33:29.001Z</time></trkpt><trkpt lat="42.71145917682044" lon="12.61261460030569"><ele>480.0</ele><time>2026-04-19T11:33:30.001Z</time></trkpt><trkpt lat="42.71160118166779" lon="12.61260647606399"><ele>480.0</ele><time>2026-04-19T11:33:31.001Z</time></trkpt><trkpt lat="42.711733596702025" lon="12.612572087108774"><ele>480.0</ele><time>2026-04-19T11:33:32.001Z</time></trkpt><trkpt lat="42.71187591842587" lon="12.612494100620973"><ele>480.0</ele><time>2026-04-19T11:33:33.001Z</time></trkpt><trkpt lat="42.71200614999085" lon="12.612391744894897"><ele>480.0</ele><time>2026-04-19T11:33:34.001Z</time></trkpt><trkpt lat="42.71215165037914" lon="12.612215420242968"><ele>478.0</ele><time>2026-04-19T11:33:35.001Z</time></trkpt><trkpt lat="42.71224963482722" lon="12.612028587621275"><ele>476.0</ele><time>2026-04-19T11:33:36.001Z</time></trkpt><trkpt lat="42.71233041897756" lon="12.611883756381983"><ele>474.0</ele><time>2026-04-19T11:33:37.001Z</time></trkpt><trkpt lat="42.71241261578019" lon="12.61165534301453"><ele>474.0</ele><time>2026-04-19T11:33:38.001Z</time></trkpt><trkpt lat="42.71248010086787" lon="12.611445814934651"><ele>474.0</ele><time>2026-04-19T11:33:39.001Z</time></trkpt><trkpt lat="42.71254988033224" lon="12.611260949656835"><ele>474.0</ele><time>2026-04-19T11:33:40.001Z</time></trkpt><trkpt lat="42.71263777235891" lon="12.611098981274067"><ele>475.5</ele><time>2026-04-19T11:33:41.001Z</time></trkpt><trkpt lat="42.71272274999178" lon="12.610982767328583"><ele>477.0</ele><time>2026-04-19T11:33:42.001Z</time></trkpt><trkpt lat="42.71284072951227" lon="12.61090402852334"><ele>478.5</ele><time>2026-04-19T11:33:43.001Z</time></trkpt><trkpt lat="42.712984495284424" lon="12.610829675566535"><ele>480.0</ele><time>2026-04-19T11:33:44.001Z</time></trkpt><trkpt lat="42.713057950026375" lon="12.610667228470923"><ele>474.0</ele><time>2026-04-19T11:33:45.001Z</time></trkpt><trkpt lat="42.713112970953965" lon="12.610518180630917"><ele>468.0</ele><time>2026-04-19T11:33:46.001Z</time></trkpt><trkpt lat="42.71314134550874" lon="12.610308258880773"><ele>462.0</ele><time>2026-04-19T11:33:47.001Z</time></trkpt><trkpt lat="42.713156130599444" lon="12.610091983795844"><ele>456.0</ele><time>2026-04-19T11:33:48.001Z</time></trkpt><trkpt lat="42.71319902498508" lon="12.609874490850782"><ele>456.33333333333337</ele><time>2026-04-19T11:33:49.001Z</time></trkpt><trkpt lat="42.71326368710805" lon="12.609676192924491"><ele>456.6666666666667</ele><time>2026-04-19T11:33:50.001Z</time></trkpt><trkpt lat="42.713366790050706" lon="12.609465549718875"><ele>457.0</ele><time>2026-04-19T11:33:51.001Z</time></trkpt><trkpt lat="42.71349455006649" lon="12.609278541871026"><ele>455.6666666666667</ele><time>2026-04-19T11:33:52.002Z</time></trkpt><trkpt lat="42.713622319549074" lon="12.609095391061627"><ele>454.33333333333337</ele><time>2026-04-19T11:33:53.002Z</time></trkpt><trkpt lat="42.71374069218806" lon="12.608928940122345"><ele>453.0</ele><time>2026-04-19T11:33:54.002Z</time></trkpt><trkpt lat="42.71385832135189" lon="12.608785524041389"><ele>457.0</ele><time>2026-04-19T11:33:55.002Z</time></trkpt><trkpt lat="42.71396224689227" lon="12.608638028643462"><ele>461.0</ele><time>2026-04-19T11:33:56.002Z</time></trkpt><trkpt lat="42.714057568396534" lon="12.608501549790464"><ele>465.0</ele><time>2026-04-19T11:33:57.002Z</time></trkpt><trkpt lat="42.714145531676614" lon="12.60842245121401"><ele>469.0</ele><time>2026-04-19T11:33:58.002Z</time></trkpt><trkpt lat="42.71425833911046" lon="12.608401504466567"><ele>469.0</ele><time>2026-04-19T11:33:59.002Z</time></trkpt><trkpt lat="42.71436949593147" lon="12.608458656729109"><ele>469.0</ele><time>2026-04-19T11:34:00.002Z</time></trkpt><trkpt lat="42.7144571091841" lon="12.608535670033538"><ele>469.0</ele><time>2026-04-19T11:34:01.002Z</time></trkpt><trkpt lat="42.71451806491546" lon="12.608641519900486"><ele>469.0</ele><time>2026-04-19T11:34:02.002Z</time></trkpt><trkpt lat="42.71460188633788" lon="12.608842023590052"><ele>465.5</ele><time>2026-04-19T11:34:03.002Z</time></trkpt><trkpt lat="42.71467192002701" lon="12.609146274198016"><ele>462.0</ele><time>2026-04-19T11:34:04.002Z</time></trkpt><trkpt lat="42.71476509539896" lon="12.609410947041951"><ele>458.0</ele><time>2026-04-19T11:34:05.002Z</time></trkpt><trkpt lat="42.71486507556253" lon="12.609690904438665"><ele>454.0</ele><time>2026-04-19T11:34:06.002Z</time></trkpt><trkpt lat="42.714964149597" lon="12.60998174127762"><ele>454.0</ele><time>2026-04-19T11:34:07.002Z</time></trkpt><trkpt lat="42.71505896535774" lon="12.610229030648178"><ele>454.0</ele><time>2026-04-19T11:34:08.002Z</time></trkpt><trkpt lat="42.71514489445377" lon="12.61043351651655"><ele>454.0</ele><time>2026-04-19T11:34:09.002Z</time></trkpt><trkpt lat="42.715246078300545" lon="12.610613683743557"><ele>455.0</ele><time>2026-04-19T11:34:10.002Z</time></trkpt><trkpt lat="42.715368080434295" lon="12.610752479466697"><ele>456.0</ele><time>2026-04-19T11:34:11.002Z</time></trkpt><trkpt lat="42.71551294504173" lon="12.610874508443679"><ele>457.0</ele><time>2026-04-19T11:34:12.002Z</time></trkpt><trkpt lat="42.715665254603145" lon="12.61098902199034"><ele>457.0</ele><time>2026-04-19T11:34:13.002Z</time></trkpt><trkpt lat="42.71585489988375" lon="12.61105747473954"><ele>457.0</ele><time>2026-04-19T11:34:14.002Z</time></trkpt><trkpt lat="42.716049163015214" lon="12.611112483061783"><ele>457.0</ele><time>2026-04-19T11:34:15.002Z</time></trkpt><trkpt lat="42.71622852218371" lon="12.611151459081706"><ele>460.33333333333337</ele><time>2026-04-19T11:34:16.002Z</time></trkpt><trkpt lat="42.716376307631265" lon="12.611209777477898"><ele>463.66666666666663</ele><time>2026-04-19T11:34:17.002Z</time></trkpt><trkpt lat="42.71651035028937" lon="12.611319000013276"><ele>467.0</ele><time>2026-04-19T11:34:18.002Z</time></trkpt><trkpt lat="42.716610449673105" lon="12.611472638005282"><ele>467.0</ele><time>2026-04-19T11:34:19.002Z</time></trkpt><trkpt lat="42.71666380367041" lon="12.611661696702665"><ele>467.0</ele><time>2026-04-19T11:34:20.002Z</time></trkpt><trkpt lat="42.71665322980916" lon="12.61183509376752"><ele>467.0</ele><time>2026-04-19T11:34:21.002Z</time></trkpt><trkpt lat="42.71663178495319" lon="12.612089722858887"><ele>467.0</ele><time>2026-04-19T11:34:22.002Z</time></trkpt><trkpt lat="42.71658889260631" lon="12.612321165689766"><ele>467.0</ele><time>2026-04-19T11:34:23.002Z</time></trkpt><trkpt lat="42.716558264286085" lon="12.612575245110119"><ele>467.0</ele><time>2026-04-19T11:34:24.002Z</time></trkpt><trkpt lat="42.71653032505779" lon="12.612841978273101"><ele>465.5</ele><time>2026-04-19T11:34:25.002Z</time></trkpt><trkpt lat="42.71650673294286" lon="12.61316798603739"><ele>464.0</ele><time>2026-04-19T11:34:26.003Z</time></trkpt><trkpt lat="42.716445997879916" lon="12.613471662856847"><ele>465.0</ele><time>2026-04-19T11:34:27.003Z</time></trkpt><trkpt lat="42.71637616271311" lon="12.613736555399843"><ele>466.0</ele><time>2026-04-19T11:34:28.003Z</time></trkpt><trkpt lat="42.71629088776242" lon="12.613960131415467"><ele>467.0</ele><time>2026-04-19T11:34:29.003Z</time></trkpt><trkpt lat="42.71623547207793" lon="12.614183053872521"><ele>467.0</ele><time>2026-04-19T11:34:30.003Z</time></trkpt><trkpt lat="42.716209869357726" lon="12.614421213072385"><ele>467.0</ele><time>2026-04-19T11:34:31.003Z</time></trkpt><trkpt lat="42.71620277852035" lon="12.614665379905581"><ele>467.0</ele><time>2026-04-19T11:34:32.003Z</time></trkpt><trkpt lat="42.71620350238829" lon="12.614897836968705"><ele>467.25</ele><time>2026-04-19T11:34:33.003Z</time></trkpt><trkpt lat="42.71620835399774" lon="12.615119713387037"><ele>467.5</ele><time>2026-04-19T11:34:34.003Z</time></trkpt><trkpt lat="42.716228429312714" lon="12.615311015770908"><ele>467.75</ele><time>2026-04-19T11:34:35.003Z</time></trkpt><trkpt lat="42.716280088371136" lon="12.615484258292943"><ele>468.0</ele><time>2026-04-19T11:34:36.003Z</time></trkpt><trkpt lat="42.71635881038782" lon="12.615641693807637"><ele>465.0</ele><time>2026-04-19T11:34:37.003Z</time></trkpt><trkpt lat="42.71648345061203" lon="12.615762529176433"><ele>462.0</ele><time>2026-04-19T11:34:38.003Z</time></trkpt><trkpt lat="42.71661864001068" lon="12.615888588114597"><ele>459.0</ele><time>2026-04-19T11:34:39.003Z</time></trkpt><trkpt lat="42.716758812710914" lon="12.616024158365091"><ele>457.66666666666663</ele><time>2026-04-19T11:34:40.003Z</time></trkpt><trkpt lat="42.71689741968532" lon="12.616165957032981"><ele>456.3333333333333</ele><time>2026-04-19T11:34:41.003Z</time></trkpt><trkpt lat="42.71700997406946" lon="12.616329819594279"><ele>455.0</ele><time>2026-04-19T11:34:42.003Z</time></trkpt><trkpt lat="42.717079557117714" lon="12.6165044317634"><ele>455.0</ele><time>2026-04-19T11:34:43.003Z</time></trkpt><trkpt lat="42.717102402689434" lon="12.616701200346357"><ele>455.0</ele><time>2026-04-19T11:34:44.003Z</time></trkpt><trkpt lat="42.71709670142168" lon="12.616903787605072"><ele>455.0</ele><time>2026-04-19T11:34:45.003Z</time></trkpt><trkpt lat="42.71708670693502" lon="12.617078599479374"><ele>455.0</ele><time>2026-04-19T11:34:46.003Z</time></trkpt><trkpt lat="42.71708657168732" lon="12.617240133822497"><ele>454.66666666666663</ele><time>2026-04-19T11:34:47.003Z</time></trkpt><trkpt lat="42.7170936492749" lon="12.617389357162788"><ele>454.3333333333333</ele><time>2026-04-19T11:34:48.003Z</time></trkpt><trkpt lat="42.717100729617584" lon="12.617510017356821"><ele>454.0</ele><time>2026-04-19T11:34:49.003Z</time></trkpt><trkpt lat="42.7171057955006" lon="12.61762995524837"><ele>453.66666666666663</ele><time>2026-04-19T11:34:50.003Z</time></trkpt><trkpt lat="42.717053668410074" lon="12.617703656838618"><ele>453.3333333333333</ele><time>2026-04-19T11:34:52.003Z</time></trkpt><trkpt lat="42.71701201112686" lon="12.617777636534015"><ele>453.0</ele><time>2026-04-19T11:34:53.003Z</time></trkpt><trkpt lat="42.71700277343243" lon="12.617950035224787"><ele>453.0</ele><time>2026-04-19T11:34:55.003Z</time></trkpt><trkpt lat="42.71702455740991" lon="12.618042103214396"><ele>452.99999999999994</ele><time>2026-04-19T11:34:56.003Z</time></trkpt><trkpt lat="42.717056446136844" lon="12.618135626814716"><ele>452.99999999999994</ele><time>2026-04-19T11:34:57.003Z</time></trkpt><trkpt lat="42.7170937039213" lon="12.618257726502225"><ele>453.0</ele><time>2026-04-19T11:34:58.003Z</time></trkpt><trkpt lat="42.717144244624095" lon="12.618370694214345"><ele>453.0</ele><time>2026-04-19T11:34:59.003Z</time></trkpt><trkpt lat="42.71726113070991" lon="12.618483505095611"><ele>453.0</ele><time>2026-04-19T11:35:00.003Z</time></trkpt><trkpt lat="42.717321907628545" lon="12.618563549069611"><ele>452.99999999999994</ele><time>2026-04-19T11:35:01.003Z</time></trkpt><trkpt lat="42.71738141456743" lon="12.618667747344082"><ele>452.99999999999994</ele><time>2026-04-19T11:35:02.003Z</time></trkpt><trkpt lat="42.71739396614951" lon="12.618793558780013"><ele>453.0</ele><time>2026-04-19T11:35:04.004Z</time></trkpt><trkpt lat="42.71743417987118" lon="12.618987943259862"><ele>453.0</ele><time>2026-04-19T11:35:05.998Z</time></trkpt><trkpt lat="42.7174550694496" lon="12.619095822643246"><ele>454.0</ele><time>2026-04-19T11:35:06.999Z</time></trkpt><trkpt lat="42.71745529047649" lon="12.619227719527084"><ele>454.99999999999994</ele><time>2026-04-19T11:35:07.999Z</time></trkpt><trkpt lat="42.71746007691807" lon="12.619354773307958"><ele>455.99999999999994</ele><time>2026-04-19T11:35:08.999Z</time></trkpt><trkpt lat="42.717461313659" lon="12.619506772430128"><ele>457.0</ele><time>2026-04-19T11:35:09.999Z</time></trkpt><trkpt lat="42.71744315674758" lon="12.619675262228164"><ele>458.0</ele><time>2026-04-19T11:35:10.999Z</time></trkpt><trkpt lat="42.717414000870114" lon="12.619860221905036"><ele>459.4</ele><time>2026-04-19T11:35:11.999Z</time></trkpt><trkpt lat="42.7173968348671" lon="12.62003718787725"><ele>460.79999999999995</ele><time>2026-04-19T11:35:12.999Z</time></trkpt><trkpt lat="42.71737868867205" lon="12.620174593641096"><ele>462.2</ele><time>2026-04-19T11:35:13.999Z</time></trkpt><trkpt lat="42.717356015404555" lon="12.62030536475442"><ele>463.6</ele><time>2026-04-19T11:35:14.999Z</time></trkpt><trkpt lat="42.717330118129595" lon="12.620409330699172"><ele>465.0</ele><time>2026-04-19T11:35:15.999Z</time></trkpt><trkpt lat="42.71733165924241" lon="12.620506445983494"><ele>467.0</ele><time>2026-04-19T11:35:16.999Z</time></trkpt><trkpt lat="42.71736029820495" lon="12.620618891537973"><ele>469.0</ele><time>2026-04-19T11:35:17.999Z</time></trkpt><trkpt lat="42.717392320077906" lon="12.620745618006637"><ele>471.0</ele><time>2026-04-19T11:35:18.999Z</time></trkpt><trkpt lat="42.71744819251988" lon="12.620877158116967"><ele>473.0</ele><time>2026-04-19T11:35:19.999Z</time></trkpt><trkpt lat="42.71752610214929" lon="12.620991079094303"><ele>475.0</ele><time>2026-04-19T11:35:20.999Z</time></trkpt><trkpt lat="42.71758967195988" lon="12.621116385717533"><ele>476.6</ele><time>2026-04-19T11:35:21.999Z</time></trkpt><trkpt lat="42.717646012604234" lon="12.621230379493761"><ele>478.2</ele><time>2026-04-19T11:35:22.999Z</time></trkpt><trkpt lat="42.717684606809435" lon="12.621356330605735"><ele>479.79999999999995</ele><time>2026-04-19T11:35:24Z</time></trkpt><trkpt lat="42.717711644340724" lon="12.621492335422648"><ele>481.4</ele><time>2026-04-19T11:35:25Z</time></trkpt><trkpt lat="42.71774003547194" lon="12.62165093353251"><ele>483.0</ele><time>2026-04-19T11:35:26Z</time></trkpt><trkpt lat="42.71777147971699" lon="12.621821264153951"><ele>476.75</ele><time>2026-04-19T11:35:27Z</time></trkpt><trkpt lat="42.71781986521657" lon="12.621978957326357"><ele>470.5</ele><time>2026-04-19T11:35:28Z</time></trkpt><trkpt lat="42.71788105842077" lon="12.622125859403335"><ele>464.25</ele><time>2026-04-19T11:35:29Z</time></trkpt><trkpt lat="42.717940970791176" lon="12.622251411367102"><ele>458.0</ele><time>2026-04-19T11:35:30Z</time></trkpt><trkpt lat="42.71799504321742" lon="12.622389510731136"><ele>457.99999999999994</ele><time>2026-04-19T11:35:31Z</time></trkpt><trkpt lat="42.71802781396877" lon="12.622513724667842"><ele>458.0</ele><time>2026-04-19T11:35:32Z</time></trkpt><trkpt lat="42.71805013160992" lon="12.62261822332665"><ele>458.0</ele><time>2026-04-19T11:35:33Z</time></trkpt><trkpt lat="42.718062531486666" lon="12.622708674490184"><ele>458.0</ele><time>2026-04-19T11:35:34Z</time></trkpt><trkpt lat="42.71806559948919" lon="12.622796236283527"><ele>457.99999999999994</ele><time>2026-04-19T11:35:35Z</time></trkpt><trkpt lat="42.718062046043556" lon="12.622886816295438"><ele>458.0</ele><time>2026-04-19T11:35:36Z</time></trkpt><trkpt lat="42.71802781086816" lon="12.622978286147871"><ele>457.2</ele><time>2026-04-19T11:35:37Z</time></trkpt><trkpt lat="42.717960080000196" lon="12.623110042913552"><ele>456.4</ele><time>2026-04-19T11:35:38Z</time></trkpt><trkpt lat="42.717882524847646" lon="12.623225808933647"><ele>455.59999999999997</ele><time>2026-04-19T11:35:39Z</time></trkpt><trkpt lat="42.71781414215768" lon="12.623358523767847"><ele>454.79999999999995</ele><time>2026-04-19T11:35:40Z</time></trkpt><trkpt lat="42.71776877449753" lon="12.623462230569297"><ele>454.0</ele><time>2026-04-19T11:35:41Z</time></trkpt><trkpt lat="42.71773307298073" lon="12.623543310273979"><ele>452.4</ele><time>2026-04-19T11:35:42Z</time></trkpt><trkpt lat="42.71762889951616" lon="12.62363636395047"><ele>450.79999999999995</ele><time>2026-04-19T11:35:44.001Z</time></trkpt><trkpt lat="42.71748977017423" lon="12.6236903416156"><ele>449.20000000000005</ele><time>2026-04-19T11:35:46.001Z</time></trkpt><trkpt lat="42.71740625697469" lon="12.623715602433125"><ele>447.6</ele><time>2026-04-19T11:35:47.001Z</time></trkpt><trkpt lat="42.71731546018841" lon="12.623742710920903"><ele>446.0</ele><time>2026-04-19T11:35:48.001Z</time></trkpt><trkpt lat="42.71722306557372" lon="12.623775093596135"><ele>445.99999999999994</ele><time>2026-04-19T11:35:49.001Z</time></trkpt><trkpt lat="42.71712826751485" lon="12.623771998570716"><ele>446.0</ele><time>2026-04-19T11:35:50.001Z</time></trkpt><trkpt lat="42.717047251946084" lon="12.623837031066076"><ele>446.0</ele><time>2026-04-19T11:35:51.001Z</time></trkpt><trkpt lat="42.716999845752994" lon="12.623904015597404"><ele>446.0</ele><time>2026-04-19T11:35:52.001Z</time></trkpt><trkpt lat="42.716957584719154" lon="12.624006934257592"><ele>445.99999999999994</ele><time>2026-04-19T11:35:53.001Z</time></trkpt><trkpt lat="42.716925268101654" lon="12.624125999940784"><ele>446.0</ele><time>2026-04-19T11:35:54.001Z</time></trkpt><trkpt lat="42.71690381426761" lon="12.624251754234956"><ele>445.0</ele><time>2026-04-19T11:35:55.001Z</time></trkpt><trkpt lat="42.71688690544634" lon="12.624402722851022"><ele>444.0</ele><time>2026-04-19T11:35:56.001Z</time></trkpt><trkpt lat="42.71686658564121" lon="12.62451860263535"><ele>443.0</ele><time>2026-04-19T11:35:57.001Z</time></trkpt><trkpt lat="42.716841757517976" lon="12.624682522556071"><ele>442.0</ele><time>2026-04-19T11:35:58.001Z</time></trkpt><trkpt lat="42.71680094938393" lon="12.624786750077943"><ele>441.0</ele><time>2026-04-19T11:35:59.001Z</time></trkpt><trkpt lat="42.71673301051051" lon="12.624888457739518"><ele>441.0</ele><time>2026-04-19T11:36:00.001Z</time></trkpt><trkpt lat="42.71670956126655" lon="12.625006700571973"><ele>441.0</ele><time>2026-04-19T11:36:01.001Z</time></trkpt><trkpt lat="42.71666423726785" lon="12.625142157312142"><ele>441.0</ele><time>2026-04-19T11:36:02.001Z</time></trkpt><trkpt lat="42.71661398637289" lon="12.625257438580975"><ele>441.0</ele><time>2026-04-19T11:36:03.001Z</time></trkpt><trkpt lat="42.71656627028103" lon="12.625375558958645"><ele>441.0</ele><time>2026-04-19T11:36:04.001Z</time></trkpt><trkpt lat="42.71652774859982" lon="12.625484094751139"><ele>439.20000000000005</ele><time>2026-04-19T11:36:05.001Z</time></trkpt><trkpt lat="42.716488234295774" lon="12.625574874553692"><ele>437.40000000000003</ele><time>2026-04-19T11:36:06.001Z</time></trkpt><trkpt lat="42.71647621294012" lon="12.625685561766227"><ele>435.6</ele><time>2026-04-19T11:36:07.001Z</time></trkpt><trkpt lat="42.7164774937511" lon="12.625829600502252"><ele>433.8</ele><time>2026-04-19T11:36:08.001Z</time></trkpt><trkpt lat="42.71649530512712" lon="12.625967851903328"><ele>432.0</ele><time>2026-04-19T11:36:09.001Z</time></trkpt><trkpt lat="42.71650864817004" lon="12.626114227476748"><ele>431.20000000000005</ele><time>2026-04-19T11:36:10.001Z</time></trkpt><trkpt lat="42.7164933918454" lon="12.626267438354297"><ele>430.40000000000003</ele><time>2026-04-19T11:36:11.002Z</time></trkpt><trkpt lat="42.71649872913311" lon="12.626403832846172"><ele>429.59999999999997</ele><time>2026-04-19T11:36:12.002Z</time></trkpt><trkpt lat="42.71648892487415" lon="12.626561446676796"><ele>428.79999999999995</ele><time>2026-04-19T11:36:13.002Z</time></trkpt><trkpt lat="42.716488667126804" lon="12.626652165880932"><ele>428.0</ele><time>2026-04-19T11:36:14.002Z</time></trkpt><trkpt lat="42.716418515471844" lon="12.626725911399848"><ele>428.0</ele><time>2026-04-19T11:36:16.002Z</time></trkpt><trkpt lat="42.716292527904855" lon="12.626725975259928"><ele>427.99999999999994</ele><time>2026-04-19T11:36:18.002Z</time></trkpt><trkpt lat="42.71621113129046" lon="12.626716208809606"><ele>427.99999999999994</ele><time>2026-04-19T11:36:19.002Z</time></trkpt><trkpt lat="42.71612772974368" lon="12.626715103713371"><ele>428.0</ele><time>2026-04-19T11:36:20.002Z</time></trkpt><trkpt lat="42.716055572506654" lon="12.626733483086346"><ele>428.0</ele><time>2026-04-19T11:36:21.002Z</time></trkpt><trkpt lat="42.715920867900365" lon="12.626724299781381"><ele>426.59999999999997</ele><time>2026-04-19T11:36:23.002Z</time></trkpt><trkpt lat="42.715825804771875" lon="12.62661751655534"><ele>425.19999999999993</ele><time>2026-04-19T11:36:25.002Z</time></trkpt><trkpt lat="42.71576972707615" lon="12.62652456066853"><ele>423.8</ele><time>2026-04-19T11:36:26.002Z</time></trkpt><trkpt lat="42.71570024265518" lon="12.626431387692842"><ele>422.4</ele><time>2026-04-19T11:36:27.002Z</time></trkpt><trkpt lat="42.715622753795316" lon="12.626334305365168"><ele>421.0</ele><time>2026-04-19T11:36:28.002Z</time></trkpt><trkpt lat="42.71555148792064" lon="12.626281110316272"><ele>421.00000000000006</ele><time>2026-04-19T11:36:29.002Z</time></trkpt><trkpt lat="42.71548004393848" lon="12.62621356302702"><ele>421.0</ele><time>2026-04-19T11:36:30.002Z</time></trkpt><trkpt lat="42.715416650362755" lon="12.626133369429272"><ele>421.0</ele><time>2026-04-19T11:36:32.002Z</time></trkpt><trkpt lat="42.715343930157346" lon="12.626094632523754"><ele>421.0</ele><time>2026-04-19T11:36:36.002Z</time></trkpt><trkpt lat="42.71528515308428" lon="12.626044378154937"><ele>421.00000000000006</ele><time>2026-04-19T11:36:37.002Z</time></trkpt><trkpt lat="42.71522429356653" lon="12.625989343887543"><ele>421.0</ele><time>2026-04-19T11:36:38.002Z</time></trkpt><trkpt lat="42.71517295847645" lon="12.625930498444857"><ele>421.83333333333337</ele><time>2026-04-19T11:36:39.002Z</time></trkpt><trkpt lat="42.715113470639096" lon="12.625866677674756"><ele>422.6666666666667</ele><time>2026-04-19T11:36:40.002Z</time></trkpt><trkpt lat="42.71505310788595" lon="12.625815381947827"><ele>423.5</ele><time>2026-04-19T11:36:41.002Z</time></trkpt><trkpt lat="42.71498895448786" lon="12.62576704722951"><ele>424.33333333333337</ele><time>2026-04-19T11:36:42.002Z</time></trkpt><trkpt lat="42.714910570246815" lon="12.625720776471212"><ele>425.1666666666667</ele><time>2026-04-19T11:36:43.003Z</time></trkpt><trkpt lat="42.71481930521399" lon="12.625705376070394"><ele>426.0</ele><time>2026-04-19T11:36:44.003Z</time></trkpt><trkpt lat="42.71473022303448" lon="12.625710122603834"><ele>426.0</ele><time>2026-04-19T11:36:45.003Z</time></trkpt><trkpt lat="42.71459185840537" lon="12.625699489241098"><ele>426.0</ele><time>2026-04-19T11:36:47.003Z</time></trkpt><trkpt lat="42.71449786667481" lon="12.625667832631313"><ele>426.0</ele><time>2026-04-19T11:36:48.003Z</time></trkpt><trkpt lat="42.71442964966746" lon="12.625611150393679"><ele>426.0</ele><time>2026-04-19T11:36:49.003Z</time></trkpt><trkpt lat="42.71434032150573" lon="12.625589708945617"><ele>426.0</ele><time>2026-04-19T11:36:50.003Z</time></trkpt><trkpt lat="42.71426088308394" lon="12.625613272049549"><ele>426.0</ele><time>2026-04-19T11:36:51.003Z</time></trkpt><trkpt lat="42.71418581886843" lon="12.625626612458605"><ele>426.0</ele><time>2026-04-19T11:36:52.003Z</time></trkpt><trkpt lat="42.71411148787198" lon="12.625655235696009"><ele>426.0</ele><time>2026-04-19T11:36:53.003Z</time></trkpt><trkpt lat="42.71403870459677" lon="12.625738619836307"><ele>426.0</ele><time>2026-04-19T11:36:54.003Z</time></trkpt><trkpt lat="42.71397155305684" lon="12.62584633544069"><ele>426.0</ele><time>2026-04-19T11:36:55.003Z</time></trkpt><trkpt lat="42.713915280552264" lon="12.625941148361171"><ele>426.0</ele><time>2026-04-19T11:36:56.003Z</time></trkpt><trkpt lat="42.71385591757426" lon="12.6259968767939"><ele>426.0</ele><time>2026-04-19T11:36:57.003Z</time></trkpt><trkpt lat="42.71379152974403" lon="12.625994173916315"><ele>426.0</ele><time>2026-04-19T11:36:59.003Z</time></trkpt><trkpt lat="42.713697024873355" lon="12.626003968557525"><ele>426.0</ele><time>2026-04-19T11:37:01.003Z</time></trkpt><trkpt lat="42.71360091183562" lon="12.626003481879959"><ele>426.0</ele><time>2026-04-19T11:37:02.003Z</time></trkpt><trkpt lat="42.71350790852514" lon="12.626009894689538"><ele>426.0</ele><time>2026-04-19T11:37:03.003Z</time></trkpt><trkpt lat="42.713422897661424" lon="12.626011248577198"><ele>426.0</ele><time>2026-04-19T11:37:04.003Z</time></trkpt><trkpt lat="42.7133270192056" lon="12.626015520221179"><ele>427.0</ele><time>2026-04-19T11:37:05.003Z</time></trkpt><trkpt lat="42.71322501526955" lon="12.625986271061091"><ele>428.0</ele><time>2026-04-19T11:37:06.003Z</time></trkpt><trkpt lat="42.713131786284166" lon="12.62596750610528"><ele>429.0</ele><time>2026-04-19T11:37:07.003Z</time></trkpt><trkpt lat="42.71304835546768" lon="12.625936853339008"><ele>430.0</ele><time>2026-04-19T11:37:08.003Z</time></trkpt><trkpt lat="42.71298883040144" lon="12.6258732274275"><ele>431.0</ele><time>2026-04-19T11:37:09.003Z</time></trkpt><trkpt lat="42.71292223445856" lon="12.625862879541865"><ele>432.0</ele><time>2026-04-19T11:37:10.003Z</time></trkpt><trkpt lat="42.712858311366254" lon="12.625876042399618"><ele>432.0</ele><time>2026-04-19T11:37:11.003Z</time></trkpt><trkpt lat="42.71278448671988" lon="12.625954974248721"><ele>432.0</ele><time>2026-04-19T11:37:11.998Z</time></trkpt><trkpt lat="42.7127374249315" lon="12.62602492243707"><ele>432.0</ele><time>2026-04-19T11:37:12.998Z</time></trkpt><trkpt lat="42.71266795289143" lon="12.62609695020139"><ele>432.0</ele><time>2026-04-19T11:37:13.999Z</time></trkpt><trkpt lat="42.71257810061992" lon="12.626177994111277"><ele>432.0</ele><time>2026-04-19T11:37:14.999Z</time></trkpt><trkpt lat="42.712527662414374" lon="12.626246388596831"><ele>432.0</ele><time>2026-04-19T11:37:15.999Z</time></trkpt><trkpt lat="42.712420278259835" lon="12.626344133025485"><ele>428.0</ele><time>2026-04-19T11:37:17.999Z</time></trkpt><trkpt lat="42.712357789638915" lon="12.626362842194771"><ele>424.0</ele><time>2026-04-19T11:37:18.999Z</time></trkpt><trkpt lat="42.71228538539064" lon="12.62641295213039"><ele>420.0</ele><time>2026-04-19T11:37:19.999Z</time></trkpt><trkpt lat="42.712204691062055" lon="12.626460304506402"><ele>416.0</ele><time>2026-04-19T11:37:20.999Z</time></trkpt><trkpt lat="42.71213079185152" lon="12.626498038905616"><ele>412.0</ele><time>2026-04-19T11:37:21.999Z</time></trkpt><trkpt lat="42.71206590757422" lon="12.626535049711313"><ele>408.0</ele><time>2026-04-19T11:37:22.999Z</time></trkpt><trkpt lat="42.71200780404597" lon="12.626574569841702"><ele>404.0</ele><time>2026-04-19T11:37:23.999Z</time></trkpt><trkpt lat="42.71193102502967" lon="12.626627067040944"><ele>402.8333333333333</ele><time>2026-04-19T11:37:24.999Z</time></trkpt><trkpt lat="42.71186360572151" lon="12.626650786992379"><ele>401.66666666666663</ele><time>2026-04-19T11:37:25.999Z</time></trkpt><trkpt lat="42.711789416023436" lon="12.626678815656044"><ele>400.5</ele><time>2026-04-19T11:37:26.999Z</time></trkpt><trkpt lat="42.71167365371535" lon="12.626709339823098"><ele>399.33333333333337</ele><time>2026-04-19T11:37:29Z</time></trkpt><trkpt lat="42.71161029407902" lon="12.626773451307194"><ele>398.1666666666667</ele><time>2026-04-19T11:37:30Z</time></trkpt><trkpt lat="42.71153965780645" lon="12.626808429949024"><ele>397.0</ele><time>2026-04-19T11:37:31Z</time></trkpt><trkpt lat="42.71145465632574" lon="12.626862634419549"><ele>397.00000000000006</ele><time>2026-04-19T11:37:32Z</time></trkpt><trkpt lat="42.71137473830176" lon="12.626921101606174"><ele>397.0</ele><time>2026-04-19T11:37:33Z</time></trkpt><trkpt lat="42.71129911988457" lon="12.626960818149465"><ele>397.0</ele><time>2026-04-19T11:37:34Z</time></trkpt><trkpt lat="42.71122225569779" lon="12.62700688070671"><ele>397.0</ele><time>2026-04-19T11:37:35Z</time></trkpt><trkpt lat="42.71115515047272" lon="12.62704545605055"><ele>397.00000000000006</ele><time>2026-04-19T11:37:36Z</time></trkpt><trkpt lat="42.71108181515605" lon="12.62707616747658"><ele>397.0</ele><time>2026-04-19T11:37:37Z</time></trkpt><trkpt lat="42.71100405105056" lon="12.62710075389733"><ele>393.83333333333337</ele><time>2026-04-19T11:37:38Z</time></trkpt><trkpt lat="42.7109366535178" lon="12.627101182201107"><ele>390.6666666666667</ele><time>2026-04-19T11:37:39Z</time></trkpt><trkpt lat="42.71086524481187" lon="12.62712095045146"><ele>387.5</ele><time>2026-04-19T11:37:40Z</time></trkpt><trkpt lat="42.71079245410606" lon="12.627144616475906"><ele>384.33333333333337</ele><time>2026-04-19T11:37:41Z</time></trkpt><trkpt lat="42.71067817577548" lon="12.627194303646847"><ele>381.1666666666667</ele><time>2026-04-19T11:37:43Z</time></trkpt><trkpt lat="42.71061208550816" lon="12.627223104591925"><ele>378.0</ele><time>2026-04-19T11:37:44Z</time></trkpt><trkpt lat="42.71055025505593" lon="12.627242205238565"><ele>378.0</ele><time>2026-04-19T11:37:45Z</time></trkpt><trkpt lat="42.71044264510357" lon="12.627255000481753"><ele>378.0</ele><time>2026-04-19T11:37:47Z</time></trkpt><trkpt lat="42.71035212653237" lon="12.62729584444572"><ele>378.0</ele><time>2026-04-19T11:37:49.001Z</time></trkpt><trkpt lat="42.71030685963664" lon="12.627407791688874"><ele>378.0</ele><time>2026-04-19T11:37:51.001Z</time></trkpt><trkpt lat="42.71028978010583" lon="12.627493085373938"><ele>378.0</ele><time>2026-04-19T11:37:52.001Z</time></trkpt><trkpt lat="42.71027127372318" lon="12.627597737122086"><ele>378.0</ele><time>2026-04-19T11:37:53.001Z</time></trkpt><trkpt lat="42.7102456660722" lon="12.627701846434919"><ele>378.0</ele><time>2026-04-19T11:37:54.001Z</time></trkpt><trkpt lat="42.71023313732595" lon="12.627803550042577"><ele>378.0</ele><time>2026-04-19T11:37:55.001Z</time></trkpt><trkpt lat="42.7102164652462" lon="12.627915261288704"><ele>378.0</ele><time>2026-04-19T11:37:56.001Z</time></trkpt><trkpt lat="42.71018510090291" lon="12.628044530217705"><ele>378.0</ele><time>2026-04-19T11:37:57.001Z</time></trkpt><trkpt lat="42.71015635619796" lon="12.62819697651488"><ele>378.0</ele><time>2026-04-19T11:37:58.001Z</time></trkpt><trkpt lat="42.710127543393405" lon="12.6283618200773"><ele>378.0</ele><time>2026-04-19T11:37:59.001Z</time></trkpt><trkpt lat="42.710104471546764" lon="12.628536380491228"><ele>378.0</ele><time>2026-04-19T11:38:00.001Z</time></trkpt><trkpt lat="42.71007778076826" lon="12.628686234876534"><ele>378.0</ele><time>2026-04-19T11:38:01.001Z</time></trkpt><trkpt lat="42.71004537594171" lon="12.628848255895413"><ele>378.0</ele><time>2026-04-19T11:38:02.001Z</time></trkpt><trkpt lat="42.71001489223127" lon="12.629028102390473"><ele>378.0</ele><time>2026-04-19T11:38:03.001Z</time></trkpt><trkpt lat="42.70999501356682" lon="12.629213473957414"><ele>378.0</ele><time>2026-04-19T11:38:04.001Z</time></trkpt><trkpt lat="42.709979952647515" lon="12.629405012625075"><ele>378.0</ele><time>2026-04-19T11:38:05.001Z</time></trkpt><trkpt lat="42.70996984883381" lon="12.629622838134726"><ele>378.0</ele><time>2026-04-19T11:38:06.001Z</time></trkpt><trkpt lat="42.70998150405863" lon="12.62982677774134"><ele>378.0</ele><time>2026-04-19T11:38:07.001Z</time></trkpt><trkpt lat="42.710006562879094" lon="12.630000756346515"><ele>378.0</ele><time>2026-04-19T11:38:08.001Z</time></trkpt><trkpt lat="42.710037762067806" lon="12.630175959714439"><ele>378.0</ele><time>2026-04-19T11:38:09.001Z</time></trkpt><trkpt lat="42.71007434553969" lon="12.630350025527594"><ele>378.0</ele><time>2026-04-19T11:38:10.001Z</time></trkpt><trkpt lat="42.71011724265002" lon="12.630538005690202"><ele>377.0</ele><time>2026-04-19T11:38:11.001Z</time></trkpt><trkpt lat="42.710182321484986" lon="12.630741182934859"><ele>376.0</ele><time>2026-04-19T11:38:12.001Z</time></trkpt><trkpt lat="42.710235479432924" lon="12.630943768387187"><ele>375.0</ele><time>2026-04-19T11:38:13.001Z</time></trkpt><trkpt lat="42.71029255807473" lon="12.631133737030542"><ele>376.75</ele><time>2026-04-19T11:38:14.001Z</time></trkpt><trkpt lat="42.71033480835414" lon="12.631307775080861"><ele>378.5</ele><time>2026-04-19T11:38:15.001Z</time></trkpt><trkpt lat="42.710365099082686" lon="12.631500682563713"><ele>380.25</ele><time>2026-04-19T11:38:16.002Z</time></trkpt><trkpt lat="42.71038399922302" lon="12.63170869279488"><ele>382.0</ele><time>2026-04-19T11:38:17.002Z</time></trkpt><trkpt lat="42.71039205613063" lon="12.631919647664263"><ele>381.75</ele><time>2026-04-19T11:38:18.002Z</time></trkpt><trkpt lat="42.710389214217905" lon="12.632118876129732"><ele>381.5</ele><time>2026-04-19T11:38:19.002Z</time></trkpt><trkpt lat="42.71037672298824" lon="12.632325032871057"><ele>381.25</ele><time>2026-04-19T11:38:20.002Z</time></trkpt><trkpt lat="42.710356638403375" lon="12.632515720295881"><ele>381.0</ele><time>2026-04-19T11:38:21.002Z</time></trkpt><trkpt lat="42.71032641736647" lon="12.632709314869219"><ele>381.3333333333333</ele><time>2026-04-19T11:38:22.002Z</time></trkpt><trkpt lat="42.710296512572306" lon="12.632909381822673"><ele>381.66666666666663</ele><time>2026-04-19T11:38:23.002Z</time></trkpt><trkpt lat="42.71025340071227" lon="12.63310912731079"><ele>382.0</ele><time>2026-04-19T11:38:24.002Z</time></trkpt><trkpt lat="42.71018867688944" lon="12.633324311710082"><ele>377.66666666666663</ele><time>2026-04-19T11:38:25.002Z</time></trkpt><trkpt lat="42.71011957239246" lon="12.63356700325218"><ele>373.3333333333333</ele><time>2026-04-19T11:38:26.002Z</time></trkpt><trkpt lat="42.71005610030116" lon="12.633805419861488"><ele>369.0</ele><time>2026-04-19T11:38:27.002Z</time></trkpt><trkpt lat="42.71000019162917" lon="12.634049334359883"><ele>369.0</ele><time>2026-04-19T11:38:28.002Z</time></trkpt><trkpt lat="42.70994370117518" lon="12.634306814846932"><ele>369.0</ele><time>2026-04-19T11:38:29.002Z</time></trkpt><trkpt lat="42.7098926250756" lon="12.634538204224038"><ele>369.0</ele><time>2026-04-19T11:38:30.002Z</time></trkpt><trkpt lat="42.70983627340992" lon="12.634755115064872"><ele>369.0</ele><time>2026-04-19T11:38:31.002Z</time></trkpt><trkpt lat="42.70979294633327" lon="12.634951689863026"><ele>369.0</ele><time>2026-04-19T11:38:32.002Z</time></trkpt><trkpt lat="42.70974939368753" lon="12.6351595527042"><ele>369.0</ele><time>2026-04-19T11:38:33.002Z</time></trkpt><trkpt lat="42.709704601058824" lon="12.63536703684649"><ele>371.3333333333333</ele><time>2026-04-19T11:38:34.002Z</time></trkpt><trkpt lat="42.70964957850716" lon="12.635582226489362"><ele>373.66666666666663</ele><time>2026-04-19T11:38:35.002Z</time></trkpt><trkpt lat="42.70960850724643" lon="12.635784662309607"><ele>376.0</ele><time>2026-04-19T11:38:36.002Z</time></trkpt><trkpt lat="42.70955871244902" lon="12.636012377991346"><ele>378.75</ele><time>2026-04-19T11:38:37.002Z</time></trkpt><trkpt lat="42.70951547215817" lon="12.636220498535263"><ele>381.5</ele><time>2026-04-19T11:38:38.002Z</time></trkpt><trkpt lat="42.70947158605121" lon="12.636408169561529"><ele>384.25</ele><time>2026-04-19T11:38:39.002Z</time></trkpt><trkpt lat="42.709418253185696" lon="12.636587511554573"><ele>387.0</ele><time>2026-04-19T11:38:40.002Z</time></trkpt><trkpt lat="42.70935896720504" lon="12.636737092748351"><ele>382.25</ele><time>2026-04-19T11:38:41.002Z</time></trkpt><trkpt lat="42.70928197554793" lon="12.636873052192016"><ele>377.5</ele><time>2026-04-19T11:38:42.002Z</time></trkpt><trkpt lat="42.70916036699559" lon="12.637000587112404"><ele>372.75</ele><time>2026-04-19T11:38:43.002Z</time></trkpt><trkpt lat="42.70906331778088" lon="12.637115567654154"><ele>368.0</ele><time>2026-04-19T11:38:44.002Z</time></trkpt><trkpt lat="42.70900557304935" lon="12.637242677106478"><ele>368.0</ele><time>2026-04-19T11:38:45.002Z</time></trkpt><trkpt lat="42.70896020195996" lon="12.6373823551807"><ele>368.0</ele><time>2026-04-19T11:38:46.002Z</time></trkpt><trkpt lat="42.70892577596325" lon="12.63753291352146"><ele>368.0</ele><time>2026-04-19T11:38:47.002Z</time></trkpt><trkpt lat="42.70889814651165" lon="12.637656185592558"><ele>368.0</ele><time>2026-04-19T11:38:48.003Z</time></trkpt><trkpt lat="42.70892158450613" lon="12.637778416850367"><ele>368.0</ele><time>2026-04-19T11:38:49.003Z</time></trkpt><trkpt lat="42.70901851886701" lon="12.637907032936605"><ele>370.0</ele><time>2026-04-19T11:38:50.003Z</time></trkpt><trkpt lat="42.709107814154116" lon="12.637973738024684"><ele>372.0</ele><time>2026-04-19T11:38:51.003Z</time></trkpt><trkpt lat="42.70920112251263" lon="12.638064546474993"><ele>374.0</ele><time>2026-04-19T11:38:52.003Z</time></trkpt><trkpt lat="42.70934878384042" lon="12.638065883167334"><ele>376.0</ele><time>2026-04-19T11:38:53.003Z</time></trkpt><trkpt lat="42.70947283252401" lon="12.638141179780492"><ele>376.0</ele><time>2026-04-19T11:38:54.003Z</time></trkpt><trkpt lat="42.70964296179481" lon="12.638257918745552"><ele>376.0</ele><time>2026-04-19T11:38:55.003Z</time></trkpt><trkpt lat="42.70979952045969" lon="12.638357975400146"><ele>376.0</ele><time>2026-04-19T11:38:56.003Z</time></trkpt><trkpt lat="42.70996199067283" lon="12.638474524873164"><ele>376.0</ele><time>2026-04-19T11:38:57.003Z</time></trkpt><trkpt lat="42.710126525716824" lon="12.6385925677584"><ele>376.0</ele><time>2026-04-19T11:38:58.003Z</time></trkpt><trkpt lat="42.71029448701663" lon="12.638723342155638"><ele>376.0</ele><time>2026-04-19T11:38:59.003Z</time></trkpt><trkpt lat="42.71045036160367" lon="12.638859005705122"><ele>369.66666666666663</ele><time>2026-04-19T11:39:00.003Z</time></trkpt><trkpt lat="42.7105888006281" lon="12.638991956033786"><ele>363.3333333333333</ele><time>2026-04-19T11:39:01.003Z</time></trkpt><trkpt lat="42.710696583256514" lon="12.639155707045807"><ele>357.0</ele><time>2026-04-19T11:39:02.003Z</time></trkpt><trkpt lat="42.71081717862086" lon="12.63927695198532"><ele>357.0</ele><time>2026-04-19T11:39:03.003Z</time></trkpt><trkpt lat="42.710915677957225" lon="12.639330899805676"><ele>357.0</ele><time>2026-04-19T11:39:04.003Z</time></trkpt><trkpt lat="42.711054726214506" lon="12.639392915055197"><ele>357.0</ele><time>2026-04-19T11:39:05.003Z</time></trkpt><trkpt lat="42.71121801190072" lon="12.639450438172164"><ele>357.0</ele><time>2026-04-19T11:39:06.003Z</time></trkpt><trkpt lat="42.71138749674874" lon="12.639505180422253"><ele>354.3333333333333</ele><time>2026-04-19T11:39:07.003Z</time></trkpt><trkpt lat="42.7115560516632" lon="12.6395868193401"><ele>351.66666666666663</ele><time>2026-04-19T11:39:08.003Z</time></trkpt><trkpt lat="42.71172809231822" lon="12.639705425528362"><ele>349.0</ele><time>2026-04-19T11:39:09.003Z</time></trkpt><trkpt lat="42.71190232365076" lon="12.639858056204925"><ele>348.66666666666663</ele><time>2026-04-19T11:39:10.003Z</time></trkpt><trkpt lat="42.71207215041244" lon="12.640010239084377"><ele>348.3333333333333</ele><time>2026-04-19T11:39:11.003Z</time></trkpt><trkpt lat="42.71225250975938" lon="12.64016968217777"><ele>348.0</ele><time>2026-04-19T11:39:12.003Z</time></trkpt><trkpt lat="42.71244343743439" lon="12.640334304112427"><ele>347.0</ele><time>2026-04-19T11:39:13.003Z</time></trkpt><trkpt lat="42.71263118928935" lon="12.640497867542601"><ele>346.0</ele><time>2026-04-19T11:39:14.003Z</time></trkpt><trkpt lat="42.71280740972212" lon="12.640647927140122"><ele>345.0</ele><time>2026-04-19T11:39:15.003Z</time></trkpt><trkpt lat="42.71297975658247" lon="12.640771967784696"><ele>345.0</ele><time>2026-04-19T11:39:16.003Z</time></trkpt></trkseg></trk></gpx>